<?xml version="1.0" encoding="UTF-8" standalone="no" ?>
<gpx xmlns="http://www.topografix.com/GPX/1/1" xmlns:xsi="http://www.w3.org/2001/XMLSchema-instance" xsi:schemaLocation="http://www.topografix.com/GPX/1/1 http://www.topografix.com/GPX/1/1/gpx.xsd" version="1.1" creator="VisuGPX - https://www.visugpx.com">
  <metadata>
    <name>collez_bossy_essai</name>
  </metadata>
  <trk>
    <name><![CDATA[collez_bossy_essai_1]]></name>
    <trkseg>
      <trkpt lat="46.29231" lon="6.13858">
        <ele>442</ele>
        <time>2020-11-06T13:09:20.975Z</time>
      </trkpt>
      <trkpt lat="46.29231" lon="6.13858">
        <ele>442</ele>
        <time>2020-11-06T13:09:21.976Z</time>
      </trkpt>
      <trkpt lat="46.29231" lon="6.13858">
        <ele>442</ele>
        <time>2020-11-06T13:09:22.976Z</time>
      </trkpt>
      <trkpt lat="46.29231" lon="6.13858">
        <ele>442</ele>
        <time>2020-11-06T13:09:23.976Z</time>
      </trkpt>
      <trkpt lat="46.29231" lon="6.13858">
        <ele>442</ele>
        <time>2020-11-06T13:09:24.976Z</time>
      </trkpt>
      <trkpt lat="46.29231" lon="6.13858">
        <ele>442</ele>
        <time>2020-11-06T13:09:25.976Z</time>
      </trkpt>
      <trkpt lat="46.29231" lon="6.13858">
        <ele>442</ele>
        <time>2020-11-06T13:09:26.976Z</time>
      </trkpt>
      <trkpt lat="46.2923" lon="6.13859">
        <ele>442</ele>
        <time>2020-11-06T13:09:27.975Z</time>
      </trkpt>
      <trkpt lat="46.2923" lon="6.13859">
        <ele>442</ele>
        <time>2020-11-06T13:09:28.975Z</time>
      </trkpt>
      <trkpt lat="46.2923" lon="6.13858">
        <ele>442</ele>
        <time>2020-11-06T13:09:29.976Z</time>
      </trkpt>
      <trkpt lat="46.2923" lon="6.13855">
        <ele>441</ele>
        <time>2020-11-06T13:09:30.976Z</time>
      </trkpt>
      <trkpt lat="46.29229" lon="6.13852">
        <ele>441</ele>
        <time>2020-11-06T13:09:31.976Z</time>
      </trkpt>
      <trkpt lat="46.29229" lon="6.13848">
        <ele>441</ele>
        <time>2020-11-06T13:09:32.976Z</time>
      </trkpt>
      <trkpt lat="46.29229" lon="6.13845">
        <ele>441</ele>
        <time>2020-11-06T13:09:33.976Z</time>
      </trkpt>
      <trkpt lat="46.29229" lon="6.13843">
        <ele>441</ele>
        <time>2020-11-06T13:09:34.976Z</time>
      </trkpt>
      <trkpt lat="46.2923" lon="6.13841">
        <ele>441</ele>
        <time>2020-11-06T13:09:35.976Z</time>
      </trkpt>
      <trkpt lat="46.2923" lon="6.13838">
        <ele>441</ele>
        <time>2020-11-06T13:09:36.976Z</time>
      </trkpt>
      <trkpt lat="46.29231" lon="6.13835">
        <ele>441</ele>
        <time>2020-11-06T13:09:37.976Z</time>
      </trkpt>
      <trkpt lat="46.29233" lon="6.13833">
        <ele>441</ele>
        <time>2020-11-06T13:09:38.976Z</time>
      </trkpt>
      <trkpt lat="46.29234" lon="6.13831">
        <ele>442</ele>
        <time>2020-11-06T13:09:39.976Z</time>
      </trkpt>
      <trkpt lat="46.29235" lon="6.13829">
        <ele>442</ele>
        <time>2020-11-06T13:09:40.975Z</time>
      </trkpt>
      <trkpt lat="46.29237" lon="6.13827">
        <ele>442</ele>
        <time>2020-11-06T13:09:41.976Z</time>
      </trkpt>
      <trkpt lat="46.29238" lon="6.13824">
        <ele>442</ele>
        <time>2020-11-06T13:09:42.975Z</time>
      </trkpt>
      <trkpt lat="46.29239" lon="6.13821">
        <ele>442</ele>
        <time>2020-11-06T13:09:43.976Z</time>
      </trkpt>
      <trkpt lat="46.2924" lon="6.13818">
        <ele>442</ele>
        <time>2020-11-06T13:09:44.975Z</time>
      </trkpt>
      <trkpt lat="46.29242" lon="6.13815">
        <ele>443</ele>
        <time>2020-11-06T13:09:45.975Z</time>
      </trkpt>
      <trkpt lat="46.29243" lon="6.13812">
        <ele>443</ele>
        <time>2020-11-06T13:09:46.976Z</time>
      </trkpt>
      <trkpt lat="46.29244" lon="6.13809">
        <ele>443</ele>
        <time>2020-11-06T13:09:47.975Z</time>
      </trkpt>
      <trkpt lat="46.29246" lon="6.13806">
        <ele>443</ele>
        <time>2020-11-06T13:09:48.975Z</time>
      </trkpt>
      <trkpt lat="46.29247" lon="6.13803">
        <ele>443</ele>
        <time>2020-11-06T13:09:49.976Z</time>
      </trkpt>
      <trkpt lat="46.2925" lon="6.138">
        <ele>443</ele>
        <time>2020-11-06T13:09:50.975Z</time>
      </trkpt>
      <trkpt lat="46.29251" lon="6.13797">
        <ele>443</ele>
        <time>2020-11-06T13:09:51.976Z</time>
      </trkpt>
      <trkpt lat="46.29253" lon="6.13793">
        <ele>444</ele>
        <time>2020-11-06T13:09:52.975Z</time>
      </trkpt>
      <trkpt lat="46.29254" lon="6.13789">
        <ele>444</ele>
        <time>2020-11-06T13:09:53.976Z</time>
      </trkpt>
      <trkpt lat="46.29253" lon="6.13785">
        <ele>444</ele>
        <time>2020-11-06T13:09:54.976Z</time>
      </trkpt>
      <trkpt lat="46.29252" lon="6.13782">
        <ele>444</ele>
        <time>2020-11-06T13:09:55.975Z</time>
      </trkpt>
      <trkpt lat="46.29251" lon="6.13779">
        <ele>444</ele>
        <time>2020-11-06T13:09:56.976Z</time>
      </trkpt>
      <trkpt lat="46.29252" lon="6.13774">
        <ele>444</ele>
        <time>2020-11-06T13:09:57.976Z</time>
      </trkpt>
      <trkpt lat="46.29252" lon="6.1377">
        <ele>445</ele>
        <time>2020-11-06T13:09:58.976Z</time>
      </trkpt>
      <trkpt lat="46.29252" lon="6.13767">
        <ele>445</ele>
        <time>2020-11-06T13:09:59.976Z</time>
      </trkpt>
      <trkpt lat="46.29252" lon="6.13764">
        <ele>445</ele>
        <time>2020-11-06T13:10:00.976Z</time>
      </trkpt>
      <trkpt lat="46.29253" lon="6.1376">
        <ele>445</ele>
        <time>2020-11-06T13:10:01.976Z</time>
      </trkpt>
      <trkpt lat="46.29254" lon="6.13756">
        <ele>445</ele>
        <time>2020-11-06T13:10:02.976Z</time>
      </trkpt>
      <trkpt lat="46.29254" lon="6.13752">
        <ele>445</ele>
        <time>2020-11-06T13:10:03.976Z</time>
      </trkpt>
      <trkpt lat="46.29255" lon="6.13748">
        <ele>445</ele>
        <time>2020-11-06T13:10:04.976Z</time>
      </trkpt>
      <trkpt lat="46.29256" lon="6.13745">
        <ele>445</ele>
        <time>2020-11-06T13:10:05.975Z</time>
      </trkpt>
      <trkpt lat="46.29257" lon="6.13743">
        <ele>446</ele>
        <time>2020-11-06T13:10:06.976Z</time>
      </trkpt>
      <trkpt lat="46.29258" lon="6.1374">
        <ele>446</ele>
        <time>2020-11-06T13:10:07.976Z</time>
      </trkpt>
      <trkpt lat="46.29259" lon="6.13737">
        <ele>446</ele>
        <time>2020-11-06T13:10:08.975Z</time>
      </trkpt>
      <trkpt lat="46.2926" lon="6.13734">
        <ele>446</ele>
        <time>2020-11-06T13:10:09.975Z</time>
      </trkpt>
      <trkpt lat="46.2926" lon="6.13731">
        <ele>447</ele>
        <time>2020-11-06T13:10:10.976Z</time>
      </trkpt>
      <trkpt lat="46.29261" lon="6.13728">
        <ele>447</ele>
        <time>2020-11-06T13:10:11.975Z</time>
      </trkpt>
      <trkpt lat="46.2926" lon="6.13724">
        <ele>447</ele>
        <time>2020-11-06T13:10:12.975Z</time>
      </trkpt>
      <trkpt lat="46.2926" lon="6.13721">
        <ele>447</ele>
        <time>2020-11-06T13:10:13.975Z</time>
      </trkpt>
      <trkpt lat="46.29259" lon="6.13718">
        <ele>447</ele>
        <time>2020-11-06T13:10:14.975Z</time>
      </trkpt>
      <trkpt lat="46.29258" lon="6.13715">
        <ele>447</ele>
        <time>2020-11-06T13:10:15.975Z</time>
      </trkpt>
      <trkpt lat="46.29257" lon="6.13711">
        <ele>447</ele>
        <time>2020-11-06T13:10:16.976Z</time>
      </trkpt>
      <trkpt lat="46.29256" lon="6.13708">
        <ele>447</ele>
        <time>2020-11-06T13:10:17.975Z</time>
      </trkpt>
      <trkpt lat="46.29256" lon="6.13705">
        <ele>447</ele>
        <time>2020-11-06T13:10:18.975Z</time>
      </trkpt>
      <trkpt lat="46.29256" lon="6.13703">
        <ele>447</ele>
        <time>2020-11-06T13:10:19.975Z</time>
      </trkpt>
      <trkpt lat="46.29257" lon="6.137">
        <ele>447</ele>
        <time>2020-11-06T13:10:20.976Z</time>
      </trkpt>
      <trkpt lat="46.29258" lon="6.13697">
        <ele>447</ele>
        <time>2020-11-06T13:10:21.975Z</time>
      </trkpt>
      <trkpt lat="46.29258" lon="6.13694">
        <ele>447</ele>
        <time>2020-11-06T13:10:22.975Z</time>
      </trkpt>
      <trkpt lat="46.29259" lon="6.13692">
        <ele>447</ele>
        <time>2020-11-06T13:10:23.975Z</time>
      </trkpt>
      <trkpt lat="46.29261" lon="6.1369">
        <ele>447</ele>
        <time>2020-11-06T13:10:24.976Z</time>
      </trkpt>
      <trkpt lat="46.29263" lon="6.13687">
        <ele>447</ele>
        <time>2020-11-06T13:10:25.975Z</time>
      </trkpt>
      <trkpt lat="46.29265" lon="6.13685">
        <ele>447</ele>
        <time>2020-11-06T13:10:26.975Z</time>
      </trkpt>
      <trkpt lat="46.29267" lon="6.13682">
        <ele>447</ele>
        <time>2020-11-06T13:10:27.975Z</time>
      </trkpt>
      <trkpt lat="46.29269" lon="6.13679">
        <ele>448</ele>
        <time>2020-11-06T13:10:28.975Z</time>
      </trkpt>
      <trkpt lat="46.29271" lon="6.13676">
        <ele>448</ele>
        <time>2020-11-06T13:10:29.975Z</time>
      </trkpt>
      <trkpt lat="46.29273" lon="6.13674">
        <ele>448</ele>
        <time>2020-11-06T13:10:30.975Z</time>
      </trkpt>
      <trkpt lat="46.29275" lon="6.13674">
        <ele>448</ele>
        <time>2020-11-06T13:10:31.975Z</time>
      </trkpt>
      <trkpt lat="46.29276" lon="6.13673">
        <ele>448</ele>
        <time>2020-11-06T13:10:32.975Z</time>
      </trkpt>
      <trkpt lat="46.29278" lon="6.13673">
        <ele>449</ele>
        <time>2020-11-06T13:10:33.975Z</time>
      </trkpt>
      <trkpt lat="46.2928" lon="6.13673">
        <ele>449</ele>
        <time>2020-11-06T13:10:34.975Z</time>
      </trkpt>
      <trkpt lat="46.29282" lon="6.13673">
        <ele>449</ele>
        <time>2020-11-06T13:10:35.975Z</time>
      </trkpt>
      <trkpt lat="46.29284" lon="6.13673">
        <ele>449</ele>
        <time>2020-11-06T13:10:36.975Z</time>
      </trkpt>
      <trkpt lat="46.29286" lon="6.13674">
        <ele>449</ele>
        <time>2020-11-06T13:10:37.975Z</time>
      </trkpt>
      <trkpt lat="46.29288" lon="6.13675">
        <ele>449</ele>
        <time>2020-11-06T13:10:38.975Z</time>
      </trkpt>
      <trkpt lat="46.2929" lon="6.13676">
        <ele>450</ele>
        <time>2020-11-06T13:10:39.976Z</time>
      </trkpt>
      <trkpt lat="46.29293" lon="6.13675">
        <ele>450</ele>
        <time>2020-11-06T13:10:40.975Z</time>
      </trkpt>
      <trkpt lat="46.29295" lon="6.13675">
        <ele>450</ele>
        <time>2020-11-06T13:10:41.975Z</time>
      </trkpt>
      <trkpt lat="46.29297" lon="6.13673">
        <ele>450</ele>
        <time>2020-11-06T13:10:42.975Z</time>
      </trkpt>
      <trkpt lat="46.29299" lon="6.13672">
        <ele>450</ele>
        <time>2020-11-06T13:10:43.975Z</time>
      </trkpt>
      <trkpt lat="46.29301" lon="6.1367">
        <ele>450</ele>
        <time>2020-11-06T13:10:44.975Z</time>
      </trkpt>
      <trkpt lat="46.29304" lon="6.13667">
        <ele>450</ele>
        <time>2020-11-06T13:10:45.975Z</time>
      </trkpt>
      <trkpt lat="46.29305" lon="6.13664">
        <ele>451</ele>
        <time>2020-11-06T13:10:46.975Z</time>
      </trkpt>
      <trkpt lat="46.29307" lon="6.1366">
        <ele>451</ele>
        <time>2020-11-06T13:10:47.976Z</time>
      </trkpt>
      <trkpt lat="46.29308" lon="6.13656">
        <ele>451</ele>
        <time>2020-11-06T13:10:48.975Z</time>
      </trkpt>
      <trkpt lat="46.29308" lon="6.13652">
        <ele>451</ele>
        <time>2020-11-06T13:10:49.975Z</time>
      </trkpt>
      <trkpt lat="46.29308" lon="6.13648">
        <ele>451</ele>
        <time>2020-11-06T13:10:50.976Z</time>
      </trkpt>
      <trkpt lat="46.29308" lon="6.13643">
        <ele>451</ele>
        <time>2020-11-06T13:10:51.976Z</time>
      </trkpt>
      <trkpt lat="46.29308" lon="6.13639">
        <ele>452</ele>
        <time>2020-11-06T13:10:52.975Z</time>
      </trkpt>
      <trkpt lat="46.29308" lon="6.13635">
        <ele>452</ele>
        <time>2020-11-06T13:10:53.976Z</time>
      </trkpt>
      <trkpt lat="46.29307" lon="6.13631">
        <ele>452</ele>
        <time>2020-11-06T13:10:54.976Z</time>
      </trkpt>
      <trkpt lat="46.29307" lon="6.13627">
        <ele>452</ele>
        <time>2020-11-06T13:10:55.976Z</time>
      </trkpt>
      <trkpt lat="46.29305" lon="6.13622">
        <ele>452</ele>
        <time>2020-11-06T13:10:56.975Z</time>
      </trkpt>
      <trkpt lat="46.29304" lon="6.13618">
        <ele>452</ele>
        <time>2020-11-06T13:10:57.975Z</time>
      </trkpt>
      <trkpt lat="46.29303" lon="6.13613">
        <ele>452</ele>
        <time>2020-11-06T13:10:58.976Z</time>
      </trkpt>
      <trkpt lat="46.29303" lon="6.13609">
        <ele>452</ele>
        <time>2020-11-06T13:10:59.975Z</time>
      </trkpt>
      <trkpt lat="46.29302" lon="6.13605">
        <ele>452</ele>
        <time>2020-11-06T13:11:00.975Z</time>
      </trkpt>
      <trkpt lat="46.29302" lon="6.13601">
        <ele>451</ele>
        <time>2020-11-06T13:11:01.976Z</time>
      </trkpt>
      <trkpt lat="46.29301" lon="6.13598">
        <ele>451</ele>
        <time>2020-11-06T13:11:02.976Z</time>
      </trkpt>
      <trkpt lat="46.29302" lon="6.13595">
        <ele>451</ele>
        <time>2020-11-06T13:11:03.976Z</time>
      </trkpt>
      <trkpt lat="46.29302" lon="6.13593">
        <ele>451</ele>
        <time>2020-11-06T13:11:04.976Z</time>
      </trkpt>
      <trkpt lat="46.29303" lon="6.13591">
        <ele>451</ele>
        <time>2020-11-06T13:11:05.976Z</time>
      </trkpt>
      <trkpt lat="46.29304" lon="6.13588">
        <ele>451</ele>
        <time>2020-11-06T13:11:06.976Z</time>
      </trkpt>
      <trkpt lat="46.29305" lon="6.13586">
        <ele>451</ele>
        <time>2020-11-06T13:11:07.976Z</time>
      </trkpt>
      <trkpt lat="46.29307" lon="6.13583">
        <ele>451</ele>
        <time>2020-11-06T13:11:08.976Z</time>
      </trkpt>
      <trkpt lat="46.29308" lon="6.13579">
        <ele>451</ele>
        <time>2020-11-06T13:11:09.975Z</time>
      </trkpt>
      <trkpt lat="46.2931" lon="6.13576">
        <ele>451</ele>
        <time>2020-11-06T13:11:10.976Z</time>
      </trkpt>
      <trkpt lat="46.2931" lon="6.13573">
        <ele>451</ele>
        <time>2020-11-06T13:11:11.976Z</time>
      </trkpt>
      <trkpt lat="46.29311" lon="6.1357">
        <ele>451</ele>
        <time>2020-11-06T13:11:12.976Z</time>
      </trkpt>
      <trkpt lat="46.29312" lon="6.13567">
        <ele>451</ele>
        <time>2020-11-06T13:11:13.975Z</time>
      </trkpt>
      <trkpt lat="46.29314" lon="6.13565">
        <ele>451</ele>
        <time>2020-11-06T13:11:14.976Z</time>
      </trkpt>
      <trkpt lat="46.29315" lon="6.13561">
        <ele>451</ele>
        <time>2020-11-06T13:11:15.976Z</time>
      </trkpt>
      <trkpt lat="46.29316" lon="6.13558">
        <ele>450</ele>
        <time>2020-11-06T13:11:16.975Z</time>
      </trkpt>
      <trkpt lat="46.29317" lon="6.13555">
        <ele>450</ele>
        <time>2020-11-06T13:11:17.976Z</time>
      </trkpt>
      <trkpt lat="46.29317" lon="6.13551">
        <ele>450</ele>
        <time>2020-11-06T13:11:18.976Z</time>
      </trkpt>
      <trkpt lat="46.29317" lon="6.13547">
        <ele>451</ele>
        <time>2020-11-06T13:11:19.976Z</time>
      </trkpt>
      <trkpt lat="46.29316" lon="6.13544">
        <ele>451</ele>
        <time>2020-11-06T13:11:20.976Z</time>
      </trkpt>
      <trkpt lat="46.29316" lon="6.13542">
        <ele>451</ele>
        <time>2020-11-06T13:11:21.976Z</time>
      </trkpt>
      <trkpt lat="46.29316" lon="6.1354">
        <ele>451</ele>
        <time>2020-11-06T13:11:22.976Z</time>
      </trkpt>
      <trkpt lat="46.29316" lon="6.13538">
        <ele>451</ele>
        <time>2020-11-06T13:11:23.976Z</time>
      </trkpt>
      <trkpt lat="46.29317" lon="6.13536">
        <ele>451</ele>
        <time>2020-11-06T13:11:24.976Z</time>
      </trkpt>
      <trkpt lat="46.29318" lon="6.13534">
        <ele>451</ele>
        <time>2020-11-06T13:11:25.976Z</time>
      </trkpt>
      <trkpt lat="46.29319" lon="6.13533">
        <ele>451</ele>
        <time>2020-11-06T13:11:26.975Z</time>
      </trkpt>
      <trkpt lat="46.2932" lon="6.13531">
        <ele>451</ele>
        <time>2020-11-06T13:11:27.975Z</time>
      </trkpt>
      <trkpt lat="46.29321" lon="6.1353">
        <ele>451</ele>
        <time>2020-11-06T13:11:28.976Z</time>
      </trkpt>
      <trkpt lat="46.29322" lon="6.13528">
        <ele>451</ele>
        <time>2020-11-06T13:11:29.976Z</time>
      </trkpt>
      <trkpt lat="46.29324" lon="6.13527">
        <ele>451</ele>
        <time>2020-11-06T13:11:30.975Z</time>
      </trkpt>
      <trkpt lat="46.29325" lon="6.13525">
        <ele>451</ele>
        <time>2020-11-06T13:11:31.976Z</time>
      </trkpt>
      <trkpt lat="46.29327" lon="6.13523">
        <ele>452</ele>
        <time>2020-11-06T13:11:32.976Z</time>
      </trkpt>
      <trkpt lat="46.29329" lon="6.13522">
        <ele>452</ele>
        <time>2020-11-06T13:11:33.976Z</time>
      </trkpt>
      <trkpt lat="46.2933" lon="6.13521">
        <ele>452</ele>
        <time>2020-11-06T13:11:34.976Z</time>
      </trkpt>
      <trkpt lat="46.29332" lon="6.13521">
        <ele>452</ele>
        <time>2020-11-06T13:11:35.976Z</time>
      </trkpt>
      <trkpt lat="46.29334" lon="6.13522">
        <ele>452</ele>
        <time>2020-11-06T13:11:36.976Z</time>
      </trkpt>
      <trkpt lat="46.29337" lon="6.13523">
        <ele>453</ele>
        <time>2020-11-06T13:11:37.975Z</time>
      </trkpt>
      <trkpt lat="46.29339" lon="6.13523">
        <ele>453</ele>
        <time>2020-11-06T13:11:38.975Z</time>
      </trkpt>
      <trkpt lat="46.29342" lon="6.13523">
        <ele>453</ele>
        <time>2020-11-06T13:11:39.976Z</time>
      </trkpt>
      <trkpt lat="46.29344" lon="6.13523">
        <ele>453</ele>
        <time>2020-11-06T13:11:40.976Z</time>
      </trkpt>
      <trkpt lat="46.29347" lon="6.13523">
        <ele>454</ele>
        <time>2020-11-06T13:11:41.975Z</time>
      </trkpt>
      <trkpt lat="46.2935" lon="6.13525">
        <ele>454</ele>
        <time>2020-11-06T13:11:42.976Z</time>
      </trkpt>
      <trkpt lat="46.29351" lon="6.13526">
        <ele>454</ele>
        <time>2020-11-06T13:11:43.976Z</time>
      </trkpt>
      <trkpt lat="46.29353" lon="6.13527">
        <ele>454</ele>
        <time>2020-11-06T13:11:44.976Z</time>
      </trkpt>
      <trkpt lat="46.29355" lon="6.13527">
        <ele>455</ele>
        <time>2020-11-06T13:11:45.975Z</time>
      </trkpt>
      <trkpt lat="46.29357" lon="6.13528">
        <ele>455</ele>
        <time>2020-11-06T13:11:46.976Z</time>
      </trkpt>
      <trkpt lat="46.29359" lon="6.13528">
        <ele>455</ele>
        <time>2020-11-06T13:11:47.976Z</time>
      </trkpt>
      <trkpt lat="46.29361" lon="6.13529">
        <ele>455</ele>
        <time>2020-11-06T13:11:48.976Z</time>
      </trkpt>
      <trkpt lat="46.29362" lon="6.1353">
        <ele>456</ele>
        <time>2020-11-06T13:11:49.975Z</time>
      </trkpt>
      <trkpt lat="46.29363" lon="6.13531">
        <ele>456</ele>
        <time>2020-11-06T13:11:50.976Z</time>
      </trkpt>
      <trkpt lat="46.29365" lon="6.13532">
        <ele>456</ele>
        <time>2020-11-06T13:11:51.976Z</time>
      </trkpt>
      <trkpt lat="46.29367" lon="6.13532">
        <ele>456</ele>
        <time>2020-11-06T13:11:52.975Z</time>
      </trkpt>
      <trkpt lat="46.29369" lon="6.13532">
        <ele>456</ele>
        <time>2020-11-06T13:11:53.976Z</time>
      </trkpt>
      <trkpt lat="46.29371" lon="6.13533">
        <ele>457</ele>
        <time>2020-11-06T13:11:54.976Z</time>
      </trkpt>
      <trkpt lat="46.29373" lon="6.13533">
        <ele>457</ele>
        <time>2020-11-06T13:11:55.976Z</time>
      </trkpt>
      <trkpt lat="46.29375" lon="6.13533">
        <ele>457</ele>
        <time>2020-11-06T13:11:56.975Z</time>
      </trkpt>
      <trkpt lat="46.29377" lon="6.13533">
        <ele>457</ele>
        <time>2020-11-06T13:11:57.975Z</time>
      </trkpt>
      <trkpt lat="46.29378" lon="6.13533">
        <ele>457</ele>
        <time>2020-11-06T13:11:58.976Z</time>
      </trkpt>
      <trkpt lat="46.2938" lon="6.13533">
        <ele>458</ele>
        <time>2020-11-06T13:11:59.976Z</time>
      </trkpt>
      <trkpt lat="46.29381" lon="6.13533">
        <ele>458</ele>
        <time>2020-11-06T13:12:00.975Z</time>
      </trkpt>
      <trkpt lat="46.29383" lon="6.13534">
        <ele>458</ele>
        <time>2020-11-06T13:12:01.976Z</time>
      </trkpt>
      <trkpt lat="46.29385" lon="6.13534">
        <ele>458</ele>
        <time>2020-11-06T13:12:02.976Z</time>
      </trkpt>
      <trkpt lat="46.29388" lon="6.13534">
        <ele>458</ele>
        <time>2020-11-06T13:12:03.976Z</time>
      </trkpt>
      <trkpt lat="46.29389" lon="6.13534">
        <ele>459</ele>
        <time>2020-11-06T13:12:04.975Z</time>
      </trkpt>
      <trkpt lat="46.29391" lon="6.13534">
        <ele>459</ele>
        <time>2020-11-06T13:12:05.976Z</time>
      </trkpt>
      <trkpt lat="46.29393" lon="6.13533">
        <ele>459</ele>
        <time>2020-11-06T13:12:06.975Z</time>
      </trkpt>
      <trkpt lat="46.29396" lon="6.13531">
        <ele>459</ele>
        <time>2020-11-06T13:12:07.976Z</time>
      </trkpt>
      <trkpt lat="46.29398" lon="6.13532">
        <ele>460</ele>
        <time>2020-11-06T13:12:08.975Z</time>
      </trkpt>
      <trkpt lat="46.29398" lon="6.13533">
        <ele>460</ele>
        <time>2020-11-06T13:12:09.976Z</time>
      </trkpt>
      <trkpt lat="46.29398" lon="6.13533">
        <ele>460</ele>
        <time>2020-11-06T13:12:10.976Z</time>
      </trkpt>
      <trkpt lat="46.29398" lon="6.13534">
        <ele>460</ele>
        <time>2020-11-06T13:12:11.976Z</time>
      </trkpt>
      <trkpt lat="46.29398" lon="6.13536">
        <ele>461</ele>
        <time>2020-11-06T13:12:12.975Z</time>
      </trkpt>
      <trkpt lat="46.29398" lon="6.13538">
        <ele>461</ele>
        <time>2020-11-06T13:12:13.976Z</time>
      </trkpt>
      <trkpt lat="46.29398" lon="6.13539">
        <ele>461</ele>
        <time>2020-11-06T13:12:14.976Z</time>
      </trkpt>
      <trkpt lat="46.29399" lon="6.13541">
        <ele>461</ele>
        <time>2020-11-06T13:12:15.976Z</time>
      </trkpt>
      <trkpt lat="46.29399" lon="6.13542">
        <ele>461</ele>
        <time>2020-11-06T13:12:16.975Z</time>
      </trkpt>
      <trkpt lat="46.29399" lon="6.13544">
        <ele>461</ele>
        <time>2020-11-06T13:12:17.976Z</time>
      </trkpt>
      <trkpt lat="46.294" lon="6.13546">
        <ele>461</ele>
        <time>2020-11-06T13:12:18.975Z</time>
      </trkpt>
      <trkpt lat="46.29401" lon="6.13547">
        <ele>461</ele>
        <time>2020-11-06T13:12:19.975Z</time>
      </trkpt>
      <trkpt lat="46.29403" lon="6.13549">
        <ele>462</ele>
        <time>2020-11-06T13:12:20.975Z</time>
      </trkpt>
      <trkpt lat="46.29404" lon="6.13549">
        <ele>462</ele>
        <time>2020-11-06T13:12:21.976Z</time>
      </trkpt>
      <trkpt lat="46.29406" lon="6.1355">
        <ele>462</ele>
        <time>2020-11-06T13:12:22.976Z</time>
      </trkpt>
      <trkpt lat="46.29408" lon="6.13551">
        <ele>462</ele>
        <time>2020-11-06T13:12:23.976Z</time>
      </trkpt>
      <trkpt lat="46.29409" lon="6.13551">
        <ele>462</ele>
        <time>2020-11-06T13:12:24.975Z</time>
      </trkpt>
      <trkpt lat="46.29411" lon="6.13551">
        <ele>462</ele>
        <time>2020-11-06T13:12:25.976Z</time>
      </trkpt>
      <trkpt lat="46.29412" lon="6.13551">
        <ele>462</ele>
        <time>2020-11-06T13:12:26.975Z</time>
      </trkpt>
      <trkpt lat="46.29413" lon="6.13551">
        <ele>463</ele>
        <time>2020-11-06T13:12:27.976Z</time>
      </trkpt>
      <trkpt lat="46.29415" lon="6.13552">
        <ele>463</ele>
        <time>2020-11-06T13:12:28.976Z</time>
      </trkpt>
      <trkpt lat="46.29417" lon="6.13552">
        <ele>463</ele>
        <time>2020-11-06T13:12:29.976Z</time>
      </trkpt>
      <trkpt lat="46.29419" lon="6.13552">
        <ele>463</ele>
        <time>2020-11-06T13:12:30.976Z</time>
      </trkpt>
      <trkpt lat="46.29421" lon="6.13552">
        <ele>463</ele>
        <time>2020-11-06T13:12:31.976Z</time>
      </trkpt>
      <trkpt lat="46.29424" lon="6.13553">
        <ele>463</ele>
        <time>2020-11-06T13:12:32.976Z</time>
      </trkpt>
      <trkpt lat="46.29427" lon="6.13553">
        <ele>463</ele>
        <time>2020-11-06T13:12:33.976Z</time>
      </trkpt>
      <trkpt lat="46.29431" lon="6.13553">
        <ele>463</ele>
        <time>2020-11-06T13:12:34.976Z</time>
      </trkpt>
      <trkpt lat="46.29433" lon="6.13554">
        <ele>463</ele>
        <time>2020-11-06T13:12:35.976Z</time>
      </trkpt>
      <trkpt lat="46.29435" lon="6.13554">
        <ele>464</ele>
        <time>2020-11-06T13:12:36.976Z</time>
      </trkpt>
      <trkpt lat="46.29437" lon="6.13555">
        <ele>464</ele>
        <time>2020-11-06T13:12:37.976Z</time>
      </trkpt>
      <trkpt lat="46.2944" lon="6.13556">
        <ele>464</ele>
        <time>2020-11-06T13:12:38.975Z</time>
      </trkpt>
      <trkpt lat="46.29443" lon="6.13556">
        <ele>464</ele>
        <time>2020-11-06T13:12:39.975Z</time>
      </trkpt>
      <trkpt lat="46.29446" lon="6.13558">
        <ele>464</ele>
        <time>2020-11-06T13:12:40.976Z</time>
      </trkpt>
      <trkpt lat="46.29449" lon="6.13559">
        <ele>464</ele>
        <time>2020-11-06T13:12:41.976Z</time>
      </trkpt>
      <trkpt lat="46.29452" lon="6.1356">
        <ele>464</ele>
        <time>2020-11-06T13:12:42.976Z</time>
      </trkpt>
      <trkpt lat="46.29455" lon="6.13561">
        <ele>464</ele>
        <time>2020-11-06T13:12:43.976Z</time>
      </trkpt>
      <trkpt lat="46.29458" lon="6.13562">
        <ele>464</ele>
        <time>2020-11-06T13:12:44.976Z</time>
      </trkpt>
      <trkpt lat="46.2946" lon="6.13562">
        <ele>464</ele>
        <time>2020-11-06T13:12:45.975Z</time>
      </trkpt>
      <trkpt lat="46.29463" lon="6.13562">
        <ele>464</ele>
        <time>2020-11-06T13:12:46.976Z</time>
      </trkpt>
      <trkpt lat="46.29465" lon="6.13563">
        <ele>465</ele>
        <time>2020-11-06T13:12:47.976Z</time>
      </trkpt>
      <trkpt lat="46.29468" lon="6.13563">
        <ele>465</ele>
        <time>2020-11-06T13:12:48.976Z</time>
      </trkpt>
      <trkpt lat="46.2947" lon="6.13564">
        <ele>465</ele>
        <time>2020-11-06T13:12:49.976Z</time>
      </trkpt>
      <trkpt lat="46.29473" lon="6.13566">
        <ele>465</ele>
        <time>2020-11-06T13:12:50.976Z</time>
      </trkpt>
      <trkpt lat="46.29476" lon="6.13567">
        <ele>465</ele>
        <time>2020-11-06T13:12:51.976Z</time>
      </trkpt>
      <trkpt lat="46.29478" lon="6.13568">
        <ele>465</ele>
        <time>2020-11-06T13:12:52.976Z</time>
      </trkpt>
      <trkpt lat="46.29481" lon="6.1357">
        <ele>465</ele>
        <time>2020-11-06T13:12:53.975Z</time>
      </trkpt>
      <trkpt lat="46.29484" lon="6.13572">
        <ele>465</ele>
        <time>2020-11-06T13:12:54.976Z</time>
      </trkpt>
      <trkpt lat="46.29486" lon="6.13573">
        <ele>465</ele>
        <time>2020-11-06T13:12:55.975Z</time>
      </trkpt>
      <trkpt lat="46.29489" lon="6.13574">
        <ele>465</ele>
        <time>2020-11-06T13:12:56.975Z</time>
      </trkpt>
      <trkpt lat="46.29492" lon="6.13574">
        <ele>465</ele>
        <time>2020-11-06T13:12:57.975Z</time>
      </trkpt>
      <trkpt lat="46.29495" lon="6.13573">
        <ele>465</ele>
        <time>2020-11-06T13:12:58.976Z</time>
      </trkpt>
      <trkpt lat="46.29498" lon="6.13573">
        <ele>465</ele>
        <time>2020-11-06T13:12:59.975Z</time>
      </trkpt>
      <trkpt lat="46.29502" lon="6.13574">
        <ele>466</ele>
        <time>2020-11-06T13:13:00.976Z</time>
      </trkpt>
      <trkpt lat="46.29505" lon="6.13574">
        <ele>466</ele>
        <time>2020-11-06T13:13:01.976Z</time>
      </trkpt>
      <trkpt lat="46.29507" lon="6.13574">
        <ele>466</ele>
        <time>2020-11-06T13:13:02.975Z</time>
      </trkpt>
      <trkpt lat="46.2951" lon="6.13574">
        <ele>466</ele>
        <time>2020-11-06T13:13:03.976Z</time>
      </trkpt>
      <trkpt lat="46.29513" lon="6.13575">
        <ele>466</ele>
        <time>2020-11-06T13:13:04.975Z</time>
      </trkpt>
      <trkpt lat="46.29515" lon="6.13576">
        <ele>466</ele>
        <time>2020-11-06T13:13:05.975Z</time>
      </trkpt>
      <trkpt lat="46.29518" lon="6.13578">
        <ele>466</ele>
        <time>2020-11-06T13:13:06.975Z</time>
      </trkpt>
      <trkpt lat="46.2952" lon="6.13578">
        <ele>466</ele>
        <time>2020-11-06T13:13:07.976Z</time>
      </trkpt>
      <trkpt lat="46.29522" lon="6.13579">
        <ele>466</ele>
        <time>2020-11-06T13:13:08.976Z</time>
      </trkpt>
      <trkpt lat="46.29524" lon="6.13579">
        <ele>466</ele>
        <time>2020-11-06T13:13:09.976Z</time>
      </trkpt>
      <trkpt lat="46.29526" lon="6.1358">
        <ele>466</ele>
        <time>2020-11-06T13:13:10.975Z</time>
      </trkpt>
      <trkpt lat="46.29529" lon="6.1358">
        <ele>466</ele>
        <time>2020-11-06T13:13:11.975Z</time>
      </trkpt>
      <trkpt lat="46.29531" lon="6.13581">
        <ele>467</ele>
        <time>2020-11-06T13:13:12.976Z</time>
      </trkpt>
      <trkpt lat="46.29533" lon="6.13583">
        <ele>467</ele>
        <time>2020-11-06T13:13:13.975Z</time>
      </trkpt>
      <trkpt lat="46.29535" lon="6.13584">
        <ele>467</ele>
        <time>2020-11-06T13:13:14.975Z</time>
      </trkpt>
      <trkpt lat="46.29537" lon="6.13585">
        <ele>467</ele>
        <time>2020-11-06T13:13:15.976Z</time>
      </trkpt>
      <trkpt lat="46.29539" lon="6.13586">
        <ele>467</ele>
        <time>2020-11-06T13:13:16.975Z</time>
      </trkpt>
      <trkpt lat="46.29541" lon="6.13587">
        <ele>467</ele>
        <time>2020-11-06T13:13:17.975Z</time>
      </trkpt>
      <trkpt lat="46.29544" lon="6.13588">
        <ele>467</ele>
        <time>2020-11-06T13:13:18.976Z</time>
      </trkpt>
      <trkpt lat="46.29546" lon="6.13589">
        <ele>467</ele>
        <time>2020-11-06T13:13:19.976Z</time>
      </trkpt>
      <trkpt lat="46.29549" lon="6.1359">
        <ele>467</ele>
        <time>2020-11-06T13:13:20.975Z</time>
      </trkpt>
      <trkpt lat="46.29552" lon="6.13591">
        <ele>467</ele>
        <time>2020-11-06T13:13:21.976Z</time>
      </trkpt>
      <trkpt lat="46.29555" lon="6.13593">
        <ele>467</ele>
        <time>2020-11-06T13:13:22.976Z</time>
      </trkpt>
      <trkpt lat="46.29558" lon="6.13593">
        <ele>467</ele>
        <time>2020-11-06T13:13:23.976Z</time>
      </trkpt>
      <trkpt lat="46.2956" lon="6.13594">
        <ele>467</ele>
        <time>2020-11-06T13:13:24.976Z</time>
      </trkpt>
      <trkpt lat="46.29562" lon="6.13594">
        <ele>467</ele>
        <time>2020-11-06T13:13:25.976Z</time>
      </trkpt>
      <trkpt lat="46.29564" lon="6.13595">
        <ele>467</ele>
        <time>2020-11-06T13:13:26.975Z</time>
      </trkpt>
      <trkpt lat="46.29566" lon="6.13597">
        <ele>467</ele>
        <time>2020-11-06T13:13:27.976Z</time>
      </trkpt>
      <trkpt lat="46.29569" lon="6.13599">
        <ele>467</ele>
        <time>2020-11-06T13:13:28.976Z</time>
      </trkpt>
      <trkpt lat="46.29571" lon="6.13602">
        <ele>467</ele>
        <time>2020-11-06T13:13:29.975Z</time>
      </trkpt>
      <trkpt lat="46.29574" lon="6.13604">
        <ele>467</ele>
        <time>2020-11-06T13:13:30.975Z</time>
      </trkpt>
      <trkpt lat="46.29577" lon="6.13604">
        <ele>467</ele>
        <time>2020-11-06T13:13:31.976Z</time>
      </trkpt>
      <trkpt lat="46.29579" lon="6.13604">
        <ele>467</ele>
        <time>2020-11-06T13:13:32.976Z</time>
      </trkpt>
      <trkpt lat="46.29581" lon="6.13603">
        <ele>467</ele>
        <time>2020-11-06T13:13:33.975Z</time>
      </trkpt>
      <trkpt lat="46.29584" lon="6.13603">
        <ele>467</ele>
        <time>2020-11-06T13:13:34.975Z</time>
      </trkpt>
      <trkpt lat="46.29585" lon="6.13601">
        <ele>467</ele>
        <time>2020-11-06T13:13:35.976Z</time>
      </trkpt>
      <trkpt lat="46.29587" lon="6.136">
        <ele>468</ele>
        <time>2020-11-06T13:13:36.976Z</time>
      </trkpt>
      <trkpt lat="46.29589" lon="6.13599">
        <ele>468</ele>
        <time>2020-11-06T13:13:37.975Z</time>
      </trkpt>
      <trkpt lat="46.2959" lon="6.13596">
        <ele>468</ele>
        <time>2020-11-06T13:13:38.976Z</time>
      </trkpt>
      <trkpt lat="46.29592" lon="6.13593">
        <ele>468</ele>
        <time>2020-11-06T13:13:39.975Z</time>
      </trkpt>
      <trkpt lat="46.29593" lon="6.13591">
        <ele>468</ele>
        <time>2020-11-06T13:13:40.975Z</time>
      </trkpt>
      <trkpt lat="46.29594" lon="6.13589">
        <ele>468</ele>
        <time>2020-11-06T13:13:41.976Z</time>
      </trkpt>
      <trkpt lat="46.29595" lon="6.13586">
        <ele>468</ele>
        <time>2020-11-06T13:13:42.976Z</time>
      </trkpt>
      <trkpt lat="46.29596" lon="6.13583">
        <ele>468</ele>
        <time>2020-11-06T13:13:43.976Z</time>
      </trkpt>
      <trkpt lat="46.29597" lon="6.13581">
        <ele>468</ele>
        <time>2020-11-06T13:13:44.975Z</time>
      </trkpt>
      <trkpt lat="46.29598" lon="6.13578">
        <ele>468</ele>
        <time>2020-11-06T13:13:45.976Z</time>
      </trkpt>
      <trkpt lat="46.296" lon="6.13574">
        <ele>468</ele>
        <time>2020-11-06T13:13:46.975Z</time>
      </trkpt>
      <trkpt lat="46.29602" lon="6.13571">
        <ele>468</ele>
        <time>2020-11-06T13:13:47.976Z</time>
      </trkpt>
      <trkpt lat="46.29605" lon="6.13568">
        <ele>468</ele>
        <time>2020-11-06T13:13:48.976Z</time>
      </trkpt>
      <trkpt lat="46.29607" lon="6.13565">
        <ele>468</ele>
        <time>2020-11-06T13:13:49.976Z</time>
      </trkpt>
      <trkpt lat="46.2961" lon="6.13561">
        <ele>468</ele>
        <time>2020-11-06T13:13:50.976Z</time>
      </trkpt>
      <trkpt lat="46.29613" lon="6.13555">
        <ele>468</ele>
        <time>2020-11-06T13:13:51.976Z</time>
      </trkpt>
      <trkpt lat="46.29615" lon="6.13552">
        <ele>468</ele>
        <time>2020-11-06T13:13:52.976Z</time>
      </trkpt>
      <trkpt lat="46.29616" lon="6.13547">
        <ele>468</ele>
        <time>2020-11-06T13:13:53.976Z</time>
      </trkpt>
      <trkpt lat="46.29618" lon="6.13544">
        <ele>468</ele>
        <time>2020-11-06T13:13:54.976Z</time>
      </trkpt>
      <trkpt lat="46.2962" lon="6.13541">
        <ele>468</ele>
        <time>2020-11-06T13:13:55.976Z</time>
      </trkpt>
      <trkpt lat="46.29621" lon="6.13539">
        <ele>468</ele>
        <time>2020-11-06T13:13:56.976Z</time>
      </trkpt>
      <trkpt lat="46.29624" lon="6.13537">
        <ele>468</ele>
        <time>2020-11-06T13:13:57.976Z</time>
      </trkpt>
      <trkpt lat="46.29626" lon="6.13535">
        <ele>468</ele>
        <time>2020-11-06T13:13:58.976Z</time>
      </trkpt>
      <trkpt lat="46.29627" lon="6.13532">
        <ele>468</ele>
        <time>2020-11-06T13:13:59.976Z</time>
      </trkpt>
      <trkpt lat="46.29627" lon="6.13528">
        <ele>468</ele>
        <time>2020-11-06T13:14:00.975Z</time>
      </trkpt>
      <trkpt lat="46.29627" lon="6.13524">
        <ele>468</ele>
        <time>2020-11-06T13:14:01.975Z</time>
      </trkpt>
      <trkpt lat="46.29627" lon="6.1352">
        <ele>468</ele>
        <time>2020-11-06T13:14:02.975Z</time>
      </trkpt>
      <trkpt lat="46.29628" lon="6.13517">
        <ele>468</ele>
        <time>2020-11-06T13:14:03.976Z</time>
      </trkpt>
      <trkpt lat="46.29628" lon="6.13514">
        <ele>468</ele>
        <time>2020-11-06T13:14:04.975Z</time>
      </trkpt>
      <trkpt lat="46.29629" lon="6.13511">
        <ele>468</ele>
        <time>2020-11-06T13:14:05.976Z</time>
      </trkpt>
      <trkpt lat="46.2963" lon="6.13508">
        <ele>467</ele>
        <time>2020-11-06T13:14:06.976Z</time>
      </trkpt>
      <trkpt lat="46.2963" lon="6.13504">
        <ele>467</ele>
        <time>2020-11-06T13:14:07.976Z</time>
      </trkpt>
      <trkpt lat="46.29631" lon="6.13502">
        <ele>467</ele>
        <time>2020-11-06T13:14:08.975Z</time>
      </trkpt>
      <trkpt lat="46.29632" lon="6.135">
        <ele>467</ele>
        <time>2020-11-06T13:14:09.976Z</time>
      </trkpt>
      <trkpt lat="46.29633" lon="6.13497">
        <ele>467</ele>
        <time>2020-11-06T13:14:10.975Z</time>
      </trkpt>
      <trkpt lat="46.29634" lon="6.13493">
        <ele>467</ele>
        <time>2020-11-06T13:14:11.976Z</time>
      </trkpt>
      <trkpt lat="46.29635" lon="6.13489">
        <ele>466</ele>
        <time>2020-11-06T13:14:12.976Z</time>
      </trkpt>
      <trkpt lat="46.29636" lon="6.13485">
        <ele>466</ele>
        <time>2020-11-06T13:14:13.975Z</time>
      </trkpt>
      <trkpt lat="46.29637" lon="6.13481">
        <ele>466</ele>
        <time>2020-11-06T13:14:14.976Z</time>
      </trkpt>
      <trkpt lat="46.29637" lon="6.13477">
        <ele>466</ele>
        <time>2020-11-06T13:14:15.976Z</time>
      </trkpt>
      <trkpt lat="46.29638" lon="6.13474">
        <ele>466</ele>
        <time>2020-11-06T13:14:16.976Z</time>
      </trkpt>
      <trkpt lat="46.29639" lon="6.13471">
        <ele>466</ele>
        <time>2020-11-06T13:14:17.976Z</time>
      </trkpt>
      <trkpt lat="46.2964" lon="6.1347">
        <ele>465</ele>
        <time>2020-11-06T13:14:18.976Z</time>
      </trkpt>
      <trkpt lat="46.29641" lon="6.1347">
        <ele>465</ele>
        <time>2020-11-06T13:14:19.976Z</time>
      </trkpt>
      <trkpt lat="46.29642" lon="6.13471">
        <ele>465</ele>
        <time>2020-11-06T13:14:20.976Z</time>
      </trkpt>
      <trkpt lat="46.29643" lon="6.1347">
        <ele>465</ele>
        <time>2020-11-06T13:14:21.976Z</time>
      </trkpt>
      <trkpt lat="46.29645" lon="6.1347">
        <ele>465</ele>
        <time>2020-11-06T13:14:22.976Z</time>
      </trkpt>
      <trkpt lat="46.29648" lon="6.1347">
        <ele>465</ele>
        <time>2020-11-06T13:14:23.976Z</time>
      </trkpt>
      <trkpt lat="46.2965" lon="6.13471">
        <ele>465</ele>
        <time>2020-11-06T13:14:24.976Z</time>
      </trkpt>
      <trkpt lat="46.29652" lon="6.13471">
        <ele>465</ele>
        <time>2020-11-06T13:14:25.976Z</time>
      </trkpt>
      <trkpt lat="46.29654" lon="6.13471">
        <ele>465</ele>
        <time>2020-11-06T13:14:26.976Z</time>
      </trkpt>
      <trkpt lat="46.29656" lon="6.13471">
        <ele>465</ele>
        <time>2020-11-06T13:14:27.975Z</time>
      </trkpt>
      <trkpt lat="46.29658" lon="6.1347">
        <ele>465</ele>
        <time>2020-11-06T13:14:28.976Z</time>
      </trkpt>
      <trkpt lat="46.29659" lon="6.13469">
        <ele>465</ele>
        <time>2020-11-06T13:14:29.975Z</time>
      </trkpt>
      <trkpt lat="46.29661" lon="6.13468">
        <ele>465</ele>
        <time>2020-11-06T13:14:30.976Z</time>
      </trkpt>
      <trkpt lat="46.29662" lon="6.13468">
        <ele>465</ele>
        <time>2020-11-06T13:14:31.976Z</time>
      </trkpt>
      <trkpt lat="46.29664" lon="6.13468">
        <ele>465</ele>
        <time>2020-11-06T13:14:32.976Z</time>
      </trkpt>
      <trkpt lat="46.29665" lon="6.13468">
        <ele>465</ele>
        <time>2020-11-06T13:14:33.976Z</time>
      </trkpt>
      <trkpt lat="46.29668" lon="6.13468">
        <ele>465</ele>
        <time>2020-11-06T13:14:34.975Z</time>
      </trkpt>
      <trkpt lat="46.2967" lon="6.13468">
        <ele>465</ele>
        <time>2020-11-06T13:14:35.976Z</time>
      </trkpt>
      <trkpt lat="46.29672" lon="6.13469">
        <ele>465</ele>
        <time>2020-11-06T13:14:36.976Z</time>
      </trkpt>
      <trkpt lat="46.29674" lon="6.13469">
        <ele>465</ele>
        <time>2020-11-06T13:14:37.976Z</time>
      </trkpt>
      <trkpt lat="46.29677" lon="6.13469">
        <ele>465</ele>
        <time>2020-11-06T13:14:38.976Z</time>
      </trkpt>
      <trkpt lat="46.29679" lon="6.13469">
        <ele>465</ele>
        <time>2020-11-06T13:14:39.975Z</time>
      </trkpt>
      <trkpt lat="46.29681" lon="6.13469">
        <ele>465</ele>
        <time>2020-11-06T13:14:40.976Z</time>
      </trkpt>
      <trkpt lat="46.29684" lon="6.13469">
        <ele>465</ele>
        <time>2020-11-06T13:14:41.976Z</time>
      </trkpt>
      <trkpt lat="46.29686" lon="6.13468">
        <ele>465</ele>
        <time>2020-11-06T13:14:42.976Z</time>
      </trkpt>
      <trkpt lat="46.29688" lon="6.13468">
        <ele>465</ele>
        <time>2020-11-06T13:14:43.976Z</time>
      </trkpt>
      <trkpt lat="46.29692" lon="6.13467">
        <ele>465</ele>
        <time>2020-11-06T13:14:44.976Z</time>
      </trkpt>
      <trkpt lat="46.29696" lon="6.13466">
        <ele>465</ele>
        <time>2020-11-06T13:14:45.976Z</time>
      </trkpt>
      <trkpt lat="46.29699" lon="6.13465">
        <ele>465</ele>
        <time>2020-11-06T13:14:46.976Z</time>
      </trkpt>
      <trkpt lat="46.29702" lon="6.13464">
        <ele>465</ele>
        <time>2020-11-06T13:14:47.975Z</time>
      </trkpt>
      <trkpt lat="46.29705" lon="6.13463">
        <ele>465</ele>
        <time>2020-11-06T13:14:48.976Z</time>
      </trkpt>
      <trkpt lat="46.29708" lon="6.13462">
        <ele>465</ele>
        <time>2020-11-06T13:14:49.975Z</time>
      </trkpt>
      <trkpt lat="46.29711" lon="6.13461">
        <ele>465</ele>
        <time>2020-11-06T13:14:50.976Z</time>
      </trkpt>
      <trkpt lat="46.29714" lon="6.13459">
        <ele>465</ele>
        <time>2020-11-06T13:14:51.975Z</time>
      </trkpt>
      <trkpt lat="46.29716" lon="6.13458">
        <ele>465</ele>
        <time>2020-11-06T13:14:52.976Z</time>
      </trkpt>
      <trkpt lat="46.29718" lon="6.13457">
        <ele>465</ele>
        <time>2020-11-06T13:14:53.976Z</time>
      </trkpt>
      <trkpt lat="46.29721" lon="6.13456">
        <ele>465</ele>
        <time>2020-11-06T13:14:54.976Z</time>
      </trkpt>
      <trkpt lat="46.29724" lon="6.13455">
        <ele>465</ele>
        <time>2020-11-06T13:14:55.975Z</time>
      </trkpt>
      <trkpt lat="46.29726" lon="6.13453">
        <ele>465</ele>
        <time>2020-11-06T13:14:56.976Z</time>
      </trkpt>
      <trkpt lat="46.2973" lon="6.1345">
        <ele>466</ele>
        <time>2020-11-06T13:14:57.976Z</time>
      </trkpt>
      <trkpt lat="46.29732" lon="6.13448">
        <ele>466</ele>
        <time>2020-11-06T13:14:58.976Z</time>
      </trkpt>
      <trkpt lat="46.29735" lon="6.13448">
        <ele>466</ele>
        <time>2020-11-06T13:14:59.976Z</time>
      </trkpt>
      <trkpt lat="46.29738" lon="6.13449">
        <ele>466</ele>
        <time>2020-11-06T13:15:00.975Z</time>
      </trkpt>
      <trkpt lat="46.29741" lon="6.13451">
        <ele>466</ele>
        <time>2020-11-06T13:15:01.976Z</time>
      </trkpt>
      <trkpt lat="46.29744" lon="6.13452">
        <ele>466</ele>
        <time>2020-11-06T13:15:02.976Z</time>
      </trkpt>
      <trkpt lat="46.29747" lon="6.13454">
        <ele>466</ele>
        <time>2020-11-06T13:15:03.975Z</time>
      </trkpt>
      <trkpt lat="46.2975" lon="6.13455">
        <ele>466</ele>
        <time>2020-11-06T13:15:04.976Z</time>
      </trkpt>
      <trkpt lat="46.29752" lon="6.13457">
        <ele>466</ele>
        <time>2020-11-06T13:15:05.976Z</time>
      </trkpt>
      <trkpt lat="46.29754" lon="6.13458">
        <ele>467</ele>
        <time>2020-11-06T13:15:06.975Z</time>
      </trkpt>
      <trkpt lat="46.29756" lon="6.1346">
        <ele>467</ele>
        <time>2020-11-06T13:15:07.975Z</time>
      </trkpt>
      <trkpt lat="46.29759" lon="6.13462">
        <ele>467</ele>
        <time>2020-11-06T13:15:08.975Z</time>
      </trkpt>
      <trkpt lat="46.29761" lon="6.13464">
        <ele>467</ele>
        <time>2020-11-06T13:15:09.975Z</time>
      </trkpt>
      <trkpt lat="46.29762" lon="6.13466">
        <ele>467</ele>
        <time>2020-11-06T13:15:10.976Z</time>
      </trkpt>
      <trkpt lat="46.29764" lon="6.13468">
        <ele>467</ele>
        <time>2020-11-06T13:15:11.975Z</time>
      </trkpt>
      <trkpt lat="46.29765" lon="6.1347">
        <ele>467</ele>
        <time>2020-11-06T13:15:12.975Z</time>
      </trkpt>
      <trkpt lat="46.29767" lon="6.13473">
        <ele>467</ele>
        <time>2020-11-06T13:15:13.976Z</time>
      </trkpt>
      <trkpt lat="46.29768" lon="6.13475">
        <ele>467</ele>
        <time>2020-11-06T13:15:14.976Z</time>
      </trkpt>
      <trkpt lat="46.2977" lon="6.13477">
        <ele>467</ele>
        <time>2020-11-06T13:15:15.976Z</time>
      </trkpt>
      <trkpt lat="46.29772" lon="6.1348">
        <ele>467</ele>
        <time>2020-11-06T13:15:16.976Z</time>
      </trkpt>
      <trkpt lat="46.29774" lon="6.13483">
        <ele>467</ele>
        <time>2020-11-06T13:15:17.976Z</time>
      </trkpt>
      <trkpt lat="46.29776" lon="6.13485">
        <ele>467</ele>
        <time>2020-11-06T13:15:18.976Z</time>
      </trkpt>
      <trkpt lat="46.29777" lon="6.13487">
        <ele>467</ele>
        <time>2020-11-06T13:15:19.975Z</time>
      </trkpt>
      <trkpt lat="46.2978" lon="6.13488">
        <ele>467</ele>
        <time>2020-11-06T13:15:20.975Z</time>
      </trkpt>
      <trkpt lat="46.29782" lon="6.13489">
        <ele>467</ele>
        <time>2020-11-06T13:15:21.975Z</time>
      </trkpt>
      <trkpt lat="46.29785" lon="6.13491">
        <ele>466</ele>
        <time>2020-11-06T13:15:22.975Z</time>
      </trkpt>
      <trkpt lat="46.29786" lon="6.13492">
        <ele>466</ele>
        <time>2020-11-06T13:15:23.975Z</time>
      </trkpt>
      <trkpt lat="46.29788" lon="6.13494">
        <ele>466</ele>
        <time>2020-11-06T13:15:24.975Z</time>
      </trkpt>
      <trkpt lat="46.29789" lon="6.13497">
        <ele>466</ele>
        <time>2020-11-06T13:15:25.976Z</time>
      </trkpt>
      <trkpt lat="46.2979" lon="6.135">
        <ele>466</ele>
        <time>2020-11-06T13:15:26.975Z</time>
      </trkpt>
      <trkpt lat="46.29791" lon="6.13503">
        <ele>466</ele>
        <time>2020-11-06T13:15:27.975Z</time>
      </trkpt>
      <trkpt lat="46.29792" lon="6.13506">
        <ele>466</ele>
        <time>2020-11-06T13:15:28.975Z</time>
      </trkpt>
      <trkpt lat="46.29793" lon="6.13508">
        <ele>466</ele>
        <time>2020-11-06T13:15:29.975Z</time>
      </trkpt>
      <trkpt lat="46.29795" lon="6.13511">
        <ele>466</ele>
        <time>2020-11-06T13:15:30.975Z</time>
      </trkpt>
      <trkpt lat="46.29796" lon="6.13514">
        <ele>465</ele>
        <time>2020-11-06T13:15:31.975Z</time>
      </trkpt>
      <trkpt lat="46.29797" lon="6.13517">
        <ele>465</ele>
        <time>2020-11-06T13:15:32.975Z</time>
      </trkpt>
      <trkpt lat="46.29799" lon="6.1352">
        <ele>465</ele>
        <time>2020-11-06T13:15:33.976Z</time>
      </trkpt>
      <trkpt lat="46.29801" lon="6.13522">
        <ele>465</ele>
        <time>2020-11-06T13:15:34.975Z</time>
      </trkpt>
      <trkpt lat="46.29802" lon="6.13525">
        <ele>465</ele>
        <time>2020-11-06T13:15:35.975Z</time>
      </trkpt>
      <trkpt lat="46.29803" lon="6.13528">
        <ele>465</ele>
        <time>2020-11-06T13:15:36.975Z</time>
      </trkpt>
      <trkpt lat="46.29804" lon="6.1353">
        <ele>465</ele>
        <time>2020-11-06T13:15:37.975Z</time>
      </trkpt>
      <trkpt lat="46.29806" lon="6.13534">
        <ele>464</ele>
        <time>2020-11-06T13:15:38.975Z</time>
      </trkpt>
      <trkpt lat="46.29808" lon="6.13538">
        <ele>464</ele>
        <time>2020-11-06T13:15:39.975Z</time>
      </trkpt>
      <trkpt lat="46.2981" lon="6.1354">
        <ele>464</ele>
        <time>2020-11-06T13:15:40.975Z</time>
      </trkpt>
      <trkpt lat="46.29812" lon="6.13542">
        <ele>464</ele>
        <time>2020-11-06T13:15:41.975Z</time>
      </trkpt>
      <trkpt lat="46.29813" lon="6.13544">
        <ele>464</ele>
        <time>2020-11-06T13:15:42.975Z</time>
      </trkpt>
      <trkpt lat="46.29815" lon="6.13546">
        <ele>464</ele>
        <time>2020-11-06T13:15:43.975Z</time>
      </trkpt>
      <trkpt lat="46.29817" lon="6.13548">
        <ele>463</ele>
        <time>2020-11-06T13:15:44.975Z</time>
      </trkpt>
      <trkpt lat="46.2982" lon="6.1355">
        <ele>463</ele>
        <time>2020-11-06T13:15:45.976Z</time>
      </trkpt>
      <trkpt lat="46.29822" lon="6.13551">
        <ele>463</ele>
        <time>2020-11-06T13:15:46.975Z</time>
      </trkpt>
      <trkpt lat="46.29824" lon="6.13554">
        <ele>463</ele>
        <time>2020-11-06T13:15:47.976Z</time>
      </trkpt>
      <trkpt lat="46.29826" lon="6.13556">
        <ele>463</ele>
        <time>2020-11-06T13:15:48.976Z</time>
      </trkpt>
      <trkpt lat="46.29829" lon="6.13559">
        <ele>463</ele>
        <time>2020-11-06T13:15:49.975Z</time>
      </trkpt>
      <trkpt lat="46.29831" lon="6.13561">
        <ele>463</ele>
        <time>2020-11-06T13:15:50.975Z</time>
      </trkpt>
      <trkpt lat="46.29832" lon="6.13564">
        <ele>462</ele>
        <time>2020-11-06T13:15:51.976Z</time>
      </trkpt>
      <trkpt lat="46.29834" lon="6.13567">
        <ele>462</ele>
        <time>2020-11-06T13:15:52.976Z</time>
      </trkpt>
      <trkpt lat="46.29836" lon="6.13569">
        <ele>462</ele>
        <time>2020-11-06T13:15:53.976Z</time>
      </trkpt>
      <trkpt lat="46.29837" lon="6.13572">
        <ele>462</ele>
        <time>2020-11-06T13:15:54.976Z</time>
      </trkpt>
      <trkpt lat="46.29838" lon="6.13575">
        <ele>462</ele>
        <time>2020-11-06T13:15:55.976Z</time>
      </trkpt>
      <trkpt lat="46.2984" lon="6.13579">
        <ele>462</ele>
        <time>2020-11-06T13:15:56.976Z</time>
      </trkpt>
      <trkpt lat="46.29842" lon="6.13585">
        <ele>461</ele>
        <time>2020-11-06T13:15:57.976Z</time>
      </trkpt>
      <trkpt lat="46.29844" lon="6.1359">
        <ele>461</ele>
        <time>2020-11-06T13:15:58.975Z</time>
      </trkpt>
      <trkpt lat="46.29846" lon="6.13594">
        <ele>461</ele>
        <time>2020-11-06T13:15:59.976Z</time>
      </trkpt>
      <trkpt lat="46.29848" lon="6.13597">
        <ele>461</ele>
        <time>2020-11-06T13:16:00.976Z</time>
      </trkpt>
      <trkpt lat="46.29849" lon="6.136">
        <ele>461</ele>
        <time>2020-11-06T13:16:01.975Z</time>
      </trkpt>
      <trkpt lat="46.29851" lon="6.13603">
        <ele>461</ele>
        <time>2020-11-06T13:16:02.975Z</time>
      </trkpt>
      <trkpt lat="46.29853" lon="6.13606">
        <ele>461</ele>
        <time>2020-11-06T13:16:03.975Z</time>
      </trkpt>
      <trkpt lat="46.29855" lon="6.13609">
        <ele>461</ele>
        <time>2020-11-06T13:16:04.975Z</time>
      </trkpt>
      <trkpt lat="46.29856" lon="6.13613">
        <ele>461</ele>
        <time>2020-11-06T13:16:05.976Z</time>
      </trkpt>
      <trkpt lat="46.29857" lon="6.13617">
        <ele>461</ele>
        <time>2020-11-06T13:16:06.976Z</time>
      </trkpt>
      <trkpt lat="46.29859" lon="6.13621">
        <ele>461</ele>
        <time>2020-11-06T13:16:07.976Z</time>
      </trkpt>
      <trkpt lat="46.2986" lon="6.13624">
        <ele>461</ele>
        <time>2020-11-06T13:16:08.975Z</time>
      </trkpt>
      <trkpt lat="46.29862" lon="6.13628">
        <ele>461</ele>
        <time>2020-11-06T13:16:09.975Z</time>
      </trkpt>
      <trkpt lat="46.29863" lon="6.13632">
        <ele>460</ele>
        <time>2020-11-06T13:16:10.976Z</time>
      </trkpt>
      <trkpt lat="46.29865" lon="6.13635">
        <ele>460</ele>
        <time>2020-11-06T13:16:11.976Z</time>
      </trkpt>
      <trkpt lat="46.29867" lon="6.13638">
        <ele>460</ele>
        <time>2020-11-06T13:16:12.976Z</time>
      </trkpt>
      <trkpt lat="46.29869" lon="6.13642">
        <ele>460</ele>
        <time>2020-11-06T13:16:13.976Z</time>
      </trkpt>
      <trkpt lat="46.29871" lon="6.13645">
        <ele>460</ele>
        <time>2020-11-06T13:16:14.975Z</time>
      </trkpt>
      <trkpt lat="46.29874" lon="6.13648">
        <ele>460</ele>
        <time>2020-11-06T13:16:15.976Z</time>
      </trkpt>
      <trkpt lat="46.29876" lon="6.13651">
        <ele>460</ele>
        <time>2020-11-06T13:16:16.976Z</time>
      </trkpt>
      <trkpt lat="46.29877" lon="6.13654">
        <ele>459</ele>
        <time>2020-11-06T13:16:17.976Z</time>
      </trkpt>
      <trkpt lat="46.29879" lon="6.13657">
        <ele>459</ele>
        <time>2020-11-06T13:16:18.976Z</time>
      </trkpt>
      <trkpt lat="46.29881" lon="6.1366">
        <ele>459</ele>
        <time>2020-11-06T13:16:19.975Z</time>
      </trkpt>
      <trkpt lat="46.29883" lon="6.13663">
        <ele>458</ele>
        <time>2020-11-06T13:16:20.975Z</time>
      </trkpt>
      <trkpt lat="46.29884" lon="6.13665">
        <ele>458</ele>
        <time>2020-11-06T13:16:21.975Z</time>
      </trkpt>
      <trkpt lat="46.29886" lon="6.13667">
        <ele>458</ele>
        <time>2020-11-06T13:16:22.976Z</time>
      </trkpt>
      <trkpt lat="46.29888" lon="6.1367">
        <ele>457</ele>
        <time>2020-11-06T13:16:23.976Z</time>
      </trkpt>
      <trkpt lat="46.2989" lon="6.13672">
        <ele>457</ele>
        <time>2020-11-06T13:16:24.975Z</time>
      </trkpt>
      <trkpt lat="46.29892" lon="6.13674">
        <ele>457</ele>
        <time>2020-11-06T13:16:25.976Z</time>
      </trkpt>
      <trkpt lat="46.29894" lon="6.13676">
        <ele>456</ele>
        <time>2020-11-06T13:16:26.975Z</time>
      </trkpt>
      <trkpt lat="46.29897" lon="6.13678">
        <ele>456</ele>
        <time>2020-11-06T13:16:27.975Z</time>
      </trkpt>
      <trkpt lat="46.29899" lon="6.13681">
        <ele>456</ele>
        <time>2020-11-06T13:16:28.976Z</time>
      </trkpt>
      <trkpt lat="46.29901" lon="6.13684">
        <ele>455</ele>
        <time>2020-11-06T13:16:29.975Z</time>
      </trkpt>
      <trkpt lat="46.29903" lon="6.13686">
        <ele>455</ele>
        <time>2020-11-06T13:16:30.976Z</time>
      </trkpt>
      <trkpt lat="46.29905" lon="6.13689">
        <ele>454</ele>
        <time>2020-11-06T13:16:31.975Z</time>
      </trkpt>
      <trkpt lat="46.29906" lon="6.1369">
        <ele>454</ele>
        <time>2020-11-06T13:16:32.976Z</time>
      </trkpt>
      <trkpt lat="46.29908" lon="6.13692">
        <ele>454</ele>
        <time>2020-11-06T13:16:33.976Z</time>
      </trkpt>
      <trkpt lat="46.2991" lon="6.13695">
        <ele>454</ele>
        <time>2020-11-06T13:16:34.976Z</time>
      </trkpt>
      <trkpt lat="46.29912" lon="6.13697">
        <ele>454</ele>
        <time>2020-11-06T13:16:35.976Z</time>
      </trkpt>
      <trkpt lat="46.29913" lon="6.13699">
        <ele>454</ele>
        <time>2020-11-06T13:16:36.976Z</time>
      </trkpt>
      <trkpt lat="46.29915" lon="6.13702">
        <ele>454</ele>
        <time>2020-11-06T13:16:37.976Z</time>
      </trkpt>
      <trkpt lat="46.29916" lon="6.13704">
        <ele>454</ele>
        <time>2020-11-06T13:16:38.975Z</time>
      </trkpt>
      <trkpt lat="46.29918" lon="6.13706">
        <ele>454</ele>
        <time>2020-11-06T13:16:39.975Z</time>
      </trkpt>
      <trkpt lat="46.2992" lon="6.13708">
        <ele>454</ele>
        <time>2020-11-06T13:16:40.975Z</time>
      </trkpt>
      <trkpt lat="46.29922" lon="6.13709">
        <ele>454</ele>
        <time>2020-11-06T13:16:41.976Z</time>
      </trkpt>
      <trkpt lat="46.29924" lon="6.13711">
        <ele>454</ele>
        <time>2020-11-06T13:16:42.976Z</time>
      </trkpt>
      <trkpt lat="46.29926" lon="6.13713">
        <ele>454</ele>
        <time>2020-11-06T13:16:43.976Z</time>
      </trkpt>
      <trkpt lat="46.29928" lon="6.13715">
        <ele>454</ele>
        <time>2020-11-06T13:16:44.976Z</time>
      </trkpt>
      <trkpt lat="46.29931" lon="6.13717">
        <ele>455</ele>
        <time>2020-11-06T13:16:45.976Z</time>
      </trkpt>
      <trkpt lat="46.29933" lon="6.13718">
        <ele>455</ele>
        <time>2020-11-06T13:16:46.976Z</time>
      </trkpt>
      <trkpt lat="46.29935" lon="6.13721">
        <ele>455</ele>
        <time>2020-11-06T13:16:47.976Z</time>
      </trkpt>
      <trkpt lat="46.29937" lon="6.13723">
        <ele>455</ele>
        <time>2020-11-06T13:16:48.976Z</time>
      </trkpt>
      <trkpt lat="46.29939" lon="6.13726">
        <ele>455</ele>
        <time>2020-11-06T13:16:49.976Z</time>
      </trkpt>
      <trkpt lat="46.29941" lon="6.13728">
        <ele>456</ele>
        <time>2020-11-06T13:16:50.976Z</time>
      </trkpt>
      <trkpt lat="46.29943" lon="6.1373">
        <ele>456</ele>
        <time>2020-11-06T13:16:51.976Z</time>
      </trkpt>
      <trkpt lat="46.29946" lon="6.13732">
        <ele>456</ele>
        <time>2020-11-06T13:16:52.976Z</time>
      </trkpt>
      <trkpt lat="46.29948" lon="6.13734">
        <ele>456</ele>
        <time>2020-11-06T13:16:53.976Z</time>
      </trkpt>
      <trkpt lat="46.29951" lon="6.13736">
        <ele>456</ele>
        <time>2020-11-06T13:16:54.976Z</time>
      </trkpt>
      <trkpt lat="46.29953" lon="6.13739">
        <ele>456</ele>
        <time>2020-11-06T13:16:55.976Z</time>
      </trkpt>
      <trkpt lat="46.29955" lon="6.13741">
        <ele>457</ele>
        <time>2020-11-06T13:16:56.976Z</time>
      </trkpt>
      <trkpt lat="46.29957" lon="6.13744">
        <ele>457</ele>
        <time>2020-11-06T13:16:57.975Z</time>
      </trkpt>
      <trkpt lat="46.29959" lon="6.13746">
        <ele>457</ele>
        <time>2020-11-06T13:16:58.975Z</time>
      </trkpt>
      <trkpt lat="46.29961" lon="6.13748">
        <ele>457</ele>
        <time>2020-11-06T13:16:59.976Z</time>
      </trkpt>
      <trkpt lat="46.29963" lon="6.13751">
        <ele>457</ele>
        <time>2020-11-06T13:17:00.976Z</time>
      </trkpt>
      <trkpt lat="46.29965" lon="6.13754">
        <ele>457</ele>
        <time>2020-11-06T13:17:01.976Z</time>
      </trkpt>
      <trkpt lat="46.29967" lon="6.13756">
        <ele>457</ele>
        <time>2020-11-06T13:17:02.976Z</time>
      </trkpt>
      <trkpt lat="46.29969" lon="6.13757">
        <ele>457</ele>
        <time>2020-11-06T13:17:03.976Z</time>
      </trkpt>
      <trkpt lat="46.29972" lon="6.13758">
        <ele>457</ele>
        <time>2020-11-06T13:17:04.975Z</time>
      </trkpt>
      <trkpt lat="46.29975" lon="6.13759">
        <ele>457</ele>
        <time>2020-11-06T13:17:05.976Z</time>
      </trkpt>
      <trkpt lat="46.29977" lon="6.13761">
        <ele>457</ele>
        <time>2020-11-06T13:17:06.975Z</time>
      </trkpt>
      <trkpt lat="46.2998" lon="6.13763">
        <ele>458</ele>
        <time>2020-11-06T13:17:07.976Z</time>
      </trkpt>
      <trkpt lat="46.29981" lon="6.13766">
        <ele>458</ele>
        <time>2020-11-06T13:17:08.976Z</time>
      </trkpt>
      <trkpt lat="46.29983" lon="6.13768">
        <ele>458</ele>
        <time>2020-11-06T13:17:09.976Z</time>
      </trkpt>
      <trkpt lat="46.29985" lon="6.13771">
        <ele>458</ele>
        <time>2020-11-06T13:17:10.976Z</time>
      </trkpt>
      <trkpt lat="46.29986" lon="6.13774">
        <ele>458</ele>
        <time>2020-11-06T13:17:11.976Z</time>
      </trkpt>
      <trkpt lat="46.29988" lon="6.13778">
        <ele>458</ele>
        <time>2020-11-06T13:17:12.975Z</time>
      </trkpt>
      <trkpt lat="46.2999" lon="6.13781">
        <ele>458</ele>
        <time>2020-11-06T13:17:13.976Z</time>
      </trkpt>
      <trkpt lat="46.29992" lon="6.13783">
        <ele>458</ele>
        <time>2020-11-06T13:17:14.976Z</time>
      </trkpt>
      <trkpt lat="46.29994" lon="6.13787">
        <ele>458</ele>
        <time>2020-11-06T13:17:15.975Z</time>
      </trkpt>
      <trkpt lat="46.29995" lon="6.1379">
        <ele>458</ele>
        <time>2020-11-06T13:17:16.976Z</time>
      </trkpt>
      <trkpt lat="46.29997" lon="6.13792">
        <ele>458</ele>
        <time>2020-11-06T13:17:17.976Z</time>
      </trkpt>
      <trkpt lat="46.29999" lon="6.13794">
        <ele>458</ele>
        <time>2020-11-06T13:17:18.976Z</time>
      </trkpt>
      <trkpt lat="46.30002" lon="6.13796">
        <ele>458</ele>
        <time>2020-11-06T13:17:19.976Z</time>
      </trkpt>
      <trkpt lat="46.30003" lon="6.13799">
        <ele>458</ele>
        <time>2020-11-06T13:17:20.976Z</time>
      </trkpt>
      <trkpt lat="46.30004" lon="6.13802">
        <ele>458</ele>
        <time>2020-11-06T13:17:21.975Z</time>
      </trkpt>
      <trkpt lat="46.30005" lon="6.13806">
        <ele>458</ele>
        <time>2020-11-06T13:17:22.976Z</time>
      </trkpt>
      <trkpt lat="46.30006" lon="6.1381">
        <ele>458</ele>
        <time>2020-11-06T13:17:23.976Z</time>
      </trkpt>
      <trkpt lat="46.30008" lon="6.13813">
        <ele>458</ele>
        <time>2020-11-06T13:17:24.975Z</time>
      </trkpt>
      <trkpt lat="46.30009" lon="6.13816">
        <ele>458</ele>
        <time>2020-11-06T13:17:25.976Z</time>
      </trkpt>
      <trkpt lat="46.30011" lon="6.13819">
        <ele>459</ele>
        <time>2020-11-06T13:17:26.975Z</time>
      </trkpt>
      <trkpt lat="46.30013" lon="6.13822">
        <ele>459</ele>
        <time>2020-11-06T13:17:27.976Z</time>
      </trkpt>
      <trkpt lat="46.30014" lon="6.13825">
        <ele>459</ele>
        <time>2020-11-06T13:17:28.976Z</time>
      </trkpt>
      <trkpt lat="46.30016" lon="6.13828">
        <ele>459</ele>
        <time>2020-11-06T13:17:29.975Z</time>
      </trkpt>
      <trkpt lat="46.30017" lon="6.13831">
        <ele>459</ele>
        <time>2020-11-06T13:17:30.976Z</time>
      </trkpt>
      <trkpt lat="46.30018" lon="6.13834">
        <ele>459</ele>
        <time>2020-11-06T13:17:31.975Z</time>
      </trkpt>
      <trkpt lat="46.3002" lon="6.13836">
        <ele>460</ele>
        <time>2020-11-06T13:17:32.976Z</time>
      </trkpt>
      <trkpt lat="46.30022" lon="6.13839">
        <ele>460</ele>
        <time>2020-11-06T13:17:33.975Z</time>
      </trkpt>
      <trkpt lat="46.30024" lon="6.13841">
        <ele>460</ele>
        <time>2020-11-06T13:17:34.975Z</time>
      </trkpt>
      <trkpt lat="46.30025" lon="6.13844">
        <ele>460</ele>
        <time>2020-11-06T13:17:35.976Z</time>
      </trkpt>
      <trkpt lat="46.30027" lon="6.13846">
        <ele>460</ele>
        <time>2020-11-06T13:17:36.975Z</time>
      </trkpt>
      <trkpt lat="46.30028" lon="6.13849">
        <ele>461</ele>
        <time>2020-11-06T13:17:37.975Z</time>
      </trkpt>
      <trkpt lat="46.30029" lon="6.13852">
        <ele>461</ele>
        <time>2020-11-06T13:17:38.976Z</time>
      </trkpt>
      <trkpt lat="46.30028" lon="6.13854">
        <ele>461</ele>
        <time>2020-11-06T13:17:39.976Z</time>
      </trkpt>
      <trkpt lat="46.30027" lon="6.13855">
        <ele>461</ele>
        <time>2020-11-06T13:17:40.975Z</time>
      </trkpt>
      <trkpt lat="46.30025" lon="6.13857">
        <ele>460</ele>
        <time>2020-11-06T13:17:41.975Z</time>
      </trkpt>
      <trkpt lat="46.30023" lon="6.1386">
        <ele>460</ele>
        <time>2020-11-06T13:17:42.976Z</time>
      </trkpt>
      <trkpt lat="46.30022" lon="6.13862">
        <ele>460</ele>
        <time>2020-11-06T13:17:43.975Z</time>
      </trkpt>
      <trkpt lat="46.3002" lon="6.13866">
        <ele>459</ele>
        <time>2020-11-06T13:17:44.976Z</time>
      </trkpt>
      <trkpt lat="46.30019" lon="6.1387">
        <ele>459</ele>
        <time>2020-11-06T13:17:45.976Z</time>
      </trkpt>
      <trkpt lat="46.30018" lon="6.13873">
        <ele>459</ele>
        <time>2020-11-06T13:17:46.976Z</time>
      </trkpt>
      <trkpt lat="46.30017" lon="6.13877">
        <ele>459</ele>
        <time>2020-11-06T13:17:47.976Z</time>
      </trkpt>
      <trkpt lat="46.30015" lon="6.13881">
        <ele>458</ele>
        <time>2020-11-06T13:17:48.976Z</time>
      </trkpt>
      <trkpt lat="46.30014" lon="6.13884">
        <ele>458</ele>
        <time>2020-11-06T13:17:49.975Z</time>
      </trkpt>
      <trkpt lat="46.30012" lon="6.13887">
        <ele>458</ele>
        <time>2020-11-06T13:17:50.976Z</time>
      </trkpt>
      <trkpt lat="46.3001" lon="6.1389">
        <ele>458</ele>
        <time>2020-11-06T13:17:51.976Z</time>
      </trkpt>
      <trkpt lat="46.30009" lon="6.13894">
        <ele>457</ele>
        <time>2020-11-06T13:17:52.975Z</time>
      </trkpt>
      <trkpt lat="46.30008" lon="6.13897">
        <ele>457</ele>
        <time>2020-11-06T13:17:53.975Z</time>
      </trkpt>
      <trkpt lat="46.30006" lon="6.139">
        <ele>457</ele>
        <time>2020-11-06T13:17:54.975Z</time>
      </trkpt>
      <trkpt lat="46.30005" lon="6.13903">
        <ele>456</ele>
        <time>2020-11-06T13:17:55.975Z</time>
      </trkpt>
      <trkpt lat="46.30004" lon="6.13906">
        <ele>456</ele>
        <time>2020-11-06T13:17:56.975Z</time>
      </trkpt>
      <trkpt lat="46.30002" lon="6.1391">
        <ele>456</ele>
        <time>2020-11-06T13:17:57.976Z</time>
      </trkpt>
      <trkpt lat="46.30001" lon="6.13913">
        <ele>456</ele>
        <time>2020-11-06T13:17:58.976Z</time>
      </trkpt>
      <trkpt lat="46.29999" lon="6.13916">
        <ele>455</ele>
        <time>2020-11-06T13:17:59.976Z</time>
      </trkpt>
      <trkpt lat="46.29998" lon="6.13919">
        <ele>455</ele>
        <time>2020-11-06T13:18:00.975Z</time>
      </trkpt>
      <trkpt lat="46.29996" lon="6.13922">
        <ele>455</ele>
        <time>2020-11-06T13:18:01.975Z</time>
      </trkpt>
      <trkpt lat="46.29995" lon="6.13925">
        <ele>454</ele>
        <time>2020-11-06T13:18:02.976Z</time>
      </trkpt>
      <trkpt lat="46.29994" lon="6.13928">
        <ele>454</ele>
        <time>2020-11-06T13:18:03.975Z</time>
      </trkpt>
      <trkpt lat="46.29993" lon="6.13931">
        <ele>453</ele>
        <time>2020-11-06T13:18:04.976Z</time>
      </trkpt>
      <trkpt lat="46.29991" lon="6.13934">
        <ele>452</ele>
        <time>2020-11-06T13:18:05.976Z</time>
      </trkpt>
      <trkpt lat="46.29989" lon="6.13937">
        <ele>451</ele>
        <time>2020-11-06T13:18:06.975Z</time>
      </trkpt>
      <trkpt lat="46.29988" lon="6.13939">
        <ele>450</ele>
        <time>2020-11-06T13:18:07.976Z</time>
      </trkpt>
      <trkpt lat="46.29987" lon="6.13942">
        <ele>449</ele>
        <time>2020-11-06T13:18:08.976Z</time>
      </trkpt>
      <trkpt lat="46.29985" lon="6.13945">
        <ele>448</ele>
        <time>2020-11-06T13:18:09.976Z</time>
      </trkpt>
      <trkpt lat="46.29984" lon="6.13948">
        <ele>447</ele>
        <time>2020-11-06T13:18:10.976Z</time>
      </trkpt>
      <trkpt lat="46.29983" lon="6.13952">
        <ele>447</ele>
        <time>2020-11-06T13:18:11.976Z</time>
      </trkpt>
      <trkpt lat="46.29981" lon="6.13955">
        <ele>445</ele>
        <time>2020-11-06T13:18:12.976Z</time>
      </trkpt>
      <trkpt lat="46.2998" lon="6.13958">
        <ele>444</ele>
        <time>2020-11-06T13:18:13.976Z</time>
      </trkpt>
      <trkpt lat="46.29979" lon="6.13961">
        <ele>444</ele>
        <time>2020-11-06T13:18:14.976Z</time>
      </trkpt>
      <trkpt lat="46.29978" lon="6.13965">
        <ele>443</ele>
        <time>2020-11-06T13:18:15.975Z</time>
      </trkpt>
      <trkpt lat="46.29979" lon="6.13969">
        <ele>442</ele>
        <time>2020-11-06T13:18:16.975Z</time>
      </trkpt>
      <trkpt lat="46.2998" lon="6.13972">
        <ele>441</ele>
        <time>2020-11-06T13:18:17.976Z</time>
      </trkpt>
      <trkpt lat="46.29982" lon="6.13975">
        <ele>441</ele>
        <time>2020-11-06T13:18:18.976Z</time>
      </trkpt>
      <trkpt lat="46.29984" lon="6.13977">
        <ele>440</ele>
        <time>2020-11-06T13:18:19.976Z</time>
      </trkpt>
      <trkpt lat="46.29986" lon="6.13979">
        <ele>439</ele>
        <time>2020-11-06T13:18:20.976Z</time>
      </trkpt>
      <trkpt lat="46.29989" lon="6.13982">
        <ele>439</ele>
        <time>2020-11-06T13:18:21.976Z</time>
      </trkpt>
      <trkpt lat="46.29991" lon="6.13983">
        <ele>439</ele>
        <time>2020-11-06T13:18:22.975Z</time>
      </trkpt>
      <trkpt lat="46.29993" lon="6.13985">
        <ele>439</ele>
        <time>2020-11-06T13:18:23.976Z</time>
      </trkpt>
      <trkpt lat="46.29996" lon="6.13988">
        <ele>439</ele>
        <time>2020-11-06T13:18:24.976Z</time>
      </trkpt>
      <trkpt lat="46.29998" lon="6.1399">
        <ele>439</ele>
        <time>2020-11-06T13:18:25.976Z</time>
      </trkpt>
      <trkpt lat="46.3" lon="6.13992">
        <ele>440</ele>
        <time>2020-11-06T13:18:26.976Z</time>
      </trkpt>
      <trkpt lat="46.30003" lon="6.13994">
        <ele>440</ele>
        <time>2020-11-06T13:18:27.975Z</time>
      </trkpt>
      <trkpt lat="46.30005" lon="6.13996">
        <ele>440</ele>
        <time>2020-11-06T13:18:28.976Z</time>
      </trkpt>
      <trkpt lat="46.30008" lon="6.13998">
        <ele>440</ele>
        <time>2020-11-06T13:18:29.976Z</time>
      </trkpt>
      <trkpt lat="46.3001" lon="6.14">
        <ele>440</ele>
        <time>2020-11-06T13:18:30.976Z</time>
      </trkpt>
      <trkpt lat="46.30012" lon="6.14002">
        <ele>441</ele>
        <time>2020-11-06T13:18:31.975Z</time>
      </trkpt>
      <trkpt lat="46.30015" lon="6.14004">
        <ele>441</ele>
        <time>2020-11-06T13:18:32.975Z</time>
      </trkpt>
      <trkpt lat="46.30017" lon="6.14006">
        <ele>441</ele>
        <time>2020-11-06T13:18:33.976Z</time>
      </trkpt>
      <trkpt lat="46.30019" lon="6.14008">
        <ele>441</ele>
        <time>2020-11-06T13:18:34.976Z</time>
      </trkpt>
      <trkpt lat="46.30022" lon="6.1401">
        <ele>441</ele>
        <time>2020-11-06T13:18:35.976Z</time>
      </trkpt>
      <trkpt lat="46.30024" lon="6.14013">
        <ele>441</ele>
        <time>2020-11-06T13:18:36.975Z</time>
      </trkpt>
      <trkpt lat="46.30026" lon="6.14015">
        <ele>441</ele>
        <time>2020-11-06T13:18:37.975Z</time>
      </trkpt>
      <trkpt lat="46.30028" lon="6.14017">
        <ele>441</ele>
        <time>2020-11-06T13:18:38.975Z</time>
      </trkpt>
      <trkpt lat="46.3003" lon="6.1402">
        <ele>442</ele>
        <time>2020-11-06T13:18:39.975Z</time>
      </trkpt>
      <trkpt lat="46.30033" lon="6.14022">
        <ele>442</ele>
        <time>2020-11-06T13:18:40.975Z</time>
      </trkpt>
      <trkpt lat="46.30035" lon="6.14024">
        <ele>443</ele>
        <time>2020-11-06T13:18:41.976Z</time>
      </trkpt>
      <trkpt lat="46.30037" lon="6.14026">
        <ele>443</ele>
        <time>2020-11-06T13:18:42.975Z</time>
      </trkpt>
      <trkpt lat="46.30039" lon="6.14028">
        <ele>443</ele>
        <time>2020-11-06T13:18:43.975Z</time>
      </trkpt>
      <trkpt lat="46.30042" lon="6.1403">
        <ele>443</ele>
        <time>2020-11-06T13:18:44.976Z</time>
      </trkpt>
      <trkpt lat="46.30044" lon="6.14032">
        <ele>443</ele>
        <time>2020-11-06T13:18:45.975Z</time>
      </trkpt>
      <trkpt lat="46.30046" lon="6.14034">
        <ele>443</ele>
        <time>2020-11-06T13:18:46.976Z</time>
      </trkpt>
      <trkpt lat="46.30049" lon="6.14036">
        <ele>443</ele>
        <time>2020-11-06T13:18:47.976Z</time>
      </trkpt>
      <trkpt lat="46.30051" lon="6.14038">
        <ele>443</ele>
        <time>2020-11-06T13:18:48.975Z</time>
      </trkpt>
      <trkpt lat="46.30053" lon="6.1404">
        <ele>444</ele>
        <time>2020-11-06T13:18:49.975Z</time>
      </trkpt>
      <trkpt lat="46.30055" lon="6.14042">
        <ele>443</ele>
        <time>2020-11-06T13:18:50.976Z</time>
      </trkpt>
      <trkpt lat="46.30057" lon="6.14044">
        <ele>443</ele>
        <time>2020-11-06T13:18:51.975Z</time>
      </trkpt>
      <trkpt lat="46.3006" lon="6.14045">
        <ele>443</ele>
        <time>2020-11-06T13:18:52.976Z</time>
      </trkpt>
      <trkpt lat="46.30062" lon="6.14047">
        <ele>443</ele>
        <time>2020-11-06T13:18:53.975Z</time>
      </trkpt>
      <trkpt lat="46.30064" lon="6.14049">
        <ele>443</ele>
        <time>2020-11-06T13:18:54.976Z</time>
      </trkpt>
      <trkpt lat="46.30067" lon="6.14051">
        <ele>442</ele>
        <time>2020-11-06T13:18:55.976Z</time>
      </trkpt>
      <trkpt lat="46.30069" lon="6.14054">
        <ele>442</ele>
        <time>2020-11-06T13:18:56.976Z</time>
      </trkpt>
      <trkpt lat="46.30071" lon="6.14056">
        <ele>442</ele>
        <time>2020-11-06T13:18:57.976Z</time>
      </trkpt>
      <trkpt lat="46.30073" lon="6.14058">
        <ele>442</ele>
        <time>2020-11-06T13:18:58.976Z</time>
      </trkpt>
      <trkpt lat="46.30076" lon="6.1406">
        <ele>442</ele>
        <time>2020-11-06T13:18:59.975Z</time>
      </trkpt>
      <trkpt lat="46.30078" lon="6.14063">
        <ele>442</ele>
        <time>2020-11-06T13:19:00.976Z</time>
      </trkpt>
      <trkpt lat="46.3008" lon="6.14065">
        <ele>442</ele>
        <time>2020-11-06T13:19:01.976Z</time>
      </trkpt>
      <trkpt lat="46.30083" lon="6.14067">
        <ele>441</ele>
        <time>2020-11-06T13:19:02.976Z</time>
      </trkpt>
      <trkpt lat="46.30085" lon="6.14069">
        <ele>441</ele>
        <time>2020-11-06T13:19:03.976Z</time>
      </trkpt>
      <trkpt lat="46.30087" lon="6.14071">
        <ele>441</ele>
        <time>2020-11-06T13:19:04.976Z</time>
      </trkpt>
      <trkpt lat="46.3009" lon="6.14073">
        <ele>440</ele>
        <time>2020-11-06T13:19:05.976Z</time>
      </trkpt>
      <trkpt lat="46.30092" lon="6.14075">
        <ele>440</ele>
        <time>2020-11-06T13:19:06.975Z</time>
      </trkpt>
      <trkpt lat="46.30094" lon="6.14077">
        <ele>440</ele>
        <time>2020-11-06T13:19:07.976Z</time>
      </trkpt>
      <trkpt lat="46.30097" lon="6.14078">
        <ele>440</ele>
        <time>2020-11-06T13:19:08.976Z</time>
      </trkpt>
      <trkpt lat="46.30099" lon="6.14081">
        <ele>440</ele>
        <time>2020-11-06T13:19:09.975Z</time>
      </trkpt>
      <trkpt lat="46.30102" lon="6.14082">
        <ele>440</ele>
        <time>2020-11-06T13:19:10.975Z</time>
      </trkpt>
      <trkpt lat="46.30104" lon="6.14084">
        <ele>440</ele>
        <time>2020-11-06T13:19:11.975Z</time>
      </trkpt>
      <trkpt lat="46.30106" lon="6.14085">
        <ele>441</ele>
        <time>2020-11-06T13:19:12.975Z</time>
      </trkpt>
      <trkpt lat="46.30109" lon="6.14087">
        <ele>441</ele>
        <time>2020-11-06T13:19:13.976Z</time>
      </trkpt>
      <trkpt lat="46.30111" lon="6.14088">
        <ele>441</ele>
        <time>2020-11-06T13:19:14.976Z</time>
      </trkpt>
      <trkpt lat="46.30114" lon="6.1409">
        <ele>441</ele>
        <time>2020-11-06T13:19:15.976Z</time>
      </trkpt>
      <trkpt lat="46.30116" lon="6.1409">
        <ele>441</ele>
        <time>2020-11-06T13:19:16.976Z</time>
      </trkpt>
      <trkpt lat="46.30119" lon="6.14091">
        <ele>441</ele>
        <time>2020-11-06T13:19:17.976Z</time>
      </trkpt>
      <trkpt lat="46.30122" lon="6.14091">
        <ele>441</ele>
        <time>2020-11-06T13:19:18.976Z</time>
      </trkpt>
      <trkpt lat="46.30125" lon="6.14092">
        <ele>441</ele>
        <time>2020-11-06T13:19:19.975Z</time>
      </trkpt>
      <trkpt lat="46.30127" lon="6.14092">
        <ele>441</ele>
        <time>2020-11-06T13:19:20.975Z</time>
      </trkpt>
      <trkpt lat="46.3013" lon="6.14092">
        <ele>441</ele>
        <time>2020-11-06T13:19:21.976Z</time>
      </trkpt>
      <trkpt lat="46.30133" lon="6.14092">
        <ele>441</ele>
        <time>2020-11-06T13:19:22.976Z</time>
      </trkpt>
      <trkpt lat="46.30135" lon="6.14092">
        <ele>440</ele>
        <time>2020-11-06T13:19:23.976Z</time>
      </trkpt>
      <trkpt lat="46.30137" lon="6.14091">
        <ele>440</ele>
        <time>2020-11-06T13:19:24.975Z</time>
      </trkpt>
      <trkpt lat="46.3014" lon="6.14091">
        <ele>440</ele>
        <time>2020-11-06T13:19:25.976Z</time>
      </trkpt>
      <trkpt lat="46.30142" lon="6.14091">
        <ele>440</ele>
        <time>2020-11-06T13:19:26.976Z</time>
      </trkpt>
      <trkpt lat="46.30144" lon="6.14091">
        <ele>440</ele>
        <time>2020-11-06T13:19:27.976Z</time>
      </trkpt>
      <trkpt lat="46.30146" lon="6.1409">
        <ele>440</ele>
        <time>2020-11-06T13:19:28.976Z</time>
      </trkpt>
      <trkpt lat="46.30148" lon="6.14089">
        <ele>441</ele>
        <time>2020-11-06T13:19:29.976Z</time>
      </trkpt>
      <trkpt lat="46.3015" lon="6.14089">
        <ele>441</ele>
        <time>2020-11-06T13:19:30.976Z</time>
      </trkpt>
      <trkpt lat="46.30152" lon="6.14089">
        <ele>442</ele>
        <time>2020-11-06T13:19:31.976Z</time>
      </trkpt>
      <trkpt lat="46.30154" lon="6.14089">
        <ele>443</ele>
        <time>2020-11-06T13:19:32.976Z</time>
      </trkpt>
      <trkpt lat="46.30155" lon="6.14089">
        <ele>444</ele>
        <time>2020-11-06T13:19:33.976Z</time>
      </trkpt>
      <trkpt lat="46.30156" lon="6.14089">
        <ele>445</ele>
        <time>2020-11-06T13:19:34.975Z</time>
      </trkpt>
      <trkpt lat="46.30158" lon="6.14089">
        <ele>446</ele>
        <time>2020-11-06T13:19:35.976Z</time>
      </trkpt>
      <trkpt lat="46.3016" lon="6.14089">
        <ele>446</ele>
        <time>2020-11-06T13:19:36.975Z</time>
      </trkpt>
      <trkpt lat="46.30161" lon="6.1409">
        <ele>447</ele>
        <time>2020-11-06T13:19:37.975Z</time>
      </trkpt>
      <trkpt lat="46.30163" lon="6.14089">
        <ele>447</ele>
        <time>2020-11-06T13:19:38.976Z</time>
      </trkpt>
      <trkpt lat="46.30165" lon="6.14089">
        <ele>448</ele>
        <time>2020-11-06T13:19:39.976Z</time>
      </trkpt>
      <trkpt lat="46.30168" lon="6.1409">
        <ele>448</ele>
        <time>2020-11-06T13:19:40.976Z</time>
      </trkpt>
      <trkpt lat="46.30171" lon="6.14091">
        <ele>449</ele>
        <time>2020-11-06T13:19:41.975Z</time>
      </trkpt>
      <trkpt lat="46.30174" lon="6.14092">
        <ele>449</ele>
        <time>2020-11-06T13:19:42.976Z</time>
      </trkpt>
      <trkpt lat="46.30176" lon="6.14094">
        <ele>450</ele>
        <time>2020-11-06T13:19:43.976Z</time>
      </trkpt>
      <trkpt lat="46.30178" lon="6.14095">
        <ele>450</ele>
        <time>2020-11-06T13:19:44.976Z</time>
      </trkpt>
      <trkpt lat="46.30181" lon="6.14096">
        <ele>450</ele>
        <time>2020-11-06T13:19:45.976Z</time>
      </trkpt>
      <trkpt lat="46.30184" lon="6.14096">
        <ele>450</ele>
        <time>2020-11-06T13:19:46.976Z</time>
      </trkpt>
      <trkpt lat="46.30187" lon="6.14095">
        <ele>451</ele>
        <time>2020-11-06T13:19:47.976Z</time>
      </trkpt>
      <trkpt lat="46.30191" lon="6.14095">
        <ele>451</ele>
        <time>2020-11-06T13:19:48.976Z</time>
      </trkpt>
      <trkpt lat="46.30194" lon="6.14094">
        <ele>451</ele>
        <time>2020-11-06T13:19:49.975Z</time>
      </trkpt>
      <trkpt lat="46.30197" lon="6.14093">
        <ele>451</ele>
        <time>2020-11-06T13:19:50.975Z</time>
      </trkpt>
      <trkpt lat="46.302" lon="6.14092">
        <ele>452</ele>
        <time>2020-11-06T13:19:51.975Z</time>
      </trkpt>
      <trkpt lat="46.30203" lon="6.14091">
        <ele>452</ele>
        <time>2020-11-06T13:19:52.975Z</time>
      </trkpt>
      <trkpt lat="46.30206" lon="6.14091">
        <ele>453</ele>
        <time>2020-11-06T13:19:53.976Z</time>
      </trkpt>
      <trkpt lat="46.30209" lon="6.1409">
        <ele>453</ele>
        <time>2020-11-06T13:19:54.976Z</time>
      </trkpt>
      <trkpt lat="46.30212" lon="6.14089">
        <ele>453</ele>
        <time>2020-11-06T13:19:55.976Z</time>
      </trkpt>
      <trkpt lat="46.30214" lon="6.14087">
        <ele>453</ele>
        <time>2020-11-06T13:19:56.976Z</time>
      </trkpt>
      <trkpt lat="46.30217" lon="6.14086">
        <ele>453</ele>
        <time>2020-11-06T13:19:57.976Z</time>
      </trkpt>
      <trkpt lat="46.3022" lon="6.14085">
        <ele>452</ele>
        <time>2020-11-06T13:19:58.976Z</time>
      </trkpt>
      <trkpt lat="46.30223" lon="6.14084">
        <ele>452</ele>
        <time>2020-11-06T13:19:59.976Z</time>
      </trkpt>
      <trkpt lat="46.30226" lon="6.14083">
        <ele>452</ele>
        <time>2020-11-06T13:20:00.976Z</time>
      </trkpt>
      <trkpt lat="46.30229" lon="6.14082">
        <ele>452</ele>
        <time>2020-11-06T13:20:01.975Z</time>
      </trkpt>
      <trkpt lat="46.30231" lon="6.14081">
        <ele>451</ele>
        <time>2020-11-06T13:20:02.976Z</time>
      </trkpt>
      <trkpt lat="46.30235" lon="6.1408">
        <ele>451</ele>
        <time>2020-11-06T13:20:03.976Z</time>
      </trkpt>
      <trkpt lat="46.30238" lon="6.14079">
        <ele>451</ele>
        <time>2020-11-06T13:20:04.976Z</time>
      </trkpt>
      <trkpt lat="46.3024" lon="6.14078">
        <ele>451</ele>
        <time>2020-11-06T13:20:05.976Z</time>
      </trkpt>
      <trkpt lat="46.30243" lon="6.14077">
        <ele>451</ele>
        <time>2020-11-06T13:20:06.976Z</time>
      </trkpt>
      <trkpt lat="46.30245" lon="6.14076">
        <ele>451</ele>
        <time>2020-11-06T13:20:07.976Z</time>
      </trkpt>
      <trkpt lat="46.30248" lon="6.14075">
        <ele>451</ele>
        <time>2020-11-06T13:20:08.976Z</time>
      </trkpt>
      <trkpt lat="46.30251" lon="6.14074">
        <ele>451</ele>
        <time>2020-11-06T13:20:09.976Z</time>
      </trkpt>
      <trkpt lat="46.30253" lon="6.14074">
        <ele>452</ele>
        <time>2020-11-06T13:20:10.975Z</time>
      </trkpt>
      <trkpt lat="46.30256" lon="6.14073">
        <ele>452</ele>
        <time>2020-11-06T13:20:11.975Z</time>
      </trkpt>
      <trkpt lat="46.30258" lon="6.14073">
        <ele>452</ele>
        <time>2020-11-06T13:20:12.976Z</time>
      </trkpt>
      <trkpt lat="46.30261" lon="6.14072">
        <ele>453</ele>
        <time>2020-11-06T13:20:13.975Z</time>
      </trkpt>
      <trkpt lat="46.30264" lon="6.14071">
        <ele>453</ele>
        <time>2020-11-06T13:20:14.975Z</time>
      </trkpt>
      <trkpt lat="46.30266" lon="6.1407">
        <ele>453</ele>
        <time>2020-11-06T13:20:15.976Z</time>
      </trkpt>
      <trkpt lat="46.30269" lon="6.14069">
        <ele>453</ele>
        <time>2020-11-06T13:20:16.975Z</time>
      </trkpt>
      <trkpt lat="46.30271" lon="6.14068">
        <ele>453</ele>
        <time>2020-11-06T13:20:17.975Z</time>
      </trkpt>
      <trkpt lat="46.30274" lon="6.14067">
        <ele>452</ele>
        <time>2020-11-06T13:20:18.975Z</time>
      </trkpt>
      <trkpt lat="46.30277" lon="6.14067">
        <ele>452</ele>
        <time>2020-11-06T13:20:19.975Z</time>
      </trkpt>
      <trkpt lat="46.30279" lon="6.14066">
        <ele>452</ele>
        <time>2020-11-06T13:20:20.975Z</time>
      </trkpt>
      <trkpt lat="46.30282" lon="6.14066">
        <ele>452</ele>
        <time>2020-11-06T13:20:21.975Z</time>
      </trkpt>
      <trkpt lat="46.30284" lon="6.14065">
        <ele>451</ele>
        <time>2020-11-06T13:20:22.976Z</time>
      </trkpt>
      <trkpt lat="46.30286" lon="6.14065">
        <ele>452</ele>
        <time>2020-11-06T13:20:23.976Z</time>
      </trkpt>
      <trkpt lat="46.30288" lon="6.14065">
        <ele>452</ele>
        <time>2020-11-06T13:20:24.976Z</time>
      </trkpt>
      <trkpt lat="46.3029" lon="6.14065">
        <ele>452</ele>
        <time>2020-11-06T13:20:25.976Z</time>
      </trkpt>
      <trkpt lat="46.30292" lon="6.14065">
        <ele>452</ele>
        <time>2020-11-06T13:20:26.976Z</time>
      </trkpt>
      <trkpt lat="46.30294" lon="6.14065">
        <ele>452</ele>
        <time>2020-11-06T13:20:27.976Z</time>
      </trkpt>
      <trkpt lat="46.30296" lon="6.14064">
        <ele>452</ele>
        <time>2020-11-06T13:20:28.976Z</time>
      </trkpt>
      <trkpt lat="46.30299" lon="6.14065">
        <ele>452</ele>
        <time>2020-11-06T13:20:29.976Z</time>
      </trkpt>
      <trkpt lat="46.30301" lon="6.14065">
        <ele>452</ele>
        <time>2020-11-06T13:20:30.975Z</time>
      </trkpt>
      <trkpt lat="46.30303" lon="6.14066">
        <ele>452</ele>
        <time>2020-11-06T13:20:31.976Z</time>
      </trkpt>
      <trkpt lat="46.30305" lon="6.14066">
        <ele>452</ele>
        <time>2020-11-06T13:20:32.976Z</time>
      </trkpt>
      <trkpt lat="46.30307" lon="6.14067">
        <ele>452</ele>
        <time>2020-11-06T13:20:33.976Z</time>
      </trkpt>
      <trkpt lat="46.3031" lon="6.14068">
        <ele>452</ele>
        <time>2020-11-06T13:20:34.976Z</time>
      </trkpt>
      <trkpt lat="46.30312" lon="6.14068">
        <ele>452</ele>
        <time>2020-11-06T13:20:35.976Z</time>
      </trkpt>
      <trkpt lat="46.30314" lon="6.14068">
        <ele>452</ele>
        <time>2020-11-06T13:20:36.976Z</time>
      </trkpt>
      <trkpt lat="46.30316" lon="6.14069">
        <ele>453</ele>
        <time>2020-11-06T13:20:37.976Z</time>
      </trkpt>
      <trkpt lat="46.30318" lon="6.14069">
        <ele>453</ele>
        <time>2020-11-06T13:20:38.976Z</time>
      </trkpt>
      <trkpt lat="46.3032" lon="6.1407">
        <ele>454</ele>
        <time>2020-11-06T13:20:39.976Z</time>
      </trkpt>
      <trkpt lat="46.30322" lon="6.14071">
        <ele>454</ele>
        <time>2020-11-06T13:20:40.975Z</time>
      </trkpt>
      <trkpt lat="46.30324" lon="6.14072">
        <ele>455</ele>
        <time>2020-11-06T13:20:41.975Z</time>
      </trkpt>
      <trkpt lat="46.30327" lon="6.14073">
        <ele>456</ele>
        <time>2020-11-06T13:20:42.976Z</time>
      </trkpt>
      <trkpt lat="46.30329" lon="6.14074">
        <ele>456</ele>
        <time>2020-11-06T13:20:43.975Z</time>
      </trkpt>
      <trkpt lat="46.30331" lon="6.14076">
        <ele>456</ele>
        <time>2020-11-06T13:20:44.976Z</time>
      </trkpt>
      <trkpt lat="46.30333" lon="6.14077">
        <ele>456</ele>
        <time>2020-11-06T13:20:45.976Z</time>
      </trkpt>
      <trkpt lat="46.30335" lon="6.14079">
        <ele>457</ele>
        <time>2020-11-06T13:20:46.976Z</time>
      </trkpt>
      <trkpt lat="46.30338" lon="6.1408">
        <ele>457</ele>
        <time>2020-11-06T13:20:47.976Z</time>
      </trkpt>
      <trkpt lat="46.3034" lon="6.14081">
        <ele>457</ele>
        <time>2020-11-06T13:20:48.976Z</time>
      </trkpt>
      <trkpt lat="46.30342" lon="6.14082">
        <ele>457</ele>
        <time>2020-11-06T13:20:49.976Z</time>
      </trkpt>
      <trkpt lat="46.30344" lon="6.14084">
        <ele>457</ele>
        <time>2020-11-06T13:20:50.975Z</time>
      </trkpt>
      <trkpt lat="46.30346" lon="6.14085">
        <ele>457</ele>
        <time>2020-11-06T13:20:51.976Z</time>
      </trkpt>
      <trkpt lat="46.30348" lon="6.14087">
        <ele>457</ele>
        <time>2020-11-06T13:20:52.976Z</time>
      </trkpt>
      <trkpt lat="46.3035" lon="6.14088">
        <ele>457</ele>
        <time>2020-11-06T13:20:53.976Z</time>
      </trkpt>
      <trkpt lat="46.30352" lon="6.1409">
        <ele>457</ele>
        <time>2020-11-06T13:20:54.976Z</time>
      </trkpt>
      <trkpt lat="46.30355" lon="6.14091">
        <ele>457</ele>
        <time>2020-11-06T13:20:55.976Z</time>
      </trkpt>
      <trkpt lat="46.30358" lon="6.14091">
        <ele>457</ele>
        <time>2020-11-06T13:20:56.976Z</time>
      </trkpt>
      <trkpt lat="46.30361" lon="6.14092">
        <ele>457</ele>
        <time>2020-11-06T13:20:57.976Z</time>
      </trkpt>
      <trkpt lat="46.30363" lon="6.14093">
        <ele>456</ele>
        <time>2020-11-06T13:20:58.976Z</time>
      </trkpt>
      <trkpt lat="46.30366" lon="6.14094">
        <ele>456</ele>
        <time>2020-11-06T13:20:59.976Z</time>
      </trkpt>
      <trkpt lat="46.30369" lon="6.14095">
        <ele>456</ele>
        <time>2020-11-06T13:21:00.976Z</time>
      </trkpt>
      <trkpt lat="46.30372" lon="6.14098">
        <ele>455</ele>
        <time>2020-11-06T13:21:01.976Z</time>
      </trkpt>
      <trkpt lat="46.30376" lon="6.141">
        <ele>455</ele>
        <time>2020-11-06T13:21:02.975Z</time>
      </trkpt>
      <trkpt lat="46.30379" lon="6.14101">
        <ele>455</ele>
        <time>2020-11-06T13:21:03.975Z</time>
      </trkpt>
      <trkpt lat="46.30382" lon="6.14102">
        <ele>454</ele>
        <time>2020-11-06T13:21:04.976Z</time>
      </trkpt>
      <trkpt lat="46.30384" lon="6.14102">
        <ele>454</ele>
        <time>2020-11-06T13:21:05.976Z</time>
      </trkpt>
      <trkpt lat="46.30386" lon="6.14104">
        <ele>454</ele>
        <time>2020-11-06T13:21:06.976Z</time>
      </trkpt>
      <trkpt lat="46.30388" lon="6.14106">
        <ele>454</ele>
        <time>2020-11-06T13:21:07.976Z</time>
      </trkpt>
      <trkpt lat="46.30391" lon="6.14108">
        <ele>454</ele>
        <time>2020-11-06T13:21:08.976Z</time>
      </trkpt>
      <trkpt lat="46.30393" lon="6.1411">
        <ele>454</ele>
        <time>2020-11-06T13:21:09.976Z</time>
      </trkpt>
      <trkpt lat="46.30395" lon="6.14111">
        <ele>454</ele>
        <time>2020-11-06T13:21:10.975Z</time>
      </trkpt>
      <trkpt lat="46.30399" lon="6.14112">
        <ele>454</ele>
        <time>2020-11-06T13:21:11.976Z</time>
      </trkpt>
      <trkpt lat="46.30401" lon="6.14113">
        <ele>453</ele>
        <time>2020-11-06T13:21:12.976Z</time>
      </trkpt>
      <trkpt lat="46.30404" lon="6.14113">
        <ele>453</ele>
        <time>2020-11-06T13:21:13.976Z</time>
      </trkpt>
      <trkpt lat="46.30408" lon="6.14112">
        <ele>453</ele>
        <time>2020-11-06T13:21:14.975Z</time>
      </trkpt>
      <trkpt lat="46.30412" lon="6.14113">
        <ele>453</ele>
        <time>2020-11-06T13:21:15.976Z</time>
      </trkpt>
      <trkpt lat="46.30415" lon="6.14113">
        <ele>453</ele>
        <time>2020-11-06T13:21:16.976Z</time>
      </trkpt>
      <trkpt lat="46.30417" lon="6.14113">
        <ele>453</ele>
        <time>2020-11-06T13:21:17.976Z</time>
      </trkpt>
      <trkpt lat="46.3042" lon="6.14113">
        <ele>453</ele>
        <time>2020-11-06T13:21:18.976Z</time>
      </trkpt>
      <trkpt lat="46.30423" lon="6.14112">
        <ele>453</ele>
        <time>2020-11-06T13:21:19.976Z</time>
      </trkpt>
      <trkpt lat="46.30426" lon="6.14112">
        <ele>453</ele>
        <time>2020-11-06T13:21:20.976Z</time>
      </trkpt>
      <trkpt lat="46.30428" lon="6.14112">
        <ele>453</ele>
        <time>2020-11-06T13:21:21.976Z</time>
      </trkpt>
      <trkpt lat="46.3043" lon="6.14111">
        <ele>454</ele>
        <time>2020-11-06T13:21:22.976Z</time>
      </trkpt>
      <trkpt lat="46.30432" lon="6.1411">
        <ele>454</ele>
        <time>2020-11-06T13:21:23.975Z</time>
      </trkpt>
      <trkpt lat="46.30435" lon="6.14107">
        <ele>454</ele>
        <time>2020-11-06T13:21:24.976Z</time>
      </trkpt>
      <trkpt lat="46.30438" lon="6.14105">
        <ele>454</ele>
        <time>2020-11-06T13:21:25.975Z</time>
      </trkpt>
      <trkpt lat="46.30441" lon="6.14103">
        <ele>455</ele>
        <time>2020-11-06T13:21:26.975Z</time>
      </trkpt>
      <trkpt lat="46.30444" lon="6.141">
        <ele>455</ele>
        <time>2020-11-06T13:21:27.975Z</time>
      </trkpt>
      <trkpt lat="46.30447" lon="6.14098">
        <ele>456</ele>
        <time>2020-11-06T13:21:28.976Z</time>
      </trkpt>
      <trkpt lat="46.3045" lon="6.14094">
        <ele>456</ele>
        <time>2020-11-06T13:21:29.976Z</time>
      </trkpt>
      <trkpt lat="46.30453" lon="6.14091">
        <ele>456</ele>
        <time>2020-11-06T13:21:30.976Z</time>
      </trkpt>
      <trkpt lat="46.30456" lon="6.14089">
        <ele>457</ele>
        <time>2020-11-06T13:21:31.975Z</time>
      </trkpt>
      <trkpt lat="46.3046" lon="6.14086">
        <ele>457</ele>
        <time>2020-11-06T13:21:32.976Z</time>
      </trkpt>
      <trkpt lat="46.30463" lon="6.14083">
        <ele>457</ele>
        <time>2020-11-06T13:21:33.975Z</time>
      </trkpt>
      <trkpt lat="46.30465" lon="6.14081">
        <ele>458</ele>
        <time>2020-11-06T13:21:34.976Z</time>
      </trkpt>
      <trkpt lat="46.30467" lon="6.1408">
        <ele>458</ele>
        <time>2020-11-06T13:21:35.976Z</time>
      </trkpt>
      <trkpt lat="46.30468" lon="6.14079">
        <ele>458</ele>
        <time>2020-11-06T13:21:36.975Z</time>
      </trkpt>
      <trkpt lat="46.3047" lon="6.14079">
        <ele>458</ele>
        <time>2020-11-06T13:21:37.975Z</time>
      </trkpt>
      <trkpt lat="46.30472" lon="6.1408">
        <ele>457</ele>
        <time>2020-11-06T13:21:38.976Z</time>
      </trkpt>
      <trkpt lat="46.30474" lon="6.14081">
        <ele>457</ele>
        <time>2020-11-06T13:21:39.976Z</time>
      </trkpt>
      <trkpt lat="46.30475" lon="6.14082">
        <ele>457</ele>
        <time>2020-11-06T13:21:40.975Z</time>
      </trkpt>
      <trkpt lat="46.30477" lon="6.14081">
        <ele>457</ele>
        <time>2020-11-06T13:21:41.976Z</time>
      </trkpt>
      <trkpt lat="46.30478" lon="6.1408">
        <ele>456</ele>
        <time>2020-11-06T13:21:42.975Z</time>
      </trkpt>
      <trkpt lat="46.30481" lon="6.1408">
        <ele>455</ele>
        <time>2020-11-06T13:21:43.976Z</time>
      </trkpt>
      <trkpt lat="46.30482" lon="6.1408">
        <ele>455</ele>
        <time>2020-11-06T13:21:44.976Z</time>
      </trkpt>
      <trkpt lat="46.30484" lon="6.1408">
        <ele>454</ele>
        <time>2020-11-06T13:21:45.976Z</time>
      </trkpt>
      <trkpt lat="46.30486" lon="6.14081">
        <ele>453</ele>
        <time>2020-11-06T13:21:46.975Z</time>
      </trkpt>
      <trkpt lat="46.30488" lon="6.14082">
        <ele>453</ele>
        <time>2020-11-06T13:21:47.976Z</time>
      </trkpt>
      <trkpt lat="46.30491" lon="6.14083">
        <ele>452</ele>
        <time>2020-11-06T13:21:48.976Z</time>
      </trkpt>
      <trkpt lat="46.30493" lon="6.14084">
        <ele>452</ele>
        <time>2020-11-06T13:21:49.976Z</time>
      </trkpt>
      <trkpt lat="46.30497" lon="6.14086">
        <ele>452</ele>
        <time>2020-11-06T13:21:50.976Z</time>
      </trkpt>
      <trkpt lat="46.30499" lon="6.14087">
        <ele>451</ele>
        <time>2020-11-06T13:21:51.975Z</time>
      </trkpt>
      <trkpt lat="46.30501" lon="6.14088">
        <ele>451</ele>
        <time>2020-11-06T13:21:52.976Z</time>
      </trkpt>
      <trkpt lat="46.30502" lon="6.14089">
        <ele>451</ele>
        <time>2020-11-06T13:21:53.976Z</time>
      </trkpt>
      <trkpt lat="46.30504" lon="6.1409">
        <ele>451</ele>
        <time>2020-11-06T13:21:54.976Z</time>
      </trkpt>
      <trkpt lat="46.30507" lon="6.14091">
        <ele>451</ele>
        <time>2020-11-06T13:21:55.975Z</time>
      </trkpt>
      <trkpt lat="46.30509" lon="6.14092">
        <ele>451</ele>
        <time>2020-11-06T13:21:56.975Z</time>
      </trkpt>
      <trkpt lat="46.30512" lon="6.14093">
        <ele>451</ele>
        <time>2020-11-06T13:21:57.976Z</time>
      </trkpt>
      <trkpt lat="46.30515" lon="6.14093">
        <ele>451</ele>
        <time>2020-11-06T13:21:58.976Z</time>
      </trkpt>
      <trkpt lat="46.30518" lon="6.14094">
        <ele>450</ele>
        <time>2020-11-06T13:21:59.976Z</time>
      </trkpt>
      <trkpt lat="46.3052" lon="6.14095">
        <ele>450</ele>
        <time>2020-11-06T13:22:00.976Z</time>
      </trkpt>
      <trkpt lat="46.30523" lon="6.14095">
        <ele>450</ele>
        <time>2020-11-06T13:22:01.976Z</time>
      </trkpt>
      <trkpt lat="46.30526" lon="6.14096">
        <ele>450</ele>
        <time>2020-11-06T13:22:02.976Z</time>
      </trkpt>
      <trkpt lat="46.30529" lon="6.14096">
        <ele>450</ele>
        <time>2020-11-06T13:22:03.975Z</time>
      </trkpt>
      <trkpt lat="46.30532" lon="6.14097">
        <ele>449</ele>
        <time>2020-11-06T13:22:04.975Z</time>
      </trkpt>
      <trkpt lat="46.30534" lon="6.14098">
        <ele>449</ele>
        <time>2020-11-06T13:22:05.976Z</time>
      </trkpt>
      <trkpt lat="46.30536" lon="6.14098">
        <ele>449</ele>
        <time>2020-11-06T13:22:06.976Z</time>
      </trkpt>
      <trkpt lat="46.30539" lon="6.14098">
        <ele>449</ele>
        <time>2020-11-06T13:22:07.976Z</time>
      </trkpt>
      <trkpt lat="46.30542" lon="6.14098">
        <ele>449</ele>
        <time>2020-11-06T13:22:08.975Z</time>
      </trkpt>
      <trkpt lat="46.30545" lon="6.14098">
        <ele>449</ele>
        <time>2020-11-06T13:22:09.976Z</time>
      </trkpt>
      <trkpt lat="46.30548" lon="6.14098">
        <ele>449</ele>
        <time>2020-11-06T13:22:10.976Z</time>
      </trkpt>
      <trkpt lat="46.3055" lon="6.14099">
        <ele>449</ele>
        <time>2020-11-06T13:22:11.976Z</time>
      </trkpt>
      <trkpt lat="46.30553" lon="6.141">
        <ele>448</ele>
        <time>2020-11-06T13:22:12.975Z</time>
      </trkpt>
      <trkpt lat="46.30555" lon="6.14101">
        <ele>448</ele>
        <time>2020-11-06T13:22:13.976Z</time>
      </trkpt>
      <trkpt lat="46.30557" lon="6.14101">
        <ele>448</ele>
        <time>2020-11-06T13:22:14.975Z</time>
      </trkpt>
      <trkpt lat="46.30559" lon="6.14102">
        <ele>448</ele>
        <time>2020-11-06T13:22:15.976Z</time>
      </trkpt>
      <trkpt lat="46.30561" lon="6.14103">
        <ele>448</ele>
        <time>2020-11-06T13:22:16.976Z</time>
      </trkpt>
      <trkpt lat="46.30564" lon="6.14104">
        <ele>448</ele>
        <time>2020-11-06T13:22:17.976Z</time>
      </trkpt>
      <trkpt lat="46.30566" lon="6.14105">
        <ele>448</ele>
        <time>2020-11-06T13:22:18.975Z</time>
      </trkpt>
      <trkpt lat="46.30568" lon="6.14106">
        <ele>448</ele>
        <time>2020-11-06T13:22:19.975Z</time>
      </trkpt>
      <trkpt lat="46.30571" lon="6.14107">
        <ele>448</ele>
        <time>2020-11-06T13:22:20.976Z</time>
      </trkpt>
      <trkpt lat="46.30573" lon="6.14109">
        <ele>448</ele>
        <time>2020-11-06T13:22:21.976Z</time>
      </trkpt>
      <trkpt lat="46.30576" lon="6.1411">
        <ele>449</ele>
        <time>2020-11-06T13:22:22.976Z</time>
      </trkpt>
      <trkpt lat="46.30578" lon="6.14111">
        <ele>449</ele>
        <time>2020-11-06T13:22:23.976Z</time>
      </trkpt>
      <trkpt lat="46.3058" lon="6.14113">
        <ele>449</ele>
        <time>2020-11-06T13:22:24.976Z</time>
      </trkpt>
      <trkpt lat="46.30583" lon="6.14114">
        <ele>449</ele>
        <time>2020-11-06T13:22:25.976Z</time>
      </trkpt>
      <trkpt lat="46.30586" lon="6.14114">
        <ele>449</ele>
        <time>2020-11-06T13:22:26.976Z</time>
      </trkpt>
      <trkpt lat="46.30588" lon="6.14114">
        <ele>449</ele>
        <time>2020-11-06T13:22:27.976Z</time>
      </trkpt>
      <trkpt lat="46.30591" lon="6.14114">
        <ele>450</ele>
        <time>2020-11-06T13:22:28.976Z</time>
      </trkpt>
      <trkpt lat="46.30594" lon="6.14115">
        <ele>450</ele>
        <time>2020-11-06T13:22:29.976Z</time>
      </trkpt>
      <trkpt lat="46.30597" lon="6.14115">
        <ele>450</ele>
        <time>2020-11-06T13:22:30.975Z</time>
      </trkpt>
      <trkpt lat="46.30599" lon="6.14116">
        <ele>450</ele>
        <time>2020-11-06T13:22:31.975Z</time>
      </trkpt>
      <trkpt lat="46.30601" lon="6.14117">
        <ele>450</ele>
        <time>2020-11-06T13:22:32.975Z</time>
      </trkpt>
      <trkpt lat="46.30604" lon="6.14118">
        <ele>450</ele>
        <time>2020-11-06T13:22:33.976Z</time>
      </trkpt>
      <trkpt lat="46.30606" lon="6.14119">
        <ele>450</ele>
        <time>2020-11-06T13:22:34.975Z</time>
      </trkpt>
      <trkpt lat="46.30609" lon="6.1412">
        <ele>450</ele>
        <time>2020-11-06T13:22:35.976Z</time>
      </trkpt>
      <trkpt lat="46.30611" lon="6.14121">
        <ele>449</ele>
        <time>2020-11-06T13:22:36.976Z</time>
      </trkpt>
      <trkpt lat="46.30613" lon="6.14122">
        <ele>449</ele>
        <time>2020-11-06T13:22:37.976Z</time>
      </trkpt>
      <trkpt lat="46.30615" lon="6.14123">
        <ele>449</ele>
        <time>2020-11-06T13:22:38.976Z</time>
      </trkpt>
      <trkpt lat="46.30618" lon="6.14123">
        <ele>449</ele>
        <time>2020-11-06T13:22:39.976Z</time>
      </trkpt>
      <trkpt lat="46.3062" lon="6.14124">
        <ele>449</ele>
        <time>2020-11-06T13:22:40.976Z</time>
      </trkpt>
      <trkpt lat="46.30622" lon="6.14124">
        <ele>449</ele>
        <time>2020-11-06T13:22:41.976Z</time>
      </trkpt>
      <trkpt lat="46.30625" lon="6.14125">
        <ele>449</ele>
        <time>2020-11-06T13:22:42.975Z</time>
      </trkpt>
      <trkpt lat="46.30627" lon="6.14126">
        <ele>449</ele>
        <time>2020-11-06T13:22:43.976Z</time>
      </trkpt>
      <trkpt lat="46.30629" lon="6.14127">
        <ele>449</ele>
        <time>2020-11-06T13:22:44.976Z</time>
      </trkpt>
      <trkpt lat="46.30632" lon="6.14128">
        <ele>449</ele>
        <time>2020-11-06T13:22:45.976Z</time>
      </trkpt>
      <trkpt lat="46.30633" lon="6.14128">
        <ele>449</ele>
        <time>2020-11-06T13:22:46.976Z</time>
      </trkpt>
      <trkpt lat="46.30636" lon="6.14129">
        <ele>449</ele>
        <time>2020-11-06T13:22:47.975Z</time>
      </trkpt>
      <trkpt lat="46.30638" lon="6.14129">
        <ele>449</ele>
        <time>2020-11-06T13:22:48.975Z</time>
      </trkpt>
      <trkpt lat="46.30641" lon="6.14129">
        <ele>449</ele>
        <time>2020-11-06T13:22:49.975Z</time>
      </trkpt>
      <trkpt lat="46.30644" lon="6.14129">
        <ele>449</ele>
        <time>2020-11-06T13:22:50.976Z</time>
      </trkpt>
      <trkpt lat="46.30648" lon="6.1413">
        <ele>449</ele>
        <time>2020-11-06T13:22:51.976Z</time>
      </trkpt>
      <trkpt lat="46.30651" lon="6.14131">
        <ele>449</ele>
        <time>2020-11-06T13:22:52.976Z</time>
      </trkpt>
      <trkpt lat="46.30654" lon="6.14132">
        <ele>449</ele>
        <time>2020-11-06T13:22:53.976Z</time>
      </trkpt>
      <trkpt lat="46.30657" lon="6.14133">
        <ele>449</ele>
        <time>2020-11-06T13:22:54.975Z</time>
      </trkpt>
      <trkpt lat="46.30659" lon="6.14135">
        <ele>449</ele>
        <time>2020-11-06T13:22:55.975Z</time>
      </trkpt>
      <trkpt lat="46.30661" lon="6.14136">
        <ele>448</ele>
        <time>2020-11-06T13:22:56.976Z</time>
      </trkpt>
      <trkpt lat="46.30663" lon="6.14138">
        <ele>448</ele>
        <time>2020-11-06T13:22:57.975Z</time>
      </trkpt>
      <trkpt lat="46.30666" lon="6.14139">
        <ele>448</ele>
        <time>2020-11-06T13:22:58.976Z</time>
      </trkpt>
      <trkpt lat="46.30669" lon="6.1414">
        <ele>449</ele>
        <time>2020-11-06T13:22:59.975Z</time>
      </trkpt>
      <trkpt lat="46.30672" lon="6.14141">
        <ele>449</ele>
        <time>2020-11-06T13:23:00.975Z</time>
      </trkpt>
      <trkpt lat="46.30675" lon="6.14142">
        <ele>449</ele>
        <time>2020-11-06T13:23:01.976Z</time>
      </trkpt>
      <trkpt lat="46.30678" lon="6.14143">
        <ele>449</ele>
        <time>2020-11-06T13:23:02.976Z</time>
      </trkpt>
      <trkpt lat="46.30681" lon="6.14143">
        <ele>449</ele>
        <time>2020-11-06T13:23:03.975Z</time>
      </trkpt>
      <trkpt lat="46.30683" lon="6.14144">
        <ele>448</ele>
        <time>2020-11-06T13:23:04.976Z</time>
      </trkpt>
      <trkpt lat="46.30686" lon="6.14144">
        <ele>448</ele>
        <time>2020-11-06T13:23:05.976Z</time>
      </trkpt>
      <trkpt lat="46.30688" lon="6.14145">
        <ele>448</ele>
        <time>2020-11-06T13:23:06.975Z</time>
      </trkpt>
      <trkpt lat="46.30689" lon="6.14145">
        <ele>448</ele>
        <time>2020-11-06T13:23:07.975Z</time>
      </trkpt>
      <trkpt lat="46.30691" lon="6.14145">
        <ele>448</ele>
        <time>2020-11-06T13:23:08.976Z</time>
      </trkpt>
      <trkpt lat="46.30693" lon="6.14146">
        <ele>448</ele>
        <time>2020-11-06T13:23:09.976Z</time>
      </trkpt>
      <trkpt lat="46.30695" lon="6.14146">
        <ele>449</ele>
        <time>2020-11-06T13:23:10.976Z</time>
      </trkpt>
      <trkpt lat="46.30697" lon="6.14146">
        <ele>449</ele>
        <time>2020-11-06T13:23:11.976Z</time>
      </trkpt>
      <trkpt lat="46.30699" lon="6.14146">
        <ele>449</ele>
        <time>2020-11-06T13:23:12.976Z</time>
      </trkpt>
      <trkpt lat="46.30701" lon="6.14146">
        <ele>450</ele>
        <time>2020-11-06T13:23:13.976Z</time>
      </trkpt>
      <trkpt lat="46.30704" lon="6.14146">
        <ele>450</ele>
        <time>2020-11-06T13:23:14.975Z</time>
      </trkpt>
      <trkpt lat="46.30706" lon="6.14147">
        <ele>450</ele>
        <time>2020-11-06T13:23:15.975Z</time>
      </trkpt>
      <trkpt lat="46.30708" lon="6.14147">
        <ele>450</ele>
        <time>2020-11-06T13:23:16.975Z</time>
      </trkpt>
      <trkpt lat="46.3071" lon="6.14147">
        <ele>451</ele>
        <time>2020-11-06T13:23:17.976Z</time>
      </trkpt>
      <trkpt lat="46.30712" lon="6.14148">
        <ele>451</ele>
        <time>2020-11-06T13:23:18.975Z</time>
      </trkpt>
      <trkpt lat="46.30715" lon="6.14148">
        <ele>451</ele>
        <time>2020-11-06T13:23:19.975Z</time>
      </trkpt>
      <trkpt lat="46.30718" lon="6.14148">
        <ele>451</ele>
        <time>2020-11-06T13:23:20.976Z</time>
      </trkpt>
      <trkpt lat="46.30722" lon="6.14148">
        <ele>451</ele>
        <time>2020-11-06T13:23:21.976Z</time>
      </trkpt>
      <trkpt lat="46.30726" lon="6.14148">
        <ele>451</ele>
        <time>2020-11-06T13:23:22.976Z</time>
      </trkpt>
      <trkpt lat="46.30729" lon="6.14147">
        <ele>451</ele>
        <time>2020-11-06T13:23:23.975Z</time>
      </trkpt>
      <trkpt lat="46.30732" lon="6.14147">
        <ele>451</ele>
        <time>2020-11-06T13:23:24.975Z</time>
      </trkpt>
      <trkpt lat="46.30736" lon="6.14146">
        <ele>451</ele>
        <time>2020-11-06T13:23:25.976Z</time>
      </trkpt>
      <trkpt lat="46.30739" lon="6.14146">
        <ele>451</ele>
        <time>2020-11-06T13:23:26.975Z</time>
      </trkpt>
      <trkpt lat="46.30742" lon="6.14146">
        <ele>451</ele>
        <time>2020-11-06T13:23:27.975Z</time>
      </trkpt>
      <trkpt lat="46.30744" lon="6.14147">
        <ele>451</ele>
        <time>2020-11-06T13:23:28.975Z</time>
      </trkpt>
      <trkpt lat="46.30747" lon="6.14148">
        <ele>451</ele>
        <time>2020-11-06T13:23:29.975Z</time>
      </trkpt>
      <trkpt lat="46.30748" lon="6.14148">
        <ele>451</ele>
        <time>2020-11-06T13:23:30.975Z</time>
      </trkpt>
      <trkpt lat="46.3075" lon="6.14148">
        <ele>450</ele>
        <time>2020-11-06T13:23:31.975Z</time>
      </trkpt>
      <trkpt lat="46.30752" lon="6.14148">
        <ele>450</ele>
        <time>2020-11-06T13:23:32.976Z</time>
      </trkpt>
      <trkpt lat="46.30753" lon="6.14149">
        <ele>450</ele>
        <time>2020-11-06T13:23:33.976Z</time>
      </trkpt>
      <trkpt lat="46.30755" lon="6.14149">
        <ele>450</ele>
        <time>2020-11-06T13:23:34.976Z</time>
      </trkpt>
      <trkpt lat="46.30758" lon="6.14148">
        <ele>450</ele>
        <time>2020-11-06T13:23:35.976Z</time>
      </trkpt>
      <trkpt lat="46.3076" lon="6.14149">
        <ele>450</ele>
        <time>2020-11-06T13:23:36.976Z</time>
      </trkpt>
      <trkpt lat="46.30762" lon="6.14149">
        <ele>450</ele>
        <time>2020-11-06T13:23:37.975Z</time>
      </trkpt>
      <trkpt lat="46.30764" lon="6.14149">
        <ele>450</ele>
        <time>2020-11-06T13:23:38.975Z</time>
      </trkpt>
      <trkpt lat="46.30767" lon="6.14149">
        <ele>450</ele>
        <time>2020-11-06T13:23:39.975Z</time>
      </trkpt>
      <trkpt lat="46.30769" lon="6.14149">
        <ele>450</ele>
        <time>2020-11-06T13:23:40.976Z</time>
      </trkpt>
      <trkpt lat="46.30771" lon="6.14149">
        <ele>450</ele>
        <time>2020-11-06T13:23:41.976Z</time>
      </trkpt>
      <trkpt lat="46.30774" lon="6.14149">
        <ele>450</ele>
        <time>2020-11-06T13:23:42.976Z</time>
      </trkpt>
      <trkpt lat="46.30776" lon="6.14149">
        <ele>449</ele>
        <time>2020-11-06T13:23:43.976Z</time>
      </trkpt>
      <trkpt lat="46.30778" lon="6.1415">
        <ele>449</ele>
        <time>2020-11-06T13:23:44.976Z</time>
      </trkpt>
      <trkpt lat="46.3078" lon="6.1415">
        <ele>449</ele>
        <time>2020-11-06T13:23:45.976Z</time>
      </trkpt>
      <trkpt lat="46.30781" lon="6.14151">
        <ele>449</ele>
        <time>2020-11-06T13:23:46.976Z</time>
      </trkpt>
      <trkpt lat="46.30783" lon="6.14151">
        <ele>449</ele>
        <time>2020-11-06T13:23:47.976Z</time>
      </trkpt>
      <trkpt lat="46.30785" lon="6.1415">
        <ele>449</ele>
        <time>2020-11-06T13:23:48.975Z</time>
      </trkpt>
      <trkpt lat="46.30788" lon="6.1415">
        <ele>450</ele>
        <time>2020-11-06T13:23:49.975Z</time>
      </trkpt>
      <trkpt lat="46.3079" lon="6.1415">
        <ele>450</ele>
        <time>2020-11-06T13:23:50.976Z</time>
      </trkpt>
      <trkpt lat="46.30792" lon="6.1415">
        <ele>450</ele>
        <time>2020-11-06T13:23:51.976Z</time>
      </trkpt>
      <trkpt lat="46.30795" lon="6.1415">
        <ele>450</ele>
        <time>2020-11-06T13:23:52.975Z</time>
      </trkpt>
      <trkpt lat="46.30797" lon="6.14149">
        <ele>449</ele>
        <time>2020-11-06T13:23:53.976Z</time>
      </trkpt>
      <trkpt lat="46.308" lon="6.14149">
        <ele>450</ele>
        <time>2020-11-06T13:23:54.976Z</time>
      </trkpt>
      <trkpt lat="46.30802" lon="6.14149">
        <ele>450</ele>
        <time>2020-11-06T13:23:55.976Z</time>
      </trkpt>
      <trkpt lat="46.30805" lon="6.14149">
        <ele>450</ele>
        <time>2020-11-06T13:23:56.976Z</time>
      </trkpt>
      <trkpt lat="46.30809" lon="6.14149">
        <ele>450</ele>
        <time>2020-11-06T13:23:57.975Z</time>
      </trkpt>
      <trkpt lat="46.30812" lon="6.14149">
        <ele>450</ele>
        <time>2020-11-06T13:23:58.975Z</time>
      </trkpt>
      <trkpt lat="46.30814" lon="6.14149">
        <ele>450</ele>
        <time>2020-11-06T13:23:59.976Z</time>
      </trkpt>
      <trkpt lat="46.30816" lon="6.14149">
        <ele>450</ele>
        <time>2020-11-06T13:24:00.976Z</time>
      </trkpt>
      <trkpt lat="46.30819" lon="6.14149">
        <ele>450</ele>
        <time>2020-11-06T13:24:01.975Z</time>
      </trkpt>
      <trkpt lat="46.30822" lon="6.14149">
        <ele>451</ele>
        <time>2020-11-06T13:24:02.976Z</time>
      </trkpt>
      <trkpt lat="46.30824" lon="6.14148">
        <ele>451</ele>
        <time>2020-11-06T13:24:03.976Z</time>
      </trkpt>
      <trkpt lat="46.30827" lon="6.14148">
        <ele>451</ele>
        <time>2020-11-06T13:24:04.976Z</time>
      </trkpt>
      <trkpt lat="46.30829" lon="6.14148">
        <ele>451</ele>
        <time>2020-11-06T13:24:05.976Z</time>
      </trkpt>
      <trkpt lat="46.30832" lon="6.14149">
        <ele>451</ele>
        <time>2020-11-06T13:24:06.976Z</time>
      </trkpt>
      <trkpt lat="46.30834" lon="6.1415">
        <ele>451</ele>
        <time>2020-11-06T13:24:07.975Z</time>
      </trkpt>
      <trkpt lat="46.30836" lon="6.14151">
        <ele>451</ele>
        <time>2020-11-06T13:24:08.976Z</time>
      </trkpt>
      <trkpt lat="46.30839" lon="6.14152">
        <ele>451</ele>
        <time>2020-11-06T13:24:09.976Z</time>
      </trkpt>
      <trkpt lat="46.30841" lon="6.14152">
        <ele>452</ele>
        <time>2020-11-06T13:24:10.975Z</time>
      </trkpt>
      <trkpt lat="46.30845" lon="6.14152">
        <ele>452</ele>
        <time>2020-11-06T13:24:11.976Z</time>
      </trkpt>
      <trkpt lat="46.30848" lon="6.14153">
        <ele>452</ele>
        <time>2020-11-06T13:24:12.976Z</time>
      </trkpt>
      <trkpt lat="46.30851" lon="6.14153">
        <ele>452</ele>
        <time>2020-11-06T13:24:13.976Z</time>
      </trkpt>
      <trkpt lat="46.30854" lon="6.14153">
        <ele>452</ele>
        <time>2020-11-06T13:24:14.976Z</time>
      </trkpt>
      <trkpt lat="46.30856" lon="6.14153">
        <ele>452</ele>
        <time>2020-11-06T13:24:15.976Z</time>
      </trkpt>
      <trkpt lat="46.30859" lon="6.14154">
        <ele>452</ele>
        <time>2020-11-06T13:24:16.976Z</time>
      </trkpt>
      <trkpt lat="46.30862" lon="6.14154">
        <ele>452</ele>
        <time>2020-11-06T13:24:17.976Z</time>
      </trkpt>
      <trkpt lat="46.30865" lon="6.14155">
        <ele>452</ele>
        <time>2020-11-06T13:24:18.976Z</time>
      </trkpt>
      <trkpt lat="46.30867" lon="6.14155">
        <ele>452</ele>
        <time>2020-11-06T13:24:19.976Z</time>
      </trkpt>
      <trkpt lat="46.30869" lon="6.14156">
        <ele>452</ele>
        <time>2020-11-06T13:24:20.975Z</time>
      </trkpt>
      <trkpt lat="46.30871" lon="6.14156">
        <ele>452</ele>
        <time>2020-11-06T13:24:21.976Z</time>
      </trkpt>
      <trkpt lat="46.30874" lon="6.14156">
        <ele>452</ele>
        <time>2020-11-06T13:24:22.976Z</time>
      </trkpt>
      <trkpt lat="46.30876" lon="6.14155">
        <ele>452</ele>
        <time>2020-11-06T13:24:23.975Z</time>
      </trkpt>
      <trkpt lat="46.30879" lon="6.14155">
        <ele>453</ele>
        <time>2020-11-06T13:24:24.975Z</time>
      </trkpt>
      <trkpt lat="46.30882" lon="6.14155">
        <ele>453</ele>
        <time>2020-11-06T13:24:25.975Z</time>
      </trkpt>
      <trkpt lat="46.30885" lon="6.14156">
        <ele>453</ele>
        <time>2020-11-06T13:24:26.975Z</time>
      </trkpt>
      <trkpt lat="46.30887" lon="6.14156">
        <ele>453</ele>
        <time>2020-11-06T13:24:27.976Z</time>
      </trkpt>
      <trkpt lat="46.30889" lon="6.14157">
        <ele>453</ele>
        <time>2020-11-06T13:24:28.976Z</time>
      </trkpt>
      <trkpt lat="46.30891" lon="6.14159">
        <ele>454</ele>
        <time>2020-11-06T13:24:29.975Z</time>
      </trkpt>
      <trkpt lat="46.30893" lon="6.1416">
        <ele>454</ele>
        <time>2020-11-06T13:24:30.976Z</time>
      </trkpt>
      <trkpt lat="46.30896" lon="6.1416">
        <ele>454</ele>
        <time>2020-11-06T13:24:31.975Z</time>
      </trkpt>
      <trkpt lat="46.30899" lon="6.14161">
        <ele>455</ele>
        <time>2020-11-06T13:24:32.976Z</time>
      </trkpt>
      <trkpt lat="46.30902" lon="6.14163">
        <ele>455</ele>
        <time>2020-11-06T13:24:33.976Z</time>
      </trkpt>
      <trkpt lat="46.30906" lon="6.14164">
        <ele>456</ele>
        <time>2020-11-06T13:24:34.975Z</time>
      </trkpt>
      <trkpt lat="46.30908" lon="6.14165">
        <ele>457</ele>
        <time>2020-11-06T13:24:35.976Z</time>
      </trkpt>
      <trkpt lat="46.30911" lon="6.14165">
        <ele>457</ele>
        <time>2020-11-06T13:24:36.975Z</time>
      </trkpt>
      <trkpt lat="46.30914" lon="6.14166">
        <ele>458</ele>
        <time>2020-11-06T13:24:37.976Z</time>
      </trkpt>
      <trkpt lat="46.30916" lon="6.14168">
        <ele>458</ele>
        <time>2020-11-06T13:24:38.976Z</time>
      </trkpt>
      <trkpt lat="46.30919" lon="6.14169">
        <ele>458</ele>
        <time>2020-11-06T13:24:39.975Z</time>
      </trkpt>
      <trkpt lat="46.30921" lon="6.14171">
        <ele>458</ele>
        <time>2020-11-06T13:24:40.975Z</time>
      </trkpt>
      <trkpt lat="46.30923" lon="6.14172">
        <ele>458</ele>
        <time>2020-11-06T13:24:41.976Z</time>
      </trkpt>
      <trkpt lat="46.30926" lon="6.14173">
        <ele>458</ele>
        <time>2020-11-06T13:24:42.976Z</time>
      </trkpt>
      <trkpt lat="46.30929" lon="6.14173">
        <ele>457</ele>
        <time>2020-11-06T13:24:43.975Z</time>
      </trkpt>
      <trkpt lat="46.30931" lon="6.14174">
        <ele>457</ele>
        <time>2020-11-06T13:24:44.976Z</time>
      </trkpt>
      <trkpt lat="46.30934" lon="6.14175">
        <ele>457</ele>
        <time>2020-11-06T13:24:45.975Z</time>
      </trkpt>
      <trkpt lat="46.30937" lon="6.14176">
        <ele>457</ele>
        <time>2020-11-06T13:24:46.976Z</time>
      </trkpt>
      <trkpt lat="46.3094" lon="6.14177">
        <ele>457</ele>
        <time>2020-11-06T13:24:47.976Z</time>
      </trkpt>
      <trkpt lat="46.30942" lon="6.14178">
        <ele>457</ele>
        <time>2020-11-06T13:24:48.976Z</time>
      </trkpt>
      <trkpt lat="46.30943" lon="6.14179">
        <ele>457</ele>
        <time>2020-11-06T13:24:49.975Z</time>
      </trkpt>
      <trkpt lat="46.30945" lon="6.1418">
        <ele>457</ele>
        <time>2020-11-06T13:24:50.976Z</time>
      </trkpt>
      <trkpt lat="46.30947" lon="6.14181">
        <ele>457</ele>
        <time>2020-11-06T13:24:51.976Z</time>
      </trkpt>
      <trkpt lat="46.3095" lon="6.14183">
        <ele>457</ele>
        <time>2020-11-06T13:24:52.976Z</time>
      </trkpt>
      <trkpt lat="46.30952" lon="6.14185">
        <ele>457</ele>
        <time>2020-11-06T13:24:53.976Z</time>
      </trkpt>
      <trkpt lat="46.30954" lon="6.14186">
        <ele>458</ele>
        <time>2020-11-06T13:24:54.976Z</time>
      </trkpt>
      <trkpt lat="46.30957" lon="6.14187">
        <ele>458</ele>
        <time>2020-11-06T13:24:55.976Z</time>
      </trkpt>
      <trkpt lat="46.30959" lon="6.14189">
        <ele>458</ele>
        <time>2020-11-06T13:24:56.975Z</time>
      </trkpt>
      <trkpt lat="46.30962" lon="6.1419">
        <ele>458</ele>
        <time>2020-11-06T13:24:57.976Z</time>
      </trkpt>
      <trkpt lat="46.30964" lon="6.14191">
        <ele>458</ele>
        <time>2020-11-06T13:24:58.976Z</time>
      </trkpt>
      <trkpt lat="46.30967" lon="6.14193">
        <ele>458</ele>
        <time>2020-11-06T13:24:59.975Z</time>
      </trkpt>
      <trkpt lat="46.3097" lon="6.14195">
        <ele>458</ele>
        <time>2020-11-06T13:25:00.976Z</time>
      </trkpt>
      <trkpt lat="46.30971" lon="6.14197">
        <ele>458</ele>
        <time>2020-11-06T13:25:01.976Z</time>
      </trkpt>
      <trkpt lat="46.30973" lon="6.14199">
        <ele>458</ele>
        <time>2020-11-06T13:25:02.975Z</time>
      </trkpt>
      <trkpt lat="46.30975" lon="6.142">
        <ele>458</ele>
        <time>2020-11-06T13:25:03.976Z</time>
      </trkpt>
      <trkpt lat="46.30977" lon="6.14201">
        <ele>458</ele>
        <time>2020-11-06T13:25:04.975Z</time>
      </trkpt>
      <trkpt lat="46.30979" lon="6.14203">
        <ele>458</ele>
        <time>2020-11-06T13:25:05.975Z</time>
      </trkpt>
      <trkpt lat="46.30981" lon="6.14204">
        <ele>458</ele>
        <time>2020-11-06T13:25:06.976Z</time>
      </trkpt>
      <trkpt lat="46.30982" lon="6.14206">
        <ele>458</ele>
        <time>2020-11-06T13:25:07.976Z</time>
      </trkpt>
      <trkpt lat="46.30983" lon="6.14208">
        <ele>458</ele>
        <time>2020-11-06T13:25:08.976Z</time>
      </trkpt>
      <trkpt lat="46.30985" lon="6.14211">
        <ele>458</ele>
        <time>2020-11-06T13:25:09.975Z</time>
      </trkpt>
      <trkpt lat="46.30987" lon="6.14213">
        <ele>458</ele>
        <time>2020-11-06T13:25:10.976Z</time>
      </trkpt>
      <trkpt lat="46.30988" lon="6.14214">
        <ele>457</ele>
        <time>2020-11-06T13:25:11.976Z</time>
      </trkpt>
      <trkpt lat="46.3099" lon="6.14216">
        <ele>456</ele>
        <time>2020-11-06T13:25:12.975Z</time>
      </trkpt>
      <trkpt lat="46.30992" lon="6.14217">
        <ele>455</ele>
        <time>2020-11-06T13:25:13.975Z</time>
      </trkpt>
      <trkpt lat="46.30994" lon="6.14219">
        <ele>454</ele>
        <time>2020-11-06T13:25:14.976Z</time>
      </trkpt>
      <trkpt lat="46.30996" lon="6.1422">
        <ele>453</ele>
        <time>2020-11-06T13:25:15.975Z</time>
      </trkpt>
      <trkpt lat="46.30998" lon="6.14222">
        <ele>453</ele>
        <time>2020-11-06T13:25:16.976Z</time>
      </trkpt>
      <trkpt lat="46.30999" lon="6.14223">
        <ele>452</ele>
        <time>2020-11-06T13:25:17.976Z</time>
      </trkpt>
      <trkpt lat="46.31" lon="6.14225">
        <ele>452</ele>
        <time>2020-11-06T13:25:18.975Z</time>
      </trkpt>
      <trkpt lat="46.31002" lon="6.14227">
        <ele>451</ele>
        <time>2020-11-06T13:25:19.976Z</time>
      </trkpt>
      <trkpt lat="46.31004" lon="6.1423">
        <ele>451</ele>
        <time>2020-11-06T13:25:20.975Z</time>
      </trkpt>
      <trkpt lat="46.31006" lon="6.14233">
        <ele>451</ele>
        <time>2020-11-06T13:25:21.976Z</time>
      </trkpt>
      <trkpt lat="46.31008" lon="6.14235">
        <ele>451</ele>
        <time>2020-11-06T13:25:22.976Z</time>
      </trkpt>
      <trkpt lat="46.3101" lon="6.14237">
        <ele>452</ele>
        <time>2020-11-06T13:25:23.975Z</time>
      </trkpt>
      <trkpt lat="46.31013" lon="6.1424">
        <ele>452</ele>
        <time>2020-11-06T13:25:24.976Z</time>
      </trkpt>
      <trkpt lat="46.31015" lon="6.14242">
        <ele>453</ele>
        <time>2020-11-06T13:25:25.976Z</time>
      </trkpt>
      <trkpt lat="46.31016" lon="6.14245">
        <ele>454</ele>
        <time>2020-11-06T13:25:26.975Z</time>
      </trkpt>
      <trkpt lat="46.31018" lon="6.14248">
        <ele>454</ele>
        <time>2020-11-06T13:25:27.976Z</time>
      </trkpt>
      <trkpt lat="46.3102" lon="6.1425">
        <ele>455</ele>
        <time>2020-11-06T13:25:28.975Z</time>
      </trkpt>
      <trkpt lat="46.31022" lon="6.14252">
        <ele>455</ele>
        <time>2020-11-06T13:25:29.975Z</time>
      </trkpt>
      <trkpt lat="46.31025" lon="6.14255">
        <ele>455</ele>
        <time>2020-11-06T13:25:30.976Z</time>
      </trkpt>
      <trkpt lat="46.31026" lon="6.14256">
        <ele>456</ele>
        <time>2020-11-06T13:25:31.976Z</time>
      </trkpt>
      <trkpt lat="46.31027" lon="6.14258">
        <ele>456</ele>
        <time>2020-11-06T13:25:32.976Z</time>
      </trkpt>
      <trkpt lat="46.31028" lon="6.14259">
        <ele>456</ele>
        <time>2020-11-06T13:25:33.975Z</time>
      </trkpt>
      <trkpt lat="46.31028" lon="6.1426">
        <ele>457</ele>
        <time>2020-11-06T13:25:34.976Z</time>
      </trkpt>
      <trkpt lat="46.31029" lon="6.14261">
        <ele>457</ele>
        <time>2020-11-06T13:25:35.976Z</time>
      </trkpt>
      <trkpt lat="46.31029" lon="6.14261">
        <ele>456</ele>
        <time>2020-11-06T13:25:36.976Z</time>
      </trkpt>
      <trkpt lat="46.31029" lon="6.14261">
        <ele>456</ele>
        <time>2020-11-06T13:25:37.975Z</time>
      </trkpt>
      <trkpt lat="46.3103" lon="6.14261">
        <ele>456</ele>
        <time>2020-11-06T13:25:38.975Z</time>
      </trkpt>
      <trkpt lat="46.3103" lon="6.1426">
        <ele>456</ele>
        <time>2020-11-06T13:25:39.975Z</time>
      </trkpt>
      <trkpt lat="46.31032" lon="6.14258">
        <ele>456</ele>
        <time>2020-11-06T13:25:40.976Z</time>
      </trkpt>
      <trkpt lat="46.31034" lon="6.14258">
        <ele>456</ele>
        <time>2020-11-06T13:25:41.976Z</time>
      </trkpt>
      <trkpt lat="46.31036" lon="6.14256">
        <ele>456</ele>
        <time>2020-11-06T13:25:42.976Z</time>
      </trkpt>
      <trkpt lat="46.31037" lon="6.14254">
        <ele>456</ele>
        <time>2020-11-06T13:25:43.975Z</time>
      </trkpt>
      <trkpt lat="46.31038" lon="6.14252">
        <ele>457</ele>
        <time>2020-11-06T13:25:44.976Z</time>
      </trkpt>
      <trkpt lat="46.31039" lon="6.14249">
        <ele>457</ele>
        <time>2020-11-06T13:25:45.975Z</time>
      </trkpt>
      <trkpt lat="46.31039" lon="6.14247">
        <ele>457</ele>
        <time>2020-11-06T13:25:46.975Z</time>
      </trkpt>
      <trkpt lat="46.31039" lon="6.14245">
        <ele>457</ele>
        <time>2020-11-06T13:25:47.975Z</time>
      </trkpt>
      <trkpt lat="46.31039" lon="6.14243">
        <ele>457</ele>
        <time>2020-11-06T13:25:48.976Z</time>
      </trkpt>
      <trkpt lat="46.3104" lon="6.14241">
        <ele>457</ele>
        <time>2020-11-06T13:25:49.976Z</time>
      </trkpt>
      <trkpt lat="46.31039" lon="6.14239">
        <ele>457</ele>
        <time>2020-11-06T13:25:50.976Z</time>
      </trkpt>
      <trkpt lat="46.3104" lon="6.14237">
        <ele>457</ele>
        <time>2020-11-06T13:25:51.975Z</time>
      </trkpt>
      <trkpt lat="46.3104" lon="6.14235">
        <ele>457</ele>
        <time>2020-11-06T13:25:52.976Z</time>
      </trkpt>
      <trkpt lat="46.31039" lon="6.14234">
        <ele>458</ele>
        <time>2020-11-06T13:25:53.976Z</time>
      </trkpt>
      <trkpt lat="46.31039" lon="6.14233">
        <ele>458</ele>
        <time>2020-11-06T13:25:54.975Z</time>
      </trkpt>
      <trkpt lat="46.31038" lon="6.14232">
        <ele>458</ele>
        <time>2020-11-06T13:25:55.976Z</time>
      </trkpt>
      <trkpt lat="46.31038" lon="6.1423">
        <ele>458</ele>
        <time>2020-11-06T13:25:56.976Z</time>
      </trkpt>
      <trkpt lat="46.31038" lon="6.14228">
        <ele>458</ele>
        <time>2020-11-06T13:25:57.975Z</time>
      </trkpt>
      <trkpt lat="46.31038" lon="6.14226">
        <ele>458</ele>
        <time>2020-11-06T13:25:58.976Z</time>
      </trkpt>
      <trkpt lat="46.31038" lon="6.14223">
        <ele>458</ele>
        <time>2020-11-06T13:25:59.976Z</time>
      </trkpt>
      <trkpt lat="46.31038" lon="6.1422">
        <ele>457</ele>
        <time>2020-11-06T13:26:00.976Z</time>
      </trkpt>
      <trkpt lat="46.31036" lon="6.14218">
        <ele>457</ele>
        <time>2020-11-06T13:26:01.975Z</time>
      </trkpt>
      <trkpt lat="46.31037" lon="6.14215">
        <ele>457</ele>
        <time>2020-11-06T13:26:02.975Z</time>
      </trkpt>
      <trkpt lat="46.31036" lon="6.14214">
        <ele>457</ele>
        <time>2020-11-06T13:26:03.975Z</time>
      </trkpt>
      <trkpt lat="46.31037" lon="6.14213">
        <ele>457</ele>
        <time>2020-11-06T13:26:04.976Z</time>
      </trkpt>
      <trkpt lat="46.31038" lon="6.14211">
        <ele>457</ele>
        <time>2020-11-06T13:26:05.976Z</time>
      </trkpt>
      <trkpt lat="46.31041" lon="6.14208">
        <ele>456</ele>
        <time>2020-11-06T13:26:06.976Z</time>
      </trkpt>
      <trkpt lat="46.31043" lon="6.14205">
        <ele>456</ele>
        <time>2020-11-06T13:26:07.975Z</time>
      </trkpt>
      <trkpt lat="46.31045" lon="6.14204">
        <ele>456</ele>
        <time>2020-11-06T13:26:08.975Z</time>
      </trkpt>
      <trkpt lat="46.31046" lon="6.14203">
        <ele>455</ele>
        <time>2020-11-06T13:26:09.975Z</time>
      </trkpt>
      <trkpt lat="46.31047" lon="6.14203">
        <ele>455</ele>
        <time>2020-11-06T13:26:10.975Z</time>
      </trkpt>
      <trkpt lat="46.31047" lon="6.14202">
        <ele>455</ele>
        <time>2020-11-06T13:26:11.976Z</time>
      </trkpt>
      <trkpt lat="46.31047" lon="6.14202">
        <ele>455</ele>
        <time>2020-11-06T13:26:12.976Z</time>
      </trkpt>
      <trkpt lat="46.31048" lon="6.14202">
        <ele>455</ele>
        <time>2020-11-06T13:26:13.976Z</time>
      </trkpt>
      <trkpt lat="46.31048" lon="6.14202">
        <ele>455</ele>
        <time>2020-11-06T13:26:14.976Z</time>
      </trkpt>
      <trkpt lat="46.31049" lon="6.14201">
        <ele>455</ele>
        <time>2020-11-06T13:26:15.976Z</time>
      </trkpt>
      <trkpt lat="46.3105" lon="6.142">
        <ele>455</ele>
        <time>2020-11-06T13:26:16.976Z</time>
      </trkpt>
      <trkpt lat="46.31051" lon="6.14199">
        <ele>455</ele>
        <time>2020-11-06T13:26:17.976Z</time>
      </trkpt>
      <trkpt lat="46.31052" lon="6.14198">
        <ele>455</ele>
        <time>2020-11-06T13:26:18.975Z</time>
      </trkpt>
      <trkpt lat="46.31053" lon="6.14196">
        <ele>456</ele>
        <time>2020-11-06T13:26:19.976Z</time>
      </trkpt>
      <trkpt lat="46.31053" lon="6.14195">
        <ele>456</ele>
        <time>2020-11-06T13:26:20.976Z</time>
      </trkpt>
      <trkpt lat="46.31054" lon="6.14195">
        <ele>457</ele>
        <time>2020-11-06T13:26:21.976Z</time>
      </trkpt>
      <trkpt lat="46.31054" lon="6.14194">
        <ele>457</ele>
        <time>2020-11-06T13:26:22.976Z</time>
      </trkpt>
      <trkpt lat="46.31056" lon="6.14193">
        <ele>458</ele>
        <time>2020-11-06T13:26:23.975Z</time>
      </trkpt>
      <trkpt lat="46.31057" lon="6.14191">
        <ele>458</ele>
        <time>2020-11-06T13:26:24.975Z</time>
      </trkpt>
      <trkpt lat="46.31057" lon="6.14189">
        <ele>458</ele>
        <time>2020-11-06T13:26:25.976Z</time>
      </trkpt>
      <trkpt lat="46.31056" lon="6.14188">
        <ele>458</ele>
        <time>2020-11-06T13:26:26.976Z</time>
      </trkpt>
      <trkpt lat="46.31055" lon="6.14187">
        <ele>457</ele>
        <time>2020-11-06T13:26:27.975Z</time>
      </trkpt>
      <trkpt lat="46.31055" lon="6.14186">
        <ele>457</ele>
        <time>2020-11-06T13:26:28.976Z</time>
      </trkpt>
      <trkpt lat="46.31055" lon="6.14185">
        <ele>456</ele>
        <time>2020-11-06T13:26:29.976Z</time>
      </trkpt>
      <trkpt lat="46.31055" lon="6.14185">
        <ele>456</ele>
        <time>2020-11-06T13:26:30.975Z</time>
      </trkpt>
      <trkpt lat="46.31055" lon="6.14184">
        <ele>455</ele>
        <time>2020-11-06T13:26:31.975Z</time>
      </trkpt>
      <trkpt lat="46.31056" lon="6.14183">
        <ele>455</ele>
        <time>2020-11-06T13:26:32.976Z</time>
      </trkpt>
      <trkpt lat="46.31057" lon="6.14182">
        <ele>455</ele>
        <time>2020-11-06T13:26:33.976Z</time>
      </trkpt>
      <trkpt lat="46.31058" lon="6.14182">
        <ele>454</ele>
        <time>2020-11-06T13:26:34.975Z</time>
      </trkpt>
      <trkpt lat="46.31058" lon="6.14182">
        <ele>454</ele>
        <time>2020-11-06T13:26:35.975Z</time>
      </trkpt>
      <trkpt lat="46.31058" lon="6.14182">
        <ele>454</ele>
        <time>2020-11-06T13:26:36.976Z</time>
      </trkpt>
      <trkpt lat="46.31058" lon="6.14181">
        <ele>455</ele>
        <time>2020-11-06T13:26:37.975Z</time>
      </trkpt>
      <trkpt lat="46.31058" lon="6.1418">
        <ele>455</ele>
        <time>2020-11-06T13:26:38.975Z</time>
      </trkpt>
      <trkpt lat="46.31058" lon="6.14179">
        <ele>455</ele>
        <time>2020-11-06T13:26:39.975Z</time>
      </trkpt>
      <trkpt lat="46.31057" lon="6.14177">
        <ele>455</ele>
        <time>2020-11-06T13:26:40.976Z</time>
      </trkpt>
      <trkpt lat="46.31056" lon="6.14176">
        <ele>454</ele>
        <time>2020-11-06T13:26:41.976Z</time>
      </trkpt>
      <trkpt lat="46.31056" lon="6.14175">
        <ele>454</ele>
        <time>2020-11-06T13:26:42.976Z</time>
      </trkpt>
      <trkpt lat="46.31057" lon="6.14174">
        <ele>455</ele>
        <time>2020-11-06T13:26:43.976Z</time>
      </trkpt>
      <trkpt lat="46.31057" lon="6.14172">
        <ele>455</ele>
        <time>2020-11-06T13:26:44.976Z</time>
      </trkpt>
      <trkpt lat="46.31057" lon="6.1417">
        <ele>456</ele>
        <time>2020-11-06T13:26:45.975Z</time>
      </trkpt>
      <trkpt lat="46.31058" lon="6.14167">
        <ele>457</ele>
        <time>2020-11-06T13:26:46.976Z</time>
      </trkpt>
      <trkpt lat="46.31058" lon="6.14165">
        <ele>458</ele>
        <time>2020-11-06T13:26:47.975Z</time>
      </trkpt>
      <trkpt lat="46.31059" lon="6.14163">
        <ele>458</ele>
        <time>2020-11-06T13:26:48.976Z</time>
      </trkpt>
      <trkpt lat="46.31059" lon="6.14161">
        <ele>458</ele>
        <time>2020-11-06T13:26:49.976Z</time>
      </trkpt>
      <trkpt lat="46.3106" lon="6.14157">
        <ele>458</ele>
        <time>2020-11-06T13:26:50.976Z</time>
      </trkpt>
      <trkpt lat="46.31061" lon="6.14154">
        <ele>458</ele>
        <time>2020-11-06T13:26:51.975Z</time>
      </trkpt>
      <trkpt lat="46.31062" lon="6.1415">
        <ele>457</ele>
        <time>2020-11-06T13:26:52.976Z</time>
      </trkpt>
      <trkpt lat="46.31063" lon="6.14147">
        <ele>457</ele>
        <time>2020-11-06T13:26:53.975Z</time>
      </trkpt>
      <trkpt lat="46.31063" lon="6.14144">
        <ele>456</ele>
        <time>2020-11-06T13:26:54.976Z</time>
      </trkpt>
      <trkpt lat="46.31063" lon="6.14142">
        <ele>455</ele>
        <time>2020-11-06T13:26:55.976Z</time>
      </trkpt>
      <trkpt lat="46.31062" lon="6.1414">
        <ele>454</ele>
        <time>2020-11-06T13:26:56.976Z</time>
      </trkpt>
      <trkpt lat="46.31062" lon="6.14138">
        <ele>453</ele>
        <time>2020-11-06T13:26:57.976Z</time>
      </trkpt>
      <trkpt lat="46.31062" lon="6.14134">
        <ele>452</ele>
        <time>2020-11-06T13:26:58.976Z</time>
      </trkpt>
      <trkpt lat="46.31063" lon="6.14133">
        <ele>451</ele>
        <time>2020-11-06T13:26:59.976Z</time>
      </trkpt>
      <trkpt lat="46.31064" lon="6.14132">
        <ele>451</ele>
        <time>2020-11-06T13:27:00.975Z</time>
      </trkpt>
      <trkpt lat="46.31064" lon="6.14132">
        <ele>451</ele>
        <time>2020-11-06T13:27:01.976Z</time>
      </trkpt>
      <trkpt lat="46.31065" lon="6.14132">
        <ele>451</ele>
        <time>2020-11-06T13:27:02.976Z</time>
      </trkpt>
      <trkpt lat="46.31067" lon="6.14131">
        <ele>451</ele>
        <time>2020-11-06T13:27:03.976Z</time>
      </trkpt>
      <trkpt lat="46.31068" lon="6.1413">
        <ele>451</ele>
        <time>2020-11-06T13:27:04.976Z</time>
      </trkpt>
      <trkpt lat="46.31069" lon="6.14129">
        <ele>452</ele>
        <time>2020-11-06T13:27:05.976Z</time>
      </trkpt>
      <trkpt lat="46.31069" lon="6.1413">
        <ele>452</ele>
        <time>2020-11-06T13:27:06.976Z</time>
      </trkpt>
      <trkpt lat="46.3107" lon="6.14129">
        <ele>453</ele>
        <time>2020-11-06T13:27:07.975Z</time>
      </trkpt>
      <trkpt lat="46.31072" lon="6.14128">
        <ele>454</ele>
        <time>2020-11-06T13:27:08.976Z</time>
      </trkpt>
      <trkpt lat="46.31073" lon="6.14128">
        <ele>455</ele>
        <time>2020-11-06T13:27:09.976Z</time>
      </trkpt>
      <trkpt lat="46.31075" lon="6.14129">
        <ele>455</ele>
        <time>2020-11-06T13:27:10.976Z</time>
      </trkpt>
      <trkpt lat="46.31078" lon="6.14129">
        <ele>457</ele>
        <time>2020-11-06T13:27:11.976Z</time>
      </trkpt>
      <trkpt lat="46.3108" lon="6.14129">
        <ele>458</ele>
        <time>2020-11-06T13:27:12.976Z</time>
      </trkpt>
      <trkpt lat="46.31084" lon="6.14128">
        <ele>460</ele>
        <time>2020-11-06T13:27:13.975Z</time>
      </trkpt>
      <trkpt lat="46.31088" lon="6.14127">
        <ele>461</ele>
        <time>2020-11-06T13:27:14.975Z</time>
      </trkpt>
      <trkpt lat="46.31092" lon="6.14124">
        <ele>463</ele>
        <time>2020-11-06T13:27:15.976Z</time>
      </trkpt>
      <trkpt lat="46.31095" lon="6.14122">
        <ele>464</ele>
        <time>2020-11-06T13:27:16.976Z</time>
      </trkpt>
      <trkpt lat="46.31097" lon="6.14121">
        <ele>465</ele>
        <time>2020-11-06T13:27:17.976Z</time>
      </trkpt>
      <trkpt lat="46.31099" lon="6.14119">
        <ele>466</ele>
        <time>2020-11-06T13:27:18.975Z</time>
      </trkpt>
      <trkpt lat="46.31103" lon="6.14116">
        <ele>466</ele>
        <time>2020-11-06T13:27:19.976Z</time>
      </trkpt>
      <trkpt lat="46.31106" lon="6.14113">
        <ele>467</ele>
        <time>2020-11-06T13:27:20.976Z</time>
      </trkpt>
      <trkpt lat="46.31109" lon="6.1411">
        <ele>469</ele>
        <time>2020-11-06T13:27:21.975Z</time>
      </trkpt>
      <trkpt lat="46.31111" lon="6.14107">
        <ele>470</ele>
        <time>2020-11-06T13:27:22.976Z</time>
      </trkpt>
      <trkpt lat="46.31113" lon="6.14104">
        <ele>470</ele>
        <time>2020-11-06T13:27:23.975Z</time>
      </trkpt>
      <trkpt lat="46.31114" lon="6.14102">
        <ele>471</ele>
        <time>2020-11-06T13:27:24.976Z</time>
      </trkpt>
      <trkpt lat="46.31116" lon="6.141">
        <ele>472</ele>
        <time>2020-11-06T13:27:25.976Z</time>
      </trkpt>
      <trkpt lat="46.31117" lon="6.14098">
        <ele>472</ele>
        <time>2020-11-06T13:27:26.976Z</time>
      </trkpt>
      <trkpt lat="46.31118" lon="6.14095">
        <ele>472</ele>
        <time>2020-11-06T13:27:27.975Z</time>
      </trkpt>
      <trkpt lat="46.3112" lon="6.14092">
        <ele>472</ele>
        <time>2020-11-06T13:27:28.976Z</time>
      </trkpt>
      <trkpt lat="46.31121" lon="6.14089">
        <ele>472</ele>
        <time>2020-11-06T13:27:29.976Z</time>
      </trkpt>
      <trkpt lat="46.31121" lon="6.14087">
        <ele>472</ele>
        <time>2020-11-06T13:27:30.976Z</time>
      </trkpt>
      <trkpt lat="46.31122" lon="6.14085">
        <ele>472</ele>
        <time>2020-11-06T13:27:31.976Z</time>
      </trkpt>
      <trkpt lat="46.31124" lon="6.14084">
        <ele>472</ele>
        <time>2020-11-06T13:27:32.975Z</time>
      </trkpt>
      <trkpt lat="46.31126" lon="6.14083">
        <ele>472</ele>
        <time>2020-11-06T13:27:33.976Z</time>
      </trkpt>
      <trkpt lat="46.31128" lon="6.14082">
        <ele>472</ele>
        <time>2020-11-06T13:27:34.975Z</time>
      </trkpt>
      <trkpt lat="46.31131" lon="6.14081">
        <ele>472</ele>
        <time>2020-11-06T13:27:35.975Z</time>
      </trkpt>
      <trkpt lat="46.31134" lon="6.14079">
        <ele>472</ele>
        <time>2020-11-06T13:27:36.975Z</time>
      </trkpt>
      <trkpt lat="46.31136" lon="6.14078">
        <ele>471</ele>
        <time>2020-11-06T13:27:37.975Z</time>
      </trkpt>
      <trkpt lat="46.31138" lon="6.14077">
        <ele>471</ele>
        <time>2020-11-06T13:27:38.975Z</time>
      </trkpt>
      <trkpt lat="46.3114" lon="6.14076">
        <ele>471</ele>
        <time>2020-11-06T13:27:39.975Z</time>
      </trkpt>
      <trkpt lat="46.31142" lon="6.14074">
        <ele>470</ele>
        <time>2020-11-06T13:27:40.976Z</time>
      </trkpt>
      <trkpt lat="46.31145" lon="6.14073">
        <ele>470</ele>
        <time>2020-11-06T13:27:41.976Z</time>
      </trkpt>
      <trkpt lat="46.31147" lon="6.14072">
        <ele>470</ele>
        <time>2020-11-06T13:27:42.976Z</time>
      </trkpt>
      <trkpt lat="46.31149" lon="6.1407">
        <ele>470</ele>
        <time>2020-11-06T13:27:43.976Z</time>
      </trkpt>
      <trkpt lat="46.31151" lon="6.14069">
        <ele>469</ele>
        <time>2020-11-06T13:27:44.976Z</time>
      </trkpt>
      <trkpt lat="46.31153" lon="6.14067">
        <ele>469</ele>
        <time>2020-11-06T13:27:45.976Z</time>
      </trkpt>
      <trkpt lat="46.31155" lon="6.14066">
        <ele>468</ele>
        <time>2020-11-06T13:27:46.975Z</time>
      </trkpt>
      <trkpt lat="46.31156" lon="6.14065">
        <ele>468</ele>
        <time>2020-11-06T13:27:47.976Z</time>
      </trkpt>
      <trkpt lat="46.31157" lon="6.14063">
        <ele>468</ele>
        <time>2020-11-06T13:27:48.975Z</time>
      </trkpt>
      <trkpt lat="46.31158" lon="6.14061">
        <ele>468</ele>
        <time>2020-11-06T13:27:49.976Z</time>
      </trkpt>
      <trkpt lat="46.31161" lon="6.1406">
        <ele>467</ele>
        <time>2020-11-06T13:27:50.976Z</time>
      </trkpt>
      <trkpt lat="46.31162" lon="6.1406">
        <ele>467</ele>
        <time>2020-11-06T13:27:51.976Z</time>
      </trkpt>
      <trkpt lat="46.31164" lon="6.14059">
        <ele>467</ele>
        <time>2020-11-06T13:27:52.976Z</time>
      </trkpt>
      <trkpt lat="46.31165" lon="6.14059">
        <ele>467</ele>
        <time>2020-11-06T13:27:53.975Z</time>
      </trkpt>
      <trkpt lat="46.31167" lon="6.14058">
        <ele>467</ele>
        <time>2020-11-06T13:27:54.976Z</time>
      </trkpt>
      <trkpt lat="46.31169" lon="6.14058">
        <ele>467</ele>
        <time>2020-11-06T13:27:55.975Z</time>
      </trkpt>
      <trkpt lat="46.3117" lon="6.14057">
        <ele>467</ele>
        <time>2020-11-06T13:27:56.976Z</time>
      </trkpt>
      <trkpt lat="46.31171" lon="6.14057">
        <ele>467</ele>
        <time>2020-11-06T13:27:57.976Z</time>
      </trkpt>
      <trkpt lat="46.31173" lon="6.14056">
        <ele>467</ele>
        <time>2020-11-06T13:27:58.975Z</time>
      </trkpt>
      <trkpt lat="46.31174" lon="6.14055">
        <ele>467</ele>
        <time>2020-11-06T13:27:59.975Z</time>
      </trkpt>
      <trkpt lat="46.31176" lon="6.14054">
        <ele>467</ele>
        <time>2020-11-06T13:28:00.975Z</time>
      </trkpt>
      <trkpt lat="46.31177" lon="6.14052">
        <ele>467</ele>
        <time>2020-11-06T13:28:01.976Z</time>
      </trkpt>
      <trkpt lat="46.31178" lon="6.14051">
        <ele>466</ele>
        <time>2020-11-06T13:28:02.976Z</time>
      </trkpt>
      <trkpt lat="46.31179" lon="6.1405">
        <ele>466</ele>
        <time>2020-11-06T13:28:03.976Z</time>
      </trkpt>
      <trkpt lat="46.31181" lon="6.14049">
        <ele>466</ele>
        <time>2020-11-06T13:28:04.975Z</time>
      </trkpt>
      <trkpt lat="46.31183" lon="6.14048">
        <ele>466</ele>
        <time>2020-11-06T13:28:05.976Z</time>
      </trkpt>
      <trkpt lat="46.31184" lon="6.14047">
        <ele>466</ele>
        <time>2020-11-06T13:28:06.976Z</time>
      </trkpt>
      <trkpt lat="46.31185" lon="6.14046">
        <ele>466</ele>
        <time>2020-11-06T13:28:07.975Z</time>
      </trkpt>
      <trkpt lat="46.31186" lon="6.14045">
        <ele>466</ele>
        <time>2020-11-06T13:28:08.975Z</time>
      </trkpt>
      <trkpt lat="46.31187" lon="6.14044">
        <ele>466</ele>
        <time>2020-11-06T13:28:09.975Z</time>
      </trkpt>
      <trkpt lat="46.31188" lon="6.14043">
        <ele>466</ele>
        <time>2020-11-06T13:28:10.975Z</time>
      </trkpt>
      <trkpt lat="46.31188" lon="6.14041">
        <ele>467</ele>
        <time>2020-11-06T13:28:11.975Z</time>
      </trkpt>
      <trkpt lat="46.31189" lon="6.14038">
        <ele>467</ele>
        <time>2020-11-06T13:28:12.975Z</time>
      </trkpt>
      <trkpt lat="46.31191" lon="6.14036">
        <ele>467</ele>
        <time>2020-11-06T13:28:13.975Z</time>
      </trkpt>
      <trkpt lat="46.31195" lon="6.14032">
        <ele>467</ele>
        <time>2020-11-06T13:28:14.976Z</time>
      </trkpt>
      <trkpt lat="46.31197" lon="6.14029">
        <ele>467</ele>
        <time>2020-11-06T13:28:15.976Z</time>
      </trkpt>
      <trkpt lat="46.31199" lon="6.14025">
        <ele>467</ele>
        <time>2020-11-06T13:28:16.976Z</time>
      </trkpt>
      <trkpt lat="46.31202" lon="6.14022">
        <ele>467</ele>
        <time>2020-11-06T13:28:17.975Z</time>
      </trkpt>
      <trkpt lat="46.31204" lon="6.14019">
        <ele>467</ele>
        <time>2020-11-06T13:28:18.975Z</time>
      </trkpt>
      <trkpt lat="46.31207" lon="6.14016">
        <ele>467</ele>
        <time>2020-11-06T13:28:19.975Z</time>
      </trkpt>
      <trkpt lat="46.31208" lon="6.14013">
        <ele>466</ele>
        <time>2020-11-06T13:28:20.975Z</time>
      </trkpt>
      <trkpt lat="46.31209" lon="6.14009">
        <ele>466</ele>
        <time>2020-11-06T13:28:21.975Z</time>
      </trkpt>
      <trkpt lat="46.3121" lon="6.14006">
        <ele>465</ele>
        <time>2020-11-06T13:28:22.975Z</time>
      </trkpt>
      <trkpt lat="46.31211" lon="6.14004">
        <ele>465</ele>
        <time>2020-11-06T13:28:23.975Z</time>
      </trkpt>
      <trkpt lat="46.31212" lon="6.14003">
        <ele>464</ele>
        <time>2020-11-06T13:28:24.976Z</time>
      </trkpt>
      <trkpt lat="46.31213" lon="6.14003">
        <ele>464</ele>
        <time>2020-11-06T13:28:25.976Z</time>
      </trkpt>
      <trkpt lat="46.31214" lon="6.14005">
        <ele>464</ele>
        <time>2020-11-06T13:28:26.975Z</time>
      </trkpt>
      <trkpt lat="46.31215" lon="6.14006">
        <ele>464</ele>
        <time>2020-11-06T13:28:27.975Z</time>
      </trkpt>
      <trkpt lat="46.31217" lon="6.14008">
        <ele>464</ele>
        <time>2020-11-06T13:28:28.975Z</time>
      </trkpt>
      <trkpt lat="46.31219" lon="6.1401">
        <ele>464</ele>
        <time>2020-11-06T13:28:29.975Z</time>
      </trkpt>
      <trkpt lat="46.3122" lon="6.14012">
        <ele>463</ele>
        <time>2020-11-06T13:28:30.975Z</time>
      </trkpt>
      <trkpt lat="46.31221" lon="6.14014">
        <ele>463</ele>
        <time>2020-11-06T13:28:31.975Z</time>
      </trkpt>
      <trkpt lat="46.31223" lon="6.14016">
        <ele>463</ele>
        <time>2020-11-06T13:28:32.975Z</time>
      </trkpt>
      <trkpt lat="46.31224" lon="6.14018">
        <ele>463</ele>
        <time>2020-11-06T13:28:33.975Z</time>
      </trkpt>
      <trkpt lat="46.31227" lon="6.14021">
        <ele>463</ele>
        <time>2020-11-06T13:28:34.976Z</time>
      </trkpt>
      <trkpt lat="46.31229" lon="6.14024">
        <ele>463</ele>
        <time>2020-11-06T13:28:35.975Z</time>
      </trkpt>
      <trkpt lat="46.31231" lon="6.14026">
        <ele>463</ele>
        <time>2020-11-06T13:28:36.975Z</time>
      </trkpt>
      <trkpt lat="46.31233" lon="6.14029">
        <ele>463</ele>
        <time>2020-11-06T13:28:37.975Z</time>
      </trkpt>
      <trkpt lat="46.31235" lon="6.14031">
        <ele>463</ele>
        <time>2020-11-06T13:28:38.975Z</time>
      </trkpt>
      <trkpt lat="46.31237" lon="6.14034">
        <ele>463</ele>
        <time>2020-11-06T13:28:39.975Z</time>
      </trkpt>
      <trkpt lat="46.3124" lon="6.14036">
        <ele>463</ele>
        <time>2020-11-06T13:28:40.975Z</time>
      </trkpt>
      <trkpt lat="46.31242" lon="6.14039">
        <ele>463</ele>
        <time>2020-11-06T13:28:41.976Z</time>
      </trkpt>
      <trkpt lat="46.31244" lon="6.14041">
        <ele>463</ele>
        <time>2020-11-06T13:28:42.975Z</time>
      </trkpt>
      <trkpt lat="46.31246" lon="6.14043">
        <ele>463</ele>
        <time>2020-11-06T13:28:43.976Z</time>
      </trkpt>
      <trkpt lat="46.31248" lon="6.14043">
        <ele>463</ele>
        <time>2020-11-06T13:28:44.976Z</time>
      </trkpt>
      <trkpt lat="46.31251" lon="6.14043">
        <ele>463</ele>
        <time>2020-11-06T13:28:45.975Z</time>
      </trkpt>
      <trkpt lat="46.31253" lon="6.14043">
        <ele>463</ele>
        <time>2020-11-06T13:28:46.976Z</time>
      </trkpt>
      <trkpt lat="46.31254" lon="6.14042">
        <ele>463</ele>
        <time>2020-11-06T13:28:47.975Z</time>
      </trkpt>
      <trkpt lat="46.31258" lon="6.1404">
        <ele>463</ele>
        <time>2020-11-06T13:28:48.976Z</time>
      </trkpt>
      <trkpt lat="46.31261" lon="6.14038">
        <ele>463</ele>
        <time>2020-11-06T13:28:49.976Z</time>
      </trkpt>
      <trkpt lat="46.31263" lon="6.14036">
        <ele>462</ele>
        <time>2020-11-06T13:28:50.975Z</time>
      </trkpt>
      <trkpt lat="46.31266" lon="6.14034">
        <ele>462</ele>
        <time>2020-11-06T13:28:51.975Z</time>
      </trkpt>
      <trkpt lat="46.31269" lon="6.14031">
        <ele>462</ele>
        <time>2020-11-06T13:28:52.976Z</time>
      </trkpt>
      <trkpt lat="46.31272" lon="6.14028">
        <ele>461</ele>
        <time>2020-11-06T13:28:53.976Z</time>
      </trkpt>
      <trkpt lat="46.31273" lon="6.14024">
        <ele>460</ele>
        <time>2020-11-06T13:28:54.975Z</time>
      </trkpt>
      <trkpt lat="46.31275" lon="6.1402">
        <ele>459</ele>
        <time>2020-11-06T13:28:55.976Z</time>
      </trkpt>
      <trkpt lat="46.31277" lon="6.14016">
        <ele>458</ele>
        <time>2020-11-06T13:28:56.976Z</time>
      </trkpt>
      <trkpt lat="46.31279" lon="6.14013">
        <ele>457</ele>
        <time>2020-11-06T13:28:57.975Z</time>
      </trkpt>
      <trkpt lat="46.31281" lon="6.1401">
        <ele>457</ele>
        <time>2020-11-06T13:28:58.976Z</time>
      </trkpt>
      <trkpt lat="46.31282" lon="6.14007">
        <ele>457</ele>
        <time>2020-11-06T13:28:59.976Z</time>
      </trkpt>
      <trkpt lat="46.31283" lon="6.14004">
        <ele>457</ele>
        <time>2020-11-06T13:29:00.975Z</time>
      </trkpt>
      <trkpt lat="46.31285" lon="6.14">
        <ele>457</ele>
        <time>2020-11-06T13:29:01.976Z</time>
      </trkpt>
      <trkpt lat="46.31286" lon="6.13997">
        <ele>457</ele>
        <time>2020-11-06T13:29:02.976Z</time>
      </trkpt>
      <trkpt lat="46.31288" lon="6.13993">
        <ele>457</ele>
        <time>2020-11-06T13:29:03.975Z</time>
      </trkpt>
      <trkpt lat="46.31291" lon="6.1399">
        <ele>457</ele>
        <time>2020-11-06T13:29:04.975Z</time>
      </trkpt>
      <trkpt lat="46.31294" lon="6.13987">
        <ele>458</ele>
        <time>2020-11-06T13:29:05.976Z</time>
      </trkpt>
      <trkpt lat="46.31297" lon="6.13984">
        <ele>458</ele>
        <time>2020-11-06T13:29:06.976Z</time>
      </trkpt>
      <trkpt lat="46.31299" lon="6.13981">
        <ele>458</ele>
        <time>2020-11-06T13:29:07.975Z</time>
      </trkpt>
      <trkpt lat="46.313" lon="6.13978">
        <ele>458</ele>
        <time>2020-11-06T13:29:08.976Z</time>
      </trkpt>
      <trkpt lat="46.31301" lon="6.13975">
        <ele>458</ele>
        <time>2020-11-06T13:29:09.976Z</time>
      </trkpt>
      <trkpt lat="46.31302" lon="6.13973">
        <ele>458</ele>
        <time>2020-11-06T13:29:10.976Z</time>
      </trkpt>
      <trkpt lat="46.31304" lon="6.1397">
        <ele>459</ele>
        <time>2020-11-06T13:29:11.975Z</time>
      </trkpt>
      <trkpt lat="46.31305" lon="6.13967">
        <ele>459</ele>
        <time>2020-11-06T13:29:12.975Z</time>
      </trkpt>
      <trkpt lat="46.31307" lon="6.13963">
        <ele>459</ele>
        <time>2020-11-06T13:29:13.976Z</time>
      </trkpt>
      <trkpt lat="46.31308" lon="6.1396">
        <ele>459</ele>
        <time>2020-11-06T13:29:14.976Z</time>
      </trkpt>
      <trkpt lat="46.31309" lon="6.13958">
        <ele>459</ele>
        <time>2020-11-06T13:29:15.976Z</time>
      </trkpt>
      <trkpt lat="46.31311" lon="6.13956">
        <ele>459</ele>
        <time>2020-11-06T13:29:16.976Z</time>
      </trkpt>
      <trkpt lat="46.31312" lon="6.13953">
        <ele>459</ele>
        <time>2020-11-06T13:29:17.975Z</time>
      </trkpt>
      <trkpt lat="46.31314" lon="6.1395">
        <ele>459</ele>
        <time>2020-11-06T13:29:18.975Z</time>
      </trkpt>
      <trkpt lat="46.31315" lon="6.13947">
        <ele>459</ele>
        <time>2020-11-06T13:29:19.976Z</time>
      </trkpt>
      <trkpt lat="46.31316" lon="6.13944">
        <ele>459</ele>
        <time>2020-11-06T13:29:20.975Z</time>
      </trkpt>
      <trkpt lat="46.31317" lon="6.13941">
        <ele>459</ele>
        <time>2020-11-06T13:29:21.975Z</time>
      </trkpt>
      <trkpt lat="46.31319" lon="6.13938">
        <ele>459</ele>
        <time>2020-11-06T13:29:22.975Z</time>
      </trkpt>
      <trkpt lat="46.31321" lon="6.13936">
        <ele>460</ele>
        <time>2020-11-06T13:29:23.976Z</time>
      </trkpt>
      <trkpt lat="46.31322" lon="6.13933">
        <ele>460</ele>
        <time>2020-11-06T13:29:24.975Z</time>
      </trkpt>
      <trkpt lat="46.31323" lon="6.13932">
        <ele>460</ele>
        <time>2020-11-06T13:29:25.976Z</time>
      </trkpt>
      <trkpt lat="46.31325" lon="6.1393">
        <ele>460</ele>
        <time>2020-11-06T13:29:26.976Z</time>
      </trkpt>
      <trkpt lat="46.31327" lon="6.13928">
        <ele>460</ele>
        <time>2020-11-06T13:29:27.976Z</time>
      </trkpt>
      <trkpt lat="46.31328" lon="6.13925">
        <ele>460</ele>
        <time>2020-11-06T13:29:28.975Z</time>
      </trkpt>
      <trkpt lat="46.3133" lon="6.13922">
        <ele>460</ele>
        <time>2020-11-06T13:29:29.976Z</time>
      </trkpt>
      <trkpt lat="46.31331" lon="6.13919">
        <ele>459</ele>
        <time>2020-11-06T13:29:30.976Z</time>
      </trkpt>
      <trkpt lat="46.31332" lon="6.13916">
        <ele>459</ele>
        <time>2020-11-06T13:29:31.976Z</time>
      </trkpt>
      <trkpt lat="46.31333" lon="6.13914">
        <ele>459</ele>
        <time>2020-11-06T13:29:32.976Z</time>
      </trkpt>
      <trkpt lat="46.31334" lon="6.13911">
        <ele>459</ele>
        <time>2020-11-06T13:29:33.975Z</time>
      </trkpt>
      <trkpt lat="46.31335" lon="6.13908">
        <ele>459</ele>
        <time>2020-11-06T13:29:34.976Z</time>
      </trkpt>
      <trkpt lat="46.31336" lon="6.13906">
        <ele>459</ele>
        <time>2020-11-06T13:29:35.975Z</time>
      </trkpt>
      <trkpt lat="46.31337" lon="6.13904">
        <ele>459</ele>
        <time>2020-11-06T13:29:36.976Z</time>
      </trkpt>
      <trkpt lat="46.31338" lon="6.13901">
        <ele>459</ele>
        <time>2020-11-06T13:29:37.976Z</time>
      </trkpt>
      <trkpt lat="46.31339" lon="6.13898">
        <ele>459</ele>
        <time>2020-11-06T13:29:38.975Z</time>
      </trkpt>
      <trkpt lat="46.31341" lon="6.13895">
        <ele>459</ele>
        <time>2020-11-06T13:29:39.976Z</time>
      </trkpt>
      <trkpt lat="46.31342" lon="6.13893">
        <ele>458</ele>
        <time>2020-11-06T13:29:40.976Z</time>
      </trkpt>
      <trkpt lat="46.31343" lon="6.1389">
        <ele>458</ele>
        <time>2020-11-06T13:29:41.976Z</time>
      </trkpt>
      <trkpt lat="46.31344" lon="6.13887">
        <ele>458</ele>
        <time>2020-11-06T13:29:42.976Z</time>
      </trkpt>
      <trkpt lat="46.31345" lon="6.13884">
        <ele>458</ele>
        <time>2020-11-06T13:29:43.975Z</time>
      </trkpt>
      <trkpt lat="46.31346" lon="6.13882">
        <ele>458</ele>
        <time>2020-11-06T13:29:44.976Z</time>
      </trkpt>
      <trkpt lat="46.31348" lon="6.13879">
        <ele>458</ele>
        <time>2020-11-06T13:29:45.976Z</time>
      </trkpt>
      <trkpt lat="46.31349" lon="6.13877">
        <ele>458</ele>
        <time>2020-11-06T13:29:46.975Z</time>
      </trkpt>
      <trkpt lat="46.3135" lon="6.13874">
        <ele>458</ele>
        <time>2020-11-06T13:29:47.975Z</time>
      </trkpt>
      <trkpt lat="46.31351" lon="6.13871">
        <ele>458</ele>
        <time>2020-11-06T13:29:48.976Z</time>
      </trkpt>
      <trkpt lat="46.31352" lon="6.13868">
        <ele>458</ele>
        <time>2020-11-06T13:29:49.975Z</time>
      </trkpt>
      <trkpt lat="46.31354" lon="6.13866">
        <ele>457</ele>
        <time>2020-11-06T13:29:50.976Z</time>
      </trkpt>
      <trkpt lat="46.31355" lon="6.13863">
        <ele>457</ele>
        <time>2020-11-06T13:29:51.976Z</time>
      </trkpt>
      <trkpt lat="46.31356" lon="6.1386">
        <ele>457</ele>
        <time>2020-11-06T13:29:52.976Z</time>
      </trkpt>
      <trkpt lat="46.31357" lon="6.13858">
        <ele>457</ele>
        <time>2020-11-06T13:29:53.976Z</time>
      </trkpt>
      <trkpt lat="46.31358" lon="6.13855">
        <ele>457</ele>
        <time>2020-11-06T13:29:54.976Z</time>
      </trkpt>
      <trkpt lat="46.3136" lon="6.13852">
        <ele>457</ele>
        <time>2020-11-06T13:29:55.976Z</time>
      </trkpt>
      <trkpt lat="46.31361" lon="6.13849">
        <ele>456</ele>
        <time>2020-11-06T13:29:56.976Z</time>
      </trkpt>
      <trkpt lat="46.31362" lon="6.13846">
        <ele>456</ele>
        <time>2020-11-06T13:29:57.975Z</time>
      </trkpt>
      <trkpt lat="46.31363" lon="6.13843">
        <ele>456</ele>
        <time>2020-11-06T13:29:58.976Z</time>
      </trkpt>
      <trkpt lat="46.31364" lon="6.1384">
        <ele>456</ele>
        <time>2020-11-06T13:29:59.976Z</time>
      </trkpt>
      <trkpt lat="46.31365" lon="6.13838">
        <ele>456</ele>
        <time>2020-11-06T13:30:00.976Z</time>
      </trkpt>
      <trkpt lat="46.31367" lon="6.13834">
        <ele>456</ele>
        <time>2020-11-06T13:30:01.976Z</time>
      </trkpt>
      <trkpt lat="46.31368" lon="6.13832">
        <ele>456</ele>
        <time>2020-11-06T13:30:02.975Z</time>
      </trkpt>
      <trkpt lat="46.31369" lon="6.13829">
        <ele>456</ele>
        <time>2020-11-06T13:30:03.975Z</time>
      </trkpt>
      <trkpt lat="46.31371" lon="6.13826">
        <ele>457</ele>
        <time>2020-11-06T13:30:04.976Z</time>
      </trkpt>
      <trkpt lat="46.31372" lon="6.13824">
        <ele>457</ele>
        <time>2020-11-06T13:30:05.975Z</time>
      </trkpt>
      <trkpt lat="46.31373" lon="6.13821">
        <ele>458</ele>
        <time>2020-11-06T13:30:06.975Z</time>
      </trkpt>
      <trkpt lat="46.31374" lon="6.13819">
        <ele>458</ele>
        <time>2020-11-06T13:30:07.975Z</time>
      </trkpt>
      <trkpt lat="46.31375" lon="6.13816">
        <ele>458</ele>
        <time>2020-11-06T13:30:08.975Z</time>
      </trkpt>
      <trkpt lat="46.31377" lon="6.13814">
        <ele>458</ele>
        <time>2020-11-06T13:30:09.975Z</time>
      </trkpt>
      <trkpt lat="46.31378" lon="6.13811">
        <ele>459</ele>
        <time>2020-11-06T13:30:10.975Z</time>
      </trkpt>
      <trkpt lat="46.31379" lon="6.13808">
        <ele>459</ele>
        <time>2020-11-06T13:30:11.975Z</time>
      </trkpt>
      <trkpt lat="46.3138" lon="6.13806">
        <ele>459</ele>
        <time>2020-11-06T13:30:12.975Z</time>
      </trkpt>
      <trkpt lat="46.31381" lon="6.13802">
        <ele>459</ele>
        <time>2020-11-06T13:30:13.975Z</time>
      </trkpt>
      <trkpt lat="46.31383" lon="6.138">
        <ele>459</ele>
        <time>2020-11-06T13:30:14.976Z</time>
      </trkpt>
      <trkpt lat="46.31384" lon="6.13797">
        <ele>459</ele>
        <time>2020-11-06T13:30:15.976Z</time>
      </trkpt>
      <trkpt lat="46.31385" lon="6.13794">
        <ele>459</ele>
        <time>2020-11-06T13:30:16.976Z</time>
      </trkpt>
      <trkpt lat="46.31387" lon="6.13791">
        <ele>459</ele>
        <time>2020-11-06T13:30:17.976Z</time>
      </trkpt>
      <trkpt lat="46.31388" lon="6.13789">
        <ele>459</ele>
        <time>2020-11-06T13:30:18.976Z</time>
      </trkpt>
      <trkpt lat="46.31389" lon="6.13786">
        <ele>458</ele>
        <time>2020-11-06T13:30:19.975Z</time>
      </trkpt>
      <trkpt lat="46.3139" lon="6.13783">
        <ele>458</ele>
        <time>2020-11-06T13:30:20.976Z</time>
      </trkpt>
      <trkpt lat="46.31392" lon="6.1378">
        <ele>458</ele>
        <time>2020-11-06T13:30:21.975Z</time>
      </trkpt>
      <trkpt lat="46.31393" lon="6.13778">
        <ele>458</ele>
        <time>2020-11-06T13:30:22.976Z</time>
      </trkpt>
      <trkpt lat="46.31394" lon="6.13774">
        <ele>457</ele>
        <time>2020-11-06T13:30:23.976Z</time>
      </trkpt>
      <trkpt lat="46.31395" lon="6.13772">
        <ele>458</ele>
        <time>2020-11-06T13:30:24.976Z</time>
      </trkpt>
      <trkpt lat="46.31397" lon="6.13769">
        <ele>458</ele>
        <time>2020-11-06T13:30:25.976Z</time>
      </trkpt>
      <trkpt lat="46.31398" lon="6.13766">
        <ele>458</ele>
        <time>2020-11-06T13:30:26.976Z</time>
      </trkpt>
      <trkpt lat="46.31399" lon="6.13764">
        <ele>458</ele>
        <time>2020-11-06T13:30:27.976Z</time>
      </trkpt>
      <trkpt lat="46.314" lon="6.13761">
        <ele>458</ele>
        <time>2020-11-06T13:30:28.976Z</time>
      </trkpt>
      <trkpt lat="46.31402" lon="6.13758">
        <ele>458</ele>
        <time>2020-11-06T13:30:29.976Z</time>
      </trkpt>
      <trkpt lat="46.31403" lon="6.13756">
        <ele>459</ele>
        <time>2020-11-06T13:30:30.975Z</time>
      </trkpt>
      <trkpt lat="46.31404" lon="6.13753">
        <ele>459</ele>
        <time>2020-11-06T13:30:31.975Z</time>
      </trkpt>
      <trkpt lat="46.31405" lon="6.1375">
        <ele>459</ele>
        <time>2020-11-06T13:30:32.976Z</time>
      </trkpt>
      <trkpt lat="46.31407" lon="6.13747">
        <ele>459</ele>
        <time>2020-11-06T13:30:33.976Z</time>
      </trkpt>
      <trkpt lat="46.31408" lon="6.13744">
        <ele>459</ele>
        <time>2020-11-06T13:30:34.976Z</time>
      </trkpt>
      <trkpt lat="46.31409" lon="6.13741">
        <ele>459</ele>
        <time>2020-11-06T13:30:35.976Z</time>
      </trkpt>
      <trkpt lat="46.3141" lon="6.13739">
        <ele>459</ele>
        <time>2020-11-06T13:30:36.976Z</time>
      </trkpt>
      <trkpt lat="46.31411" lon="6.13735">
        <ele>459</ele>
        <time>2020-11-06T13:30:37.976Z</time>
      </trkpt>
      <trkpt lat="46.31412" lon="6.13732">
        <ele>459</ele>
        <time>2020-11-06T13:30:38.975Z</time>
      </trkpt>
      <trkpt lat="46.31413" lon="6.13728">
        <ele>459</ele>
        <time>2020-11-06T13:30:39.976Z</time>
      </trkpt>
      <trkpt lat="46.31412" lon="6.13725">
        <ele>459</ele>
        <time>2020-11-06T13:30:40.975Z</time>
      </trkpt>
      <trkpt lat="46.31411" lon="6.13723">
        <ele>459</ele>
        <time>2020-11-06T13:30:41.976Z</time>
      </trkpt>
      <trkpt lat="46.31409" lon="6.1372">
        <ele>459</ele>
        <time>2020-11-06T13:30:42.976Z</time>
      </trkpt>
      <trkpt lat="46.31407" lon="6.13718">
        <ele>460</ele>
        <time>2020-11-06T13:30:43.975Z</time>
      </trkpt>
      <trkpt lat="46.31405" lon="6.13716">
        <ele>460</ele>
        <time>2020-11-06T13:30:44.976Z</time>
      </trkpt>
      <trkpt lat="46.31403" lon="6.13713">
        <ele>461</ele>
        <time>2020-11-06T13:30:45.976Z</time>
      </trkpt>
      <trkpt lat="46.31402" lon="6.13712">
        <ele>462</ele>
        <time>2020-11-06T13:30:46.976Z</time>
      </trkpt>
      <trkpt lat="46.314" lon="6.1371">
        <ele>462</ele>
        <time>2020-11-06T13:30:47.976Z</time>
      </trkpt>
      <trkpt lat="46.31398" lon="6.13708">
        <ele>463</ele>
        <time>2020-11-06T13:30:48.975Z</time>
      </trkpt>
      <trkpt lat="46.31396" lon="6.13706">
        <ele>463</ele>
        <time>2020-11-06T13:30:49.976Z</time>
      </trkpt>
      <trkpt lat="46.31396" lon="6.13703">
        <ele>464</ele>
        <time>2020-11-06T13:30:50.976Z</time>
      </trkpt>
      <trkpt lat="46.31394" lon="6.137">
        <ele>464</ele>
        <time>2020-11-06T13:30:51.976Z</time>
      </trkpt>
      <trkpt lat="46.31393" lon="6.13698">
        <ele>464</ele>
        <time>2020-11-06T13:30:52.976Z</time>
      </trkpt>
      <trkpt lat="46.3139" lon="6.13696">
        <ele>465</ele>
        <time>2020-11-06T13:30:53.976Z</time>
      </trkpt>
      <trkpt lat="46.31388" lon="6.13693">
        <ele>465</ele>
        <time>2020-11-06T13:30:54.976Z</time>
      </trkpt>
      <trkpt lat="46.31387" lon="6.1369">
        <ele>465</ele>
        <time>2020-11-06T13:30:55.976Z</time>
      </trkpt>
      <trkpt lat="46.31384" lon="6.13688">
        <ele>465</ele>
        <time>2020-11-06T13:30:56.975Z</time>
      </trkpt>
      <trkpt lat="46.31383" lon="6.13686">
        <ele>465</ele>
        <time>2020-11-06T13:30:57.975Z</time>
      </trkpt>
      <trkpt lat="46.31381" lon="6.13684">
        <ele>465</ele>
        <time>2020-11-06T13:30:58.976Z</time>
      </trkpt>
      <trkpt lat="46.31379" lon="6.13683">
        <ele>466</ele>
        <time>2020-11-06T13:30:59.976Z</time>
      </trkpt>
      <trkpt lat="46.31377" lon="6.13681">
        <ele>466</ele>
        <time>2020-11-06T13:31:00.976Z</time>
      </trkpt>
      <trkpt lat="46.31374" lon="6.1368">
        <ele>466</ele>
        <time>2020-11-06T13:31:01.976Z</time>
      </trkpt>
      <trkpt lat="46.31372" lon="6.13678">
        <ele>466</ele>
        <time>2020-11-06T13:31:02.976Z</time>
      </trkpt>
      <trkpt lat="46.3137" lon="6.13677">
        <ele>466</ele>
        <time>2020-11-06T13:31:03.975Z</time>
      </trkpt>
      <trkpt lat="46.31367" lon="6.13675">
        <ele>466</ele>
        <time>2020-11-06T13:31:04.975Z</time>
      </trkpt>
      <trkpt lat="46.31365" lon="6.13673">
        <ele>466</ele>
        <time>2020-11-06T13:31:05.976Z</time>
      </trkpt>
      <trkpt lat="46.31363" lon="6.13671">
        <ele>466</ele>
        <time>2020-11-06T13:31:06.975Z</time>
      </trkpt>
      <trkpt lat="46.31361" lon="6.1367">
        <ele>466</ele>
        <time>2020-11-06T13:31:07.976Z</time>
      </trkpt>
      <trkpt lat="46.31358" lon="6.13667">
        <ele>466</ele>
        <time>2020-11-06T13:31:08.975Z</time>
      </trkpt>
      <trkpt lat="46.31356" lon="6.13665">
        <ele>466</ele>
        <time>2020-11-06T13:31:09.976Z</time>
      </trkpt>
      <trkpt lat="46.31354" lon="6.13663">
        <ele>466</ele>
        <time>2020-11-06T13:31:10.976Z</time>
      </trkpt>
      <trkpt lat="46.31352" lon="6.13662">
        <ele>467</ele>
        <time>2020-11-06T13:31:11.976Z</time>
      </trkpt>
      <trkpt lat="46.3135" lon="6.1366">
        <ele>467</ele>
        <time>2020-11-06T13:31:12.975Z</time>
      </trkpt>
      <trkpt lat="46.31347" lon="6.13657">
        <ele>468</ele>
        <time>2020-11-06T13:31:13.976Z</time>
      </trkpt>
      <trkpt lat="46.31345" lon="6.13656">
        <ele>468</ele>
        <time>2020-11-06T13:31:14.976Z</time>
      </trkpt>
      <trkpt lat="46.31343" lon="6.13654">
        <ele>468</ele>
        <time>2020-11-06T13:31:15.976Z</time>
      </trkpt>
      <trkpt lat="46.31341" lon="6.13652">
        <ele>469</ele>
        <time>2020-11-06T13:31:16.976Z</time>
      </trkpt>
      <trkpt lat="46.31339" lon="6.1365">
        <ele>469</ele>
        <time>2020-11-06T13:31:17.976Z</time>
      </trkpt>
      <trkpt lat="46.31336" lon="6.13648">
        <ele>469</ele>
        <time>2020-11-06T13:31:18.975Z</time>
      </trkpt>
      <trkpt lat="46.31334" lon="6.13646">
        <ele>469</ele>
        <time>2020-11-06T13:31:19.976Z</time>
      </trkpt>
      <trkpt lat="46.31332" lon="6.13644">
        <ele>469</ele>
        <time>2020-11-06T13:31:20.975Z</time>
      </trkpt>
      <trkpt lat="46.3133" lon="6.13642">
        <ele>469</ele>
        <time>2020-11-06T13:31:21.976Z</time>
      </trkpt>
      <trkpt lat="46.31327" lon="6.1364">
        <ele>469</ele>
        <time>2020-11-06T13:31:22.976Z</time>
      </trkpt>
      <trkpt lat="46.31325" lon="6.13638">
        <ele>470</ele>
        <time>2020-11-06T13:31:23.976Z</time>
      </trkpt>
      <trkpt lat="46.31323" lon="6.13636">
        <ele>470</ele>
        <time>2020-11-06T13:31:24.975Z</time>
      </trkpt>
      <trkpt lat="46.31321" lon="6.13635">
        <ele>470</ele>
        <time>2020-11-06T13:31:25.976Z</time>
      </trkpt>
      <trkpt lat="46.31318" lon="6.13633">
        <ele>469</ele>
        <time>2020-11-06T13:31:26.976Z</time>
      </trkpt>
      <trkpt lat="46.31316" lon="6.13632">
        <ele>469</ele>
        <time>2020-11-06T13:31:27.976Z</time>
      </trkpt>
      <trkpt lat="46.31314" lon="6.1363">
        <ele>469</ele>
        <time>2020-11-06T13:31:28.976Z</time>
      </trkpt>
      <trkpt lat="46.31312" lon="6.13628">
        <ele>469</ele>
        <time>2020-11-06T13:31:29.976Z</time>
      </trkpt>
      <trkpt lat="46.3131" lon="6.13625">
        <ele>469</ele>
        <time>2020-11-06T13:31:30.976Z</time>
      </trkpt>
      <trkpt lat="46.31308" lon="6.13623">
        <ele>469</ele>
        <time>2020-11-06T13:31:31.975Z</time>
      </trkpt>
      <trkpt lat="46.31306" lon="6.1362">
        <ele>469</ele>
        <time>2020-11-06T13:31:32.975Z</time>
      </trkpt>
      <trkpt lat="46.31304" lon="6.13617">
        <ele>469</ele>
        <time>2020-11-06T13:31:33.976Z</time>
      </trkpt>
      <trkpt lat="46.31302" lon="6.13615">
        <ele>469</ele>
        <time>2020-11-06T13:31:34.975Z</time>
      </trkpt>
      <trkpt lat="46.31299" lon="6.13613">
        <ele>468</ele>
        <time>2020-11-06T13:31:35.976Z</time>
      </trkpt>
      <trkpt lat="46.31298" lon="6.1361">
        <ele>468</ele>
        <time>2020-11-06T13:31:36.975Z</time>
      </trkpt>
      <trkpt lat="46.31295" lon="6.13608">
        <ele>467</ele>
        <time>2020-11-06T13:31:37.975Z</time>
      </trkpt>
      <trkpt lat="46.31293" lon="6.13606">
        <ele>467</ele>
        <time>2020-11-06T13:31:38.976Z</time>
      </trkpt>
      <trkpt lat="46.31291" lon="6.13603">
        <ele>467</ele>
        <time>2020-11-06T13:31:39.976Z</time>
      </trkpt>
      <trkpt lat="46.31289" lon="6.13602">
        <ele>467</ele>
        <time>2020-11-06T13:31:40.976Z</time>
      </trkpt>
      <trkpt lat="46.31287" lon="6.136">
        <ele>466</ele>
        <time>2020-11-06T13:31:41.976Z</time>
      </trkpt>
      <trkpt lat="46.31285" lon="6.13598">
        <ele>466</ele>
        <time>2020-11-06T13:31:42.976Z</time>
      </trkpt>
      <trkpt lat="46.31283" lon="6.13596">
        <ele>466</ele>
        <time>2020-11-06T13:31:43.976Z</time>
      </trkpt>
      <trkpt lat="46.31281" lon="6.13594">
        <ele>466</ele>
        <time>2020-11-06T13:31:44.976Z</time>
      </trkpt>
      <trkpt lat="46.31278" lon="6.13592">
        <ele>465</ele>
        <time>2020-11-06T13:31:45.976Z</time>
      </trkpt>
      <trkpt lat="46.31276" lon="6.1359">
        <ele>465</ele>
        <time>2020-11-06T13:31:46.976Z</time>
      </trkpt>
      <trkpt lat="46.31274" lon="6.13589">
        <ele>465</ele>
        <time>2020-11-06T13:31:47.976Z</time>
      </trkpt>
      <trkpt lat="46.31272" lon="6.13587">
        <ele>465</ele>
        <time>2020-11-06T13:31:48.976Z</time>
      </trkpt>
      <trkpt lat="46.3127" lon="6.13586">
        <ele>464</ele>
        <time>2020-11-06T13:31:49.975Z</time>
      </trkpt>
      <trkpt lat="46.31268" lon="6.13584">
        <ele>464</ele>
        <time>2020-11-06T13:31:50.975Z</time>
      </trkpt>
      <trkpt lat="46.31266" lon="6.13582">
        <ele>464</ele>
        <time>2020-11-06T13:31:51.976Z</time>
      </trkpt>
      <trkpt lat="46.31264" lon="6.1358">
        <ele>463</ele>
        <time>2020-11-06T13:31:52.976Z</time>
      </trkpt>
      <trkpt lat="46.31262" lon="6.13578">
        <ele>463</ele>
        <time>2020-11-06T13:31:53.976Z</time>
      </trkpt>
      <trkpt lat="46.3126" lon="6.13576">
        <ele>463</ele>
        <time>2020-11-06T13:31:54.975Z</time>
      </trkpt>
      <trkpt lat="46.31258" lon="6.13575">
        <ele>463</ele>
        <time>2020-11-06T13:31:55.975Z</time>
      </trkpt>
      <trkpt lat="46.31256" lon="6.13573">
        <ele>463</ele>
        <time>2020-11-06T13:31:56.976Z</time>
      </trkpt>
      <trkpt lat="46.31254" lon="6.13571">
        <ele>463</ele>
        <time>2020-11-06T13:31:57.976Z</time>
      </trkpt>
      <trkpt lat="46.31252" lon="6.13568">
        <ele>463</ele>
        <time>2020-11-06T13:31:58.975Z</time>
      </trkpt>
      <trkpt lat="46.31249" lon="6.13566">
        <ele>462</ele>
        <time>2020-11-06T13:31:59.976Z</time>
      </trkpt>
      <trkpt lat="46.31247" lon="6.13564">
        <ele>462</ele>
        <time>2020-11-06T13:32:00.975Z</time>
      </trkpt>
      <trkpt lat="46.31246" lon="6.13562">
        <ele>462</ele>
        <time>2020-11-06T13:32:01.975Z</time>
      </trkpt>
      <trkpt lat="46.31243" lon="6.13561">
        <ele>462</ele>
        <time>2020-11-06T13:32:02.976Z</time>
      </trkpt>
      <trkpt lat="46.31242" lon="6.13559">
        <ele>462</ele>
        <time>2020-11-06T13:32:03.975Z</time>
      </trkpt>
      <trkpt lat="46.31239" lon="6.13557">
        <ele>462</ele>
        <time>2020-11-06T13:32:04.976Z</time>
      </trkpt>
      <trkpt lat="46.31237" lon="6.13555">
        <ele>462</ele>
        <time>2020-11-06T13:32:05.975Z</time>
      </trkpt>
      <trkpt lat="46.31235" lon="6.13553">
        <ele>461</ele>
        <time>2020-11-06T13:32:06.975Z</time>
      </trkpt>
      <trkpt lat="46.31233" lon="6.13551">
        <ele>461</ele>
        <time>2020-11-06T13:32:07.976Z</time>
      </trkpt>
      <trkpt lat="46.3123" lon="6.13549">
        <ele>461</ele>
        <time>2020-11-06T13:32:08.975Z</time>
      </trkpt>
      <trkpt lat="46.31228" lon="6.13547">
        <ele>461</ele>
        <time>2020-11-06T13:32:09.975Z</time>
      </trkpt>
      <trkpt lat="46.31226" lon="6.13545">
        <ele>461</ele>
        <time>2020-11-06T13:32:10.976Z</time>
      </trkpt>
      <trkpt lat="46.31224" lon="6.13544">
        <ele>461</ele>
        <time>2020-11-06T13:32:11.976Z</time>
      </trkpt>
      <trkpt lat="46.31221" lon="6.13541">
        <ele>461</ele>
        <time>2020-11-06T13:32:12.975Z</time>
      </trkpt>
      <trkpt lat="46.31219" lon="6.13539">
        <ele>461</ele>
        <time>2020-11-06T13:32:13.976Z</time>
      </trkpt>
      <trkpt lat="46.31217" lon="6.13537">
        <ele>461</ele>
        <time>2020-11-06T13:32:14.976Z</time>
      </trkpt>
      <trkpt lat="46.31215" lon="6.13535">
        <ele>461</ele>
        <time>2020-11-06T13:32:15.976Z</time>
      </trkpt>
      <trkpt lat="46.31212" lon="6.13533">
        <ele>461</ele>
        <time>2020-11-06T13:32:16.976Z</time>
      </trkpt>
      <trkpt lat="46.3121" lon="6.13531">
        <ele>461</ele>
        <time>2020-11-06T13:32:17.975Z</time>
      </trkpt>
      <trkpt lat="46.31208" lon="6.13529">
        <ele>460</ele>
        <time>2020-11-06T13:32:18.976Z</time>
      </trkpt>
      <trkpt lat="46.31206" lon="6.13528">
        <ele>460</ele>
        <time>2020-11-06T13:32:19.976Z</time>
      </trkpt>
      <trkpt lat="46.31204" lon="6.13527">
        <ele>460</ele>
        <time>2020-11-06T13:32:20.975Z</time>
      </trkpt>
      <trkpt lat="46.31202" lon="6.13526">
        <ele>459</ele>
        <time>2020-11-06T13:32:21.976Z</time>
      </trkpt>
      <trkpt lat="46.31199" lon="6.13524">
        <ele>459</ele>
        <time>2020-11-06T13:32:22.975Z</time>
      </trkpt>
      <trkpt lat="46.31197" lon="6.13521">
        <ele>459</ele>
        <time>2020-11-06T13:32:23.976Z</time>
      </trkpt>
      <trkpt lat="46.31195" lon="6.13519">
        <ele>458</ele>
        <time>2020-11-06T13:32:24.976Z</time>
      </trkpt>
      <trkpt lat="46.31193" lon="6.13516">
        <ele>458</ele>
        <time>2020-11-06T13:32:25.976Z</time>
      </trkpt>
      <trkpt lat="46.31191" lon="6.13514">
        <ele>458</ele>
        <time>2020-11-06T13:32:26.975Z</time>
      </trkpt>
      <trkpt lat="46.31189" lon="6.13511">
        <ele>458</ele>
        <time>2020-11-06T13:32:27.976Z</time>
      </trkpt>
      <trkpt lat="46.31187" lon="6.1351">
        <ele>458</ele>
        <time>2020-11-06T13:32:28.975Z</time>
      </trkpt>
      <trkpt lat="46.31184" lon="6.13508">
        <ele>458</ele>
        <time>2020-11-06T13:32:29.976Z</time>
      </trkpt>
      <trkpt lat="46.31182" lon="6.13505">
        <ele>458</ele>
        <time>2020-11-06T13:32:30.975Z</time>
      </trkpt>
      <trkpt lat="46.3118" lon="6.13503">
        <ele>458</ele>
        <time>2020-11-06T13:32:31.976Z</time>
      </trkpt>
      <trkpt lat="46.31178" lon="6.13501">
        <ele>459</ele>
        <time>2020-11-06T13:32:32.976Z</time>
      </trkpt>
      <trkpt lat="46.31176" lon="6.13499">
        <ele>459</ele>
        <time>2020-11-06T13:32:33.976Z</time>
      </trkpt>
      <trkpt lat="46.31173" lon="6.13496">
        <ele>459</ele>
        <time>2020-11-06T13:32:34.976Z</time>
      </trkpt>
      <trkpt lat="46.31171" lon="6.13495">
        <ele>459</ele>
        <time>2020-11-06T13:32:35.975Z</time>
      </trkpt>
      <trkpt lat="46.31169" lon="6.13493">
        <ele>460</ele>
        <time>2020-11-06T13:32:36.976Z</time>
      </trkpt>
      <trkpt lat="46.31167" lon="6.13491">
        <ele>460</ele>
        <time>2020-11-06T13:32:37.976Z</time>
      </trkpt>
      <trkpt lat="46.31165" lon="6.13489">
        <ele>460</ele>
        <time>2020-11-06T13:32:38.976Z</time>
      </trkpt>
      <trkpt lat="46.31163" lon="6.13487">
        <ele>460</ele>
        <time>2020-11-06T13:32:39.976Z</time>
      </trkpt>
      <trkpt lat="46.31161" lon="6.13486">
        <ele>460</ele>
        <time>2020-11-06T13:32:40.976Z</time>
      </trkpt>
      <trkpt lat="46.31159" lon="6.13484">
        <ele>460</ele>
        <time>2020-11-06T13:32:41.976Z</time>
      </trkpt>
      <trkpt lat="46.31156" lon="6.13481">
        <ele>459</ele>
        <time>2020-11-06T13:32:42.975Z</time>
      </trkpt>
      <trkpt lat="46.31154" lon="6.13479">
        <ele>459</ele>
        <time>2020-11-06T13:32:43.976Z</time>
      </trkpt>
      <trkpt lat="46.31152" lon="6.13477">
        <ele>459</ele>
        <time>2020-11-06T13:32:44.975Z</time>
      </trkpt>
      <trkpt lat="46.3115" lon="6.13476">
        <ele>459</ele>
        <time>2020-11-06T13:32:45.976Z</time>
      </trkpt>
      <trkpt lat="46.31148" lon="6.13474">
        <ele>459</ele>
        <time>2020-11-06T13:32:46.976Z</time>
      </trkpt>
      <trkpt lat="46.31146" lon="6.13472">
        <ele>458</ele>
        <time>2020-11-06T13:32:47.976Z</time>
      </trkpt>
      <trkpt lat="46.31144" lon="6.1347">
        <ele>458</ele>
        <time>2020-11-06T13:32:48.976Z</time>
      </trkpt>
      <trkpt lat="46.31142" lon="6.13469">
        <ele>458</ele>
        <time>2020-11-06T13:32:49.975Z</time>
      </trkpt>
      <trkpt lat="46.3114" lon="6.13467">
        <ele>457</ele>
        <time>2020-11-06T13:32:50.976Z</time>
      </trkpt>
      <trkpt lat="46.31138" lon="6.13465">
        <ele>457</ele>
        <time>2020-11-06T13:32:51.975Z</time>
      </trkpt>
      <trkpt lat="46.31136" lon="6.13463">
        <ele>457</ele>
        <time>2020-11-06T13:32:52.976Z</time>
      </trkpt>
      <trkpt lat="46.31133" lon="6.13461">
        <ele>457</ele>
        <time>2020-11-06T13:32:53.976Z</time>
      </trkpt>
      <trkpt lat="46.31132" lon="6.13459">
        <ele>457</ele>
        <time>2020-11-06T13:32:54.975Z</time>
      </trkpt>
      <trkpt lat="46.3113" lon="6.13457">
        <ele>457</ele>
        <time>2020-11-06T13:32:55.976Z</time>
      </trkpt>
      <trkpt lat="46.31127" lon="6.13455">
        <ele>456</ele>
        <time>2020-11-06T13:32:56.975Z</time>
      </trkpt>
      <trkpt lat="46.31125" lon="6.13453">
        <ele>457</ele>
        <time>2020-11-06T13:32:57.976Z</time>
      </trkpt>
      <trkpt lat="46.31123" lon="6.13451">
        <ele>457</ele>
        <time>2020-11-06T13:32:58.976Z</time>
      </trkpt>
      <trkpt lat="46.3112" lon="6.13448">
        <ele>457</ele>
        <time>2020-11-06T13:32:59.976Z</time>
      </trkpt>
      <trkpt lat="46.31118" lon="6.13446">
        <ele>457</ele>
        <time>2020-11-06T13:33:00.976Z</time>
      </trkpt>
      <trkpt lat="46.31116" lon="6.13444">
        <ele>457</ele>
        <time>2020-11-06T13:33:01.975Z</time>
      </trkpt>
      <trkpt lat="46.31114" lon="6.13442">
        <ele>457</ele>
        <time>2020-11-06T13:33:02.975Z</time>
      </trkpt>
      <trkpt lat="46.31112" lon="6.1344">
        <ele>458</ele>
        <time>2020-11-06T13:33:03.976Z</time>
      </trkpt>
      <trkpt lat="46.3111" lon="6.13437">
        <ele>458</ele>
        <time>2020-11-06T13:33:04.975Z</time>
      </trkpt>
      <trkpt lat="46.31108" lon="6.13435">
        <ele>458</ele>
        <time>2020-11-06T13:33:05.976Z</time>
      </trkpt>
      <trkpt lat="46.31105" lon="6.13433">
        <ele>459</ele>
        <time>2020-11-06T13:33:06.975Z</time>
      </trkpt>
      <trkpt lat="46.31103" lon="6.1343">
        <ele>459</ele>
        <time>2020-11-06T13:33:07.975Z</time>
      </trkpt>
      <trkpt lat="46.31101" lon="6.13428">
        <ele>459</ele>
        <time>2020-11-06T13:33:08.975Z</time>
      </trkpt>
      <trkpt lat="46.31099" lon="6.13426">
        <ele>459</ele>
        <time>2020-11-06T13:33:09.975Z</time>
      </trkpt>
      <trkpt lat="46.31096" lon="6.13424">
        <ele>459</ele>
        <time>2020-11-06T13:33:10.976Z</time>
      </trkpt>
      <trkpt lat="46.31094" lon="6.13423">
        <ele>459</ele>
        <time>2020-11-06T13:33:11.975Z</time>
      </trkpt>
      <trkpt lat="46.31092" lon="6.1342">
        <ele>459</ele>
        <time>2020-11-06T13:33:12.975Z</time>
      </trkpt>
      <trkpt lat="46.3109" lon="6.13418">
        <ele>458</ele>
        <time>2020-11-06T13:33:13.976Z</time>
      </trkpt>
      <trkpt lat="46.31088" lon="6.13417">
        <ele>457</ele>
        <time>2020-11-06T13:33:14.976Z</time>
      </trkpt>
      <trkpt lat="46.31086" lon="6.13415">
        <ele>457</ele>
        <time>2020-11-06T13:33:15.976Z</time>
      </trkpt>
      <trkpt lat="46.31084" lon="6.13413">
        <ele>457</ele>
        <time>2020-11-06T13:33:16.976Z</time>
      </trkpt>
      <trkpt lat="46.31081" lon="6.13411">
        <ele>456</ele>
        <time>2020-11-06T13:33:17.976Z</time>
      </trkpt>
      <trkpt lat="46.31079" lon="6.13409">
        <ele>456</ele>
        <time>2020-11-06T13:33:18.976Z</time>
      </trkpt>
      <trkpt lat="46.31077" lon="6.13408">
        <ele>456</ele>
        <time>2020-11-06T13:33:19.976Z</time>
      </trkpt>
      <trkpt lat="46.31075" lon="6.13406">
        <ele>455</ele>
        <time>2020-11-06T13:33:20.976Z</time>
      </trkpt>
      <trkpt lat="46.31073" lon="6.13404">
        <ele>455</ele>
        <time>2020-11-06T13:33:21.976Z</time>
      </trkpt>
      <trkpt lat="46.31071" lon="6.13402">
        <ele>455</ele>
        <time>2020-11-06T13:33:22.976Z</time>
      </trkpt>
      <trkpt lat="46.31069" lon="6.134">
        <ele>455</ele>
        <time>2020-11-06T13:33:23.976Z</time>
      </trkpt>
      <trkpt lat="46.31067" lon="6.13399">
        <ele>456</ele>
        <time>2020-11-06T13:33:24.976Z</time>
      </trkpt>
      <trkpt lat="46.31065" lon="6.13396">
        <ele>456</ele>
        <time>2020-11-06T13:33:25.976Z</time>
      </trkpt>
      <trkpt lat="46.31063" lon="6.13395">
        <ele>457</ele>
        <time>2020-11-06T13:33:26.976Z</time>
      </trkpt>
      <trkpt lat="46.3106" lon="6.13392">
        <ele>457</ele>
        <time>2020-11-06T13:33:27.976Z</time>
      </trkpt>
      <trkpt lat="46.31059" lon="6.13391">
        <ele>457</ele>
        <time>2020-11-06T13:33:28.976Z</time>
      </trkpt>
      <trkpt lat="46.31056" lon="6.13389">
        <ele>456</ele>
        <time>2020-11-06T13:33:29.975Z</time>
      </trkpt>
      <trkpt lat="46.31054" lon="6.13387">
        <ele>456</ele>
        <time>2020-11-06T13:33:30.975Z</time>
      </trkpt>
      <trkpt lat="46.31052" lon="6.13385">
        <ele>456</ele>
        <time>2020-11-06T13:33:31.975Z</time>
      </trkpt>
      <trkpt lat="46.31051" lon="6.13383">
        <ele>456</ele>
        <time>2020-11-06T13:33:32.976Z</time>
      </trkpt>
      <trkpt lat="46.31048" lon="6.13381">
        <ele>457</ele>
        <time>2020-11-06T13:33:33.975Z</time>
      </trkpt>
      <trkpt lat="46.31046" lon="6.13379">
        <ele>457</ele>
        <time>2020-11-06T13:33:34.975Z</time>
      </trkpt>
      <trkpt lat="46.31043" lon="6.13377">
        <ele>457</ele>
        <time>2020-11-06T13:33:35.976Z</time>
      </trkpt>
      <trkpt lat="46.31041" lon="6.13376">
        <ele>457</ele>
        <time>2020-11-06T13:33:36.976Z</time>
      </trkpt>
      <trkpt lat="46.31039" lon="6.13375">
        <ele>456</ele>
        <time>2020-11-06T13:33:37.975Z</time>
      </trkpt>
      <trkpt lat="46.31036" lon="6.13373">
        <ele>456</ele>
        <time>2020-11-06T13:33:38.975Z</time>
      </trkpt>
      <trkpt lat="46.31034" lon="6.1337">
        <ele>456</ele>
        <time>2020-11-06T13:33:39.975Z</time>
      </trkpt>
      <trkpt lat="46.31032" lon="6.13367">
        <ele>456</ele>
        <time>2020-11-06T13:33:40.975Z</time>
      </trkpt>
      <trkpt lat="46.3103" lon="6.13365">
        <ele>456</ele>
        <time>2020-11-06T13:33:41.975Z</time>
      </trkpt>
      <trkpt lat="46.31028" lon="6.13361">
        <ele>456</ele>
        <time>2020-11-06T13:33:42.975Z</time>
      </trkpt>
      <trkpt lat="46.31027" lon="6.13358">
        <ele>456</ele>
        <time>2020-11-06T13:33:43.976Z</time>
      </trkpt>
      <trkpt lat="46.31025" lon="6.13355">
        <ele>457</ele>
        <time>2020-11-06T13:33:44.976Z</time>
      </trkpt>
      <trkpt lat="46.31024" lon="6.13353">
        <ele>457</ele>
        <time>2020-11-06T13:33:45.976Z</time>
      </trkpt>
      <trkpt lat="46.31022" lon="6.1335">
        <ele>458</ele>
        <time>2020-11-06T13:33:46.976Z</time>
      </trkpt>
      <trkpt lat="46.31021" lon="6.13348">
        <ele>458</ele>
        <time>2020-11-06T13:33:47.976Z</time>
      </trkpt>
      <trkpt lat="46.3102" lon="6.13345">
        <ele>458</ele>
        <time>2020-11-06T13:33:48.975Z</time>
      </trkpt>
      <trkpt lat="46.31019" lon="6.13342">
        <ele>458</ele>
        <time>2020-11-06T13:33:49.975Z</time>
      </trkpt>
      <trkpt lat="46.31018" lon="6.1334">
        <ele>458</ele>
        <time>2020-11-06T13:33:50.976Z</time>
      </trkpt>
      <trkpt lat="46.31015" lon="6.13337">
        <ele>458</ele>
        <time>2020-11-06T13:33:51.976Z</time>
      </trkpt>
      <trkpt lat="46.31014" lon="6.13334">
        <ele>458</ele>
        <time>2020-11-06T13:33:52.975Z</time>
      </trkpt>
      <trkpt lat="46.31012" lon="6.13332">
        <ele>458</ele>
        <time>2020-11-06T13:33:53.975Z</time>
      </trkpt>
      <trkpt lat="46.3101" lon="6.13329">
        <ele>459</ele>
        <time>2020-11-06T13:33:54.976Z</time>
      </trkpt>
      <trkpt lat="46.31008" lon="6.13326">
        <ele>459</ele>
        <time>2020-11-06T13:33:55.975Z</time>
      </trkpt>
      <trkpt lat="46.31006" lon="6.13324">
        <ele>458</ele>
        <time>2020-11-06T13:33:56.975Z</time>
      </trkpt>
      <trkpt lat="46.31004" lon="6.13322">
        <ele>458</ele>
        <time>2020-11-06T13:33:57.976Z</time>
      </trkpt>
      <trkpt lat="46.31003" lon="6.1332">
        <ele>458</ele>
        <time>2020-11-06T13:33:58.975Z</time>
      </trkpt>
      <trkpt lat="46.31001" lon="6.13317">
        <ele>458</ele>
        <time>2020-11-06T13:33:59.976Z</time>
      </trkpt>
      <trkpt lat="46.30999" lon="6.13315">
        <ele>459</ele>
        <time>2020-11-06T13:34:00.975Z</time>
      </trkpt>
      <trkpt lat="46.30997" lon="6.13313">
        <ele>459</ele>
        <time>2020-11-06T13:34:01.975Z</time>
      </trkpt>
      <trkpt lat="46.30995" lon="6.13312">
        <ele>459</ele>
        <time>2020-11-06T13:34:02.976Z</time>
      </trkpt>
      <trkpt lat="46.30992" lon="6.1331">
        <ele>458</ele>
        <time>2020-11-06T13:34:03.975Z</time>
      </trkpt>
      <trkpt lat="46.3099" lon="6.13309">
        <ele>458</ele>
        <time>2020-11-06T13:34:04.975Z</time>
      </trkpt>
      <trkpt lat="46.30988" lon="6.13308">
        <ele>457</ele>
        <time>2020-11-06T13:34:05.976Z</time>
      </trkpt>
      <trkpt lat="46.30985" lon="6.13306">
        <ele>457</ele>
        <time>2020-11-06T13:34:06.976Z</time>
      </trkpt>
      <trkpt lat="46.30983" lon="6.13304">
        <ele>457</ele>
        <time>2020-11-06T13:34:07.975Z</time>
      </trkpt>
      <trkpt lat="46.30981" lon="6.13302">
        <ele>457</ele>
        <time>2020-11-06T13:34:08.976Z</time>
      </trkpt>
      <trkpt lat="46.30978" lon="6.133">
        <ele>458</ele>
        <time>2020-11-06T13:34:09.976Z</time>
      </trkpt>
      <trkpt lat="46.30976" lon="6.13298">
        <ele>458</ele>
        <time>2020-11-06T13:34:10.976Z</time>
      </trkpt>
      <trkpt lat="46.30974" lon="6.13296">
        <ele>458</ele>
        <time>2020-11-06T13:34:11.975Z</time>
      </trkpt>
      <trkpt lat="46.30972" lon="6.13294">
        <ele>459</ele>
        <time>2020-11-06T13:34:12.976Z</time>
      </trkpt>
      <trkpt lat="46.3097" lon="6.13292">
        <ele>459</ele>
        <time>2020-11-06T13:34:13.975Z</time>
      </trkpt>
      <trkpt lat="46.30968" lon="6.13291">
        <ele>459</ele>
        <time>2020-11-06T13:34:14.976Z</time>
      </trkpt>
      <trkpt lat="46.30967" lon="6.1329">
        <ele>459</ele>
        <time>2020-11-06T13:34:15.975Z</time>
      </trkpt>
      <trkpt lat="46.30964" lon="6.13287">
        <ele>459</ele>
        <time>2020-11-06T13:34:16.976Z</time>
      </trkpt>
      <trkpt lat="46.30962" lon="6.13285">
        <ele>458</ele>
        <time>2020-11-06T13:34:17.976Z</time>
      </trkpt>
      <trkpt lat="46.3096" lon="6.13283">
        <ele>458</ele>
        <time>2020-11-06T13:34:18.976Z</time>
      </trkpt>
      <trkpt lat="46.30959" lon="6.13282">
        <ele>458</ele>
        <time>2020-11-06T13:34:19.976Z</time>
      </trkpt>
      <trkpt lat="46.30956" lon="6.1328">
        <ele>458</ele>
        <time>2020-11-06T13:34:20.976Z</time>
      </trkpt>
      <trkpt lat="46.30954" lon="6.13278">
        <ele>458</ele>
        <time>2020-11-06T13:34:21.975Z</time>
      </trkpt>
      <trkpt lat="46.30952" lon="6.13276">
        <ele>459</ele>
        <time>2020-11-06T13:34:22.976Z</time>
      </trkpt>
      <trkpt lat="46.3095" lon="6.13274">
        <ele>459</ele>
        <time>2020-11-06T13:34:23.975Z</time>
      </trkpt>
      <trkpt lat="46.30948" lon="6.13272">
        <ele>459</ele>
        <time>2020-11-06T13:34:24.976Z</time>
      </trkpt>
      <trkpt lat="46.30946" lon="6.1327">
        <ele>459</ele>
        <time>2020-11-06T13:34:25.976Z</time>
      </trkpt>
      <trkpt lat="46.30944" lon="6.13269">
        <ele>459</ele>
        <time>2020-11-06T13:34:26.975Z</time>
      </trkpt>
      <trkpt lat="46.30942" lon="6.13266">
        <ele>459</ele>
        <time>2020-11-06T13:34:27.975Z</time>
      </trkpt>
      <trkpt lat="46.3094" lon="6.13264">
        <ele>459</ele>
        <time>2020-11-06T13:34:28.975Z</time>
      </trkpt>
      <trkpt lat="46.30938" lon="6.13261">
        <ele>459</ele>
        <time>2020-11-06T13:34:29.976Z</time>
      </trkpt>
      <trkpt lat="46.30936" lon="6.13258">
        <ele>459</ele>
        <time>2020-11-06T13:34:30.976Z</time>
      </trkpt>
      <trkpt lat="46.30934" lon="6.13256">
        <ele>459</ele>
        <time>2020-11-06T13:34:31.976Z</time>
      </trkpt>
      <trkpt lat="46.30933" lon="6.13255">
        <ele>459</ele>
        <time>2020-11-06T13:34:32.976Z</time>
      </trkpt>
      <trkpt lat="46.3093" lon="6.13253">
        <ele>459</ele>
        <time>2020-11-06T13:34:33.976Z</time>
      </trkpt>
      <trkpt lat="46.30928" lon="6.13251">
        <ele>458</ele>
        <time>2020-11-06T13:34:34.975Z</time>
      </trkpt>
      <trkpt lat="46.30927" lon="6.13249">
        <ele>458</ele>
        <time>2020-11-06T13:34:35.976Z</time>
      </trkpt>
      <trkpt lat="46.30925" lon="6.13247">
        <ele>458</ele>
        <time>2020-11-06T13:34:36.975Z</time>
      </trkpt>
      <trkpt lat="46.30924" lon="6.13245">
        <ele>458</ele>
        <time>2020-11-06T13:34:37.976Z</time>
      </trkpt>
      <trkpt lat="46.30921" lon="6.13243">
        <ele>458</ele>
        <time>2020-11-06T13:34:38.975Z</time>
      </trkpt>
      <trkpt lat="46.3092" lon="6.13241">
        <ele>458</ele>
        <time>2020-11-06T13:34:39.976Z</time>
      </trkpt>
      <trkpt lat="46.30918" lon="6.1324">
        <ele>457</ele>
        <time>2020-11-06T13:34:40.975Z</time>
      </trkpt>
      <trkpt lat="46.30916" lon="6.13238">
        <ele>457</ele>
        <time>2020-11-06T13:34:41.975Z</time>
      </trkpt>
      <trkpt lat="46.30914" lon="6.13237">
        <ele>456</ele>
        <time>2020-11-06T13:34:42.976Z</time>
      </trkpt>
      <trkpt lat="46.30913" lon="6.13235">
        <ele>456</ele>
        <time>2020-11-06T13:34:43.975Z</time>
      </trkpt>
      <trkpt lat="46.3091" lon="6.13233">
        <ele>456</ele>
        <time>2020-11-06T13:34:44.976Z</time>
      </trkpt>
      <trkpt lat="46.30909" lon="6.13231">
        <ele>456</ele>
        <time>2020-11-06T13:34:45.976Z</time>
      </trkpt>
      <trkpt lat="46.30907" lon="6.13228">
        <ele>456</ele>
        <time>2020-11-06T13:34:46.976Z</time>
      </trkpt>
      <trkpt lat="46.30906" lon="6.13225">
        <ele>456</ele>
        <time>2020-11-06T13:34:47.975Z</time>
      </trkpt>
      <trkpt lat="46.30905" lon="6.13222">
        <ele>455</ele>
        <time>2020-11-06T13:34:48.976Z</time>
      </trkpt>
      <trkpt lat="46.30905" lon="6.13219">
        <ele>455</ele>
        <time>2020-11-06T13:34:49.976Z</time>
      </trkpt>
      <trkpt lat="46.30905" lon="6.13217">
        <ele>455</ele>
        <time>2020-11-06T13:34:50.975Z</time>
      </trkpt>
      <trkpt lat="46.30906" lon="6.13213">
        <ele>455</ele>
        <time>2020-11-06T13:34:51.975Z</time>
      </trkpt>
      <trkpt lat="46.30907" lon="6.1321">
        <ele>455</ele>
        <time>2020-11-06T13:34:52.976Z</time>
      </trkpt>
      <trkpt lat="46.30908" lon="6.13207">
        <ele>455</ele>
        <time>2020-11-06T13:34:53.976Z</time>
      </trkpt>
      <trkpt lat="46.30909" lon="6.13205">
        <ele>455</ele>
        <time>2020-11-06T13:34:54.976Z</time>
      </trkpt>
      <trkpt lat="46.30911" lon="6.13202">
        <ele>455</ele>
        <time>2020-11-06T13:34:55.975Z</time>
      </trkpt>
      <trkpt lat="46.30913" lon="6.13199">
        <ele>455</ele>
        <time>2020-11-06T13:34:56.975Z</time>
      </trkpt>
      <trkpt lat="46.30915" lon="6.13196">
        <ele>455</ele>
        <time>2020-11-06T13:34:57.976Z</time>
      </trkpt>
      <trkpt lat="46.30916" lon="6.13194">
        <ele>455</ele>
        <time>2020-11-06T13:34:58.975Z</time>
      </trkpt>
      <trkpt lat="46.30918" lon="6.13191">
        <ele>455</ele>
        <time>2020-11-06T13:34:59.975Z</time>
      </trkpt>
      <trkpt lat="46.30919" lon="6.13188">
        <ele>455</ele>
        <time>2020-11-06T13:35:00.976Z</time>
      </trkpt>
      <trkpt lat="46.30921" lon="6.13185">
        <ele>455</ele>
        <time>2020-11-06T13:35:01.976Z</time>
      </trkpt>
      <trkpt lat="46.30922" lon="6.13182">
        <ele>455</ele>
        <time>2020-11-06T13:35:02.975Z</time>
      </trkpt>
      <trkpt lat="46.30924" lon="6.13179">
        <ele>456</ele>
        <time>2020-11-06T13:35:03.976Z</time>
      </trkpt>
      <trkpt lat="46.30926" lon="6.13176">
        <ele>456</ele>
        <time>2020-11-06T13:35:04.976Z</time>
      </trkpt>
      <trkpt lat="46.30928" lon="6.13173">
        <ele>456</ele>
        <time>2020-11-06T13:35:05.975Z</time>
      </trkpt>
      <trkpt lat="46.3093" lon="6.1317">
        <ele>457</ele>
        <time>2020-11-06T13:35:06.976Z</time>
      </trkpt>
      <trkpt lat="46.30931" lon="6.13167">
        <ele>457</ele>
        <time>2020-11-06T13:35:07.975Z</time>
      </trkpt>
      <trkpt lat="46.30932" lon="6.13164">
        <ele>458</ele>
        <time>2020-11-06T13:35:08.975Z</time>
      </trkpt>
      <trkpt lat="46.30934" lon="6.13161">
        <ele>458</ele>
        <time>2020-11-06T13:35:09.976Z</time>
      </trkpt>
      <trkpt lat="46.30935" lon="6.13158">
        <ele>457</ele>
        <time>2020-11-06T13:35:10.976Z</time>
      </trkpt>
      <trkpt lat="46.30937" lon="6.13155">
        <ele>457</ele>
        <time>2020-11-06T13:35:11.976Z</time>
      </trkpt>
      <trkpt lat="46.30938" lon="6.13152">
        <ele>458</ele>
        <time>2020-11-06T13:35:12.976Z</time>
      </trkpt>
      <trkpt lat="46.30939" lon="6.13149">
        <ele>458</ele>
        <time>2020-11-06T13:35:13.975Z</time>
      </trkpt>
      <trkpt lat="46.3094" lon="6.13146">
        <ele>458</ele>
        <time>2020-11-06T13:35:14.975Z</time>
      </trkpt>
      <trkpt lat="46.30941" lon="6.13144">
        <ele>458</ele>
        <time>2020-11-06T13:35:15.976Z</time>
      </trkpt>
      <trkpt lat="46.30943" lon="6.13141">
        <ele>458</ele>
        <time>2020-11-06T13:35:16.976Z</time>
      </trkpt>
      <trkpt lat="46.30945" lon="6.13138">
        <ele>458</ele>
        <time>2020-11-06T13:35:17.976Z</time>
      </trkpt>
      <trkpt lat="46.30946" lon="6.13135">
        <ele>458</ele>
        <time>2020-11-06T13:35:18.976Z</time>
      </trkpt>
      <trkpt lat="46.30948" lon="6.13132">
        <ele>458</ele>
        <time>2020-11-06T13:35:19.975Z</time>
      </trkpt>
      <trkpt lat="46.30949" lon="6.13129">
        <ele>458</ele>
        <time>2020-11-06T13:35:20.975Z</time>
      </trkpt>
      <trkpt lat="46.3095" lon="6.13126">
        <ele>458</ele>
        <time>2020-11-06T13:35:21.976Z</time>
      </trkpt>
      <trkpt lat="46.30951" lon="6.13123">
        <ele>458</ele>
        <time>2020-11-06T13:35:22.976Z</time>
      </trkpt>
      <trkpt lat="46.30952" lon="6.13121">
        <ele>458</ele>
        <time>2020-11-06T13:35:23.976Z</time>
      </trkpt>
      <trkpt lat="46.30953" lon="6.13119">
        <ele>458</ele>
        <time>2020-11-06T13:35:24.976Z</time>
      </trkpt>
      <trkpt lat="46.30954" lon="6.13116">
        <ele>458</ele>
        <time>2020-11-06T13:35:25.976Z</time>
      </trkpt>
      <trkpt lat="46.30955" lon="6.13113">
        <ele>458</ele>
        <time>2020-11-06T13:35:26.976Z</time>
      </trkpt>
      <trkpt lat="46.30956" lon="6.13111">
        <ele>457</ele>
        <time>2020-11-06T13:35:27.976Z</time>
      </trkpt>
      <trkpt lat="46.30958" lon="6.13108">
        <ele>457</ele>
        <time>2020-11-06T13:35:28.975Z</time>
      </trkpt>
      <trkpt lat="46.30959" lon="6.13105">
        <ele>457</ele>
        <time>2020-11-06T13:35:29.975Z</time>
      </trkpt>
      <trkpt lat="46.30961" lon="6.13103">
        <ele>458</ele>
        <time>2020-11-06T13:35:30.976Z</time>
      </trkpt>
      <trkpt lat="46.30962" lon="6.13101">
        <ele>458</ele>
        <time>2020-11-06T13:35:31.976Z</time>
      </trkpt>
      <trkpt lat="46.30964" lon="6.13098">
        <ele>458</ele>
        <time>2020-11-06T13:35:32.976Z</time>
      </trkpt>
      <trkpt lat="46.30965" lon="6.13095">
        <ele>458</ele>
        <time>2020-11-06T13:35:33.976Z</time>
      </trkpt>
      <trkpt lat="46.30966" lon="6.13093">
        <ele>458</ele>
        <time>2020-11-06T13:35:34.975Z</time>
      </trkpt>
      <trkpt lat="46.30967" lon="6.1309">
        <ele>458</ele>
        <time>2020-11-06T13:35:35.975Z</time>
      </trkpt>
      <trkpt lat="46.30969" lon="6.13087">
        <ele>459</ele>
        <time>2020-11-06T13:35:36.976Z</time>
      </trkpt>
      <trkpt lat="46.3097" lon="6.13084">
        <ele>459</ele>
        <time>2020-11-06T13:35:37.976Z</time>
      </trkpt>
      <trkpt lat="46.30972" lon="6.13081">
        <ele>459</ele>
        <time>2020-11-06T13:35:38.976Z</time>
      </trkpt>
      <trkpt lat="46.30973" lon="6.13078">
        <ele>459</ele>
        <time>2020-11-06T13:35:39.976Z</time>
      </trkpt>
      <trkpt lat="46.30975" lon="6.13076">
        <ele>460</ele>
        <time>2020-11-06T13:35:40.976Z</time>
      </trkpt>
      <trkpt lat="46.30976" lon="6.13073">
        <ele>460</ele>
        <time>2020-11-06T13:35:41.976Z</time>
      </trkpt>
      <trkpt lat="46.30977" lon="6.1307">
        <ele>461</ele>
        <time>2020-11-06T13:35:42.976Z</time>
      </trkpt>
      <trkpt lat="46.30979" lon="6.13067">
        <ele>461</ele>
        <time>2020-11-06T13:35:43.976Z</time>
      </trkpt>
      <trkpt lat="46.3098" lon="6.13064">
        <ele>461</ele>
        <time>2020-11-06T13:35:44.975Z</time>
      </trkpt>
      <trkpt lat="46.30981" lon="6.13062">
        <ele>462</ele>
        <time>2020-11-06T13:35:45.975Z</time>
      </trkpt>
      <trkpt lat="46.30982" lon="6.13059">
        <ele>462</ele>
        <time>2020-11-06T13:35:46.975Z</time>
      </trkpt>
      <trkpt lat="46.30983" lon="6.13056">
        <ele>462</ele>
        <time>2020-11-06T13:35:47.975Z</time>
      </trkpt>
      <trkpt lat="46.30984" lon="6.13054">
        <ele>462</ele>
        <time>2020-11-06T13:35:48.976Z</time>
      </trkpt>
      <trkpt lat="46.30986" lon="6.13051">
        <ele>462</ele>
        <time>2020-11-06T13:35:49.975Z</time>
      </trkpt>
      <trkpt lat="46.30988" lon="6.13049">
        <ele>462</ele>
        <time>2020-11-06T13:35:50.976Z</time>
      </trkpt>
      <trkpt lat="46.3099" lon="6.13045">
        <ele>462</ele>
        <time>2020-11-06T13:35:51.976Z</time>
      </trkpt>
      <trkpt lat="46.30991" lon="6.13043">
        <ele>462</ele>
        <time>2020-11-06T13:35:52.976Z</time>
      </trkpt>
      <trkpt lat="46.30992" lon="6.1304">
        <ele>462</ele>
        <time>2020-11-06T13:35:53.975Z</time>
      </trkpt>
      <trkpt lat="46.30993" lon="6.13038">
        <ele>463</ele>
        <time>2020-11-06T13:35:54.975Z</time>
      </trkpt>
      <trkpt lat="46.30994" lon="6.13035">
        <ele>463</ele>
        <time>2020-11-06T13:35:55.975Z</time>
      </trkpt>
      <trkpt lat="46.30995" lon="6.13032">
        <ele>463</ele>
        <time>2020-11-06T13:35:56.975Z</time>
      </trkpt>
      <trkpt lat="46.30996" lon="6.1303">
        <ele>463</ele>
        <time>2020-11-06T13:35:57.975Z</time>
      </trkpt>
      <trkpt lat="46.30997" lon="6.13027">
        <ele>463</ele>
        <time>2020-11-06T13:35:58.976Z</time>
      </trkpt>
      <trkpt lat="46.30998" lon="6.13025">
        <ele>463</ele>
        <time>2020-11-06T13:35:59.976Z</time>
      </trkpt>
      <trkpt lat="46.30999" lon="6.13022">
        <ele>463</ele>
        <time>2020-11-06T13:36:00.976Z</time>
      </trkpt>
      <trkpt lat="46.31" lon="6.13019">
        <ele>463</ele>
        <time>2020-11-06T13:36:01.975Z</time>
      </trkpt>
      <trkpt lat="46.31001" lon="6.13017">
        <ele>462</ele>
        <time>2020-11-06T13:36:02.975Z</time>
      </trkpt>
      <trkpt lat="46.31001" lon="6.13015">
        <ele>462</ele>
        <time>2020-11-06T13:36:03.976Z</time>
      </trkpt>
      <trkpt lat="46.31002" lon="6.13012">
        <ele>462</ele>
        <time>2020-11-06T13:36:04.975Z</time>
      </trkpt>
      <trkpt lat="46.31002" lon="6.13009">
        <ele>461</ele>
        <time>2020-11-06T13:36:05.976Z</time>
      </trkpt>
      <trkpt lat="46.31004" lon="6.13005">
        <ele>461</ele>
        <time>2020-11-06T13:36:06.976Z</time>
      </trkpt>
      <trkpt lat="46.31005" lon="6.13003">
        <ele>461</ele>
        <time>2020-11-06T13:36:07.975Z</time>
      </trkpt>
      <trkpt lat="46.31006" lon="6.13001">
        <ele>462</ele>
        <time>2020-11-06T13:36:08.975Z</time>
      </trkpt>
      <trkpt lat="46.31007" lon="6.12998">
        <ele>462</ele>
        <time>2020-11-06T13:36:09.976Z</time>
      </trkpt>
      <trkpt lat="46.31008" lon="6.12997">
        <ele>463</ele>
        <time>2020-11-06T13:36:10.975Z</time>
      </trkpt>
      <trkpt lat="46.31009" lon="6.12995">
        <ele>463</ele>
        <time>2020-11-06T13:36:11.975Z</time>
      </trkpt>
      <trkpt lat="46.31011" lon="6.12992">
        <ele>463</ele>
        <time>2020-11-06T13:36:12.976Z</time>
      </trkpt>
      <trkpt lat="46.31012" lon="6.12989">
        <ele>463</ele>
        <time>2020-11-06T13:36:13.975Z</time>
      </trkpt>
      <trkpt lat="46.31013" lon="6.12986">
        <ele>463</ele>
        <time>2020-11-06T13:36:14.975Z</time>
      </trkpt>
      <trkpt lat="46.31013" lon="6.12985">
        <ele>463</ele>
        <time>2020-11-06T13:36:15.975Z</time>
      </trkpt>
      <trkpt lat="46.31014" lon="6.12982">
        <ele>463</ele>
        <time>2020-11-06T13:36:16.975Z</time>
      </trkpt>
      <trkpt lat="46.31015" lon="6.12979">
        <ele>463</ele>
        <time>2020-11-06T13:36:17.975Z</time>
      </trkpt>
      <trkpt lat="46.31016" lon="6.12976">
        <ele>463</ele>
        <time>2020-11-06T13:36:18.976Z</time>
      </trkpt>
      <trkpt lat="46.31017" lon="6.12974">
        <ele>463</ele>
        <time>2020-11-06T13:36:19.976Z</time>
      </trkpt>
      <trkpt lat="46.31018" lon="6.12972">
        <ele>463</ele>
        <time>2020-11-06T13:36:20.975Z</time>
      </trkpt>
      <trkpt lat="46.31018" lon="6.12969">
        <ele>463</ele>
        <time>2020-11-06T13:36:21.975Z</time>
      </trkpt>
      <trkpt lat="46.31019" lon="6.12967">
        <ele>463</ele>
        <time>2020-11-06T13:36:22.975Z</time>
      </trkpt>
      <trkpt lat="46.3102" lon="6.12965">
        <ele>463</ele>
        <time>2020-11-06T13:36:23.976Z</time>
      </trkpt>
      <trkpt lat="46.31021" lon="6.12963">
        <ele>462</ele>
        <time>2020-11-06T13:36:24.975Z</time>
      </trkpt>
      <trkpt lat="46.31022" lon="6.1296">
        <ele>462</ele>
        <time>2020-11-06T13:36:25.975Z</time>
      </trkpt>
      <trkpt lat="46.31023" lon="6.12957">
        <ele>462</ele>
        <time>2020-11-06T13:36:26.976Z</time>
      </trkpt>
      <trkpt lat="46.31024" lon="6.12955">
        <ele>462</ele>
        <time>2020-11-06T13:36:27.976Z</time>
      </trkpt>
      <trkpt lat="46.31025" lon="6.12952">
        <ele>461</ele>
        <time>2020-11-06T13:36:28.975Z</time>
      </trkpt>
      <trkpt lat="46.31026" lon="6.1295">
        <ele>461</ele>
        <time>2020-11-06T13:36:29.976Z</time>
      </trkpt>
      <trkpt lat="46.31027" lon="6.12947">
        <ele>461</ele>
        <time>2020-11-06T13:36:30.976Z</time>
      </trkpt>
      <trkpt lat="46.31028" lon="6.12945">
        <ele>460</ele>
        <time>2020-11-06T13:36:31.976Z</time>
      </trkpt>
      <trkpt lat="46.31029" lon="6.12943">
        <ele>460</ele>
        <time>2020-11-06T13:36:32.975Z</time>
      </trkpt>
      <trkpt lat="46.31029" lon="6.1294">
        <ele>461</ele>
        <time>2020-11-06T13:36:33.976Z</time>
      </trkpt>
      <trkpt lat="46.31031" lon="6.12937">
        <ele>461</ele>
        <time>2020-11-06T13:36:34.975Z</time>
      </trkpt>
      <trkpt lat="46.31031" lon="6.12934">
        <ele>461</ele>
        <time>2020-11-06T13:36:35.975Z</time>
      </trkpt>
      <trkpt lat="46.31033" lon="6.12932">
        <ele>462</ele>
        <time>2020-11-06T13:36:36.976Z</time>
      </trkpt>
      <trkpt lat="46.31034" lon="6.1293">
        <ele>462</ele>
        <time>2020-11-06T13:36:37.976Z</time>
      </trkpt>
      <trkpt lat="46.31035" lon="6.12927">
        <ele>463</ele>
        <time>2020-11-06T13:36:38.976Z</time>
      </trkpt>
      <trkpt lat="46.31036" lon="6.12925">
        <ele>463</ele>
        <time>2020-11-06T13:36:39.975Z</time>
      </trkpt>
      <trkpt lat="46.31037" lon="6.12922">
        <ele>464</ele>
        <time>2020-11-06T13:36:40.975Z</time>
      </trkpt>
      <trkpt lat="46.31038" lon="6.1292">
        <ele>464</ele>
        <time>2020-11-06T13:36:41.976Z</time>
      </trkpt>
      <trkpt lat="46.3104" lon="6.12918">
        <ele>464</ele>
        <time>2020-11-06T13:36:42.976Z</time>
      </trkpt>
      <trkpt lat="46.31042" lon="6.12915">
        <ele>464</ele>
        <time>2020-11-06T13:36:43.976Z</time>
      </trkpt>
      <trkpt lat="46.31044" lon="6.12913">
        <ele>464</ele>
        <time>2020-11-06T13:36:44.976Z</time>
      </trkpt>
      <trkpt lat="46.31046" lon="6.12911">
        <ele>465</ele>
        <time>2020-11-06T13:36:45.976Z</time>
      </trkpt>
      <trkpt lat="46.31047" lon="6.12909">
        <ele>465</ele>
        <time>2020-11-06T13:36:46.976Z</time>
      </trkpt>
      <trkpt lat="46.31048" lon="6.12907">
        <ele>465</ele>
        <time>2020-11-06T13:36:47.975Z</time>
      </trkpt>
      <trkpt lat="46.31049" lon="6.12904">
        <ele>466</ele>
        <time>2020-11-06T13:36:48.976Z</time>
      </trkpt>
      <trkpt lat="46.3105" lon="6.12901">
        <ele>466</ele>
        <time>2020-11-06T13:36:49.975Z</time>
      </trkpt>
      <trkpt lat="46.31051" lon="6.12899">
        <ele>465</ele>
        <time>2020-11-06T13:36:50.976Z</time>
      </trkpt>
      <trkpt lat="46.31052" lon="6.12896">
        <ele>465</ele>
        <time>2020-11-06T13:36:51.976Z</time>
      </trkpt>
      <trkpt lat="46.31053" lon="6.12894">
        <ele>465</ele>
        <time>2020-11-06T13:36:52.976Z</time>
      </trkpt>
      <trkpt lat="46.31054" lon="6.12891">
        <ele>465</ele>
        <time>2020-11-06T13:36:53.976Z</time>
      </trkpt>
      <trkpt lat="46.31055" lon="6.12889">
        <ele>465</ele>
        <time>2020-11-06T13:36:54.976Z</time>
      </trkpt>
      <trkpt lat="46.31056" lon="6.12887">
        <ele>465</ele>
        <time>2020-11-06T13:36:55.976Z</time>
      </trkpt>
      <trkpt lat="46.31058" lon="6.12884">
        <ele>465</ele>
        <time>2020-11-06T13:36:56.976Z</time>
      </trkpt>
      <trkpt lat="46.31059" lon="6.12882">
        <ele>465</ele>
        <time>2020-11-06T13:36:57.976Z</time>
      </trkpt>
      <trkpt lat="46.3106" lon="6.1288">
        <ele>466</ele>
        <time>2020-11-06T13:36:58.975Z</time>
      </trkpt>
      <trkpt lat="46.31061" lon="6.12878">
        <ele>466</ele>
        <time>2020-11-06T13:36:59.975Z</time>
      </trkpt>
      <trkpt lat="46.31062" lon="6.12875">
        <ele>467</ele>
        <time>2020-11-06T13:37:00.976Z</time>
      </trkpt>
      <trkpt lat="46.31063" lon="6.12873">
        <ele>468</ele>
        <time>2020-11-06T13:37:01.976Z</time>
      </trkpt>
      <trkpt lat="46.31064" lon="6.12871">
        <ele>468</ele>
        <time>2020-11-06T13:37:02.976Z</time>
      </trkpt>
      <trkpt lat="46.31065" lon="6.12869">
        <ele>468</ele>
        <time>2020-11-06T13:37:03.976Z</time>
      </trkpt>
      <trkpt lat="46.31066" lon="6.12866">
        <ele>468</ele>
        <time>2020-11-06T13:37:04.976Z</time>
      </trkpt>
      <trkpt lat="46.31067" lon="6.12863">
        <ele>468</ele>
        <time>2020-11-06T13:37:05.976Z</time>
      </trkpt>
      <trkpt lat="46.31068" lon="6.12861">
        <ele>468</ele>
        <time>2020-11-06T13:37:06.975Z</time>
      </trkpt>
      <trkpt lat="46.3107" lon="6.12859">
        <ele>468</ele>
        <time>2020-11-06T13:37:07.976Z</time>
      </trkpt>
      <trkpt lat="46.31071" lon="6.12856">
        <ele>469</ele>
        <time>2020-11-06T13:37:08.976Z</time>
      </trkpt>
      <trkpt lat="46.31072" lon="6.12853">
        <ele>469</ele>
        <time>2020-11-06T13:37:09.975Z</time>
      </trkpt>
      <trkpt lat="46.31073" lon="6.12851">
        <ele>468</ele>
        <time>2020-11-06T13:37:10.976Z</time>
      </trkpt>
      <trkpt lat="46.31074" lon="6.12848">
        <ele>468</ele>
        <time>2020-11-06T13:37:11.976Z</time>
      </trkpt>
      <trkpt lat="46.31076" lon="6.12846">
        <ele>468</ele>
        <time>2020-11-06T13:37:12.975Z</time>
      </trkpt>
      <trkpt lat="46.31077" lon="6.12844">
        <ele>468</ele>
        <time>2020-11-06T13:37:13.976Z</time>
      </trkpt>
      <trkpt lat="46.31079" lon="6.12841">
        <ele>467</ele>
        <time>2020-11-06T13:37:14.975Z</time>
      </trkpt>
      <trkpt lat="46.3108" lon="6.12839">
        <ele>467</ele>
        <time>2020-11-06T13:37:15.976Z</time>
      </trkpt>
      <trkpt lat="46.31082" lon="6.12836">
        <ele>467</ele>
        <time>2020-11-06T13:37:16.975Z</time>
      </trkpt>
      <trkpt lat="46.31083" lon="6.12833">
        <ele>467</ele>
        <time>2020-11-06T13:37:17.976Z</time>
      </trkpt>
      <trkpt lat="46.31084" lon="6.12831">
        <ele>467</ele>
        <time>2020-11-06T13:37:18.976Z</time>
      </trkpt>
      <trkpt lat="46.31085" lon="6.12828">
        <ele>467</ele>
        <time>2020-11-06T13:37:19.976Z</time>
      </trkpt>
      <trkpt lat="46.31087" lon="6.12825">
        <ele>466</ele>
        <time>2020-11-06T13:37:20.975Z</time>
      </trkpt>
      <trkpt lat="46.31089" lon="6.12822">
        <ele>466</ele>
        <time>2020-11-06T13:37:21.976Z</time>
      </trkpt>
      <trkpt lat="46.31089" lon="6.1282">
        <ele>466</ele>
        <time>2020-11-06T13:37:22.975Z</time>
      </trkpt>
      <trkpt lat="46.31091" lon="6.12817">
        <ele>466</ele>
        <time>2020-11-06T13:37:23.976Z</time>
      </trkpt>
      <trkpt lat="46.31092" lon="6.12814">
        <ele>465</ele>
        <time>2020-11-06T13:37:24.976Z</time>
      </trkpt>
      <trkpt lat="46.31093" lon="6.12812">
        <ele>465</ele>
        <time>2020-11-06T13:37:25.975Z</time>
      </trkpt>
      <trkpt lat="46.31094" lon="6.1281">
        <ele>465</ele>
        <time>2020-11-06T13:37:26.976Z</time>
      </trkpt>
      <trkpt lat="46.31095" lon="6.12807">
        <ele>465</ele>
        <time>2020-11-06T13:37:27.976Z</time>
      </trkpt>
      <trkpt lat="46.31097" lon="6.12804">
        <ele>465</ele>
        <time>2020-11-06T13:37:28.975Z</time>
      </trkpt>
      <trkpt lat="46.31098" lon="6.12802">
        <ele>465</ele>
        <time>2020-11-06T13:37:29.975Z</time>
      </trkpt>
      <trkpt lat="46.31099" lon="6.12799">
        <ele>465</ele>
        <time>2020-11-06T13:37:30.976Z</time>
      </trkpt>
      <trkpt lat="46.311" lon="6.12796">
        <ele>465</ele>
        <time>2020-11-06T13:37:31.975Z</time>
      </trkpt>
      <trkpt lat="46.31101" lon="6.12793">
        <ele>464</ele>
        <time>2020-11-06T13:37:32.976Z</time>
      </trkpt>
      <trkpt lat="46.31103" lon="6.1279">
        <ele>464</ele>
        <time>2020-11-06T13:37:33.976Z</time>
      </trkpt>
      <trkpt lat="46.31104" lon="6.12788">
        <ele>464</ele>
        <time>2020-11-06T13:37:34.976Z</time>
      </trkpt>
      <trkpt lat="46.31106" lon="6.12785">
        <ele>464</ele>
        <time>2020-11-06T13:37:35.976Z</time>
      </trkpt>
      <trkpt lat="46.31107" lon="6.12782">
        <ele>464</ele>
        <time>2020-11-06T13:37:36.976Z</time>
      </trkpt>
      <trkpt lat="46.31109" lon="6.12779">
        <ele>464</ele>
        <time>2020-11-06T13:37:37.975Z</time>
      </trkpt>
      <trkpt lat="46.3111" lon="6.12776">
        <ele>464</ele>
        <time>2020-11-06T13:37:38.975Z</time>
      </trkpt>
      <trkpt lat="46.31111" lon="6.12773">
        <ele>465</ele>
        <time>2020-11-06T13:37:39.975Z</time>
      </trkpt>
      <trkpt lat="46.31112" lon="6.1277">
        <ele>465</ele>
        <time>2020-11-06T13:37:40.975Z</time>
      </trkpt>
      <trkpt lat="46.31113" lon="6.12767">
        <ele>465</ele>
        <time>2020-11-06T13:37:41.976Z</time>
      </trkpt>
      <trkpt lat="46.31114" lon="6.12765">
        <ele>465</ele>
        <time>2020-11-06T13:37:42.976Z</time>
      </trkpt>
      <trkpt lat="46.31115" lon="6.12762">
        <ele>465</ele>
        <time>2020-11-06T13:37:43.976Z</time>
      </trkpt>
      <trkpt lat="46.31116" lon="6.12759">
        <ele>466</ele>
        <time>2020-11-06T13:37:44.976Z</time>
      </trkpt>
      <trkpt lat="46.31117" lon="6.12756">
        <ele>466</ele>
        <time>2020-11-06T13:37:45.976Z</time>
      </trkpt>
      <trkpt lat="46.31119" lon="6.12754">
        <ele>466</ele>
        <time>2020-11-06T13:37:46.976Z</time>
      </trkpt>
      <trkpt lat="46.3112" lon="6.12752">
        <ele>466</ele>
        <time>2020-11-06T13:37:47.976Z</time>
      </trkpt>
      <trkpt lat="46.31122" lon="6.1275">
        <ele>466</ele>
        <time>2020-11-06T13:37:48.976Z</time>
      </trkpt>
      <trkpt lat="46.31124" lon="6.12747">
        <ele>466</ele>
        <time>2020-11-06T13:37:49.976Z</time>
      </trkpt>
      <trkpt lat="46.31126" lon="6.12745">
        <ele>466</ele>
        <time>2020-11-06T13:37:50.975Z</time>
      </trkpt>
      <trkpt lat="46.31127" lon="6.12742">
        <ele>466</ele>
        <time>2020-11-06T13:37:51.975Z</time>
      </trkpt>
      <trkpt lat="46.31128" lon="6.12739">
        <ele>466</ele>
        <time>2020-11-06T13:37:52.975Z</time>
      </trkpt>
      <trkpt lat="46.31128" lon="6.12736">
        <ele>466</ele>
        <time>2020-11-06T13:37:53.976Z</time>
      </trkpt>
      <trkpt lat="46.31129" lon="6.12732">
        <ele>466</ele>
        <time>2020-11-06T13:37:54.976Z</time>
      </trkpt>
      <trkpt lat="46.3113" lon="6.12729">
        <ele>466</ele>
        <time>2020-11-06T13:37:55.976Z</time>
      </trkpt>
      <trkpt lat="46.31132" lon="6.12725">
        <ele>466</ele>
        <time>2020-11-06T13:37:56.975Z</time>
      </trkpt>
      <trkpt lat="46.31133" lon="6.12722">
        <ele>466</ele>
        <time>2020-11-06T13:37:57.976Z</time>
      </trkpt>
      <trkpt lat="46.31134" lon="6.12718">
        <ele>466</ele>
        <time>2020-11-06T13:37:58.976Z</time>
      </trkpt>
      <trkpt lat="46.31134" lon="6.12715">
        <ele>466</ele>
        <time>2020-11-06T13:37:59.976Z</time>
      </trkpt>
      <trkpt lat="46.31135" lon="6.12712">
        <ele>466</ele>
        <time>2020-11-06T13:38:00.975Z</time>
      </trkpt>
      <trkpt lat="46.31137" lon="6.12709">
        <ele>465</ele>
        <time>2020-11-06T13:38:01.976Z</time>
      </trkpt>
      <trkpt lat="46.31138" lon="6.12705">
        <ele>465</ele>
        <time>2020-11-06T13:38:02.976Z</time>
      </trkpt>
      <trkpt lat="46.3114" lon="6.12703">
        <ele>465</ele>
        <time>2020-11-06T13:38:03.976Z</time>
      </trkpt>
      <trkpt lat="46.31141" lon="6.127">
        <ele>465</ele>
        <time>2020-11-06T13:38:04.976Z</time>
      </trkpt>
      <trkpt lat="46.31142" lon="6.12696">
        <ele>465</ele>
        <time>2020-11-06T13:38:05.975Z</time>
      </trkpt>
      <trkpt lat="46.31143" lon="6.12694">
        <ele>465</ele>
        <time>2020-11-06T13:38:06.976Z</time>
      </trkpt>
      <trkpt lat="46.31145" lon="6.12691">
        <ele>465</ele>
        <time>2020-11-06T13:38:07.975Z</time>
      </trkpt>
      <trkpt lat="46.31146" lon="6.12688">
        <ele>465</ele>
        <time>2020-11-06T13:38:08.976Z</time>
      </trkpt>
      <trkpt lat="46.31148" lon="6.12684">
        <ele>466</ele>
        <time>2020-11-06T13:38:09.976Z</time>
      </trkpt>
      <trkpt lat="46.31149" lon="6.12682">
        <ele>466</ele>
        <time>2020-11-06T13:38:10.975Z</time>
      </trkpt>
      <trkpt lat="46.31151" lon="6.12678">
        <ele>466</ele>
        <time>2020-11-06T13:38:11.976Z</time>
      </trkpt>
      <trkpt lat="46.31152" lon="6.12675">
        <ele>466</ele>
        <time>2020-11-06T13:38:12.976Z</time>
      </trkpt>
      <trkpt lat="46.31154" lon="6.12672">
        <ele>466</ele>
        <time>2020-11-06T13:38:13.975Z</time>
      </trkpt>
      <trkpt lat="46.31156" lon="6.12669">
        <ele>466</ele>
        <time>2020-11-06T13:38:14.976Z</time>
      </trkpt>
      <trkpt lat="46.31157" lon="6.12666">
        <ele>466</ele>
        <time>2020-11-06T13:38:15.975Z</time>
      </trkpt>
      <trkpt lat="46.31158" lon="6.12663">
        <ele>465</ele>
        <time>2020-11-06T13:38:16.976Z</time>
      </trkpt>
      <trkpt lat="46.31159" lon="6.1266">
        <ele>465</ele>
        <time>2020-11-06T13:38:17.976Z</time>
      </trkpt>
      <trkpt lat="46.31161" lon="6.12656">
        <ele>465</ele>
        <time>2020-11-06T13:38:18.976Z</time>
      </trkpt>
      <trkpt lat="46.31162" lon="6.12653">
        <ele>465</ele>
        <time>2020-11-06T13:38:19.975Z</time>
      </trkpt>
      <trkpt lat="46.31164" lon="6.1265">
        <ele>465</ele>
        <time>2020-11-06T13:38:20.976Z</time>
      </trkpt>
      <trkpt lat="46.31165" lon="6.12648">
        <ele>466</ele>
        <time>2020-11-06T13:38:21.975Z</time>
      </trkpt>
      <trkpt lat="46.31167" lon="6.12645">
        <ele>466</ele>
        <time>2020-11-06T13:38:22.975Z</time>
      </trkpt>
      <trkpt lat="46.31168" lon="6.12642">
        <ele>466</ele>
        <time>2020-11-06T13:38:23.976Z</time>
      </trkpt>
      <trkpt lat="46.3117" lon="6.12638">
        <ele>466</ele>
        <time>2020-11-06T13:38:24.975Z</time>
      </trkpt>
      <trkpt lat="46.31171" lon="6.12636">
        <ele>466</ele>
        <time>2020-11-06T13:38:25.975Z</time>
      </trkpt>
      <trkpt lat="46.31173" lon="6.12632">
        <ele>466</ele>
        <time>2020-11-06T13:38:26.976Z</time>
      </trkpt>
      <trkpt lat="46.31174" lon="6.12629">
        <ele>467</ele>
        <time>2020-11-06T13:38:27.975Z</time>
      </trkpt>
      <trkpt lat="46.31175" lon="6.12626">
        <ele>467</ele>
        <time>2020-11-06T13:38:28.976Z</time>
      </trkpt>
      <trkpt lat="46.31177" lon="6.12623">
        <ele>467</ele>
        <time>2020-11-06T13:38:29.976Z</time>
      </trkpt>
      <trkpt lat="46.31178" lon="6.12621">
        <ele>467</ele>
        <time>2020-11-06T13:38:30.975Z</time>
      </trkpt>
      <trkpt lat="46.31179" lon="6.12617">
        <ele>467</ele>
        <time>2020-11-06T13:38:31.975Z</time>
      </trkpt>
      <trkpt lat="46.31181" lon="6.12614">
        <ele>467</ele>
        <time>2020-11-06T13:38:32.976Z</time>
      </trkpt>
      <trkpt lat="46.31183" lon="6.12611">
        <ele>467</ele>
        <time>2020-11-06T13:38:33.976Z</time>
      </trkpt>
      <trkpt lat="46.31184" lon="6.12609">
        <ele>467</ele>
        <time>2020-11-06T13:38:34.976Z</time>
      </trkpt>
      <trkpt lat="46.31185" lon="6.12605">
        <ele>467</ele>
        <time>2020-11-06T13:38:35.975Z</time>
      </trkpt>
      <trkpt lat="46.31187" lon="6.12602">
        <ele>467</ele>
        <time>2020-11-06T13:38:36.975Z</time>
      </trkpt>
      <trkpt lat="46.31188" lon="6.12599">
        <ele>467</ele>
        <time>2020-11-06T13:38:37.976Z</time>
      </trkpt>
      <trkpt lat="46.31189" lon="6.12597">
        <ele>468</ele>
        <time>2020-11-06T13:38:38.975Z</time>
      </trkpt>
      <trkpt lat="46.31191" lon="6.12594">
        <ele>468</ele>
        <time>2020-11-06T13:38:39.976Z</time>
      </trkpt>
      <trkpt lat="46.31192" lon="6.12591">
        <ele>468</ele>
        <time>2020-11-06T13:38:40.976Z</time>
      </trkpt>
      <trkpt lat="46.31194" lon="6.12588">
        <ele>468</ele>
        <time>2020-11-06T13:38:41.975Z</time>
      </trkpt>
      <trkpt lat="46.31195" lon="6.12585">
        <ele>467</ele>
        <time>2020-11-06T13:38:42.976Z</time>
      </trkpt>
      <trkpt lat="46.31196" lon="6.12582">
        <ele>467</ele>
        <time>2020-11-06T13:38:43.976Z</time>
      </trkpt>
      <trkpt lat="46.31198" lon="6.12578">
        <ele>467</ele>
        <time>2020-11-06T13:38:44.976Z</time>
      </trkpt>
      <trkpt lat="46.31198" lon="6.12575">
        <ele>467</ele>
        <time>2020-11-06T13:38:45.976Z</time>
      </trkpt>
      <trkpt lat="46.312" lon="6.12573">
        <ele>467</ele>
        <time>2020-11-06T13:38:46.976Z</time>
      </trkpt>
      <trkpt lat="46.312" lon="6.12571">
        <ele>467</ele>
        <time>2020-11-06T13:38:47.976Z</time>
      </trkpt>
      <trkpt lat="46.31202" lon="6.12568">
        <ele>467</ele>
        <time>2020-11-06T13:38:48.976Z</time>
      </trkpt>
      <trkpt lat="46.31203" lon="6.12565">
        <ele>467</ele>
        <time>2020-11-06T13:38:49.976Z</time>
      </trkpt>
      <trkpt lat="46.31205" lon="6.12563">
        <ele>467</ele>
        <time>2020-11-06T13:38:50.975Z</time>
      </trkpt>
      <trkpt lat="46.31206" lon="6.1256">
        <ele>467</ele>
        <time>2020-11-06T13:38:51.976Z</time>
      </trkpt>
      <trkpt lat="46.31208" lon="6.12558">
        <ele>467</ele>
        <time>2020-11-06T13:38:52.976Z</time>
      </trkpt>
      <trkpt lat="46.3121" lon="6.12555">
        <ele>467</ele>
        <time>2020-11-06T13:38:53.976Z</time>
      </trkpt>
      <trkpt lat="46.31212" lon="6.12552">
        <ele>467</ele>
        <time>2020-11-06T13:38:54.976Z</time>
      </trkpt>
      <trkpt lat="46.31212" lon="6.1255">
        <ele>467</ele>
        <time>2020-11-06T13:38:55.976Z</time>
      </trkpt>
      <trkpt lat="46.31213" lon="6.12547">
        <ele>467</ele>
        <time>2020-11-06T13:38:56.976Z</time>
      </trkpt>
      <trkpt lat="46.31213" lon="6.12543">
        <ele>467</ele>
        <time>2020-11-06T13:38:57.976Z</time>
      </trkpt>
      <trkpt lat="46.31214" lon="6.1254">
        <ele>467</ele>
        <time>2020-11-06T13:38:58.976Z</time>
      </trkpt>
      <trkpt lat="46.31215" lon="6.12538">
        <ele>467</ele>
        <time>2020-11-06T13:38:59.976Z</time>
      </trkpt>
      <trkpt lat="46.31216" lon="6.12536">
        <ele>467</ele>
        <time>2020-11-06T13:39:00.975Z</time>
      </trkpt>
      <trkpt lat="46.31217" lon="6.12532">
        <ele>467</ele>
        <time>2020-11-06T13:39:01.976Z</time>
      </trkpt>
      <trkpt lat="46.31218" lon="6.1253">
        <ele>467</ele>
        <time>2020-11-06T13:39:02.976Z</time>
      </trkpt>
      <trkpt lat="46.3122" lon="6.12527">
        <ele>468</ele>
        <time>2020-11-06T13:39:03.975Z</time>
      </trkpt>
      <trkpt lat="46.31221" lon="6.12525">
        <ele>468</ele>
        <time>2020-11-06T13:39:04.975Z</time>
      </trkpt>
      <trkpt lat="46.31223" lon="6.12522">
        <ele>468</ele>
        <time>2020-11-06T13:39:05.975Z</time>
      </trkpt>
      <trkpt lat="46.31225" lon="6.12518">
        <ele>468</ele>
        <time>2020-11-06T13:39:06.975Z</time>
      </trkpt>
      <trkpt lat="46.31226" lon="6.12516">
        <ele>467</ele>
        <time>2020-11-06T13:39:07.976Z</time>
      </trkpt>
      <trkpt lat="46.31227" lon="6.12513">
        <ele>467</ele>
        <time>2020-11-06T13:39:08.976Z</time>
      </trkpt>
      <trkpt lat="46.31228" lon="6.1251">
        <ele>468</ele>
        <time>2020-11-06T13:39:09.975Z</time>
      </trkpt>
      <trkpt lat="46.3123" lon="6.12507">
        <ele>468</ele>
        <time>2020-11-06T13:39:10.976Z</time>
      </trkpt>
      <trkpt lat="46.31231" lon="6.12504">
        <ele>468</ele>
        <time>2020-11-06T13:39:11.975Z</time>
      </trkpt>
      <trkpt lat="46.31232" lon="6.12501">
        <ele>469</ele>
        <time>2020-11-06T13:39:12.976Z</time>
      </trkpt>
      <trkpt lat="46.31233" lon="6.12499">
        <ele>469</ele>
        <time>2020-11-06T13:39:13.976Z</time>
      </trkpt>
      <trkpt lat="46.31234" lon="6.12495">
        <ele>469</ele>
        <time>2020-11-06T13:39:14.976Z</time>
      </trkpt>
      <trkpt lat="46.31236" lon="6.12492">
        <ele>469</ele>
        <time>2020-11-06T13:39:15.976Z</time>
      </trkpt>
      <trkpt lat="46.31237" lon="6.12489">
        <ele>469</ele>
        <time>2020-11-06T13:39:16.975Z</time>
      </trkpt>
      <trkpt lat="46.31238" lon="6.12486">
        <ele>469</ele>
        <time>2020-11-06T13:39:17.976Z</time>
      </trkpt>
      <trkpt lat="46.3124" lon="6.12483">
        <ele>469</ele>
        <time>2020-11-06T13:39:18.975Z</time>
      </trkpt>
      <trkpt lat="46.31242" lon="6.12479">
        <ele>469</ele>
        <time>2020-11-06T13:39:19.976Z</time>
      </trkpt>
      <trkpt lat="46.31243" lon="6.12476">
        <ele>469</ele>
        <time>2020-11-06T13:39:20.976Z</time>
      </trkpt>
      <trkpt lat="46.31245" lon="6.12473">
        <ele>469</ele>
        <time>2020-11-06T13:39:21.975Z</time>
      </trkpt>
      <trkpt lat="46.31246" lon="6.12471">
        <ele>469</ele>
        <time>2020-11-06T13:39:22.975Z</time>
      </trkpt>
      <trkpt lat="46.31247" lon="6.12467">
        <ele>468</ele>
        <time>2020-11-06T13:39:23.976Z</time>
      </trkpt>
      <trkpt lat="46.31248" lon="6.12465">
        <ele>468</ele>
        <time>2020-11-06T13:39:24.975Z</time>
      </trkpt>
      <trkpt lat="46.3125" lon="6.12462">
        <ele>468</ele>
        <time>2020-11-06T13:39:25.975Z</time>
      </trkpt>
      <trkpt lat="46.31252" lon="6.12459">
        <ele>468</ele>
        <time>2020-11-06T13:39:26.975Z</time>
      </trkpt>
      <trkpt lat="46.31254" lon="6.12455">
        <ele>469</ele>
        <time>2020-11-06T13:39:27.976Z</time>
      </trkpt>
      <trkpt lat="46.31255" lon="6.12452">
        <ele>469</ele>
        <time>2020-11-06T13:39:28.976Z</time>
      </trkpt>
      <trkpt lat="46.31256" lon="6.12448">
        <ele>469</ele>
        <time>2020-11-06T13:39:29.976Z</time>
      </trkpt>
      <trkpt lat="46.31258" lon="6.12446">
        <ele>469</ele>
        <time>2020-11-06T13:39:30.976Z</time>
      </trkpt>
      <trkpt lat="46.31259" lon="6.12442">
        <ele>468</ele>
        <time>2020-11-06T13:39:31.976Z</time>
      </trkpt>
      <trkpt lat="46.3126" lon="6.1244">
        <ele>468</ele>
        <time>2020-11-06T13:39:32.976Z</time>
      </trkpt>
      <trkpt lat="46.31262" lon="6.12436">
        <ele>468</ele>
        <time>2020-11-06T13:39:33.976Z</time>
      </trkpt>
      <trkpt lat="46.31264" lon="6.12433">
        <ele>468</ele>
        <time>2020-11-06T13:39:34.975Z</time>
      </trkpt>
      <trkpt lat="46.31265" lon="6.1243">
        <ele>468</ele>
        <time>2020-11-06T13:39:35.975Z</time>
      </trkpt>
      <trkpt lat="46.31266" lon="6.12427">
        <ele>468</ele>
        <time>2020-11-06T13:39:36.976Z</time>
      </trkpt>
      <trkpt lat="46.31267" lon="6.12424">
        <ele>468</ele>
        <time>2020-11-06T13:39:37.976Z</time>
      </trkpt>
      <trkpt lat="46.31268" lon="6.12421">
        <ele>468</ele>
        <time>2020-11-06T13:39:38.975Z</time>
      </trkpt>
      <trkpt lat="46.31269" lon="6.12419">
        <ele>468</ele>
        <time>2020-11-06T13:39:39.975Z</time>
      </trkpt>
      <trkpt lat="46.31271" lon="6.12415">
        <ele>467</ele>
        <time>2020-11-06T13:39:40.975Z</time>
      </trkpt>
      <trkpt lat="46.31273" lon="6.12412">
        <ele>467</ele>
        <time>2020-11-06T13:39:41.975Z</time>
      </trkpt>
      <trkpt lat="46.31275" lon="6.12409">
        <ele>467</ele>
        <time>2020-11-06T13:39:42.976Z</time>
      </trkpt>
      <trkpt lat="46.31276" lon="6.12406">
        <ele>467</ele>
        <time>2020-11-06T13:39:43.976Z</time>
      </trkpt>
      <trkpt lat="46.31278" lon="6.12403">
        <ele>467</ele>
        <time>2020-11-06T13:39:44.975Z</time>
      </trkpt>
      <trkpt lat="46.31279" lon="6.124">
        <ele>467</ele>
        <time>2020-11-06T13:39:45.975Z</time>
      </trkpt>
      <trkpt lat="46.31281" lon="6.12397">
        <ele>467</ele>
        <time>2020-11-06T13:39:46.976Z</time>
      </trkpt>
      <trkpt lat="46.31283" lon="6.12394">
        <ele>467</ele>
        <time>2020-11-06T13:39:47.976Z</time>
      </trkpt>
      <trkpt lat="46.31284" lon="6.1239">
        <ele>467</ele>
        <time>2020-11-06T13:39:48.976Z</time>
      </trkpt>
      <trkpt lat="46.31285" lon="6.12387">
        <ele>467</ele>
        <time>2020-11-06T13:39:49.975Z</time>
      </trkpt>
      <trkpt lat="46.31286" lon="6.12384">
        <ele>467</ele>
        <time>2020-11-06T13:39:50.976Z</time>
      </trkpt>
      <trkpt lat="46.31288" lon="6.12381">
        <ele>467</ele>
        <time>2020-11-06T13:39:51.976Z</time>
      </trkpt>
      <trkpt lat="46.31289" lon="6.12379">
        <ele>467</ele>
        <time>2020-11-06T13:39:52.976Z</time>
      </trkpt>
      <trkpt lat="46.31291" lon="6.12375">
        <ele>467</ele>
        <time>2020-11-06T13:39:53.975Z</time>
      </trkpt>
      <trkpt lat="46.31292" lon="6.12372">
        <ele>468</ele>
        <time>2020-11-06T13:39:54.976Z</time>
      </trkpt>
      <trkpt lat="46.31294" lon="6.12369">
        <ele>468</ele>
        <time>2020-11-06T13:39:55.976Z</time>
      </trkpt>
      <trkpt lat="46.31295" lon="6.12366">
        <ele>468</ele>
        <time>2020-11-06T13:39:56.976Z</time>
      </trkpt>
      <trkpt lat="46.31297" lon="6.12362">
        <ele>467</ele>
        <time>2020-11-06T13:39:57.975Z</time>
      </trkpt>
      <trkpt lat="46.31297" lon="6.1236">
        <ele>467</ele>
        <time>2020-11-06T13:39:58.976Z</time>
      </trkpt>
      <trkpt lat="46.31299" lon="6.12357">
        <ele>467</ele>
        <time>2020-11-06T13:39:59.976Z</time>
      </trkpt>
      <trkpt lat="46.313" lon="6.12354">
        <ele>467</ele>
        <time>2020-11-06T13:40:00.976Z</time>
      </trkpt>
      <trkpt lat="46.31302" lon="6.12351">
        <ele>468</ele>
        <time>2020-11-06T13:40:01.976Z</time>
      </trkpt>
      <trkpt lat="46.31303" lon="6.12348">
        <ele>467</ele>
        <time>2020-11-06T13:40:02.976Z</time>
      </trkpt>
      <trkpt lat="46.31304" lon="6.12344">
        <ele>467</ele>
        <time>2020-11-06T13:40:03.976Z</time>
      </trkpt>
      <trkpt lat="46.31304" lon="6.12341">
        <ele>467</ele>
        <time>2020-11-06T13:40:04.976Z</time>
      </trkpt>
      <trkpt lat="46.31306" lon="6.12338">
        <ele>467</ele>
        <time>2020-11-06T13:40:05.976Z</time>
      </trkpt>
      <trkpt lat="46.31307" lon="6.12335">
        <ele>467</ele>
        <time>2020-11-06T13:40:06.976Z</time>
      </trkpt>
      <trkpt lat="46.31308" lon="6.12332">
        <ele>467</ele>
        <time>2020-11-06T13:40:07.976Z</time>
      </trkpt>
      <trkpt lat="46.3131" lon="6.12329">
        <ele>467</ele>
        <time>2020-11-06T13:40:08.976Z</time>
      </trkpt>
      <trkpt lat="46.31311" lon="6.12327">
        <ele>467</ele>
        <time>2020-11-06T13:40:09.976Z</time>
      </trkpt>
      <trkpt lat="46.31313" lon="6.12323">
        <ele>467</ele>
        <time>2020-11-06T13:40:10.975Z</time>
      </trkpt>
      <trkpt lat="46.31314" lon="6.1232">
        <ele>467</ele>
        <time>2020-11-06T13:40:11.975Z</time>
      </trkpt>
      <trkpt lat="46.31316" lon="6.12318">
        <ele>467</ele>
        <time>2020-11-06T13:40:12.976Z</time>
      </trkpt>
      <trkpt lat="46.31317" lon="6.12316">
        <ele>468</ele>
        <time>2020-11-06T13:40:13.976Z</time>
      </trkpt>
      <trkpt lat="46.3132" lon="6.12313">
        <ele>468</ele>
        <time>2020-11-06T13:40:14.975Z</time>
      </trkpt>
      <trkpt lat="46.31321" lon="6.1231">
        <ele>468</ele>
        <time>2020-11-06T13:40:15.976Z</time>
      </trkpt>
      <trkpt lat="46.31323" lon="6.12308">
        <ele>468</ele>
        <time>2020-11-06T13:40:16.976Z</time>
      </trkpt>
      <trkpt lat="46.31325" lon="6.12305">
        <ele>468</ele>
        <time>2020-11-06T13:40:17.976Z</time>
      </trkpt>
      <trkpt lat="46.31326" lon="6.12302">
        <ele>468</ele>
        <time>2020-11-06T13:40:18.976Z</time>
      </trkpt>
      <trkpt lat="46.31327" lon="6.12299">
        <ele>468</ele>
        <time>2020-11-06T13:40:19.975Z</time>
      </trkpt>
      <trkpt lat="46.31329" lon="6.12296">
        <ele>468</ele>
        <time>2020-11-06T13:40:20.976Z</time>
      </trkpt>
      <trkpt lat="46.3133" lon="6.12293">
        <ele>467</ele>
        <time>2020-11-06T13:40:21.975Z</time>
      </trkpt>
      <trkpt lat="46.31331" lon="6.12291">
        <ele>467</ele>
        <time>2020-11-06T13:40:22.976Z</time>
      </trkpt>
      <trkpt lat="46.31332" lon="6.12287">
        <ele>467</ele>
        <time>2020-11-06T13:40:23.976Z</time>
      </trkpt>
      <trkpt lat="46.31334" lon="6.12284">
        <ele>467</ele>
        <time>2020-11-06T13:40:24.976Z</time>
      </trkpt>
      <trkpt lat="46.31335" lon="6.12281">
        <ele>467</ele>
        <time>2020-11-06T13:40:25.975Z</time>
      </trkpt>
      <trkpt lat="46.31336" lon="6.12279">
        <ele>467</ele>
        <time>2020-11-06T13:40:26.975Z</time>
      </trkpt>
      <trkpt lat="46.31337" lon="6.12276">
        <ele>467</ele>
        <time>2020-11-06T13:40:27.975Z</time>
      </trkpt>
      <trkpt lat="46.31339" lon="6.12272">
        <ele>467</ele>
        <time>2020-11-06T13:40:28.976Z</time>
      </trkpt>
      <trkpt lat="46.3134" lon="6.12269">
        <ele>467</ele>
        <time>2020-11-06T13:40:29.976Z</time>
      </trkpt>
      <trkpt lat="46.31341" lon="6.12267">
        <ele>467</ele>
        <time>2020-11-06T13:40:30.975Z</time>
      </trkpt>
      <trkpt lat="46.31343" lon="6.12263">
        <ele>467</ele>
        <time>2020-11-06T13:40:31.976Z</time>
      </trkpt>
      <trkpt lat="46.31343" lon="6.1226">
        <ele>467</ele>
        <time>2020-11-06T13:40:32.976Z</time>
      </trkpt>
      <trkpt lat="46.31345" lon="6.12257">
        <ele>467</ele>
        <time>2020-11-06T13:40:33.975Z</time>
      </trkpt>
      <trkpt lat="46.31346" lon="6.12255">
        <ele>467</ele>
        <time>2020-11-06T13:40:34.975Z</time>
      </trkpt>
      <trkpt lat="46.31345" lon="6.1225">
        <ele>467</ele>
        <time>2020-11-06T13:40:35.976Z</time>
      </trkpt>
      <trkpt lat="46.31343" lon="6.12247">
        <ele>467</ele>
        <time>2020-11-06T13:40:36.975Z</time>
      </trkpt>
      <trkpt lat="46.31342" lon="6.12244">
        <ele>467</ele>
        <time>2020-11-06T13:40:37.976Z</time>
      </trkpt>
      <trkpt lat="46.3134" lon="6.12241">
        <ele>468</ele>
        <time>2020-11-06T13:40:38.975Z</time>
      </trkpt>
      <trkpt lat="46.31338" lon="6.12239">
        <ele>468</ele>
        <time>2020-11-06T13:40:39.976Z</time>
      </trkpt>
      <trkpt lat="46.31337" lon="6.12236">
        <ele>469</ele>
        <time>2020-11-06T13:40:40.976Z</time>
      </trkpt>
      <trkpt lat="46.31335" lon="6.12233">
        <ele>469</ele>
        <time>2020-11-06T13:40:41.976Z</time>
      </trkpt>
      <trkpt lat="46.31333" lon="6.12231">
        <ele>470</ele>
        <time>2020-11-06T13:40:42.975Z</time>
      </trkpt>
      <trkpt lat="46.31332" lon="6.12228">
        <ele>470</ele>
        <time>2020-11-06T13:40:43.976Z</time>
      </trkpt>
      <trkpt lat="46.3133" lon="6.12225">
        <ele>471</ele>
        <time>2020-11-06T13:40:44.976Z</time>
      </trkpt>
      <trkpt lat="46.31329" lon="6.12222">
        <ele>472</ele>
        <time>2020-11-06T13:40:45.976Z</time>
      </trkpt>
      <trkpt lat="46.31327" lon="6.1222">
        <ele>472</ele>
        <time>2020-11-06T13:40:46.975Z</time>
      </trkpt>
      <trkpt lat="46.31326" lon="6.12217">
        <ele>471</ele>
        <time>2020-11-06T13:40:47.976Z</time>
      </trkpt>
      <trkpt lat="46.31324" lon="6.12214">
        <ele>471</ele>
        <time>2020-11-06T13:40:48.976Z</time>
      </trkpt>
      <trkpt lat="46.31322" lon="6.12212">
        <ele>471</ele>
        <time>2020-11-06T13:40:49.976Z</time>
      </trkpt>
      <trkpt lat="46.31321" lon="6.12209">
        <ele>470</ele>
        <time>2020-11-06T13:40:50.976Z</time>
      </trkpt>
      <trkpt lat="46.31319" lon="6.12207">
        <ele>470</ele>
        <time>2020-11-06T13:40:51.976Z</time>
      </trkpt>
      <trkpt lat="46.31318" lon="6.12205">
        <ele>470</ele>
        <time>2020-11-06T13:40:52.975Z</time>
      </trkpt>
      <trkpt lat="46.31316" lon="6.12201">
        <ele>470</ele>
        <time>2020-11-06T13:40:53.976Z</time>
      </trkpt>
      <trkpt lat="46.31314" lon="6.12199">
        <ele>470</ele>
        <time>2020-11-06T13:40:54.975Z</time>
      </trkpt>
      <trkpt lat="46.31313" lon="6.12196">
        <ele>470</ele>
        <time>2020-11-06T13:40:55.975Z</time>
      </trkpt>
      <trkpt lat="46.31311" lon="6.12194">
        <ele>470</ele>
        <time>2020-11-06T13:40:56.976Z</time>
      </trkpt>
      <trkpt lat="46.31309" lon="6.12191">
        <ele>469</ele>
        <time>2020-11-06T13:40:57.976Z</time>
      </trkpt>
      <trkpt lat="46.31307" lon="6.12188">
        <ele>469</ele>
        <time>2020-11-06T13:40:58.976Z</time>
      </trkpt>
      <trkpt lat="46.31306" lon="6.12185">
        <ele>469</ele>
        <time>2020-11-06T13:40:59.976Z</time>
      </trkpt>
      <trkpt lat="46.31304" lon="6.12182">
        <ele>468</ele>
        <time>2020-11-06T13:41:00.976Z</time>
      </trkpt>
      <trkpt lat="46.31302" lon="6.1218">
        <ele>468</ele>
        <time>2020-11-06T13:41:01.975Z</time>
      </trkpt>
      <trkpt lat="46.31301" lon="6.12177">
        <ele>467</ele>
        <time>2020-11-06T13:41:02.976Z</time>
      </trkpt>
      <trkpt lat="46.31299" lon="6.12174">
        <ele>466</ele>
        <time>2020-11-06T13:41:03.975Z</time>
      </trkpt>
      <trkpt lat="46.31297" lon="6.12172">
        <ele>466</ele>
        <time>2020-11-06T13:41:04.976Z</time>
      </trkpt>
      <trkpt lat="46.31296" lon="6.1217">
        <ele>466</ele>
        <time>2020-11-06T13:41:05.975Z</time>
      </trkpt>
      <trkpt lat="46.31294" lon="6.12167">
        <ele>466</ele>
        <time>2020-11-06T13:41:06.975Z</time>
      </trkpt>
      <trkpt lat="46.31292" lon="6.12164">
        <ele>465</ele>
        <time>2020-11-06T13:41:07.975Z</time>
      </trkpt>
      <trkpt lat="46.3129" lon="6.12162">
        <ele>465</ele>
        <time>2020-11-06T13:41:08.976Z</time>
      </trkpt>
      <trkpt lat="46.31288" lon="6.12159">
        <ele>465</ele>
        <time>2020-11-06T13:41:09.976Z</time>
      </trkpt>
      <trkpt lat="46.31286" lon="6.12156">
        <ele>465</ele>
        <time>2020-11-06T13:41:10.975Z</time>
      </trkpt>
      <trkpt lat="46.31284" lon="6.12153">
        <ele>465</ele>
        <time>2020-11-06T13:41:11.976Z</time>
      </trkpt>
      <trkpt lat="46.31283" lon="6.1215">
        <ele>465</ele>
        <time>2020-11-06T13:41:12.976Z</time>
      </trkpt>
      <trkpt lat="46.31281" lon="6.12147">
        <ele>466</ele>
        <time>2020-11-06T13:41:13.975Z</time>
      </trkpt>
      <trkpt lat="46.31279" lon="6.12144">
        <ele>466</ele>
        <time>2020-11-06T13:41:14.976Z</time>
      </trkpt>
      <trkpt lat="46.31277" lon="6.12142">
        <ele>466</ele>
        <time>2020-11-06T13:41:15.976Z</time>
      </trkpt>
      <trkpt lat="46.31275" lon="6.1214">
        <ele>465</ele>
        <time>2020-11-06T13:41:16.975Z</time>
      </trkpt>
      <trkpt lat="46.31273" lon="6.12137">
        <ele>465</ele>
        <time>2020-11-06T13:41:17.975Z</time>
      </trkpt>
      <trkpt lat="46.31271" lon="6.12135">
        <ele>465</ele>
        <time>2020-11-06T13:41:18.976Z</time>
      </trkpt>
      <trkpt lat="46.31268" lon="6.12132">
        <ele>466</ele>
        <time>2020-11-06T13:41:19.976Z</time>
      </trkpt>
      <trkpt lat="46.31266" lon="6.1213">
        <ele>466</ele>
        <time>2020-11-06T13:41:20.975Z</time>
      </trkpt>
      <trkpt lat="46.31264" lon="6.12128">
        <ele>466</ele>
        <time>2020-11-06T13:41:21.976Z</time>
      </trkpt>
      <trkpt lat="46.31261" lon="6.12126">
        <ele>467</ele>
        <time>2020-11-06T13:41:22.976Z</time>
      </trkpt>
      <trkpt lat="46.31259" lon="6.12125">
        <ele>467</ele>
        <time>2020-11-06T13:41:23.975Z</time>
      </trkpt>
      <trkpt lat="46.31256" lon="6.12123">
        <ele>467</ele>
        <time>2020-11-06T13:41:24.975Z</time>
      </trkpt>
      <trkpt lat="46.31254" lon="6.12122">
        <ele>467</ele>
        <time>2020-11-06T13:41:25.976Z</time>
      </trkpt>
      <trkpt lat="46.31252" lon="6.12121">
        <ele>466</ele>
        <time>2020-11-06T13:41:26.976Z</time>
      </trkpt>
      <trkpt lat="46.31249" lon="6.1212">
        <ele>466</ele>
        <time>2020-11-06T13:41:27.976Z</time>
      </trkpt>
      <trkpt lat="46.31247" lon="6.12118">
        <ele>466</ele>
        <time>2020-11-06T13:41:28.975Z</time>
      </trkpt>
      <trkpt lat="46.31245" lon="6.12117">
        <ele>466</ele>
        <time>2020-11-06T13:41:29.975Z</time>
      </trkpt>
      <trkpt lat="46.31242" lon="6.12115">
        <ele>466</ele>
        <time>2020-11-06T13:41:30.976Z</time>
      </trkpt>
      <trkpt lat="46.31239" lon="6.12114">
        <ele>466</ele>
        <time>2020-11-06T13:41:31.975Z</time>
      </trkpt>
      <trkpt lat="46.31237" lon="6.12112">
        <ele>467</ele>
        <time>2020-11-06T13:41:32.975Z</time>
      </trkpt>
      <trkpt lat="46.31234" lon="6.12111">
        <ele>467</ele>
        <time>2020-11-06T13:41:33.976Z</time>
      </trkpt>
      <trkpt lat="46.31232" lon="6.1211">
        <ele>468</ele>
        <time>2020-11-06T13:41:34.976Z</time>
      </trkpt>
      <trkpt lat="46.31229" lon="6.12108">
        <ele>469</ele>
        <time>2020-11-06T13:41:35.975Z</time>
      </trkpt>
      <trkpt lat="46.31226" lon="6.12107">
        <ele>469</ele>
        <time>2020-11-06T13:41:36.976Z</time>
      </trkpt>
      <trkpt lat="46.31224" lon="6.12106">
        <ele>469</ele>
        <time>2020-11-06T13:41:37.976Z</time>
      </trkpt>
      <trkpt lat="46.31221" lon="6.12105">
        <ele>469</ele>
        <time>2020-11-06T13:41:38.976Z</time>
      </trkpt>
      <trkpt lat="46.31219" lon="6.12103">
        <ele>469</ele>
        <time>2020-11-06T13:41:39.976Z</time>
      </trkpt>
      <trkpt lat="46.31216" lon="6.12102">
        <ele>470</ele>
        <time>2020-11-06T13:41:40.975Z</time>
      </trkpt>
      <trkpt lat="46.31213" lon="6.12101">
        <ele>470</ele>
        <time>2020-11-06T13:41:41.975Z</time>
      </trkpt>
      <trkpt lat="46.3121" lon="6.12099">
        <ele>470</ele>
        <time>2020-11-06T13:41:42.976Z</time>
      </trkpt>
      <trkpt lat="46.31208" lon="6.12098">
        <ele>470</ele>
        <time>2020-11-06T13:41:43.976Z</time>
      </trkpt>
      <trkpt lat="46.31205" lon="6.12097">
        <ele>470</ele>
        <time>2020-11-06T13:41:44.976Z</time>
      </trkpt>
      <trkpt lat="46.31202" lon="6.12096">
        <ele>470</ele>
        <time>2020-11-06T13:41:45.976Z</time>
      </trkpt>
      <trkpt lat="46.312" lon="6.12095">
        <ele>470</ele>
        <time>2020-11-06T13:41:46.975Z</time>
      </trkpt>
      <trkpt lat="46.31198" lon="6.12094">
        <ele>469</ele>
        <time>2020-11-06T13:41:47.976Z</time>
      </trkpt>
      <trkpt lat="46.31196" lon="6.12093">
        <ele>469</ele>
        <time>2020-11-06T13:41:48.976Z</time>
      </trkpt>
      <trkpt lat="46.31195" lon="6.12093">
        <ele>468</ele>
        <time>2020-11-06T13:41:49.976Z</time>
      </trkpt>
      <trkpt lat="46.31193" lon="6.12092">
        <ele>468</ele>
        <time>2020-11-06T13:41:50.975Z</time>
      </trkpt>
      <trkpt lat="46.31191" lon="6.12091">
        <ele>467</ele>
        <time>2020-11-06T13:41:51.976Z</time>
      </trkpt>
      <trkpt lat="46.31189" lon="6.12089">
        <ele>467</ele>
        <time>2020-11-06T13:41:52.976Z</time>
      </trkpt>
      <trkpt lat="46.31188" lon="6.12089">
        <ele>466</ele>
        <time>2020-11-06T13:41:53.976Z</time>
      </trkpt>
      <trkpt lat="46.31186" lon="6.12088">
        <ele>466</ele>
        <time>2020-11-06T13:41:54.976Z</time>
      </trkpt>
      <trkpt lat="46.31183" lon="6.12088">
        <ele>465</ele>
        <time>2020-11-06T13:41:55.976Z</time>
      </trkpt>
      <trkpt lat="46.31181" lon="6.12087">
        <ele>464</ele>
        <time>2020-11-06T13:41:56.975Z</time>
      </trkpt>
      <trkpt lat="46.31179" lon="6.12086">
        <ele>464</ele>
        <time>2020-11-06T13:41:57.975Z</time>
      </trkpt>
      <trkpt lat="46.31177" lon="6.12086">
        <ele>464</ele>
        <time>2020-11-06T13:41:58.976Z</time>
      </trkpt>
      <trkpt lat="46.31176" lon="6.12085">
        <ele>463</ele>
        <time>2020-11-06T13:41:59.976Z</time>
      </trkpt>
      <trkpt lat="46.31174" lon="6.12084">
        <ele>463</ele>
        <time>2020-11-06T13:42:00.976Z</time>
      </trkpt>
      <trkpt lat="46.31172" lon="6.12082">
        <ele>463</ele>
        <time>2020-11-06T13:42:01.975Z</time>
      </trkpt>
      <trkpt lat="46.3117" lon="6.12079">
        <ele>463</ele>
        <time>2020-11-06T13:42:02.976Z</time>
      </trkpt>
      <trkpt lat="46.31167" lon="6.12076">
        <ele>464</ele>
        <time>2020-11-06T13:42:03.976Z</time>
      </trkpt>
      <trkpt lat="46.31166" lon="6.12073">
        <ele>465</ele>
        <time>2020-11-06T13:42:04.976Z</time>
      </trkpt>
      <trkpt lat="46.31165" lon="6.1207">
        <ele>465</ele>
        <time>2020-11-06T13:42:05.976Z</time>
      </trkpt>
      <trkpt lat="46.31163" lon="6.12067">
        <ele>465</ele>
        <time>2020-11-06T13:42:06.975Z</time>
      </trkpt>
      <trkpt lat="46.31162" lon="6.12063">
        <ele>465</ele>
        <time>2020-11-06T13:42:07.976Z</time>
      </trkpt>
      <trkpt lat="46.31162" lon="6.1206">
        <ele>465</ele>
        <time>2020-11-06T13:42:08.975Z</time>
      </trkpt>
      <trkpt lat="46.31161" lon="6.12057">
        <ele>464</ele>
        <time>2020-11-06T13:42:09.976Z</time>
      </trkpt>
      <trkpt lat="46.3116" lon="6.12054">
        <ele>464</ele>
        <time>2020-11-06T13:42:10.975Z</time>
      </trkpt>
      <trkpt lat="46.3116" lon="6.12051">
        <ele>463</ele>
        <time>2020-11-06T13:42:11.976Z</time>
      </trkpt>
      <trkpt lat="46.31161" lon="6.12048">
        <ele>463</ele>
        <time>2020-11-06T13:42:12.976Z</time>
      </trkpt>
      <trkpt lat="46.31161" lon="6.12044">
        <ele>462</ele>
        <time>2020-11-06T13:42:13.976Z</time>
      </trkpt>
      <trkpt lat="46.31162" lon="6.12041">
        <ele>461</ele>
        <time>2020-11-06T13:42:14.975Z</time>
      </trkpt>
      <trkpt lat="46.31162" lon="6.12038">
        <ele>461</ele>
        <time>2020-11-06T13:42:15.976Z</time>
      </trkpt>
      <trkpt lat="46.31164" lon="6.12034">
        <ele>461</ele>
        <time>2020-11-06T13:42:16.976Z</time>
      </trkpt>
      <trkpt lat="46.31164" lon="6.1203">
        <ele>460</ele>
        <time>2020-11-06T13:42:17.975Z</time>
      </trkpt>
      <trkpt lat="46.31165" lon="6.12026">
        <ele>460</ele>
        <time>2020-11-06T13:42:18.976Z</time>
      </trkpt>
      <trkpt lat="46.31165" lon="6.12023">
        <ele>459</ele>
        <time>2020-11-06T13:42:19.976Z</time>
      </trkpt>
      <trkpt lat="46.31165" lon="6.12021">
        <ele>459</ele>
        <time>2020-11-06T13:42:20.976Z</time>
      </trkpt>
      <trkpt lat="46.31165" lon="6.12019">
        <ele>459</ele>
        <time>2020-11-06T13:42:21.976Z</time>
      </trkpt>
      <trkpt lat="46.31165" lon="6.12018">
        <ele>458</ele>
        <time>2020-11-06T13:42:22.976Z</time>
      </trkpt>
      <trkpt lat="46.31164" lon="6.12016">
        <ele>458</ele>
        <time>2020-11-06T13:42:23.975Z</time>
      </trkpt>
      <trkpt lat="46.31163" lon="6.12015">
        <ele>458</ele>
        <time>2020-11-06T13:42:24.975Z</time>
      </trkpt>
      <trkpt lat="46.31162" lon="6.12014">
        <ele>457</ele>
        <time>2020-11-06T13:42:25.975Z</time>
      </trkpt>
      <trkpt lat="46.3116" lon="6.12013">
        <ele>457</ele>
        <time>2020-11-06T13:42:26.976Z</time>
      </trkpt>
      <trkpt lat="46.31158" lon="6.12011">
        <ele>458</ele>
        <time>2020-11-06T13:42:27.976Z</time>
      </trkpt>
      <trkpt lat="46.31155" lon="6.1201">
        <ele>458</ele>
        <time>2020-11-06T13:42:28.976Z</time>
      </trkpt>
      <trkpt lat="46.31153" lon="6.12011">
        <ele>459</ele>
        <time>2020-11-06T13:42:29.976Z</time>
      </trkpt>
      <trkpt lat="46.3115" lon="6.12011">
        <ele>459</ele>
        <time>2020-11-06T13:42:30.976Z</time>
      </trkpt>
      <trkpt lat="46.31148" lon="6.12011">
        <ele>460</ele>
        <time>2020-11-06T13:42:31.976Z</time>
      </trkpt>
      <trkpt lat="46.31146" lon="6.12011">
        <ele>460</ele>
        <time>2020-11-06T13:42:32.976Z</time>
      </trkpt>
      <trkpt lat="46.31144" lon="6.12012">
        <ele>461</ele>
        <time>2020-11-06T13:42:33.975Z</time>
      </trkpt>
      <trkpt lat="46.31142" lon="6.12013">
        <ele>461</ele>
        <time>2020-11-06T13:42:34.976Z</time>
      </trkpt>
      <trkpt lat="46.3114" lon="6.12013">
        <ele>461</ele>
        <time>2020-11-06T13:42:35.976Z</time>
      </trkpt>
      <trkpt lat="46.31137" lon="6.12014">
        <ele>461</ele>
        <time>2020-11-06T13:42:36.975Z</time>
      </trkpt>
      <trkpt lat="46.31136" lon="6.12015">
        <ele>461</ele>
        <time>2020-11-06T13:42:37.976Z</time>
      </trkpt>
      <trkpt lat="46.31134" lon="6.12016">
        <ele>461</ele>
        <time>2020-11-06T13:42:38.975Z</time>
      </trkpt>
      <trkpt lat="46.31132" lon="6.12017">
        <ele>461</ele>
        <time>2020-11-06T13:42:39.975Z</time>
      </trkpt>
      <trkpt lat="46.31131" lon="6.12018">
        <ele>461</ele>
        <time>2020-11-06T13:42:40.976Z</time>
      </trkpt>
      <trkpt lat="46.3113" lon="6.12018">
        <ele>460</ele>
        <time>2020-11-06T13:42:41.975Z</time>
      </trkpt>
      <trkpt lat="46.31128" lon="6.12019">
        <ele>460</ele>
        <time>2020-11-06T13:42:42.976Z</time>
      </trkpt>
      <trkpt lat="46.31127" lon="6.1202">
        <ele>460</ele>
        <time>2020-11-06T13:42:43.975Z</time>
      </trkpt>
      <trkpt lat="46.31125" lon="6.12021">
        <ele>460</ele>
        <time>2020-11-06T13:42:44.976Z</time>
      </trkpt>
      <trkpt lat="46.31123" lon="6.12021">
        <ele>459</ele>
        <time>2020-11-06T13:42:45.975Z</time>
      </trkpt>
      <trkpt lat="46.31121" lon="6.1202">
        <ele>459</ele>
        <time>2020-11-06T13:42:46.975Z</time>
      </trkpt>
      <trkpt lat="46.31118" lon="6.12021">
        <ele>460</ele>
        <time>2020-11-06T13:42:47.975Z</time>
      </trkpt>
      <trkpt lat="46.31116" lon="6.12022">
        <ele>460</ele>
        <time>2020-11-06T13:42:48.975Z</time>
      </trkpt>
      <trkpt lat="46.31115" lon="6.12022">
        <ele>460</ele>
        <time>2020-11-06T13:42:49.975Z</time>
      </trkpt>
      <trkpt lat="46.31114" lon="6.12023">
        <ele>460</ele>
        <time>2020-11-06T13:42:50.975Z</time>
      </trkpt>
      <trkpt lat="46.31112" lon="6.12023">
        <ele>461</ele>
        <time>2020-11-06T13:42:51.976Z</time>
      </trkpt>
      <trkpt lat="46.31111" lon="6.12023">
        <ele>461</ele>
        <time>2020-11-06T13:42:52.976Z</time>
      </trkpt>
      <trkpt lat="46.3111" lon="6.12023">
        <ele>462</ele>
        <time>2020-11-06T13:42:53.976Z</time>
      </trkpt>
      <trkpt lat="46.31108" lon="6.12023">
        <ele>462</ele>
        <time>2020-11-06T13:42:54.976Z</time>
      </trkpt>
      <trkpt lat="46.31106" lon="6.12022">
        <ele>462</ele>
        <time>2020-11-06T13:42:55.975Z</time>
      </trkpt>
      <trkpt lat="46.31105" lon="6.12022">
        <ele>462</ele>
        <time>2020-11-06T13:42:56.975Z</time>
      </trkpt>
      <trkpt lat="46.31103" lon="6.12021">
        <ele>462</ele>
        <time>2020-11-06T13:42:57.976Z</time>
      </trkpt>
      <trkpt lat="46.31102" lon="6.12021">
        <ele>463</ele>
        <time>2020-11-06T13:42:58.975Z</time>
      </trkpt>
      <trkpt lat="46.31101" lon="6.12021">
        <ele>463</ele>
        <time>2020-11-06T13:42:59.976Z</time>
      </trkpt>
      <trkpt lat="46.31101" lon="6.12021">
        <ele>463</ele>
        <time>2020-11-06T13:43:00.975Z</time>
      </trkpt>
      <trkpt lat="46.311" lon="6.1202">
        <ele>463</ele>
        <time>2020-11-06T13:43:01.975Z</time>
      </trkpt>
      <trkpt lat="46.311" lon="6.1202">
        <ele>463</ele>
        <time>2020-11-06T13:43:02.976Z</time>
      </trkpt>
      <trkpt lat="46.31099" lon="6.1202">
        <ele>463</ele>
        <time>2020-11-06T13:43:03.976Z</time>
      </trkpt>
      <trkpt lat="46.31098" lon="6.1202">
        <ele>463</ele>
        <time>2020-11-06T13:43:04.976Z</time>
      </trkpt>
      <trkpt lat="46.31097" lon="6.1202">
        <ele>463</ele>
        <time>2020-11-06T13:43:05.976Z</time>
      </trkpt>
      <trkpt lat="46.31095" lon="6.1202">
        <ele>463</ele>
        <time>2020-11-06T13:43:06.976Z</time>
      </trkpt>
      <trkpt lat="46.31094" lon="6.1202">
        <ele>462</ele>
        <time>2020-11-06T13:43:07.976Z</time>
      </trkpt>
      <trkpt lat="46.31093" lon="6.12019">
        <ele>462</ele>
        <time>2020-11-06T13:43:08.976Z</time>
      </trkpt>
      <trkpt lat="46.31092" lon="6.12019">
        <ele>462</ele>
        <time>2020-11-06T13:43:09.976Z</time>
      </trkpt>
      <trkpt lat="46.31091" lon="6.12019">
        <ele>462</ele>
        <time>2020-11-06T13:43:10.976Z</time>
      </trkpt>
      <trkpt lat="46.3109" lon="6.12018">
        <ele>461</ele>
        <time>2020-11-06T13:43:11.976Z</time>
      </trkpt>
      <trkpt lat="46.31087" lon="6.12018">
        <ele>461</ele>
        <time>2020-11-06T13:43:12.976Z</time>
      </trkpt>
      <trkpt lat="46.31085" lon="6.12016">
        <ele>461</ele>
        <time>2020-11-06T13:43:13.976Z</time>
      </trkpt>
      <trkpt lat="46.31084" lon="6.12014">
        <ele>461</ele>
        <time>2020-11-06T13:43:14.975Z</time>
      </trkpt>
      <trkpt lat="46.31082" lon="6.12012">
        <ele>461</ele>
        <time>2020-11-06T13:43:15.976Z</time>
      </trkpt>
      <trkpt lat="46.3108" lon="6.12012">
        <ele>462</ele>
        <time>2020-11-06T13:43:16.975Z</time>
      </trkpt>
      <trkpt lat="46.31078" lon="6.12009">
        <ele>462</ele>
        <time>2020-11-06T13:43:17.976Z</time>
      </trkpt>
      <trkpt lat="46.31075" lon="6.12007">
        <ele>462</ele>
        <time>2020-11-06T13:43:18.975Z</time>
      </trkpt>
      <trkpt lat="46.31074" lon="6.12005">
        <ele>462</ele>
        <time>2020-11-06T13:43:19.975Z</time>
      </trkpt>
      <trkpt lat="46.31072" lon="6.12003">
        <ele>462</ele>
        <time>2020-11-06T13:43:20.975Z</time>
      </trkpt>
      <trkpt lat="46.31071" lon="6.12002">
        <ele>462</ele>
        <time>2020-11-06T13:43:21.975Z</time>
      </trkpt>
      <trkpt lat="46.3107" lon="6.12001">
        <ele>461</ele>
        <time>2020-11-06T13:43:22.976Z</time>
      </trkpt>
      <trkpt lat="46.31069" lon="6.12">
        <ele>461</ele>
        <time>2020-11-06T13:43:23.976Z</time>
      </trkpt>
      <trkpt lat="46.31068" lon="6.11999">
        <ele>461</ele>
        <time>2020-11-06T13:43:24.976Z</time>
      </trkpt>
      <trkpt lat="46.31068" lon="6.11997">
        <ele>460</ele>
        <time>2020-11-06T13:43:25.976Z</time>
      </trkpt>
      <trkpt lat="46.31067" lon="6.11995">
        <ele>460</ele>
        <time>2020-11-06T13:43:26.976Z</time>
      </trkpt>
      <trkpt lat="46.31066" lon="6.11992">
        <ele>460</ele>
        <time>2020-11-06T13:43:27.976Z</time>
      </trkpt>
      <trkpt lat="46.31064" lon="6.11989">
        <ele>459</ele>
        <time>2020-11-06T13:43:28.975Z</time>
      </trkpt>
      <trkpt lat="46.31062" lon="6.11987">
        <ele>459</ele>
        <time>2020-11-06T13:43:29.976Z</time>
      </trkpt>
      <trkpt lat="46.31061" lon="6.11985">
        <ele>459</ele>
        <time>2020-11-06T13:43:30.976Z</time>
      </trkpt>
      <trkpt lat="46.3106" lon="6.11983">
        <ele>459</ele>
        <time>2020-11-06T13:43:31.975Z</time>
      </trkpt>
      <trkpt lat="46.31057" lon="6.11982">
        <ele>459</ele>
        <time>2020-11-06T13:43:32.975Z</time>
      </trkpt>
      <trkpt lat="46.31055" lon="6.11981">
        <ele>459</ele>
        <time>2020-11-06T13:43:33.976Z</time>
      </trkpt>
      <trkpt lat="46.31053" lon="6.11979">
        <ele>460</ele>
        <time>2020-11-06T13:43:34.976Z</time>
      </trkpt>
      <trkpt lat="46.3105" lon="6.11979">
        <ele>462</ele>
        <time>2020-11-06T13:43:35.976Z</time>
      </trkpt>
      <trkpt lat="46.31048" lon="6.1198">
        <ele>462</ele>
        <time>2020-11-06T13:43:36.975Z</time>
      </trkpt>
      <trkpt lat="46.31046" lon="6.11982">
        <ele>463</ele>
        <time>2020-11-06T13:43:37.975Z</time>
      </trkpt>
      <trkpt lat="46.31045" lon="6.11983">
        <ele>463</ele>
        <time>2020-11-06T13:43:38.976Z</time>
      </trkpt>
      <trkpt lat="46.31043" lon="6.11985">
        <ele>463</ele>
        <time>2020-11-06T13:43:39.976Z</time>
      </trkpt>
      <trkpt lat="46.31042" lon="6.11986">
        <ele>463</ele>
        <time>2020-11-06T13:43:40.976Z</time>
      </trkpt>
      <trkpt lat="46.3104" lon="6.11988">
        <ele>463</ele>
        <time>2020-11-06T13:43:41.976Z</time>
      </trkpt>
      <trkpt lat="46.31039" lon="6.1199">
        <ele>463</ele>
        <time>2020-11-06T13:43:42.975Z</time>
      </trkpt>
      <trkpt lat="46.31037" lon="6.11991">
        <ele>463</ele>
        <time>2020-11-06T13:43:43.976Z</time>
      </trkpt>
      <trkpt lat="46.31035" lon="6.11991">
        <ele>463</ele>
        <time>2020-11-06T13:43:44.976Z</time>
      </trkpt>
      <trkpt lat="46.31032" lon="6.11991">
        <ele>463</ele>
        <time>2020-11-06T13:43:45.975Z</time>
      </trkpt>
      <trkpt lat="46.3103" lon="6.11991">
        <ele>462</ele>
        <time>2020-11-06T13:43:46.975Z</time>
      </trkpt>
      <trkpt lat="46.31028" lon="6.11992">
        <ele>462</ele>
        <time>2020-11-06T13:43:47.976Z</time>
      </trkpt>
      <trkpt lat="46.31027" lon="6.11993">
        <ele>462</ele>
        <time>2020-11-06T13:43:48.976Z</time>
      </trkpt>
      <trkpt lat="46.31025" lon="6.11994">
        <ele>462</ele>
        <time>2020-11-06T13:43:49.976Z</time>
      </trkpt>
      <trkpt lat="46.31023" lon="6.11995">
        <ele>461</ele>
        <time>2020-11-06T13:43:50.975Z</time>
      </trkpt>
      <trkpt lat="46.31021" lon="6.11996">
        <ele>461</ele>
        <time>2020-11-06T13:43:51.976Z</time>
      </trkpt>
      <trkpt lat="46.3102" lon="6.11996">
        <ele>461</ele>
        <time>2020-11-06T13:43:52.976Z</time>
      </trkpt>
      <trkpt lat="46.31019" lon="6.11996">
        <ele>461</ele>
        <time>2020-11-06T13:43:53.975Z</time>
      </trkpt>
      <trkpt lat="46.31017" lon="6.11996">
        <ele>460</ele>
        <time>2020-11-06T13:43:54.975Z</time>
      </trkpt>
      <trkpt lat="46.31015" lon="6.11996">
        <ele>460</ele>
        <time>2020-11-06T13:43:55.975Z</time>
      </trkpt>
      <trkpt lat="46.31013" lon="6.11996">
        <ele>460</ele>
        <time>2020-11-06T13:43:56.976Z</time>
      </trkpt>
      <trkpt lat="46.31012" lon="6.11996">
        <ele>460</ele>
        <time>2020-11-06T13:43:57.975Z</time>
      </trkpt>
      <trkpt lat="46.31009" lon="6.11997">
        <ele>461</ele>
        <time>2020-11-06T13:43:58.975Z</time>
      </trkpt>
      <trkpt lat="46.31007" lon="6.11997">
        <ele>461</ele>
        <time>2020-11-06T13:43:59.975Z</time>
      </trkpt>
      <trkpt lat="46.31004" lon="6.11999">
        <ele>461</ele>
        <time>2020-11-06T13:44:00.976Z</time>
      </trkpt>
      <trkpt lat="46.31002" lon="6.12001">
        <ele>461</ele>
        <time>2020-11-06T13:44:01.976Z</time>
      </trkpt>
      <trkpt lat="46.31001" lon="6.12003">
        <ele>461</ele>
        <time>2020-11-06T13:44:02.975Z</time>
      </trkpt>
      <trkpt lat="46.31001" lon="6.12005">
        <ele>461</ele>
        <time>2020-11-06T13:44:03.975Z</time>
      </trkpt>
      <trkpt lat="46.31001" lon="6.12007">
        <ele>460</ele>
        <time>2020-11-06T13:44:04.975Z</time>
      </trkpt>
      <trkpt lat="46.31001" lon="6.12008">
        <ele>460</ele>
        <time>2020-11-06T13:44:05.976Z</time>
      </trkpt>
      <trkpt lat="46.30999" lon="6.12009">
        <ele>459</ele>
        <time>2020-11-06T13:44:06.976Z</time>
      </trkpt>
      <trkpt lat="46.30998" lon="6.1201">
        <ele>459</ele>
        <time>2020-11-06T13:44:07.976Z</time>
      </trkpt>
      <trkpt lat="46.30996" lon="6.12012">
        <ele>459</ele>
        <time>2020-11-06T13:44:08.976Z</time>
      </trkpt>
      <trkpt lat="46.30994" lon="6.12014">
        <ele>459</ele>
        <time>2020-11-06T13:44:09.975Z</time>
      </trkpt>
      <trkpt lat="46.30993" lon="6.12015">
        <ele>459</ele>
        <time>2020-11-06T13:44:10.975Z</time>
      </trkpt>
      <trkpt lat="46.30992" lon="6.12017">
        <ele>459</ele>
        <time>2020-11-06T13:44:11.976Z</time>
      </trkpt>
      <trkpt lat="46.3099" lon="6.12019">
        <ele>460</ele>
        <time>2020-11-06T13:44:12.975Z</time>
      </trkpt>
      <trkpt lat="46.30989" lon="6.12021">
        <ele>460</ele>
        <time>2020-11-06T13:44:13.975Z</time>
      </trkpt>
      <trkpt lat="46.30987" lon="6.12022">
        <ele>461</ele>
        <time>2020-11-06T13:44:14.976Z</time>
      </trkpt>
      <trkpt lat="46.30985" lon="6.12024">
        <ele>461</ele>
        <time>2020-11-06T13:44:15.976Z</time>
      </trkpt>
      <trkpt lat="46.30983" lon="6.12025">
        <ele>462</ele>
        <time>2020-11-06T13:44:16.976Z</time>
      </trkpt>
      <trkpt lat="46.30981" lon="6.12026">
        <ele>462</ele>
        <time>2020-11-06T13:44:17.976Z</time>
      </trkpt>
      <trkpt lat="46.3098" lon="6.12027">
        <ele>463</ele>
        <time>2020-11-06T13:44:18.975Z</time>
      </trkpt>
      <trkpt lat="46.30979" lon="6.12027">
        <ele>463</ele>
        <time>2020-11-06T13:44:19.975Z</time>
      </trkpt>
      <trkpt lat="46.30978" lon="6.12029">
        <ele>464</ele>
        <time>2020-11-06T13:44:20.975Z</time>
      </trkpt>
      <trkpt lat="46.30977" lon="6.1203">
        <ele>464</ele>
        <time>2020-11-06T13:44:21.975Z</time>
      </trkpt>
      <trkpt lat="46.30975" lon="6.12031">
        <ele>464</ele>
        <time>2020-11-06T13:44:22.975Z</time>
      </trkpt>
      <trkpt lat="46.30972" lon="6.12032">
        <ele>464</ele>
        <time>2020-11-06T13:44:23.975Z</time>
      </trkpt>
      <trkpt lat="46.3097" lon="6.12033">
        <ele>464</ele>
        <time>2020-11-06T13:44:24.975Z</time>
      </trkpt>
      <trkpt lat="46.30968" lon="6.12033">
        <ele>464</ele>
        <time>2020-11-06T13:44:25.976Z</time>
      </trkpt>
      <trkpt lat="46.30966" lon="6.12032">
        <ele>464</ele>
        <time>2020-11-06T13:44:26.975Z</time>
      </trkpt>
      <trkpt lat="46.30964" lon="6.12029">
        <ele>463</ele>
        <time>2020-11-06T13:44:27.975Z</time>
      </trkpt>
      <trkpt lat="46.30962" lon="6.12027">
        <ele>463</ele>
        <time>2020-11-06T13:44:28.975Z</time>
      </trkpt>
      <trkpt lat="46.30961" lon="6.12025">
        <ele>463</ele>
        <time>2020-11-06T13:44:29.975Z</time>
      </trkpt>
      <trkpt lat="46.30959" lon="6.12023">
        <ele>463</ele>
        <time>2020-11-06T13:44:30.975Z</time>
      </trkpt>
      <trkpt lat="46.30959" lon="6.1202">
        <ele>463</ele>
        <time>2020-11-06T13:44:31.975Z</time>
      </trkpt>
      <trkpt lat="46.30957" lon="6.12018">
        <ele>463</ele>
        <time>2020-11-06T13:44:32.975Z</time>
      </trkpt>
      <trkpt lat="46.30955" lon="6.12015">
        <ele>463</ele>
        <time>2020-11-06T13:44:33.975Z</time>
      </trkpt>
      <trkpt lat="46.30954" lon="6.12012">
        <ele>463</ele>
        <time>2020-11-06T13:44:34.975Z</time>
      </trkpt>
      <trkpt lat="46.30952" lon="6.1201">
        <ele>463</ele>
        <time>2020-11-06T13:44:35.975Z</time>
      </trkpt>
      <trkpt lat="46.3095" lon="6.12008">
        <ele>463</ele>
        <time>2020-11-06T13:44:36.975Z</time>
      </trkpt>
      <trkpt lat="46.30947" lon="6.12007">
        <ele>463</ele>
        <time>2020-11-06T13:44:37.975Z</time>
      </trkpt>
      <trkpt lat="46.30945" lon="6.12006">
        <ele>463</ele>
        <time>2020-11-06T13:44:38.975Z</time>
      </trkpt>
      <trkpt lat="46.30943" lon="6.12005">
        <ele>463</ele>
        <time>2020-11-06T13:44:39.976Z</time>
      </trkpt>
      <trkpt lat="46.30941" lon="6.12005">
        <ele>463</ele>
        <time>2020-11-06T13:44:40.976Z</time>
      </trkpt>
      <trkpt lat="46.30939" lon="6.12005">
        <ele>463</ele>
        <time>2020-11-06T13:44:41.976Z</time>
      </trkpt>
      <trkpt lat="46.30937" lon="6.12005">
        <ele>463</ele>
        <time>2020-11-06T13:44:42.975Z</time>
      </trkpt>
      <trkpt lat="46.30935" lon="6.12005">
        <ele>463</ele>
        <time>2020-11-06T13:44:43.976Z</time>
      </trkpt>
      <trkpt lat="46.30932" lon="6.12005">
        <ele>463</ele>
        <time>2020-11-06T13:44:44.976Z</time>
      </trkpt>
      <trkpt lat="46.30929" lon="6.12005">
        <ele>463</ele>
        <time>2020-11-06T13:44:45.976Z</time>
      </trkpt>
      <trkpt lat="46.30927" lon="6.12006">
        <ele>463</ele>
        <time>2020-11-06T13:44:46.976Z</time>
      </trkpt>
      <trkpt lat="46.30925" lon="6.12006">
        <ele>463</ele>
        <time>2020-11-06T13:44:47.976Z</time>
      </trkpt>
      <trkpt lat="46.30922" lon="6.12006">
        <ele>463</ele>
        <time>2020-11-06T13:44:48.976Z</time>
      </trkpt>
      <trkpt lat="46.3092" lon="6.12006">
        <ele>463</ele>
        <time>2020-11-06T13:44:49.975Z</time>
      </trkpt>
      <trkpt lat="46.30918" lon="6.12006">
        <ele>463</ele>
        <time>2020-11-06T13:44:50.976Z</time>
      </trkpt>
      <trkpt lat="46.30916" lon="6.12006">
        <ele>462</ele>
        <time>2020-11-06T13:44:51.976Z</time>
      </trkpt>
      <trkpt lat="46.30914" lon="6.12007">
        <ele>462</ele>
        <time>2020-11-06T13:44:52.976Z</time>
      </trkpt>
      <trkpt lat="46.30911" lon="6.12007">
        <ele>461</ele>
        <time>2020-11-06T13:44:53.976Z</time>
      </trkpt>
      <trkpt lat="46.30909" lon="6.12007">
        <ele>461</ele>
        <time>2020-11-06T13:44:54.975Z</time>
      </trkpt>
      <trkpt lat="46.30907" lon="6.12008">
        <ele>461</ele>
        <time>2020-11-06T13:44:55.975Z</time>
      </trkpt>
      <trkpt lat="46.30904" lon="6.12009">
        <ele>461</ele>
        <time>2020-11-06T13:44:56.975Z</time>
      </trkpt>
      <trkpt lat="46.30902" lon="6.1201">
        <ele>461</ele>
        <time>2020-11-06T13:44:57.976Z</time>
      </trkpt>
      <trkpt lat="46.30899" lon="6.1201">
        <ele>461</ele>
        <time>2020-11-06T13:44:58.976Z</time>
      </trkpt>
      <trkpt lat="46.30897" lon="6.1201">
        <ele>460</ele>
        <time>2020-11-06T13:44:59.975Z</time>
      </trkpt>
      <trkpt lat="46.30894" lon="6.1201">
        <ele>460</ele>
        <time>2020-11-06T13:45:00.976Z</time>
      </trkpt>
      <trkpt lat="46.30891" lon="6.1201">
        <ele>460</ele>
        <time>2020-11-06T13:45:01.976Z</time>
      </trkpt>
      <trkpt lat="46.30889" lon="6.1201">
        <ele>460</ele>
        <time>2020-11-06T13:45:02.976Z</time>
      </trkpt>
      <trkpt lat="46.30886" lon="6.1201">
        <ele>460</ele>
        <time>2020-11-06T13:45:03.976Z</time>
      </trkpt>
      <trkpt lat="46.30884" lon="6.1201">
        <ele>460</ele>
        <time>2020-11-06T13:45:04.975Z</time>
      </trkpt>
      <trkpt lat="46.30882" lon="6.1201">
        <ele>460</ele>
        <time>2020-11-06T13:45:05.975Z</time>
      </trkpt>
      <trkpt lat="46.30879" lon="6.1201">
        <ele>460</ele>
        <time>2020-11-06T13:45:06.976Z</time>
      </trkpt>
      <trkpt lat="46.30877" lon="6.1201">
        <ele>460</ele>
        <time>2020-11-06T13:45:07.976Z</time>
      </trkpt>
      <trkpt lat="46.30875" lon="6.1201">
        <ele>460</ele>
        <time>2020-11-06T13:45:08.976Z</time>
      </trkpt>
      <trkpt lat="46.30873" lon="6.1201">
        <ele>460</ele>
        <time>2020-11-06T13:45:09.975Z</time>
      </trkpt>
      <trkpt lat="46.30871" lon="6.1201">
        <ele>460</ele>
        <time>2020-11-06T13:45:10.976Z</time>
      </trkpt>
      <trkpt lat="46.30869" lon="6.12009">
        <ele>460</ele>
        <time>2020-11-06T13:45:11.975Z</time>
      </trkpt>
      <trkpt lat="46.30866" lon="6.12009">
        <ele>460</ele>
        <time>2020-11-06T13:45:12.976Z</time>
      </trkpt>
      <trkpt lat="46.30864" lon="6.12008">
        <ele>460</ele>
        <time>2020-11-06T13:45:13.976Z</time>
      </trkpt>
      <trkpt lat="46.30861" lon="6.12007">
        <ele>460</ele>
        <time>2020-11-06T13:45:14.976Z</time>
      </trkpt>
      <trkpt lat="46.30859" lon="6.12007">
        <ele>460</ele>
        <time>2020-11-06T13:45:15.975Z</time>
      </trkpt>
      <trkpt lat="46.30855" lon="6.12005">
        <ele>460</ele>
        <time>2020-11-06T13:45:16.976Z</time>
      </trkpt>
      <trkpt lat="46.30851" lon="6.12003">
        <ele>460</ele>
        <time>2020-11-06T13:45:17.975Z</time>
      </trkpt>
      <trkpt lat="46.30848" lon="6.12002">
        <ele>460</ele>
        <time>2020-11-06T13:45:18.976Z</time>
      </trkpt>
      <trkpt lat="46.30845" lon="6.12001">
        <ele>460</ele>
        <time>2020-11-06T13:45:19.976Z</time>
      </trkpt>
      <trkpt lat="46.30842" lon="6.12">
        <ele>460</ele>
        <time>2020-11-06T13:45:20.976Z</time>
      </trkpt>
      <trkpt lat="46.30841" lon="6.11999">
        <ele>460</ele>
        <time>2020-11-06T13:45:21.975Z</time>
      </trkpt>
      <trkpt lat="46.30839" lon="6.11997">
        <ele>460</ele>
        <time>2020-11-06T13:45:22.976Z</time>
      </trkpt>
      <trkpt lat="46.30837" lon="6.11996">
        <ele>460</ele>
        <time>2020-11-06T13:45:23.976Z</time>
      </trkpt>
      <trkpt lat="46.30836" lon="6.11994">
        <ele>460</ele>
        <time>2020-11-06T13:45:24.976Z</time>
      </trkpt>
      <trkpt lat="46.30835" lon="6.11991">
        <ele>460</ele>
        <time>2020-11-06T13:45:25.975Z</time>
      </trkpt>
      <trkpt lat="46.30833" lon="6.11988">
        <ele>459</ele>
        <time>2020-11-06T13:45:26.975Z</time>
      </trkpt>
      <trkpt lat="46.30832" lon="6.11986">
        <ele>459</ele>
        <time>2020-11-06T13:45:27.976Z</time>
      </trkpt>
      <trkpt lat="46.30829" lon="6.11984">
        <ele>459</ele>
        <time>2020-11-06T13:45:28.976Z</time>
      </trkpt>
      <trkpt lat="46.30827" lon="6.11982">
        <ele>459</ele>
        <time>2020-11-06T13:45:29.976Z</time>
      </trkpt>
      <trkpt lat="46.30826" lon="6.1198">
        <ele>459</ele>
        <time>2020-11-06T13:45:30.976Z</time>
      </trkpt>
      <trkpt lat="46.30824" lon="6.11979">
        <ele>458</ele>
        <time>2020-11-06T13:45:31.976Z</time>
      </trkpt>
      <trkpt lat="46.30823" lon="6.11977">
        <ele>458</ele>
        <time>2020-11-06T13:45:32.976Z</time>
      </trkpt>
      <trkpt lat="46.30822" lon="6.11976">
        <ele>458</ele>
        <time>2020-11-06T13:45:33.975Z</time>
      </trkpt>
      <trkpt lat="46.3082" lon="6.11974">
        <ele>458</ele>
        <time>2020-11-06T13:45:34.976Z</time>
      </trkpt>
      <trkpt lat="46.30818" lon="6.11972">
        <ele>458</ele>
        <time>2020-11-06T13:45:35.976Z</time>
      </trkpt>
      <trkpt lat="46.30816" lon="6.1197">
        <ele>458</ele>
        <time>2020-11-06T13:45:36.976Z</time>
      </trkpt>
      <trkpt lat="46.30814" lon="6.11968">
        <ele>458</ele>
        <time>2020-11-06T13:45:37.976Z</time>
      </trkpt>
      <trkpt lat="46.30811" lon="6.11967">
        <ele>458</ele>
        <time>2020-11-06T13:45:38.975Z</time>
      </trkpt>
      <trkpt lat="46.30809" lon="6.11965">
        <ele>458</ele>
        <time>2020-11-06T13:45:39.976Z</time>
      </trkpt>
      <trkpt lat="46.30807" lon="6.11963">
        <ele>458</ele>
        <time>2020-11-06T13:45:40.976Z</time>
      </trkpt>
      <trkpt lat="46.30805" lon="6.11962">
        <ele>457</ele>
        <time>2020-11-06T13:45:41.975Z</time>
      </trkpt>
      <trkpt lat="46.30804" lon="6.1196">
        <ele>457</ele>
        <time>2020-11-06T13:45:42.976Z</time>
      </trkpt>
      <trkpt lat="46.30802" lon="6.11959">
        <ele>456</ele>
        <time>2020-11-06T13:45:43.976Z</time>
      </trkpt>
      <trkpt lat="46.30801" lon="6.11955">
        <ele>456</ele>
        <time>2020-11-06T13:45:44.976Z</time>
      </trkpt>
      <trkpt lat="46.30799" lon="6.11951">
        <ele>456</ele>
        <time>2020-11-06T13:45:45.975Z</time>
      </trkpt>
      <trkpt lat="46.30798" lon="6.11947">
        <ele>456</ele>
        <time>2020-11-06T13:45:46.975Z</time>
      </trkpt>
      <trkpt lat="46.30797" lon="6.11945">
        <ele>455</ele>
        <time>2020-11-06T13:45:47.975Z</time>
      </trkpt>
      <trkpt lat="46.30795" lon="6.11943">
        <ele>455</ele>
        <time>2020-11-06T13:45:48.976Z</time>
      </trkpt>
      <trkpt lat="46.30794" lon="6.11942">
        <ele>455</ele>
        <time>2020-11-06T13:45:49.976Z</time>
      </trkpt>
      <trkpt lat="46.30792" lon="6.11941">
        <ele>455</ele>
        <time>2020-11-06T13:45:50.976Z</time>
      </trkpt>
      <trkpt lat="46.3079" lon="6.11942">
        <ele>455</ele>
        <time>2020-11-06T13:45:51.976Z</time>
      </trkpt>
      <trkpt lat="46.30788" lon="6.11943">
        <ele>455</ele>
        <time>2020-11-06T13:45:52.976Z</time>
      </trkpt>
      <trkpt lat="46.30787" lon="6.11945">
        <ele>455</ele>
        <time>2020-11-06T13:45:53.976Z</time>
      </trkpt>
      <trkpt lat="46.30785" lon="6.11946">
        <ele>454</ele>
        <time>2020-11-06T13:45:54.975Z</time>
      </trkpt>
      <trkpt lat="46.30784" lon="6.11948">
        <ele>454</ele>
        <time>2020-11-06T13:45:55.976Z</time>
      </trkpt>
      <trkpt lat="46.30782" lon="6.1195">
        <ele>454</ele>
        <time>2020-11-06T13:45:56.976Z</time>
      </trkpt>
      <trkpt lat="46.3078" lon="6.11953">
        <ele>454</ele>
        <time>2020-11-06T13:45:57.975Z</time>
      </trkpt>
      <trkpt lat="46.30779" lon="6.11956">
        <ele>454</ele>
        <time>2020-11-06T13:45:58.976Z</time>
      </trkpt>
      <trkpt lat="46.30778" lon="6.11959">
        <ele>454</ele>
        <time>2020-11-06T13:45:59.975Z</time>
      </trkpt>
      <trkpt lat="46.30777" lon="6.11961">
        <ele>453</ele>
        <time>2020-11-06T13:46:00.976Z</time>
      </trkpt>
      <trkpt lat="46.30777" lon="6.11963">
        <ele>453</ele>
        <time>2020-11-06T13:46:01.976Z</time>
      </trkpt>
      <trkpt lat="46.30776" lon="6.11966">
        <ele>453</ele>
        <time>2020-11-06T13:46:02.975Z</time>
      </trkpt>
      <trkpt lat="46.30776" lon="6.11968">
        <ele>453</ele>
        <time>2020-11-06T13:46:03.976Z</time>
      </trkpt>
      <trkpt lat="46.30776" lon="6.1197">
        <ele>453</ele>
        <time>2020-11-06T13:46:04.976Z</time>
      </trkpt>
      <trkpt lat="46.30776" lon="6.11974">
        <ele>452</ele>
        <time>2020-11-06T13:46:05.976Z</time>
      </trkpt>
      <trkpt lat="46.30775" lon="6.11978">
        <ele>452</ele>
        <time>2020-11-06T13:46:06.976Z</time>
      </trkpt>
      <trkpt lat="46.30774" lon="6.11983">
        <ele>451</ele>
        <time>2020-11-06T13:46:07.976Z</time>
      </trkpt>
      <trkpt lat="46.30773" lon="6.11986">
        <ele>450</ele>
        <time>2020-11-06T13:46:08.975Z</time>
      </trkpt>
      <trkpt lat="46.30772" lon="6.11989">
        <ele>450</ele>
        <time>2020-11-06T13:46:09.976Z</time>
      </trkpt>
      <trkpt lat="46.30771" lon="6.11992">
        <ele>449</ele>
        <time>2020-11-06T13:46:10.975Z</time>
      </trkpt>
      <trkpt lat="46.30771" lon="6.11995">
        <ele>449</ele>
        <time>2020-11-06T13:46:11.976Z</time>
      </trkpt>
      <trkpt lat="46.3077" lon="6.11998">
        <ele>448</ele>
        <time>2020-11-06T13:46:12.976Z</time>
      </trkpt>
      <trkpt lat="46.3077" lon="6.12001">
        <ele>448</ele>
        <time>2020-11-06T13:46:13.976Z</time>
      </trkpt>
      <trkpt lat="46.3077" lon="6.12003">
        <ele>448</ele>
        <time>2020-11-06T13:46:14.975Z</time>
      </trkpt>
      <trkpt lat="46.30771" lon="6.12006">
        <ele>448</ele>
        <time>2020-11-06T13:46:15.975Z</time>
      </trkpt>
      <trkpt lat="46.3077" lon="6.12009">
        <ele>449</ele>
        <time>2020-11-06T13:46:16.976Z</time>
      </trkpt>
      <trkpt lat="46.3077" lon="6.12012">
        <ele>449</ele>
        <time>2020-11-06T13:46:17.975Z</time>
      </trkpt>
      <trkpt lat="46.3077" lon="6.12015">
        <ele>449</ele>
        <time>2020-11-06T13:46:18.975Z</time>
      </trkpt>
      <trkpt lat="46.30769" lon="6.12019">
        <ele>449</ele>
        <time>2020-11-06T13:46:19.975Z</time>
      </trkpt>
      <trkpt lat="46.30768" lon="6.12022">
        <ele>449</ele>
        <time>2020-11-06T13:46:20.976Z</time>
      </trkpt>
      <trkpt lat="46.30767" lon="6.12025">
        <ele>449</ele>
        <time>2020-11-06T13:46:21.975Z</time>
      </trkpt>
      <trkpt lat="46.30766" lon="6.12028">
        <ele>449</ele>
        <time>2020-11-06T13:46:22.975Z</time>
      </trkpt>
      <trkpt lat="46.30765" lon="6.12033">
        <ele>450</ele>
        <time>2020-11-06T13:46:23.975Z</time>
      </trkpt>
      <trkpt lat="46.30764" lon="6.12037">
        <ele>450</ele>
        <time>2020-11-06T13:46:24.975Z</time>
      </trkpt>
      <trkpt lat="46.30763" lon="6.1204">
        <ele>450</ele>
        <time>2020-11-06T13:46:25.975Z</time>
      </trkpt>
      <trkpt lat="46.30762" lon="6.12043">
        <ele>451</ele>
        <time>2020-11-06T13:46:26.976Z</time>
      </trkpt>
      <trkpt lat="46.3076" lon="6.12047">
        <ele>451</ele>
        <time>2020-11-06T13:46:27.976Z</time>
      </trkpt>
      <trkpt lat="46.30759" lon="6.12049">
        <ele>452</ele>
        <time>2020-11-06T13:46:28.975Z</time>
      </trkpt>
      <trkpt lat="46.30757" lon="6.12052">
        <ele>452</ele>
        <time>2020-11-06T13:46:29.976Z</time>
      </trkpt>
      <trkpt lat="46.30757" lon="6.12055">
        <ele>453</ele>
        <time>2020-11-06T13:46:30.976Z</time>
      </trkpt>
      <trkpt lat="46.30755" lon="6.12057">
        <ele>453</ele>
        <time>2020-11-06T13:46:31.975Z</time>
      </trkpt>
      <trkpt lat="46.30752" lon="6.1206">
        <ele>454</ele>
        <time>2020-11-06T13:46:32.976Z</time>
      </trkpt>
      <trkpt lat="46.3075" lon="6.12062">
        <ele>455</ele>
        <time>2020-11-06T13:46:33.975Z</time>
      </trkpt>
      <trkpt lat="46.30748" lon="6.12063">
        <ele>455</ele>
        <time>2020-11-06T13:46:34.976Z</time>
      </trkpt>
      <trkpt lat="46.30745" lon="6.12064">
        <ele>456</ele>
        <time>2020-11-06T13:46:35.976Z</time>
      </trkpt>
      <trkpt lat="46.30744" lon="6.12065">
        <ele>457</ele>
        <time>2020-11-06T13:46:36.975Z</time>
      </trkpt>
      <trkpt lat="46.30742" lon="6.12066">
        <ele>457</ele>
        <time>2020-11-06T13:46:37.976Z</time>
      </trkpt>
      <trkpt lat="46.30739" lon="6.12066">
        <ele>458</ele>
        <time>2020-11-06T13:46:38.975Z</time>
      </trkpt>
      <trkpt lat="46.30737" lon="6.12066">
        <ele>459</ele>
        <time>2020-11-06T13:46:39.976Z</time>
      </trkpt>
      <trkpt lat="46.30735" lon="6.12066">
        <ele>459</ele>
        <time>2020-11-06T13:46:40.975Z</time>
      </trkpt>
      <trkpt lat="46.30731" lon="6.12066">
        <ele>460</ele>
        <time>2020-11-06T13:46:41.976Z</time>
      </trkpt>
      <trkpt lat="46.30728" lon="6.12067">
        <ele>461</ele>
        <time>2020-11-06T13:46:42.976Z</time>
      </trkpt>
      <trkpt lat="46.30725" lon="6.12067">
        <ele>461</ele>
        <time>2020-11-06T13:46:43.976Z</time>
      </trkpt>
      <trkpt lat="46.30723" lon="6.12067">
        <ele>461</ele>
        <time>2020-11-06T13:46:44.975Z</time>
      </trkpt>
      <trkpt lat="46.3072" lon="6.12069">
        <ele>462</ele>
        <time>2020-11-06T13:46:45.976Z</time>
      </trkpt>
      <trkpt lat="46.30719" lon="6.12072">
        <ele>462</ele>
        <time>2020-11-06T13:46:46.976Z</time>
      </trkpt>
      <trkpt lat="46.30717" lon="6.12074">
        <ele>462</ele>
        <time>2020-11-06T13:46:47.976Z</time>
      </trkpt>
      <trkpt lat="46.30715" lon="6.12076">
        <ele>462</ele>
        <time>2020-11-06T13:46:48.975Z</time>
      </trkpt>
      <trkpt lat="46.30713" lon="6.12077">
        <ele>462</ele>
        <time>2020-11-06T13:46:49.976Z</time>
      </trkpt>
      <trkpt lat="46.3071" lon="6.12077">
        <ele>462</ele>
        <time>2020-11-06T13:46:50.976Z</time>
      </trkpt>
      <trkpt lat="46.30708" lon="6.12078">
        <ele>462</ele>
        <time>2020-11-06T13:46:51.976Z</time>
      </trkpt>
      <trkpt lat="46.30706" lon="6.12078">
        <ele>462</ele>
        <time>2020-11-06T13:46:52.975Z</time>
      </trkpt>
      <trkpt lat="46.30703" lon="6.12078">
        <ele>461</ele>
        <time>2020-11-06T13:46:53.976Z</time>
      </trkpt>
      <trkpt lat="46.30701" lon="6.1208">
        <ele>461</ele>
        <time>2020-11-06T13:46:54.976Z</time>
      </trkpt>
      <trkpt lat="46.307" lon="6.12082">
        <ele>460</ele>
        <time>2020-11-06T13:46:55.975Z</time>
      </trkpt>
      <trkpt lat="46.30698" lon="6.12084">
        <ele>460</ele>
        <time>2020-11-06T13:46:56.975Z</time>
      </trkpt>
      <trkpt lat="46.30697" lon="6.12086">
        <ele>460</ele>
        <time>2020-11-06T13:46:57.976Z</time>
      </trkpt>
      <trkpt lat="46.30696" lon="6.12088">
        <ele>460</ele>
        <time>2020-11-06T13:46:58.975Z</time>
      </trkpt>
      <trkpt lat="46.30694" lon="6.12091">
        <ele>460</ele>
        <time>2020-11-06T13:46:59.976Z</time>
      </trkpt>
      <trkpt lat="46.30693" lon="6.12093">
        <ele>460</ele>
        <time>2020-11-06T13:47:00.975Z</time>
      </trkpt>
      <trkpt lat="46.30691" lon="6.12095">
        <ele>460</ele>
        <time>2020-11-06T13:47:01.975Z</time>
      </trkpt>
      <trkpt lat="46.3069" lon="6.12096">
        <ele>459</ele>
        <time>2020-11-06T13:47:02.975Z</time>
      </trkpt>
      <trkpt lat="46.30688" lon="6.12097">
        <ele>459</ele>
        <time>2020-11-06T13:47:03.975Z</time>
      </trkpt>
      <trkpt lat="46.30687" lon="6.12097">
        <ele>458</ele>
        <time>2020-11-06T13:47:04.976Z</time>
      </trkpt>
      <trkpt lat="46.30685" lon="6.12097">
        <ele>458</ele>
        <time>2020-11-06T13:47:05.976Z</time>
      </trkpt>
      <trkpt lat="46.30684" lon="6.12096">
        <ele>457</ele>
        <time>2020-11-06T13:47:06.975Z</time>
      </trkpt>
      <trkpt lat="46.30682" lon="6.12095">
        <ele>457</ele>
        <time>2020-11-06T13:47:07.976Z</time>
      </trkpt>
      <trkpt lat="46.30681" lon="6.12093">
        <ele>458</ele>
        <time>2020-11-06T13:47:08.976Z</time>
      </trkpt>
      <trkpt lat="46.30679" lon="6.12091">
        <ele>458</ele>
        <time>2020-11-06T13:47:09.975Z</time>
      </trkpt>
      <trkpt lat="46.30676" lon="6.1209">
        <ele>458</ele>
        <time>2020-11-06T13:47:10.976Z</time>
      </trkpt>
      <trkpt lat="46.30673" lon="6.12088">
        <ele>459</ele>
        <time>2020-11-06T13:47:11.975Z</time>
      </trkpt>
      <trkpt lat="46.30671" lon="6.12088">
        <ele>459</ele>
        <time>2020-11-06T13:47:12.975Z</time>
      </trkpt>
      <trkpt lat="46.30669" lon="6.12088">
        <ele>459</ele>
        <time>2020-11-06T13:47:13.975Z</time>
      </trkpt>
      <trkpt lat="46.30668" lon="6.1209">
        <ele>459</ele>
        <time>2020-11-06T13:47:14.976Z</time>
      </trkpt>
      <trkpt lat="46.30665" lon="6.1209">
        <ele>459</ele>
        <time>2020-11-06T13:47:15.976Z</time>
      </trkpt>
      <trkpt lat="46.30662" lon="6.12089">
        <ele>459</ele>
        <time>2020-11-06T13:47:16.976Z</time>
      </trkpt>
      <trkpt lat="46.30659" lon="6.12089">
        <ele>459</ele>
        <time>2020-11-06T13:47:17.976Z</time>
      </trkpt>
      <trkpt lat="46.30656" lon="6.12089">
        <ele>459</ele>
        <time>2020-11-06T13:47:18.976Z</time>
      </trkpt>
      <trkpt lat="46.30654" lon="6.12088">
        <ele>459</ele>
        <time>2020-11-06T13:47:19.976Z</time>
      </trkpt>
      <trkpt lat="46.30653" lon="6.12088">
        <ele>459</ele>
        <time>2020-11-06T13:47:20.976Z</time>
      </trkpt>
      <trkpt lat="46.3065" lon="6.12087">
        <ele>460</ele>
        <time>2020-11-06T13:47:21.975Z</time>
      </trkpt>
      <trkpt lat="46.30649" lon="6.12086">
        <ele>460</ele>
        <time>2020-11-06T13:47:22.976Z</time>
      </trkpt>
      <trkpt lat="46.30647" lon="6.12085">
        <ele>460</ele>
        <time>2020-11-06T13:47:23.976Z</time>
      </trkpt>
      <trkpt lat="46.30644" lon="6.12083">
        <ele>460</ele>
        <time>2020-11-06T13:47:24.976Z</time>
      </trkpt>
      <trkpt lat="46.30641" lon="6.12082">
        <ele>460</ele>
        <time>2020-11-06T13:47:25.975Z</time>
      </trkpt>
      <trkpt lat="46.30638" lon="6.1208">
        <ele>461</ele>
        <time>2020-11-06T13:47:26.975Z</time>
      </trkpt>
      <trkpt lat="46.30634" lon="6.12079">
        <ele>461</ele>
        <time>2020-11-06T13:47:27.976Z</time>
      </trkpt>
      <trkpt lat="46.30632" lon="6.12078">
        <ele>461</ele>
        <time>2020-11-06T13:47:28.976Z</time>
      </trkpt>
      <trkpt lat="46.30629" lon="6.12077">
        <ele>461</ele>
        <time>2020-11-06T13:47:29.976Z</time>
      </trkpt>
      <trkpt lat="46.30627" lon="6.12076">
        <ele>461</ele>
        <time>2020-11-06T13:47:30.976Z</time>
      </trkpt>
      <trkpt lat="46.30625" lon="6.12075">
        <ele>462</ele>
        <time>2020-11-06T13:47:31.976Z</time>
      </trkpt>
      <trkpt lat="46.30623" lon="6.12073">
        <ele>462</ele>
        <time>2020-11-06T13:47:32.975Z</time>
      </trkpt>
      <trkpt lat="46.30621" lon="6.12072">
        <ele>462</ele>
        <time>2020-11-06T13:47:33.975Z</time>
      </trkpt>
      <trkpt lat="46.30619" lon="6.12071">
        <ele>462</ele>
        <time>2020-11-06T13:47:34.976Z</time>
      </trkpt>
      <trkpt lat="46.30617" lon="6.1207">
        <ele>463</ele>
        <time>2020-11-06T13:47:35.976Z</time>
      </trkpt>
      <trkpt lat="46.30614" lon="6.12069">
        <ele>463</ele>
        <time>2020-11-06T13:47:36.976Z</time>
      </trkpt>
      <trkpt lat="46.30612" lon="6.12069">
        <ele>464</ele>
        <time>2020-11-06T13:47:37.976Z</time>
      </trkpt>
      <trkpt lat="46.3061" lon="6.12069">
        <ele>464</ele>
        <time>2020-11-06T13:47:38.976Z</time>
      </trkpt>
      <trkpt lat="46.30608" lon="6.12069">
        <ele>464</ele>
        <time>2020-11-06T13:47:39.975Z</time>
      </trkpt>
      <trkpt lat="46.30606" lon="6.12069">
        <ele>465</ele>
        <time>2020-11-06T13:47:40.975Z</time>
      </trkpt>
      <trkpt lat="46.30604" lon="6.12069">
        <ele>465</ele>
        <time>2020-11-06T13:47:41.976Z</time>
      </trkpt>
      <trkpt lat="46.30603" lon="6.12069">
        <ele>465</ele>
        <time>2020-11-06T13:47:42.975Z</time>
      </trkpt>
      <trkpt lat="46.30602" lon="6.12068">
        <ele>464</ele>
        <time>2020-11-06T13:47:43.975Z</time>
      </trkpt>
      <trkpt lat="46.30602" lon="6.12067">
        <ele>464</ele>
        <time>2020-11-06T13:47:44.976Z</time>
      </trkpt>
      <trkpt lat="46.30601" lon="6.12064">
        <ele>464</ele>
        <time>2020-11-06T13:47:45.976Z</time>
      </trkpt>
      <trkpt lat="46.30601" lon="6.12062">
        <ele>464</ele>
        <time>2020-11-06T13:47:46.975Z</time>
      </trkpt>
      <trkpt lat="46.306" lon="6.12059">
        <ele>464</ele>
        <time>2020-11-06T13:47:47.975Z</time>
      </trkpt>
      <trkpt lat="46.30599" lon="6.12057">
        <ele>463</ele>
        <time>2020-11-06T13:47:48.976Z</time>
      </trkpt>
      <trkpt lat="46.30599" lon="6.12054">
        <ele>463</ele>
        <time>2020-11-06T13:47:49.976Z</time>
      </trkpt>
      <trkpt lat="46.30598" lon="6.12051">
        <ele>463</ele>
        <time>2020-11-06T13:47:50.976Z</time>
      </trkpt>
      <trkpt lat="46.30597" lon="6.12048">
        <ele>462</ele>
        <time>2020-11-06T13:47:51.975Z</time>
      </trkpt>
      <trkpt lat="46.30596" lon="6.12045">
        <ele>462</ele>
        <time>2020-11-06T13:47:52.975Z</time>
      </trkpt>
      <trkpt lat="46.30595" lon="6.12043">
        <ele>462</ele>
        <time>2020-11-06T13:47:53.976Z</time>
      </trkpt>
      <trkpt lat="46.30594" lon="6.1204">
        <ele>462</ele>
        <time>2020-11-06T13:47:54.975Z</time>
      </trkpt>
      <trkpt lat="46.30594" lon="6.12038">
        <ele>462</ele>
        <time>2020-11-06T13:47:55.975Z</time>
      </trkpt>
      <trkpt lat="46.30594" lon="6.12035">
        <ele>463</ele>
        <time>2020-11-06T13:47:56.976Z</time>
      </trkpt>
      <trkpt lat="46.30594" lon="6.12032">
        <ele>463</ele>
        <time>2020-11-06T13:47:57.975Z</time>
      </trkpt>
      <trkpt lat="46.30596" lon="6.1203">
        <ele>463</ele>
        <time>2020-11-06T13:47:58.976Z</time>
      </trkpt>
      <trkpt lat="46.30597" lon="6.12027">
        <ele>462</ele>
        <time>2020-11-06T13:47:59.975Z</time>
      </trkpt>
      <trkpt lat="46.30599" lon="6.12024">
        <ele>462</ele>
        <time>2020-11-06T13:48:00.975Z</time>
      </trkpt>
      <trkpt lat="46.30601" lon="6.12022">
        <ele>462</ele>
        <time>2020-11-06T13:48:01.976Z</time>
      </trkpt>
      <trkpt lat="46.30602" lon="6.12019">
        <ele>462</ele>
        <time>2020-11-06T13:48:02.976Z</time>
      </trkpt>
      <trkpt lat="46.30603" lon="6.12016">
        <ele>462</ele>
        <time>2020-11-06T13:48:03.975Z</time>
      </trkpt>
      <trkpt lat="46.30603" lon="6.12014">
        <ele>461</ele>
        <time>2020-11-06T13:48:04.976Z</time>
      </trkpt>
      <trkpt lat="46.30604" lon="6.12011">
        <ele>461</ele>
        <time>2020-11-06T13:48:05.976Z</time>
      </trkpt>
      <trkpt lat="46.30604" lon="6.12006">
        <ele>461</ele>
        <time>2020-11-06T13:48:06.976Z</time>
      </trkpt>
      <trkpt lat="46.30604" lon="6.12005">
        <ele>460</ele>
        <time>2020-11-06T13:48:07.975Z</time>
      </trkpt>
      <trkpt lat="46.30604" lon="6.12003">
        <ele>458</ele>
        <time>2020-11-06T13:48:08.976Z</time>
      </trkpt>
      <trkpt lat="46.30603" lon="6.12">
        <ele>456</ele>
        <time>2020-11-06T13:48:09.975Z</time>
      </trkpt>
      <trkpt lat="46.30602" lon="6.11997">
        <ele>455</ele>
        <time>2020-11-06T13:48:10.976Z</time>
      </trkpt>
      <trkpt lat="46.306" lon="6.11994">
        <ele>454</ele>
        <time>2020-11-06T13:48:11.976Z</time>
      </trkpt>
      <trkpt lat="46.30598" lon="6.11991">
        <ele>453</ele>
        <time>2020-11-06T13:48:12.975Z</time>
      </trkpt>
      <trkpt lat="46.30595" lon="6.11988">
        <ele>452</ele>
        <time>2020-11-06T13:48:13.976Z</time>
      </trkpt>
      <trkpt lat="46.30593" lon="6.11986">
        <ele>452</ele>
        <time>2020-11-06T13:48:14.976Z</time>
      </trkpt>
      <trkpt lat="46.30593" lon="6.11983">
        <ele>451</ele>
        <time>2020-11-06T13:48:15.976Z</time>
      </trkpt>
      <trkpt lat="46.30593" lon="6.11981">
        <ele>451</ele>
        <time>2020-11-06T13:48:16.976Z</time>
      </trkpt>
      <trkpt lat="46.30591" lon="6.11979">
        <ele>450</ele>
        <time>2020-11-06T13:48:17.976Z</time>
      </trkpt>
      <trkpt lat="46.30588" lon="6.11978">
        <ele>451</ele>
        <time>2020-11-06T13:48:18.976Z</time>
      </trkpt>
      <trkpt lat="46.30585" lon="6.11976">
        <ele>451</ele>
        <time>2020-11-06T13:48:19.975Z</time>
      </trkpt>
      <trkpt lat="46.30582" lon="6.11974">
        <ele>451</ele>
        <time>2020-11-06T13:48:20.975Z</time>
      </trkpt>
      <trkpt lat="46.3058" lon="6.11972">
        <ele>452</ele>
        <time>2020-11-06T13:48:21.976Z</time>
      </trkpt>
      <trkpt lat="46.30578" lon="6.1197">
        <ele>452</ele>
        <time>2020-11-06T13:48:22.975Z</time>
      </trkpt>
      <trkpt lat="46.30576" lon="6.11969">
        <ele>452</ele>
        <time>2020-11-06T13:48:23.975Z</time>
      </trkpt>
      <trkpt lat="46.30575" lon="6.11967">
        <ele>453</ele>
        <time>2020-11-06T13:48:24.975Z</time>
      </trkpt>
      <trkpt lat="46.30573" lon="6.11965">
        <ele>453</ele>
        <time>2020-11-06T13:48:25.976Z</time>
      </trkpt>
      <trkpt lat="46.3057" lon="6.11963">
        <ele>453</ele>
        <time>2020-11-06T13:48:26.975Z</time>
      </trkpt>
      <trkpt lat="46.30568" lon="6.11961">
        <ele>454</ele>
        <time>2020-11-06T13:48:27.975Z</time>
      </trkpt>
      <trkpt lat="46.30565" lon="6.11959">
        <ele>454</ele>
        <time>2020-11-06T13:48:28.976Z</time>
      </trkpt>
      <trkpt lat="46.30561" lon="6.11958">
        <ele>454</ele>
        <time>2020-11-06T13:48:29.976Z</time>
      </trkpt>
      <trkpt lat="46.30559" lon="6.11958">
        <ele>455</ele>
        <time>2020-11-06T13:48:30.976Z</time>
      </trkpt>
      <trkpt lat="46.30557" lon="6.11958">
        <ele>455</ele>
        <time>2020-11-06T13:48:31.976Z</time>
      </trkpt>
      <trkpt lat="46.30555" lon="6.11959">
        <ele>455</ele>
        <time>2020-11-06T13:48:32.976Z</time>
      </trkpt>
      <trkpt lat="46.30553" lon="6.11959">
        <ele>455</ele>
        <time>2020-11-06T13:48:33.976Z</time>
      </trkpt>
      <trkpt lat="46.3055" lon="6.11959">
        <ele>456</ele>
        <time>2020-11-06T13:48:34.975Z</time>
      </trkpt>
      <trkpt lat="46.30547" lon="6.11957">
        <ele>456</ele>
        <time>2020-11-06T13:48:35.976Z</time>
      </trkpt>
      <trkpt lat="46.30544" lon="6.11957">
        <ele>456</ele>
        <time>2020-11-06T13:48:36.976Z</time>
      </trkpt>
      <trkpt lat="46.30541" lon="6.11956">
        <ele>457</ele>
        <time>2020-11-06T13:48:37.976Z</time>
      </trkpt>
      <trkpt lat="46.30539" lon="6.11957">
        <ele>457</ele>
        <time>2020-11-06T13:48:38.975Z</time>
      </trkpt>
      <trkpt lat="46.30538" lon="6.11959">
        <ele>457</ele>
        <time>2020-11-06T13:48:39.976Z</time>
      </trkpt>
      <trkpt lat="46.30537" lon="6.11962">
        <ele>458</ele>
        <time>2020-11-06T13:48:40.975Z</time>
      </trkpt>
      <trkpt lat="46.30535" lon="6.11965">
        <ele>458</ele>
        <time>2020-11-06T13:48:41.976Z</time>
      </trkpt>
      <trkpt lat="46.30534" lon="6.11967">
        <ele>458</ele>
        <time>2020-11-06T13:48:42.976Z</time>
      </trkpt>
      <trkpt lat="46.30534" lon="6.11971">
        <ele>457</ele>
        <time>2020-11-06T13:48:43.976Z</time>
      </trkpt>
      <trkpt lat="46.30534" lon="6.11975">
        <ele>457</ele>
        <time>2020-11-06T13:48:44.976Z</time>
      </trkpt>
      <trkpt lat="46.30534" lon="6.11979">
        <ele>456</ele>
        <time>2020-11-06T13:48:45.975Z</time>
      </trkpt>
      <trkpt lat="46.30535" lon="6.11982">
        <ele>456</ele>
        <time>2020-11-06T13:48:46.975Z</time>
      </trkpt>
      <trkpt lat="46.30535" lon="6.11985">
        <ele>455</ele>
        <time>2020-11-06T13:48:47.975Z</time>
      </trkpt>
      <trkpt lat="46.30535" lon="6.11988">
        <ele>455</ele>
        <time>2020-11-06T13:48:48.975Z</time>
      </trkpt>
      <trkpt lat="46.30534" lon="6.11991">
        <ele>454</ele>
        <time>2020-11-06T13:48:49.976Z</time>
      </trkpt>
      <trkpt lat="46.30533" lon="6.11993">
        <ele>454</ele>
        <time>2020-11-06T13:48:50.976Z</time>
      </trkpt>
      <trkpt lat="46.30533" lon="6.11995">
        <ele>453</ele>
        <time>2020-11-06T13:48:51.976Z</time>
      </trkpt>
      <trkpt lat="46.30533" lon="6.11998">
        <ele>452</ele>
        <time>2020-11-06T13:48:52.976Z</time>
      </trkpt>
      <trkpt lat="46.30533" lon="6.12">
        <ele>452</ele>
        <time>2020-11-06T13:48:53.976Z</time>
      </trkpt>
      <trkpt lat="46.30533" lon="6.12002">
        <ele>451</ele>
        <time>2020-11-06T13:48:54.975Z</time>
      </trkpt>
      <trkpt lat="46.30533" lon="6.12005">
        <ele>451</ele>
        <time>2020-11-06T13:48:55.975Z</time>
      </trkpt>
      <trkpt lat="46.30532" lon="6.12008">
        <ele>450</ele>
        <time>2020-11-06T13:48:56.976Z</time>
      </trkpt>
      <trkpt lat="46.30531" lon="6.1201">
        <ele>450</ele>
        <time>2020-11-06T13:48:57.976Z</time>
      </trkpt>
      <trkpt lat="46.3053" lon="6.12013">
        <ele>450</ele>
        <time>2020-11-06T13:48:58.975Z</time>
      </trkpt>
      <trkpt lat="46.3053" lon="6.12016">
        <ele>450</ele>
        <time>2020-11-06T13:48:59.976Z</time>
      </trkpt>
      <trkpt lat="46.30529" lon="6.12018">
        <ele>450</ele>
        <time>2020-11-06T13:49:00.976Z</time>
      </trkpt>
      <trkpt lat="46.30527" lon="6.1202">
        <ele>450</ele>
        <time>2020-11-06T13:49:01.975Z</time>
      </trkpt>
      <trkpt lat="46.30526" lon="6.12022">
        <ele>449</ele>
        <time>2020-11-06T13:49:02.976Z</time>
      </trkpt>
      <trkpt lat="46.30523" lon="6.12025">
        <ele>449</ele>
        <time>2020-11-06T13:49:03.975Z</time>
      </trkpt>
      <trkpt lat="46.30521" lon="6.12026">
        <ele>449</ele>
        <time>2020-11-06T13:49:04.976Z</time>
      </trkpt>
      <trkpt lat="46.30519" lon="6.12028">
        <ele>449</ele>
        <time>2020-11-06T13:49:05.976Z</time>
      </trkpt>
      <trkpt lat="46.30517" lon="6.12028">
        <ele>448</ele>
        <time>2020-11-06T13:49:06.975Z</time>
      </trkpt>
      <trkpt lat="46.30516" lon="6.12028">
        <ele>448</ele>
        <time>2020-11-06T13:49:07.976Z</time>
      </trkpt>
      <trkpt lat="46.30515" lon="6.12027">
        <ele>447</ele>
        <time>2020-11-06T13:49:08.976Z</time>
      </trkpt>
      <trkpt lat="46.30513" lon="6.12028">
        <ele>447</ele>
        <time>2020-11-06T13:49:09.975Z</time>
      </trkpt>
      <trkpt lat="46.3051" lon="6.12029">
        <ele>447</ele>
        <time>2020-11-06T13:49:10.975Z</time>
      </trkpt>
      <trkpt lat="46.30508" lon="6.1203">
        <ele>447</ele>
        <time>2020-11-06T13:49:11.976Z</time>
      </trkpt>
      <trkpt lat="46.30507" lon="6.12031">
        <ele>447</ele>
        <time>2020-11-06T13:49:12.975Z</time>
      </trkpt>
      <trkpt lat="46.30506" lon="6.12032">
        <ele>448</ele>
        <time>2020-11-06T13:49:13.976Z</time>
      </trkpt>
      <trkpt lat="46.30505" lon="6.12032">
        <ele>448</ele>
        <time>2020-11-06T13:49:14.976Z</time>
      </trkpt>
      <trkpt lat="46.30502" lon="6.12032">
        <ele>448</ele>
        <time>2020-11-06T13:49:15.975Z</time>
      </trkpt>
      <trkpt lat="46.305" lon="6.12032">
        <ele>448</ele>
        <time>2020-11-06T13:49:16.976Z</time>
      </trkpt>
      <trkpt lat="46.30498" lon="6.12032">
        <ele>448</ele>
        <time>2020-11-06T13:49:17.975Z</time>
      </trkpt>
      <trkpt lat="46.30496" lon="6.12032">
        <ele>448</ele>
        <time>2020-11-06T13:49:18.975Z</time>
      </trkpt>
      <trkpt lat="46.30493" lon="6.12032">
        <ele>448</ele>
        <time>2020-11-06T13:49:19.976Z</time>
      </trkpt>
      <trkpt lat="46.30491" lon="6.12032">
        <ele>448</ele>
        <time>2020-11-06T13:49:20.976Z</time>
      </trkpt>
      <trkpt lat="46.3049" lon="6.12033">
        <ele>448</ele>
        <time>2020-11-06T13:49:21.976Z</time>
      </trkpt>
      <trkpt lat="46.30488" lon="6.12034">
        <ele>448</ele>
        <time>2020-11-06T13:49:22.976Z</time>
      </trkpt>
      <trkpt lat="46.30486" lon="6.12035">
        <ele>448</ele>
        <time>2020-11-06T13:49:23.976Z</time>
      </trkpt>
      <trkpt lat="46.30483" lon="6.12035">
        <ele>449</ele>
        <time>2020-11-06T13:49:24.975Z</time>
      </trkpt>
      <trkpt lat="46.30481" lon="6.12036">
        <ele>449</ele>
        <time>2020-11-06T13:49:25.976Z</time>
      </trkpt>
      <trkpt lat="46.30479" lon="6.12036">
        <ele>449</ele>
        <time>2020-11-06T13:49:26.975Z</time>
      </trkpt>
      <trkpt lat="46.30477" lon="6.12035">
        <ele>449</ele>
        <time>2020-11-06T13:49:27.976Z</time>
      </trkpt>
      <trkpt lat="46.30476" lon="6.12033">
        <ele>450</ele>
        <time>2020-11-06T13:49:28.976Z</time>
      </trkpt>
      <trkpt lat="46.30475" lon="6.12031">
        <ele>450</ele>
        <time>2020-11-06T13:49:29.976Z</time>
      </trkpt>
      <trkpt lat="46.30473" lon="6.12029">
        <ele>450</ele>
        <time>2020-11-06T13:49:30.976Z</time>
      </trkpt>
      <trkpt lat="46.30472" lon="6.12027">
        <ele>451</ele>
        <time>2020-11-06T13:49:31.975Z</time>
      </trkpt>
      <trkpt lat="46.30471" lon="6.12025">
        <ele>451</ele>
        <time>2020-11-06T13:49:32.976Z</time>
      </trkpt>
      <trkpt lat="46.3047" lon="6.12023">
        <ele>451</ele>
        <time>2020-11-06T13:49:33.975Z</time>
      </trkpt>
      <trkpt lat="46.30468" lon="6.12021">
        <ele>451</ele>
        <time>2020-11-06T13:49:34.976Z</time>
      </trkpt>
      <trkpt lat="46.30466" lon="6.12019">
        <ele>451</ele>
        <time>2020-11-06T13:49:35.976Z</time>
      </trkpt>
      <trkpt lat="46.30465" lon="6.12017">
        <ele>451</ele>
        <time>2020-11-06T13:49:36.975Z</time>
      </trkpt>
      <trkpt lat="46.30464" lon="6.12016">
        <ele>452</ele>
        <time>2020-11-06T13:49:37.976Z</time>
      </trkpt>
      <trkpt lat="46.30463" lon="6.12014">
        <ele>452</ele>
        <time>2020-11-06T13:49:38.976Z</time>
      </trkpt>
      <trkpt lat="46.30461" lon="6.1201">
        <ele>453</ele>
        <time>2020-11-06T13:49:39.975Z</time>
      </trkpt>
      <trkpt lat="46.3046" lon="6.12008">
        <ele>453</ele>
        <time>2020-11-06T13:49:40.976Z</time>
      </trkpt>
      <trkpt lat="46.30459" lon="6.12007">
        <ele>453</ele>
        <time>2020-11-06T13:49:41.976Z</time>
      </trkpt>
      <trkpt lat="46.30458" lon="6.12005">
        <ele>454</ele>
        <time>2020-11-06T13:49:42.976Z</time>
      </trkpt>
      <trkpt lat="46.30458" lon="6.12002">
        <ele>454</ele>
        <time>2020-11-06T13:49:43.976Z</time>
      </trkpt>
      <trkpt lat="46.30457" lon="6.12">
        <ele>454</ele>
        <time>2020-11-06T13:49:44.976Z</time>
      </trkpt>
      <trkpt lat="46.30457" lon="6.11997">
        <ele>454</ele>
        <time>2020-11-06T13:49:45.975Z</time>
      </trkpt>
      <trkpt lat="46.30455" lon="6.11996">
        <ele>454</ele>
        <time>2020-11-06T13:49:46.976Z</time>
      </trkpt>
      <trkpt lat="46.30453" lon="6.11994">
        <ele>455</ele>
        <time>2020-11-06T13:49:47.976Z</time>
      </trkpt>
      <trkpt lat="46.30451" lon="6.11992">
        <ele>455</ele>
        <time>2020-11-06T13:49:48.976Z</time>
      </trkpt>
      <trkpt lat="46.30449" lon="6.11991">
        <ele>456</ele>
        <time>2020-11-06T13:49:49.976Z</time>
      </trkpt>
      <trkpt lat="46.30448" lon="6.1199">
        <ele>456</ele>
        <time>2020-11-06T13:49:50.976Z</time>
      </trkpt>
      <trkpt lat="46.30446" lon="6.11987">
        <ele>456</ele>
        <time>2020-11-06T13:49:51.976Z</time>
      </trkpt>
      <trkpt lat="46.30442" lon="6.11985">
        <ele>455</ele>
        <time>2020-11-06T13:49:52.975Z</time>
      </trkpt>
      <trkpt lat="46.30438" lon="6.11983">
        <ele>455</ele>
        <time>2020-11-06T13:49:53.976Z</time>
      </trkpt>
      <trkpt lat="46.30436" lon="6.11982">
        <ele>455</ele>
        <time>2020-11-06T13:49:54.976Z</time>
      </trkpt>
      <trkpt lat="46.30434" lon="6.1198">
        <ele>455</ele>
        <time>2020-11-06T13:49:55.976Z</time>
      </trkpt>
      <trkpt lat="46.3043" lon="6.11979">
        <ele>455</ele>
        <time>2020-11-06T13:49:56.976Z</time>
      </trkpt>
      <trkpt lat="46.30427" lon="6.11979">
        <ele>456</ele>
        <time>2020-11-06T13:49:57.975Z</time>
      </trkpt>
      <trkpt lat="46.30422" lon="6.11979">
        <ele>456</ele>
        <time>2020-11-06T13:49:58.976Z</time>
      </trkpt>
      <trkpt lat="46.3042" lon="6.11979">
        <ele>457</ele>
        <time>2020-11-06T13:49:59.976Z</time>
      </trkpt>
      <trkpt lat="46.30417" lon="6.1198">
        <ele>457</ele>
        <time>2020-11-06T13:50:00.976Z</time>
      </trkpt>
      <trkpt lat="46.30414" lon="6.11981">
        <ele>457</ele>
        <time>2020-11-06T13:50:01.976Z</time>
      </trkpt>
      <trkpt lat="46.30412" lon="6.11982">
        <ele>457</ele>
        <time>2020-11-06T13:50:02.976Z</time>
      </trkpt>
      <trkpt lat="46.3041" lon="6.11982">
        <ele>457</ele>
        <time>2020-11-06T13:50:03.976Z</time>
      </trkpt>
      <trkpt lat="46.30408" lon="6.11983">
        <ele>457</ele>
        <time>2020-11-06T13:50:04.976Z</time>
      </trkpt>
      <trkpt lat="46.30406" lon="6.11984">
        <ele>457</ele>
        <time>2020-11-06T13:50:05.975Z</time>
      </trkpt>
      <trkpt lat="46.30403" lon="6.11986">
        <ele>457</ele>
        <time>2020-11-06T13:50:06.976Z</time>
      </trkpt>
      <trkpt lat="46.30402" lon="6.11988">
        <ele>457</ele>
        <time>2020-11-06T13:50:07.976Z</time>
      </trkpt>
      <trkpt lat="46.30401" lon="6.11991">
        <ele>456</ele>
        <time>2020-11-06T13:50:08.975Z</time>
      </trkpt>
      <trkpt lat="46.30399" lon="6.11996">
        <ele>456</ele>
        <time>2020-11-06T13:50:09.976Z</time>
      </trkpt>
      <trkpt lat="46.30398" lon="6.11999">
        <ele>455</ele>
        <time>2020-11-06T13:50:10.976Z</time>
      </trkpt>
      <trkpt lat="46.30398" lon="6.12003">
        <ele>454</ele>
        <time>2020-11-06T13:50:11.976Z</time>
      </trkpt>
      <trkpt lat="46.30396" lon="6.12005">
        <ele>454</ele>
        <time>2020-11-06T13:50:12.976Z</time>
      </trkpt>
      <trkpt lat="46.30394" lon="6.12007">
        <ele>454</ele>
        <time>2020-11-06T13:50:13.976Z</time>
      </trkpt>
      <trkpt lat="46.30392" lon="6.12008">
        <ele>453</ele>
        <time>2020-11-06T13:50:14.976Z</time>
      </trkpt>
      <trkpt lat="46.30391" lon="6.12009">
        <ele>453</ele>
        <time>2020-11-06T13:50:15.975Z</time>
      </trkpt>
      <trkpt lat="46.30389" lon="6.12009">
        <ele>452</ele>
        <time>2020-11-06T13:50:16.976Z</time>
      </trkpt>
      <trkpt lat="46.30386" lon="6.1201">
        <ele>452</ele>
        <time>2020-11-06T13:50:17.976Z</time>
      </trkpt>
      <trkpt lat="46.30384" lon="6.12011">
        <ele>453</ele>
        <time>2020-11-06T13:50:18.976Z</time>
      </trkpt>
      <trkpt lat="46.30382" lon="6.12011">
        <ele>453</ele>
        <time>2020-11-06T13:50:19.975Z</time>
      </trkpt>
      <trkpt lat="46.3038" lon="6.12011">
        <ele>454</ele>
        <time>2020-11-06T13:50:20.975Z</time>
      </trkpt>
      <trkpt lat="46.30377" lon="6.12009">
        <ele>454</ele>
        <time>2020-11-06T13:50:21.976Z</time>
      </trkpt>
      <trkpt lat="46.30376" lon="6.12008">
        <ele>454</ele>
        <time>2020-11-06T13:50:22.976Z</time>
      </trkpt>
      <trkpt lat="46.30373" lon="6.12006">
        <ele>455</ele>
        <time>2020-11-06T13:50:23.976Z</time>
      </trkpt>
      <trkpt lat="46.3037" lon="6.12005">
        <ele>456</ele>
        <time>2020-11-06T13:50:24.975Z</time>
      </trkpt>
      <trkpt lat="46.30369" lon="6.12003">
        <ele>456</ele>
        <time>2020-11-06T13:50:25.975Z</time>
      </trkpt>
      <trkpt lat="46.30367" lon="6.12002">
        <ele>457</ele>
        <time>2020-11-06T13:50:26.976Z</time>
      </trkpt>
      <trkpt lat="46.30365" lon="6.11999">
        <ele>458</ele>
        <time>2020-11-06T13:50:27.976Z</time>
      </trkpt>
      <trkpt lat="46.30364" lon="6.11998">
        <ele>458</ele>
        <time>2020-11-06T13:50:28.975Z</time>
      </trkpt>
      <trkpt lat="46.30362" lon="6.11996">
        <ele>459</ele>
        <time>2020-11-06T13:50:29.975Z</time>
      </trkpt>
      <trkpt lat="46.30361" lon="6.11995">
        <ele>460</ele>
        <time>2020-11-06T13:50:30.976Z</time>
      </trkpt>
      <trkpt lat="46.3036" lon="6.11993">
        <ele>460</ele>
        <time>2020-11-06T13:50:31.976Z</time>
      </trkpt>
      <trkpt lat="46.30359" lon="6.11991">
        <ele>461</ele>
        <time>2020-11-06T13:50:32.975Z</time>
      </trkpt>
      <trkpt lat="46.30358" lon="6.11989">
        <ele>461</ele>
        <time>2020-11-06T13:50:33.976Z</time>
      </trkpt>
      <trkpt lat="46.30356" lon="6.11987">
        <ele>461</ele>
        <time>2020-11-06T13:50:34.976Z</time>
      </trkpt>
      <trkpt lat="46.30355" lon="6.11985">
        <ele>462</ele>
        <time>2020-11-06T13:50:35.976Z</time>
      </trkpt>
      <trkpt lat="46.30354" lon="6.11983">
        <ele>461</ele>
        <time>2020-11-06T13:50:36.976Z</time>
      </trkpt>
      <trkpt lat="46.30353" lon="6.11981">
        <ele>461</ele>
        <time>2020-11-06T13:50:37.976Z</time>
      </trkpt>
      <trkpt lat="46.30353" lon="6.11978">
        <ele>461</ele>
        <time>2020-11-06T13:50:38.976Z</time>
      </trkpt>
      <trkpt lat="46.30352" lon="6.11976">
        <ele>461</ele>
        <time>2020-11-06T13:50:39.976Z</time>
      </trkpt>
      <trkpt lat="46.30351" lon="6.11973">
        <ele>460</ele>
        <time>2020-11-06T13:50:40.975Z</time>
      </trkpt>
      <trkpt lat="46.3035" lon="6.1197">
        <ele>460</ele>
        <time>2020-11-06T13:50:41.976Z</time>
      </trkpt>
      <trkpt lat="46.3035" lon="6.11968">
        <ele>459</ele>
        <time>2020-11-06T13:50:42.975Z</time>
      </trkpt>
      <trkpt lat="46.30349" lon="6.11963">
        <ele>459</ele>
        <time>2020-11-06T13:50:43.976Z</time>
      </trkpt>
      <trkpt lat="46.30348" lon="6.1196">
        <ele>459</ele>
        <time>2020-11-06T13:50:44.976Z</time>
      </trkpt>
      <trkpt lat="46.30347" lon="6.11958">
        <ele>458</ele>
        <time>2020-11-06T13:50:45.976Z</time>
      </trkpt>
      <trkpt lat="46.30346" lon="6.11956">
        <ele>458</ele>
        <time>2020-11-06T13:50:46.975Z</time>
      </trkpt>
      <trkpt lat="46.30344" lon="6.11953">
        <ele>458</ele>
        <time>2020-11-06T13:50:47.976Z</time>
      </trkpt>
      <trkpt lat="46.30343" lon="6.11951">
        <ele>458</ele>
        <time>2020-11-06T13:50:48.976Z</time>
      </trkpt>
      <trkpt lat="46.30341" lon="6.11949">
        <ele>458</ele>
        <time>2020-11-06T13:50:49.975Z</time>
      </trkpt>
      <trkpt lat="46.30339" lon="6.11947">
        <ele>458</ele>
        <time>2020-11-06T13:50:50.976Z</time>
      </trkpt>
      <trkpt lat="46.30338" lon="6.11945">
        <ele>459</ele>
        <time>2020-11-06T13:50:51.976Z</time>
      </trkpt>
      <trkpt lat="46.30335" lon="6.11943">
        <ele>459</ele>
        <time>2020-11-06T13:50:52.976Z</time>
      </trkpt>
      <trkpt lat="46.30333" lon="6.11941">
        <ele>459</ele>
        <time>2020-11-06T13:50:53.975Z</time>
      </trkpt>
      <trkpt lat="46.30331" lon="6.1194">
        <ele>460</ele>
        <time>2020-11-06T13:50:54.976Z</time>
      </trkpt>
      <trkpt lat="46.30329" lon="6.1194">
        <ele>460</ele>
        <time>2020-11-06T13:50:55.976Z</time>
      </trkpt>
      <trkpt lat="46.30327" lon="6.1194">
        <ele>461</ele>
        <time>2020-11-06T13:50:56.975Z</time>
      </trkpt>
      <trkpt lat="46.30324" lon="6.1194">
        <ele>461</ele>
        <time>2020-11-06T13:50:57.976Z</time>
      </trkpt>
      <trkpt lat="46.30322" lon="6.1194">
        <ele>462</ele>
        <time>2020-11-06T13:50:58.976Z</time>
      </trkpt>
      <trkpt lat="46.30318" lon="6.11937">
        <ele>463</ele>
        <time>2020-11-06T13:50:59.976Z</time>
      </trkpt>
      <trkpt lat="46.30315" lon="6.11935">
        <ele>464</ele>
        <time>2020-11-06T13:51:00.975Z</time>
      </trkpt>
      <trkpt lat="46.30313" lon="6.11935">
        <ele>464</ele>
        <time>2020-11-06T13:51:01.976Z</time>
      </trkpt>
      <trkpt lat="46.30311" lon="6.11935">
        <ele>465</ele>
        <time>2020-11-06T13:51:02.975Z</time>
      </trkpt>
      <trkpt lat="46.30308" lon="6.11935">
        <ele>465</ele>
        <time>2020-11-06T13:51:03.976Z</time>
      </trkpt>
      <trkpt lat="46.30306" lon="6.11935">
        <ele>465</ele>
        <time>2020-11-06T13:51:04.975Z</time>
      </trkpt>
      <trkpt lat="46.30303" lon="6.11935">
        <ele>466</ele>
        <time>2020-11-06T13:51:05.976Z</time>
      </trkpt>
      <trkpt lat="46.30301" lon="6.11935">
        <ele>466</ele>
        <time>2020-11-06T13:51:06.975Z</time>
      </trkpt>
      <trkpt lat="46.303" lon="6.11935">
        <ele>466</ele>
        <time>2020-11-06T13:51:07.976Z</time>
      </trkpt>
      <trkpt lat="46.30298" lon="6.11936">
        <ele>465</ele>
        <time>2020-11-06T13:51:08.975Z</time>
      </trkpt>
      <trkpt lat="46.30296" lon="6.11936">
        <ele>465</ele>
        <time>2020-11-06T13:51:09.976Z</time>
      </trkpt>
      <trkpt lat="46.30294" lon="6.11937">
        <ele>465</ele>
        <time>2020-11-06T13:51:10.976Z</time>
      </trkpt>
      <trkpt lat="46.30291" lon="6.11937">
        <ele>465</ele>
        <time>2020-11-06T13:51:11.976Z</time>
      </trkpt>
      <trkpt lat="46.30289" lon="6.11937">
        <ele>465</ele>
        <time>2020-11-06T13:51:12.975Z</time>
      </trkpt>
      <trkpt lat="46.30287" lon="6.11938">
        <ele>465</ele>
        <time>2020-11-06T13:51:13.976Z</time>
      </trkpt>
      <trkpt lat="46.30285" lon="6.11939">
        <ele>465</ele>
        <time>2020-11-06T13:51:14.976Z</time>
      </trkpt>
      <trkpt lat="46.30283" lon="6.11939">
        <ele>465</ele>
        <time>2020-11-06T13:51:15.975Z</time>
      </trkpt>
      <trkpt lat="46.30281" lon="6.11939">
        <ele>465</ele>
        <time>2020-11-06T13:51:16.976Z</time>
      </trkpt>
      <trkpt lat="46.30279" lon="6.11939">
        <ele>464</ele>
        <time>2020-11-06T13:51:17.976Z</time>
      </trkpt>
      <trkpt lat="46.30277" lon="6.11939">
        <ele>464</ele>
        <time>2020-11-06T13:51:18.976Z</time>
      </trkpt>
      <trkpt lat="46.30274" lon="6.11938">
        <ele>464</ele>
        <time>2020-11-06T13:51:19.976Z</time>
      </trkpt>
      <trkpt lat="46.30272" lon="6.11938">
        <ele>464</ele>
        <time>2020-11-06T13:51:20.976Z</time>
      </trkpt>
      <trkpt lat="46.3027" lon="6.11938">
        <ele>463</ele>
        <time>2020-11-06T13:51:21.975Z</time>
      </trkpt>
      <trkpt lat="46.30267" lon="6.11938">
        <ele>463</ele>
        <time>2020-11-06T13:51:22.975Z</time>
      </trkpt>
      <trkpt lat="46.30266" lon="6.11939">
        <ele>463</ele>
        <time>2020-11-06T13:51:23.976Z</time>
      </trkpt>
      <trkpt lat="46.30264" lon="6.11939">
        <ele>463</ele>
        <time>2020-11-06T13:51:24.976Z</time>
      </trkpt>
      <trkpt lat="46.30262" lon="6.1194">
        <ele>462</ele>
        <time>2020-11-06T13:51:25.976Z</time>
      </trkpt>
      <trkpt lat="46.3026" lon="6.11941">
        <ele>462</ele>
        <time>2020-11-06T13:51:26.976Z</time>
      </trkpt>
      <trkpt lat="46.30258" lon="6.11942">
        <ele>461</ele>
        <time>2020-11-06T13:51:27.975Z</time>
      </trkpt>
      <trkpt lat="46.30256" lon="6.11943">
        <ele>461</ele>
        <time>2020-11-06T13:51:28.976Z</time>
      </trkpt>
      <trkpt lat="46.30254" lon="6.11944">
        <ele>460</ele>
        <time>2020-11-06T13:51:29.976Z</time>
      </trkpt>
      <trkpt lat="46.30252" lon="6.11943">
        <ele>459</ele>
        <time>2020-11-06T13:51:30.976Z</time>
      </trkpt>
      <trkpt lat="46.3025" lon="6.11943">
        <ele>459</ele>
        <time>2020-11-06T13:51:31.976Z</time>
      </trkpt>
      <trkpt lat="46.30247" lon="6.11942">
        <ele>458</ele>
        <time>2020-11-06T13:51:32.976Z</time>
      </trkpt>
      <trkpt lat="46.30245" lon="6.11942">
        <ele>458</ele>
        <time>2020-11-06T13:51:33.976Z</time>
      </trkpt>
      <trkpt lat="46.30243" lon="6.11939">
        <ele>458</ele>
        <time>2020-11-06T13:51:34.975Z</time>
      </trkpt>
      <trkpt lat="46.3024" lon="6.11937">
        <ele>458</ele>
        <time>2020-11-06T13:51:35.976Z</time>
      </trkpt>
      <trkpt lat="46.30237" lon="6.11935">
        <ele>458</ele>
        <time>2020-11-06T13:51:36.976Z</time>
      </trkpt>
      <trkpt lat="46.30233" lon="6.11934">
        <ele>458</ele>
        <time>2020-11-06T13:51:37.975Z</time>
      </trkpt>
      <trkpt lat="46.3023" lon="6.11933">
        <ele>458</ele>
        <time>2020-11-06T13:51:38.976Z</time>
      </trkpt>
      <trkpt lat="46.30227" lon="6.11931">
        <ele>458</ele>
        <time>2020-11-06T13:51:39.976Z</time>
      </trkpt>
      <trkpt lat="46.30227" lon="6.11929">
        <ele>458</ele>
        <time>2020-11-06T13:51:40.976Z</time>
      </trkpt>
      <trkpt lat="46.30226" lon="6.11928">
        <ele>458</ele>
        <time>2020-11-06T13:51:41.976Z</time>
      </trkpt>
      <trkpt lat="46.30226" lon="6.11926">
        <ele>458</ele>
        <time>2020-11-06T13:51:42.975Z</time>
      </trkpt>
      <trkpt lat="46.30226" lon="6.11925">
        <ele>458</ele>
        <time>2020-11-06T13:51:43.975Z</time>
      </trkpt>
      <trkpt lat="46.30225" lon="6.11924">
        <ele>458</ele>
        <time>2020-11-06T13:51:44.976Z</time>
      </trkpt>
      <trkpt lat="46.30225" lon="6.11921">
        <ele>458</ele>
        <time>2020-11-06T13:51:45.976Z</time>
      </trkpt>
      <trkpt lat="46.30223" lon="6.1192">
        <ele>458</ele>
        <time>2020-11-06T13:51:46.975Z</time>
      </trkpt>
      <trkpt lat="46.30221" lon="6.11918">
        <ele>458</ele>
        <time>2020-11-06T13:51:47.976Z</time>
      </trkpt>
      <trkpt lat="46.30219" lon="6.11918">
        <ele>458</ele>
        <time>2020-11-06T13:51:48.976Z</time>
      </trkpt>
      <trkpt lat="46.30217" lon="6.11919">
        <ele>458</ele>
        <time>2020-11-06T13:51:49.976Z</time>
      </trkpt>
      <trkpt lat="46.30214" lon="6.11919">
        <ele>458</ele>
        <time>2020-11-06T13:51:50.976Z</time>
      </trkpt>
      <trkpt lat="46.30212" lon="6.1192">
        <ele>459</ele>
        <time>2020-11-06T13:51:51.976Z</time>
      </trkpt>
      <trkpt lat="46.3021" lon="6.11921">
        <ele>459</ele>
        <time>2020-11-06T13:51:52.976Z</time>
      </trkpt>
      <trkpt lat="46.30208" lon="6.11921">
        <ele>460</ele>
        <time>2020-11-06T13:51:53.976Z</time>
      </trkpt>
      <trkpt lat="46.30206" lon="6.11921">
        <ele>460</ele>
        <time>2020-11-06T13:51:54.976Z</time>
      </trkpt>
      <trkpt lat="46.30203" lon="6.11923">
        <ele>461</ele>
        <time>2020-11-06T13:51:55.976Z</time>
      </trkpt>
      <trkpt lat="46.30201" lon="6.11924">
        <ele>461</ele>
        <time>2020-11-06T13:51:56.975Z</time>
      </trkpt>
      <trkpt lat="46.30199" lon="6.11925">
        <ele>462</ele>
        <time>2020-11-06T13:51:57.976Z</time>
      </trkpt>
      <trkpt lat="46.30197" lon="6.11926">
        <ele>462</ele>
        <time>2020-11-06T13:51:58.976Z</time>
      </trkpt>
      <trkpt lat="46.30195" lon="6.11926">
        <ele>462</ele>
        <time>2020-11-06T13:51:59.975Z</time>
      </trkpt>
      <trkpt lat="46.30192" lon="6.11928">
        <ele>463</ele>
        <time>2020-11-06T13:52:00.975Z</time>
      </trkpt>
      <trkpt lat="46.30188" lon="6.11928">
        <ele>463</ele>
        <time>2020-11-06T13:52:01.975Z</time>
      </trkpt>
      <trkpt lat="46.30185" lon="6.11928">
        <ele>464</ele>
        <time>2020-11-06T13:52:02.975Z</time>
      </trkpt>
      <trkpt lat="46.30183" lon="6.11929">
        <ele>464</ele>
        <time>2020-11-06T13:52:03.975Z</time>
      </trkpt>
      <trkpt lat="46.3018" lon="6.1193">
        <ele>465</ele>
        <time>2020-11-06T13:52:04.976Z</time>
      </trkpt>
      <trkpt lat="46.30177" lon="6.11932">
        <ele>465</ele>
        <time>2020-11-06T13:52:05.976Z</time>
      </trkpt>
      <trkpt lat="46.30175" lon="6.11933">
        <ele>466</ele>
        <time>2020-11-06T13:52:06.976Z</time>
      </trkpt>
      <trkpt lat="46.30172" lon="6.11936">
        <ele>466</ele>
        <time>2020-11-06T13:52:07.975Z</time>
      </trkpt>
      <trkpt lat="46.30169" lon="6.11938">
        <ele>467</ele>
        <time>2020-11-06T13:52:08.976Z</time>
      </trkpt>
      <trkpt lat="46.30166" lon="6.11939">
        <ele>468</ele>
        <time>2020-11-06T13:52:09.976Z</time>
      </trkpt>
      <trkpt lat="46.30164" lon="6.11941">
        <ele>469</ele>
        <time>2020-11-06T13:52:10.976Z</time>
      </trkpt>
      <trkpt lat="46.30161" lon="6.11943">
        <ele>470</ele>
        <time>2020-11-06T13:52:11.975Z</time>
      </trkpt>
      <trkpt lat="46.30158" lon="6.11945">
        <ele>470</ele>
        <time>2020-11-06T13:52:12.976Z</time>
      </trkpt>
      <trkpt lat="46.30156" lon="6.11946">
        <ele>471</ele>
        <time>2020-11-06T13:52:13.976Z</time>
      </trkpt>
      <trkpt lat="46.30155" lon="6.11948">
        <ele>471</ele>
        <time>2020-11-06T13:52:14.976Z</time>
      </trkpt>
      <trkpt lat="46.30152" lon="6.1195">
        <ele>471</ele>
        <time>2020-11-06T13:52:15.975Z</time>
      </trkpt>
      <trkpt lat="46.3015" lon="6.11951">
        <ele>471</ele>
        <time>2020-11-06T13:52:16.975Z</time>
      </trkpt>
      <trkpt lat="46.30148" lon="6.11952">
        <ele>471</ele>
        <time>2020-11-06T13:52:17.976Z</time>
      </trkpt>
      <trkpt lat="46.30145" lon="6.11954">
        <ele>472</ele>
        <time>2020-11-06T13:52:18.975Z</time>
      </trkpt>
      <trkpt lat="46.30143" lon="6.11956">
        <ele>472</ele>
        <time>2020-11-06T13:52:19.976Z</time>
      </trkpt>
      <trkpt lat="46.30141" lon="6.11957">
        <ele>472</ele>
        <time>2020-11-06T13:52:20.976Z</time>
      </trkpt>
      <trkpt lat="46.30139" lon="6.1196">
        <ele>472</ele>
        <time>2020-11-06T13:52:21.976Z</time>
      </trkpt>
      <trkpt lat="46.30137" lon="6.11963">
        <ele>472</ele>
        <time>2020-11-06T13:52:22.976Z</time>
      </trkpt>
      <trkpt lat="46.30135" lon="6.11966">
        <ele>472</ele>
        <time>2020-11-06T13:52:23.975Z</time>
      </trkpt>
      <trkpt lat="46.30133" lon="6.11968">
        <ele>472</ele>
        <time>2020-11-06T13:52:24.976Z</time>
      </trkpt>
      <trkpt lat="46.30132" lon="6.1197">
        <ele>471</ele>
        <time>2020-11-06T13:52:25.976Z</time>
      </trkpt>
      <trkpt lat="46.3013" lon="6.11971">
        <ele>471</ele>
        <time>2020-11-06T13:52:26.976Z</time>
      </trkpt>
      <trkpt lat="46.30128" lon="6.11973">
        <ele>471</ele>
        <time>2020-11-06T13:52:27.975Z</time>
      </trkpt>
      <trkpt lat="46.30126" lon="6.11974">
        <ele>470</ele>
        <time>2020-11-06T13:52:28.976Z</time>
      </trkpt>
      <trkpt lat="46.30124" lon="6.11976">
        <ele>470</ele>
        <time>2020-11-06T13:52:29.975Z</time>
      </trkpt>
      <trkpt lat="46.30121" lon="6.11978">
        <ele>470</ele>
        <time>2020-11-06T13:52:30.976Z</time>
      </trkpt>
      <trkpt lat="46.30118" lon="6.11978">
        <ele>471</ele>
        <time>2020-11-06T13:52:31.976Z</time>
      </trkpt>
      <trkpt lat="46.30115" lon="6.1198">
        <ele>471</ele>
        <time>2020-11-06T13:52:32.976Z</time>
      </trkpt>
      <trkpt lat="46.30111" lon="6.11981">
        <ele>472</ele>
        <time>2020-11-06T13:52:33.975Z</time>
      </trkpt>
      <trkpt lat="46.3011" lon="6.11984">
        <ele>473</ele>
        <time>2020-11-06T13:52:34.975Z</time>
      </trkpt>
      <trkpt lat="46.30108" lon="6.11987">
        <ele>473</ele>
        <time>2020-11-06T13:52:35.976Z</time>
      </trkpt>
      <trkpt lat="46.30107" lon="6.11989">
        <ele>474</ele>
        <time>2020-11-06T13:52:36.975Z</time>
      </trkpt>
      <trkpt lat="46.30106" lon="6.1199">
        <ele>474</ele>
        <time>2020-11-06T13:52:37.976Z</time>
      </trkpt>
      <trkpt lat="46.30105" lon="6.11992">
        <ele>475</ele>
        <time>2020-11-06T13:52:38.976Z</time>
      </trkpt>
      <trkpt lat="46.30103" lon="6.11993">
        <ele>475</ele>
        <time>2020-11-06T13:52:39.975Z</time>
      </trkpt>
      <trkpt lat="46.30102" lon="6.11995">
        <ele>475</ele>
        <time>2020-11-06T13:52:40.975Z</time>
      </trkpt>
      <trkpt lat="46.301" lon="6.11998">
        <ele>475</ele>
        <time>2020-11-06T13:52:41.975Z</time>
      </trkpt>
      <trkpt lat="46.30099" lon="6.12">
        <ele>475</ele>
        <time>2020-11-06T13:52:42.976Z</time>
      </trkpt>
      <trkpt lat="46.30098" lon="6.12003">
        <ele>475</ele>
        <time>2020-11-06T13:52:43.976Z</time>
      </trkpt>
      <trkpt lat="46.30096" lon="6.12005">
        <ele>475</ele>
        <time>2020-11-06T13:52:44.975Z</time>
      </trkpt>
      <trkpt lat="46.30094" lon="6.12008">
        <ele>475</ele>
        <time>2020-11-06T13:52:45.975Z</time>
      </trkpt>
      <trkpt lat="46.30092" lon="6.12011">
        <ele>474</ele>
        <time>2020-11-06T13:52:46.976Z</time>
      </trkpt>
      <trkpt lat="46.30091" lon="6.12015">
        <ele>474</ele>
        <time>2020-11-06T13:52:47.976Z</time>
      </trkpt>
      <trkpt lat="46.30092" lon="6.12019">
        <ele>473</ele>
        <time>2020-11-06T13:52:48.976Z</time>
      </trkpt>
      <trkpt lat="46.30093" lon="6.12023">
        <ele>473</ele>
        <time>2020-11-06T13:52:49.976Z</time>
      </trkpt>
      <trkpt lat="46.30093" lon="6.12026">
        <ele>473</ele>
        <time>2020-11-06T13:52:50.976Z</time>
      </trkpt>
      <trkpt lat="46.30094" lon="6.12029">
        <ele>472</ele>
        <time>2020-11-06T13:52:51.975Z</time>
      </trkpt>
      <trkpt lat="46.30093" lon="6.12031">
        <ele>472</ele>
        <time>2020-11-06T13:52:52.976Z</time>
      </trkpt>
      <trkpt lat="46.30093" lon="6.12034">
        <ele>471</ele>
        <time>2020-11-06T13:52:53.975Z</time>
      </trkpt>
      <trkpt lat="46.30092" lon="6.12036">
        <ele>470</ele>
        <time>2020-11-06T13:52:54.976Z</time>
      </trkpt>
      <trkpt lat="46.30091" lon="6.12038">
        <ele>469</ele>
        <time>2020-11-06T13:52:55.975Z</time>
      </trkpt>
      <trkpt lat="46.3009" lon="6.12041">
        <ele>468</ele>
        <time>2020-11-06T13:52:56.976Z</time>
      </trkpt>
      <trkpt lat="46.3009" lon="6.12043">
        <ele>466</ele>
        <time>2020-11-06T13:52:57.976Z</time>
      </trkpt>
      <trkpt lat="46.3009" lon="6.12046">
        <ele>464</ele>
        <time>2020-11-06T13:52:58.976Z</time>
      </trkpt>
      <trkpt lat="46.30089" lon="6.12049">
        <ele>463</ele>
        <time>2020-11-06T13:52:59.976Z</time>
      </trkpt>
      <trkpt lat="46.3009" lon="6.12051">
        <ele>462</ele>
        <time>2020-11-06T13:53:00.976Z</time>
      </trkpt>
      <trkpt lat="46.30091" lon="6.12053">
        <ele>461</ele>
        <time>2020-11-06T13:53:01.976Z</time>
      </trkpt>
      <trkpt lat="46.30092" lon="6.12055">
        <ele>460</ele>
        <time>2020-11-06T13:53:02.976Z</time>
      </trkpt>
      <trkpt lat="46.30092" lon="6.12057">
        <ele>460</ele>
        <time>2020-11-06T13:53:03.976Z</time>
      </trkpt>
      <trkpt lat="46.30092" lon="6.12059">
        <ele>459</ele>
        <time>2020-11-06T13:53:04.975Z</time>
      </trkpt>
      <trkpt lat="46.30091" lon="6.12061">
        <ele>459</ele>
        <time>2020-11-06T13:53:05.976Z</time>
      </trkpt>
      <trkpt lat="46.3009" lon="6.12063">
        <ele>458</ele>
        <time>2020-11-06T13:53:06.975Z</time>
      </trkpt>
      <trkpt lat="46.3009" lon="6.12066">
        <ele>458</ele>
        <time>2020-11-06T13:53:07.976Z</time>
      </trkpt>
      <trkpt lat="46.30091" lon="6.12068">
        <ele>457</ele>
        <time>2020-11-06T13:53:08.976Z</time>
      </trkpt>
      <trkpt lat="46.30092" lon="6.12071">
        <ele>457</ele>
        <time>2020-11-06T13:53:09.976Z</time>
      </trkpt>
      <trkpt lat="46.30092" lon="6.12074">
        <ele>456</ele>
        <time>2020-11-06T13:53:10.975Z</time>
      </trkpt>
      <trkpt lat="46.30092" lon="6.12076">
        <ele>456</ele>
        <time>2020-11-06T13:53:11.976Z</time>
      </trkpt>
      <trkpt lat="46.30093" lon="6.12079">
        <ele>456</ele>
        <time>2020-11-06T13:53:12.975Z</time>
      </trkpt>
      <trkpt lat="46.30094" lon="6.12081">
        <ele>455</ele>
        <time>2020-11-06T13:53:13.975Z</time>
      </trkpt>
      <trkpt lat="46.30095" lon="6.12083">
        <ele>455</ele>
        <time>2020-11-06T13:53:14.975Z</time>
      </trkpt>
      <trkpt lat="46.30095" lon="6.12086">
        <ele>455</ele>
        <time>2020-11-06T13:53:15.976Z</time>
      </trkpt>
      <trkpt lat="46.30095" lon="6.12089">
        <ele>456</ele>
        <time>2020-11-06T13:53:16.976Z</time>
      </trkpt>
      <trkpt lat="46.30095" lon="6.12091">
        <ele>456</ele>
        <time>2020-11-06T13:53:17.975Z</time>
      </trkpt>
      <trkpt lat="46.30095" lon="6.12094">
        <ele>456</ele>
        <time>2020-11-06T13:53:18.976Z</time>
      </trkpt>
      <trkpt lat="46.30096" lon="6.12097">
        <ele>456</ele>
        <time>2020-11-06T13:53:19.975Z</time>
      </trkpt>
      <trkpt lat="46.30095" lon="6.12099">
        <ele>456</ele>
        <time>2020-11-06T13:53:20.976Z</time>
      </trkpt>
      <trkpt lat="46.30094" lon="6.12102">
        <ele>456</ele>
        <time>2020-11-06T13:53:21.976Z</time>
      </trkpt>
      <trkpt lat="46.30092" lon="6.12105">
        <ele>457</ele>
        <time>2020-11-06T13:53:22.976Z</time>
      </trkpt>
      <trkpt lat="46.3009" lon="6.12108">
        <ele>457</ele>
        <time>2020-11-06T13:53:23.975Z</time>
      </trkpt>
      <trkpt lat="46.30089" lon="6.12112">
        <ele>457</ele>
        <time>2020-11-06T13:53:24.976Z</time>
      </trkpt>
      <trkpt lat="46.30087" lon="6.12114">
        <ele>457</ele>
        <time>2020-11-06T13:53:25.976Z</time>
      </trkpt>
      <trkpt lat="46.30086" lon="6.12116">
        <ele>457</ele>
        <time>2020-11-06T13:53:26.976Z</time>
      </trkpt>
      <trkpt lat="46.30085" lon="6.12118">
        <ele>457</ele>
        <time>2020-11-06T13:53:27.976Z</time>
      </trkpt>
      <trkpt lat="46.30084" lon="6.1212">
        <ele>457</ele>
        <time>2020-11-06T13:53:28.976Z</time>
      </trkpt>
      <trkpt lat="46.30083" lon="6.12121">
        <ele>457</ele>
        <time>2020-11-06T13:53:29.976Z</time>
      </trkpt>
      <trkpt lat="46.30082" lon="6.12123">
        <ele>457</ele>
        <time>2020-11-06T13:53:30.976Z</time>
      </trkpt>
      <trkpt lat="46.30081" lon="6.12124">
        <ele>457</ele>
        <time>2020-11-06T13:53:31.976Z</time>
      </trkpt>
      <trkpt lat="46.30079" lon="6.12124">
        <ele>457</ele>
        <time>2020-11-06T13:53:32.976Z</time>
      </trkpt>
      <trkpt lat="46.30078" lon="6.12125">
        <ele>457</ele>
        <time>2020-11-06T13:53:33.976Z</time>
      </trkpt>
      <trkpt lat="46.30076" lon="6.12126">
        <ele>458</ele>
        <time>2020-11-06T13:53:34.976Z</time>
      </trkpt>
      <trkpt lat="46.30075" lon="6.12126">
        <ele>459</ele>
        <time>2020-11-06T13:53:35.976Z</time>
      </trkpt>
      <trkpt lat="46.30073" lon="6.12127">
        <ele>459</ele>
        <time>2020-11-06T13:53:36.976Z</time>
      </trkpt>
      <trkpt lat="46.30072" lon="6.12127">
        <ele>460</ele>
        <time>2020-11-06T13:53:37.975Z</time>
      </trkpt>
      <trkpt lat="46.3007" lon="6.12128">
        <ele>461</ele>
        <time>2020-11-06T13:53:38.976Z</time>
      </trkpt>
      <trkpt lat="46.30068" lon="6.12129">
        <ele>462</ele>
        <time>2020-11-06T13:53:39.976Z</time>
      </trkpt>
      <trkpt lat="46.30066" lon="6.12129">
        <ele>463</ele>
        <time>2020-11-06T13:53:40.976Z</time>
      </trkpt>
      <trkpt lat="46.30064" lon="6.12129">
        <ele>464</ele>
        <time>2020-11-06T13:53:41.976Z</time>
      </trkpt>
      <trkpt lat="46.30063" lon="6.1213">
        <ele>464</ele>
        <time>2020-11-06T13:53:42.976Z</time>
      </trkpt>
      <trkpt lat="46.30062" lon="6.1213">
        <ele>465</ele>
        <time>2020-11-06T13:53:43.976Z</time>
      </trkpt>
      <trkpt lat="46.30059" lon="6.12132">
        <ele>465</ele>
        <time>2020-11-06T13:53:44.976Z</time>
      </trkpt>
      <trkpt lat="46.30057" lon="6.12133">
        <ele>466</ele>
        <time>2020-11-06T13:53:45.976Z</time>
      </trkpt>
      <trkpt lat="46.30053" lon="6.12134">
        <ele>466</ele>
        <time>2020-11-06T13:53:46.976Z</time>
      </trkpt>
      <trkpt lat="46.30051" lon="6.12136">
        <ele>466</ele>
        <time>2020-11-06T13:53:47.976Z</time>
      </trkpt>
      <trkpt lat="46.3005" lon="6.12139">
        <ele>466</ele>
        <time>2020-11-06T13:53:48.976Z</time>
      </trkpt>
      <trkpt lat="46.30047" lon="6.12141">
        <ele>467</ele>
        <time>2020-11-06T13:53:49.976Z</time>
      </trkpt>
      <trkpt lat="46.30046" lon="6.12143">
        <ele>467</ele>
        <time>2020-11-06T13:53:50.975Z</time>
      </trkpt>
      <trkpt lat="46.30043" lon="6.12144">
        <ele>467</ele>
        <time>2020-11-06T13:53:51.976Z</time>
      </trkpt>
      <trkpt lat="46.30042" lon="6.12145">
        <ele>467</ele>
        <time>2020-11-06T13:53:52.976Z</time>
      </trkpt>
      <trkpt lat="46.3004" lon="6.12146">
        <ele>468</ele>
        <time>2020-11-06T13:53:53.976Z</time>
      </trkpt>
      <trkpt lat="46.30038" lon="6.12147">
        <ele>468</ele>
        <time>2020-11-06T13:53:54.976Z</time>
      </trkpt>
      <trkpt lat="46.30036" lon="6.12148">
        <ele>469</ele>
        <time>2020-11-06T13:53:55.976Z</time>
      </trkpt>
      <trkpt lat="46.30035" lon="6.12149">
        <ele>470</ele>
        <time>2020-11-06T13:53:56.975Z</time>
      </trkpt>
      <trkpt lat="46.30033" lon="6.12151">
        <ele>470</ele>
        <time>2020-11-06T13:53:57.976Z</time>
      </trkpt>
      <trkpt lat="46.30031" lon="6.12153">
        <ele>470</ele>
        <time>2020-11-06T13:53:58.976Z</time>
      </trkpt>
      <trkpt lat="46.30029" lon="6.12155">
        <ele>470</ele>
        <time>2020-11-06T13:53:59.976Z</time>
      </trkpt>
      <trkpt lat="46.30027" lon="6.12157">
        <ele>469</ele>
        <time>2020-11-06T13:54:00.976Z</time>
      </trkpt>
      <trkpt lat="46.30025" lon="6.12158">
        <ele>469</ele>
        <time>2020-11-06T13:54:01.976Z</time>
      </trkpt>
      <trkpt lat="46.30023" lon="6.12159">
        <ele>468</ele>
        <time>2020-11-06T13:54:02.976Z</time>
      </trkpt>
      <trkpt lat="46.30021" lon="6.12159">
        <ele>468</ele>
        <time>2020-11-06T13:54:03.976Z</time>
      </trkpt>
      <trkpt lat="46.30019" lon="6.12159">
        <ele>467</ele>
        <time>2020-11-06T13:54:04.976Z</time>
      </trkpt>
      <trkpt lat="46.30017" lon="6.1216">
        <ele>467</ele>
        <time>2020-11-06T13:54:05.975Z</time>
      </trkpt>
      <trkpt lat="46.30015" lon="6.12161">
        <ele>467</ele>
        <time>2020-11-06T13:54:06.975Z</time>
      </trkpt>
      <trkpt lat="46.30014" lon="6.12162">
        <ele>467</ele>
        <time>2020-11-06T13:54:07.976Z</time>
      </trkpt>
      <trkpt lat="46.30012" lon="6.12163">
        <ele>467</ele>
        <time>2020-11-06T13:54:08.976Z</time>
      </trkpt>
      <trkpt lat="46.30011" lon="6.12164">
        <ele>466</ele>
        <time>2020-11-06T13:54:09.976Z</time>
      </trkpt>
      <trkpt lat="46.3001" lon="6.12165">
        <ele>466</ele>
        <time>2020-11-06T13:54:10.976Z</time>
      </trkpt>
      <trkpt lat="46.30009" lon="6.12166">
        <ele>466</ele>
        <time>2020-11-06T13:54:11.975Z</time>
      </trkpt>
      <trkpt lat="46.30007" lon="6.12168">
        <ele>465</ele>
        <time>2020-11-06T13:54:12.976Z</time>
      </trkpt>
      <trkpt lat="46.30005" lon="6.12169">
        <ele>464</ele>
        <time>2020-11-06T13:54:13.976Z</time>
      </trkpt>
      <trkpt lat="46.30003" lon="6.1217">
        <ele>464</ele>
        <time>2020-11-06T13:54:14.976Z</time>
      </trkpt>
      <trkpt lat="46.30001" lon="6.12171">
        <ele>463</ele>
        <time>2020-11-06T13:54:15.976Z</time>
      </trkpt>
      <trkpt lat="46.29999" lon="6.12172">
        <ele>463</ele>
        <time>2020-11-06T13:54:16.975Z</time>
      </trkpt>
      <trkpt lat="46.29996" lon="6.12173">
        <ele>462</ele>
        <time>2020-11-06T13:54:17.976Z</time>
      </trkpt>
      <trkpt lat="46.29993" lon="6.12173">
        <ele>461</ele>
        <time>2020-11-06T13:54:18.976Z</time>
      </trkpt>
      <trkpt lat="46.2999" lon="6.12174">
        <ele>461</ele>
        <time>2020-11-06T13:54:19.975Z</time>
      </trkpt>
      <trkpt lat="46.29988" lon="6.12173">
        <ele>461</ele>
        <time>2020-11-06T13:54:20.975Z</time>
      </trkpt>
      <trkpt lat="46.29986" lon="6.12173">
        <ele>460</ele>
        <time>2020-11-06T13:54:21.976Z</time>
      </trkpt>
      <trkpt lat="46.29983" lon="6.12173">
        <ele>460</ele>
        <time>2020-11-06T13:54:22.975Z</time>
      </trkpt>
      <trkpt lat="46.29981" lon="6.12173">
        <ele>460</ele>
        <time>2020-11-06T13:54:23.975Z</time>
      </trkpt>
      <trkpt lat="46.29979" lon="6.12173">
        <ele>459</ele>
        <time>2020-11-06T13:54:24.976Z</time>
      </trkpt>
      <trkpt lat="46.29977" lon="6.12173">
        <ele>459</ele>
        <time>2020-11-06T13:54:25.976Z</time>
      </trkpt>
      <trkpt lat="46.29975" lon="6.12174">
        <ele>459</ele>
        <time>2020-11-06T13:54:26.976Z</time>
      </trkpt>
      <trkpt lat="46.29973" lon="6.12175">
        <ele>459</ele>
        <time>2020-11-06T13:54:27.975Z</time>
      </trkpt>
      <trkpt lat="46.29972" lon="6.12176">
        <ele>458</ele>
        <time>2020-11-06T13:54:28.975Z</time>
      </trkpt>
      <trkpt lat="46.2997" lon="6.12176">
        <ele>458</ele>
        <time>2020-11-06T13:54:29.975Z</time>
      </trkpt>
      <trkpt lat="46.29969" lon="6.12176">
        <ele>457</ele>
        <time>2020-11-06T13:54:30.976Z</time>
      </trkpt>
      <trkpt lat="46.29967" lon="6.12176">
        <ele>457</ele>
        <time>2020-11-06T13:54:31.975Z</time>
      </trkpt>
      <trkpt lat="46.29965" lon="6.12177">
        <ele>457</ele>
        <time>2020-11-06T13:54:32.976Z</time>
      </trkpt>
      <trkpt lat="46.29963" lon="6.12177">
        <ele>457</ele>
        <time>2020-11-06T13:54:33.976Z</time>
      </trkpt>
      <trkpt lat="46.2996" lon="6.12178">
        <ele>457</ele>
        <time>2020-11-06T13:54:34.976Z</time>
      </trkpt>
      <trkpt lat="46.29958" lon="6.12179">
        <ele>457</ele>
        <time>2020-11-06T13:54:35.976Z</time>
      </trkpt>
      <trkpt lat="46.29954" lon="6.12179">
        <ele>457</ele>
        <time>2020-11-06T13:54:36.975Z</time>
      </trkpt>
      <trkpt lat="46.29951" lon="6.12179">
        <ele>458</ele>
        <time>2020-11-06T13:54:37.975Z</time>
      </trkpt>
      <trkpt lat="46.29946" lon="6.12179">
        <ele>458</ele>
        <time>2020-11-06T13:54:38.976Z</time>
      </trkpt>
      <trkpt lat="46.29944" lon="6.1218">
        <ele>459</ele>
        <time>2020-11-06T13:54:39.976Z</time>
      </trkpt>
      <trkpt lat="46.29941" lon="6.1218">
        <ele>459</ele>
        <time>2020-11-06T13:54:40.976Z</time>
      </trkpt>
      <trkpt lat="46.29939" lon="6.1218">
        <ele>460</ele>
        <time>2020-11-06T13:54:41.976Z</time>
      </trkpt>
      <trkpt lat="46.29937" lon="6.12181">
        <ele>460</ele>
        <time>2020-11-06T13:54:42.976Z</time>
      </trkpt>
      <trkpt lat="46.29935" lon="6.12181">
        <ele>461</ele>
        <time>2020-11-06T13:54:43.976Z</time>
      </trkpt>
      <trkpt lat="46.29932" lon="6.12181">
        <ele>462</ele>
        <time>2020-11-06T13:54:44.975Z</time>
      </trkpt>
      <trkpt lat="46.2993" lon="6.12182">
        <ele>462</ele>
        <time>2020-11-06T13:54:45.976Z</time>
      </trkpt>
      <trkpt lat="46.29929" lon="6.12183">
        <ele>462</ele>
        <time>2020-11-06T13:54:46.975Z</time>
      </trkpt>
      <trkpt lat="46.29926" lon="6.12183">
        <ele>462</ele>
        <time>2020-11-06T13:54:47.976Z</time>
      </trkpt>
      <trkpt lat="46.29925" lon="6.12183">
        <ele>463</ele>
        <time>2020-11-06T13:54:48.976Z</time>
      </trkpt>
      <trkpt lat="46.29924" lon="6.12181">
        <ele>463</ele>
        <time>2020-11-06T13:54:49.975Z</time>
      </trkpt>
      <trkpt lat="46.29921" lon="6.1218">
        <ele>463</ele>
        <time>2020-11-06T13:54:50.975Z</time>
      </trkpt>
      <trkpt lat="46.29918" lon="6.1218">
        <ele>463</ele>
        <time>2020-11-06T13:54:51.975Z</time>
      </trkpt>
      <trkpt lat="46.29915" lon="6.12181">
        <ele>464</ele>
        <time>2020-11-06T13:54:52.975Z</time>
      </trkpt>
      <trkpt lat="46.29913" lon="6.1218">
        <ele>464</ele>
        <time>2020-11-06T13:54:53.976Z</time>
      </trkpt>
      <trkpt lat="46.2991" lon="6.12179">
        <ele>464</ele>
        <time>2020-11-06T13:54:54.976Z</time>
      </trkpt>
      <trkpt lat="46.29908" lon="6.12178">
        <ele>464</ele>
        <time>2020-11-06T13:54:55.976Z</time>
      </trkpt>
      <trkpt lat="46.29906" lon="6.12176">
        <ele>465</ele>
        <time>2020-11-06T13:54:56.975Z</time>
      </trkpt>
      <trkpt lat="46.29905" lon="6.12174">
        <ele>465</ele>
        <time>2020-11-06T13:54:57.976Z</time>
      </trkpt>
      <trkpt lat="46.29903" lon="6.12173">
        <ele>465</ele>
        <time>2020-11-06T13:54:58.976Z</time>
      </trkpt>
      <trkpt lat="46.29902" lon="6.12171">
        <ele>465</ele>
        <time>2020-11-06T13:54:59.975Z</time>
      </trkpt>
      <trkpt lat="46.299" lon="6.1217">
        <ele>465</ele>
        <time>2020-11-06T13:55:00.975Z</time>
      </trkpt>
      <trkpt lat="46.29899" lon="6.12169">
        <ele>465</ele>
        <time>2020-11-06T13:55:01.975Z</time>
      </trkpt>
      <trkpt lat="46.29898" lon="6.12168">
        <ele>465</ele>
        <time>2020-11-06T13:55:02.976Z</time>
      </trkpt>
      <trkpt lat="46.29896" lon="6.12167">
        <ele>465</ele>
        <time>2020-11-06T13:55:03.976Z</time>
      </trkpt>
      <trkpt lat="46.29895" lon="6.12166">
        <ele>465</ele>
        <time>2020-11-06T13:55:04.976Z</time>
      </trkpt>
      <trkpt lat="46.29894" lon="6.12163">
        <ele>465</ele>
        <time>2020-11-06T13:55:05.976Z</time>
      </trkpt>
      <trkpt lat="46.29892" lon="6.1216">
        <ele>465</ele>
        <time>2020-11-06T13:55:06.976Z</time>
      </trkpt>
      <trkpt lat="46.29891" lon="6.12158">
        <ele>465</ele>
        <time>2020-11-06T13:55:07.975Z</time>
      </trkpt>
      <trkpt lat="46.29889" lon="6.12156">
        <ele>465</ele>
        <time>2020-11-06T13:55:08.976Z</time>
      </trkpt>
      <trkpt lat="46.29888" lon="6.12154">
        <ele>465</ele>
        <time>2020-11-06T13:55:09.976Z</time>
      </trkpt>
      <trkpt lat="46.29887" lon="6.12153">
        <ele>465</ele>
        <time>2020-11-06T13:55:10.976Z</time>
      </trkpt>
      <trkpt lat="46.29886" lon="6.12151">
        <ele>465</ele>
        <time>2020-11-06T13:55:11.976Z</time>
      </trkpt>
      <trkpt lat="46.29885" lon="6.12149">
        <ele>465</ele>
        <time>2020-11-06T13:55:12.975Z</time>
      </trkpt>
      <trkpt lat="46.29883" lon="6.12146">
        <ele>465</ele>
        <time>2020-11-06T13:55:13.975Z</time>
      </trkpt>
      <trkpt lat="46.29882" lon="6.12144">
        <ele>465</ele>
        <time>2020-11-06T13:55:14.976Z</time>
      </trkpt>
      <trkpt lat="46.2988" lon="6.12141">
        <ele>465</ele>
        <time>2020-11-06T13:55:15.976Z</time>
      </trkpt>
      <trkpt lat="46.29879" lon="6.12139">
        <ele>465</ele>
        <time>2020-11-06T13:55:16.976Z</time>
      </trkpt>
      <trkpt lat="46.29878" lon="6.12138">
        <ele>465</ele>
        <time>2020-11-06T13:55:17.975Z</time>
      </trkpt>
      <trkpt lat="46.29877" lon="6.12136">
        <ele>465</ele>
        <time>2020-11-06T13:55:18.976Z</time>
      </trkpt>
      <trkpt lat="46.29875" lon="6.12134">
        <ele>464</ele>
        <time>2020-11-06T13:55:19.976Z</time>
      </trkpt>
      <trkpt lat="46.29873" lon="6.12132">
        <ele>464</ele>
        <time>2020-11-06T13:55:20.975Z</time>
      </trkpt>
      <trkpt lat="46.29871" lon="6.1213">
        <ele>463</ele>
        <time>2020-11-06T13:55:21.975Z</time>
      </trkpt>
      <trkpt lat="46.29869" lon="6.12125">
        <ele>463</ele>
        <time>2020-11-06T13:55:22.975Z</time>
      </trkpt>
      <trkpt lat="46.29867" lon="6.12121">
        <ele>463</ele>
        <time>2020-11-06T13:55:23.975Z</time>
      </trkpt>
      <trkpt lat="46.29865" lon="6.12118">
        <ele>463</ele>
        <time>2020-11-06T13:55:24.976Z</time>
      </trkpt>
      <trkpt lat="46.29864" lon="6.12116">
        <ele>462</ele>
        <time>2020-11-06T13:55:25.975Z</time>
      </trkpt>
      <trkpt lat="46.29864" lon="6.12114">
        <ele>462</ele>
        <time>2020-11-06T13:55:26.976Z</time>
      </trkpt>
      <trkpt lat="46.29863" lon="6.12112">
        <ele>461</ele>
        <time>2020-11-06T13:55:27.975Z</time>
      </trkpt>
      <trkpt lat="46.29863" lon="6.1211">
        <ele>461</ele>
        <time>2020-11-06T13:55:28.976Z</time>
      </trkpt>
      <trkpt lat="46.29862" lon="6.12109">
        <ele>461</ele>
        <time>2020-11-06T13:55:29.976Z</time>
      </trkpt>
      <trkpt lat="46.2986" lon="6.12107">
        <ele>461</ele>
        <time>2020-11-06T13:55:30.976Z</time>
      </trkpt>
      <trkpt lat="46.29859" lon="6.12104">
        <ele>461</ele>
        <time>2020-11-06T13:55:31.975Z</time>
      </trkpt>
      <trkpt lat="46.29859" lon="6.12103">
        <ele>460</ele>
        <time>2020-11-06T13:55:32.976Z</time>
      </trkpt>
      <trkpt lat="46.29859" lon="6.12101">
        <ele>460</ele>
        <time>2020-11-06T13:55:33.976Z</time>
      </trkpt>
      <trkpt lat="46.29858" lon="6.12099">
        <ele>460</ele>
        <time>2020-11-06T13:55:34.976Z</time>
      </trkpt>
      <trkpt lat="46.29856" lon="6.12096">
        <ele>459</ele>
        <time>2020-11-06T13:55:35.976Z</time>
      </trkpt>
      <trkpt lat="46.29854" lon="6.12093">
        <ele>458</ele>
        <time>2020-11-06T13:55:36.976Z</time>
      </trkpt>
      <trkpt lat="46.29852" lon="6.12089">
        <ele>458</ele>
        <time>2020-11-06T13:55:37.975Z</time>
      </trkpt>
      <trkpt lat="46.2985" lon="6.12085">
        <ele>457</ele>
        <time>2020-11-06T13:55:38.975Z</time>
      </trkpt>
      <trkpt lat="46.29847" lon="6.12081">
        <ele>457</ele>
        <time>2020-11-06T13:55:39.976Z</time>
      </trkpt>
      <trkpt lat="46.29845" lon="6.12078">
        <ele>457</ele>
        <time>2020-11-06T13:55:40.976Z</time>
      </trkpt>
      <trkpt lat="46.29844" lon="6.12075">
        <ele>457</ele>
        <time>2020-11-06T13:55:41.976Z</time>
      </trkpt>
      <trkpt lat="46.29843" lon="6.12073">
        <ele>457</ele>
        <time>2020-11-06T13:55:42.976Z</time>
      </trkpt>
      <trkpt lat="46.29841" lon="6.12071">
        <ele>457</ele>
        <time>2020-11-06T13:55:43.975Z</time>
      </trkpt>
      <trkpt lat="46.2984" lon="6.12068">
        <ele>457</ele>
        <time>2020-11-06T13:55:44.975Z</time>
      </trkpt>
      <trkpt lat="46.29839" lon="6.12066">
        <ele>457</ele>
        <time>2020-11-06T13:55:45.975Z</time>
      </trkpt>
      <trkpt lat="46.29839" lon="6.12063">
        <ele>457</ele>
        <time>2020-11-06T13:55:46.975Z</time>
      </trkpt>
      <trkpt lat="46.29837" lon="6.12061">
        <ele>457</ele>
        <time>2020-11-06T13:55:47.976Z</time>
      </trkpt>
      <trkpt lat="46.29837" lon="6.12059">
        <ele>457</ele>
        <time>2020-11-06T13:55:48.976Z</time>
      </trkpt>
      <trkpt lat="46.29836" lon="6.12056">
        <ele>457</ele>
        <time>2020-11-06T13:55:49.975Z</time>
      </trkpt>
      <trkpt lat="46.29836" lon="6.12053">
        <ele>457</ele>
        <time>2020-11-06T13:55:50.975Z</time>
      </trkpt>
      <trkpt lat="46.29835" lon="6.1205">
        <ele>457</ele>
        <time>2020-11-06T13:55:51.976Z</time>
      </trkpt>
      <trkpt lat="46.29834" lon="6.12046">
        <ele>457</ele>
        <time>2020-11-06T13:55:52.976Z</time>
      </trkpt>
      <trkpt lat="46.29833" lon="6.12043">
        <ele>457</ele>
        <time>2020-11-06T13:55:53.976Z</time>
      </trkpt>
      <trkpt lat="46.29831" lon="6.1204">
        <ele>457</ele>
        <time>2020-11-06T13:55:54.976Z</time>
      </trkpt>
      <trkpt lat="46.29829" lon="6.12037">
        <ele>457</ele>
        <time>2020-11-06T13:55:55.975Z</time>
      </trkpt>
      <trkpt lat="46.29828" lon="6.12034">
        <ele>457</ele>
        <time>2020-11-06T13:55:56.976Z</time>
      </trkpt>
      <trkpt lat="46.29826" lon="6.12031">
        <ele>458</ele>
        <time>2020-11-06T13:55:57.976Z</time>
      </trkpt>
      <trkpt lat="46.29824" lon="6.12029">
        <ele>458</ele>
        <time>2020-11-06T13:55:58.976Z</time>
      </trkpt>
      <trkpt lat="46.29823" lon="6.12027">
        <ele>458</ele>
        <time>2020-11-06T13:55:59.976Z</time>
      </trkpt>
      <trkpt lat="46.29822" lon="6.12026">
        <ele>459</ele>
        <time>2020-11-06T13:56:00.976Z</time>
      </trkpt>
      <trkpt lat="46.29821" lon="6.12024">
        <ele>459</ele>
        <time>2020-11-06T13:56:01.976Z</time>
      </trkpt>
      <trkpt lat="46.29821" lon="6.12023">
        <ele>459</ele>
        <time>2020-11-06T13:56:02.975Z</time>
      </trkpt>
      <trkpt lat="46.29819" lon="6.12022">
        <ele>460</ele>
        <time>2020-11-06T13:56:03.975Z</time>
      </trkpt>
      <trkpt lat="46.29817" lon="6.1202">
        <ele>460</ele>
        <time>2020-11-06T13:56:04.975Z</time>
      </trkpt>
      <trkpt lat="46.29814" lon="6.12018">
        <ele>460</ele>
        <time>2020-11-06T13:56:05.976Z</time>
      </trkpt>
      <trkpt lat="46.29811" lon="6.12017">
        <ele>460</ele>
        <time>2020-11-06T13:56:06.976Z</time>
      </trkpt>
      <trkpt lat="46.29808" lon="6.12016">
        <ele>460</ele>
        <time>2020-11-06T13:56:07.976Z</time>
      </trkpt>
      <trkpt lat="46.29806" lon="6.12016">
        <ele>460</ele>
        <time>2020-11-06T13:56:08.976Z</time>
      </trkpt>
      <trkpt lat="46.29803" lon="6.12016">
        <ele>460</ele>
        <time>2020-11-06T13:56:09.975Z</time>
      </trkpt>
      <trkpt lat="46.29801" lon="6.12017">
        <ele>460</ele>
        <time>2020-11-06T13:56:10.976Z</time>
      </trkpt>
      <trkpt lat="46.29798" lon="6.12018">
        <ele>460</ele>
        <time>2020-11-06T13:56:11.976Z</time>
      </trkpt>
      <trkpt lat="46.29796" lon="6.12018">
        <ele>461</ele>
        <time>2020-11-06T13:56:12.975Z</time>
      </trkpt>
      <trkpt lat="46.29793" lon="6.12019">
        <ele>461</ele>
        <time>2020-11-06T13:56:13.976Z</time>
      </trkpt>
      <trkpt lat="46.2979" lon="6.1202">
        <ele>461</ele>
        <time>2020-11-06T13:56:14.976Z</time>
      </trkpt>
      <trkpt lat="46.29788" lon="6.12021">
        <ele>462</ele>
        <time>2020-11-06T13:56:15.976Z</time>
      </trkpt>
      <trkpt lat="46.29786" lon="6.12022">
        <ele>462</ele>
        <time>2020-11-06T13:56:16.976Z</time>
      </trkpt>
      <trkpt lat="46.29784" lon="6.12023">
        <ele>463</ele>
        <time>2020-11-06T13:56:17.975Z</time>
      </trkpt>
      <trkpt lat="46.29783" lon="6.12025">
        <ele>463</ele>
        <time>2020-11-06T13:56:18.976Z</time>
      </trkpt>
      <trkpt lat="46.29781" lon="6.12027">
        <ele>463</ele>
        <time>2020-11-06T13:56:19.976Z</time>
      </trkpt>
      <trkpt lat="46.29779" lon="6.12029">
        <ele>463</ele>
        <time>2020-11-06T13:56:20.976Z</time>
      </trkpt>
      <trkpt lat="46.29778" lon="6.1203">
        <ele>463</ele>
        <time>2020-11-06T13:56:21.975Z</time>
      </trkpt>
      <trkpt lat="46.29776" lon="6.12031">
        <ele>462</ele>
        <time>2020-11-06T13:56:22.976Z</time>
      </trkpt>
      <trkpt lat="46.29775" lon="6.12032">
        <ele>462</ele>
        <time>2020-11-06T13:56:23.975Z</time>
      </trkpt>
      <trkpt lat="46.29774" lon="6.12034">
        <ele>462</ele>
        <time>2020-11-06T13:56:24.976Z</time>
      </trkpt>
      <trkpt lat="46.29772" lon="6.12036">
        <ele>461</ele>
        <time>2020-11-06T13:56:25.976Z</time>
      </trkpt>
      <trkpt lat="46.29771" lon="6.12037">
        <ele>462</ele>
        <time>2020-11-06T13:56:26.976Z</time>
      </trkpt>
      <trkpt lat="46.29769" lon="6.12039">
        <ele>462</ele>
        <time>2020-11-06T13:56:27.976Z</time>
      </trkpt>
      <trkpt lat="46.29767" lon="6.1204">
        <ele>462</ele>
        <time>2020-11-06T13:56:28.975Z</time>
      </trkpt>
      <trkpt lat="46.29765" lon="6.12042">
        <ele>463</ele>
        <time>2020-11-06T13:56:29.975Z</time>
      </trkpt>
      <trkpt lat="46.29763" lon="6.12043">
        <ele>463</ele>
        <time>2020-11-06T13:56:30.976Z</time>
      </trkpt>
      <trkpt lat="46.29761" lon="6.12045">
        <ele>463</ele>
        <time>2020-11-06T13:56:31.975Z</time>
      </trkpt>
      <trkpt lat="46.29759" lon="6.12046">
        <ele>464</ele>
        <time>2020-11-06T13:56:32.975Z</time>
      </trkpt>
      <trkpt lat="46.29755" lon="6.12046">
        <ele>464</ele>
        <time>2020-11-06T13:56:33.975Z</time>
      </trkpt>
      <trkpt lat="46.29752" lon="6.12046">
        <ele>465</ele>
        <time>2020-11-06T13:56:34.975Z</time>
      </trkpt>
      <trkpt lat="46.2975" lon="6.12046">
        <ele>466</ele>
        <time>2020-11-06T13:56:35.976Z</time>
      </trkpt>
      <trkpt lat="46.29746" lon="6.12047">
        <ele>467</ele>
        <time>2020-11-06T13:56:36.976Z</time>
      </trkpt>
      <trkpt lat="46.29744" lon="6.1205">
        <ele>467</ele>
        <time>2020-11-06T13:56:37.976Z</time>
      </trkpt>
      <trkpt lat="46.29742" lon="6.12055">
        <ele>467</ele>
        <time>2020-11-06T13:56:38.975Z</time>
      </trkpt>
      <trkpt lat="46.29742" lon="6.12059">
        <ele>467</ele>
        <time>2020-11-06T13:56:39.976Z</time>
      </trkpt>
      <trkpt lat="46.29742" lon="6.12062">
        <ele>467</ele>
        <time>2020-11-06T13:56:40.976Z</time>
      </trkpt>
      <trkpt lat="46.29742" lon="6.12065">
        <ele>466</ele>
        <time>2020-11-06T13:56:41.976Z</time>
      </trkpt>
      <trkpt lat="46.29742" lon="6.12066">
        <ele>466</ele>
        <time>2020-11-06T13:56:42.976Z</time>
      </trkpt>
      <trkpt lat="46.29741" lon="6.12068">
        <ele>465</ele>
        <time>2020-11-06T13:56:43.976Z</time>
      </trkpt>
      <trkpt lat="46.29739" lon="6.1207">
        <ele>464</ele>
        <time>2020-11-06T13:56:44.976Z</time>
      </trkpt>
      <trkpt lat="46.29738" lon="6.12072">
        <ele>464</ele>
        <time>2020-11-06T13:56:45.975Z</time>
      </trkpt>
      <trkpt lat="46.29737" lon="6.12073">
        <ele>463</ele>
        <time>2020-11-06T13:56:46.976Z</time>
      </trkpt>
      <trkpt lat="46.29735" lon="6.12075">
        <ele>462</ele>
        <time>2020-11-06T13:56:47.976Z</time>
      </trkpt>
      <trkpt lat="46.29734" lon="6.12077">
        <ele>462</ele>
        <time>2020-11-06T13:56:48.975Z</time>
      </trkpt>
      <trkpt lat="46.29733" lon="6.12078">
        <ele>461</ele>
        <time>2020-11-06T13:56:49.975Z</time>
      </trkpt>
      <trkpt lat="46.29731" lon="6.12079">
        <ele>461</ele>
        <time>2020-11-06T13:56:50.975Z</time>
      </trkpt>
      <trkpt lat="46.29729" lon="6.12081">
        <ele>461</ele>
        <time>2020-11-06T13:56:51.975Z</time>
      </trkpt>
      <trkpt lat="46.29727" lon="6.12082">
        <ele>461</ele>
        <time>2020-11-06T13:56:52.976Z</time>
      </trkpt>
      <trkpt lat="46.29726" lon="6.12083">
        <ele>461</ele>
        <time>2020-11-06T13:56:53.976Z</time>
      </trkpt>
      <trkpt lat="46.29724" lon="6.12084">
        <ele>460</ele>
        <time>2020-11-06T13:56:54.976Z</time>
      </trkpt>
      <trkpt lat="46.29722" lon="6.12084">
        <ele>461</ele>
        <time>2020-11-06T13:56:55.975Z</time>
      </trkpt>
      <trkpt lat="46.2972" lon="6.12084">
        <ele>461</ele>
        <time>2020-11-06T13:56:56.976Z</time>
      </trkpt>
      <trkpt lat="46.29718" lon="6.12084">
        <ele>461</ele>
        <time>2020-11-06T13:56:57.976Z</time>
      </trkpt>
      <trkpt lat="46.29716" lon="6.12082">
        <ele>461</ele>
        <time>2020-11-06T13:56:58.976Z</time>
      </trkpt>
      <trkpt lat="46.29714" lon="6.12081">
        <ele>461</ele>
        <time>2020-11-06T13:56:59.976Z</time>
      </trkpt>
      <trkpt lat="46.29712" lon="6.1208">
        <ele>461</ele>
        <time>2020-11-06T13:57:00.975Z</time>
      </trkpt>
      <trkpt lat="46.2971" lon="6.12079">
        <ele>461</ele>
        <time>2020-11-06T13:57:01.976Z</time>
      </trkpt>
      <trkpt lat="46.29708" lon="6.12079">
        <ele>460</ele>
        <time>2020-11-06T13:57:02.976Z</time>
      </trkpt>
      <trkpt lat="46.29706" lon="6.12079">
        <ele>460</ele>
        <time>2020-11-06T13:57:03.976Z</time>
      </trkpt>
      <trkpt lat="46.29705" lon="6.12078">
        <ele>460</ele>
        <time>2020-11-06T13:57:04.976Z</time>
      </trkpt>
      <trkpt lat="46.29703" lon="6.12077">
        <ele>460</ele>
        <time>2020-11-06T13:57:05.976Z</time>
      </trkpt>
      <trkpt lat="46.29701" lon="6.12076">
        <ele>460</ele>
        <time>2020-11-06T13:57:06.975Z</time>
      </trkpt>
      <trkpt lat="46.297" lon="6.12075">
        <ele>459</ele>
        <time>2020-11-06T13:57:07.976Z</time>
      </trkpt>
      <trkpt lat="46.297" lon="6.12074">
        <ele>459</ele>
        <time>2020-11-06T13:57:08.976Z</time>
      </trkpt>
      <trkpt lat="46.29698" lon="6.12072">
        <ele>459</ele>
        <time>2020-11-06T13:57:09.976Z</time>
      </trkpt>
      <trkpt lat="46.29697" lon="6.1207">
        <ele>459</ele>
        <time>2020-11-06T13:57:10.976Z</time>
      </trkpt>
      <trkpt lat="46.29695" lon="6.12068">
        <ele>458</ele>
        <time>2020-11-06T13:57:11.976Z</time>
      </trkpt>
      <trkpt lat="46.29692" lon="6.12065">
        <ele>458</ele>
        <time>2020-11-06T13:57:12.975Z</time>
      </trkpt>
      <trkpt lat="46.2969" lon="6.12064">
        <ele>458</ele>
        <time>2020-11-06T13:57:13.975Z</time>
      </trkpt>
      <trkpt lat="46.29688" lon="6.12063">
        <ele>458</ele>
        <time>2020-11-06T13:57:14.976Z</time>
      </trkpt>
      <trkpt lat="46.29686" lon="6.12062">
        <ele>458</ele>
        <time>2020-11-06T13:57:15.975Z</time>
      </trkpt>
      <trkpt lat="46.29684" lon="6.12061">
        <ele>459</ele>
        <time>2020-11-06T13:57:16.976Z</time>
      </trkpt>
      <trkpt lat="46.29682" lon="6.12059">
        <ele>459</ele>
        <time>2020-11-06T13:57:17.976Z</time>
      </trkpt>
      <trkpt lat="46.2968" lon="6.12057">
        <ele>459</ele>
        <time>2020-11-06T13:57:18.976Z</time>
      </trkpt>
      <trkpt lat="46.29679" lon="6.12055">
        <ele>459</ele>
        <time>2020-11-06T13:57:19.976Z</time>
      </trkpt>
      <trkpt lat="46.29677" lon="6.12053">
        <ele>459</ele>
        <time>2020-11-06T13:57:20.976Z</time>
      </trkpt>
      <trkpt lat="46.29676" lon="6.12052">
        <ele>459</ele>
        <time>2020-11-06T13:57:21.976Z</time>
      </trkpt>
      <trkpt lat="46.29674" lon="6.1205">
        <ele>459</ele>
        <time>2020-11-06T13:57:22.976Z</time>
      </trkpt>
      <trkpt lat="46.29672" lon="6.12048">
        <ele>459</ele>
        <time>2020-11-06T13:57:23.975Z</time>
      </trkpt>
      <trkpt lat="46.29669" lon="6.12046">
        <ele>459</ele>
        <time>2020-11-06T13:57:24.975Z</time>
      </trkpt>
      <trkpt lat="46.29668" lon="6.12044">
        <ele>459</ele>
        <time>2020-11-06T13:57:25.976Z</time>
      </trkpt>
      <trkpt lat="46.29667" lon="6.12043">
        <ele>459</ele>
        <time>2020-11-06T13:57:26.976Z</time>
      </trkpt>
      <trkpt lat="46.29666" lon="6.12041">
        <ele>459</ele>
        <time>2020-11-06T13:57:27.976Z</time>
      </trkpt>
      <trkpt lat="46.29665" lon="6.12039">
        <ele>458</ele>
        <time>2020-11-06T13:57:28.976Z</time>
      </trkpt>
      <trkpt lat="46.29665" lon="6.12037">
        <ele>458</ele>
        <time>2020-11-06T13:57:29.976Z</time>
      </trkpt>
      <trkpt lat="46.29663" lon="6.12035">
        <ele>458</ele>
        <time>2020-11-06T13:57:30.976Z</time>
      </trkpt>
      <trkpt lat="46.29662" lon="6.12033">
        <ele>457</ele>
        <time>2020-11-06T13:57:31.976Z</time>
      </trkpt>
      <trkpt lat="46.2966" lon="6.12031">
        <ele>456</ele>
        <time>2020-11-06T13:57:32.975Z</time>
      </trkpt>
      <trkpt lat="46.2966" lon="6.12029">
        <ele>455</ele>
        <time>2020-11-06T13:57:33.976Z</time>
      </trkpt>
      <trkpt lat="46.29658" lon="6.12028">
        <ele>455</ele>
        <time>2020-11-06T13:57:34.976Z</time>
      </trkpt>
      <trkpt lat="46.29657" lon="6.12026">
        <ele>455</ele>
        <time>2020-11-06T13:57:35.975Z</time>
      </trkpt>
      <trkpt lat="46.29655" lon="6.12022">
        <ele>455</ele>
        <time>2020-11-06T13:57:36.976Z</time>
      </trkpt>
      <trkpt lat="46.29654" lon="6.12019">
        <ele>455</ele>
        <time>2020-11-06T13:57:37.976Z</time>
      </trkpt>
      <trkpt lat="46.29654" lon="6.12017">
        <ele>455</ele>
        <time>2020-11-06T13:57:38.975Z</time>
      </trkpt>
      <trkpt lat="46.29652" lon="6.12014">
        <ele>455</ele>
        <time>2020-11-06T13:57:39.976Z</time>
      </trkpt>
      <trkpt lat="46.29651" lon="6.12011">
        <ele>454</ele>
        <time>2020-11-06T13:57:40.976Z</time>
      </trkpt>
      <trkpt lat="46.2965" lon="6.12008">
        <ele>454</ele>
        <time>2020-11-06T13:57:41.976Z</time>
      </trkpt>
      <trkpt lat="46.29649" lon="6.12006">
        <ele>454</ele>
        <time>2020-11-06T13:57:42.976Z</time>
      </trkpt>
      <trkpt lat="46.29648" lon="6.12003">
        <ele>454</ele>
        <time>2020-11-06T13:57:43.976Z</time>
      </trkpt>
      <trkpt lat="46.29648" lon="6.12001">
        <ele>453</ele>
        <time>2020-11-06T13:57:44.976Z</time>
      </trkpt>
      <trkpt lat="46.29648" lon="6.11997">
        <ele>453</ele>
        <time>2020-11-06T13:57:45.976Z</time>
      </trkpt>
      <trkpt lat="46.29647" lon="6.11993">
        <ele>452</ele>
        <time>2020-11-06T13:57:46.975Z</time>
      </trkpt>
      <trkpt lat="46.29645" lon="6.11989">
        <ele>451</ele>
        <time>2020-11-06T13:57:47.975Z</time>
      </trkpt>
      <trkpt lat="46.29644" lon="6.11985">
        <ele>451</ele>
        <time>2020-11-06T13:57:48.976Z</time>
      </trkpt>
      <trkpt lat="46.29643" lon="6.11982">
        <ele>451</ele>
        <time>2020-11-06T13:57:49.976Z</time>
      </trkpt>
      <trkpt lat="46.29643" lon="6.11979">
        <ele>450</ele>
        <time>2020-11-06T13:57:50.976Z</time>
      </trkpt>
      <trkpt lat="46.29642" lon="6.11977">
        <ele>450</ele>
        <time>2020-11-06T13:57:51.975Z</time>
      </trkpt>
      <trkpt lat="46.29641" lon="6.11974">
        <ele>450</ele>
        <time>2020-11-06T13:57:52.976Z</time>
      </trkpt>
      <trkpt lat="46.2964" lon="6.11971">
        <ele>450</ele>
        <time>2020-11-06T13:57:53.976Z</time>
      </trkpt>
      <trkpt lat="46.29639" lon="6.11968">
        <ele>450</ele>
        <time>2020-11-06T13:57:54.976Z</time>
      </trkpt>
      <trkpt lat="46.29638" lon="6.11966">
        <ele>450</ele>
        <time>2020-11-06T13:57:55.976Z</time>
      </trkpt>
      <trkpt lat="46.29638" lon="6.11963">
        <ele>450</ele>
        <time>2020-11-06T13:57:56.976Z</time>
      </trkpt>
      <trkpt lat="46.29638" lon="6.1196">
        <ele>450</ele>
        <time>2020-11-06T13:57:57.976Z</time>
      </trkpt>
      <trkpt lat="46.29638" lon="6.11957">
        <ele>450</ele>
        <time>2020-11-06T13:57:58.976Z</time>
      </trkpt>
      <trkpt lat="46.29638" lon="6.11954">
        <ele>450</ele>
        <time>2020-11-06T13:57:59.975Z</time>
      </trkpt>
      <trkpt lat="46.29637" lon="6.11951">
        <ele>450</ele>
        <time>2020-11-06T13:58:00.975Z</time>
      </trkpt>
      <trkpt lat="46.29637" lon="6.11947">
        <ele>450</ele>
        <time>2020-11-06T13:58:01.976Z</time>
      </trkpt>
      <trkpt lat="46.29635" lon="6.11943">
        <ele>450</ele>
        <time>2020-11-06T13:58:02.976Z</time>
      </trkpt>
      <trkpt lat="46.29634" lon="6.11939">
        <ele>449</ele>
        <time>2020-11-06T13:58:03.976Z</time>
      </trkpt>
      <trkpt lat="46.29634" lon="6.11935">
        <ele>449</ele>
        <time>2020-11-06T13:58:04.976Z</time>
      </trkpt>
      <trkpt lat="46.29633" lon="6.11932">
        <ele>449</ele>
        <time>2020-11-06T13:58:05.975Z</time>
      </trkpt>
      <trkpt lat="46.29632" lon="6.11929">
        <ele>449</ele>
        <time>2020-11-06T13:58:06.976Z</time>
      </trkpt>
      <trkpt lat="46.29631" lon="6.11927">
        <ele>449</ele>
        <time>2020-11-06T13:58:07.976Z</time>
      </trkpt>
      <trkpt lat="46.2963" lon="6.11925">
        <ele>449</ele>
        <time>2020-11-06T13:58:08.976Z</time>
      </trkpt>
      <trkpt lat="46.29629" lon="6.11922">
        <ele>449</ele>
        <time>2020-11-06T13:58:09.975Z</time>
      </trkpt>
      <trkpt lat="46.29629" lon="6.11918">
        <ele>449</ele>
        <time>2020-11-06T13:58:10.976Z</time>
      </trkpt>
      <trkpt lat="46.29629" lon="6.11914">
        <ele>449</ele>
        <time>2020-11-06T13:58:11.976Z</time>
      </trkpt>
      <trkpt lat="46.29628" lon="6.11911">
        <ele>449</ele>
        <time>2020-11-06T13:58:12.976Z</time>
      </trkpt>
      <trkpt lat="46.29627" lon="6.11908">
        <ele>449</ele>
        <time>2020-11-06T13:58:13.976Z</time>
      </trkpt>
      <trkpt lat="46.29628" lon="6.11905">
        <ele>450</ele>
        <time>2020-11-06T13:58:14.975Z</time>
      </trkpt>
      <trkpt lat="46.29628" lon="6.11902">
        <ele>450</ele>
        <time>2020-11-06T13:58:15.976Z</time>
      </trkpt>
      <trkpt lat="46.29627" lon="6.11899">
        <ele>450</ele>
        <time>2020-11-06T13:58:16.976Z</time>
      </trkpt>
      <trkpt lat="46.29625" lon="6.11897">
        <ele>450</ele>
        <time>2020-11-06T13:58:17.976Z</time>
      </trkpt>
      <trkpt lat="46.29623" lon="6.11895">
        <ele>451</ele>
        <time>2020-11-06T13:58:18.975Z</time>
      </trkpt>
      <trkpt lat="46.29621" lon="6.11894">
        <ele>451</ele>
        <time>2020-11-06T13:58:19.975Z</time>
      </trkpt>
      <trkpt lat="46.2962" lon="6.11892">
        <ele>451</ele>
        <time>2020-11-06T13:58:20.975Z</time>
      </trkpt>
      <trkpt lat="46.29618" lon="6.11891">
        <ele>452</ele>
        <time>2020-11-06T13:58:21.975Z</time>
      </trkpt>
      <trkpt lat="46.29616" lon="6.11891">
        <ele>452</ele>
        <time>2020-11-06T13:58:22.976Z</time>
      </trkpt>
      <trkpt lat="46.29614" lon="6.1189">
        <ele>453</ele>
        <time>2020-11-06T13:58:23.975Z</time>
      </trkpt>
      <trkpt lat="46.29612" lon="6.11889">
        <ele>453</ele>
        <time>2020-11-06T13:58:24.976Z</time>
      </trkpt>
      <trkpt lat="46.2961" lon="6.11887">
        <ele>453</ele>
        <time>2020-11-06T13:58:25.976Z</time>
      </trkpt>
      <trkpt lat="46.29608" lon="6.11886">
        <ele>453</ele>
        <time>2020-11-06T13:58:26.975Z</time>
      </trkpt>
      <trkpt lat="46.29606" lon="6.11885">
        <ele>453</ele>
        <time>2020-11-06T13:58:27.975Z</time>
      </trkpt>
      <trkpt lat="46.29604" lon="6.11885">
        <ele>454</ele>
        <time>2020-11-06T13:58:28.976Z</time>
      </trkpt>
      <trkpt lat="46.29602" lon="6.11884">
        <ele>454</ele>
        <time>2020-11-06T13:58:29.975Z</time>
      </trkpt>
      <trkpt lat="46.296" lon="6.11883">
        <ele>454</ele>
        <time>2020-11-06T13:58:30.976Z</time>
      </trkpt>
      <trkpt lat="46.29597" lon="6.11883">
        <ele>454</ele>
        <time>2020-11-06T13:58:31.975Z</time>
      </trkpt>
      <trkpt lat="46.29594" lon="6.11883">
        <ele>455</ele>
        <time>2020-11-06T13:58:32.976Z</time>
      </trkpt>
      <trkpt lat="46.29592" lon="6.11884">
        <ele>455</ele>
        <time>2020-11-06T13:58:33.976Z</time>
      </trkpt>
      <trkpt lat="46.2959" lon="6.11884">
        <ele>456</ele>
        <time>2020-11-06T13:58:34.976Z</time>
      </trkpt>
      <trkpt lat="46.29587" lon="6.11884">
        <ele>456</ele>
        <time>2020-11-06T13:58:35.976Z</time>
      </trkpt>
      <trkpt lat="46.29584" lon="6.11885">
        <ele>457</ele>
        <time>2020-11-06T13:58:36.976Z</time>
      </trkpt>
      <trkpt lat="46.29582" lon="6.11886">
        <ele>457</ele>
        <time>2020-11-06T13:58:37.976Z</time>
      </trkpt>
      <trkpt lat="46.2958" lon="6.11886">
        <ele>457</ele>
        <time>2020-11-06T13:58:38.976Z</time>
      </trkpt>
      <trkpt lat="46.29578" lon="6.11887">
        <ele>458</ele>
        <time>2020-11-06T13:58:39.976Z</time>
      </trkpt>
      <trkpt lat="46.29576" lon="6.11887">
        <ele>458</ele>
        <time>2020-11-06T13:58:40.975Z</time>
      </trkpt>
      <trkpt lat="46.29574" lon="6.11887">
        <ele>458</ele>
        <time>2020-11-06T13:58:41.975Z</time>
      </trkpt>
      <trkpt lat="46.29573" lon="6.11887">
        <ele>459</ele>
        <time>2020-11-06T13:58:42.976Z</time>
      </trkpt>
      <trkpt lat="46.29571" lon="6.11887">
        <ele>459</ele>
        <time>2020-11-06T13:58:43.975Z</time>
      </trkpt>
      <trkpt lat="46.29569" lon="6.11887">
        <ele>459</ele>
        <time>2020-11-06T13:58:44.976Z</time>
      </trkpt>
      <trkpt lat="46.29567" lon="6.11888">
        <ele>459</ele>
        <time>2020-11-06T13:58:45.976Z</time>
      </trkpt>
      <trkpt lat="46.29565" lon="6.11888">
        <ele>459</ele>
        <time>2020-11-06T13:58:46.976Z</time>
      </trkpt>
      <trkpt lat="46.29563" lon="6.11889">
        <ele>460</ele>
        <time>2020-11-06T13:58:47.976Z</time>
      </trkpt>
      <trkpt lat="46.29561" lon="6.1189">
        <ele>460</ele>
        <time>2020-11-06T13:58:48.975Z</time>
      </trkpt>
      <trkpt lat="46.29559" lon="6.11891">
        <ele>460</ele>
        <time>2020-11-06T13:58:49.976Z</time>
      </trkpt>
      <trkpt lat="46.29557" lon="6.11893">
        <ele>461</ele>
        <time>2020-11-06T13:58:50.975Z</time>
      </trkpt>
      <trkpt lat="46.29555" lon="6.11895">
        <ele>461</ele>
        <time>2020-11-06T13:58:51.976Z</time>
      </trkpt>
      <trkpt lat="46.29554" lon="6.11897">
        <ele>462</ele>
        <time>2020-11-06T13:58:52.976Z</time>
      </trkpt>
      <trkpt lat="46.29552" lon="6.11898">
        <ele>462</ele>
        <time>2020-11-06T13:58:53.976Z</time>
      </trkpt>
      <trkpt lat="46.2955" lon="6.11899">
        <ele>463</ele>
        <time>2020-11-06T13:58:54.975Z</time>
      </trkpt>
      <trkpt lat="46.29547" lon="6.11901">
        <ele>463</ele>
        <time>2020-11-06T13:58:55.976Z</time>
      </trkpt>
      <trkpt lat="46.29544" lon="6.11903">
        <ele>463</ele>
        <time>2020-11-06T13:58:56.976Z</time>
      </trkpt>
      <trkpt lat="46.29541" lon="6.11906">
        <ele>463</ele>
        <time>2020-11-06T13:58:57.975Z</time>
      </trkpt>
      <trkpt lat="46.29538" lon="6.11909">
        <ele>463</ele>
        <time>2020-11-06T13:58:58.975Z</time>
      </trkpt>
      <trkpt lat="46.29536" lon="6.11912">
        <ele>462</ele>
        <time>2020-11-06T13:58:59.976Z</time>
      </trkpt>
      <trkpt lat="46.29534" lon="6.11914">
        <ele>462</ele>
        <time>2020-11-06T13:59:00.976Z</time>
      </trkpt>
      <trkpt lat="46.29532" lon="6.11916">
        <ele>462</ele>
        <time>2020-11-06T13:59:01.976Z</time>
      </trkpt>
      <trkpt lat="46.2953" lon="6.11917">
        <ele>462</ele>
        <time>2020-11-06T13:59:02.975Z</time>
      </trkpt>
      <trkpt lat="46.29528" lon="6.1192">
        <ele>462</ele>
        <time>2020-11-06T13:59:03.976Z</time>
      </trkpt>
      <trkpt lat="46.29526" lon="6.11922">
        <ele>461</ele>
        <time>2020-11-06T13:59:04.975Z</time>
      </trkpt>
      <trkpt lat="46.29524" lon="6.11926">
        <ele>461</ele>
        <time>2020-11-06T13:59:05.975Z</time>
      </trkpt>
      <trkpt lat="46.29523" lon="6.11929">
        <ele>461</ele>
        <time>2020-11-06T13:59:06.976Z</time>
      </trkpt>
      <trkpt lat="46.29521" lon="6.11932">
        <ele>461</ele>
        <time>2020-11-06T13:59:07.976Z</time>
      </trkpt>
      <trkpt lat="46.29521" lon="6.11934">
        <ele>460</ele>
        <time>2020-11-06T13:59:08.976Z</time>
      </trkpt>
      <trkpt lat="46.2952" lon="6.11936">
        <ele>459</ele>
        <time>2020-11-06T13:59:09.975Z</time>
      </trkpt>
      <trkpt lat="46.29519" lon="6.11939">
        <ele>459</ele>
        <time>2020-11-06T13:59:10.976Z</time>
      </trkpt>
      <trkpt lat="46.29518" lon="6.11941">
        <ele>459</ele>
        <time>2020-11-06T13:59:11.975Z</time>
      </trkpt>
      <trkpt lat="46.29516" lon="6.11943">
        <ele>458</ele>
        <time>2020-11-06T13:59:12.975Z</time>
      </trkpt>
      <trkpt lat="46.29515" lon="6.11945">
        <ele>458</ele>
        <time>2020-11-06T13:59:13.976Z</time>
      </trkpt>
      <trkpt lat="46.29513" lon="6.11947">
        <ele>457</ele>
        <time>2020-11-06T13:59:14.976Z</time>
      </trkpt>
      <trkpt lat="46.29511" lon="6.11949">
        <ele>457</ele>
        <time>2020-11-06T13:59:15.976Z</time>
      </trkpt>
      <trkpt lat="46.2951" lon="6.11951">
        <ele>456</ele>
        <time>2020-11-06T13:59:16.975Z</time>
      </trkpt>
      <trkpt lat="46.29509" lon="6.11953">
        <ele>455</ele>
        <time>2020-11-06T13:59:17.975Z</time>
      </trkpt>
      <trkpt lat="46.29508" lon="6.11955">
        <ele>454</ele>
        <time>2020-11-06T13:59:18.976Z</time>
      </trkpt>
      <trkpt lat="46.29506" lon="6.11957">
        <ele>454</ele>
        <time>2020-11-06T13:59:19.975Z</time>
      </trkpt>
      <trkpt lat="46.29505" lon="6.1196">
        <ele>453</ele>
        <time>2020-11-06T13:59:20.976Z</time>
      </trkpt>
      <trkpt lat="46.29504" lon="6.11964">
        <ele>452</ele>
        <time>2020-11-06T13:59:21.976Z</time>
      </trkpt>
      <trkpt lat="46.29503" lon="6.11967">
        <ele>451</ele>
        <time>2020-11-06T13:59:22.976Z</time>
      </trkpt>
      <trkpt lat="46.29501" lon="6.11971">
        <ele>449</ele>
        <time>2020-11-06T13:59:23.976Z</time>
      </trkpt>
      <trkpt lat="46.29497" lon="6.11974">
        <ele>448</ele>
        <time>2020-11-06T13:59:24.976Z</time>
      </trkpt>
      <trkpt lat="46.29495" lon="6.11976">
        <ele>447</ele>
        <time>2020-11-06T13:59:25.976Z</time>
      </trkpt>
      <trkpt lat="46.29492" lon="6.11978">
        <ele>446</ele>
        <time>2020-11-06T13:59:26.975Z</time>
      </trkpt>
      <trkpt lat="46.2949" lon="6.11979">
        <ele>446</ele>
        <time>2020-11-06T13:59:27.976Z</time>
      </trkpt>
      <trkpt lat="46.29489" lon="6.11979">
        <ele>446</ele>
        <time>2020-11-06T13:59:28.975Z</time>
      </trkpt>
      <trkpt lat="46.29487" lon="6.11979">
        <ele>446</ele>
        <time>2020-11-06T13:59:29.976Z</time>
      </trkpt>
      <trkpt lat="46.29485" lon="6.1198">
        <ele>446</ele>
        <time>2020-11-06T13:59:30.976Z</time>
      </trkpt>
      <trkpt lat="46.29483" lon="6.11981">
        <ele>447</ele>
        <time>2020-11-06T13:59:31.975Z</time>
      </trkpt>
      <trkpt lat="46.2948" lon="6.11982">
        <ele>447</ele>
        <time>2020-11-06T13:59:32.975Z</time>
      </trkpt>
      <trkpt lat="46.29479" lon="6.11982">
        <ele>448</ele>
        <time>2020-11-06T13:59:33.975Z</time>
      </trkpt>
      <trkpt lat="46.29479" lon="6.11982">
        <ele>449</ele>
        <time>2020-11-06T13:59:34.975Z</time>
      </trkpt>
      <trkpt lat="46.29478" lon="6.11982">
        <ele>449</ele>
        <time>2020-11-06T13:59:35.975Z</time>
      </trkpt>
      <trkpt lat="46.29477" lon="6.11982">
        <ele>450</ele>
        <time>2020-11-06T13:59:36.975Z</time>
      </trkpt>
      <trkpt lat="46.29475" lon="6.1198">
        <ele>450</ele>
        <time>2020-11-06T13:59:37.976Z</time>
      </trkpt>
      <trkpt lat="46.29473" lon="6.11979">
        <ele>450</ele>
        <time>2020-11-06T13:59:38.975Z</time>
      </trkpt>
      <trkpt lat="46.29471" lon="6.11979">
        <ele>451</ele>
        <time>2020-11-06T13:59:39.975Z</time>
      </trkpt>
      <trkpt lat="46.29469" lon="6.11978">
        <ele>451</ele>
        <time>2020-11-06T13:59:40.975Z</time>
      </trkpt>
      <trkpt lat="46.29467" lon="6.11978">
        <ele>452</ele>
        <time>2020-11-06T13:59:41.975Z</time>
      </trkpt>
      <trkpt lat="46.29465" lon="6.11977">
        <ele>452</ele>
        <time>2020-11-06T13:59:42.976Z</time>
      </trkpt>
      <trkpt lat="46.29462" lon="6.11977">
        <ele>453</ele>
        <time>2020-11-06T13:59:43.975Z</time>
      </trkpt>
      <trkpt lat="46.29459" lon="6.11976">
        <ele>454</ele>
        <time>2020-11-06T13:59:44.975Z</time>
      </trkpt>
      <trkpt lat="46.29457" lon="6.11975">
        <ele>455</ele>
        <time>2020-11-06T13:59:45.975Z</time>
      </trkpt>
      <trkpt lat="46.29455" lon="6.11974">
        <ele>456</ele>
        <time>2020-11-06T13:59:46.975Z</time>
      </trkpt>
      <trkpt lat="46.29452" lon="6.11974">
        <ele>456</ele>
        <time>2020-11-06T13:59:47.975Z</time>
      </trkpt>
      <trkpt lat="46.29449" lon="6.11973">
        <ele>457</ele>
        <time>2020-11-06T13:59:48.975Z</time>
      </trkpt>
      <trkpt lat="46.29446" lon="6.11974">
        <ele>457</ele>
        <time>2020-11-06T13:59:49.975Z</time>
      </trkpt>
      <trkpt lat="46.29444" lon="6.11974">
        <ele>458</ele>
        <time>2020-11-06T13:59:50.975Z</time>
      </trkpt>
      <trkpt lat="46.29441" lon="6.11975">
        <ele>458</ele>
        <time>2020-11-06T13:59:51.975Z</time>
      </trkpt>
      <trkpt lat="46.29439" lon="6.11975">
        <ele>459</ele>
        <time>2020-11-06T13:59:52.975Z</time>
      </trkpt>
      <trkpt lat="46.29437" lon="6.11977">
        <ele>459</ele>
        <time>2020-11-06T13:59:53.975Z</time>
      </trkpt>
      <trkpt lat="46.29435" lon="6.11978">
        <ele>460</ele>
        <time>2020-11-06T13:59:54.975Z</time>
      </trkpt>
      <trkpt lat="46.29433" lon="6.11978">
        <ele>460</ele>
        <time>2020-11-06T13:59:55.975Z</time>
      </trkpt>
      <trkpt lat="46.2943" lon="6.11979">
        <ele>460</ele>
        <time>2020-11-06T13:59:56.975Z</time>
      </trkpt>
      <trkpt lat="46.29428" lon="6.11979">
        <ele>460</ele>
        <time>2020-11-06T13:59:57.975Z</time>
      </trkpt>
      <trkpt lat="46.29424" lon="6.11978">
        <ele>459</ele>
        <time>2020-11-06T13:59:58.975Z</time>
      </trkpt>
      <trkpt lat="46.29421" lon="6.11978">
        <ele>459</ele>
        <time>2020-11-06T13:59:59.976Z</time>
      </trkpt>
      <trkpt lat="46.29418" lon="6.11979">
        <ele>458</ele>
        <time>2020-11-06T14:00:00.975Z</time>
      </trkpt>
      <trkpt lat="46.29416" lon="6.11979">
        <ele>458</ele>
        <time>2020-11-06T14:00:01.975Z</time>
      </trkpt>
      <trkpt lat="46.29414" lon="6.11979">
        <ele>457</ele>
        <time>2020-11-06T14:00:02.976Z</time>
      </trkpt>
      <trkpt lat="46.29412" lon="6.11978">
        <ele>457</ele>
        <time>2020-11-06T14:00:03.976Z</time>
      </trkpt>
      <trkpt lat="46.29412" lon="6.11977">
        <ele>456</ele>
        <time>2020-11-06T14:00:04.976Z</time>
      </trkpt>
      <trkpt lat="46.29411" lon="6.11976">
        <ele>456</ele>
        <time>2020-11-06T14:00:05.976Z</time>
      </trkpt>
      <trkpt lat="46.29409" lon="6.11975">
        <ele>455</ele>
        <time>2020-11-06T14:00:06.975Z</time>
      </trkpt>
      <trkpt lat="46.29407" lon="6.11973">
        <ele>455</ele>
        <time>2020-11-06T14:00:07.975Z</time>
      </trkpt>
      <trkpt lat="46.29406" lon="6.11972">
        <ele>454</ele>
        <time>2020-11-06T14:00:08.975Z</time>
      </trkpt>
      <trkpt lat="46.29404" lon="6.1197">
        <ele>454</ele>
        <time>2020-11-06T14:00:09.975Z</time>
      </trkpt>
      <trkpt lat="46.29401" lon="6.11968">
        <ele>453</ele>
        <time>2020-11-06T14:00:10.975Z</time>
      </trkpt>
      <trkpt lat="46.29399" lon="6.11966">
        <ele>453</ele>
        <time>2020-11-06T14:00:11.975Z</time>
      </trkpt>
      <trkpt lat="46.29397" lon="6.11962">
        <ele>453</ele>
        <time>2020-11-06T14:00:12.975Z</time>
      </trkpt>
      <trkpt lat="46.29394" lon="6.11959">
        <ele>453</ele>
        <time>2020-11-06T14:00:13.976Z</time>
      </trkpt>
      <trkpt lat="46.29393" lon="6.11955">
        <ele>453</ele>
        <time>2020-11-06T14:00:14.976Z</time>
      </trkpt>
      <trkpt lat="46.29392" lon="6.11951">
        <ele>453</ele>
        <time>2020-11-06T14:00:15.976Z</time>
      </trkpt>
      <trkpt lat="46.29391" lon="6.11949">
        <ele>453</ele>
        <time>2020-11-06T14:00:16.975Z</time>
      </trkpt>
      <trkpt lat="46.29391" lon="6.11946">
        <ele>453</ele>
        <time>2020-11-06T14:00:17.976Z</time>
      </trkpt>
      <trkpt lat="46.29389" lon="6.11944">
        <ele>454</ele>
        <time>2020-11-06T14:00:18.975Z</time>
      </trkpt>
      <trkpt lat="46.29387" lon="6.11943">
        <ele>454</ele>
        <time>2020-11-06T14:00:19.976Z</time>
      </trkpt>
      <trkpt lat="46.29385" lon="6.11942">
        <ele>454</ele>
        <time>2020-11-06T14:00:20.976Z</time>
      </trkpt>
      <trkpt lat="46.29382" lon="6.11941">
        <ele>455</ele>
        <time>2020-11-06T14:00:21.975Z</time>
      </trkpt>
      <trkpt lat="46.29379" lon="6.11941">
        <ele>456</ele>
        <time>2020-11-06T14:00:22.976Z</time>
      </trkpt>
      <trkpt lat="46.29377" lon="6.1194">
        <ele>457</ele>
        <time>2020-11-06T14:00:23.976Z</time>
      </trkpt>
      <trkpt lat="46.29374" lon="6.11941">
        <ele>457</ele>
        <time>2020-11-06T14:00:24.976Z</time>
      </trkpt>
      <trkpt lat="46.29372" lon="6.1194">
        <ele>458</ele>
        <time>2020-11-06T14:00:25.976Z</time>
      </trkpt>
      <trkpt lat="46.29371" lon="6.11939">
        <ele>458</ele>
        <time>2020-11-06T14:00:26.976Z</time>
      </trkpt>
      <trkpt lat="46.29369" lon="6.11938">
        <ele>458</ele>
        <time>2020-11-06T14:00:27.975Z</time>
      </trkpt>
      <trkpt lat="46.29368" lon="6.11937">
        <ele>459</ele>
        <time>2020-11-06T14:00:28.976Z</time>
      </trkpt>
      <trkpt lat="46.29365" lon="6.11936">
        <ele>459</ele>
        <time>2020-11-06T14:00:29.976Z</time>
      </trkpt>
      <trkpt lat="46.29363" lon="6.11934">
        <ele>460</ele>
        <time>2020-11-06T14:00:30.975Z</time>
      </trkpt>
      <trkpt lat="46.2936" lon="6.11933">
        <ele>460</ele>
        <time>2020-11-06T14:00:31.976Z</time>
      </trkpt>
      <trkpt lat="46.29357" lon="6.11932">
        <ele>460</ele>
        <time>2020-11-06T14:00:32.976Z</time>
      </trkpt>
      <trkpt lat="46.29354" lon="6.1193">
        <ele>461</ele>
        <time>2020-11-06T14:00:33.975Z</time>
      </trkpt>
      <trkpt lat="46.29351" lon="6.11928">
        <ele>461</ele>
        <time>2020-11-06T14:00:34.976Z</time>
      </trkpt>
      <trkpt lat="46.29348" lon="6.11928">
        <ele>461</ele>
        <time>2020-11-06T14:00:35.976Z</time>
      </trkpt>
      <trkpt lat="46.29346" lon="6.11929">
        <ele>462</ele>
        <time>2020-11-06T14:00:36.976Z</time>
      </trkpt>
      <trkpt lat="46.29344" lon="6.11929">
        <ele>462</ele>
        <time>2020-11-06T14:00:37.976Z</time>
      </trkpt>
      <trkpt lat="46.29341" lon="6.1193">
        <ele>462</ele>
        <time>2020-11-06T14:00:38.976Z</time>
      </trkpt>
      <trkpt lat="46.29339" lon="6.11931">
        <ele>462</ele>
        <time>2020-11-06T14:00:39.975Z</time>
      </trkpt>
      <trkpt lat="46.29336" lon="6.11932">
        <ele>462</ele>
        <time>2020-11-06T14:00:40.976Z</time>
      </trkpt>
      <trkpt lat="46.29334" lon="6.11933">
        <ele>462</ele>
        <time>2020-11-06T14:00:41.975Z</time>
      </trkpt>
      <trkpt lat="46.29331" lon="6.11935">
        <ele>462</ele>
        <time>2020-11-06T14:00:42.976Z</time>
      </trkpt>
      <trkpt lat="46.29329" lon="6.11936">
        <ele>463</ele>
        <time>2020-11-06T14:00:43.976Z</time>
      </trkpt>
      <trkpt lat="46.29326" lon="6.11938">
        <ele>463</ele>
        <time>2020-11-06T14:00:44.975Z</time>
      </trkpt>
      <trkpt lat="46.29323" lon="6.1194">
        <ele>463</ele>
        <time>2020-11-06T14:00:45.976Z</time>
      </trkpt>
      <trkpt lat="46.29322" lon="6.11943">
        <ele>463</ele>
        <time>2020-11-06T14:00:46.975Z</time>
      </trkpt>
      <trkpt lat="46.2932" lon="6.11947">
        <ele>463</ele>
        <time>2020-11-06T14:00:47.976Z</time>
      </trkpt>
      <trkpt lat="46.29318" lon="6.11951">
        <ele>463</ele>
        <time>2020-11-06T14:00:48.976Z</time>
      </trkpt>
      <trkpt lat="46.29315" lon="6.11955">
        <ele>462</ele>
        <time>2020-11-06T14:00:49.976Z</time>
      </trkpt>
      <trkpt lat="46.29313" lon="6.11957">
        <ele>462</ele>
        <time>2020-11-06T14:00:50.975Z</time>
      </trkpt>
      <trkpt lat="46.29311" lon="6.11961">
        <ele>461</ele>
        <time>2020-11-06T14:00:51.976Z</time>
      </trkpt>
      <trkpt lat="46.2931" lon="6.11964">
        <ele>461</ele>
        <time>2020-11-06T14:00:52.975Z</time>
      </trkpt>
      <trkpt lat="46.2931" lon="6.11966">
        <ele>460</ele>
        <time>2020-11-06T14:00:53.975Z</time>
      </trkpt>
      <trkpt lat="46.29309" lon="6.11969">
        <ele>459</ele>
        <time>2020-11-06T14:00:54.975Z</time>
      </trkpt>
      <trkpt lat="46.29308" lon="6.11972">
        <ele>458</ele>
        <time>2020-11-06T14:00:55.976Z</time>
      </trkpt>
      <trkpt lat="46.29307" lon="6.11975">
        <ele>457</ele>
        <time>2020-11-06T14:00:56.976Z</time>
      </trkpt>
      <trkpt lat="46.29305" lon="6.11978">
        <ele>456</ele>
        <time>2020-11-06T14:00:57.976Z</time>
      </trkpt>
      <trkpt lat="46.29304" lon="6.11981">
        <ele>455</ele>
        <time>2020-11-06T14:00:58.976Z</time>
      </trkpt>
      <trkpt lat="46.29305" lon="6.11985">
        <ele>454</ele>
        <time>2020-11-06T14:00:59.976Z</time>
      </trkpt>
      <trkpt lat="46.29304" lon="6.1199">
        <ele>453</ele>
        <time>2020-11-06T14:01:00.976Z</time>
      </trkpt>
      <trkpt lat="46.29303" lon="6.11994">
        <ele>453</ele>
        <time>2020-11-06T14:01:01.976Z</time>
      </trkpt>
      <trkpt lat="46.29302" lon="6.11997">
        <ele>452</ele>
        <time>2020-11-06T14:01:02.976Z</time>
      </trkpt>
      <trkpt lat="46.29301" lon="6.11999">
        <ele>451</ele>
        <time>2020-11-06T14:01:03.976Z</time>
      </trkpt>
      <trkpt lat="46.29301" lon="6.12002">
        <ele>451</ele>
        <time>2020-11-06T14:01:04.975Z</time>
      </trkpt>
      <trkpt lat="46.29301" lon="6.12005">
        <ele>450</ele>
        <time>2020-11-06T14:01:05.976Z</time>
      </trkpt>
      <trkpt lat="46.29301" lon="6.12009">
        <ele>449</ele>
        <time>2020-11-06T14:01:06.976Z</time>
      </trkpt>
      <trkpt lat="46.29302" lon="6.12012">
        <ele>449</ele>
        <time>2020-11-06T14:01:07.976Z</time>
      </trkpt>
      <trkpt lat="46.29303" lon="6.12015">
        <ele>449</ele>
        <time>2020-11-06T14:01:08.976Z</time>
      </trkpt>
      <trkpt lat="46.29304" lon="6.12019">
        <ele>449</ele>
        <time>2020-11-06T14:01:09.975Z</time>
      </trkpt>
      <trkpt lat="46.29305" lon="6.12023">
        <ele>448</ele>
        <time>2020-11-06T14:01:10.975Z</time>
      </trkpt>
      <trkpt lat="46.29306" lon="6.12026">
        <ele>448</ele>
        <time>2020-11-06T14:01:11.976Z</time>
      </trkpt>
      <trkpt lat="46.29307" lon="6.12029">
        <ele>448</ele>
        <time>2020-11-06T14:01:12.976Z</time>
      </trkpt>
      <trkpt lat="46.29307" lon="6.12033">
        <ele>448</ele>
        <time>2020-11-06T14:01:13.976Z</time>
      </trkpt>
      <trkpt lat="46.29307" lon="6.12037">
        <ele>447</ele>
        <time>2020-11-06T14:01:14.976Z</time>
      </trkpt>
      <trkpt lat="46.29307" lon="6.1204">
        <ele>447</ele>
        <time>2020-11-06T14:01:15.976Z</time>
      </trkpt>
      <trkpt lat="46.29306" lon="6.12043">
        <ele>447</ele>
        <time>2020-11-06T14:01:16.976Z</time>
      </trkpt>
      <trkpt lat="46.29305" lon="6.12045">
        <ele>447</ele>
        <time>2020-11-06T14:01:17.976Z</time>
      </trkpt>
      <trkpt lat="46.29304" lon="6.12049">
        <ele>447</ele>
        <time>2020-11-06T14:01:18.976Z</time>
      </trkpt>
      <trkpt lat="46.29304" lon="6.12051">
        <ele>447</ele>
        <time>2020-11-06T14:01:19.976Z</time>
      </trkpt>
      <trkpt lat="46.29304" lon="6.12053">
        <ele>447</ele>
        <time>2020-11-06T14:01:20.976Z</time>
      </trkpt>
      <trkpt lat="46.29304" lon="6.12056">
        <ele>446</ele>
        <time>2020-11-06T14:01:21.975Z</time>
      </trkpt>
      <trkpt lat="46.29303" lon="6.12058">
        <ele>446</ele>
        <time>2020-11-06T14:01:22.976Z</time>
      </trkpt>
      <trkpt lat="46.29303" lon="6.12061">
        <ele>445</ele>
        <time>2020-11-06T14:01:23.976Z</time>
      </trkpt>
      <trkpt lat="46.29302" lon="6.12063">
        <ele>445</ele>
        <time>2020-11-06T14:01:24.975Z</time>
      </trkpt>
      <trkpt lat="46.29301" lon="6.12065">
        <ele>444</ele>
        <time>2020-11-06T14:01:25.976Z</time>
      </trkpt>
      <trkpt lat="46.29301" lon="6.12068">
        <ele>444</ele>
        <time>2020-11-06T14:01:26.976Z</time>
      </trkpt>
      <trkpt lat="46.293" lon="6.12071">
        <ele>443</ele>
        <time>2020-11-06T14:01:27.976Z</time>
      </trkpt>
      <trkpt lat="46.293" lon="6.12074">
        <ele>443</ele>
        <time>2020-11-06T14:01:28.976Z</time>
      </trkpt>
      <trkpt lat="46.29299" lon="6.12078">
        <ele>442</ele>
        <time>2020-11-06T14:01:29.975Z</time>
      </trkpt>
      <trkpt lat="46.29299" lon="6.12082">
        <ele>442</ele>
        <time>2020-11-06T14:01:30.976Z</time>
      </trkpt>
      <trkpt lat="46.29297" lon="6.12087">
        <ele>442</ele>
        <time>2020-11-06T14:01:31.976Z</time>
      </trkpt>
      <trkpt lat="46.29296" lon="6.12092">
        <ele>442</ele>
        <time>2020-11-06T14:01:32.975Z</time>
      </trkpt>
      <trkpt lat="46.29295" lon="6.12098">
        <ele>442</ele>
        <time>2020-11-06T14:01:33.976Z</time>
      </trkpt>
      <trkpt lat="46.29293" lon="6.12103">
        <ele>442</ele>
        <time>2020-11-06T14:01:34.975Z</time>
      </trkpt>
      <trkpt lat="46.29292" lon="6.12109">
        <ele>442</ele>
        <time>2020-11-06T14:01:35.976Z</time>
      </trkpt>
      <trkpt lat="46.29291" lon="6.12114">
        <ele>441</ele>
        <time>2020-11-06T14:01:36.976Z</time>
      </trkpt>
      <trkpt lat="46.29291" lon="6.12119">
        <ele>441</ele>
        <time>2020-11-06T14:01:37.976Z</time>
      </trkpt>
      <trkpt lat="46.2929" lon="6.12123">
        <ele>441</ele>
        <time>2020-11-06T14:01:38.976Z</time>
      </trkpt>
      <trkpt lat="46.29291" lon="6.12127">
        <ele>441</ele>
        <time>2020-11-06T14:01:39.976Z</time>
      </trkpt>
      <trkpt lat="46.29292" lon="6.1213">
        <ele>441</ele>
        <time>2020-11-06T14:01:40.976Z</time>
      </trkpt>
      <trkpt lat="46.29292" lon="6.12134">
        <ele>442</ele>
        <time>2020-11-06T14:01:41.975Z</time>
      </trkpt>
      <trkpt lat="46.29292" lon="6.12138">
        <ele>442</ele>
        <time>2020-11-06T14:01:42.975Z</time>
      </trkpt>
      <trkpt lat="46.29291" lon="6.12142">
        <ele>442</ele>
        <time>2020-11-06T14:01:43.975Z</time>
      </trkpt>
      <trkpt lat="46.29291" lon="6.12145">
        <ele>442</ele>
        <time>2020-11-06T14:01:44.976Z</time>
      </trkpt>
      <trkpt lat="46.2929" lon="6.12149">
        <ele>442</ele>
        <time>2020-11-06T14:01:45.975Z</time>
      </trkpt>
      <trkpt lat="46.2929" lon="6.12153">
        <ele>442</ele>
        <time>2020-11-06T14:01:46.976Z</time>
      </trkpt>
      <trkpt lat="46.2929" lon="6.12157">
        <ele>442</ele>
        <time>2020-11-06T14:01:47.975Z</time>
      </trkpt>
      <trkpt lat="46.29291" lon="6.1216">
        <ele>441</ele>
        <time>2020-11-06T14:01:48.975Z</time>
      </trkpt>
      <trkpt lat="46.29291" lon="6.12164">
        <ele>441</ele>
        <time>2020-11-06T14:01:49.976Z</time>
      </trkpt>
      <trkpt lat="46.29291" lon="6.12167">
        <ele>440</ele>
        <time>2020-11-06T14:01:50.976Z</time>
      </trkpt>
      <trkpt lat="46.29291" lon="6.1217">
        <ele>440</ele>
        <time>2020-11-06T14:01:51.976Z</time>
      </trkpt>
      <trkpt lat="46.29291" lon="6.12172">
        <ele>439</ele>
        <time>2020-11-06T14:01:52.976Z</time>
      </trkpt>
      <trkpt lat="46.2929" lon="6.12175">
        <ele>439</ele>
        <time>2020-11-06T14:01:53.975Z</time>
      </trkpt>
      <trkpt lat="46.29289" lon="6.12177">
        <ele>439</ele>
        <time>2020-11-06T14:01:54.976Z</time>
      </trkpt>
      <trkpt lat="46.29287" lon="6.12179">
        <ele>439</ele>
        <time>2020-11-06T14:01:55.976Z</time>
      </trkpt>
      <trkpt lat="46.29285" lon="6.12181">
        <ele>439</ele>
        <time>2020-11-06T14:01:56.976Z</time>
      </trkpt>
      <trkpt lat="46.29283" lon="6.12183">
        <ele>440</ele>
        <time>2020-11-06T14:01:57.976Z</time>
      </trkpt>
      <trkpt lat="46.29281" lon="6.12184">
        <ele>441</ele>
        <time>2020-11-06T14:01:58.975Z</time>
      </trkpt>
      <trkpt lat="46.2928" lon="6.12186">
        <ele>442</ele>
        <time>2020-11-06T14:01:59.975Z</time>
      </trkpt>
      <trkpt lat="46.29279" lon="6.12187">
        <ele>443</ele>
        <time>2020-11-06T14:02:00.976Z</time>
      </trkpt>
      <trkpt lat="46.29278" lon="6.12188">
        <ele>443</ele>
        <time>2020-11-06T14:02:01.975Z</time>
      </trkpt>
      <trkpt lat="46.29277" lon="6.12189">
        <ele>444</ele>
        <time>2020-11-06T14:02:02.976Z</time>
      </trkpt>
      <trkpt lat="46.29275" lon="6.1219">
        <ele>445</ele>
        <time>2020-11-06T14:02:03.975Z</time>
      </trkpt>
      <trkpt lat="46.29273" lon="6.12191">
        <ele>445</ele>
        <time>2020-11-06T14:02:04.976Z</time>
      </trkpt>
      <trkpt lat="46.2927" lon="6.12192">
        <ele>446</ele>
        <time>2020-11-06T14:02:05.976Z</time>
      </trkpt>
      <trkpt lat="46.29269" lon="6.12192">
        <ele>447</ele>
        <time>2020-11-06T14:02:06.976Z</time>
      </trkpt>
      <trkpt lat="46.29266" lon="6.12193">
        <ele>447</ele>
        <time>2020-11-06T14:02:07.976Z</time>
      </trkpt>
      <trkpt lat="46.29264" lon="6.12193">
        <ele>448</ele>
        <time>2020-11-06T14:02:08.976Z</time>
      </trkpt>
      <trkpt lat="46.29262" lon="6.12194">
        <ele>448</ele>
        <time>2020-11-06T14:02:09.976Z</time>
      </trkpt>
      <trkpt lat="46.2926" lon="6.12195">
        <ele>449</ele>
        <time>2020-11-06T14:02:10.976Z</time>
      </trkpt>
      <trkpt lat="46.29258" lon="6.12196">
        <ele>449</ele>
        <time>2020-11-06T14:02:11.975Z</time>
      </trkpt>
      <trkpt lat="46.29256" lon="6.12197">
        <ele>450</ele>
        <time>2020-11-06T14:02:12.976Z</time>
      </trkpt>
      <trkpt lat="46.29255" lon="6.12197">
        <ele>450</ele>
        <time>2020-11-06T14:02:13.975Z</time>
      </trkpt>
      <trkpt lat="46.29254" lon="6.12198">
        <ele>451</ele>
        <time>2020-11-06T14:02:14.976Z</time>
      </trkpt>
      <trkpt lat="46.29252" lon="6.12198">
        <ele>451</ele>
        <time>2020-11-06T14:02:15.975Z</time>
      </trkpt>
      <trkpt lat="46.29251" lon="6.12198">
        <ele>451</ele>
        <time>2020-11-06T14:02:16.975Z</time>
      </trkpt>
      <trkpt lat="46.29249" lon="6.12199">
        <ele>452</ele>
        <time>2020-11-06T14:02:17.976Z</time>
      </trkpt>
      <trkpt lat="46.29247" lon="6.12199">
        <ele>452</ele>
        <time>2020-11-06T14:02:18.976Z</time>
      </trkpt>
      <trkpt lat="46.29245" lon="6.12199">
        <ele>453</ele>
        <time>2020-11-06T14:02:19.976Z</time>
      </trkpt>
      <trkpt lat="46.29244" lon="6.12199">
        <ele>454</ele>
        <time>2020-11-06T14:02:20.976Z</time>
      </trkpt>
      <trkpt lat="46.29242" lon="6.12198">
        <ele>455</ele>
        <time>2020-11-06T14:02:21.975Z</time>
      </trkpt>
      <trkpt lat="46.29241" lon="6.12197">
        <ele>456</ele>
        <time>2020-11-06T14:02:22.976Z</time>
      </trkpt>
      <trkpt lat="46.29239" lon="6.12196">
        <ele>456</ele>
        <time>2020-11-06T14:02:23.975Z</time>
      </trkpt>
      <trkpt lat="46.29237" lon="6.12196">
        <ele>457</ele>
        <time>2020-11-06T14:02:24.976Z</time>
      </trkpt>
      <trkpt lat="46.29235" lon="6.12195">
        <ele>458</ele>
        <time>2020-11-06T14:02:25.975Z</time>
      </trkpt>
      <trkpt lat="46.29234" lon="6.12195">
        <ele>458</ele>
        <time>2020-11-06T14:02:26.976Z</time>
      </trkpt>
      <trkpt lat="46.29232" lon="6.12195">
        <ele>459</ele>
        <time>2020-11-06T14:02:27.975Z</time>
      </trkpt>
      <trkpt lat="46.2923" lon="6.12194">
        <ele>459</ele>
        <time>2020-11-06T14:02:28.976Z</time>
      </trkpt>
      <trkpt lat="46.29229" lon="6.12193">
        <ele>459</ele>
        <time>2020-11-06T14:02:29.975Z</time>
      </trkpt>
      <trkpt lat="46.29227" lon="6.12193">
        <ele>459</ele>
        <time>2020-11-06T14:02:30.975Z</time>
      </trkpt>
      <trkpt lat="46.29226" lon="6.12192">
        <ele>458</ele>
        <time>2020-11-06T14:02:31.976Z</time>
      </trkpt>
      <trkpt lat="46.29224" lon="6.12191">
        <ele>458</ele>
        <time>2020-11-06T14:02:32.976Z</time>
      </trkpt>
      <trkpt lat="46.29223" lon="6.1219">
        <ele>457</ele>
        <time>2020-11-06T14:02:33.976Z</time>
      </trkpt>
      <trkpt lat="46.29221" lon="6.12188">
        <ele>457</ele>
        <time>2020-11-06T14:02:34.976Z</time>
      </trkpt>
      <trkpt lat="46.29218" lon="6.12187">
        <ele>457</ele>
        <time>2020-11-06T14:02:35.976Z</time>
      </trkpt>
      <trkpt lat="46.29215" lon="6.12187">
        <ele>456</ele>
        <time>2020-11-06T14:02:36.975Z</time>
      </trkpt>
      <trkpt lat="46.29214" lon="6.12186">
        <ele>456</ele>
        <time>2020-11-06T14:02:37.976Z</time>
      </trkpt>
      <trkpt lat="46.29212" lon="6.12184">
        <ele>456</ele>
        <time>2020-11-06T14:02:38.976Z</time>
      </trkpt>
      <trkpt lat="46.29211" lon="6.12182">
        <ele>456</ele>
        <time>2020-11-06T14:02:39.976Z</time>
      </trkpt>
      <trkpt lat="46.29209" lon="6.1218">
        <ele>456</ele>
        <time>2020-11-06T14:02:40.975Z</time>
      </trkpt>
      <trkpt lat="46.29206" lon="6.12178">
        <ele>456</ele>
        <time>2020-11-06T14:02:41.976Z</time>
      </trkpt>
      <trkpt lat="46.29205" lon="6.12176">
        <ele>456</ele>
        <time>2020-11-06T14:02:42.976Z</time>
      </trkpt>
      <trkpt lat="46.29203" lon="6.12175">
        <ele>456</ele>
        <time>2020-11-06T14:02:43.975Z</time>
      </trkpt>
      <trkpt lat="46.29202" lon="6.12174">
        <ele>456</ele>
        <time>2020-11-06T14:02:44.975Z</time>
      </trkpt>
      <trkpt lat="46.292" lon="6.12173">
        <ele>456</ele>
        <time>2020-11-06T14:02:45.976Z</time>
      </trkpt>
      <trkpt lat="46.29199" lon="6.12172">
        <ele>456</ele>
        <time>2020-11-06T14:02:46.976Z</time>
      </trkpt>
      <trkpt lat="46.29197" lon="6.12171">
        <ele>457</ele>
        <time>2020-11-06T14:02:47.976Z</time>
      </trkpt>
      <trkpt lat="46.29196" lon="6.1217">
        <ele>457</ele>
        <time>2020-11-06T14:02:48.976Z</time>
      </trkpt>
      <trkpt lat="46.29194" lon="6.12169">
        <ele>457</ele>
        <time>2020-11-06T14:02:49.976Z</time>
      </trkpt>
      <trkpt lat="46.29192" lon="6.12168">
        <ele>457</ele>
        <time>2020-11-06T14:02:50.975Z</time>
      </trkpt>
      <trkpt lat="46.2919" lon="6.12167">
        <ele>457</ele>
        <time>2020-11-06T14:02:51.976Z</time>
      </trkpt>
      <trkpt lat="46.29188" lon="6.12166">
        <ele>456</ele>
        <time>2020-11-06T14:02:52.976Z</time>
      </trkpt>
      <trkpt lat="46.29187" lon="6.12165">
        <ele>456</ele>
        <time>2020-11-06T14:02:53.976Z</time>
      </trkpt>
      <trkpt lat="46.29185" lon="6.12164">
        <ele>456</ele>
        <time>2020-11-06T14:02:54.975Z</time>
      </trkpt>
      <trkpt lat="46.29184" lon="6.12162">
        <ele>456</ele>
        <time>2020-11-06T14:02:55.975Z</time>
      </trkpt>
      <trkpt lat="46.29182" lon="6.1216">
        <ele>456</ele>
        <time>2020-11-06T14:02:56.976Z</time>
      </trkpt>
      <trkpt lat="46.29182" lon="6.12159">
        <ele>455</ele>
        <time>2020-11-06T14:02:57.975Z</time>
      </trkpt>
      <trkpt lat="46.29181" lon="6.12156">
        <ele>455</ele>
        <time>2020-11-06T14:02:58.976Z</time>
      </trkpt>
      <trkpt lat="46.29181" lon="6.12154">
        <ele>455</ele>
        <time>2020-11-06T14:02:59.976Z</time>
      </trkpt>
      <trkpt lat="46.2918" lon="6.12152">
        <ele>455</ele>
        <time>2020-11-06T14:03:00.976Z</time>
      </trkpt>
      <trkpt lat="46.29178" lon="6.1215">
        <ele>455</ele>
        <time>2020-11-06T14:03:01.976Z</time>
      </trkpt>
      <trkpt lat="46.29176" lon="6.12148">
        <ele>455</ele>
        <time>2020-11-06T14:03:02.975Z</time>
      </trkpt>
      <trkpt lat="46.29173" lon="6.12144">
        <ele>455</ele>
        <time>2020-11-06T14:03:03.975Z</time>
      </trkpt>
      <trkpt lat="46.2917" lon="6.12141">
        <ele>456</ele>
        <time>2020-11-06T14:03:04.976Z</time>
      </trkpt>
      <trkpt lat="46.29167" lon="6.12139">
        <ele>456</ele>
        <time>2020-11-06T14:03:05.976Z</time>
      </trkpt>
      <trkpt lat="46.29166" lon="6.12137">
        <ele>456</ele>
        <time>2020-11-06T14:03:06.976Z</time>
      </trkpt>
      <trkpt lat="46.29164" lon="6.12136">
        <ele>456</ele>
        <time>2020-11-06T14:03:07.975Z</time>
      </trkpt>
      <trkpt lat="46.29163" lon="6.12134">
        <ele>457</ele>
        <time>2020-11-06T14:03:08.976Z</time>
      </trkpt>
      <trkpt lat="46.29162" lon="6.12131">
        <ele>457</ele>
        <time>2020-11-06T14:03:09.976Z</time>
      </trkpt>
      <trkpt lat="46.29161" lon="6.12129">
        <ele>457</ele>
        <time>2020-11-06T14:03:10.975Z</time>
      </trkpt>
      <trkpt lat="46.29159" lon="6.12126">
        <ele>457</ele>
        <time>2020-11-06T14:03:11.976Z</time>
      </trkpt>
      <trkpt lat="46.29157" lon="6.12123">
        <ele>456</ele>
        <time>2020-11-06T14:03:12.976Z</time>
      </trkpt>
      <trkpt lat="46.29155" lon="6.12121">
        <ele>456</ele>
        <time>2020-11-06T14:03:13.976Z</time>
      </trkpt>
      <trkpt lat="46.29152" lon="6.12119">
        <ele>456</ele>
        <time>2020-11-06T14:03:14.976Z</time>
      </trkpt>
      <trkpt lat="46.2915" lon="6.12116">
        <ele>455</ele>
        <time>2020-11-06T14:03:15.975Z</time>
      </trkpt>
      <trkpt lat="46.29148" lon="6.12113">
        <ele>455</ele>
        <time>2020-11-06T14:03:16.976Z</time>
      </trkpt>
      <trkpt lat="46.29145" lon="6.1211">
        <ele>456</ele>
        <time>2020-11-06T14:03:17.975Z</time>
      </trkpt>
      <trkpt lat="46.29143" lon="6.12107">
        <ele>456</ele>
        <time>2020-11-06T14:03:18.976Z</time>
      </trkpt>
      <trkpt lat="46.29141" lon="6.12105">
        <ele>456</ele>
        <time>2020-11-06T14:03:19.976Z</time>
      </trkpt>
      <trkpt lat="46.29138" lon="6.12102">
        <ele>455</ele>
        <time>2020-11-06T14:03:20.975Z</time>
      </trkpt>
      <trkpt lat="46.29137" lon="6.12101">
        <ele>455</ele>
        <time>2020-11-06T14:03:21.975Z</time>
      </trkpt>
      <trkpt lat="46.29136" lon="6.121">
        <ele>455</ele>
        <time>2020-11-06T14:03:22.975Z</time>
      </trkpt>
      <trkpt lat="46.29134" lon="6.12099">
        <ele>455</ele>
        <time>2020-11-06T14:03:23.976Z</time>
      </trkpt>
      <trkpt lat="46.29132" lon="6.12096">
        <ele>454</ele>
        <time>2020-11-06T14:03:24.975Z</time>
      </trkpt>
      <trkpt lat="46.29131" lon="6.12094">
        <ele>454</ele>
        <time>2020-11-06T14:03:25.975Z</time>
      </trkpt>
      <trkpt lat="46.29129" lon="6.12091">
        <ele>454</ele>
        <time>2020-11-06T14:03:26.975Z</time>
      </trkpt>
      <trkpt lat="46.29127" lon="6.12089">
        <ele>454</ele>
        <time>2020-11-06T14:03:27.976Z</time>
      </trkpt>
      <trkpt lat="46.29125" lon="6.12086">
        <ele>454</ele>
        <time>2020-11-06T14:03:28.976Z</time>
      </trkpt>
      <trkpt lat="46.29124" lon="6.12084">
        <ele>454</ele>
        <time>2020-11-06T14:03:29.976Z</time>
      </trkpt>
      <trkpt lat="46.29123" lon="6.12081">
        <ele>453</ele>
        <time>2020-11-06T14:03:30.976Z</time>
      </trkpt>
      <trkpt lat="46.29123" lon="6.12078">
        <ele>453</ele>
        <time>2020-11-06T14:03:31.976Z</time>
      </trkpt>
      <trkpt lat="46.29122" lon="6.12076">
        <ele>453</ele>
        <time>2020-11-06T14:03:32.975Z</time>
      </trkpt>
      <trkpt lat="46.29121" lon="6.12073">
        <ele>452</ele>
        <time>2020-11-06T14:03:33.976Z</time>
      </trkpt>
      <trkpt lat="46.29119" lon="6.12071">
        <ele>452</ele>
        <time>2020-11-06T14:03:34.975Z</time>
      </trkpt>
      <trkpt lat="46.29117" lon="6.12068">
        <ele>451</ele>
        <time>2020-11-06T14:03:35.976Z</time>
      </trkpt>
      <trkpt lat="46.29117" lon="6.12065">
        <ele>451</ele>
        <time>2020-11-06T14:03:36.976Z</time>
      </trkpt>
      <trkpt lat="46.29115" lon="6.12063">
        <ele>450</ele>
        <time>2020-11-06T14:03:37.975Z</time>
      </trkpt>
      <trkpt lat="46.29113" lon="6.12062">
        <ele>449</ele>
        <time>2020-11-06T14:03:38.975Z</time>
      </trkpt>
      <trkpt lat="46.29111" lon="6.12061">
        <ele>449</ele>
        <time>2020-11-06T14:03:39.975Z</time>
      </trkpt>
      <trkpt lat="46.29109" lon="6.1206">
        <ele>448</ele>
        <time>2020-11-06T14:03:40.976Z</time>
      </trkpt>
      <trkpt lat="46.29107" lon="6.12058">
        <ele>448</ele>
        <time>2020-11-06T14:03:41.976Z</time>
      </trkpt>
      <trkpt lat="46.29105" lon="6.12056">
        <ele>447</ele>
        <time>2020-11-06T14:03:42.976Z</time>
      </trkpt>
      <trkpt lat="46.29103" lon="6.12054">
        <ele>447</ele>
        <time>2020-11-06T14:03:43.976Z</time>
      </trkpt>
      <trkpt lat="46.29101" lon="6.12051">
        <ele>447</ele>
        <time>2020-11-06T14:03:44.975Z</time>
      </trkpt>
      <trkpt lat="46.29098" lon="6.12049">
        <ele>447</ele>
        <time>2020-11-06T14:03:45.976Z</time>
      </trkpt>
      <trkpt lat="46.29096" lon="6.12046">
        <ele>446</ele>
        <time>2020-11-06T14:03:46.975Z</time>
      </trkpt>
      <trkpt lat="46.29093" lon="6.12044">
        <ele>446</ele>
        <time>2020-11-06T14:03:47.976Z</time>
      </trkpt>
      <trkpt lat="46.29089" lon="6.12043">
        <ele>446</ele>
        <time>2020-11-06T14:03:48.976Z</time>
      </trkpt>
      <trkpt lat="46.29085" lon="6.12043">
        <ele>446</ele>
        <time>2020-11-06T14:03:49.976Z</time>
      </trkpt>
      <trkpt lat="46.29082" lon="6.12042">
        <ele>446</ele>
        <time>2020-11-06T14:03:50.976Z</time>
      </trkpt>
      <trkpt lat="46.29078" lon="6.12041">
        <ele>446</ele>
        <time>2020-11-06T14:03:51.975Z</time>
      </trkpt>
      <trkpt lat="46.29074" lon="6.12039">
        <ele>446</ele>
        <time>2020-11-06T14:03:52.975Z</time>
      </trkpt>
      <trkpt lat="46.29071" lon="6.12037">
        <ele>446</ele>
        <time>2020-11-06T14:03:53.976Z</time>
      </trkpt>
      <trkpt lat="46.29068" lon="6.12036">
        <ele>445</ele>
        <time>2020-11-06T14:03:54.976Z</time>
      </trkpt>
      <trkpt lat="46.29065" lon="6.12035">
        <ele>445</ele>
        <time>2020-11-06T14:03:55.976Z</time>
      </trkpt>
      <trkpt lat="46.29063" lon="6.12036">
        <ele>445</ele>
        <time>2020-11-06T14:03:56.976Z</time>
      </trkpt>
      <trkpt lat="46.2906" lon="6.12037">
        <ele>445</ele>
        <time>2020-11-06T14:03:57.975Z</time>
      </trkpt>
      <trkpt lat="46.29057" lon="6.12038">
        <ele>445</ele>
        <time>2020-11-06T14:03:58.976Z</time>
      </trkpt>
      <trkpt lat="46.29055" lon="6.12039">
        <ele>445</ele>
        <time>2020-11-06T14:03:59.975Z</time>
      </trkpt>
      <trkpt lat="46.29053" lon="6.1204">
        <ele>445</ele>
        <time>2020-11-06T14:04:00.976Z</time>
      </trkpt>
      <trkpt lat="46.29051" lon="6.12042">
        <ele>445</ele>
        <time>2020-11-06T14:04:01.976Z</time>
      </trkpt>
      <trkpt lat="46.29049" lon="6.12043">
        <ele>445</ele>
        <time>2020-11-06T14:04:02.975Z</time>
      </trkpt>
      <trkpt lat="46.29047" lon="6.12044">
        <ele>445</ele>
        <time>2020-11-06T14:04:03.975Z</time>
      </trkpt>
      <trkpt lat="46.29045" lon="6.12046">
        <ele>445</ele>
        <time>2020-11-06T14:04:04.975Z</time>
      </trkpt>
      <trkpt lat="46.29044" lon="6.12047">
        <ele>445</ele>
        <time>2020-11-06T14:04:05.976Z</time>
      </trkpt>
      <trkpt lat="46.29041" lon="6.12047">
        <ele>445</ele>
        <time>2020-11-06T14:04:06.975Z</time>
      </trkpt>
      <trkpt lat="46.2904" lon="6.12048">
        <ele>445</ele>
        <time>2020-11-06T14:04:07.975Z</time>
      </trkpt>
      <trkpt lat="46.29036" lon="6.12048">
        <ele>445</ele>
        <time>2020-11-06T14:04:08.975Z</time>
      </trkpt>
      <trkpt lat="46.29034" lon="6.12049">
        <ele>446</ele>
        <time>2020-11-06T14:04:09.976Z</time>
      </trkpt>
      <trkpt lat="46.29031" lon="6.12051">
        <ele>446</ele>
        <time>2020-11-06T14:04:10.975Z</time>
      </trkpt>
      <trkpt lat="46.29029" lon="6.12053">
        <ele>446</ele>
        <time>2020-11-06T14:04:11.975Z</time>
      </trkpt>
      <trkpt lat="46.29027" lon="6.12054">
        <ele>447</ele>
        <time>2020-11-06T14:04:12.976Z</time>
      </trkpt>
      <trkpt lat="46.29026" lon="6.12056">
        <ele>447</ele>
        <time>2020-11-06T14:04:13.975Z</time>
      </trkpt>
      <trkpt lat="46.29023" lon="6.12058">
        <ele>447</ele>
        <time>2020-11-06T14:04:14.975Z</time>
      </trkpt>
      <trkpt lat="46.29022" lon="6.1206">
        <ele>447</ele>
        <time>2020-11-06T14:04:15.976Z</time>
      </trkpt>
      <trkpt lat="46.2902" lon="6.12062">
        <ele>447</ele>
        <time>2020-11-06T14:04:16.976Z</time>
      </trkpt>
      <trkpt lat="46.29018" lon="6.12064">
        <ele>447</ele>
        <time>2020-11-06T14:04:17.975Z</time>
      </trkpt>
      <trkpt lat="46.29016" lon="6.12066">
        <ele>448</ele>
        <time>2020-11-06T14:04:18.975Z</time>
      </trkpt>
      <trkpt lat="46.29013" lon="6.12068">
        <ele>448</ele>
        <time>2020-11-06T14:04:19.976Z</time>
      </trkpt>
      <trkpt lat="46.29011" lon="6.12069">
        <ele>448</ele>
        <time>2020-11-06T14:04:20.976Z</time>
      </trkpt>
      <trkpt lat="46.29008" lon="6.12071">
        <ele>448</ele>
        <time>2020-11-06T14:04:21.976Z</time>
      </trkpt>
      <trkpt lat="46.29006" lon="6.12073">
        <ele>448</ele>
        <time>2020-11-06T14:04:22.976Z</time>
      </trkpt>
      <trkpt lat="46.29005" lon="6.12075">
        <ele>448</ele>
        <time>2020-11-06T14:04:23.976Z</time>
      </trkpt>
      <trkpt lat="46.29003" lon="6.12078">
        <ele>448</ele>
        <time>2020-11-06T14:04:24.976Z</time>
      </trkpt>
      <trkpt lat="46.29002" lon="6.1208">
        <ele>448</ele>
        <time>2020-11-06T14:04:25.976Z</time>
      </trkpt>
      <trkpt lat="46.29001" lon="6.12083">
        <ele>448</ele>
        <time>2020-11-06T14:04:26.975Z</time>
      </trkpt>
      <trkpt lat="46.28999" lon="6.12086">
        <ele>448</ele>
        <time>2020-11-06T14:04:27.976Z</time>
      </trkpt>
      <trkpt lat="46.28998" lon="6.12088">
        <ele>447</ele>
        <time>2020-11-06T14:04:28.976Z</time>
      </trkpt>
      <trkpt lat="46.28996" lon="6.12091">
        <ele>447</ele>
        <time>2020-11-06T14:04:29.976Z</time>
      </trkpt>
      <trkpt lat="46.28995" lon="6.12094">
        <ele>446</ele>
        <time>2020-11-06T14:04:30.975Z</time>
      </trkpt>
      <trkpt lat="46.28994" lon="6.12097">
        <ele>446</ele>
        <time>2020-11-06T14:04:31.976Z</time>
      </trkpt>
      <trkpt lat="46.28994" lon="6.121">
        <ele>445</ele>
        <time>2020-11-06T14:04:32.976Z</time>
      </trkpt>
      <trkpt lat="46.28994" lon="6.12103">
        <ele>445</ele>
        <time>2020-11-06T14:04:33.976Z</time>
      </trkpt>
      <trkpt lat="46.28993" lon="6.12105">
        <ele>445</ele>
        <time>2020-11-06T14:04:34.976Z</time>
      </trkpt>
      <trkpt lat="46.28993" lon="6.12108">
        <ele>444</ele>
        <time>2020-11-06T14:04:35.976Z</time>
      </trkpt>
      <trkpt lat="46.28992" lon="6.12111">
        <ele>444</ele>
        <time>2020-11-06T14:04:36.976Z</time>
      </trkpt>
      <trkpt lat="46.28991" lon="6.12114">
        <ele>444</ele>
        <time>2020-11-06T14:04:37.975Z</time>
      </trkpt>
      <trkpt lat="46.28989" lon="6.12117">
        <ele>443</ele>
        <time>2020-11-06T14:04:38.976Z</time>
      </trkpt>
      <trkpt lat="46.28988" lon="6.12121">
        <ele>442</ele>
        <time>2020-11-06T14:04:39.975Z</time>
      </trkpt>
      <trkpt lat="46.28988" lon="6.12124">
        <ele>441</ele>
        <time>2020-11-06T14:04:40.976Z</time>
      </trkpt>
      <trkpt lat="46.28986" lon="6.12127">
        <ele>440</ele>
        <time>2020-11-06T14:04:41.976Z</time>
      </trkpt>
      <trkpt lat="46.28984" lon="6.12129">
        <ele>439</ele>
        <time>2020-11-06T14:04:42.976Z</time>
      </trkpt>
      <trkpt lat="46.28982" lon="6.12132">
        <ele>439</ele>
        <time>2020-11-06T14:04:43.976Z</time>
      </trkpt>
      <trkpt lat="46.2898" lon="6.12135">
        <ele>438</ele>
        <time>2020-11-06T14:04:44.976Z</time>
      </trkpt>
      <trkpt lat="46.28978" lon="6.12139">
        <ele>437</ele>
        <time>2020-11-06T14:04:45.976Z</time>
      </trkpt>
      <trkpt lat="46.28976" lon="6.12143">
        <ele>437</ele>
        <time>2020-11-06T14:04:46.975Z</time>
      </trkpt>
      <trkpt lat="46.28975" lon="6.12146">
        <ele>436</ele>
        <time>2020-11-06T14:04:47.976Z</time>
      </trkpt>
      <trkpt lat="46.28974" lon="6.12148">
        <ele>436</ele>
        <time>2020-11-06T14:04:48.976Z</time>
      </trkpt>
      <trkpt lat="46.28973" lon="6.1215">
        <ele>435</ele>
        <time>2020-11-06T14:04:49.975Z</time>
      </trkpt>
      <trkpt lat="46.28971" lon="6.12153">
        <ele>435</ele>
        <time>2020-11-06T14:04:50.976Z</time>
      </trkpt>
      <trkpt lat="46.28969" lon="6.12157">
        <ele>435</ele>
        <time>2020-11-06T14:04:51.976Z</time>
      </trkpt>
      <trkpt lat="46.28968" lon="6.12159">
        <ele>434</ele>
        <time>2020-11-06T14:04:52.976Z</time>
      </trkpt>
      <trkpt lat="46.28967" lon="6.12162">
        <ele>434</ele>
        <time>2020-11-06T14:04:53.976Z</time>
      </trkpt>
      <trkpt lat="46.28966" lon="6.12164">
        <ele>433</ele>
        <time>2020-11-06T14:04:54.975Z</time>
      </trkpt>
      <trkpt lat="46.28965" lon="6.12167">
        <ele>433</ele>
        <time>2020-11-06T14:04:55.975Z</time>
      </trkpt>
      <trkpt lat="46.28963" lon="6.12169">
        <ele>432</ele>
        <time>2020-11-06T14:04:56.976Z</time>
      </trkpt>
      <trkpt lat="46.28961" lon="6.12171">
        <ele>432</ele>
        <time>2020-11-06T14:04:57.976Z</time>
      </trkpt>
      <trkpt lat="46.28959" lon="6.12174">
        <ele>431</ele>
        <time>2020-11-06T14:04:58.975Z</time>
      </trkpt>
      <trkpt lat="46.28958" lon="6.12177">
        <ele>431</ele>
        <time>2020-11-06T14:04:59.975Z</time>
      </trkpt>
      <trkpt lat="46.28956" lon="6.1218">
        <ele>430</ele>
        <time>2020-11-06T14:05:00.975Z</time>
      </trkpt>
      <trkpt lat="46.28955" lon="6.12185">
        <ele>430</ele>
        <time>2020-11-06T14:05:01.975Z</time>
      </trkpt>
      <trkpt lat="46.28955" lon="6.1219">
        <ele>429</ele>
        <time>2020-11-06T14:05:02.975Z</time>
      </trkpt>
      <trkpt lat="46.28953" lon="6.12195">
        <ele>429</ele>
        <time>2020-11-06T14:05:03.975Z</time>
      </trkpt>
      <trkpt lat="46.28951" lon="6.122">
        <ele>429</ele>
        <time>2020-11-06T14:05:04.976Z</time>
      </trkpt>
      <trkpt lat="46.2895" lon="6.12204">
        <ele>429</ele>
        <time>2020-11-06T14:05:05.975Z</time>
      </trkpt>
      <trkpt lat="46.28949" lon="6.12208">
        <ele>429</ele>
        <time>2020-11-06T14:05:06.975Z</time>
      </trkpt>
      <trkpt lat="46.28948" lon="6.12211">
        <ele>429</ele>
        <time>2020-11-06T14:05:07.975Z</time>
      </trkpt>
      <trkpt lat="46.28949" lon="6.12214">
        <ele>429</ele>
        <time>2020-11-06T14:05:08.975Z</time>
      </trkpt>
      <trkpt lat="46.28949" lon="6.12216">
        <ele>429</ele>
        <time>2020-11-06T14:05:09.975Z</time>
      </trkpt>
      <trkpt lat="46.28948" lon="6.12219">
        <ele>430</ele>
        <time>2020-11-06T14:05:10.975Z</time>
      </trkpt>
      <trkpt lat="46.28946" lon="6.12222">
        <ele>430</ele>
        <time>2020-11-06T14:05:11.976Z</time>
      </trkpt>
      <trkpt lat="46.28945" lon="6.12224">
        <ele>431</ele>
        <time>2020-11-06T14:05:12.975Z</time>
      </trkpt>
      <trkpt lat="46.28944" lon="6.12227">
        <ele>431</ele>
        <time>2020-11-06T14:05:13.976Z</time>
      </trkpt>
      <trkpt lat="46.28943" lon="6.1223">
        <ele>431</ele>
        <time>2020-11-06T14:05:14.976Z</time>
      </trkpt>
      <trkpt lat="46.28942" lon="6.12233">
        <ele>432</ele>
        <time>2020-11-06T14:05:15.976Z</time>
      </trkpt>
      <trkpt lat="46.28942" lon="6.12235">
        <ele>432</ele>
        <time>2020-11-06T14:05:16.975Z</time>
      </trkpt>
      <trkpt lat="46.28941" lon="6.12238">
        <ele>432</ele>
        <time>2020-11-06T14:05:17.976Z</time>
      </trkpt>
      <trkpt lat="46.28939" lon="6.12241">
        <ele>432</ele>
        <time>2020-11-06T14:05:18.975Z</time>
      </trkpt>
      <trkpt lat="46.28938" lon="6.12244">
        <ele>432</ele>
        <time>2020-11-06T14:05:19.976Z</time>
      </trkpt>
      <trkpt lat="46.28937" lon="6.12247">
        <ele>432</ele>
        <time>2020-11-06T14:05:20.976Z</time>
      </trkpt>
      <trkpt lat="46.28935" lon="6.1225">
        <ele>432</ele>
        <time>2020-11-06T14:05:21.976Z</time>
      </trkpt>
      <trkpt lat="46.28933" lon="6.12253">
        <ele>431</ele>
        <time>2020-11-06T14:05:22.975Z</time>
      </trkpt>
      <trkpt lat="46.28932" lon="6.12256">
        <ele>431</ele>
        <time>2020-11-06T14:05:23.976Z</time>
      </trkpt>
      <trkpt lat="46.2893" lon="6.1226">
        <ele>431</ele>
        <time>2020-11-06T14:05:24.976Z</time>
      </trkpt>
      <trkpt lat="46.28929" lon="6.12264">
        <ele>431</ele>
        <time>2020-11-06T14:05:25.976Z</time>
      </trkpt>
      <trkpt lat="46.28927" lon="6.12267">
        <ele>431</ele>
        <time>2020-11-06T14:05:26.976Z</time>
      </trkpt>
      <trkpt lat="46.28926" lon="6.12271">
        <ele>431</ele>
        <time>2020-11-06T14:05:27.976Z</time>
      </trkpt>
      <trkpt lat="46.28923" lon="6.12274">
        <ele>431</ele>
        <time>2020-11-06T14:05:28.976Z</time>
      </trkpt>
      <trkpt lat="46.28922" lon="6.12277">
        <ele>431</ele>
        <time>2020-11-06T14:05:29.975Z</time>
      </trkpt>
      <trkpt lat="46.28921" lon="6.12281">
        <ele>432</ele>
        <time>2020-11-06T14:05:30.975Z</time>
      </trkpt>
      <trkpt lat="46.2892" lon="6.12283">
        <ele>432</ele>
        <time>2020-11-06T14:05:31.976Z</time>
      </trkpt>
      <trkpt lat="46.28919" lon="6.12286">
        <ele>432</ele>
        <time>2020-11-06T14:05:32.975Z</time>
      </trkpt>
      <trkpt lat="46.28917" lon="6.12289">
        <ele>432</ele>
        <time>2020-11-06T14:05:33.975Z</time>
      </trkpt>
      <trkpt lat="46.28914" lon="6.12292">
        <ele>432</ele>
        <time>2020-11-06T14:05:34.976Z</time>
      </trkpt>
      <trkpt lat="46.28911" lon="6.12297">
        <ele>432</ele>
        <time>2020-11-06T14:05:35.975Z</time>
      </trkpt>
      <trkpt lat="46.28909" lon="6.12301">
        <ele>432</ele>
        <time>2020-11-06T14:05:36.975Z</time>
      </trkpt>
      <trkpt lat="46.28906" lon="6.12306">
        <ele>432</ele>
        <time>2020-11-06T14:05:37.975Z</time>
      </trkpt>
      <trkpt lat="46.28904" lon="6.1231">
        <ele>432</ele>
        <time>2020-11-06T14:05:38.976Z</time>
      </trkpt>
      <trkpt lat="46.28903" lon="6.12315">
        <ele>432</ele>
        <time>2020-11-06T14:05:39.975Z</time>
      </trkpt>
      <trkpt lat="46.28901" lon="6.1232">
        <ele>432</ele>
        <time>2020-11-06T14:05:40.976Z</time>
      </trkpt>
      <trkpt lat="46.289" lon="6.12324">
        <ele>432</ele>
        <time>2020-11-06T14:05:41.975Z</time>
      </trkpt>
      <trkpt lat="46.28899" lon="6.12328">
        <ele>432</ele>
        <time>2020-11-06T14:05:42.976Z</time>
      </trkpt>
      <trkpt lat="46.28898" lon="6.12332">
        <ele>432</ele>
        <time>2020-11-06T14:05:43.975Z</time>
      </trkpt>
      <trkpt lat="46.28896" lon="6.12338">
        <ele>432</ele>
        <time>2020-11-06T14:05:44.975Z</time>
      </trkpt>
      <trkpt lat="46.28894" lon="6.12343">
        <ele>432</ele>
        <time>2020-11-06T14:05:45.976Z</time>
      </trkpt>
      <trkpt lat="46.28892" lon="6.12347">
        <ele>433</ele>
        <time>2020-11-06T14:05:46.975Z</time>
      </trkpt>
      <trkpt lat="46.28891" lon="6.12352">
        <ele>433</ele>
        <time>2020-11-06T14:05:47.975Z</time>
      </trkpt>
      <trkpt lat="46.28889" lon="6.12356">
        <ele>433</ele>
        <time>2020-11-06T14:05:48.975Z</time>
      </trkpt>
      <trkpt lat="46.2889" lon="6.1236">
        <ele>433</ele>
        <time>2020-11-06T14:05:49.975Z</time>
      </trkpt>
      <trkpt lat="46.28891" lon="6.12364">
        <ele>432</ele>
        <time>2020-11-06T14:05:50.976Z</time>
      </trkpt>
      <trkpt lat="46.28891" lon="6.12368">
        <ele>432</ele>
        <time>2020-11-06T14:05:51.975Z</time>
      </trkpt>
      <trkpt lat="46.28891" lon="6.1237">
        <ele>432</ele>
        <time>2020-11-06T14:05:52.975Z</time>
      </trkpt>
      <trkpt lat="46.2889" lon="6.12372">
        <ele>431</ele>
        <time>2020-11-06T14:05:53.975Z</time>
      </trkpt>
      <trkpt lat="46.28889" lon="6.12375">
        <ele>431</ele>
        <time>2020-11-06T14:05:54.975Z</time>
      </trkpt>
      <trkpt lat="46.28887" lon="6.12378">
        <ele>430</ele>
        <time>2020-11-06T14:05:55.975Z</time>
      </trkpt>
      <trkpt lat="46.28886" lon="6.12382">
        <ele>430</ele>
        <time>2020-11-06T14:05:56.975Z</time>
      </trkpt>
      <trkpt lat="46.28886" lon="6.12386">
        <ele>429</ele>
        <time>2020-11-06T14:05:57.975Z</time>
      </trkpt>
      <trkpt lat="46.28885" lon="6.12388">
        <ele>429</ele>
        <time>2020-11-06T14:05:58.976Z</time>
      </trkpt>
      <trkpt lat="46.28885" lon="6.12391">
        <ele>428</ele>
        <time>2020-11-06T14:05:59.976Z</time>
      </trkpt>
      <trkpt lat="46.28885" lon="6.12394">
        <ele>428</ele>
        <time>2020-11-06T14:06:00.975Z</time>
      </trkpt>
      <trkpt lat="46.28886" lon="6.12397">
        <ele>427</ele>
        <time>2020-11-06T14:06:01.975Z</time>
      </trkpt>
      <trkpt lat="46.28887" lon="6.12399">
        <ele>427</ele>
        <time>2020-11-06T14:06:02.975Z</time>
      </trkpt>
      <trkpt lat="46.28887" lon="6.12401">
        <ele>427</ele>
        <time>2020-11-06T14:06:03.975Z</time>
      </trkpt>
      <trkpt lat="46.28887" lon="6.12403">
        <ele>427</ele>
        <time>2020-11-06T14:06:04.975Z</time>
      </trkpt>
      <trkpt lat="46.28887" lon="6.12406">
        <ele>427</ele>
        <time>2020-11-06T14:06:05.975Z</time>
      </trkpt>
      <trkpt lat="46.28888" lon="6.12408">
        <ele>427</ele>
        <time>2020-11-06T14:06:06.976Z</time>
      </trkpt>
      <trkpt lat="46.28888" lon="6.12411">
        <ele>428</ele>
        <time>2020-11-06T14:06:07.976Z</time>
      </trkpt>
      <trkpt lat="46.28888" lon="6.12414">
        <ele>428</ele>
        <time>2020-11-06T14:06:08.976Z</time>
      </trkpt>
      <trkpt lat="46.28889" lon="6.12417">
        <ele>428</ele>
        <time>2020-11-06T14:06:09.975Z</time>
      </trkpt>
      <trkpt lat="46.2889" lon="6.1242">
        <ele>429</ele>
        <time>2020-11-06T14:06:10.976Z</time>
      </trkpt>
      <trkpt lat="46.2889" lon="6.12423">
        <ele>429</ele>
        <time>2020-11-06T14:06:11.976Z</time>
      </trkpt>
      <trkpt lat="46.2889" lon="6.12427">
        <ele>430</ele>
        <time>2020-11-06T14:06:12.976Z</time>
      </trkpt>
      <trkpt lat="46.28889" lon="6.12433">
        <ele>430</ele>
        <time>2020-11-06T14:06:13.976Z</time>
      </trkpt>
      <trkpt lat="46.28891" lon="6.12438">
        <ele>430</ele>
        <time>2020-11-06T14:06:14.975Z</time>
      </trkpt>
      <trkpt lat="46.28892" lon="6.12443">
        <ele>430</ele>
        <time>2020-11-06T14:06:15.975Z</time>
      </trkpt>
      <trkpt lat="46.28892" lon="6.12447">
        <ele>430</ele>
        <time>2020-11-06T14:06:16.976Z</time>
      </trkpt>
      <trkpt lat="46.28892" lon="6.1245">
        <ele>431</ele>
        <time>2020-11-06T14:06:17.975Z</time>
      </trkpt>
      <trkpt lat="46.28892" lon="6.12454">
        <ele>431</ele>
        <time>2020-11-06T14:06:18.976Z</time>
      </trkpt>
      <trkpt lat="46.28892" lon="6.12457">
        <ele>431</ele>
        <time>2020-11-06T14:06:19.976Z</time>
      </trkpt>
      <trkpt lat="46.28893" lon="6.1246">
        <ele>431</ele>
        <time>2020-11-06T14:06:20.976Z</time>
      </trkpt>
      <trkpt lat="46.28894" lon="6.12462">
        <ele>431</ele>
        <time>2020-11-06T14:06:21.975Z</time>
      </trkpt>
      <trkpt lat="46.28894" lon="6.12465">
        <ele>432</ele>
        <time>2020-11-06T14:06:22.976Z</time>
      </trkpt>
      <trkpt lat="46.28894" lon="6.12468">
        <ele>432</ele>
        <time>2020-11-06T14:06:23.976Z</time>
      </trkpt>
      <trkpt lat="46.28894" lon="6.12471">
        <ele>432</ele>
        <time>2020-11-06T14:06:24.976Z</time>
      </trkpt>
      <trkpt lat="46.28894" lon="6.12474">
        <ele>433</ele>
        <time>2020-11-06T14:06:25.976Z</time>
      </trkpt>
      <trkpt lat="46.28896" lon="6.12476">
        <ele>433</ele>
        <time>2020-11-06T14:06:26.976Z</time>
      </trkpt>
      <trkpt lat="46.28898" lon="6.12478">
        <ele>433</ele>
        <time>2020-11-06T14:06:27.976Z</time>
      </trkpt>
      <trkpt lat="46.28899" lon="6.12479">
        <ele>434</ele>
        <time>2020-11-06T14:06:28.976Z</time>
      </trkpt>
      <trkpt lat="46.28901" lon="6.12481">
        <ele>434</ele>
        <time>2020-11-06T14:06:29.975Z</time>
      </trkpt>
      <trkpt lat="46.28902" lon="6.12483">
        <ele>434</ele>
        <time>2020-11-06T14:06:30.975Z</time>
      </trkpt>
      <trkpt lat="46.28904" lon="6.12485">
        <ele>434</ele>
        <time>2020-11-06T14:06:31.976Z</time>
      </trkpt>
      <trkpt lat="46.28906" lon="6.12487">
        <ele>434</ele>
        <time>2020-11-06T14:06:32.976Z</time>
      </trkpt>
      <trkpt lat="46.28907" lon="6.1249">
        <ele>434</ele>
        <time>2020-11-06T14:06:33.975Z</time>
      </trkpt>
      <trkpt lat="46.28908" lon="6.12494">
        <ele>434</ele>
        <time>2020-11-06T14:06:34.975Z</time>
      </trkpt>
      <trkpt lat="46.28909" lon="6.12498">
        <ele>434</ele>
        <time>2020-11-06T14:06:35.976Z</time>
      </trkpt>
      <trkpt lat="46.28909" lon="6.12502">
        <ele>434</ele>
        <time>2020-11-06T14:06:36.976Z</time>
      </trkpt>
      <trkpt lat="46.28908" lon="6.12507">
        <ele>434</ele>
        <time>2020-11-06T14:06:37.976Z</time>
      </trkpt>
      <trkpt lat="46.28907" lon="6.12509">
        <ele>434</ele>
        <time>2020-11-06T14:06:38.976Z</time>
      </trkpt>
      <trkpt lat="46.28906" lon="6.12513">
        <ele>435</ele>
        <time>2020-11-06T14:06:39.976Z</time>
      </trkpt>
      <trkpt lat="46.28904" lon="6.12516">
        <ele>435</ele>
        <time>2020-11-06T14:06:40.975Z</time>
      </trkpt>
      <trkpt lat="46.28903" lon="6.12518">
        <ele>435</ele>
        <time>2020-11-06T14:06:41.976Z</time>
      </trkpt>
      <trkpt lat="46.28901" lon="6.12521">
        <ele>435</ele>
        <time>2020-11-06T14:06:42.976Z</time>
      </trkpt>
      <trkpt lat="46.28899" lon="6.12522">
        <ele>435</ele>
        <time>2020-11-06T14:06:43.976Z</time>
      </trkpt>
      <trkpt lat="46.28898" lon="6.12524">
        <ele>435</ele>
        <time>2020-11-06T14:06:44.975Z</time>
      </trkpt>
      <trkpt lat="46.28897" lon="6.12526">
        <ele>435</ele>
        <time>2020-11-06T14:06:45.976Z</time>
      </trkpt>
      <trkpt lat="46.28896" lon="6.12528">
        <ele>435</ele>
        <time>2020-11-06T14:06:46.976Z</time>
      </trkpt>
      <trkpt lat="46.28895" lon="6.12529">
        <ele>435</ele>
        <time>2020-11-06T14:06:47.976Z</time>
      </trkpt>
      <trkpt lat="46.28894" lon="6.12531">
        <ele>435</ele>
        <time>2020-11-06T14:06:48.976Z</time>
      </trkpt>
      <trkpt lat="46.28893" lon="6.12532">
        <ele>435</ele>
        <time>2020-11-06T14:06:49.976Z</time>
      </trkpt>
      <trkpt lat="46.28891" lon="6.12532">
        <ele>435</ele>
        <time>2020-11-06T14:06:50.975Z</time>
      </trkpt>
      <trkpt lat="46.28889" lon="6.12532">
        <ele>435</ele>
        <time>2020-11-06T14:06:51.976Z</time>
      </trkpt>
      <trkpt lat="46.28887" lon="6.12533">
        <ele>435</ele>
        <time>2020-11-06T14:06:52.976Z</time>
      </trkpt>
      <trkpt lat="46.28885" lon="6.12533">
        <ele>436</ele>
        <time>2020-11-06T14:06:53.975Z</time>
      </trkpt>
      <trkpt lat="46.28883" lon="6.12534">
        <ele>436</ele>
        <time>2020-11-06T14:06:54.975Z</time>
      </trkpt>
      <trkpt lat="46.28882" lon="6.12534">
        <ele>436</ele>
        <time>2020-11-06T14:06:55.975Z</time>
      </trkpt>
      <trkpt lat="46.2888" lon="6.12535">
        <ele>437</ele>
        <time>2020-11-06T14:06:56.975Z</time>
      </trkpt>
      <trkpt lat="46.28879" lon="6.12535">
        <ele>437</ele>
        <time>2020-11-06T14:06:57.975Z</time>
      </trkpt>
      <trkpt lat="46.28878" lon="6.12536">
        <ele>437</ele>
        <time>2020-11-06T14:06:58.975Z</time>
      </trkpt>
      <trkpt lat="46.28876" lon="6.12537">
        <ele>438</ele>
        <time>2020-11-06T14:06:59.976Z</time>
      </trkpt>
      <trkpt lat="46.28874" lon="6.12537">
        <ele>438</ele>
        <time>2020-11-06T14:07:00.976Z</time>
      </trkpt>
      <trkpt lat="46.28872" lon="6.12538">
        <ele>438</ele>
        <time>2020-11-06T14:07:01.975Z</time>
      </trkpt>
      <trkpt lat="46.2887" lon="6.12538">
        <ele>438</ele>
        <time>2020-11-06T14:07:02.976Z</time>
      </trkpt>
      <trkpt lat="46.28867" lon="6.12538">
        <ele>438</ele>
        <time>2020-11-06T14:07:03.976Z</time>
      </trkpt>
      <trkpt lat="46.28865" lon="6.12538">
        <ele>439</ele>
        <time>2020-11-06T14:07:04.975Z</time>
      </trkpt>
      <trkpt lat="46.28864" lon="6.12538">
        <ele>439</ele>
        <time>2020-11-06T14:07:05.976Z</time>
      </trkpt>
      <trkpt lat="46.28861" lon="6.12538">
        <ele>439</ele>
        <time>2020-11-06T14:07:06.976Z</time>
      </trkpt>
      <trkpt lat="46.28858" lon="6.12538">
        <ele>440</ele>
        <time>2020-11-06T14:07:07.976Z</time>
      </trkpt>
      <trkpt lat="46.28856" lon="6.12538">
        <ele>441</ele>
        <time>2020-11-06T14:07:08.976Z</time>
      </trkpt>
      <trkpt lat="46.28854" lon="6.12538">
        <ele>441</ele>
        <time>2020-11-06T14:07:09.976Z</time>
      </trkpt>
      <trkpt lat="46.28853" lon="6.12538">
        <ele>441</ele>
        <time>2020-11-06T14:07:10.976Z</time>
      </trkpt>
      <trkpt lat="46.28852" lon="6.12539">
        <ele>441</ele>
        <time>2020-11-06T14:07:11.975Z</time>
      </trkpt>
      <trkpt lat="46.28851" lon="6.1254">
        <ele>441</ele>
        <time>2020-11-06T14:07:12.976Z</time>
      </trkpt>
      <trkpt lat="46.28849" lon="6.12539">
        <ele>441</ele>
        <time>2020-11-06T14:07:13.976Z</time>
      </trkpt>
      <trkpt lat="46.28848" lon="6.12539">
        <ele>441</ele>
        <time>2020-11-06T14:07:14.975Z</time>
      </trkpt>
      <trkpt lat="46.28846" lon="6.12539">
        <ele>441</ele>
        <time>2020-11-06T14:07:15.976Z</time>
      </trkpt>
      <trkpt lat="46.28844" lon="6.12539">
        <ele>442</ele>
        <time>2020-11-06T14:07:16.975Z</time>
      </trkpt>
      <trkpt lat="46.28842" lon="6.12539">
        <ele>442</ele>
        <time>2020-11-06T14:07:17.976Z</time>
      </trkpt>
      <trkpt lat="46.2884" lon="6.12539">
        <ele>443</ele>
        <time>2020-11-06T14:07:18.976Z</time>
      </trkpt>
      <trkpt lat="46.28839" lon="6.12538">
        <ele>443</ele>
        <time>2020-11-06T14:07:19.976Z</time>
      </trkpt>
      <trkpt lat="46.28837" lon="6.12538">
        <ele>444</ele>
        <time>2020-11-06T14:07:20.975Z</time>
      </trkpt>
      <trkpt lat="46.28835" lon="6.12538">
        <ele>444</ele>
        <time>2020-11-06T14:07:21.975Z</time>
      </trkpt>
      <trkpt lat="46.28833" lon="6.12538">
        <ele>445</ele>
        <time>2020-11-06T14:07:22.975Z</time>
      </trkpt>
      <trkpt lat="46.28831" lon="6.12538">
        <ele>446</ele>
        <time>2020-11-06T14:07:23.976Z</time>
      </trkpt>
      <trkpt lat="46.28829" lon="6.12537">
        <ele>446</ele>
        <time>2020-11-06T14:07:24.976Z</time>
      </trkpt>
      <trkpt lat="46.28827" lon="6.12537">
        <ele>447</ele>
        <time>2020-11-06T14:07:25.976Z</time>
      </trkpt>
      <trkpt lat="46.28825" lon="6.12536">
        <ele>447</ele>
        <time>2020-11-06T14:07:26.976Z</time>
      </trkpt>
      <trkpt lat="46.28824" lon="6.12536">
        <ele>448</ele>
        <time>2020-11-06T14:07:27.975Z</time>
      </trkpt>
      <trkpt lat="46.28821" lon="6.12536">
        <ele>448</ele>
        <time>2020-11-06T14:07:28.975Z</time>
      </trkpt>
      <trkpt lat="46.28818" lon="6.12535">
        <ele>449</ele>
        <time>2020-11-06T14:07:29.976Z</time>
      </trkpt>
      <trkpt lat="46.28816" lon="6.12535">
        <ele>450</ele>
        <time>2020-11-06T14:07:30.976Z</time>
      </trkpt>
      <trkpt lat="46.28814" lon="6.12534">
        <ele>451</ele>
        <time>2020-11-06T14:07:31.975Z</time>
      </trkpt>
      <trkpt lat="46.28812" lon="6.12534">
        <ele>452</ele>
        <time>2020-11-06T14:07:32.976Z</time>
      </trkpt>
      <trkpt lat="46.2881" lon="6.12534">
        <ele>452</ele>
        <time>2020-11-06T14:07:33.976Z</time>
      </trkpt>
      <trkpt lat="46.28808" lon="6.12534">
        <ele>452</ele>
        <time>2020-11-06T14:07:34.976Z</time>
      </trkpt>
      <trkpt lat="46.28807" lon="6.12534">
        <ele>452</ele>
        <time>2020-11-06T14:07:35.976Z</time>
      </trkpt>
      <trkpt lat="46.28806" lon="6.12534">
        <ele>452</ele>
        <time>2020-11-06T14:07:36.976Z</time>
      </trkpt>
      <trkpt lat="46.28804" lon="6.12533">
        <ele>452</ele>
        <time>2020-11-06T14:07:37.976Z</time>
      </trkpt>
      <trkpt lat="46.28802" lon="6.12532">
        <ele>451</ele>
        <time>2020-11-06T14:07:38.976Z</time>
      </trkpt>
      <trkpt lat="46.28801" lon="6.12531">
        <ele>451</ele>
        <time>2020-11-06T14:07:39.975Z</time>
      </trkpt>
      <trkpt lat="46.28799" lon="6.1253">
        <ele>451</ele>
        <time>2020-11-06T14:07:40.976Z</time>
      </trkpt>
      <trkpt lat="46.28797" lon="6.1253">
        <ele>451</ele>
        <time>2020-11-06T14:07:41.975Z</time>
      </trkpt>
      <trkpt lat="46.28796" lon="6.1253">
        <ele>451</ele>
        <time>2020-11-06T14:07:42.976Z</time>
      </trkpt>
      <trkpt lat="46.28795" lon="6.1253">
        <ele>451</ele>
        <time>2020-11-06T14:07:43.976Z</time>
      </trkpt>
      <trkpt lat="46.28794" lon="6.12529">
        <ele>451</ele>
        <time>2020-11-06T14:07:44.976Z</time>
      </trkpt>
      <trkpt lat="46.28793" lon="6.12528">
        <ele>451</ele>
        <time>2020-11-06T14:07:45.975Z</time>
      </trkpt>
      <trkpt lat="46.28792" lon="6.12527">
        <ele>451</ele>
        <time>2020-11-06T14:07:46.976Z</time>
      </trkpt>
      <trkpt lat="46.28791" lon="6.12526">
        <ele>450</ele>
        <time>2020-11-06T14:07:47.976Z</time>
      </trkpt>
      <trkpt lat="46.28789" lon="6.12526">
        <ele>450</ele>
        <time>2020-11-06T14:07:48.976Z</time>
      </trkpt>
      <trkpt lat="46.28788" lon="6.12525">
        <ele>450</ele>
        <time>2020-11-06T14:07:49.975Z</time>
      </trkpt>
      <trkpt lat="46.28787" lon="6.12523">
        <ele>449</ele>
        <time>2020-11-06T14:07:50.976Z</time>
      </trkpt>
      <trkpt lat="46.28786" lon="6.12522">
        <ele>449</ele>
        <time>2020-11-06T14:07:51.975Z</time>
      </trkpt>
      <trkpt lat="46.28784" lon="6.12521">
        <ele>448</ele>
        <time>2020-11-06T14:07:52.975Z</time>
      </trkpt>
      <trkpt lat="46.28783" lon="6.12519">
        <ele>448</ele>
        <time>2020-11-06T14:07:53.975Z</time>
      </trkpt>
      <trkpt lat="46.28782" lon="6.12517">
        <ele>447</ele>
        <time>2020-11-06T14:07:54.975Z</time>
      </trkpt>
      <trkpt lat="46.28781" lon="6.12516">
        <ele>447</ele>
        <time>2020-11-06T14:07:55.975Z</time>
      </trkpt>
      <trkpt lat="46.2878" lon="6.12514">
        <ele>447</ele>
        <time>2020-11-06T14:07:56.975Z</time>
      </trkpt>
      <trkpt lat="46.28779" lon="6.12512">
        <ele>446</ele>
        <time>2020-11-06T14:07:57.976Z</time>
      </trkpt>
      <trkpt lat="46.28777" lon="6.12511">
        <ele>446</ele>
        <time>2020-11-06T14:07:58.976Z</time>
      </trkpt>
      <trkpt lat="46.28776" lon="6.12509">
        <ele>445</ele>
        <time>2020-11-06T14:07:59.975Z</time>
      </trkpt>
      <trkpt lat="46.28774" lon="6.12507">
        <ele>445</ele>
        <time>2020-11-06T14:08:00.976Z</time>
      </trkpt>
      <trkpt lat="46.28772" lon="6.12505">
        <ele>445</ele>
        <time>2020-11-06T14:08:01.976Z</time>
      </trkpt>
      <trkpt lat="46.28769" lon="6.12503">
        <ele>444</ele>
        <time>2020-11-06T14:08:02.976Z</time>
      </trkpt>
      <trkpt lat="46.28766" lon="6.12503">
        <ele>445</ele>
        <time>2020-11-06T14:08:03.975Z</time>
      </trkpt>
      <trkpt lat="46.28764" lon="6.12503">
        <ele>445</ele>
        <time>2020-11-06T14:08:04.976Z</time>
      </trkpt>
      <trkpt lat="46.28761" lon="6.12504">
        <ele>445</ele>
        <time>2020-11-06T14:08:05.976Z</time>
      </trkpt>
      <trkpt lat="46.28758" lon="6.12506">
        <ele>445</ele>
        <time>2020-11-06T14:08:06.976Z</time>
      </trkpt>
      <trkpt lat="46.28755" lon="6.12508">
        <ele>445</ele>
        <time>2020-11-06T14:08:07.976Z</time>
      </trkpt>
      <trkpt lat="46.28753" lon="6.1251">
        <ele>445</ele>
        <time>2020-11-06T14:08:08.976Z</time>
      </trkpt>
      <trkpt lat="46.28751" lon="6.12513">
        <ele>444</ele>
        <time>2020-11-06T14:08:09.975Z</time>
      </trkpt>
      <trkpt lat="46.28749" lon="6.12515">
        <ele>444</ele>
        <time>2020-11-06T14:08:10.975Z</time>
      </trkpt>
      <trkpt lat="46.28747" lon="6.12516">
        <ele>444</ele>
        <time>2020-11-06T14:08:11.976Z</time>
      </trkpt>
      <trkpt lat="46.28745" lon="6.12518">
        <ele>444</ele>
        <time>2020-11-06T14:08:12.975Z</time>
      </trkpt>
      <trkpt lat="46.28742" lon="6.12519">
        <ele>444</ele>
        <time>2020-11-06T14:08:13.976Z</time>
      </trkpt>
      <trkpt lat="46.2874" lon="6.12521">
        <ele>445</ele>
        <time>2020-11-06T14:08:14.976Z</time>
      </trkpt>
      <trkpt lat="46.28738" lon="6.12523">
        <ele>445</ele>
        <time>2020-11-06T14:08:15.976Z</time>
      </trkpt>
      <trkpt lat="46.28735" lon="6.12525">
        <ele>445</ele>
        <time>2020-11-06T14:08:16.975Z</time>
      </trkpt>
      <trkpt lat="46.28732" lon="6.12528">
        <ele>445</ele>
        <time>2020-11-06T14:08:17.975Z</time>
      </trkpt>
      <trkpt lat="46.28729" lon="6.12532">
        <ele>445</ele>
        <time>2020-11-06T14:08:18.975Z</time>
      </trkpt>
      <trkpt lat="46.28726" lon="6.12535">
        <ele>444</ele>
        <time>2020-11-06T14:08:19.975Z</time>
      </trkpt>
      <trkpt lat="46.28724" lon="6.12539">
        <ele>444</ele>
        <time>2020-11-06T14:08:20.976Z</time>
      </trkpt>
      <trkpt lat="46.28722" lon="6.12541">
        <ele>443</ele>
        <time>2020-11-06T14:08:21.975Z</time>
      </trkpt>
      <trkpt lat="46.28719" lon="6.12544">
        <ele>443</ele>
        <time>2020-11-06T14:08:22.976Z</time>
      </trkpt>
      <trkpt lat="46.28718" lon="6.12547">
        <ele>443</ele>
        <time>2020-11-06T14:08:23.975Z</time>
      </trkpt>
      <trkpt lat="46.28716" lon="6.12549">
        <ele>442</ele>
        <time>2020-11-06T14:08:24.975Z</time>
      </trkpt>
      <trkpt lat="46.28713" lon="6.12553">
        <ele>442</ele>
        <time>2020-11-06T14:08:25.976Z</time>
      </trkpt>
      <trkpt lat="46.28712" lon="6.12555">
        <ele>441</ele>
        <time>2020-11-06T14:08:26.976Z</time>
      </trkpt>
      <trkpt lat="46.2871" lon="6.12558">
        <ele>440</ele>
        <time>2020-11-06T14:08:27.975Z</time>
      </trkpt>
      <trkpt lat="46.28708" lon="6.12561">
        <ele>439</ele>
        <time>2020-11-06T14:08:28.976Z</time>
      </trkpt>
      <trkpt lat="46.28706" lon="6.12563">
        <ele>439</ele>
        <time>2020-11-06T14:08:29.976Z</time>
      </trkpt>
      <trkpt lat="46.28705" lon="6.12566">
        <ele>439</ele>
        <time>2020-11-06T14:08:30.975Z</time>
      </trkpt>
      <trkpt lat="46.28703" lon="6.12569">
        <ele>439</ele>
        <time>2020-11-06T14:08:31.976Z</time>
      </trkpt>
      <trkpt lat="46.28701" lon="6.12572">
        <ele>439</ele>
        <time>2020-11-06T14:08:32.975Z</time>
      </trkpt>
      <trkpt lat="46.287" lon="6.12574">
        <ele>440</ele>
        <time>2020-11-06T14:08:33.976Z</time>
      </trkpt>
      <trkpt lat="46.28698" lon="6.12577">
        <ele>440</ele>
        <time>2020-11-06T14:08:34.975Z</time>
      </trkpt>
      <trkpt lat="46.28696" lon="6.1258">
        <ele>441</ele>
        <time>2020-11-06T14:08:35.976Z</time>
      </trkpt>
      <trkpt lat="46.28694" lon="6.12582">
        <ele>441</ele>
        <time>2020-11-06T14:08:36.976Z</time>
      </trkpt>
      <trkpt lat="46.28693" lon="6.12584">
        <ele>441</ele>
        <time>2020-11-06T14:08:37.976Z</time>
      </trkpt>
      <trkpt lat="46.28691" lon="6.12587">
        <ele>441</ele>
        <time>2020-11-06T14:08:38.976Z</time>
      </trkpt>
      <trkpt lat="46.28689" lon="6.1259">
        <ele>441</ele>
        <time>2020-11-06T14:08:39.976Z</time>
      </trkpt>
      <trkpt lat="46.28687" lon="6.12592">
        <ele>441</ele>
        <time>2020-11-06T14:08:40.976Z</time>
      </trkpt>
      <trkpt lat="46.28686" lon="6.12595">
        <ele>440</ele>
        <time>2020-11-06T14:08:41.976Z</time>
      </trkpt>
      <trkpt lat="46.28685" lon="6.12597">
        <ele>440</ele>
        <time>2020-11-06T14:08:42.976Z</time>
      </trkpt>
      <trkpt lat="46.28683" lon="6.126">
        <ele>439</ele>
        <time>2020-11-06T14:08:43.976Z</time>
      </trkpt>
      <trkpt lat="46.28681" lon="6.12602">
        <ele>439</ele>
        <time>2020-11-06T14:08:44.976Z</time>
      </trkpt>
      <trkpt lat="46.28679" lon="6.12605">
        <ele>439</ele>
        <time>2020-11-06T14:08:45.976Z</time>
      </trkpt>
      <trkpt lat="46.28677" lon="6.12608">
        <ele>438</ele>
        <time>2020-11-06T14:08:46.976Z</time>
      </trkpt>
      <trkpt lat="46.28675" lon="6.12611">
        <ele>438</ele>
        <time>2020-11-06T14:08:47.975Z</time>
      </trkpt>
      <trkpt lat="46.28674" lon="6.12613">
        <ele>438</ele>
        <time>2020-11-06T14:08:48.976Z</time>
      </trkpt>
      <trkpt lat="46.28672" lon="6.12615">
        <ele>437</ele>
        <time>2020-11-06T14:08:49.976Z</time>
      </trkpt>
      <trkpt lat="46.2867" lon="6.12618">
        <ele>437</ele>
        <time>2020-11-06T14:08:50.975Z</time>
      </trkpt>
      <trkpt lat="46.28669" lon="6.12621">
        <ele>437</ele>
        <time>2020-11-06T14:08:51.976Z</time>
      </trkpt>
      <trkpt lat="46.28667" lon="6.12624">
        <ele>436</ele>
        <time>2020-11-06T14:08:52.975Z</time>
      </trkpt>
      <trkpt lat="46.28666" lon="6.12627">
        <ele>436</ele>
        <time>2020-11-06T14:08:53.976Z</time>
      </trkpt>
      <trkpt lat="46.28664" lon="6.1263">
        <ele>436</ele>
        <time>2020-11-06T14:08:54.976Z</time>
      </trkpt>
      <trkpt lat="46.28663" lon="6.12632">
        <ele>435</ele>
        <time>2020-11-06T14:08:55.976Z</time>
      </trkpt>
      <trkpt lat="46.28661" lon="6.12635">
        <ele>435</ele>
        <time>2020-11-06T14:08:56.976Z</time>
      </trkpt>
      <trkpt lat="46.28659" lon="6.12638">
        <ele>435</ele>
        <time>2020-11-06T14:08:57.976Z</time>
      </trkpt>
      <trkpt lat="46.28657" lon="6.1264">
        <ele>435</ele>
        <time>2020-11-06T14:08:58.976Z</time>
      </trkpt>
      <trkpt lat="46.28656" lon="6.12642">
        <ele>435</ele>
        <time>2020-11-06T14:08:59.975Z</time>
      </trkpt>
      <trkpt lat="46.28656" lon="6.12645">
        <ele>435</ele>
        <time>2020-11-06T14:09:00.976Z</time>
      </trkpt>
      <trkpt lat="46.28656" lon="6.12648">
        <ele>436</ele>
        <time>2020-11-06T14:09:01.975Z</time>
      </trkpt>
      <trkpt lat="46.28656" lon="6.1265">
        <ele>436</ele>
        <time>2020-11-06T14:09:02.976Z</time>
      </trkpt>
      <trkpt lat="46.28656" lon="6.12652">
        <ele>436</ele>
        <time>2020-11-06T14:09:03.975Z</time>
      </trkpt>
      <trkpt lat="46.28655" lon="6.12652">
        <ele>436</ele>
        <time>2020-11-06T14:09:04.975Z</time>
      </trkpt>
      <trkpt lat="46.28655" lon="6.12652">
        <ele>437</ele>
        <time>2020-11-06T14:09:05.976Z</time>
      </trkpt>
      <trkpt lat="46.28655" lon="6.1265">
        <ele>437</ele>
        <time>2020-11-06T14:09:06.976Z</time>
      </trkpt>
      <trkpt lat="46.28655" lon="6.12648">
        <ele>438</ele>
        <time>2020-11-06T14:09:07.976Z</time>
      </trkpt>
      <trkpt lat="46.28655" lon="6.12646">
        <ele>438</ele>
        <time>2020-11-06T14:09:08.976Z</time>
      </trkpt>
      <trkpt lat="46.28654" lon="6.12645">
        <ele>438</ele>
        <time>2020-11-06T14:09:09.975Z</time>
      </trkpt>
      <trkpt lat="46.28654" lon="6.12646">
        <ele>439</ele>
        <time>2020-11-06T14:09:10.975Z</time>
      </trkpt>
      <trkpt lat="46.28653" lon="6.12647">
        <ele>439</ele>
        <time>2020-11-06T14:09:11.976Z</time>
      </trkpt>
      <trkpt lat="46.28652" lon="6.12647">
        <ele>439</ele>
        <time>2020-11-06T14:09:12.975Z</time>
      </trkpt>
      <trkpt lat="46.28651" lon="6.12648">
        <ele>439</ele>
        <time>2020-11-06T14:09:13.976Z</time>
      </trkpt>
      <trkpt lat="46.2865" lon="6.12649">
        <ele>439</ele>
        <time>2020-11-06T14:09:14.976Z</time>
      </trkpt>
      <trkpt lat="46.28649" lon="6.12651">
        <ele>439</ele>
        <time>2020-11-06T14:09:15.975Z</time>
      </trkpt>
      <trkpt lat="46.28648" lon="6.12652">
        <ele>438</ele>
        <time>2020-11-06T14:09:16.976Z</time>
      </trkpt>
      <trkpt lat="46.28647" lon="6.12654">
        <ele>437</ele>
        <time>2020-11-06T14:09:17.976Z</time>
      </trkpt>
      <trkpt lat="46.28646" lon="6.12656">
        <ele>437</ele>
        <time>2020-11-06T14:09:18.976Z</time>
      </trkpt>
      <trkpt lat="46.28644" lon="6.12659">
        <ele>436</ele>
        <time>2020-11-06T14:09:19.975Z</time>
      </trkpt>
      <trkpt lat="46.28643" lon="6.12661">
        <ele>436</ele>
        <time>2020-11-06T14:09:20.976Z</time>
      </trkpt>
      <trkpt lat="46.28641" lon="6.12663">
        <ele>436</ele>
        <time>2020-11-06T14:09:21.976Z</time>
      </trkpt>
      <trkpt lat="46.2864" lon="6.12665">
        <ele>435</ele>
        <time>2020-11-06T14:09:22.976Z</time>
      </trkpt>
      <trkpt lat="46.28638" lon="6.12667">
        <ele>435</ele>
        <time>2020-11-06T14:09:23.976Z</time>
      </trkpt>
      <trkpt lat="46.28637" lon="6.12669">
        <ele>435</ele>
        <time>2020-11-06T14:09:24.976Z</time>
      </trkpt>
      <trkpt lat="46.28636" lon="6.12671">
        <ele>434</ele>
        <time>2020-11-06T14:09:25.976Z</time>
      </trkpt>
      <trkpt lat="46.28634" lon="6.12673">
        <ele>433</ele>
        <time>2020-11-06T14:09:26.975Z</time>
      </trkpt>
      <trkpt lat="46.28633" lon="6.12675">
        <ele>433</ele>
        <time>2020-11-06T14:09:27.975Z</time>
      </trkpt>
      <trkpt lat="46.28631" lon="6.12677">
        <ele>433</ele>
        <time>2020-11-06T14:09:28.976Z</time>
      </trkpt>
      <trkpt lat="46.28629" lon="6.12679">
        <ele>433</ele>
        <time>2020-11-06T14:09:29.976Z</time>
      </trkpt>
      <trkpt lat="46.28627" lon="6.1268">
        <ele>432</ele>
        <time>2020-11-06T14:09:30.976Z</time>
      </trkpt>
      <trkpt lat="46.28626" lon="6.12682">
        <ele>432</ele>
        <time>2020-11-06T14:09:31.976Z</time>
      </trkpt>
      <trkpt lat="46.28624" lon="6.12684">
        <ele>432</ele>
        <time>2020-11-06T14:09:32.975Z</time>
      </trkpt>
      <trkpt lat="46.28622" lon="6.12685">
        <ele>432</ele>
        <time>2020-11-06T14:09:33.975Z</time>
      </trkpt>
      <trkpt lat="46.2862" lon="6.12687">
        <ele>432</ele>
        <time>2020-11-06T14:09:34.976Z</time>
      </trkpt>
      <trkpt lat="46.28618" lon="6.12688">
        <ele>432</ele>
        <time>2020-11-06T14:09:35.976Z</time>
      </trkpt>
      <trkpt lat="46.28615" lon="6.12689">
        <ele>432</ele>
        <time>2020-11-06T14:09:36.976Z</time>
      </trkpt>
      <trkpt lat="46.28614" lon="6.12691">
        <ele>433</ele>
        <time>2020-11-06T14:09:37.976Z</time>
      </trkpt>
      <trkpt lat="46.28612" lon="6.12692">
        <ele>433</ele>
        <time>2020-11-06T14:09:38.976Z</time>
      </trkpt>
      <trkpt lat="46.2861" lon="6.12693">
        <ele>433</ele>
        <time>2020-11-06T14:09:39.975Z</time>
      </trkpt>
      <trkpt lat="46.28607" lon="6.12694">
        <ele>433</ele>
        <time>2020-11-06T14:09:40.976Z</time>
      </trkpt>
      <trkpt lat="46.28605" lon="6.12695">
        <ele>433</ele>
        <time>2020-11-06T14:09:41.975Z</time>
      </trkpt>
      <trkpt lat="46.28603" lon="6.12696">
        <ele>433</ele>
        <time>2020-11-06T14:09:42.976Z</time>
      </trkpt>
      <trkpt lat="46.28601" lon="6.12697">
        <ele>433</ele>
        <time>2020-11-06T14:09:43.976Z</time>
      </trkpt>
      <trkpt lat="46.28599" lon="6.12698">
        <ele>434</ele>
        <time>2020-11-06T14:09:44.975Z</time>
      </trkpt>
      <trkpt lat="46.28597" lon="6.127">
        <ele>435</ele>
        <time>2020-11-06T14:09:45.975Z</time>
      </trkpt>
      <trkpt lat="46.28595" lon="6.127">
        <ele>435</ele>
        <time>2020-11-06T14:09:46.975Z</time>
      </trkpt>
      <trkpt lat="46.28593" lon="6.12701">
        <ele>436</ele>
        <time>2020-11-06T14:09:47.976Z</time>
      </trkpt>
      <trkpt lat="46.28591" lon="6.12702">
        <ele>435</ele>
        <time>2020-11-06T14:09:48.976Z</time>
      </trkpt>
      <trkpt lat="46.28589" lon="6.12703">
        <ele>435</ele>
        <time>2020-11-06T14:09:49.976Z</time>
      </trkpt>
      <trkpt lat="46.28587" lon="6.12704">
        <ele>435</ele>
        <time>2020-11-06T14:09:50.976Z</time>
      </trkpt>
      <trkpt lat="46.28584" lon="6.12705">
        <ele>435</ele>
        <time>2020-11-06T14:09:51.976Z</time>
      </trkpt>
      <trkpt lat="46.28582" lon="6.12705">
        <ele>436</ele>
        <time>2020-11-06T14:09:52.975Z</time>
      </trkpt>
      <trkpt lat="46.2858" lon="6.12705">
        <ele>436</ele>
        <time>2020-11-06T14:09:53.976Z</time>
      </trkpt>
      <trkpt lat="46.28577" lon="6.12705">
        <ele>436</ele>
        <time>2020-11-06T14:09:54.976Z</time>
      </trkpt>
      <trkpt lat="46.28575" lon="6.12706">
        <ele>436</ele>
        <time>2020-11-06T14:09:55.976Z</time>
      </trkpt>
      <trkpt lat="46.28573" lon="6.12707">
        <ele>436</ele>
        <time>2020-11-06T14:09:56.976Z</time>
      </trkpt>
      <trkpt lat="46.28571" lon="6.12708">
        <ele>436</ele>
        <time>2020-11-06T14:09:57.976Z</time>
      </trkpt>
      <trkpt lat="46.28568" lon="6.12709">
        <ele>436</ele>
        <time>2020-11-06T14:09:58.976Z</time>
      </trkpt>
      <trkpt lat="46.28566" lon="6.1271">
        <ele>436</ele>
        <time>2020-11-06T14:09:59.976Z</time>
      </trkpt>
      <trkpt lat="46.28564" lon="6.12711">
        <ele>436</ele>
        <time>2020-11-06T14:10:00.976Z</time>
      </trkpt>
      <trkpt lat="46.28562" lon="6.12711">
        <ele>436</ele>
        <time>2020-11-06T14:10:01.976Z</time>
      </trkpt>
      <trkpt lat="46.28559" lon="6.12712">
        <ele>437</ele>
        <time>2020-11-06T14:10:02.976Z</time>
      </trkpt>
      <trkpt lat="46.28557" lon="6.12714">
        <ele>437</ele>
        <time>2020-11-06T14:10:03.976Z</time>
      </trkpt>
      <trkpt lat="46.28555" lon="6.12715">
        <ele>437</ele>
        <time>2020-11-06T14:10:04.976Z</time>
      </trkpt>
      <trkpt lat="46.28553" lon="6.12716">
        <ele>437</ele>
        <time>2020-11-06T14:10:05.975Z</time>
      </trkpt>
      <trkpt lat="46.28551" lon="6.12717">
        <ele>437</ele>
        <time>2020-11-06T14:10:06.975Z</time>
      </trkpt>
      <trkpt lat="46.28549" lon="6.12718">
        <ele>437</ele>
        <time>2020-11-06T14:10:07.975Z</time>
      </trkpt>
      <trkpt lat="46.28546" lon="6.12719">
        <ele>437</ele>
        <time>2020-11-06T14:10:08.975Z</time>
      </trkpt>
      <trkpt lat="46.28544" lon="6.1272">
        <ele>437</ele>
        <time>2020-11-06T14:10:09.976Z</time>
      </trkpt>
      <trkpt lat="46.28541" lon="6.12721">
        <ele>437</ele>
        <time>2020-11-06T14:10:10.976Z</time>
      </trkpt>
      <trkpt lat="46.28539" lon="6.12722">
        <ele>438</ele>
        <time>2020-11-06T14:10:11.975Z</time>
      </trkpt>
      <trkpt lat="46.28537" lon="6.12723">
        <ele>438</ele>
        <time>2020-11-06T14:10:12.976Z</time>
      </trkpt>
      <trkpt lat="46.28534" lon="6.12724">
        <ele>439</ele>
        <time>2020-11-06T14:10:13.975Z</time>
      </trkpt>
      <trkpt lat="46.28532" lon="6.12725">
        <ele>439</ele>
        <time>2020-11-06T14:10:14.975Z</time>
      </trkpt>
      <trkpt lat="46.28529" lon="6.12725">
        <ele>439</ele>
        <time>2020-11-06T14:10:15.976Z</time>
      </trkpt>
      <trkpt lat="46.28527" lon="6.12726">
        <ele>439</ele>
        <time>2020-11-06T14:10:16.975Z</time>
      </trkpt>
      <trkpt lat="46.28525" lon="6.12728">
        <ele>439</ele>
        <time>2020-11-06T14:10:17.976Z</time>
      </trkpt>
      <trkpt lat="46.28523" lon="6.12729">
        <ele>438</ele>
        <time>2020-11-06T14:10:18.976Z</time>
      </trkpt>
      <trkpt lat="46.28521" lon="6.12731">
        <ele>438</ele>
        <time>2020-11-06T14:10:19.976Z</time>
      </trkpt>
      <trkpt lat="46.28519" lon="6.12732">
        <ele>438</ele>
        <time>2020-11-06T14:10:20.975Z</time>
      </trkpt>
      <trkpt lat="46.28516" lon="6.12733">
        <ele>438</ele>
        <time>2020-11-06T14:10:21.975Z</time>
      </trkpt>
      <trkpt lat="46.28514" lon="6.12734">
        <ele>438</ele>
        <time>2020-11-06T14:10:22.976Z</time>
      </trkpt>
      <trkpt lat="46.28513" lon="6.12736">
        <ele>437</ele>
        <time>2020-11-06T14:10:23.976Z</time>
      </trkpt>
      <trkpt lat="46.28511" lon="6.12737">
        <ele>436</ele>
        <time>2020-11-06T14:10:24.975Z</time>
      </trkpt>
      <trkpt lat="46.28509" lon="6.12739">
        <ele>435</ele>
        <time>2020-11-06T14:10:25.976Z</time>
      </trkpt>
      <trkpt lat="46.28507" lon="6.12741">
        <ele>434</ele>
        <time>2020-11-06T14:10:26.975Z</time>
      </trkpt>
      <trkpt lat="46.28505" lon="6.12743">
        <ele>434</ele>
        <time>2020-11-06T14:10:27.976Z</time>
      </trkpt>
      <trkpt lat="46.28503" lon="6.12745">
        <ele>434</ele>
        <time>2020-11-06T14:10:28.976Z</time>
      </trkpt>
      <trkpt lat="46.28501" lon="6.12746">
        <ele>434</ele>
        <time>2020-11-06T14:10:29.975Z</time>
      </trkpt>
      <trkpt lat="46.28498" lon="6.12748">
        <ele>434</ele>
        <time>2020-11-06T14:10:30.975Z</time>
      </trkpt>
      <trkpt lat="46.28497" lon="6.12749">
        <ele>435</ele>
        <time>2020-11-06T14:10:31.976Z</time>
      </trkpt>
      <trkpt lat="46.28494" lon="6.12751">
        <ele>435</ele>
        <time>2020-11-06T14:10:32.975Z</time>
      </trkpt>
      <trkpt lat="46.28492" lon="6.12752">
        <ele>435</ele>
        <time>2020-11-06T14:10:33.976Z</time>
      </trkpt>
      <trkpt lat="46.2849" lon="6.12754">
        <ele>436</ele>
        <time>2020-11-06T14:10:34.976Z</time>
      </trkpt>
      <trkpt lat="46.28488" lon="6.12755">
        <ele>436</ele>
        <time>2020-11-06T14:10:35.976Z</time>
      </trkpt>
      <trkpt lat="46.28485" lon="6.12757">
        <ele>436</ele>
        <time>2020-11-06T14:10:36.976Z</time>
      </trkpt>
      <trkpt lat="46.28483" lon="6.12759">
        <ele>435</ele>
        <time>2020-11-06T14:10:37.975Z</time>
      </trkpt>
      <trkpt lat="46.28481" lon="6.12761">
        <ele>435</ele>
        <time>2020-11-06T14:10:38.975Z</time>
      </trkpt>
      <trkpt lat="46.28479" lon="6.12763">
        <ele>435</ele>
        <time>2020-11-06T14:10:39.976Z</time>
      </trkpt>
      <trkpt lat="46.28478" lon="6.12765">
        <ele>435</ele>
        <time>2020-11-06T14:10:40.975Z</time>
      </trkpt>
      <trkpt lat="46.28476" lon="6.12767">
        <ele>435</ele>
        <time>2020-11-06T14:10:41.976Z</time>
      </trkpt>
      <trkpt lat="46.28474" lon="6.12769">
        <ele>435</ele>
        <time>2020-11-06T14:10:42.976Z</time>
      </trkpt>
      <trkpt lat="46.28472" lon="6.12771">
        <ele>435</ele>
        <time>2020-11-06T14:10:43.975Z</time>
      </trkpt>
      <trkpt lat="46.2847" lon="6.12772">
        <ele>434</ele>
        <time>2020-11-06T14:10:44.975Z</time>
      </trkpt>
      <trkpt lat="46.28468" lon="6.12774">
        <ele>434</ele>
        <time>2020-11-06T14:10:45.976Z</time>
      </trkpt>
      <trkpt lat="46.28466" lon="6.12775">
        <ele>434</ele>
        <time>2020-11-06T14:10:46.975Z</time>
      </trkpt>
      <trkpt lat="46.28464" lon="6.12776">
        <ele>434</ele>
        <time>2020-11-06T14:10:47.975Z</time>
      </trkpt>
      <trkpt lat="46.28462" lon="6.12775">
        <ele>434</ele>
        <time>2020-11-06T14:10:48.976Z</time>
      </trkpt>
      <trkpt lat="46.2846" lon="6.12775">
        <ele>435</ele>
        <time>2020-11-06T14:10:49.975Z</time>
      </trkpt>
      <trkpt lat="46.28458" lon="6.12774">
        <ele>435</ele>
        <time>2020-11-06T14:10:50.976Z</time>
      </trkpt>
      <trkpt lat="46.28456" lon="6.12772">
        <ele>435</ele>
        <time>2020-11-06T14:10:51.976Z</time>
      </trkpt>
      <trkpt lat="46.28454" lon="6.1277">
        <ele>435</ele>
        <time>2020-11-06T14:10:52.975Z</time>
      </trkpt>
      <trkpt lat="46.28453" lon="6.12768">
        <ele>434</ele>
        <time>2020-11-06T14:10:53.976Z</time>
      </trkpt>
      <trkpt lat="46.28452" lon="6.12765">
        <ele>434</ele>
        <time>2020-11-06T14:10:54.975Z</time>
      </trkpt>
      <trkpt lat="46.2845" lon="6.12763">
        <ele>434</ele>
        <time>2020-11-06T14:10:55.976Z</time>
      </trkpt>
      <trkpt lat="46.28449" lon="6.1276">
        <ele>433</ele>
        <time>2020-11-06T14:10:56.976Z</time>
      </trkpt>
      <trkpt lat="46.28448" lon="6.12758">
        <ele>433</ele>
        <time>2020-11-06T14:10:57.976Z</time>
      </trkpt>
      <trkpt lat="46.28447" lon="6.12755">
        <ele>433</ele>
        <time>2020-11-06T14:10:58.975Z</time>
      </trkpt>
      <trkpt lat="46.28446" lon="6.12753">
        <ele>433</ele>
        <time>2020-11-06T14:10:59.976Z</time>
      </trkpt>
      <trkpt lat="46.28444" lon="6.1275">
        <ele>433</ele>
        <time>2020-11-06T14:11:00.976Z</time>
      </trkpt>
      <trkpt lat="46.28443" lon="6.12748">
        <ele>433</ele>
        <time>2020-11-06T14:11:01.976Z</time>
      </trkpt>
      <trkpt lat="46.28442" lon="6.12745">
        <ele>433</ele>
        <time>2020-11-06T14:11:02.975Z</time>
      </trkpt>
      <trkpt lat="46.2844" lon="6.12743">
        <ele>433</ele>
        <time>2020-11-06T14:11:03.976Z</time>
      </trkpt>
      <trkpt lat="46.28439" lon="6.12741">
        <ele>433</ele>
        <time>2020-11-06T14:11:04.976Z</time>
      </trkpt>
      <trkpt lat="46.28438" lon="6.12739">
        <ele>433</ele>
        <time>2020-11-06T14:11:05.975Z</time>
      </trkpt>
      <trkpt lat="46.28437" lon="6.12738">
        <ele>433</ele>
        <time>2020-11-06T14:11:06.976Z</time>
      </trkpt>
      <trkpt lat="46.28435" lon="6.12736">
        <ele>433</ele>
        <time>2020-11-06T14:11:07.976Z</time>
      </trkpt>
      <trkpt lat="46.28433" lon="6.12734">
        <ele>433</ele>
        <time>2020-11-06T14:11:08.976Z</time>
      </trkpt>
      <trkpt lat="46.28431" lon="6.12733">
        <ele>433</ele>
        <time>2020-11-06T14:11:09.976Z</time>
      </trkpt>
      <trkpt lat="46.28429" lon="6.12732">
        <ele>434</ele>
        <time>2020-11-06T14:11:10.975Z</time>
      </trkpt>
      <trkpt lat="46.28427" lon="6.12731">
        <ele>434</ele>
        <time>2020-11-06T14:11:11.976Z</time>
      </trkpt>
      <trkpt lat="46.28425" lon="6.12731">
        <ele>435</ele>
        <time>2020-11-06T14:11:12.976Z</time>
      </trkpt>
      <trkpt lat="46.28422" lon="6.12732">
        <ele>436</ele>
        <time>2020-11-06T14:11:13.976Z</time>
      </trkpt>
      <trkpt lat="46.2842" lon="6.12733">
        <ele>436</ele>
        <time>2020-11-06T14:11:14.976Z</time>
      </trkpt>
      <trkpt lat="46.28419" lon="6.12735">
        <ele>436</ele>
        <time>2020-11-06T14:11:15.976Z</time>
      </trkpt>
      <trkpt lat="46.28417" lon="6.12737">
        <ele>435</ele>
        <time>2020-11-06T14:11:16.976Z</time>
      </trkpt>
      <trkpt lat="46.28416" lon="6.12739">
        <ele>435</ele>
        <time>2020-11-06T14:11:17.976Z</time>
      </trkpt>
      <trkpt lat="46.28414" lon="6.12742">
        <ele>434</ele>
        <time>2020-11-06T14:11:18.976Z</time>
      </trkpt>
      <trkpt lat="46.28413" lon="6.12744">
        <ele>434</ele>
        <time>2020-11-06T14:11:19.976Z</time>
      </trkpt>
      <trkpt lat="46.28412" lon="6.12747">
        <ele>434</ele>
        <time>2020-11-06T14:11:20.976Z</time>
      </trkpt>
      <trkpt lat="46.2841" lon="6.1275">
        <ele>433</ele>
        <time>2020-11-06T14:11:21.976Z</time>
      </trkpt>
      <trkpt lat="46.28409" lon="6.12753">
        <ele>433</ele>
        <time>2020-11-06T14:11:22.976Z</time>
      </trkpt>
      <trkpt lat="46.28408" lon="6.12755">
        <ele>433</ele>
        <time>2020-11-06T14:11:23.975Z</time>
      </trkpt>
      <trkpt lat="46.28407" lon="6.12759">
        <ele>433</ele>
        <time>2020-11-06T14:11:24.975Z</time>
      </trkpt>
      <trkpt lat="46.28405" lon="6.12761">
        <ele>433</ele>
        <time>2020-11-06T14:11:25.976Z</time>
      </trkpt>
      <trkpt lat="46.28403" lon="6.12764">
        <ele>432</ele>
        <time>2020-11-06T14:11:26.975Z</time>
      </trkpt>
      <trkpt lat="46.28402" lon="6.12766">
        <ele>433</ele>
        <time>2020-11-06T14:11:27.976Z</time>
      </trkpt>
      <trkpt lat="46.284" lon="6.12769">
        <ele>433</ele>
        <time>2020-11-06T14:11:28.975Z</time>
      </trkpt>
      <trkpt lat="46.28398" lon="6.12771">
        <ele>433</ele>
        <time>2020-11-06T14:11:29.975Z</time>
      </trkpt>
      <trkpt lat="46.28397" lon="6.12772">
        <ele>432</ele>
        <time>2020-11-06T14:11:30.975Z</time>
      </trkpt>
      <trkpt lat="46.28395" lon="6.12772">
        <ele>432</ele>
        <time>2020-11-06T14:11:31.976Z</time>
      </trkpt>
      <trkpt lat="46.28394" lon="6.12772">
        <ele>432</ele>
        <time>2020-11-06T14:11:32.976Z</time>
      </trkpt>
      <trkpt lat="46.28393" lon="6.1277">
        <ele>432</ele>
        <time>2020-11-06T14:11:33.976Z</time>
      </trkpt>
      <trkpt lat="46.28392" lon="6.12768">
        <ele>432</ele>
        <time>2020-11-06T14:11:34.976Z</time>
      </trkpt>
      <trkpt lat="46.28391" lon="6.12766">
        <ele>432</ele>
        <time>2020-11-06T14:11:35.976Z</time>
      </trkpt>
      <trkpt lat="46.2839" lon="6.12764">
        <ele>432</ele>
        <time>2020-11-06T14:11:36.976Z</time>
      </trkpt>
      <trkpt lat="46.28388" lon="6.12761">
        <ele>433</ele>
        <time>2020-11-06T14:11:37.976Z</time>
      </trkpt>
      <trkpt lat="46.28386" lon="6.12759">
        <ele>433</ele>
        <time>2020-11-06T14:11:38.975Z</time>
      </trkpt>
      <trkpt lat="46.28385" lon="6.12756">
        <ele>434</ele>
        <time>2020-11-06T14:11:39.976Z</time>
      </trkpt>
      <trkpt lat="46.28385" lon="6.12755">
        <ele>434</ele>
        <time>2020-11-06T14:11:40.975Z</time>
      </trkpt>
      <trkpt lat="46.28383" lon="6.12753">
        <ele>435</ele>
        <time>2020-11-06T14:11:41.975Z</time>
      </trkpt>
      <trkpt lat="46.28382" lon="6.12749">
        <ele>435</ele>
        <time>2020-11-06T14:11:42.976Z</time>
      </trkpt>
      <trkpt lat="46.2838" lon="6.12746">
        <ele>436</ele>
        <time>2020-11-06T14:11:43.976Z</time>
      </trkpt>
      <trkpt lat="46.28377" lon="6.12744">
        <ele>437</ele>
        <time>2020-11-06T14:11:44.976Z</time>
      </trkpt>
      <trkpt lat="46.28376" lon="6.12742">
        <ele>437</ele>
        <time>2020-11-06T14:11:45.975Z</time>
      </trkpt>
      <trkpt lat="46.28375" lon="6.12741">
        <ele>438</ele>
        <time>2020-11-06T14:11:46.976Z</time>
      </trkpt>
      <trkpt lat="46.28373" lon="6.12739">
        <ele>438</ele>
        <time>2020-11-06T14:11:47.976Z</time>
      </trkpt>
      <trkpt lat="46.28372" lon="6.12737">
        <ele>438</ele>
        <time>2020-11-06T14:11:48.975Z</time>
      </trkpt>
      <trkpt lat="46.28371" lon="6.12736">
        <ele>438</ele>
        <time>2020-11-06T14:11:49.975Z</time>
      </trkpt>
      <trkpt lat="46.28369" lon="6.12735">
        <ele>438</ele>
        <time>2020-11-06T14:11:50.975Z</time>
      </trkpt>
      <trkpt lat="46.28368" lon="6.12734">
        <ele>438</ele>
        <time>2020-11-06T14:11:51.975Z</time>
      </trkpt>
      <trkpt lat="46.28367" lon="6.12733">
        <ele>438</ele>
        <time>2020-11-06T14:11:52.976Z</time>
      </trkpt>
      <trkpt lat="46.28365" lon="6.12731">
        <ele>437</ele>
        <time>2020-11-06T14:11:53.976Z</time>
      </trkpt>
      <trkpt lat="46.28364" lon="6.12729">
        <ele>437</ele>
        <time>2020-11-06T14:11:54.976Z</time>
      </trkpt>
      <trkpt lat="46.28362" lon="6.12726">
        <ele>438</ele>
        <time>2020-11-06T14:11:55.975Z</time>
      </trkpt>
      <trkpt lat="46.28359" lon="6.12721">
        <ele>438</ele>
        <time>2020-11-06T14:11:56.976Z</time>
      </trkpt>
      <trkpt lat="46.28357" lon="6.12717">
        <ele>439</ele>
        <time>2020-11-06T14:11:57.976Z</time>
      </trkpt>
      <trkpt lat="46.28355" lon="6.12714">
        <ele>440</ele>
        <time>2020-11-06T14:11:58.976Z</time>
      </trkpt>
      <trkpt lat="46.28354" lon="6.12711">
        <ele>440</ele>
        <time>2020-11-06T14:11:59.975Z</time>
      </trkpt>
      <trkpt lat="46.28352" lon="6.12708">
        <ele>441</ele>
        <time>2020-11-06T14:12:00.976Z</time>
      </trkpt>
      <trkpt lat="46.2835" lon="6.12705">
        <ele>441</ele>
        <time>2020-11-06T14:12:01.976Z</time>
      </trkpt>
      <trkpt lat="46.28349" lon="6.12703">
        <ele>442</ele>
        <time>2020-11-06T14:12:02.976Z</time>
      </trkpt>
      <trkpt lat="46.28347" lon="6.127">
        <ele>442</ele>
        <time>2020-11-06T14:12:03.976Z</time>
      </trkpt>
      <trkpt lat="46.28345" lon="6.12698">
        <ele>443</ele>
        <time>2020-11-06T14:12:04.975Z</time>
      </trkpt>
      <trkpt lat="46.28344" lon="6.12696">
        <ele>443</ele>
        <time>2020-11-06T14:12:05.975Z</time>
      </trkpt>
      <trkpt lat="46.28342" lon="6.12693">
        <ele>444</ele>
        <time>2020-11-06T14:12:06.976Z</time>
      </trkpt>
      <trkpt lat="46.28341" lon="6.12691">
        <ele>444</ele>
        <time>2020-11-06T14:12:07.976Z</time>
      </trkpt>
      <trkpt lat="46.28339" lon="6.12689">
        <ele>445</ele>
        <time>2020-11-06T14:12:08.976Z</time>
      </trkpt>
      <trkpt lat="46.28338" lon="6.12687">
        <ele>445</ele>
        <time>2020-11-06T14:12:09.975Z</time>
      </trkpt>
      <trkpt lat="46.28336" lon="6.12684">
        <ele>445</ele>
        <time>2020-11-06T14:12:10.976Z</time>
      </trkpt>
      <trkpt lat="46.28335" lon="6.12683">
        <ele>445</ele>
        <time>2020-11-06T14:12:11.975Z</time>
      </trkpt>
      <trkpt lat="46.28336" lon="6.12681">
        <ele>445</ele>
        <time>2020-11-06T14:12:12.976Z</time>
      </trkpt>
      <trkpt lat="46.28338" lon="6.12679">
        <ele>445</ele>
        <time>2020-11-06T14:12:13.976Z</time>
      </trkpt>
      <trkpt lat="46.28339" lon="6.12676">
        <ele>444</ele>
        <time>2020-11-06T14:12:14.975Z</time>
      </trkpt>
      <trkpt lat="46.28341" lon="6.12673">
        <ele>444</ele>
        <time>2020-11-06T14:12:15.976Z</time>
      </trkpt>
      <trkpt lat="46.28343" lon="6.12671">
        <ele>444</ele>
        <time>2020-11-06T14:12:16.975Z</time>
      </trkpt>
      <trkpt lat="46.28344" lon="6.12668">
        <ele>444</ele>
        <time>2020-11-06T14:12:17.976Z</time>
      </trkpt>
      <trkpt lat="46.28346" lon="6.12665">
        <ele>444</ele>
        <time>2020-11-06T14:12:18.976Z</time>
      </trkpt>
      <trkpt lat="46.28348" lon="6.12662">
        <ele>444</ele>
        <time>2020-11-06T14:12:19.975Z</time>
      </trkpt>
      <trkpt lat="46.2835" lon="6.12659">
        <ele>444</ele>
        <time>2020-11-06T14:12:20.976Z</time>
      </trkpt>
      <trkpt lat="46.28353" lon="6.12656">
        <ele>443</ele>
        <time>2020-11-06T14:12:21.976Z</time>
      </trkpt>
      <trkpt lat="46.28356" lon="6.12653">
        <ele>443</ele>
        <time>2020-11-06T14:12:22.976Z</time>
      </trkpt>
      <trkpt lat="46.28359" lon="6.1265">
        <ele>442</ele>
        <time>2020-11-06T14:12:23.976Z</time>
      </trkpt>
      <trkpt lat="46.28361" lon="6.12647">
        <ele>442</ele>
        <time>2020-11-06T14:12:24.975Z</time>
      </trkpt>
      <trkpt lat="46.28364" lon="6.12644">
        <ele>441</ele>
        <time>2020-11-06T14:12:25.976Z</time>
      </trkpt>
      <trkpt lat="46.28364" lon="6.1264">
        <ele>441</ele>
        <time>2020-11-06T14:12:26.975Z</time>
      </trkpt>
      <trkpt lat="46.28364" lon="6.12637">
        <ele>440</ele>
        <time>2020-11-06T14:12:27.975Z</time>
      </trkpt>
      <trkpt lat="46.28363" lon="6.12634">
        <ele>440</ele>
        <time>2020-11-06T14:12:28.975Z</time>
      </trkpt>
      <trkpt lat="46.28363" lon="6.12631">
        <ele>440</ele>
        <time>2020-11-06T14:12:29.976Z</time>
      </trkpt>
      <trkpt lat="46.28363" lon="6.12628">
        <ele>439</ele>
        <time>2020-11-06T14:12:30.976Z</time>
      </trkpt>
      <trkpt lat="46.28363" lon="6.12625">
        <ele>439</ele>
        <time>2020-11-06T14:12:31.976Z</time>
      </trkpt>
      <trkpt lat="46.28363" lon="6.12622">
        <ele>439</ele>
        <time>2020-11-06T14:12:32.976Z</time>
      </trkpt>
      <trkpt lat="46.28362" lon="6.12619">
        <ele>439</ele>
        <time>2020-11-06T14:12:33.976Z</time>
      </trkpt>
      <trkpt lat="46.2836" lon="6.12617">
        <ele>439</ele>
        <time>2020-11-06T14:12:34.975Z</time>
      </trkpt>
      <trkpt lat="46.28358" lon="6.12615">
        <ele>439</ele>
        <time>2020-11-06T14:12:35.976Z</time>
      </trkpt>
      <trkpt lat="46.28356" lon="6.12613">
        <ele>439</ele>
        <time>2020-11-06T14:12:36.976Z</time>
      </trkpt>
      <trkpt lat="46.28354" lon="6.12611">
        <ele>439</ele>
        <time>2020-11-06T14:12:37.976Z</time>
      </trkpt>
      <trkpt lat="46.28352" lon="6.12609">
        <ele>439</ele>
        <time>2020-11-06T14:12:38.975Z</time>
      </trkpt>
      <trkpt lat="46.2835" lon="6.12607">
        <ele>440</ele>
        <time>2020-11-06T14:12:39.975Z</time>
      </trkpt>
      <trkpt lat="46.28348" lon="6.12605">
        <ele>440</ele>
        <time>2020-11-06T14:12:40.976Z</time>
      </trkpt>
      <trkpt lat="46.28346" lon="6.12603">
        <ele>439</ele>
        <time>2020-11-06T14:12:41.976Z</time>
      </trkpt>
      <trkpt lat="46.28344" lon="6.12602">
        <ele>439</ele>
        <time>2020-11-06T14:12:42.975Z</time>
      </trkpt>
      <trkpt lat="46.28341" lon="6.12601">
        <ele>439</ele>
        <time>2020-11-06T14:12:43.975Z</time>
      </trkpt>
      <trkpt lat="46.2834" lon="6.12599">
        <ele>438</ele>
        <time>2020-11-06T14:12:44.976Z</time>
      </trkpt>
      <trkpt lat="46.28338" lon="6.12597">
        <ele>438</ele>
        <time>2020-11-06T14:12:45.976Z</time>
      </trkpt>
      <trkpt lat="46.28335" lon="6.12595">
        <ele>437</ele>
        <time>2020-11-06T14:12:46.975Z</time>
      </trkpt>
      <trkpt lat="46.28333" lon="6.12593">
        <ele>437</ele>
        <time>2020-11-06T14:12:47.975Z</time>
      </trkpt>
      <trkpt lat="46.28332" lon="6.1259">
        <ele>437</ele>
        <time>2020-11-06T14:12:48.975Z</time>
      </trkpt>
      <trkpt lat="46.28329" lon="6.12588">
        <ele>437</ele>
        <time>2020-11-06T14:12:49.975Z</time>
      </trkpt>
      <trkpt lat="46.28327" lon="6.12586">
        <ele>438</ele>
        <time>2020-11-06T14:12:50.975Z</time>
      </trkpt>
      <trkpt lat="46.28324" lon="6.12584">
        <ele>438</ele>
        <time>2020-11-06T14:12:51.975Z</time>
      </trkpt>
      <trkpt lat="46.28322" lon="6.12582">
        <ele>439</ele>
        <time>2020-11-06T14:12:52.975Z</time>
      </trkpt>
      <trkpt lat="46.2832" lon="6.1258">
        <ele>439</ele>
        <time>2020-11-06T14:12:53.975Z</time>
      </trkpt>
      <trkpt lat="46.28319" lon="6.12578">
        <ele>439</ele>
        <time>2020-11-06T14:12:54.975Z</time>
      </trkpt>
      <trkpt lat="46.28316" lon="6.12576">
        <ele>440</ele>
        <time>2020-11-06T14:12:55.975Z</time>
      </trkpt>
      <trkpt lat="46.28314" lon="6.12574">
        <ele>440</ele>
        <time>2020-11-06T14:12:56.975Z</time>
      </trkpt>
      <trkpt lat="46.28312" lon="6.12573">
        <ele>440</ele>
        <time>2020-11-06T14:12:57.975Z</time>
      </trkpt>
      <trkpt lat="46.2831" lon="6.12572">
        <ele>440</ele>
        <time>2020-11-06T14:12:58.975Z</time>
      </trkpt>
      <trkpt lat="46.28308" lon="6.12571">
        <ele>440</ele>
        <time>2020-11-06T14:12:59.975Z</time>
      </trkpt>
      <trkpt lat="46.28307" lon="6.12571">
        <ele>440</ele>
        <time>2020-11-06T14:13:00.975Z</time>
      </trkpt>
      <trkpt lat="46.28305" lon="6.1257">
        <ele>440</ele>
        <time>2020-11-06T14:13:01.975Z</time>
      </trkpt>
      <trkpt lat="46.28304" lon="6.1257">
        <ele>439</ele>
        <time>2020-11-06T14:13:02.975Z</time>
      </trkpt>
      <trkpt lat="46.28302" lon="6.12569">
        <ele>439</ele>
        <time>2020-11-06T14:13:03.975Z</time>
      </trkpt>
      <trkpt lat="46.28301" lon="6.12569">
        <ele>439</ele>
        <time>2020-11-06T14:13:04.975Z</time>
      </trkpt>
      <trkpt lat="46.283" lon="6.12569">
        <ele>440</ele>
        <time>2020-11-06T14:13:05.975Z</time>
      </trkpt>
      <trkpt lat="46.28298" lon="6.12569">
        <ele>440</ele>
        <time>2020-11-06T14:13:06.976Z</time>
      </trkpt>
      <trkpt lat="46.28298" lon="6.12568">
        <ele>440</ele>
        <time>2020-11-06T14:13:07.976Z</time>
      </trkpt>
      <trkpt lat="46.28296" lon="6.12567">
        <ele>440</ele>
        <time>2020-11-06T14:13:08.975Z</time>
      </trkpt>
      <trkpt lat="46.28295" lon="6.12566">
        <ele>440</ele>
        <time>2020-11-06T14:13:09.975Z</time>
      </trkpt>
      <trkpt lat="46.28294" lon="6.12565">
        <ele>440</ele>
        <time>2020-11-06T14:13:10.975Z</time>
      </trkpt>
      <trkpt lat="46.28291" lon="6.12563">
        <ele>441</ele>
        <time>2020-11-06T14:13:11.976Z</time>
      </trkpt>
      <trkpt lat="46.28289" lon="6.1256">
        <ele>441</ele>
        <time>2020-11-06T14:13:12.976Z</time>
      </trkpt>
      <trkpt lat="46.28287" lon="6.12557">
        <ele>442</ele>
        <time>2020-11-06T14:13:13.975Z</time>
      </trkpt>
      <trkpt lat="46.28286" lon="6.12555">
        <ele>443</ele>
        <time>2020-11-06T14:13:14.976Z</time>
      </trkpt>
      <trkpt lat="46.28285" lon="6.12553">
        <ele>443</ele>
        <time>2020-11-06T14:13:15.976Z</time>
      </trkpt>
      <trkpt lat="46.28284" lon="6.12552">
        <ele>443</ele>
        <time>2020-11-06T14:13:16.976Z</time>
      </trkpt>
      <trkpt lat="46.28282" lon="6.12551">
        <ele>444</ele>
        <time>2020-11-06T14:13:17.976Z</time>
      </trkpt>
      <trkpt lat="46.28281" lon="6.1255">
        <ele>444</ele>
        <time>2020-11-06T14:13:18.975Z</time>
      </trkpt>
      <trkpt lat="46.28279" lon="6.12549">
        <ele>444</ele>
        <time>2020-11-06T14:13:19.976Z</time>
      </trkpt>
      <trkpt lat="46.28277" lon="6.12548">
        <ele>443</ele>
        <time>2020-11-06T14:13:20.976Z</time>
      </trkpt>
      <trkpt lat="46.28275" lon="6.12546">
        <ele>443</ele>
        <time>2020-11-06T14:13:21.976Z</time>
      </trkpt>
      <trkpt lat="46.28273" lon="6.12545">
        <ele>443</ele>
        <time>2020-11-06T14:13:22.976Z</time>
      </trkpt>
      <trkpt lat="46.28272" lon="6.12543">
        <ele>443</ele>
        <time>2020-11-06T14:13:23.976Z</time>
      </trkpt>
      <trkpt lat="46.28269" lon="6.12543">
        <ele>443</ele>
        <time>2020-11-06T14:13:24.976Z</time>
      </trkpt>
      <trkpt lat="46.28268" lon="6.12542">
        <ele>443</ele>
        <time>2020-11-06T14:13:25.976Z</time>
      </trkpt>
      <trkpt lat="46.28266" lon="6.12539">
        <ele>442</ele>
        <time>2020-11-06T14:13:26.975Z</time>
      </trkpt>
      <trkpt lat="46.28264" lon="6.12536">
        <ele>442</ele>
        <time>2020-11-06T14:13:27.976Z</time>
      </trkpt>
      <trkpt lat="46.28262" lon="6.12535">
        <ele>442</ele>
        <time>2020-11-06T14:13:28.976Z</time>
      </trkpt>
      <trkpt lat="46.28261" lon="6.12535">
        <ele>442</ele>
        <time>2020-11-06T14:13:29.976Z</time>
      </trkpt>
      <trkpt lat="46.2826" lon="6.12534">
        <ele>441</ele>
        <time>2020-11-06T14:13:30.976Z</time>
      </trkpt>
      <trkpt lat="46.28258" lon="6.12534">
        <ele>441</ele>
        <time>2020-11-06T14:13:31.975Z</time>
      </trkpt>
      <trkpt lat="46.28257" lon="6.12533">
        <ele>440</ele>
        <time>2020-11-06T14:13:32.975Z</time>
      </trkpt>
      <trkpt lat="46.28255" lon="6.12532">
        <ele>440</ele>
        <time>2020-11-06T14:13:33.975Z</time>
      </trkpt>
      <trkpt lat="46.28253" lon="6.12532">
        <ele>440</ele>
        <time>2020-11-06T14:13:34.976Z</time>
      </trkpt>
      <trkpt lat="46.28252" lon="6.12532">
        <ele>440</ele>
        <time>2020-11-06T14:13:35.976Z</time>
      </trkpt>
      <trkpt lat="46.28251" lon="6.12533">
        <ele>440</ele>
        <time>2020-11-06T14:13:36.976Z</time>
      </trkpt>
      <trkpt lat="46.2825" lon="6.12534">
        <ele>440</ele>
        <time>2020-11-06T14:13:37.976Z</time>
      </trkpt>
      <trkpt lat="46.28248" lon="6.12536">
        <ele>440</ele>
        <time>2020-11-06T14:13:38.975Z</time>
      </trkpt>
      <trkpt lat="46.28247" lon="6.12538">
        <ele>440</ele>
        <time>2020-11-06T14:13:39.976Z</time>
      </trkpt>
      <trkpt lat="46.28246" lon="6.12539">
        <ele>440</ele>
        <time>2020-11-06T14:13:40.975Z</time>
      </trkpt>
      <trkpt lat="46.28245" lon="6.1254">
        <ele>440</ele>
        <time>2020-11-06T14:13:41.976Z</time>
      </trkpt>
      <trkpt lat="46.28245" lon="6.12542">
        <ele>441</ele>
        <time>2020-11-06T14:13:42.975Z</time>
      </trkpt>
      <trkpt lat="46.28243" lon="6.12543">
        <ele>441</ele>
        <time>2020-11-06T14:13:43.976Z</time>
      </trkpt>
      <trkpt lat="46.28242" lon="6.12545">
        <ele>441</ele>
        <time>2020-11-06T14:13:44.976Z</time>
      </trkpt>
      <trkpt lat="46.28241" lon="6.12547">
        <ele>441</ele>
        <time>2020-11-06T14:13:45.976Z</time>
      </trkpt>
      <trkpt lat="46.2824" lon="6.1255">
        <ele>441</ele>
        <time>2020-11-06T14:13:46.976Z</time>
      </trkpt>
      <trkpt lat="46.2824" lon="6.12552">
        <ele>441</ele>
        <time>2020-11-06T14:13:47.975Z</time>
      </trkpt>
      <trkpt lat="46.28239" lon="6.12554">
        <ele>441</ele>
        <time>2020-11-06T14:13:48.976Z</time>
      </trkpt>
      <trkpt lat="46.28237" lon="6.12557">
        <ele>441</ele>
        <time>2020-11-06T14:13:49.976Z</time>
      </trkpt>
      <trkpt lat="46.28237" lon="6.12559">
        <ele>441</ele>
        <time>2020-11-06T14:13:50.976Z</time>
      </trkpt>
      <trkpt lat="46.28236" lon="6.12561">
        <ele>441</ele>
        <time>2020-11-06T14:13:51.976Z</time>
      </trkpt>
      <trkpt lat="46.28235" lon="6.12563">
        <ele>441</ele>
        <time>2020-11-06T14:13:52.976Z</time>
      </trkpt>
      <trkpt lat="46.28235" lon="6.12565">
        <ele>441</ele>
        <time>2020-11-06T14:13:53.975Z</time>
      </trkpt>
      <trkpt lat="46.28234" lon="6.12567">
        <ele>441</ele>
        <time>2020-11-06T14:13:54.976Z</time>
      </trkpt>
      <trkpt lat="46.28234" lon="6.12569">
        <ele>441</ele>
        <time>2020-11-06T14:13:55.976Z</time>
      </trkpt>
      <trkpt lat="46.28233" lon="6.12571">
        <ele>441</ele>
        <time>2020-11-06T14:13:56.976Z</time>
      </trkpt>
      <trkpt lat="46.28232" lon="6.12573">
        <ele>441</ele>
        <time>2020-11-06T14:13:57.976Z</time>
      </trkpt>
      <trkpt lat="46.28231" lon="6.12575">
        <ele>441</ele>
        <time>2020-11-06T14:13:58.976Z</time>
      </trkpt>
      <trkpt lat="46.28229" lon="6.12578">
        <ele>441</ele>
        <time>2020-11-06T14:13:59.975Z</time>
      </trkpt>
      <trkpt lat="46.28227" lon="6.1258">
        <ele>441</ele>
        <time>2020-11-06T14:14:00.975Z</time>
      </trkpt>
      <trkpt lat="46.28225" lon="6.12582">
        <ele>441</ele>
        <time>2020-11-06T14:14:01.975Z</time>
      </trkpt>
      <trkpt lat="46.28224" lon="6.12585">
        <ele>441</ele>
        <time>2020-11-06T14:14:02.976Z</time>
      </trkpt>
      <trkpt lat="46.28222" lon="6.12588">
        <ele>441</ele>
        <time>2020-11-06T14:14:03.976Z</time>
      </trkpt>
      <trkpt lat="46.28222" lon="6.1259">
        <ele>440</ele>
        <time>2020-11-06T14:14:04.976Z</time>
      </trkpt>
      <trkpt lat="46.28221" lon="6.12592">
        <ele>440</ele>
        <time>2020-11-06T14:14:05.976Z</time>
      </trkpt>
      <trkpt lat="46.2822" lon="6.12595">
        <ele>440</ele>
        <time>2020-11-06T14:14:06.976Z</time>
      </trkpt>
      <trkpt lat="46.28219" lon="6.12597">
        <ele>440</ele>
        <time>2020-11-06T14:14:07.976Z</time>
      </trkpt>
      <trkpt lat="46.28217" lon="6.126">
        <ele>440</ele>
        <time>2020-11-06T14:14:08.976Z</time>
      </trkpt>
      <trkpt lat="46.28215" lon="6.12603">
        <ele>439</ele>
        <time>2020-11-06T14:14:09.976Z</time>
      </trkpt>
      <trkpt lat="46.28214" lon="6.12604">
        <ele>439</ele>
        <time>2020-11-06T14:14:10.976Z</time>
      </trkpt>
      <trkpt lat="46.28215" lon="6.12606">
        <ele>439</ele>
        <time>2020-11-06T14:14:11.976Z</time>
      </trkpt>
      <trkpt lat="46.2822" lon="6.12608">
        <ele>439</ele>
        <time>2020-11-06T14:14:12.976Z</time>
      </trkpt>
      <trkpt lat="46.28223" lon="6.12612">
        <ele>439</ele>
        <time>2020-11-06T14:14:13.976Z</time>
      </trkpt>
      <trkpt lat="46.28222" lon="6.12614">
        <ele>440</ele>
        <time>2020-11-06T14:14:14.976Z</time>
      </trkpt>
      <trkpt lat="46.28221" lon="6.12616">
        <ele>440</ele>
        <time>2020-11-06T14:14:15.975Z</time>
      </trkpt>
      <trkpt lat="46.28219" lon="6.12618">
        <ele>440</ele>
        <time>2020-11-06T14:14:16.975Z</time>
      </trkpt>
      <trkpt lat="46.28218" lon="6.1262">
        <ele>440</ele>
        <time>2020-11-06T14:14:17.975Z</time>
      </trkpt>
      <trkpt lat="46.28216" lon="6.12621">
        <ele>440</ele>
        <time>2020-11-06T14:14:18.975Z</time>
      </trkpt>
      <trkpt lat="46.28215" lon="6.12623">
        <ele>440</ele>
        <time>2020-11-06T14:14:19.975Z</time>
      </trkpt>
      <trkpt lat="46.28215" lon="6.12626">
        <ele>440</ele>
        <time>2020-11-06T14:14:20.976Z</time>
      </trkpt>
      <trkpt lat="46.28214" lon="6.12628">
        <ele>440</ele>
        <time>2020-11-06T14:14:21.975Z</time>
      </trkpt>
      <trkpt lat="46.28212" lon="6.12629">
        <ele>439</ele>
        <time>2020-11-06T14:14:22.976Z</time>
      </trkpt>
      <trkpt lat="46.28211" lon="6.12631">
        <ele>439</ele>
        <time>2020-11-06T14:14:23.976Z</time>
      </trkpt>
      <trkpt lat="46.2821" lon="6.12633">
        <ele>439</ele>
        <time>2020-11-06T14:14:24.976Z</time>
      </trkpt>
      <trkpt lat="46.28209" lon="6.12636">
        <ele>439</ele>
        <time>2020-11-06T14:14:25.976Z</time>
      </trkpt>
      <trkpt lat="46.28207" lon="6.12638">
        <ele>438</ele>
        <time>2020-11-06T14:14:26.976Z</time>
      </trkpt>
      <trkpt lat="46.28206" lon="6.1264">
        <ele>438</ele>
        <time>2020-11-06T14:14:27.975Z</time>
      </trkpt>
      <trkpt lat="46.28204" lon="6.12642">
        <ele>437</ele>
        <time>2020-11-06T14:14:28.976Z</time>
      </trkpt>
      <trkpt lat="46.28203" lon="6.12645">
        <ele>437</ele>
        <time>2020-11-06T14:14:29.975Z</time>
      </trkpt>
      <trkpt lat="46.28201" lon="6.12647">
        <ele>438</ele>
        <time>2020-11-06T14:14:30.976Z</time>
      </trkpt>
      <trkpt lat="46.28198" lon="6.1265">
        <ele>438</ele>
        <time>2020-11-06T14:14:31.976Z</time>
      </trkpt>
      <trkpt lat="46.28193" lon="6.12652">
        <ele>438</ele>
        <time>2020-11-06T14:14:32.975Z</time>
      </trkpt>
      <trkpt lat="46.28189" lon="6.12655">
        <ele>438</ele>
        <time>2020-11-06T14:14:33.975Z</time>
      </trkpt>
      <trkpt lat="46.28185" lon="6.12658">
        <ele>439</ele>
        <time>2020-11-06T14:14:34.976Z</time>
      </trkpt>
      <trkpt lat="46.28181" lon="6.12661">
        <ele>439</ele>
        <time>2020-11-06T14:14:35.976Z</time>
      </trkpt>
      <trkpt lat="46.28178" lon="6.12664">
        <ele>440</ele>
        <time>2020-11-06T14:14:36.976Z</time>
      </trkpt>
      <trkpt lat="46.28175" lon="6.12667">
        <ele>441</ele>
        <time>2020-11-06T14:14:37.976Z</time>
      </trkpt>
      <trkpt lat="46.28172" lon="6.1267">
        <ele>442</ele>
        <time>2020-11-06T14:14:38.976Z</time>
      </trkpt>
      <trkpt lat="46.28169" lon="6.12673">
        <ele>442</ele>
        <time>2020-11-06T14:14:39.976Z</time>
      </trkpt>
      <trkpt lat="46.28167" lon="6.12676">
        <ele>443</ele>
        <time>2020-11-06T14:14:40.976Z</time>
      </trkpt>
      <trkpt lat="46.28165" lon="6.12678">
        <ele>443</ele>
        <time>2020-11-06T14:14:41.976Z</time>
      </trkpt>
      <trkpt lat="46.28162" lon="6.1268">
        <ele>444</ele>
        <time>2020-11-06T14:14:42.975Z</time>
      </trkpt>
      <trkpt lat="46.28161" lon="6.12683">
        <ele>444</ele>
        <time>2020-11-06T14:14:43.975Z</time>
      </trkpt>
      <trkpt lat="46.28159" lon="6.12685">
        <ele>444</ele>
        <time>2020-11-06T14:14:44.976Z</time>
      </trkpt>
      <trkpt lat="46.28158" lon="6.12688">
        <ele>444</ele>
        <time>2020-11-06T14:14:45.975Z</time>
      </trkpt>
      <trkpt lat="46.28156" lon="6.1269">
        <ele>444</ele>
        <time>2020-11-06T14:14:46.976Z</time>
      </trkpt>
      <trkpt lat="46.28154" lon="6.12693">
        <ele>444</ele>
        <time>2020-11-06T14:14:47.976Z</time>
      </trkpt>
      <trkpt lat="46.28153" lon="6.12696">
        <ele>444</ele>
        <time>2020-11-06T14:14:48.975Z</time>
      </trkpt>
      <trkpt lat="46.28151" lon="6.12699">
        <ele>444</ele>
        <time>2020-11-06T14:14:49.976Z</time>
      </trkpt>
      <trkpt lat="46.28148" lon="6.12702">
        <ele>444</ele>
        <time>2020-11-06T14:14:50.976Z</time>
      </trkpt>
      <trkpt lat="46.28146" lon="6.12705">
        <ele>444</ele>
        <time>2020-11-06T14:14:51.975Z</time>
      </trkpt>
      <trkpt lat="46.28144" lon="6.1271">
        <ele>444</ele>
        <time>2020-11-06T14:14:52.976Z</time>
      </trkpt>
      <trkpt lat="46.28143" lon="6.12715">
        <ele>444</ele>
        <time>2020-11-06T14:14:53.976Z</time>
      </trkpt>
      <trkpt lat="46.28141" lon="6.12721">
        <ele>444</ele>
        <time>2020-11-06T14:14:54.976Z</time>
      </trkpt>
      <trkpt lat="46.2814" lon="6.12726">
        <ele>444</ele>
        <time>2020-11-06T14:14:55.976Z</time>
      </trkpt>
      <trkpt lat="46.2814" lon="6.12731">
        <ele>444</ele>
        <time>2020-11-06T14:14:56.976Z</time>
      </trkpt>
      <trkpt lat="46.28141" lon="6.12735">
        <ele>444</ele>
        <time>2020-11-06T14:14:57.976Z</time>
      </trkpt>
      <trkpt lat="46.28143" lon="6.12738">
        <ele>444</ele>
        <time>2020-11-06T14:14:58.975Z</time>
      </trkpt>
      <trkpt lat="46.28145" lon="6.12741">
        <ele>445</ele>
        <time>2020-11-06T14:14:59.975Z</time>
      </trkpt>
      <trkpt lat="46.28148" lon="6.12744">
        <ele>445</ele>
        <time>2020-11-06T14:15:00.976Z</time>
      </trkpt>
      <trkpt lat="46.2815" lon="6.12747">
        <ele>445</ele>
        <time>2020-11-06T14:15:01.976Z</time>
      </trkpt>
      <trkpt lat="46.28153" lon="6.12749">
        <ele>446</ele>
        <time>2020-11-06T14:15:02.976Z</time>
      </trkpt>
      <trkpt lat="46.28155" lon="6.12751">
        <ele>447</ele>
        <time>2020-11-06T14:15:03.976Z</time>
      </trkpt>
      <trkpt lat="46.28157" lon="6.12754">
        <ele>447</ele>
        <time>2020-11-06T14:15:04.975Z</time>
      </trkpt>
      <trkpt lat="46.2816" lon="6.12756">
        <ele>448</ele>
        <time>2020-11-06T14:15:05.975Z</time>
      </trkpt>
      <trkpt lat="46.28162" lon="6.1276">
        <ele>448</ele>
        <time>2020-11-06T14:15:06.976Z</time>
      </trkpt>
      <trkpt lat="46.28164" lon="6.12763">
        <ele>448</ele>
        <time>2020-11-06T14:15:07.976Z</time>
      </trkpt>
      <trkpt lat="46.28166" lon="6.12765">
        <ele>449</ele>
        <time>2020-11-06T14:15:08.975Z</time>
      </trkpt>
      <trkpt lat="46.28168" lon="6.12766">
        <ele>449</ele>
        <time>2020-11-06T14:15:09.976Z</time>
      </trkpt>
      <trkpt lat="46.28171" lon="6.12769">
        <ele>449</ele>
        <time>2020-11-06T14:15:10.976Z</time>
      </trkpt>
      <trkpt lat="46.28173" lon="6.12771">
        <ele>450</ele>
        <time>2020-11-06T14:15:11.976Z</time>
      </trkpt>
      <trkpt lat="46.28175" lon="6.12773">
        <ele>450</ele>
        <time>2020-11-06T14:15:12.976Z</time>
      </trkpt>
      <trkpt lat="46.28178" lon="6.12775">
        <ele>451</ele>
        <time>2020-11-06T14:15:13.976Z</time>
      </trkpt>
      <trkpt lat="46.28179" lon="6.12778">
        <ele>451</ele>
        <time>2020-11-06T14:15:14.975Z</time>
      </trkpt>
      <trkpt lat="46.28181" lon="6.12781">
        <ele>452</ele>
        <time>2020-11-06T14:15:15.975Z</time>
      </trkpt>
      <trkpt lat="46.28183" lon="6.12784">
        <ele>452</ele>
        <time>2020-11-06T14:15:16.975Z</time>
      </trkpt>
      <trkpt lat="46.28185" lon="6.12785">
        <ele>452</ele>
        <time>2020-11-06T14:15:17.976Z</time>
      </trkpt>
      <trkpt lat="46.28188" lon="6.12787">
        <ele>452</ele>
        <time>2020-11-06T14:15:18.976Z</time>
      </trkpt>
      <trkpt lat="46.2819" lon="6.1279">
        <ele>452</ele>
        <time>2020-11-06T14:15:19.975Z</time>
      </trkpt>
      <trkpt lat="46.28192" lon="6.12793">
        <ele>452</ele>
        <time>2020-11-06T14:15:20.976Z</time>
      </trkpt>
      <trkpt lat="46.28194" lon="6.12795">
        <ele>452</ele>
        <time>2020-11-06T14:15:21.976Z</time>
      </trkpt>
      <trkpt lat="46.28196" lon="6.12798">
        <ele>452</ele>
        <time>2020-11-06T14:15:22.976Z</time>
      </trkpt>
      <trkpt lat="46.28198" lon="6.128">
        <ele>451</ele>
        <time>2020-11-06T14:15:23.975Z</time>
      </trkpt>
      <trkpt lat="46.282" lon="6.12802">
        <ele>451</ele>
        <time>2020-11-06T14:15:24.976Z</time>
      </trkpt>
      <trkpt lat="46.28202" lon="6.12804">
        <ele>451</ele>
        <time>2020-11-06T14:15:25.976Z</time>
      </trkpt>
      <trkpt lat="46.28204" lon="6.12806">
        <ele>451</ele>
        <time>2020-11-06T14:15:26.976Z</time>
      </trkpt>
      <trkpt lat="46.28207" lon="6.12808">
        <ele>451</ele>
        <time>2020-11-06T14:15:27.976Z</time>
      </trkpt>
      <trkpt lat="46.28209" lon="6.1281">
        <ele>451</ele>
        <time>2020-11-06T14:15:28.976Z</time>
      </trkpt>
      <trkpt lat="46.28212" lon="6.12812">
        <ele>452</ele>
        <time>2020-11-06T14:15:29.975Z</time>
      </trkpt>
      <trkpt lat="46.28213" lon="6.12814">
        <ele>452</ele>
        <time>2020-11-06T14:15:30.976Z</time>
      </trkpt>
      <trkpt lat="46.28215" lon="6.12817">
        <ele>452</ele>
        <time>2020-11-06T14:15:31.975Z</time>
      </trkpt>
      <trkpt lat="46.28217" lon="6.12818">
        <ele>452</ele>
        <time>2020-11-06T14:15:32.975Z</time>
      </trkpt>
      <trkpt lat="46.28219" lon="6.12819">
        <ele>452</ele>
        <time>2020-11-06T14:15:33.975Z</time>
      </trkpt>
      <trkpt lat="46.2822" lon="6.12821">
        <ele>452</ele>
        <time>2020-11-06T14:15:34.976Z</time>
      </trkpt>
      <trkpt lat="46.28222" lon="6.12822">
        <ele>452</ele>
        <time>2020-11-06T14:15:35.975Z</time>
      </trkpt>
      <trkpt lat="46.28224" lon="6.12823">
        <ele>452</ele>
        <time>2020-11-06T14:15:36.975Z</time>
      </trkpt>
      <trkpt lat="46.28226" lon="6.12824">
        <ele>452</ele>
        <time>2020-11-06T14:15:37.975Z</time>
      </trkpt>
      <trkpt lat="46.28228" lon="6.12826">
        <ele>452</ele>
        <time>2020-11-06T14:15:38.976Z</time>
      </trkpt>
      <trkpt lat="46.28231" lon="6.12827">
        <ele>452</ele>
        <time>2020-11-06T14:15:39.975Z</time>
      </trkpt>
      <trkpt lat="46.28233" lon="6.12829">
        <ele>452</ele>
        <time>2020-11-06T14:15:40.975Z</time>
      </trkpt>
      <trkpt lat="46.28236" lon="6.1283">
        <ele>452</ele>
        <time>2020-11-06T14:15:41.975Z</time>
      </trkpt>
      <trkpt lat="46.28239" lon="6.12831">
        <ele>452</ele>
        <time>2020-11-06T14:15:42.976Z</time>
      </trkpt>
      <trkpt lat="46.28241" lon="6.12833">
        <ele>452</ele>
        <time>2020-11-06T14:15:43.975Z</time>
      </trkpt>
      <trkpt lat="46.28244" lon="6.12837">
        <ele>452</ele>
        <time>2020-11-06T14:15:44.976Z</time>
      </trkpt>
      <trkpt lat="46.28247" lon="6.1284">
        <ele>452</ele>
        <time>2020-11-06T14:15:45.975Z</time>
      </trkpt>
      <trkpt lat="46.28249" lon="6.12843">
        <ele>452</ele>
        <time>2020-11-06T14:15:46.975Z</time>
      </trkpt>
      <trkpt lat="46.28251" lon="6.12844">
        <ele>452</ele>
        <time>2020-11-06T14:15:47.975Z</time>
      </trkpt>
      <trkpt lat="46.28253" lon="6.12846">
        <ele>452</ele>
        <time>2020-11-06T14:15:48.976Z</time>
      </trkpt>
      <trkpt lat="46.28256" lon="6.12848">
        <ele>452</ele>
        <time>2020-11-06T14:15:49.975Z</time>
      </trkpt>
      <trkpt lat="46.28258" lon="6.1285">
        <ele>451</ele>
        <time>2020-11-06T14:15:50.976Z</time>
      </trkpt>
      <trkpt lat="46.28261" lon="6.12853">
        <ele>451</ele>
        <time>2020-11-06T14:15:51.976Z</time>
      </trkpt>
      <trkpt lat="46.28263" lon="6.12855">
        <ele>450</ele>
        <time>2020-11-06T14:15:52.976Z</time>
      </trkpt>
      <trkpt lat="46.28265" lon="6.12857">
        <ele>450</ele>
        <time>2020-11-06T14:15:53.975Z</time>
      </trkpt>
      <trkpt lat="46.28268" lon="6.1286">
        <ele>449</ele>
        <time>2020-11-06T14:15:54.976Z</time>
      </trkpt>
      <trkpt lat="46.2827" lon="6.12862">
        <ele>449</ele>
        <time>2020-11-06T14:15:55.976Z</time>
      </trkpt>
      <trkpt lat="46.28273" lon="6.12865">
        <ele>449</ele>
        <time>2020-11-06T14:15:56.976Z</time>
      </trkpt>
      <trkpt lat="46.28275" lon="6.12867">
        <ele>449</ele>
        <time>2020-11-06T14:15:57.976Z</time>
      </trkpt>
      <trkpt lat="46.28278" lon="6.1287">
        <ele>449</ele>
        <time>2020-11-06T14:15:58.976Z</time>
      </trkpt>
      <trkpt lat="46.28281" lon="6.12873">
        <ele>448</ele>
        <time>2020-11-06T14:15:59.976Z</time>
      </trkpt>
      <trkpt lat="46.28282" lon="6.12875">
        <ele>448</ele>
        <time>2020-11-06T14:16:00.976Z</time>
      </trkpt>
      <trkpt lat="46.28284" lon="6.12878">
        <ele>448</ele>
        <time>2020-11-06T14:16:01.975Z</time>
      </trkpt>
      <trkpt lat="46.28286" lon="6.12882">
        <ele>447</ele>
        <time>2020-11-06T14:16:02.975Z</time>
      </trkpt>
      <trkpt lat="46.28287" lon="6.12887">
        <ele>447</ele>
        <time>2020-11-06T14:16:03.976Z</time>
      </trkpt>
      <trkpt lat="46.28288" lon="6.12892">
        <ele>446</ele>
        <time>2020-11-06T14:16:04.976Z</time>
      </trkpt>
      <trkpt lat="46.28289" lon="6.12897">
        <ele>446</ele>
        <time>2020-11-06T14:16:05.975Z</time>
      </trkpt>
      <trkpt lat="46.2829" lon="6.12902">
        <ele>446</ele>
        <time>2020-11-06T14:16:06.976Z</time>
      </trkpt>
      <trkpt lat="46.28291" lon="6.12905">
        <ele>445</ele>
        <time>2020-11-06T14:16:07.975Z</time>
      </trkpt>
      <trkpt lat="46.28292" lon="6.12908">
        <ele>445</ele>
        <time>2020-11-06T14:16:08.976Z</time>
      </trkpt>
      <trkpt lat="46.28292" lon="6.12911">
        <ele>445</ele>
        <time>2020-11-06T14:16:09.976Z</time>
      </trkpt>
      <trkpt lat="46.28294" lon="6.12913">
        <ele>445</ele>
        <time>2020-11-06T14:16:10.975Z</time>
      </trkpt>
      <trkpt lat="46.28295" lon="6.12915">
        <ele>445</ele>
        <time>2020-11-06T14:16:11.975Z</time>
      </trkpt>
      <trkpt lat="46.28298" lon="6.12918">
        <ele>445</ele>
        <time>2020-11-06T14:16:12.975Z</time>
      </trkpt>
      <trkpt lat="46.28301" lon="6.1292">
        <ele>444</ele>
        <time>2020-11-06T14:16:13.976Z</time>
      </trkpt>
      <trkpt lat="46.28303" lon="6.12923">
        <ele>444</ele>
        <time>2020-11-06T14:16:14.976Z</time>
      </trkpt>
      <trkpt lat="46.28304" lon="6.12926">
        <ele>444</ele>
        <time>2020-11-06T14:16:15.975Z</time>
      </trkpt>
      <trkpt lat="46.28305" lon="6.12928">
        <ele>444</ele>
        <time>2020-11-06T14:16:16.976Z</time>
      </trkpt>
      <trkpt lat="46.28306" lon="6.12931">
        <ele>444</ele>
        <time>2020-11-06T14:16:17.975Z</time>
      </trkpt>
      <trkpt lat="46.28309" lon="6.12933">
        <ele>443</ele>
        <time>2020-11-06T14:16:18.976Z</time>
      </trkpt>
      <trkpt lat="46.28312" lon="6.12934">
        <ele>443</ele>
        <time>2020-11-06T14:16:19.976Z</time>
      </trkpt>
      <trkpt lat="46.28315" lon="6.12935">
        <ele>443</ele>
        <time>2020-11-06T14:16:20.976Z</time>
      </trkpt>
      <trkpt lat="46.28318" lon="6.12936">
        <ele>442</ele>
        <time>2020-11-06T14:16:21.975Z</time>
      </trkpt>
      <trkpt lat="46.28322" lon="6.12937">
        <ele>442</ele>
        <time>2020-11-06T14:16:22.976Z</time>
      </trkpt>
      <trkpt lat="46.28325" lon="6.12938">
        <ele>441</ele>
        <time>2020-11-06T14:16:23.975Z</time>
      </trkpt>
      <trkpt lat="46.28328" lon="6.12938">
        <ele>440</ele>
        <time>2020-11-06T14:16:24.975Z</time>
      </trkpt>
      <trkpt lat="46.28332" lon="6.12939">
        <ele>440</ele>
        <time>2020-11-06T14:16:25.976Z</time>
      </trkpt>
      <trkpt lat="46.28335" lon="6.12941">
        <ele>439</ele>
        <time>2020-11-06T14:16:26.976Z</time>
      </trkpt>
      <trkpt lat="46.28339" lon="6.12942">
        <ele>439</ele>
        <time>2020-11-06T14:16:27.976Z</time>
      </trkpt>
      <trkpt lat="46.28342" lon="6.12943">
        <ele>438</ele>
        <time>2020-11-06T14:16:28.976Z</time>
      </trkpt>
      <trkpt lat="46.28344" lon="6.12944">
        <ele>438</ele>
        <time>2020-11-06T14:16:29.976Z</time>
      </trkpt>
      <trkpt lat="46.28347" lon="6.12945">
        <ele>438</ele>
        <time>2020-11-06T14:16:30.976Z</time>
      </trkpt>
      <trkpt lat="46.2835" lon="6.12946">
        <ele>437</ele>
        <time>2020-11-06T14:16:31.976Z</time>
      </trkpt>
      <trkpt lat="46.28354" lon="6.12947">
        <ele>437</ele>
        <time>2020-11-06T14:16:32.976Z</time>
      </trkpt>
      <trkpt lat="46.28357" lon="6.12948">
        <ele>436</ele>
        <time>2020-11-06T14:16:33.976Z</time>
      </trkpt>
      <trkpt lat="46.2836" lon="6.1295">
        <ele>436</ele>
        <time>2020-11-06T14:16:34.976Z</time>
      </trkpt>
      <trkpt lat="46.28363" lon="6.12952">
        <ele>435</ele>
        <time>2020-11-06T14:16:35.975Z</time>
      </trkpt>
      <trkpt lat="46.28367" lon="6.12953">
        <ele>435</ele>
        <time>2020-11-06T14:16:36.975Z</time>
      </trkpt>
      <trkpt lat="46.2837" lon="6.12955">
        <ele>434</ele>
        <time>2020-11-06T14:16:37.976Z</time>
      </trkpt>
      <trkpt lat="46.28372" lon="6.12956">
        <ele>434</ele>
        <time>2020-11-06T14:16:38.976Z</time>
      </trkpt>
      <trkpt lat="46.28375" lon="6.12958">
        <ele>433</ele>
        <time>2020-11-06T14:16:39.975Z</time>
      </trkpt>
      <trkpt lat="46.28378" lon="6.12959">
        <ele>433</ele>
        <time>2020-11-06T14:16:40.976Z</time>
      </trkpt>
      <trkpt lat="46.28381" lon="6.1296">
        <ele>433</ele>
        <time>2020-11-06T14:16:41.975Z</time>
      </trkpt>
      <trkpt lat="46.28383" lon="6.12961">
        <ele>432</ele>
        <time>2020-11-06T14:16:42.976Z</time>
      </trkpt>
      <trkpt lat="46.28386" lon="6.12962">
        <ele>431</ele>
        <time>2020-11-06T14:16:43.975Z</time>
      </trkpt>
      <trkpt lat="46.28389" lon="6.12963">
        <ele>431</ele>
        <time>2020-11-06T14:16:44.975Z</time>
      </trkpt>
      <trkpt lat="46.28393" lon="6.12964">
        <ele>430</ele>
        <time>2020-11-06T14:16:45.975Z</time>
      </trkpt>
      <trkpt lat="46.28396" lon="6.12965">
        <ele>430</ele>
        <time>2020-11-06T14:16:46.975Z</time>
      </trkpt>
      <trkpt lat="46.284" lon="6.12966">
        <ele>429</ele>
        <time>2020-11-06T14:16:47.975Z</time>
      </trkpt>
      <trkpt lat="46.28402" lon="6.12967">
        <ele>429</ele>
        <time>2020-11-06T14:16:48.976Z</time>
      </trkpt>
      <trkpt lat="46.28405" lon="6.12968">
        <ele>429</ele>
        <time>2020-11-06T14:16:49.975Z</time>
      </trkpt>
      <trkpt lat="46.28408" lon="6.12969">
        <ele>428</ele>
        <time>2020-11-06T14:16:50.976Z</time>
      </trkpt>
      <trkpt lat="46.28412" lon="6.12971">
        <ele>428</ele>
        <time>2020-11-06T14:16:51.975Z</time>
      </trkpt>
      <trkpt lat="46.28415" lon="6.12973">
        <ele>427</ele>
        <time>2020-11-06T14:16:52.976Z</time>
      </trkpt>
      <trkpt lat="46.28419" lon="6.12974">
        <ele>427</ele>
        <time>2020-11-06T14:16:53.976Z</time>
      </trkpt>
      <trkpt lat="46.28422" lon="6.12974">
        <ele>426</ele>
        <time>2020-11-06T14:16:54.976Z</time>
      </trkpt>
      <trkpt lat="46.28425" lon="6.12974">
        <ele>426</ele>
        <time>2020-11-06T14:16:55.976Z</time>
      </trkpt>
      <trkpt lat="46.28428" lon="6.12975">
        <ele>425</ele>
        <time>2020-11-06T14:16:56.976Z</time>
      </trkpt>
      <trkpt lat="46.28431" lon="6.12975">
        <ele>424</ele>
        <time>2020-11-06T14:16:57.976Z</time>
      </trkpt>
      <trkpt lat="46.28434" lon="6.12976">
        <ele>423</ele>
        <time>2020-11-06T14:16:58.975Z</time>
      </trkpt>
      <trkpt lat="46.28437" lon="6.12977">
        <ele>423</ele>
        <time>2020-11-06T14:16:59.976Z</time>
      </trkpt>
      <trkpt lat="46.28441" lon="6.12978">
        <ele>423</ele>
        <time>2020-11-06T14:17:00.976Z</time>
      </trkpt>
      <trkpt lat="46.28444" lon="6.1298">
        <ele>423</ele>
        <time>2020-11-06T14:17:01.976Z</time>
      </trkpt>
      <trkpt lat="46.28447" lon="6.12982">
        <ele>423</ele>
        <time>2020-11-06T14:17:02.975Z</time>
      </trkpt>
      <trkpt lat="46.2845" lon="6.12984">
        <ele>423</ele>
        <time>2020-11-06T14:17:03.975Z</time>
      </trkpt>
      <trkpt lat="46.28451" lon="6.12986">
        <ele>423</ele>
        <time>2020-11-06T14:17:04.975Z</time>
      </trkpt>
      <trkpt lat="46.28453" lon="6.12989">
        <ele>423</ele>
        <time>2020-11-06T14:17:05.976Z</time>
      </trkpt>
      <trkpt lat="46.28453" lon="6.12993">
        <ele>423</ele>
        <time>2020-11-06T14:17:06.975Z</time>
      </trkpt>
      <trkpt lat="46.28454" lon="6.12996">
        <ele>422</ele>
        <time>2020-11-06T14:17:07.975Z</time>
      </trkpt>
      <trkpt lat="46.28453" lon="6.13">
        <ele>422</ele>
        <time>2020-11-06T14:17:08.976Z</time>
      </trkpt>
      <trkpt lat="46.28453" lon="6.13003">
        <ele>422</ele>
        <time>2020-11-06T14:17:09.976Z</time>
      </trkpt>
      <trkpt lat="46.28452" lon="6.13007">
        <ele>421</ele>
        <time>2020-11-06T14:17:10.975Z</time>
      </trkpt>
      <trkpt lat="46.2845" lon="6.1301">
        <ele>421</ele>
        <time>2020-11-06T14:17:11.975Z</time>
      </trkpt>
      <trkpt lat="46.28449" lon="6.13013">
        <ele>420</ele>
        <time>2020-11-06T14:17:12.976Z</time>
      </trkpt>
      <trkpt lat="46.28447" lon="6.13017">
        <ele>420</ele>
        <time>2020-11-06T14:17:13.975Z</time>
      </trkpt>
      <trkpt lat="46.28445" lon="6.13021">
        <ele>419</ele>
        <time>2020-11-06T14:17:14.975Z</time>
      </trkpt>
      <trkpt lat="46.28443" lon="6.13024">
        <ele>419</ele>
        <time>2020-11-06T14:17:15.976Z</time>
      </trkpt>
      <trkpt lat="46.28441" lon="6.13028">
        <ele>419</ele>
        <time>2020-11-06T14:17:16.976Z</time>
      </trkpt>
      <trkpt lat="46.28439" lon="6.13032">
        <ele>418</ele>
        <time>2020-11-06T14:17:17.976Z</time>
      </trkpt>
      <trkpt lat="46.28439" lon="6.13035">
        <ele>418</ele>
        <time>2020-11-06T14:17:18.976Z</time>
      </trkpt>
      <trkpt lat="46.28438" lon="6.13038">
        <ele>417</ele>
        <time>2020-11-06T14:17:19.975Z</time>
      </trkpt>
      <trkpt lat="46.28437" lon="6.13041">
        <ele>417</ele>
        <time>2020-11-06T14:17:20.975Z</time>
      </trkpt>
      <trkpt lat="46.28436" lon="6.13045">
        <ele>416</ele>
        <time>2020-11-06T14:17:21.976Z</time>
      </trkpt>
      <trkpt lat="46.28437" lon="6.13048">
        <ele>416</ele>
        <time>2020-11-06T14:17:22.976Z</time>
      </trkpt>
      <trkpt lat="46.28436" lon="6.13052">
        <ele>415</ele>
        <time>2020-11-06T14:17:23.975Z</time>
      </trkpt>
      <trkpt lat="46.28435" lon="6.13056">
        <ele>415</ele>
        <time>2020-11-06T14:17:24.976Z</time>
      </trkpt>
      <trkpt lat="46.28435" lon="6.1306">
        <ele>414</ele>
        <time>2020-11-06T14:17:25.976Z</time>
      </trkpt>
      <trkpt lat="46.28434" lon="6.13063">
        <ele>414</ele>
        <time>2020-11-06T14:17:26.976Z</time>
      </trkpt>
      <trkpt lat="46.28433" lon="6.13067">
        <ele>414</ele>
        <time>2020-11-06T14:17:27.975Z</time>
      </trkpt>
      <trkpt lat="46.28433" lon="6.13071">
        <ele>414</ele>
        <time>2020-11-06T14:17:28.976Z</time>
      </trkpt>
      <trkpt lat="46.28432" lon="6.13075">
        <ele>414</ele>
        <time>2020-11-06T14:17:29.976Z</time>
      </trkpt>
      <trkpt lat="46.28433" lon="6.13079">
        <ele>414</ele>
        <time>2020-11-06T14:17:30.976Z</time>
      </trkpt>
      <trkpt lat="46.28434" lon="6.13082">
        <ele>414</ele>
        <time>2020-11-06T14:17:31.976Z</time>
      </trkpt>
      <trkpt lat="46.28436" lon="6.13084">
        <ele>415</ele>
        <time>2020-11-06T14:17:32.976Z</time>
      </trkpt>
      <trkpt lat="46.28438" lon="6.13087">
        <ele>415</ele>
        <time>2020-11-06T14:17:33.976Z</time>
      </trkpt>
      <trkpt lat="46.2844" lon="6.1309">
        <ele>415</ele>
        <time>2020-11-06T14:17:34.976Z</time>
      </trkpt>
      <trkpt lat="46.28441" lon="6.13093">
        <ele>416</ele>
        <time>2020-11-06T14:17:35.975Z</time>
      </trkpt>
      <trkpt lat="46.28443" lon="6.13094">
        <ele>417</ele>
        <time>2020-11-06T14:17:36.976Z</time>
      </trkpt>
      <trkpt lat="46.28445" lon="6.13096">
        <ele>418</ele>
        <time>2020-11-06T14:17:37.976Z</time>
      </trkpt>
      <trkpt lat="46.28448" lon="6.13097">
        <ele>418</ele>
        <time>2020-11-06T14:17:38.975Z</time>
      </trkpt>
      <trkpt lat="46.28451" lon="6.13098">
        <ele>419</ele>
        <time>2020-11-06T14:17:39.975Z</time>
      </trkpt>
      <trkpt lat="46.28454" lon="6.13099">
        <ele>419</ele>
        <time>2020-11-06T14:17:40.976Z</time>
      </trkpt>
      <trkpt lat="46.28456" lon="6.131">
        <ele>419</ele>
        <time>2020-11-06T14:17:41.976Z</time>
      </trkpt>
      <trkpt lat="46.28458" lon="6.13102">
        <ele>419</ele>
        <time>2020-11-06T14:17:42.976Z</time>
      </trkpt>
      <trkpt lat="46.2846" lon="6.13104">
        <ele>419</ele>
        <time>2020-11-06T14:17:43.976Z</time>
      </trkpt>
      <trkpt lat="46.28462" lon="6.13106">
        <ele>419</ele>
        <time>2020-11-06T14:17:44.975Z</time>
      </trkpt>
      <trkpt lat="46.28464" lon="6.13107">
        <ele>419</ele>
        <time>2020-11-06T14:17:45.975Z</time>
      </trkpt>
      <trkpt lat="46.28466" lon="6.1311">
        <ele>420</ele>
        <time>2020-11-06T14:17:46.976Z</time>
      </trkpt>
      <trkpt lat="46.28468" lon="6.13112">
        <ele>420</ele>
        <time>2020-11-06T14:17:47.975Z</time>
      </trkpt>
      <trkpt lat="46.2847" lon="6.13112">
        <ele>420</ele>
        <time>2020-11-06T14:17:48.976Z</time>
      </trkpt>
      <trkpt lat="46.28472" lon="6.13112">
        <ele>421</ele>
        <time>2020-11-06T14:17:49.976Z</time>
      </trkpt>
      <trkpt lat="46.28474" lon="6.13111">
        <ele>421</ele>
        <time>2020-11-06T14:17:50.975Z</time>
      </trkpt>
      <trkpt lat="46.28475" lon="6.13109">
        <ele>421</ele>
        <time>2020-11-06T14:17:51.976Z</time>
      </trkpt>
      <trkpt lat="46.28476" lon="6.13106">
        <ele>421</ele>
        <time>2020-11-06T14:17:52.976Z</time>
      </trkpt>
      <trkpt lat="46.28477" lon="6.13105">
        <ele>421</ele>
        <time>2020-11-06T14:17:53.975Z</time>
      </trkpt>
      <trkpt lat="46.28479" lon="6.13103">
        <ele>420</ele>
        <time>2020-11-06T14:17:54.976Z</time>
      </trkpt>
      <trkpt lat="46.2848" lon="6.131">
        <ele>420</ele>
        <time>2020-11-06T14:17:55.975Z</time>
      </trkpt>
      <trkpt lat="46.28481" lon="6.13097">
        <ele>420</ele>
        <time>2020-11-06T14:17:56.975Z</time>
      </trkpt>
      <trkpt lat="46.28482" lon="6.13093">
        <ele>420</ele>
        <time>2020-11-06T14:17:57.976Z</time>
      </trkpt>
      <trkpt lat="46.28484" lon="6.1309">
        <ele>420</ele>
        <time>2020-11-06T14:17:58.976Z</time>
      </trkpt>
      <trkpt lat="46.28485" lon="6.13088">
        <ele>419</ele>
        <time>2020-11-06T14:17:59.976Z</time>
      </trkpt>
      <trkpt lat="46.28486" lon="6.13086">
        <ele>419</ele>
        <time>2020-11-06T14:18:00.976Z</time>
      </trkpt>
      <trkpt lat="46.28487" lon="6.13084">
        <ele>419</ele>
        <time>2020-11-06T14:18:01.976Z</time>
      </trkpt>
      <trkpt lat="46.28489" lon="6.13083">
        <ele>419</ele>
        <time>2020-11-06T14:18:02.976Z</time>
      </trkpt>
      <trkpt lat="46.2849" lon="6.13081">
        <ele>419</ele>
        <time>2020-11-06T14:18:03.975Z</time>
      </trkpt>
      <trkpt lat="46.28492" lon="6.1308">
        <ele>419</ele>
        <time>2020-11-06T14:18:04.976Z</time>
      </trkpt>
      <trkpt lat="46.28494" lon="6.13079">
        <ele>418</ele>
        <time>2020-11-06T14:18:05.976Z</time>
      </trkpt>
      <trkpt lat="46.28497" lon="6.13078">
        <ele>418</ele>
        <time>2020-11-06T14:18:06.975Z</time>
      </trkpt>
      <trkpt lat="46.28499" lon="6.13076">
        <ele>418</ele>
        <time>2020-11-06T14:18:07.976Z</time>
      </trkpt>
      <trkpt lat="46.285" lon="6.13076">
        <ele>418</ele>
        <time>2020-11-06T14:18:08.975Z</time>
      </trkpt>
      <trkpt lat="46.28501" lon="6.13076">
        <ele>418</ele>
        <time>2020-11-06T14:18:09.976Z</time>
      </trkpt>
      <trkpt lat="46.28503" lon="6.13075">
        <ele>419</ele>
        <time>2020-11-06T14:18:10.976Z</time>
      </trkpt>
      <trkpt lat="46.28506" lon="6.13073">
        <ele>419</ele>
        <time>2020-11-06T14:18:11.975Z</time>
      </trkpt>
      <trkpt lat="46.28508" lon="6.13072">
        <ele>419</ele>
        <time>2020-11-06T14:18:12.976Z</time>
      </trkpt>
      <trkpt lat="46.28511" lon="6.1307">
        <ele>419</ele>
        <time>2020-11-06T14:18:13.975Z</time>
      </trkpt>
      <trkpt lat="46.28513" lon="6.13069">
        <ele>419</ele>
        <time>2020-11-06T14:18:14.976Z</time>
      </trkpt>
      <trkpt lat="46.28514" lon="6.13067">
        <ele>419</ele>
        <time>2020-11-06T14:18:15.976Z</time>
      </trkpt>
      <trkpt lat="46.28515" lon="6.13066">
        <ele>419</ele>
        <time>2020-11-06T14:18:16.976Z</time>
      </trkpt>
      <trkpt lat="46.28516" lon="6.13065">
        <ele>419</ele>
        <time>2020-11-06T14:18:17.975Z</time>
      </trkpt>
      <trkpt lat="46.28517" lon="6.13064">
        <ele>419</ele>
        <time>2020-11-06T14:18:18.975Z</time>
      </trkpt>
      <trkpt lat="46.28518" lon="6.13063">
        <ele>419</ele>
        <time>2020-11-06T14:18:19.975Z</time>
      </trkpt>
      <trkpt lat="46.28519" lon="6.13062">
        <ele>419</ele>
        <time>2020-11-06T14:18:20.975Z</time>
      </trkpt>
      <trkpt lat="46.28521" lon="6.13061">
        <ele>419</ele>
        <time>2020-11-06T14:18:21.976Z</time>
      </trkpt>
      <trkpt lat="46.28522" lon="6.13059">
        <ele>419</ele>
        <time>2020-11-06T14:18:22.976Z</time>
      </trkpt>
      <trkpt lat="46.28524" lon="6.13058">
        <ele>419</ele>
        <time>2020-11-06T14:18:23.976Z</time>
      </trkpt>
      <trkpt lat="46.28526" lon="6.13057">
        <ele>419</ele>
        <time>2020-11-06T14:18:24.975Z</time>
      </trkpt>
      <trkpt lat="46.28527" lon="6.13055">
        <ele>420</ele>
        <time>2020-11-06T14:18:25.975Z</time>
      </trkpt>
      <trkpt lat="46.28528" lon="6.13055">
        <ele>420</ele>
        <time>2020-11-06T14:18:26.975Z</time>
      </trkpt>
      <trkpt lat="46.2853" lon="6.13055">
        <ele>421</ele>
        <time>2020-11-06T14:18:27.975Z</time>
      </trkpt>
      <trkpt lat="46.28532" lon="6.13056">
        <ele>421</ele>
        <time>2020-11-06T14:18:28.975Z</time>
      </trkpt>
      <trkpt lat="46.28534" lon="6.13056">
        <ele>421</ele>
        <time>2020-11-06T14:18:29.975Z</time>
      </trkpt>
      <trkpt lat="46.28536" lon="6.13057">
        <ele>421</ele>
        <time>2020-11-06T14:18:30.975Z</time>
      </trkpt>
      <trkpt lat="46.28538" lon="6.13057">
        <ele>421</ele>
        <time>2020-11-06T14:18:31.976Z</time>
      </trkpt>
      <trkpt lat="46.2854" lon="6.13058">
        <ele>421</ele>
        <time>2020-11-06T14:18:32.975Z</time>
      </trkpt>
      <trkpt lat="46.28543" lon="6.13058">
        <ele>421</ele>
        <time>2020-11-06T14:18:33.975Z</time>
      </trkpt>
      <trkpt lat="46.28545" lon="6.13058">
        <ele>421</ele>
        <time>2020-11-06T14:18:34.975Z</time>
      </trkpt>
      <trkpt lat="46.28549" lon="6.13058">
        <ele>421</ele>
        <time>2020-11-06T14:18:35.976Z</time>
      </trkpt>
      <trkpt lat="46.28552" lon="6.13057">
        <ele>421</ele>
        <time>2020-11-06T14:18:36.975Z</time>
      </trkpt>
      <trkpt lat="46.28554" lon="6.13057">
        <ele>421</ele>
        <time>2020-11-06T14:18:37.975Z</time>
      </trkpt>
      <trkpt lat="46.28557" lon="6.13057">
        <ele>420</ele>
        <time>2020-11-06T14:18:38.976Z</time>
      </trkpt>
      <trkpt lat="46.28559" lon="6.13058">
        <ele>420</ele>
        <time>2020-11-06T14:18:39.976Z</time>
      </trkpt>
      <trkpt lat="46.28562" lon="6.13059">
        <ele>420</ele>
        <time>2020-11-06T14:18:40.975Z</time>
      </trkpt>
      <trkpt lat="46.28564" lon="6.13059">
        <ele>420</ele>
        <time>2020-11-06T14:18:41.975Z</time>
      </trkpt>
      <trkpt lat="46.28566" lon="6.1306">
        <ele>419</ele>
        <time>2020-11-06T14:18:42.976Z</time>
      </trkpt>
      <trkpt lat="46.28569" lon="6.13061">
        <ele>419</ele>
        <time>2020-11-06T14:18:43.976Z</time>
      </trkpt>
      <trkpt lat="46.28571" lon="6.13061">
        <ele>419</ele>
        <time>2020-11-06T14:18:44.976Z</time>
      </trkpt>
      <trkpt lat="46.28574" lon="6.13062">
        <ele>420</ele>
        <time>2020-11-06T14:18:45.976Z</time>
      </trkpt>
      <trkpt lat="46.28576" lon="6.13063">
        <ele>421</ele>
        <time>2020-11-06T14:18:46.976Z</time>
      </trkpt>
      <trkpt lat="46.28578" lon="6.13063">
        <ele>421</ele>
        <time>2020-11-06T14:18:47.976Z</time>
      </trkpt>
      <trkpt lat="46.2858" lon="6.13064">
        <ele>422</ele>
        <time>2020-11-06T14:18:48.976Z</time>
      </trkpt>
      <trkpt lat="46.28583" lon="6.13065">
        <ele>422</ele>
        <time>2020-11-06T14:18:49.976Z</time>
      </trkpt>
      <trkpt lat="46.28585" lon="6.13066">
        <ele>423</ele>
        <time>2020-11-06T14:18:50.976Z</time>
      </trkpt>
      <trkpt lat="46.28587" lon="6.13067">
        <ele>423</ele>
        <time>2020-11-06T14:18:51.976Z</time>
      </trkpt>
      <trkpt lat="46.28589" lon="6.13068">
        <ele>423</ele>
        <time>2020-11-06T14:18:52.976Z</time>
      </trkpt>
      <trkpt lat="46.28591" lon="6.13069">
        <ele>423</ele>
        <time>2020-11-06T14:18:53.976Z</time>
      </trkpt>
      <trkpt lat="46.28593" lon="6.1307">
        <ele>423</ele>
        <time>2020-11-06T14:18:54.976Z</time>
      </trkpt>
      <trkpt lat="46.28595" lon="6.13072">
        <ele>423</ele>
        <time>2020-11-06T14:18:55.976Z</time>
      </trkpt>
      <trkpt lat="46.28597" lon="6.13073">
        <ele>423</ele>
        <time>2020-11-06T14:18:56.976Z</time>
      </trkpt>
      <trkpt lat="46.28599" lon="6.13074">
        <ele>424</ele>
        <time>2020-11-06T14:18:57.976Z</time>
      </trkpt>
      <trkpt lat="46.28601" lon="6.13074">
        <ele>424</ele>
        <time>2020-11-06T14:18:58.975Z</time>
      </trkpt>
      <trkpt lat="46.28603" lon="6.13074">
        <ele>425</ele>
        <time>2020-11-06T14:18:59.976Z</time>
      </trkpt>
      <trkpt lat="46.28605" lon="6.13074">
        <ele>425</ele>
        <time>2020-11-06T14:19:00.976Z</time>
      </trkpt>
      <trkpt lat="46.28608" lon="6.13074">
        <ele>426</ele>
        <time>2020-11-06T14:19:01.976Z</time>
      </trkpt>
      <trkpt lat="46.2861" lon="6.13075">
        <ele>427</ele>
        <time>2020-11-06T14:19:02.976Z</time>
      </trkpt>
      <trkpt lat="46.28612" lon="6.13075">
        <ele>428</ele>
        <time>2020-11-06T14:19:03.976Z</time>
      </trkpt>
      <trkpt lat="46.28614" lon="6.13075">
        <ele>428</ele>
        <time>2020-11-06T14:19:04.975Z</time>
      </trkpt>
      <trkpt lat="46.28616" lon="6.13075">
        <ele>429</ele>
        <time>2020-11-06T14:19:05.976Z</time>
      </trkpt>
      <trkpt lat="46.28619" lon="6.13074">
        <ele>430</ele>
        <time>2020-11-06T14:19:06.975Z</time>
      </trkpt>
      <trkpt lat="46.28621" lon="6.13074">
        <ele>430</ele>
        <time>2020-11-06T14:19:07.976Z</time>
      </trkpt>
      <trkpt lat="46.28623" lon="6.13073">
        <ele>430</ele>
        <time>2020-11-06T14:19:08.975Z</time>
      </trkpt>
      <trkpt lat="46.28625" lon="6.13073">
        <ele>431</ele>
        <time>2020-11-06T14:19:09.975Z</time>
      </trkpt>
      <trkpt lat="46.28627" lon="6.13072">
        <ele>431</ele>
        <time>2020-11-06T14:19:10.976Z</time>
      </trkpt>
      <trkpt lat="46.28629" lon="6.13071">
        <ele>431</ele>
        <time>2020-11-06T14:19:11.975Z</time>
      </trkpt>
      <trkpt lat="46.28631" lon="6.1307">
        <ele>431</ele>
        <time>2020-11-06T14:19:12.975Z</time>
      </trkpt>
      <trkpt lat="46.28633" lon="6.1307">
        <ele>431</ele>
        <time>2020-11-06T14:19:13.975Z</time>
      </trkpt>
      <trkpt lat="46.28635" lon="6.1307">
        <ele>431</ele>
        <time>2020-11-06T14:19:14.975Z</time>
      </trkpt>
      <trkpt lat="46.28638" lon="6.13068">
        <ele>431</ele>
        <time>2020-11-06T14:19:15.976Z</time>
      </trkpt>
      <trkpt lat="46.2864" lon="6.13067">
        <ele>431</ele>
        <time>2020-11-06T14:19:16.976Z</time>
      </trkpt>
      <trkpt lat="46.28643" lon="6.13064">
        <ele>430</ele>
        <time>2020-11-06T14:19:17.975Z</time>
      </trkpt>
      <trkpt lat="46.28644" lon="6.13063">
        <ele>430</ele>
        <time>2020-11-06T14:19:18.976Z</time>
      </trkpt>
      <trkpt lat="46.28646" lon="6.13062">
        <ele>429</ele>
        <time>2020-11-06T14:19:19.976Z</time>
      </trkpt>
      <trkpt lat="46.28648" lon="6.13058">
        <ele>428</ele>
        <time>2020-11-06T14:19:20.976Z</time>
      </trkpt>
      <trkpt lat="46.28649" lon="6.13056">
        <ele>428</ele>
        <time>2020-11-06T14:19:21.976Z</time>
      </trkpt>
      <trkpt lat="46.28651" lon="6.13054">
        <ele>428</ele>
        <time>2020-11-06T14:19:22.976Z</time>
      </trkpt>
      <trkpt lat="46.28653" lon="6.13052">
        <ele>428</ele>
        <time>2020-11-06T14:19:23.976Z</time>
      </trkpt>
      <trkpt lat="46.28655" lon="6.13051">
        <ele>428</ele>
        <time>2020-11-06T14:19:24.976Z</time>
      </trkpt>
      <trkpt lat="46.28657" lon="6.13049">
        <ele>428</ele>
        <time>2020-11-06T14:19:25.976Z</time>
      </trkpt>
      <trkpt lat="46.28658" lon="6.13048">
        <ele>428</ele>
        <time>2020-11-06T14:19:26.975Z</time>
      </trkpt>
      <trkpt lat="46.2866" lon="6.13046">
        <ele>427</ele>
        <time>2020-11-06T14:19:27.976Z</time>
      </trkpt>
      <trkpt lat="46.28662" lon="6.13044">
        <ele>427</ele>
        <time>2020-11-06T14:19:28.976Z</time>
      </trkpt>
      <trkpt lat="46.28664" lon="6.13042">
        <ele>427</ele>
        <time>2020-11-06T14:19:29.975Z</time>
      </trkpt>
      <trkpt lat="46.28665" lon="6.13041">
        <ele>426</ele>
        <time>2020-11-06T14:19:30.976Z</time>
      </trkpt>
      <trkpt lat="46.28667" lon="6.13039">
        <ele>426</ele>
        <time>2020-11-06T14:19:31.976Z</time>
      </trkpt>
      <trkpt lat="46.28668" lon="6.13037">
        <ele>426</ele>
        <time>2020-11-06T14:19:32.976Z</time>
      </trkpt>
      <trkpt lat="46.2867" lon="6.13035">
        <ele>425</ele>
        <time>2020-11-06T14:19:33.976Z</time>
      </trkpt>
      <trkpt lat="46.28671" lon="6.13032">
        <ele>425</ele>
        <time>2020-11-06T14:19:34.975Z</time>
      </trkpt>
      <trkpt lat="46.28673" lon="6.13031">
        <ele>425</ele>
        <time>2020-11-06T14:19:35.976Z</time>
      </trkpt>
      <trkpt lat="46.28675" lon="6.13029">
        <ele>425</ele>
        <time>2020-11-06T14:19:36.976Z</time>
      </trkpt>
      <trkpt lat="46.28677" lon="6.13027">
        <ele>426</ele>
        <time>2020-11-06T14:19:37.976Z</time>
      </trkpt>
      <trkpt lat="46.28678" lon="6.13025">
        <ele>426</ele>
        <time>2020-11-06T14:19:38.975Z</time>
      </trkpt>
      <trkpt lat="46.2868" lon="6.13023">
        <ele>426</ele>
        <time>2020-11-06T14:19:39.976Z</time>
      </trkpt>
      <trkpt lat="46.28681" lon="6.13021">
        <ele>426</ele>
        <time>2020-11-06T14:19:40.976Z</time>
      </trkpt>
      <trkpt lat="46.28683" lon="6.13019">
        <ele>426</ele>
        <time>2020-11-06T14:19:41.976Z</time>
      </trkpt>
      <trkpt lat="46.28685" lon="6.13017">
        <ele>426</ele>
        <time>2020-11-06T14:19:42.975Z</time>
      </trkpt>
      <trkpt lat="46.28686" lon="6.13016">
        <ele>426</ele>
        <time>2020-11-06T14:19:43.975Z</time>
      </trkpt>
      <trkpt lat="46.28688" lon="6.13013">
        <ele>426</ele>
        <time>2020-11-06T14:19:44.976Z</time>
      </trkpt>
      <trkpt lat="46.28689" lon="6.13011">
        <ele>426</ele>
        <time>2020-11-06T14:19:45.975Z</time>
      </trkpt>
      <trkpt lat="46.28691" lon="6.13009">
        <ele>426</ele>
        <time>2020-11-06T14:19:46.976Z</time>
      </trkpt>
      <trkpt lat="46.28692" lon="6.13007">
        <ele>425</ele>
        <time>2020-11-06T14:19:47.975Z</time>
      </trkpt>
      <trkpt lat="46.28694" lon="6.13005">
        <ele>425</ele>
        <time>2020-11-06T14:19:48.976Z</time>
      </trkpt>
      <trkpt lat="46.28696" lon="6.13003">
        <ele>425</ele>
        <time>2020-11-06T14:19:49.975Z</time>
      </trkpt>
      <trkpt lat="46.28697" lon="6.13001">
        <ele>425</ele>
        <time>2020-11-06T14:19:50.975Z</time>
      </trkpt>
      <trkpt lat="46.28699" lon="6.12999">
        <ele>425</ele>
        <time>2020-11-06T14:19:51.975Z</time>
      </trkpt>
      <trkpt lat="46.287" lon="6.12996">
        <ele>425</ele>
        <time>2020-11-06T14:19:52.976Z</time>
      </trkpt>
      <trkpt lat="46.28702" lon="6.12995">
        <ele>425</ele>
        <time>2020-11-06T14:19:53.976Z</time>
      </trkpt>
      <trkpt lat="46.28704" lon="6.12993">
        <ele>425</ele>
        <time>2020-11-06T14:19:54.976Z</time>
      </trkpt>
      <trkpt lat="46.28706" lon="6.12991">
        <ele>425</ele>
        <time>2020-11-06T14:19:55.976Z</time>
      </trkpt>
      <trkpt lat="46.28707" lon="6.12989">
        <ele>425</ele>
        <time>2020-11-06T14:19:56.976Z</time>
      </trkpt>
      <trkpt lat="46.28709" lon="6.12987">
        <ele>425</ele>
        <time>2020-11-06T14:19:57.976Z</time>
      </trkpt>
      <trkpt lat="46.28711" lon="6.12985">
        <ele>425</ele>
        <time>2020-11-06T14:19:58.975Z</time>
      </trkpt>
      <trkpt lat="46.28712" lon="6.12983">
        <ele>425</ele>
        <time>2020-11-06T14:19:59.975Z</time>
      </trkpt>
      <trkpt lat="46.28714" lon="6.12981">
        <ele>426</ele>
        <time>2020-11-06T14:20:00.975Z</time>
      </trkpt>
      <trkpt lat="46.28715" lon="6.1298">
        <ele>426</ele>
        <time>2020-11-06T14:20:01.975Z</time>
      </trkpt>
      <trkpt lat="46.28717" lon="6.12978">
        <ele>426</ele>
        <time>2020-11-06T14:20:02.976Z</time>
      </trkpt>
      <trkpt lat="46.28719" lon="6.12976">
        <ele>426</ele>
        <time>2020-11-06T14:20:03.975Z</time>
      </trkpt>
      <trkpt lat="46.28721" lon="6.12975">
        <ele>426</ele>
        <time>2020-11-06T14:20:04.976Z</time>
      </trkpt>
      <trkpt lat="46.28723" lon="6.12974">
        <ele>426</ele>
        <time>2020-11-06T14:20:05.976Z</time>
      </trkpt>
      <trkpt lat="46.28724" lon="6.12972">
        <ele>426</ele>
        <time>2020-11-06T14:20:06.975Z</time>
      </trkpt>
      <trkpt lat="46.28726" lon="6.12972">
        <ele>426</ele>
        <time>2020-11-06T14:20:07.976Z</time>
      </trkpt>
      <trkpt lat="46.28728" lon="6.12971">
        <ele>427</ele>
        <time>2020-11-06T14:20:08.976Z</time>
      </trkpt>
      <trkpt lat="46.28729" lon="6.1297">
        <ele>427</ele>
        <time>2020-11-06T14:20:09.976Z</time>
      </trkpt>
      <trkpt lat="46.28731" lon="6.12969">
        <ele>427</ele>
        <time>2020-11-06T14:20:10.976Z</time>
      </trkpt>
      <trkpt lat="46.28734" lon="6.12968">
        <ele>427</ele>
        <time>2020-11-06T14:20:11.976Z</time>
      </trkpt>
      <trkpt lat="46.28736" lon="6.12968">
        <ele>427</ele>
        <time>2020-11-06T14:20:12.976Z</time>
      </trkpt>
      <trkpt lat="46.28738" lon="6.12967">
        <ele>428</ele>
        <time>2020-11-06T14:20:13.975Z</time>
      </trkpt>
      <trkpt lat="46.2874" lon="6.12967">
        <ele>428</ele>
        <time>2020-11-06T14:20:14.976Z</time>
      </trkpt>
      <trkpt lat="46.28743" lon="6.12966">
        <ele>428</ele>
        <time>2020-11-06T14:20:15.975Z</time>
      </trkpt>
      <trkpt lat="46.28745" lon="6.12965">
        <ele>428</ele>
        <time>2020-11-06T14:20:16.975Z</time>
      </trkpt>
      <trkpt lat="46.28747" lon="6.12965">
        <ele>428</ele>
        <time>2020-11-06T14:20:17.976Z</time>
      </trkpt>
      <trkpt lat="46.2875" lon="6.12965">
        <ele>428</ele>
        <time>2020-11-06T14:20:18.976Z</time>
      </trkpt>
      <trkpt lat="46.28752" lon="6.12964">
        <ele>428</ele>
        <time>2020-11-06T14:20:19.975Z</time>
      </trkpt>
      <trkpt lat="46.28754" lon="6.12964">
        <ele>428</ele>
        <time>2020-11-06T14:20:20.975Z</time>
      </trkpt>
      <trkpt lat="46.28756" lon="6.12964">
        <ele>428</ele>
        <time>2020-11-06T14:20:21.975Z</time>
      </trkpt>
      <trkpt lat="46.28759" lon="6.12964">
        <ele>428</ele>
        <time>2020-11-06T14:20:22.975Z</time>
      </trkpt>
      <trkpt lat="46.28762" lon="6.12964">
        <ele>428</ele>
        <time>2020-11-06T14:20:23.975Z</time>
      </trkpt>
      <trkpt lat="46.28764" lon="6.12964">
        <ele>428</ele>
        <time>2020-11-06T14:20:24.975Z</time>
      </trkpt>
      <trkpt lat="46.28766" lon="6.12965">
        <ele>429</ele>
        <time>2020-11-06T14:20:25.975Z</time>
      </trkpt>
      <trkpt lat="46.28769" lon="6.12965">
        <ele>429</ele>
        <time>2020-11-06T14:20:26.975Z</time>
      </trkpt>
      <trkpt lat="46.28771" lon="6.12966">
        <ele>429</ele>
        <time>2020-11-06T14:20:27.976Z</time>
      </trkpt>
      <trkpt lat="46.28774" lon="6.12966">
        <ele>430</ele>
        <time>2020-11-06T14:20:28.975Z</time>
      </trkpt>
      <trkpt lat="46.28776" lon="6.12966">
        <ele>430</ele>
        <time>2020-11-06T14:20:29.975Z</time>
      </trkpt>
      <trkpt lat="46.28778" lon="6.12966">
        <ele>430</ele>
        <time>2020-11-06T14:20:30.975Z</time>
      </trkpt>
      <trkpt lat="46.28781" lon="6.12965">
        <ele>431</ele>
        <time>2020-11-06T14:20:31.975Z</time>
      </trkpt>
      <trkpt lat="46.28783" lon="6.12964">
        <ele>431</ele>
        <time>2020-11-06T14:20:32.976Z</time>
      </trkpt>
      <trkpt lat="46.28786" lon="6.12964">
        <ele>431</ele>
        <time>2020-11-06T14:20:33.975Z</time>
      </trkpt>
      <trkpt lat="46.28788" lon="6.12963">
        <ele>431</ele>
        <time>2020-11-06T14:20:34.975Z</time>
      </trkpt>
      <trkpt lat="46.28791" lon="6.12963">
        <ele>430</ele>
        <time>2020-11-06T14:20:35.975Z</time>
      </trkpt>
      <trkpt lat="46.28793" lon="6.12963">
        <ele>430</ele>
        <time>2020-11-06T14:20:36.975Z</time>
      </trkpt>
      <trkpt lat="46.28795" lon="6.12963">
        <ele>431</ele>
        <time>2020-11-06T14:20:37.975Z</time>
      </trkpt>
      <trkpt lat="46.28798" lon="6.12962">
        <ele>431</ele>
        <time>2020-11-06T14:20:38.975Z</time>
      </trkpt>
      <trkpt lat="46.288" lon="6.12962">
        <ele>431</ele>
        <time>2020-11-06T14:20:39.975Z</time>
      </trkpt>
      <trkpt lat="46.28802" lon="6.12963">
        <ele>432</ele>
        <time>2020-11-06T14:20:40.975Z</time>
      </trkpt>
      <trkpt lat="46.28805" lon="6.12963">
        <ele>432</ele>
        <time>2020-11-06T14:20:41.975Z</time>
      </trkpt>
      <trkpt lat="46.28807" lon="6.12963">
        <ele>433</ele>
        <time>2020-11-06T14:20:42.975Z</time>
      </trkpt>
      <trkpt lat="46.2881" lon="6.12962">
        <ele>433</ele>
        <time>2020-11-06T14:20:43.975Z</time>
      </trkpt>
      <trkpt lat="46.28812" lon="6.12962">
        <ele>433</ele>
        <time>2020-11-06T14:20:44.975Z</time>
      </trkpt>
      <trkpt lat="46.28814" lon="6.12961">
        <ele>433</ele>
        <time>2020-11-06T14:20:45.975Z</time>
      </trkpt>
      <trkpt lat="46.28816" lon="6.1296">
        <ele>434</ele>
        <time>2020-11-06T14:20:46.975Z</time>
      </trkpt>
      <trkpt lat="46.28818" lon="6.12959">
        <ele>434</ele>
        <time>2020-11-06T14:20:47.975Z</time>
      </trkpt>
      <trkpt lat="46.28821" lon="6.12958">
        <ele>434</ele>
        <time>2020-11-06T14:20:48.976Z</time>
      </trkpt>
      <trkpt lat="46.28822" lon="6.12956">
        <ele>434</ele>
        <time>2020-11-06T14:20:49.976Z</time>
      </trkpt>
      <trkpt lat="46.28824" lon="6.12955">
        <ele>434</ele>
        <time>2020-11-06T14:20:50.975Z</time>
      </trkpt>
      <trkpt lat="46.28827" lon="6.12954">
        <ele>434</ele>
        <time>2020-11-06T14:20:51.976Z</time>
      </trkpt>
      <trkpt lat="46.28829" lon="6.12953">
        <ele>434</ele>
        <time>2020-11-06T14:20:52.976Z</time>
      </trkpt>
      <trkpt lat="46.28831" lon="6.12952">
        <ele>434</ele>
        <time>2020-11-06T14:20:53.976Z</time>
      </trkpt>
      <trkpt lat="46.28832" lon="6.1295">
        <ele>434</ele>
        <time>2020-11-06T14:20:54.975Z</time>
      </trkpt>
      <trkpt lat="46.28833" lon="6.12947">
        <ele>434</ele>
        <time>2020-11-06T14:20:55.976Z</time>
      </trkpt>
      <trkpt lat="46.28834" lon="6.12944">
        <ele>434</ele>
        <time>2020-11-06T14:20:56.976Z</time>
      </trkpt>
      <trkpt lat="46.28835" lon="6.12942">
        <ele>434</ele>
        <time>2020-11-06T14:20:57.976Z</time>
      </trkpt>
      <trkpt lat="46.28836" lon="6.1294">
        <ele>434</ele>
        <time>2020-11-06T14:20:58.976Z</time>
      </trkpt>
      <trkpt lat="46.28837" lon="6.12939">
        <ele>434</ele>
        <time>2020-11-06T14:20:59.975Z</time>
      </trkpt>
      <trkpt lat="46.28839" lon="6.12939">
        <ele>434</ele>
        <time>2020-11-06T14:21:00.976Z</time>
      </trkpt>
      <trkpt lat="46.2884" lon="6.12938">
        <ele>434</ele>
        <time>2020-11-06T14:21:01.976Z</time>
      </trkpt>
      <trkpt lat="46.28841" lon="6.12938">
        <ele>434</ele>
        <time>2020-11-06T14:21:02.976Z</time>
      </trkpt>
      <trkpt lat="46.28843" lon="6.12937">
        <ele>434</ele>
        <time>2020-11-06T14:21:03.975Z</time>
      </trkpt>
      <trkpt lat="46.28844" lon="6.12936">
        <ele>434</ele>
        <time>2020-11-06T14:21:04.976Z</time>
      </trkpt>
      <trkpt lat="46.28845" lon="6.12935">
        <ele>434</ele>
        <time>2020-11-06T14:21:05.975Z</time>
      </trkpt>
      <trkpt lat="46.28846" lon="6.12933">
        <ele>434</ele>
        <time>2020-11-06T14:21:06.975Z</time>
      </trkpt>
      <trkpt lat="46.28848" lon="6.12932">
        <ele>434</ele>
        <time>2020-11-06T14:21:07.975Z</time>
      </trkpt>
      <trkpt lat="46.28849" lon="6.1293">
        <ele>434</ele>
        <time>2020-11-06T14:21:08.975Z</time>
      </trkpt>
      <trkpt lat="46.2885" lon="6.1293">
        <ele>433</ele>
        <time>2020-11-06T14:21:09.975Z</time>
      </trkpt>
      <trkpt lat="46.28852" lon="6.12929">
        <ele>433</ele>
        <time>2020-11-06T14:21:10.976Z</time>
      </trkpt>
      <trkpt lat="46.28853" lon="6.12927">
        <ele>433</ele>
        <time>2020-11-06T14:21:11.976Z</time>
      </trkpt>
      <trkpt lat="46.28854" lon="6.12925">
        <ele>433</ele>
        <time>2020-11-06T14:21:12.976Z</time>
      </trkpt>
      <trkpt lat="46.28856" lon="6.12924">
        <ele>433</ele>
        <time>2020-11-06T14:21:13.975Z</time>
      </trkpt>
      <trkpt lat="46.28857" lon="6.12922">
        <ele>433</ele>
        <time>2020-11-06T14:21:14.976Z</time>
      </trkpt>
      <trkpt lat="46.28859" lon="6.1292">
        <ele>433</ele>
        <time>2020-11-06T14:21:15.975Z</time>
      </trkpt>
      <trkpt lat="46.2886" lon="6.12918">
        <ele>432</ele>
        <time>2020-11-06T14:21:16.976Z</time>
      </trkpt>
      <trkpt lat="46.28861" lon="6.12917">
        <ele>432</ele>
        <time>2020-11-06T14:21:17.976Z</time>
      </trkpt>
      <trkpt lat="46.28862" lon="6.12916">
        <ele>432</ele>
        <time>2020-11-06T14:21:18.976Z</time>
      </trkpt>
      <trkpt lat="46.28864" lon="6.12915">
        <ele>432</ele>
        <time>2020-11-06T14:21:19.976Z</time>
      </trkpt>
      <trkpt lat="46.28865" lon="6.12914">
        <ele>432</ele>
        <time>2020-11-06T14:21:20.976Z</time>
      </trkpt>
      <trkpt lat="46.28866" lon="6.12912">
        <ele>432</ele>
        <time>2020-11-06T14:21:21.976Z</time>
      </trkpt>
      <trkpt lat="46.28868" lon="6.12911">
        <ele>432</ele>
        <time>2020-11-06T14:21:22.976Z</time>
      </trkpt>
      <trkpt lat="46.28869" lon="6.12908">
        <ele>433</ele>
        <time>2020-11-06T14:21:23.976Z</time>
      </trkpt>
      <trkpt lat="46.28871" lon="6.12907">
        <ele>433</ele>
        <time>2020-11-06T14:21:24.976Z</time>
      </trkpt>
      <trkpt lat="46.28872" lon="6.12905">
        <ele>433</ele>
        <time>2020-11-06T14:21:25.976Z</time>
      </trkpt>
      <trkpt lat="46.28873" lon="6.12904">
        <ele>434</ele>
        <time>2020-11-06T14:21:26.976Z</time>
      </trkpt>
      <trkpt lat="46.28874" lon="6.12902">
        <ele>435</ele>
        <time>2020-11-06T14:21:27.976Z</time>
      </trkpt>
      <trkpt lat="46.28876" lon="6.129">
        <ele>435</ele>
        <time>2020-11-06T14:21:28.976Z</time>
      </trkpt>
      <trkpt lat="46.28877" lon="6.12897">
        <ele>436</ele>
        <time>2020-11-06T14:21:29.976Z</time>
      </trkpt>
      <trkpt lat="46.28878" lon="6.12895">
        <ele>436</ele>
        <time>2020-11-06T14:21:30.975Z</time>
      </trkpt>
      <trkpt lat="46.28878" lon="6.12892">
        <ele>437</ele>
        <time>2020-11-06T14:21:31.976Z</time>
      </trkpt>
      <trkpt lat="46.2888" lon="6.1289">
        <ele>438</ele>
        <time>2020-11-06T14:21:32.976Z</time>
      </trkpt>
      <trkpt lat="46.28881" lon="6.12888">
        <ele>438</ele>
        <time>2020-11-06T14:21:33.976Z</time>
      </trkpt>
      <trkpt lat="46.28883" lon="6.12886">
        <ele>439</ele>
        <time>2020-11-06T14:21:34.976Z</time>
      </trkpt>
      <trkpt lat="46.28885" lon="6.12883">
        <ele>439</ele>
        <time>2020-11-06T14:21:35.976Z</time>
      </trkpt>
      <trkpt lat="46.28888" lon="6.1288">
        <ele>440</ele>
        <time>2020-11-06T14:21:36.976Z</time>
      </trkpt>
      <trkpt lat="46.2889" lon="6.12876">
        <ele>440</ele>
        <time>2020-11-06T14:21:37.976Z</time>
      </trkpt>
      <trkpt lat="46.28892" lon="6.12872">
        <ele>441</ele>
        <time>2020-11-06T14:21:38.975Z</time>
      </trkpt>
      <trkpt lat="46.28894" lon="6.12868">
        <ele>441</ele>
        <time>2020-11-06T14:21:39.976Z</time>
      </trkpt>
      <trkpt lat="46.28896" lon="6.12865">
        <ele>442</ele>
        <time>2020-11-06T14:21:40.976Z</time>
      </trkpt>
      <trkpt lat="46.28898" lon="6.12862">
        <ele>442</ele>
        <time>2020-11-06T14:21:41.975Z</time>
      </trkpt>
      <trkpt lat="46.289" lon="6.12858">
        <ele>443</ele>
        <time>2020-11-06T14:21:42.976Z</time>
      </trkpt>
      <trkpt lat="46.28901" lon="6.12854">
        <ele>443</ele>
        <time>2020-11-06T14:21:43.975Z</time>
      </trkpt>
      <trkpt lat="46.28902" lon="6.1285">
        <ele>443</ele>
        <time>2020-11-06T14:21:44.976Z</time>
      </trkpt>
      <trkpt lat="46.28904" lon="6.12847">
        <ele>443</ele>
        <time>2020-11-06T14:21:45.975Z</time>
      </trkpt>
      <trkpt lat="46.28906" lon="6.12843">
        <ele>443</ele>
        <time>2020-11-06T14:21:46.975Z</time>
      </trkpt>
      <trkpt lat="46.28907" lon="6.1284">
        <ele>444</ele>
        <time>2020-11-06T14:21:47.976Z</time>
      </trkpt>
      <trkpt lat="46.28909" lon="6.12837">
        <ele>444</ele>
        <time>2020-11-06T14:21:48.976Z</time>
      </trkpt>
      <trkpt lat="46.2891" lon="6.12834">
        <ele>444</ele>
        <time>2020-11-06T14:21:49.975Z</time>
      </trkpt>
      <trkpt lat="46.28912" lon="6.1283">
        <ele>444</ele>
        <time>2020-11-06T14:21:50.975Z</time>
      </trkpt>
      <trkpt lat="46.28914" lon="6.12827">
        <ele>444</ele>
        <time>2020-11-06T14:21:51.975Z</time>
      </trkpt>
      <trkpt lat="46.28915" lon="6.12823">
        <ele>445</ele>
        <time>2020-11-06T14:21:52.976Z</time>
      </trkpt>
      <trkpt lat="46.28917" lon="6.12821">
        <ele>445</ele>
        <time>2020-11-06T14:21:53.975Z</time>
      </trkpt>
      <trkpt lat="46.28918" lon="6.12819">
        <ele>445</ele>
        <time>2020-11-06T14:21:54.975Z</time>
      </trkpt>
      <trkpt lat="46.28919" lon="6.12816">
        <ele>445</ele>
        <time>2020-11-06T14:21:55.976Z</time>
      </trkpt>
      <trkpt lat="46.2892" lon="6.12814">
        <ele>446</ele>
        <time>2020-11-06T14:21:56.976Z</time>
      </trkpt>
      <trkpt lat="46.2892" lon="6.12812">
        <ele>446</ele>
        <time>2020-11-06T14:21:57.976Z</time>
      </trkpt>
      <trkpt lat="46.28922" lon="6.12809">
        <ele>446</ele>
        <time>2020-11-06T14:21:58.976Z</time>
      </trkpt>
      <trkpt lat="46.28923" lon="6.12807">
        <ele>447</ele>
        <time>2020-11-06T14:21:59.975Z</time>
      </trkpt>
      <trkpt lat="46.28925" lon="6.12804">
        <ele>447</ele>
        <time>2020-11-06T14:22:00.976Z</time>
      </trkpt>
      <trkpt lat="46.28927" lon="6.12801">
        <ele>447</ele>
        <time>2020-11-06T14:22:01.976Z</time>
      </trkpt>
      <trkpt lat="46.28929" lon="6.12798">
        <ele>447</ele>
        <time>2020-11-06T14:22:02.975Z</time>
      </trkpt>
      <trkpt lat="46.28931" lon="6.12795">
        <ele>446</ele>
        <time>2020-11-06T14:22:03.976Z</time>
      </trkpt>
      <trkpt lat="46.28932" lon="6.12793">
        <ele>446</ele>
        <time>2020-11-06T14:22:04.976Z</time>
      </trkpt>
      <trkpt lat="46.28934" lon="6.12791">
        <ele>446</ele>
        <time>2020-11-06T14:22:05.976Z</time>
      </trkpt>
      <trkpt lat="46.28935" lon="6.12789">
        <ele>446</ele>
        <time>2020-11-06T14:22:06.976Z</time>
      </trkpt>
      <trkpt lat="46.28936" lon="6.12788">
        <ele>446</ele>
        <time>2020-11-06T14:22:07.976Z</time>
      </trkpt>
      <trkpt lat="46.28938" lon="6.12785">
        <ele>446</ele>
        <time>2020-11-06T14:22:08.976Z</time>
      </trkpt>
      <trkpt lat="46.2894" lon="6.12782">
        <ele>446</ele>
        <time>2020-11-06T14:22:09.976Z</time>
      </trkpt>
      <trkpt lat="46.28941" lon="6.12779">
        <ele>446</ele>
        <time>2020-11-06T14:22:10.976Z</time>
      </trkpt>
      <trkpt lat="46.28942" lon="6.12776">
        <ele>446</ele>
        <time>2020-11-06T14:22:11.976Z</time>
      </trkpt>
      <trkpt lat="46.28942" lon="6.12773">
        <ele>445</ele>
        <time>2020-11-06T14:22:12.975Z</time>
      </trkpt>
      <trkpt lat="46.28947" lon="6.12768">
        <ele>445</ele>
        <time>2020-11-06T14:22:13.976Z</time>
      </trkpt>
      <trkpt lat="46.28949" lon="6.12763">
        <ele>445</ele>
        <time>2020-11-06T14:22:14.976Z</time>
      </trkpt>
      <trkpt lat="46.28952" lon="6.12759">
        <ele>445</ele>
        <time>2020-11-06T14:22:15.975Z</time>
      </trkpt>
      <trkpt lat="46.28954" lon="6.12754">
        <ele>445</ele>
        <time>2020-11-06T14:22:16.976Z</time>
      </trkpt>
      <trkpt lat="46.28956" lon="6.12751">
        <ele>445</ele>
        <time>2020-11-06T14:22:17.975Z</time>
      </trkpt>
      <trkpt lat="46.28958" lon="6.12748">
        <ele>445</ele>
        <time>2020-11-06T14:22:18.975Z</time>
      </trkpt>
      <trkpt lat="46.2896" lon="6.12744">
        <ele>444</ele>
        <time>2020-11-06T14:22:19.975Z</time>
      </trkpt>
      <trkpt lat="46.28962" lon="6.12741">
        <ele>444</ele>
        <time>2020-11-06T14:22:20.976Z</time>
      </trkpt>
      <trkpt lat="46.28964" lon="6.12739">
        <ele>443</ele>
        <time>2020-11-06T14:22:21.975Z</time>
      </trkpt>
      <trkpt lat="46.28965" lon="6.12737">
        <ele>443</ele>
        <time>2020-11-06T14:22:22.976Z</time>
      </trkpt>
      <trkpt lat="46.28966" lon="6.12734">
        <ele>442</ele>
        <time>2020-11-06T14:22:23.976Z</time>
      </trkpt>
      <trkpt lat="46.28968" lon="6.12732">
        <ele>441</ele>
        <time>2020-11-06T14:22:24.975Z</time>
      </trkpt>
      <trkpt lat="46.2897" lon="6.12728">
        <ele>441</ele>
        <time>2020-11-06T14:22:25.975Z</time>
      </trkpt>
      <trkpt lat="46.2897" lon="6.12724">
        <ele>441</ele>
        <time>2020-11-06T14:22:26.975Z</time>
      </trkpt>
      <trkpt lat="46.28971" lon="6.1272">
        <ele>441</ele>
        <time>2020-11-06T14:22:27.975Z</time>
      </trkpt>
      <trkpt lat="46.28972" lon="6.12718">
        <ele>440</ele>
        <time>2020-11-06T14:22:28.975Z</time>
      </trkpt>
      <trkpt lat="46.28973" lon="6.12716">
        <ele>440</ele>
        <time>2020-11-06T14:22:29.976Z</time>
      </trkpt>
      <trkpt lat="46.28975" lon="6.12714">
        <ele>440</ele>
        <time>2020-11-06T14:22:30.975Z</time>
      </trkpt>
      <trkpt lat="46.28977" lon="6.12713">
        <ele>440</ele>
        <time>2020-11-06T14:22:31.976Z</time>
      </trkpt>
      <trkpt lat="46.28979" lon="6.12713">
        <ele>440</ele>
        <time>2020-11-06T14:22:32.976Z</time>
      </trkpt>
      <trkpt lat="46.28981" lon="6.12713">
        <ele>439</ele>
        <time>2020-11-06T14:22:33.975Z</time>
      </trkpt>
      <trkpt lat="46.28982" lon="6.12713">
        <ele>439</ele>
        <time>2020-11-06T14:22:34.976Z</time>
      </trkpt>
      <trkpt lat="46.28984" lon="6.12715">
        <ele>439</ele>
        <time>2020-11-06T14:22:35.976Z</time>
      </trkpt>
      <trkpt lat="46.28986" lon="6.12716">
        <ele>439</ele>
        <time>2020-11-06T14:22:36.975Z</time>
      </trkpt>
      <trkpt lat="46.28987" lon="6.12717">
        <ele>439</ele>
        <time>2020-11-06T14:22:37.976Z</time>
      </trkpt>
      <trkpt lat="46.28989" lon="6.12718">
        <ele>439</ele>
        <time>2020-11-06T14:22:38.975Z</time>
      </trkpt>
      <trkpt lat="46.2899" lon="6.12719">
        <ele>439</ele>
        <time>2020-11-06T14:22:39.975Z</time>
      </trkpt>
      <trkpt lat="46.28992" lon="6.1272">
        <ele>439</ele>
        <time>2020-11-06T14:22:40.976Z</time>
      </trkpt>
      <trkpt lat="46.28994" lon="6.1272">
        <ele>439</ele>
        <time>2020-11-06T14:22:41.975Z</time>
      </trkpt>
      <trkpt lat="46.28997" lon="6.12721">
        <ele>439</ele>
        <time>2020-11-06T14:22:42.976Z</time>
      </trkpt>
      <trkpt lat="46.28999" lon="6.12721">
        <ele>439</ele>
        <time>2020-11-06T14:22:43.976Z</time>
      </trkpt>
      <trkpt lat="46.29001" lon="6.12721">
        <ele>439</ele>
        <time>2020-11-06T14:22:44.976Z</time>
      </trkpt>
      <trkpt lat="46.29003" lon="6.12721">
        <ele>440</ele>
        <time>2020-11-06T14:22:45.976Z</time>
      </trkpt>
      <trkpt lat="46.29005" lon="6.12721">
        <ele>440</ele>
        <time>2020-11-06T14:22:46.975Z</time>
      </trkpt>
      <trkpt lat="46.29008" lon="6.12721">
        <ele>440</ele>
        <time>2020-11-06T14:22:47.975Z</time>
      </trkpt>
      <trkpt lat="46.2901" lon="6.1272">
        <ele>440</ele>
        <time>2020-11-06T14:22:48.976Z</time>
      </trkpt>
      <trkpt lat="46.29014" lon="6.12718">
        <ele>440</ele>
        <time>2020-11-06T14:22:49.975Z</time>
      </trkpt>
      <trkpt lat="46.29016" lon="6.12718">
        <ele>440</ele>
        <time>2020-11-06T14:22:50.976Z</time>
      </trkpt>
      <trkpt lat="46.29017" lon="6.12718">
        <ele>440</ele>
        <time>2020-11-06T14:22:51.975Z</time>
      </trkpt>
      <trkpt lat="46.29019" lon="6.12718">
        <ele>440</ele>
        <time>2020-11-06T14:22:52.976Z</time>
      </trkpt>
      <trkpt lat="46.29021" lon="6.12718">
        <ele>440</ele>
        <time>2020-11-06T14:22:53.976Z</time>
      </trkpt>
      <trkpt lat="46.29022" lon="6.12718">
        <ele>441</ele>
        <time>2020-11-06T14:22:54.976Z</time>
      </trkpt>
      <trkpt lat="46.29023" lon="6.12718">
        <ele>441</ele>
        <time>2020-11-06T14:22:55.976Z</time>
      </trkpt>
      <trkpt lat="46.29025" lon="6.12718">
        <ele>441</ele>
        <time>2020-11-06T14:22:56.976Z</time>
      </trkpt>
      <trkpt lat="46.29027" lon="6.12717">
        <ele>441</ele>
        <time>2020-11-06T14:22:57.976Z</time>
      </trkpt>
      <trkpt lat="46.29028" lon="6.12715">
        <ele>441</ele>
        <time>2020-11-06T14:22:58.976Z</time>
      </trkpt>
      <trkpt lat="46.2903" lon="6.12713">
        <ele>441</ele>
        <time>2020-11-06T14:22:59.976Z</time>
      </trkpt>
      <trkpt lat="46.29031" lon="6.12711">
        <ele>441</ele>
        <time>2020-11-06T14:23:00.975Z</time>
      </trkpt>
      <trkpt lat="46.29033" lon="6.12709">
        <ele>441</ele>
        <time>2020-11-06T14:23:01.976Z</time>
      </trkpt>
      <trkpt lat="46.29034" lon="6.12707">
        <ele>441</ele>
        <time>2020-11-06T14:23:02.976Z</time>
      </trkpt>
      <trkpt lat="46.29035" lon="6.12705">
        <ele>441</ele>
        <time>2020-11-06T14:23:03.976Z</time>
      </trkpt>
      <trkpt lat="46.29036" lon="6.12704">
        <ele>441</ele>
        <time>2020-11-06T14:23:04.976Z</time>
      </trkpt>
      <trkpt lat="46.29037" lon="6.12703">
        <ele>441</ele>
        <time>2020-11-06T14:23:05.976Z</time>
      </trkpt>
      <trkpt lat="46.29039" lon="6.127">
        <ele>441</ele>
        <time>2020-11-06T14:23:06.976Z</time>
      </trkpt>
      <trkpt lat="46.29041" lon="6.12698">
        <ele>441</ele>
        <time>2020-11-06T14:23:07.976Z</time>
      </trkpt>
      <trkpt lat="46.29043" lon="6.12695">
        <ele>441</ele>
        <time>2020-11-06T14:23:08.976Z</time>
      </trkpt>
      <trkpt lat="46.29045" lon="6.12692">
        <ele>441</ele>
        <time>2020-11-06T14:23:09.976Z</time>
      </trkpt>
      <trkpt lat="46.29046" lon="6.12689">
        <ele>441</ele>
        <time>2020-11-06T14:23:10.975Z</time>
      </trkpt>
      <trkpt lat="46.29048" lon="6.12686">
        <ele>441</ele>
        <time>2020-11-06T14:23:11.976Z</time>
      </trkpt>
      <trkpt lat="46.2905" lon="6.12683">
        <ele>441</ele>
        <time>2020-11-06T14:23:12.976Z</time>
      </trkpt>
      <trkpt lat="46.29051" lon="6.1268">
        <ele>441</ele>
        <time>2020-11-06T14:23:13.975Z</time>
      </trkpt>
      <trkpt lat="46.29053" lon="6.12676">
        <ele>442</ele>
        <time>2020-11-06T14:23:14.976Z</time>
      </trkpt>
      <trkpt lat="46.29056" lon="6.12673">
        <ele>442</ele>
        <time>2020-11-06T14:23:15.976Z</time>
      </trkpt>
      <trkpt lat="46.29058" lon="6.1267">
        <ele>442</ele>
        <time>2020-11-06T14:23:16.975Z</time>
      </trkpt>
      <trkpt lat="46.29059" lon="6.12667">
        <ele>443</ele>
        <time>2020-11-06T14:23:17.976Z</time>
      </trkpt>
      <trkpt lat="46.29061" lon="6.12664">
        <ele>443</ele>
        <time>2020-11-06T14:23:18.976Z</time>
      </trkpt>
      <trkpt lat="46.29062" lon="6.12661">
        <ele>443</ele>
        <time>2020-11-06T14:23:19.976Z</time>
      </trkpt>
      <trkpt lat="46.29064" lon="6.12657">
        <ele>443</ele>
        <time>2020-11-06T14:23:20.976Z</time>
      </trkpt>
      <trkpt lat="46.29066" lon="6.12654">
        <ele>443</ele>
        <time>2020-11-06T14:23:21.976Z</time>
      </trkpt>
      <trkpt lat="46.29068" lon="6.12651">
        <ele>444</ele>
        <time>2020-11-06T14:23:22.976Z</time>
      </trkpt>
      <trkpt lat="46.2907" lon="6.12648">
        <ele>444</ele>
        <time>2020-11-06T14:23:23.975Z</time>
      </trkpt>
      <trkpt lat="46.2907" lon="6.12646">
        <ele>444</ele>
        <time>2020-11-06T14:23:24.976Z</time>
      </trkpt>
      <trkpt lat="46.29071" lon="6.12644">
        <ele>445</ele>
        <time>2020-11-06T14:23:25.976Z</time>
      </trkpt>
      <trkpt lat="46.29073" lon="6.12643">
        <ele>445</ele>
        <time>2020-11-06T14:23:26.975Z</time>
      </trkpt>
      <trkpt lat="46.29075" lon="6.1264">
        <ele>445</ele>
        <time>2020-11-06T14:23:27.975Z</time>
      </trkpt>
      <trkpt lat="46.29076" lon="6.12638">
        <ele>445</ele>
        <time>2020-11-06T14:23:28.976Z</time>
      </trkpt>
      <trkpt lat="46.29078" lon="6.12636">
        <ele>445</ele>
        <time>2020-11-06T14:23:29.976Z</time>
      </trkpt>
      <trkpt lat="46.29079" lon="6.12634">
        <ele>445</ele>
        <time>2020-11-06T14:23:30.976Z</time>
      </trkpt>
      <trkpt lat="46.2908" lon="6.12631">
        <ele>445</ele>
        <time>2020-11-06T14:23:31.976Z</time>
      </trkpt>
      <trkpt lat="46.2908" lon="6.12629">
        <ele>446</ele>
        <time>2020-11-06T14:23:32.975Z</time>
      </trkpt>
      <trkpt lat="46.29081" lon="6.12627">
        <ele>446</ele>
        <time>2020-11-06T14:23:33.976Z</time>
      </trkpt>
      <trkpt lat="46.29082" lon="6.12625">
        <ele>447</ele>
        <time>2020-11-06T14:23:34.975Z</time>
      </trkpt>
      <trkpt lat="46.29083" lon="6.12622">
        <ele>447</ele>
        <time>2020-11-06T14:23:35.976Z</time>
      </trkpt>
      <trkpt lat="46.29084" lon="6.1262">
        <ele>447</ele>
        <time>2020-11-06T14:23:36.975Z</time>
      </trkpt>
      <trkpt lat="46.29085" lon="6.12618">
        <ele>447</ele>
        <time>2020-11-06T14:23:37.975Z</time>
      </trkpt>
      <trkpt lat="46.29087" lon="6.12615">
        <ele>447</ele>
        <time>2020-11-06T14:23:38.976Z</time>
      </trkpt>
      <trkpt lat="46.2909" lon="6.12612">
        <ele>447</ele>
        <time>2020-11-06T14:23:39.976Z</time>
      </trkpt>
      <trkpt lat="46.29091" lon="6.12611">
        <ele>448</ele>
        <time>2020-11-06T14:23:40.976Z</time>
      </trkpt>
      <trkpt lat="46.29092" lon="6.12608">
        <ele>448</ele>
        <time>2020-11-06T14:23:41.975Z</time>
      </trkpt>
      <trkpt lat="46.29094" lon="6.12606">
        <ele>448</ele>
        <time>2020-11-06T14:23:42.975Z</time>
      </trkpt>
      <trkpt lat="46.29096" lon="6.12603">
        <ele>449</ele>
        <time>2020-11-06T14:23:43.975Z</time>
      </trkpt>
      <trkpt lat="46.29098" lon="6.12601">
        <ele>449</ele>
        <time>2020-11-06T14:23:44.975Z</time>
      </trkpt>
      <trkpt lat="46.291" lon="6.126">
        <ele>450</ele>
        <time>2020-11-06T14:23:45.975Z</time>
      </trkpt>
      <trkpt lat="46.29103" lon="6.12598">
        <ele>450</ele>
        <time>2020-11-06T14:23:46.975Z</time>
      </trkpt>
      <trkpt lat="46.29106" lon="6.12594">
        <ele>450</ele>
        <time>2020-11-06T14:23:47.976Z</time>
      </trkpt>
      <trkpt lat="46.29109" lon="6.12591">
        <ele>450</ele>
        <time>2020-11-06T14:23:48.976Z</time>
      </trkpt>
      <trkpt lat="46.2911" lon="6.1259">
        <ele>450</ele>
        <time>2020-11-06T14:23:49.975Z</time>
      </trkpt>
      <trkpt lat="46.29111" lon="6.12588">
        <ele>449</ele>
        <time>2020-11-06T14:23:50.975Z</time>
      </trkpt>
      <trkpt lat="46.29113" lon="6.12586">
        <ele>449</ele>
        <time>2020-11-06T14:23:51.975Z</time>
      </trkpt>
      <trkpt lat="46.29115" lon="6.12585">
        <ele>449</ele>
        <time>2020-11-06T14:23:52.975Z</time>
      </trkpt>
      <trkpt lat="46.29116" lon="6.12583">
        <ele>449</ele>
        <time>2020-11-06T14:23:53.976Z</time>
      </trkpt>
      <trkpt lat="46.29119" lon="6.12579">
        <ele>449</ele>
        <time>2020-11-06T14:23:54.976Z</time>
      </trkpt>
      <trkpt lat="46.2912" lon="6.12576">
        <ele>449</ele>
        <time>2020-11-06T14:23:55.976Z</time>
      </trkpt>
      <trkpt lat="46.29122" lon="6.12575">
        <ele>449</ele>
        <time>2020-11-06T14:23:56.976Z</time>
      </trkpt>
      <trkpt lat="46.29123" lon="6.12574">
        <ele>449</ele>
        <time>2020-11-06T14:23:57.976Z</time>
      </trkpt>
      <trkpt lat="46.29125" lon="6.12573">
        <ele>449</ele>
        <time>2020-11-06T14:23:58.975Z</time>
      </trkpt>
      <trkpt lat="46.29126" lon="6.12573">
        <ele>449</ele>
        <time>2020-11-06T14:23:59.976Z</time>
      </trkpt>
      <trkpt lat="46.29128" lon="6.12572">
        <ele>449</ele>
        <time>2020-11-06T14:24:00.976Z</time>
      </trkpt>
      <trkpt lat="46.29129" lon="6.12571">
        <ele>449</ele>
        <time>2020-11-06T14:24:01.975Z</time>
      </trkpt>
      <trkpt lat="46.29131" lon="6.1257">
        <ele>449</ele>
        <time>2020-11-06T14:24:02.976Z</time>
      </trkpt>
      <trkpt lat="46.29133" lon="6.12569">
        <ele>449</ele>
        <time>2020-11-06T14:24:03.976Z</time>
      </trkpt>
      <trkpt lat="46.29135" lon="6.12569">
        <ele>449</ele>
        <time>2020-11-06T14:24:04.976Z</time>
      </trkpt>
      <trkpt lat="46.29137" lon="6.12567">
        <ele>449</ele>
        <time>2020-11-06T14:24:05.975Z</time>
      </trkpt>
      <trkpt lat="46.29139" lon="6.12566">
        <ele>449</ele>
        <time>2020-11-06T14:24:06.976Z</time>
      </trkpt>
      <trkpt lat="46.29141" lon="6.12566">
        <ele>449</ele>
        <time>2020-11-06T14:24:07.975Z</time>
      </trkpt>
      <trkpt lat="46.29143" lon="6.12566">
        <ele>449</ele>
        <time>2020-11-06T14:24:08.976Z</time>
      </trkpt>
      <trkpt lat="46.29145" lon="6.12565">
        <ele>449</ele>
        <time>2020-11-06T14:24:09.975Z</time>
      </trkpt>
      <trkpt lat="46.29146" lon="6.12565">
        <ele>449</ele>
        <time>2020-11-06T14:24:10.976Z</time>
      </trkpt>
      <trkpt lat="46.29149" lon="6.12564">
        <ele>449</ele>
        <time>2020-11-06T14:24:11.975Z</time>
      </trkpt>
      <trkpt lat="46.2915" lon="6.12564">
        <ele>449</ele>
        <time>2020-11-06T14:24:12.976Z</time>
      </trkpt>
      <trkpt lat="46.29152" lon="6.12564">
        <ele>449</ele>
        <time>2020-11-06T14:24:13.976Z</time>
      </trkpt>
      <trkpt lat="46.29153" lon="6.12564">
        <ele>449</ele>
        <time>2020-11-06T14:24:14.976Z</time>
      </trkpt>
      <trkpt lat="46.29154" lon="6.12565">
        <ele>449</ele>
        <time>2020-11-06T14:24:15.976Z</time>
      </trkpt>
      <trkpt lat="46.29156" lon="6.12565">
        <ele>449</ele>
        <time>2020-11-06T14:24:16.975Z</time>
      </trkpt>
      <trkpt lat="46.29158" lon="6.12564">
        <ele>449</ele>
        <time>2020-11-06T14:24:17.976Z</time>
      </trkpt>
      <trkpt lat="46.2916" lon="6.12564">
        <ele>450</ele>
        <time>2020-11-06T14:24:18.976Z</time>
      </trkpt>
      <trkpt lat="46.29162" lon="6.12563">
        <ele>450</ele>
        <time>2020-11-06T14:24:19.976Z</time>
      </trkpt>
      <trkpt lat="46.29163" lon="6.12563">
        <ele>450</ele>
        <time>2020-11-06T14:24:20.975Z</time>
      </trkpt>
      <trkpt lat="46.29165" lon="6.12562">
        <ele>451</ele>
        <time>2020-11-06T14:24:21.976Z</time>
      </trkpt>
      <trkpt lat="46.29166" lon="6.12561">
        <ele>451</ele>
        <time>2020-11-06T14:24:22.976Z</time>
      </trkpt>
      <trkpt lat="46.29168" lon="6.1256">
        <ele>451</ele>
        <time>2020-11-06T14:24:23.975Z</time>
      </trkpt>
      <trkpt lat="46.29169" lon="6.12559">
        <ele>452</ele>
        <time>2020-11-06T14:24:24.976Z</time>
      </trkpt>
      <trkpt lat="46.2917" lon="6.12557">
        <ele>452</ele>
        <time>2020-11-06T14:24:25.976Z</time>
      </trkpt>
      <trkpt lat="46.29171" lon="6.12556">
        <ele>453</ele>
        <time>2020-11-06T14:24:26.976Z</time>
      </trkpt>
      <trkpt lat="46.29173" lon="6.12556">
        <ele>454</ele>
        <time>2020-11-06T14:24:27.976Z</time>
      </trkpt>
      <trkpt lat="46.29174" lon="6.12555">
        <ele>455</ele>
        <time>2020-11-06T14:24:28.976Z</time>
      </trkpt>
      <trkpt lat="46.29176" lon="6.12553">
        <ele>455</ele>
        <time>2020-11-06T14:24:29.976Z</time>
      </trkpt>
      <trkpt lat="46.29178" lon="6.12551">
        <ele>456</ele>
        <time>2020-11-06T14:24:30.976Z</time>
      </trkpt>
      <trkpt lat="46.2918" lon="6.1255">
        <ele>456</ele>
        <time>2020-11-06T14:24:31.976Z</time>
      </trkpt>
      <trkpt lat="46.29182" lon="6.12549">
        <ele>457</ele>
        <time>2020-11-06T14:24:32.975Z</time>
      </trkpt>
      <trkpt lat="46.29184" lon="6.12547">
        <ele>457</ele>
        <time>2020-11-06T14:24:33.976Z</time>
      </trkpt>
      <trkpt lat="46.29186" lon="6.12546">
        <ele>458</ele>
        <time>2020-11-06T14:24:34.975Z</time>
      </trkpt>
      <trkpt lat="46.29188" lon="6.12544">
        <ele>458</ele>
        <time>2020-11-06T14:24:35.976Z</time>
      </trkpt>
      <trkpt lat="46.2919" lon="6.12542">
        <ele>458</ele>
        <time>2020-11-06T14:24:36.975Z</time>
      </trkpt>
      <trkpt lat="46.29192" lon="6.12541">
        <ele>458</ele>
        <time>2020-11-06T14:24:37.976Z</time>
      </trkpt>
      <trkpt lat="46.29194" lon="6.12539">
        <ele>458</ele>
        <time>2020-11-06T14:24:38.976Z</time>
      </trkpt>
      <trkpt lat="46.29196" lon="6.12538">
        <ele>458</ele>
        <time>2020-11-06T14:24:39.976Z</time>
      </trkpt>
      <trkpt lat="46.29198" lon="6.12537">
        <ele>459</ele>
        <time>2020-11-06T14:24:40.976Z</time>
      </trkpt>
      <trkpt lat="46.292" lon="6.12536">
        <ele>459</ele>
        <time>2020-11-06T14:24:41.976Z</time>
      </trkpt>
      <trkpt lat="46.29202" lon="6.12535">
        <ele>459</ele>
        <time>2020-11-06T14:24:42.976Z</time>
      </trkpt>
      <trkpt lat="46.29204" lon="6.12533">
        <ele>460</ele>
        <time>2020-11-06T14:24:43.976Z</time>
      </trkpt>
      <trkpt lat="46.29207" lon="6.12532">
        <ele>460</ele>
        <time>2020-11-06T14:24:44.976Z</time>
      </trkpt>
      <trkpt lat="46.29208" lon="6.12531">
        <ele>460</ele>
        <time>2020-11-06T14:24:45.976Z</time>
      </trkpt>
      <trkpt lat="46.2921" lon="6.1253">
        <ele>460</ele>
        <time>2020-11-06T14:24:46.975Z</time>
      </trkpt>
      <trkpt lat="46.29212" lon="6.12529">
        <ele>460</ele>
        <time>2020-11-06T14:24:47.976Z</time>
      </trkpt>
      <trkpt lat="46.29214" lon="6.12528">
        <ele>460</ele>
        <time>2020-11-06T14:24:48.976Z</time>
      </trkpt>
      <trkpt lat="46.29216" lon="6.12527">
        <ele>460</ele>
        <time>2020-11-06T14:24:49.975Z</time>
      </trkpt>
      <trkpt lat="46.29219" lon="6.12526">
        <ele>459</ele>
        <time>2020-11-06T14:24:50.976Z</time>
      </trkpt>
      <trkpt lat="46.2922" lon="6.12524">
        <ele>459</ele>
        <time>2020-11-06T14:24:51.975Z</time>
      </trkpt>
      <trkpt lat="46.29223" lon="6.12523">
        <ele>459</ele>
        <time>2020-11-06T14:24:52.976Z</time>
      </trkpt>
      <trkpt lat="46.29225" lon="6.12522">
        <ele>459</ele>
        <time>2020-11-06T14:24:53.976Z</time>
      </trkpt>
      <trkpt lat="46.29227" lon="6.12521">
        <ele>458</ele>
        <time>2020-11-06T14:24:54.975Z</time>
      </trkpt>
      <trkpt lat="46.29229" lon="6.12519">
        <ele>458</ele>
        <time>2020-11-06T14:24:55.975Z</time>
      </trkpt>
      <trkpt lat="46.29231" lon="6.12517">
        <ele>458</ele>
        <time>2020-11-06T14:24:56.976Z</time>
      </trkpt>
      <trkpt lat="46.29233" lon="6.12516">
        <ele>457</ele>
        <time>2020-11-06T14:24:57.976Z</time>
      </trkpt>
      <trkpt lat="46.29236" lon="6.12514">
        <ele>457</ele>
        <time>2020-11-06T14:24:58.976Z</time>
      </trkpt>
      <trkpt lat="46.29238" lon="6.12511">
        <ele>456</ele>
        <time>2020-11-06T14:24:59.976Z</time>
      </trkpt>
      <trkpt lat="46.2924" lon="6.1251">
        <ele>456</ele>
        <time>2020-11-06T14:25:00.976Z</time>
      </trkpt>
      <trkpt lat="46.29243" lon="6.12508">
        <ele>455</ele>
        <time>2020-11-06T14:25:01.976Z</time>
      </trkpt>
      <trkpt lat="46.29245" lon="6.12507">
        <ele>455</ele>
        <time>2020-11-06T14:25:02.975Z</time>
      </trkpt>
      <trkpt lat="46.29248" lon="6.12506">
        <ele>455</ele>
        <time>2020-11-06T14:25:03.976Z</time>
      </trkpt>
      <trkpt lat="46.2925" lon="6.12505">
        <ele>456</ele>
        <time>2020-11-06T14:25:04.976Z</time>
      </trkpt>
      <trkpt lat="46.29251" lon="6.12503">
        <ele>456</ele>
        <time>2020-11-06T14:25:05.976Z</time>
      </trkpt>
      <trkpt lat="46.29254" lon="6.12501">
        <ele>456</ele>
        <time>2020-11-06T14:25:06.975Z</time>
      </trkpt>
      <trkpt lat="46.29257" lon="6.12499">
        <ele>456</ele>
        <time>2020-11-06T14:25:07.975Z</time>
      </trkpt>
      <trkpt lat="46.2926" lon="6.12497">
        <ele>456</ele>
        <time>2020-11-06T14:25:08.975Z</time>
      </trkpt>
      <trkpt lat="46.29262" lon="6.12495">
        <ele>455</ele>
        <time>2020-11-06T14:25:09.976Z</time>
      </trkpt>
      <trkpt lat="46.29265" lon="6.12493">
        <ele>455</ele>
        <time>2020-11-06T14:25:10.976Z</time>
      </trkpt>
      <trkpt lat="46.29266" lon="6.12491">
        <ele>454</ele>
        <time>2020-11-06T14:25:11.976Z</time>
      </trkpt>
      <trkpt lat="46.29269" lon="6.12489">
        <ele>454</ele>
        <time>2020-11-06T14:25:12.975Z</time>
      </trkpt>
      <trkpt lat="46.29271" lon="6.12488">
        <ele>454</ele>
        <time>2020-11-06T14:25:13.975Z</time>
      </trkpt>
      <trkpt lat="46.29274" lon="6.12487">
        <ele>454</ele>
        <time>2020-11-06T14:25:14.976Z</time>
      </trkpt>
      <trkpt lat="46.29276" lon="6.12484">
        <ele>453</ele>
        <time>2020-11-06T14:25:15.975Z</time>
      </trkpt>
      <trkpt lat="46.29278" lon="6.12482">
        <ele>453</ele>
        <time>2020-11-06T14:25:16.976Z</time>
      </trkpt>
      <trkpt lat="46.2928" lon="6.12481">
        <ele>453</ele>
        <time>2020-11-06T14:25:17.975Z</time>
      </trkpt>
      <trkpt lat="46.29283" lon="6.12479">
        <ele>453</ele>
        <time>2020-11-06T14:25:18.976Z</time>
      </trkpt>
      <trkpt lat="46.29285" lon="6.12478">
        <ele>453</ele>
        <time>2020-11-06T14:25:19.975Z</time>
      </trkpt>
      <trkpt lat="46.29287" lon="6.12477">
        <ele>454</ele>
        <time>2020-11-06T14:25:20.975Z</time>
      </trkpt>
      <trkpt lat="46.29289" lon="6.12476">
        <ele>454</ele>
        <time>2020-11-06T14:25:21.975Z</time>
      </trkpt>
      <trkpt lat="46.29292" lon="6.12474">
        <ele>454</ele>
        <time>2020-11-06T14:25:22.976Z</time>
      </trkpt>
      <trkpt lat="46.29294" lon="6.12473">
        <ele>454</ele>
        <time>2020-11-06T14:25:23.976Z</time>
      </trkpt>
      <trkpt lat="46.29297" lon="6.12472">
        <ele>454</ele>
        <time>2020-11-06T14:25:24.975Z</time>
      </trkpt>
      <trkpt lat="46.29298" lon="6.12471">
        <ele>455</ele>
        <time>2020-11-06T14:25:25.975Z</time>
      </trkpt>
      <trkpt lat="46.29301" lon="6.1247">
        <ele>455</ele>
        <time>2020-11-06T14:25:26.976Z</time>
      </trkpt>
      <trkpt lat="46.29302" lon="6.12469">
        <ele>455</ele>
        <time>2020-11-06T14:25:27.975Z</time>
      </trkpt>
      <trkpt lat="46.29304" lon="6.12467">
        <ele>455</ele>
        <time>2020-11-06T14:25:28.975Z</time>
      </trkpt>
      <trkpt lat="46.29307" lon="6.12466">
        <ele>456</ele>
        <time>2020-11-06T14:25:29.976Z</time>
      </trkpt>
      <trkpt lat="46.29309" lon="6.12465">
        <ele>456</ele>
        <time>2020-11-06T14:25:30.975Z</time>
      </trkpt>
      <trkpt lat="46.29312" lon="6.12463">
        <ele>456</ele>
        <time>2020-11-06T14:25:31.975Z</time>
      </trkpt>
      <trkpt lat="46.29314" lon="6.12461">
        <ele>456</ele>
        <time>2020-11-06T14:25:32.976Z</time>
      </trkpt>
      <trkpt lat="46.29316" lon="6.12459">
        <ele>455</ele>
        <time>2020-11-06T14:25:33.975Z</time>
      </trkpt>
      <trkpt lat="46.29318" lon="6.12457">
        <ele>455</ele>
        <time>2020-11-06T14:25:34.975Z</time>
      </trkpt>
      <trkpt lat="46.29319" lon="6.12455">
        <ele>455</ele>
        <time>2020-11-06T14:25:35.975Z</time>
      </trkpt>
      <trkpt lat="46.29321" lon="6.12454">
        <ele>455</ele>
        <time>2020-11-06T14:25:36.975Z</time>
      </trkpt>
      <trkpt lat="46.29323" lon="6.12453">
        <ele>455</ele>
        <time>2020-11-06T14:25:37.975Z</time>
      </trkpt>
      <trkpt lat="46.29325" lon="6.12451">
        <ele>455</ele>
        <time>2020-11-06T14:25:38.975Z</time>
      </trkpt>
      <trkpt lat="46.29327" lon="6.12449">
        <ele>455</ele>
        <time>2020-11-06T14:25:39.975Z</time>
      </trkpt>
      <trkpt lat="46.29329" lon="6.12447">
        <ele>454</ele>
        <time>2020-11-06T14:25:40.975Z</time>
      </trkpt>
      <trkpt lat="46.29331" lon="6.12446">
        <ele>454</ele>
        <time>2020-11-06T14:25:41.975Z</time>
      </trkpt>
      <trkpt lat="46.29333" lon="6.12445">
        <ele>454</ele>
        <time>2020-11-06T14:25:42.976Z</time>
      </trkpt>
      <trkpt lat="46.29335" lon="6.12444">
        <ele>454</ele>
        <time>2020-11-06T14:25:43.975Z</time>
      </trkpt>
      <trkpt lat="46.29337" lon="6.12442">
        <ele>453</ele>
        <time>2020-11-06T14:25:44.975Z</time>
      </trkpt>
      <trkpt lat="46.29339" lon="6.12441">
        <ele>453</ele>
        <time>2020-11-06T14:25:45.975Z</time>
      </trkpt>
      <trkpt lat="46.29341" lon="6.1244">
        <ele>453</ele>
        <time>2020-11-06T14:25:46.976Z</time>
      </trkpt>
      <trkpt lat="46.29343" lon="6.12439">
        <ele>453</ele>
        <time>2020-11-06T14:25:47.976Z</time>
      </trkpt>
      <trkpt lat="46.29345" lon="6.12438">
        <ele>453</ele>
        <time>2020-11-06T14:25:48.976Z</time>
      </trkpt>
      <trkpt lat="46.29347" lon="6.12437">
        <ele>454</ele>
        <time>2020-11-06T14:25:49.976Z</time>
      </trkpt>
      <trkpt lat="46.2935" lon="6.12436">
        <ele>454</ele>
        <time>2020-11-06T14:25:50.976Z</time>
      </trkpt>
      <trkpt lat="46.29352" lon="6.12435">
        <ele>455</ele>
        <time>2020-11-06T14:25:51.975Z</time>
      </trkpt>
      <trkpt lat="46.29354" lon="6.12433">
        <ele>455</ele>
        <time>2020-11-06T14:25:52.975Z</time>
      </trkpt>
      <trkpt lat="46.29357" lon="6.12432">
        <ele>455</ele>
        <time>2020-11-06T14:25:53.975Z</time>
      </trkpt>
      <trkpt lat="46.29359" lon="6.1243">
        <ele>455</ele>
        <time>2020-11-06T14:25:54.976Z</time>
      </trkpt>
      <trkpt lat="46.29361" lon="6.12429">
        <ele>455</ele>
        <time>2020-11-06T14:25:55.976Z</time>
      </trkpt>
      <trkpt lat="46.29363" lon="6.12428">
        <ele>455</ele>
        <time>2020-11-06T14:25:56.975Z</time>
      </trkpt>
      <trkpt lat="46.29366" lon="6.12427">
        <ele>456</ele>
        <time>2020-11-06T14:25:57.976Z</time>
      </trkpt>
      <trkpt lat="46.29368" lon="6.12425">
        <ele>456</ele>
        <time>2020-11-06T14:25:58.976Z</time>
      </trkpt>
      <trkpt lat="46.2937" lon="6.12424">
        <ele>456</ele>
        <time>2020-11-06T14:25:59.976Z</time>
      </trkpt>
      <trkpt lat="46.29372" lon="6.12422">
        <ele>456</ele>
        <time>2020-11-06T14:26:00.976Z</time>
      </trkpt>
      <trkpt lat="46.29374" lon="6.12421">
        <ele>456</ele>
        <time>2020-11-06T14:26:01.976Z</time>
      </trkpt>
      <trkpt lat="46.29377" lon="6.1242">
        <ele>456</ele>
        <time>2020-11-06T14:26:02.975Z</time>
      </trkpt>
      <trkpt lat="46.29379" lon="6.12418">
        <ele>455</ele>
        <time>2020-11-06T14:26:03.976Z</time>
      </trkpt>
      <trkpt lat="46.29381" lon="6.12417">
        <ele>455</ele>
        <time>2020-11-06T14:26:04.976Z</time>
      </trkpt>
      <trkpt lat="46.29383" lon="6.12416">
        <ele>455</ele>
        <time>2020-11-06T14:26:05.976Z</time>
      </trkpt>
      <trkpt lat="46.29385" lon="6.12415">
        <ele>455</ele>
        <time>2020-11-06T14:26:06.975Z</time>
      </trkpt>
      <trkpt lat="46.29387" lon="6.12414">
        <ele>455</ele>
        <time>2020-11-06T14:26:07.976Z</time>
      </trkpt>
      <trkpt lat="46.29389" lon="6.12413">
        <ele>455</ele>
        <time>2020-11-06T14:26:08.975Z</time>
      </trkpt>
      <trkpt lat="46.29391" lon="6.12412">
        <ele>455</ele>
        <time>2020-11-06T14:26:09.976Z</time>
      </trkpt>
      <trkpt lat="46.29394" lon="6.12411">
        <ele>455</ele>
        <time>2020-11-06T14:26:10.976Z</time>
      </trkpt>
      <trkpt lat="46.29396" lon="6.12409">
        <ele>455</ele>
        <time>2020-11-06T14:26:11.976Z</time>
      </trkpt>
      <trkpt lat="46.29398" lon="6.12408">
        <ele>455</ele>
        <time>2020-11-06T14:26:12.975Z</time>
      </trkpt>
      <trkpt lat="46.294" lon="6.12406">
        <ele>455</ele>
        <time>2020-11-06T14:26:13.975Z</time>
      </trkpt>
      <trkpt lat="46.29402" lon="6.12405">
        <ele>455</ele>
        <time>2020-11-06T14:26:14.976Z</time>
      </trkpt>
      <trkpt lat="46.29405" lon="6.12404">
        <ele>455</ele>
        <time>2020-11-06T14:26:15.976Z</time>
      </trkpt>
      <trkpt lat="46.29407" lon="6.12403">
        <ele>455</ele>
        <time>2020-11-06T14:26:16.976Z</time>
      </trkpt>
      <trkpt lat="46.2941" lon="6.12402">
        <ele>455</ele>
        <time>2020-11-06T14:26:17.976Z</time>
      </trkpt>
      <trkpt lat="46.29412" lon="6.12401">
        <ele>455</ele>
        <time>2020-11-06T14:26:18.976Z</time>
      </trkpt>
      <trkpt lat="46.29414" lon="6.12399">
        <ele>455</ele>
        <time>2020-11-06T14:26:19.975Z</time>
      </trkpt>
      <trkpt lat="46.29418" lon="6.12397">
        <ele>455</ele>
        <time>2020-11-06T14:26:20.976Z</time>
      </trkpt>
      <trkpt lat="46.2942" lon="6.12396">
        <ele>455</ele>
        <time>2020-11-06T14:26:21.976Z</time>
      </trkpt>
      <trkpt lat="46.29423" lon="6.12395">
        <ele>455</ele>
        <time>2020-11-06T14:26:22.976Z</time>
      </trkpt>
      <trkpt lat="46.29425" lon="6.12394">
        <ele>454</ele>
        <time>2020-11-06T14:26:23.975Z</time>
      </trkpt>
      <trkpt lat="46.29428" lon="6.12393">
        <ele>454</ele>
        <time>2020-11-06T14:26:24.976Z</time>
      </trkpt>
      <trkpt lat="46.2943" lon="6.12391">
        <ele>455</ele>
        <time>2020-11-06T14:26:25.976Z</time>
      </trkpt>
      <trkpt lat="46.29432" lon="6.1239">
        <ele>455</ele>
        <time>2020-11-06T14:26:26.975Z</time>
      </trkpt>
      <trkpt lat="46.29434" lon="6.12388">
        <ele>455</ele>
        <time>2020-11-06T14:26:27.976Z</time>
      </trkpt>
      <trkpt lat="46.29437" lon="6.12387">
        <ele>456</ele>
        <time>2020-11-06T14:26:28.975Z</time>
      </trkpt>
      <trkpt lat="46.29439" lon="6.12385">
        <ele>456</ele>
        <time>2020-11-06T14:26:29.976Z</time>
      </trkpt>
      <trkpt lat="46.29441" lon="6.12383">
        <ele>456</ele>
        <time>2020-11-06T14:26:30.976Z</time>
      </trkpt>
      <trkpt lat="46.29443" lon="6.12382">
        <ele>456</ele>
        <time>2020-11-06T14:26:31.976Z</time>
      </trkpt>
      <trkpt lat="46.29445" lon="6.1238">
        <ele>456</ele>
        <time>2020-11-06T14:26:32.975Z</time>
      </trkpt>
      <trkpt lat="46.29448" lon="6.12379">
        <ele>457</ele>
        <time>2020-11-06T14:26:33.976Z</time>
      </trkpt>
      <trkpt lat="46.2945" lon="6.12378">
        <ele>457</ele>
        <time>2020-11-06T14:26:34.976Z</time>
      </trkpt>
      <trkpt lat="46.29452" lon="6.12376">
        <ele>457</ele>
        <time>2020-11-06T14:26:35.975Z</time>
      </trkpt>
      <trkpt lat="46.29454" lon="6.12375">
        <ele>457</ele>
        <time>2020-11-06T14:26:36.976Z</time>
      </trkpt>
      <trkpt lat="46.29456" lon="6.12374">
        <ele>457</ele>
        <time>2020-11-06T14:26:37.975Z</time>
      </trkpt>
      <trkpt lat="46.29458" lon="6.12373">
        <ele>457</ele>
        <time>2020-11-06T14:26:38.976Z</time>
      </trkpt>
      <trkpt lat="46.2946" lon="6.12372">
        <ele>458</ele>
        <time>2020-11-06T14:26:39.976Z</time>
      </trkpt>
      <trkpt lat="46.29462" lon="6.12371">
        <ele>458</ele>
        <time>2020-11-06T14:26:40.975Z</time>
      </trkpt>
      <trkpt lat="46.29464" lon="6.1237">
        <ele>458</ele>
        <time>2020-11-06T14:26:41.976Z</time>
      </trkpt>
      <trkpt lat="46.29466" lon="6.12369">
        <ele>458</ele>
        <time>2020-11-06T14:26:42.976Z</time>
      </trkpt>
      <trkpt lat="46.29468" lon="6.12368">
        <ele>458</ele>
        <time>2020-11-06T14:26:43.976Z</time>
      </trkpt>
      <trkpt lat="46.2947" lon="6.12366">
        <ele>457</ele>
        <time>2020-11-06T14:26:44.975Z</time>
      </trkpt>
      <trkpt lat="46.29472" lon="6.12365">
        <ele>457</ele>
        <time>2020-11-06T14:26:45.975Z</time>
      </trkpt>
      <trkpt lat="46.29474" lon="6.12364">
        <ele>457</ele>
        <time>2020-11-06T14:26:46.976Z</time>
      </trkpt>
      <trkpt lat="46.29476" lon="6.12363">
        <ele>457</ele>
        <time>2020-11-06T14:26:47.975Z</time>
      </trkpt>
      <trkpt lat="46.29478" lon="6.12361">
        <ele>457</ele>
        <time>2020-11-06T14:26:48.975Z</time>
      </trkpt>
      <trkpt lat="46.29481" lon="6.1236">
        <ele>457</ele>
        <time>2020-11-06T14:26:49.975Z</time>
      </trkpt>
      <trkpt lat="46.29483" lon="6.12359">
        <ele>457</ele>
        <time>2020-11-06T14:26:50.976Z</time>
      </trkpt>
      <trkpt lat="46.29485" lon="6.12357">
        <ele>457</ele>
        <time>2020-11-06T14:26:51.976Z</time>
      </trkpt>
      <trkpt lat="46.29487" lon="6.12356">
        <ele>457</ele>
        <time>2020-11-06T14:26:52.975Z</time>
      </trkpt>
      <trkpt lat="46.2949" lon="6.12355">
        <ele>457</ele>
        <time>2020-11-06T14:26:53.976Z</time>
      </trkpt>
      <trkpt lat="46.29492" lon="6.12354">
        <ele>457</ele>
        <time>2020-11-06T14:26:54.976Z</time>
      </trkpt>
      <trkpt lat="46.29494" lon="6.12353">
        <ele>458</ele>
        <time>2020-11-06T14:26:55.976Z</time>
      </trkpt>
      <trkpt lat="46.29496" lon="6.12351">
        <ele>458</ele>
        <time>2020-11-06T14:26:56.976Z</time>
      </trkpt>
      <trkpt lat="46.29498" lon="6.1235">
        <ele>458</ele>
        <time>2020-11-06T14:26:57.975Z</time>
      </trkpt>
      <trkpt lat="46.295" lon="6.12349">
        <ele>458</ele>
        <time>2020-11-06T14:26:58.976Z</time>
      </trkpt>
      <trkpt lat="46.29502" lon="6.12348">
        <ele>458</ele>
        <time>2020-11-06T14:26:59.976Z</time>
      </trkpt>
      <trkpt lat="46.29505" lon="6.12347">
        <ele>458</ele>
        <time>2020-11-06T14:27:00.976Z</time>
      </trkpt>
      <trkpt lat="46.29507" lon="6.12345">
        <ele>458</ele>
        <time>2020-11-06T14:27:01.976Z</time>
      </trkpt>
      <trkpt lat="46.29509" lon="6.12344">
        <ele>458</ele>
        <time>2020-11-06T14:27:02.976Z</time>
      </trkpt>
      <trkpt lat="46.29511" lon="6.12342">
        <ele>458</ele>
        <time>2020-11-06T14:27:03.976Z</time>
      </trkpt>
      <trkpt lat="46.29513" lon="6.12341">
        <ele>458</ele>
        <time>2020-11-06T14:27:04.976Z</time>
      </trkpt>
      <trkpt lat="46.29516" lon="6.1234">
        <ele>457</ele>
        <time>2020-11-06T14:27:05.976Z</time>
      </trkpt>
      <trkpt lat="46.29517" lon="6.12339">
        <ele>457</ele>
        <time>2020-11-06T14:27:06.975Z</time>
      </trkpt>
      <trkpt lat="46.2952" lon="6.12338">
        <ele>457</ele>
        <time>2020-11-06T14:27:07.976Z</time>
      </trkpt>
      <trkpt lat="46.29522" lon="6.12336">
        <ele>457</ele>
        <time>2020-11-06T14:27:08.976Z</time>
      </trkpt>
      <trkpt lat="46.29523" lon="6.12336">
        <ele>457</ele>
        <time>2020-11-06T14:27:09.975Z</time>
      </trkpt>
      <trkpt lat="46.29525" lon="6.12335">
        <ele>458</ele>
        <time>2020-11-06T14:27:10.976Z</time>
      </trkpt>
      <trkpt lat="46.29527" lon="6.12334">
        <ele>458</ele>
        <time>2020-11-06T14:27:11.976Z</time>
      </trkpt>
      <trkpt lat="46.2953" lon="6.12332">
        <ele>459</ele>
        <time>2020-11-06T14:27:12.976Z</time>
      </trkpt>
      <trkpt lat="46.29532" lon="6.12332">
        <ele>459</ele>
        <time>2020-11-06T14:27:13.975Z</time>
      </trkpt>
      <trkpt lat="46.29534" lon="6.12331">
        <ele>460</ele>
        <time>2020-11-06T14:27:14.975Z</time>
      </trkpt>
      <trkpt lat="46.29536" lon="6.12329">
        <ele>460</ele>
        <time>2020-11-06T14:27:15.975Z</time>
      </trkpt>
      <trkpt lat="46.29539" lon="6.12328">
        <ele>460</ele>
        <time>2020-11-06T14:27:16.976Z</time>
      </trkpt>
      <trkpt lat="46.29541" lon="6.12327">
        <ele>460</ele>
        <time>2020-11-06T14:27:17.976Z</time>
      </trkpt>
      <trkpt lat="46.29543" lon="6.12326">
        <ele>460</ele>
        <time>2020-11-06T14:27:18.976Z</time>
      </trkpt>
      <trkpt lat="46.29545" lon="6.12325">
        <ele>461</ele>
        <time>2020-11-06T14:27:19.976Z</time>
      </trkpt>
      <trkpt lat="46.29547" lon="6.12325">
        <ele>461</ele>
        <time>2020-11-06T14:27:20.976Z</time>
      </trkpt>
      <trkpt lat="46.29548" lon="6.12325">
        <ele>461</ele>
        <time>2020-11-06T14:27:21.975Z</time>
      </trkpt>
      <trkpt lat="46.2955" lon="6.12325">
        <ele>461</ele>
        <time>2020-11-06T14:27:22.975Z</time>
      </trkpt>
      <trkpt lat="46.29552" lon="6.12325">
        <ele>461</ele>
        <time>2020-11-06T14:27:23.975Z</time>
      </trkpt>
      <trkpt lat="46.29555" lon="6.12325">
        <ele>461</ele>
        <time>2020-11-06T14:27:24.976Z</time>
      </trkpt>
      <trkpt lat="46.29557" lon="6.12324">
        <ele>461</ele>
        <time>2020-11-06T14:27:25.976Z</time>
      </trkpt>
      <trkpt lat="46.29559" lon="6.12324">
        <ele>461</ele>
        <time>2020-11-06T14:27:26.976Z</time>
      </trkpt>
      <trkpt lat="46.29561" lon="6.12323">
        <ele>461</ele>
        <time>2020-11-06T14:27:27.976Z</time>
      </trkpt>
      <trkpt lat="46.29563" lon="6.12323">
        <ele>462</ele>
        <time>2020-11-06T14:27:28.976Z</time>
      </trkpt>
      <trkpt lat="46.29567" lon="6.12323">
        <ele>462</ele>
        <time>2020-11-06T14:27:29.976Z</time>
      </trkpt>
      <trkpt lat="46.29569" lon="6.12323">
        <ele>463</ele>
        <time>2020-11-06T14:27:30.976Z</time>
      </trkpt>
      <trkpt lat="46.29571" lon="6.12323">
        <ele>463</ele>
        <time>2020-11-06T14:27:31.976Z</time>
      </trkpt>
      <trkpt lat="46.29574" lon="6.12323">
        <ele>464</ele>
        <time>2020-11-06T14:27:32.976Z</time>
      </trkpt>
      <trkpt lat="46.29576" lon="6.12323">
        <ele>465</ele>
        <time>2020-11-06T14:27:33.976Z</time>
      </trkpt>
      <trkpt lat="46.29579" lon="6.12322">
        <ele>465</ele>
        <time>2020-11-06T14:27:34.976Z</time>
      </trkpt>
      <trkpt lat="46.29582" lon="6.12322">
        <ele>465</ele>
        <time>2020-11-06T14:27:35.976Z</time>
      </trkpt>
      <trkpt lat="46.29585" lon="6.12321">
        <ele>466</ele>
        <time>2020-11-06T14:27:36.976Z</time>
      </trkpt>
      <trkpt lat="46.29587" lon="6.12321">
        <ele>466</ele>
        <time>2020-11-06T14:27:37.976Z</time>
      </trkpt>
      <trkpt lat="46.2959" lon="6.12322">
        <ele>466</ele>
        <time>2020-11-06T14:27:38.976Z</time>
      </trkpt>
      <trkpt lat="46.29593" lon="6.12322">
        <ele>467</ele>
        <time>2020-11-06T14:27:39.976Z</time>
      </trkpt>
      <trkpt lat="46.29596" lon="6.12323">
        <ele>467</ele>
        <time>2020-11-06T14:27:40.976Z</time>
      </trkpt>
      <trkpt lat="46.29599" lon="6.12324">
        <ele>467</ele>
        <time>2020-11-06T14:27:41.976Z</time>
      </trkpt>
      <trkpt lat="46.29603" lon="6.12324">
        <ele>467</ele>
        <time>2020-11-06T14:27:42.975Z</time>
      </trkpt>
      <trkpt lat="46.29606" lon="6.12325">
        <ele>467</ele>
        <time>2020-11-06T14:27:43.976Z</time>
      </trkpt>
      <trkpt lat="46.29609" lon="6.12325">
        <ele>467</ele>
        <time>2020-11-06T14:27:44.975Z</time>
      </trkpt>
      <trkpt lat="46.29611" lon="6.12326">
        <ele>468</ele>
        <time>2020-11-06T14:27:45.976Z</time>
      </trkpt>
      <trkpt lat="46.29614" lon="6.12327">
        <ele>468</ele>
        <time>2020-11-06T14:27:46.976Z</time>
      </trkpt>
      <trkpt lat="46.29617" lon="6.12329">
        <ele>468</ele>
        <time>2020-11-06T14:27:47.975Z</time>
      </trkpt>
      <trkpt lat="46.29619" lon="6.1233">
        <ele>469</ele>
        <time>2020-11-06T14:27:48.976Z</time>
      </trkpt>
      <trkpt lat="46.29622" lon="6.12332">
        <ele>469</ele>
        <time>2020-11-06T14:27:49.975Z</time>
      </trkpt>
      <trkpt lat="46.29625" lon="6.12334">
        <ele>469</ele>
        <time>2020-11-06T14:27:50.976Z</time>
      </trkpt>
      <trkpt lat="46.29629" lon="6.12335">
        <ele>470</ele>
        <time>2020-11-06T14:27:51.976Z</time>
      </trkpt>
      <trkpt lat="46.29632" lon="6.12337">
        <ele>470</ele>
        <time>2020-11-06T14:27:52.976Z</time>
      </trkpt>
      <trkpt lat="46.29635" lon="6.12339">
        <ele>470</ele>
        <time>2020-11-06T14:27:53.975Z</time>
      </trkpt>
      <trkpt lat="46.29638" lon="6.1234">
        <ele>470</ele>
        <time>2020-11-06T14:27:54.975Z</time>
      </trkpt>
      <trkpt lat="46.29642" lon="6.12342">
        <ele>470</ele>
        <time>2020-11-06T14:27:55.976Z</time>
      </trkpt>
      <trkpt lat="46.29644" lon="6.12344">
        <ele>471</ele>
        <time>2020-11-06T14:27:56.976Z</time>
      </trkpt>
      <trkpt lat="46.29647" lon="6.12345">
        <ele>471</ele>
        <time>2020-11-06T14:27:57.976Z</time>
      </trkpt>
      <trkpt lat="46.2965" lon="6.12346">
        <ele>472</ele>
        <time>2020-11-06T14:27:58.976Z</time>
      </trkpt>
      <trkpt lat="46.29651" lon="6.12347">
        <ele>472</ele>
        <time>2020-11-06T14:27:59.976Z</time>
      </trkpt>
      <trkpt lat="46.29653" lon="6.12349">
        <ele>472</ele>
        <time>2020-11-06T14:28:00.975Z</time>
      </trkpt>
      <trkpt lat="46.29655" lon="6.12351">
        <ele>473</ele>
        <time>2020-11-06T14:28:01.976Z</time>
      </trkpt>
      <trkpt lat="46.29657" lon="6.12352">
        <ele>473</ele>
        <time>2020-11-06T14:28:02.976Z</time>
      </trkpt>
      <trkpt lat="46.2966" lon="6.12354">
        <ele>473</ele>
        <time>2020-11-06T14:28:03.976Z</time>
      </trkpt>
      <trkpt lat="46.29663" lon="6.12355">
        <ele>473</ele>
        <time>2020-11-06T14:28:04.975Z</time>
      </trkpt>
      <trkpt lat="46.29666" lon="6.12357">
        <ele>473</ele>
        <time>2020-11-06T14:28:05.975Z</time>
      </trkpt>
      <trkpt lat="46.29669" lon="6.12357">
        <ele>473</ele>
        <time>2020-11-06T14:28:06.976Z</time>
      </trkpt>
      <trkpt lat="46.29672" lon="6.12359">
        <ele>474</ele>
        <time>2020-11-06T14:28:07.976Z</time>
      </trkpt>
      <trkpt lat="46.29674" lon="6.1236">
        <ele>474</ele>
        <time>2020-11-06T14:28:08.976Z</time>
      </trkpt>
      <trkpt lat="46.29676" lon="6.12362">
        <ele>474</ele>
        <time>2020-11-06T14:28:09.976Z</time>
      </trkpt>
      <trkpt lat="46.29679" lon="6.12363">
        <ele>475</ele>
        <time>2020-11-06T14:28:10.976Z</time>
      </trkpt>
      <trkpt lat="46.29681" lon="6.12364">
        <ele>475</ele>
        <time>2020-11-06T14:28:11.976Z</time>
      </trkpt>
      <trkpt lat="46.29684" lon="6.12365">
        <ele>475</ele>
        <time>2020-11-06T14:28:12.975Z</time>
      </trkpt>
      <trkpt lat="46.29686" lon="6.12367">
        <ele>476</ele>
        <time>2020-11-06T14:28:13.976Z</time>
      </trkpt>
      <trkpt lat="46.29688" lon="6.12368">
        <ele>476</ele>
        <time>2020-11-06T14:28:14.976Z</time>
      </trkpt>
      <trkpt lat="46.29691" lon="6.12369">
        <ele>476</ele>
        <time>2020-11-06T14:28:15.975Z</time>
      </trkpt>
      <trkpt lat="46.29693" lon="6.1237">
        <ele>476</ele>
        <time>2020-11-06T14:28:16.975Z</time>
      </trkpt>
      <trkpt lat="46.29694" lon="6.12372">
        <ele>476</ele>
        <time>2020-11-06T14:28:17.975Z</time>
      </trkpt>
      <trkpt lat="46.29696" lon="6.12373">
        <ele>477</ele>
        <time>2020-11-06T14:28:18.975Z</time>
      </trkpt>
      <trkpt lat="46.29697" lon="6.12375">
        <ele>477</ele>
        <time>2020-11-06T14:28:19.975Z</time>
      </trkpt>
      <trkpt lat="46.29699" lon="6.12376">
        <ele>477</ele>
        <time>2020-11-06T14:28:20.975Z</time>
      </trkpt>
      <trkpt lat="46.29701" lon="6.12378">
        <ele>477</ele>
        <time>2020-11-06T14:28:21.975Z</time>
      </trkpt>
      <trkpt lat="46.29703" lon="6.12379">
        <ele>477</ele>
        <time>2020-11-06T14:28:22.976Z</time>
      </trkpt>
      <trkpt lat="46.29705" lon="6.12381">
        <ele>477</ele>
        <time>2020-11-06T14:28:23.976Z</time>
      </trkpt>
      <trkpt lat="46.29707" lon="6.12384">
        <ele>477</ele>
        <time>2020-11-06T14:28:24.976Z</time>
      </trkpt>
      <trkpt lat="46.29709" lon="6.12386">
        <ele>478</ele>
        <time>2020-11-06T14:28:25.975Z</time>
      </trkpt>
      <trkpt lat="46.29711" lon="6.12388">
        <ele>478</ele>
        <time>2020-11-06T14:28:26.976Z</time>
      </trkpt>
      <trkpt lat="46.29713" lon="6.1239">
        <ele>479</ele>
        <time>2020-11-06T14:28:27.976Z</time>
      </trkpt>
      <trkpt lat="46.29715" lon="6.12391">
        <ele>479</ele>
        <time>2020-11-06T14:28:28.976Z</time>
      </trkpt>
      <trkpt lat="46.29717" lon="6.12392">
        <ele>479</ele>
        <time>2020-11-06T14:28:29.976Z</time>
      </trkpt>
      <trkpt lat="46.29719" lon="6.12392">
        <ele>479</ele>
        <time>2020-11-06T14:28:30.976Z</time>
      </trkpt>
      <trkpt lat="46.29722" lon="6.12393">
        <ele>480</ele>
        <time>2020-11-06T14:28:31.976Z</time>
      </trkpt>
      <trkpt lat="46.29724" lon="6.12394">
        <ele>480</ele>
        <time>2020-11-06T14:28:32.975Z</time>
      </trkpt>
      <trkpt lat="46.29726" lon="6.12396">
        <ele>480</ele>
        <time>2020-11-06T14:28:33.975Z</time>
      </trkpt>
      <trkpt lat="46.29728" lon="6.12397">
        <ele>480</ele>
        <time>2020-11-06T14:28:34.975Z</time>
      </trkpt>
      <trkpt lat="46.29729" lon="6.12398">
        <ele>481</ele>
        <time>2020-11-06T14:28:35.975Z</time>
      </trkpt>
      <trkpt lat="46.29731" lon="6.12399">
        <ele>481</ele>
        <time>2020-11-06T14:28:36.976Z</time>
      </trkpt>
      <trkpt lat="46.29734" lon="6.124">
        <ele>481</ele>
        <time>2020-11-06T14:28:37.976Z</time>
      </trkpt>
      <trkpt lat="46.29736" lon="6.12403">
        <ele>481</ele>
        <time>2020-11-06T14:28:38.976Z</time>
      </trkpt>
      <trkpt lat="46.29739" lon="6.12406">
        <ele>481</ele>
        <time>2020-11-06T14:28:39.976Z</time>
      </trkpt>
      <trkpt lat="46.29742" lon="6.12409">
        <ele>481</ele>
        <time>2020-11-06T14:28:40.976Z</time>
      </trkpt>
      <trkpt lat="46.29745" lon="6.12412">
        <ele>481</ele>
        <time>2020-11-06T14:28:41.976Z</time>
      </trkpt>
      <trkpt lat="46.29748" lon="6.12414">
        <ele>481</ele>
        <time>2020-11-06T14:28:42.975Z</time>
      </trkpt>
      <trkpt lat="46.2975" lon="6.12416">
        <ele>481</ele>
        <time>2020-11-06T14:28:43.976Z</time>
      </trkpt>
      <trkpt lat="46.29752" lon="6.12417">
        <ele>481</ele>
        <time>2020-11-06T14:28:44.976Z</time>
      </trkpt>
      <trkpt lat="46.29754" lon="6.12417">
        <ele>481</ele>
        <time>2020-11-06T14:28:45.975Z</time>
      </trkpt>
      <trkpt lat="46.29755" lon="6.12417">
        <ele>481</ele>
        <time>2020-11-06T14:28:46.976Z</time>
      </trkpt>
      <trkpt lat="46.29758" lon="6.12418">
        <ele>481</ele>
        <time>2020-11-06T14:28:47.976Z</time>
      </trkpt>
      <trkpt lat="46.2976" lon="6.12419">
        <ele>481</ele>
        <time>2020-11-06T14:28:48.976Z</time>
      </trkpt>
      <trkpt lat="46.29763" lon="6.1242">
        <ele>481</ele>
        <time>2020-11-06T14:28:49.975Z</time>
      </trkpt>
      <trkpt lat="46.29765" lon="6.12421">
        <ele>481</ele>
        <time>2020-11-06T14:28:50.976Z</time>
      </trkpt>
      <trkpt lat="46.29767" lon="6.12423">
        <ele>481</ele>
        <time>2020-11-06T14:28:51.976Z</time>
      </trkpt>
      <trkpt lat="46.29769" lon="6.12424">
        <ele>481</ele>
        <time>2020-11-06T14:28:52.976Z</time>
      </trkpt>
      <trkpt lat="46.29771" lon="6.12425">
        <ele>481</ele>
        <time>2020-11-06T14:28:53.976Z</time>
      </trkpt>
      <trkpt lat="46.29772" lon="6.12426">
        <ele>481</ele>
        <time>2020-11-06T14:28:54.976Z</time>
      </trkpt>
      <trkpt lat="46.29774" lon="6.12428">
        <ele>480</ele>
        <time>2020-11-06T14:28:55.976Z</time>
      </trkpt>
      <trkpt lat="46.29776" lon="6.12429">
        <ele>480</ele>
        <time>2020-11-06T14:28:56.976Z</time>
      </trkpt>
      <trkpt lat="46.29778" lon="6.1243">
        <ele>480</ele>
        <time>2020-11-06T14:28:57.976Z</time>
      </trkpt>
      <trkpt lat="46.29779" lon="6.12432">
        <ele>480</ele>
        <time>2020-11-06T14:28:58.976Z</time>
      </trkpt>
      <trkpt lat="46.29782" lon="6.12433">
        <ele>480</ele>
        <time>2020-11-06T14:28:59.976Z</time>
      </trkpt>
      <trkpt lat="46.29784" lon="6.12434">
        <ele>481</ele>
        <time>2020-11-06T14:29:00.976Z</time>
      </trkpt>
      <trkpt lat="46.29786" lon="6.12435">
        <ele>481</ele>
        <time>2020-11-06T14:29:01.976Z</time>
      </trkpt>
      <trkpt lat="46.29788" lon="6.12435">
        <ele>480</ele>
        <time>2020-11-06T14:29:02.976Z</time>
      </trkpt>
      <trkpt lat="46.2979" lon="6.12436">
        <ele>480</ele>
        <time>2020-11-06T14:29:03.975Z</time>
      </trkpt>
      <trkpt lat="46.29792" lon="6.12435">
        <ele>479</ele>
        <time>2020-11-06T14:29:04.975Z</time>
      </trkpt>
      <trkpt lat="46.29795" lon="6.12436">
        <ele>479</ele>
        <time>2020-11-06T14:29:05.976Z</time>
      </trkpt>
      <trkpt lat="46.29798" lon="6.12436">
        <ele>479</ele>
        <time>2020-11-06T14:29:06.976Z</time>
      </trkpt>
      <trkpt lat="46.298" lon="6.12437">
        <ele>479</ele>
        <time>2020-11-06T14:29:07.976Z</time>
      </trkpt>
      <trkpt lat="46.29803" lon="6.12437">
        <ele>479</ele>
        <time>2020-11-06T14:29:08.976Z</time>
      </trkpt>
      <trkpt lat="46.29805" lon="6.12438">
        <ele>480</ele>
        <time>2020-11-06T14:29:09.976Z</time>
      </trkpt>
      <trkpt lat="46.29807" lon="6.12439">
        <ele>480</ele>
        <time>2020-11-06T14:29:10.976Z</time>
      </trkpt>
      <trkpt lat="46.2981" lon="6.1244">
        <ele>481</ele>
        <time>2020-11-06T14:29:11.976Z</time>
      </trkpt>
      <trkpt lat="46.29812" lon="6.12441">
        <ele>481</ele>
        <time>2020-11-06T14:29:12.976Z</time>
      </trkpt>
      <trkpt lat="46.29815" lon="6.12441">
        <ele>481</ele>
        <time>2020-11-06T14:29:13.976Z</time>
      </trkpt>
      <trkpt lat="46.29817" lon="6.12442">
        <ele>481</ele>
        <time>2020-11-06T14:29:14.975Z</time>
      </trkpt>
      <trkpt lat="46.29819" lon="6.12442">
        <ele>481</ele>
        <time>2020-11-06T14:29:15.975Z</time>
      </trkpt>
      <trkpt lat="46.29821" lon="6.12443">
        <ele>480</ele>
        <time>2020-11-06T14:29:16.976Z</time>
      </trkpt>
      <trkpt lat="46.29824" lon="6.12444">
        <ele>480</ele>
        <time>2020-11-06T14:29:17.976Z</time>
      </trkpt>
      <trkpt lat="46.29826" lon="6.12445">
        <ele>480</ele>
        <time>2020-11-06T14:29:18.975Z</time>
      </trkpt>
      <trkpt lat="46.29829" lon="6.12446">
        <ele>480</ele>
        <time>2020-11-06T14:29:19.975Z</time>
      </trkpt>
      <trkpt lat="46.29831" lon="6.12447">
        <ele>480</ele>
        <time>2020-11-06T14:29:20.976Z</time>
      </trkpt>
      <trkpt lat="46.29833" lon="6.12448">
        <ele>480</ele>
        <time>2020-11-06T14:29:21.976Z</time>
      </trkpt>
      <trkpt lat="46.29835" lon="6.12448">
        <ele>479</ele>
        <time>2020-11-06T14:29:22.976Z</time>
      </trkpt>
      <trkpt lat="46.29838" lon="6.12448">
        <ele>479</ele>
        <time>2020-11-06T14:29:23.976Z</time>
      </trkpt>
      <trkpt lat="46.29841" lon="6.12449">
        <ele>479</ele>
        <time>2020-11-06T14:29:24.975Z</time>
      </trkpt>
      <trkpt lat="46.29844" lon="6.12449">
        <ele>479</ele>
        <time>2020-11-06T14:29:25.976Z</time>
      </trkpt>
      <trkpt lat="46.29847" lon="6.1245">
        <ele>479</ele>
        <time>2020-11-06T14:29:26.975Z</time>
      </trkpt>
      <trkpt lat="46.29851" lon="6.12451">
        <ele>479</ele>
        <time>2020-11-06T14:29:27.975Z</time>
      </trkpt>
      <trkpt lat="46.29854" lon="6.12453">
        <ele>479</ele>
        <time>2020-11-06T14:29:28.976Z</time>
      </trkpt>
      <trkpt lat="46.29857" lon="6.12455">
        <ele>478</ele>
        <time>2020-11-06T14:29:29.976Z</time>
      </trkpt>
      <trkpt lat="46.29859" lon="6.12456">
        <ele>478</ele>
        <time>2020-11-06T14:29:30.976Z</time>
      </trkpt>
      <trkpt lat="46.29861" lon="6.12457">
        <ele>478</ele>
        <time>2020-11-06T14:29:31.975Z</time>
      </trkpt>
      <trkpt lat="46.29864" lon="6.12457">
        <ele>478</ele>
        <time>2020-11-06T14:29:32.976Z</time>
      </trkpt>
      <trkpt lat="46.29866" lon="6.12457">
        <ele>478</ele>
        <time>2020-11-06T14:29:33.975Z</time>
      </trkpt>
      <trkpt lat="46.29868" lon="6.12459">
        <ele>478</ele>
        <time>2020-11-06T14:29:34.976Z</time>
      </trkpt>
      <trkpt lat="46.29871" lon="6.1246">
        <ele>478</ele>
        <time>2020-11-06T14:29:35.976Z</time>
      </trkpt>
      <trkpt lat="46.29873" lon="6.12461">
        <ele>478</ele>
        <time>2020-11-06T14:29:36.975Z</time>
      </trkpt>
      <trkpt lat="46.29875" lon="6.12463">
        <ele>479</ele>
        <time>2020-11-06T14:29:37.976Z</time>
      </trkpt>
      <trkpt lat="46.29877" lon="6.12464">
        <ele>479</ele>
        <time>2020-11-06T14:29:38.976Z</time>
      </trkpt>
      <trkpt lat="46.29879" lon="6.12465">
        <ele>479</ele>
        <time>2020-11-06T14:29:39.976Z</time>
      </trkpt>
      <trkpt lat="46.29882" lon="6.12466">
        <ele>480</ele>
        <time>2020-11-06T14:29:40.975Z</time>
      </trkpt>
      <trkpt lat="46.29885" lon="6.12466">
        <ele>480</ele>
        <time>2020-11-06T14:29:41.976Z</time>
      </trkpt>
      <trkpt lat="46.29888" lon="6.12468">
        <ele>480</ele>
        <time>2020-11-06T14:29:42.976Z</time>
      </trkpt>
      <trkpt lat="46.29891" lon="6.12469">
        <ele>480</ele>
        <time>2020-11-06T14:29:43.976Z</time>
      </trkpt>
      <trkpt lat="46.29893" lon="6.12469">
        <ele>480</ele>
        <time>2020-11-06T14:29:44.975Z</time>
      </trkpt>
      <trkpt lat="46.29896" lon="6.1247">
        <ele>480</ele>
        <time>2020-11-06T14:29:45.976Z</time>
      </trkpt>
      <trkpt lat="46.29899" lon="6.12471">
        <ele>481</ele>
        <time>2020-11-06T14:29:46.976Z</time>
      </trkpt>
      <trkpt lat="46.29901" lon="6.12471">
        <ele>481</ele>
        <time>2020-11-06T14:29:47.975Z</time>
      </trkpt>
      <trkpt lat="46.29904" lon="6.12471">
        <ele>481</ele>
        <time>2020-11-06T14:29:48.976Z</time>
      </trkpt>
      <trkpt lat="46.29906" lon="6.12471">
        <ele>480</ele>
        <time>2020-11-06T14:29:49.976Z</time>
      </trkpt>
      <trkpt lat="46.29909" lon="6.12471">
        <ele>480</ele>
        <time>2020-11-06T14:29:50.976Z</time>
      </trkpt>
      <trkpt lat="46.29912" lon="6.12471">
        <ele>480</ele>
        <time>2020-11-06T14:29:51.975Z</time>
      </trkpt>
      <trkpt lat="46.29914" lon="6.12472">
        <ele>479</ele>
        <time>2020-11-06T14:29:52.976Z</time>
      </trkpt>
      <trkpt lat="46.29917" lon="6.12472">
        <ele>478</ele>
        <time>2020-11-06T14:29:53.976Z</time>
      </trkpt>
      <trkpt lat="46.29919" lon="6.12473">
        <ele>478</ele>
        <time>2020-11-06T14:29:54.976Z</time>
      </trkpt>
      <trkpt lat="46.29921" lon="6.12474">
        <ele>477</ele>
        <time>2020-11-06T14:29:55.976Z</time>
      </trkpt>
      <trkpt lat="46.29924" lon="6.12475">
        <ele>477</ele>
        <time>2020-11-06T14:29:56.976Z</time>
      </trkpt>
      <trkpt lat="46.29926" lon="6.12475">
        <ele>477</ele>
        <time>2020-11-06T14:29:57.975Z</time>
      </trkpt>
      <trkpt lat="46.29929" lon="6.12474">
        <ele>477</ele>
        <time>2020-11-06T14:29:58.976Z</time>
      </trkpt>
      <trkpt lat="46.29932" lon="6.12474">
        <ele>477</ele>
        <time>2020-11-06T14:29:59.975Z</time>
      </trkpt>
      <trkpt lat="46.29934" lon="6.12475">
        <ele>477</ele>
        <time>2020-11-06T14:30:00.975Z</time>
      </trkpt>
      <trkpt lat="46.29936" lon="6.12477">
        <ele>477</ele>
        <time>2020-11-06T14:30:01.976Z</time>
      </trkpt>
      <trkpt lat="46.29939" lon="6.12478">
        <ele>477</ele>
        <time>2020-11-06T14:30:02.976Z</time>
      </trkpt>
      <trkpt lat="46.29941" lon="6.12478">
        <ele>477</ele>
        <time>2020-11-06T14:30:03.975Z</time>
      </trkpt>
      <trkpt lat="46.29944" lon="6.12478">
        <ele>477</ele>
        <time>2020-11-06T14:30:04.975Z</time>
      </trkpt>
      <trkpt lat="46.29947" lon="6.12479">
        <ele>478</ele>
        <time>2020-11-06T14:30:05.975Z</time>
      </trkpt>
      <trkpt lat="46.2995" lon="6.1248">
        <ele>478</ele>
        <time>2020-11-06T14:30:06.975Z</time>
      </trkpt>
      <trkpt lat="46.29952" lon="6.1248">
        <ele>479</ele>
        <time>2020-11-06T14:30:07.975Z</time>
      </trkpt>
      <trkpt lat="46.29955" lon="6.12481">
        <ele>479</ele>
        <time>2020-11-06T14:30:08.975Z</time>
      </trkpt>
      <trkpt lat="46.29957" lon="6.12481">
        <ele>480</ele>
        <time>2020-11-06T14:30:09.975Z</time>
      </trkpt>
      <trkpt lat="46.2996" lon="6.12482">
        <ele>480</ele>
        <time>2020-11-06T14:30:10.976Z</time>
      </trkpt>
      <trkpt lat="46.29962" lon="6.12482">
        <ele>480</ele>
        <time>2020-11-06T14:30:11.976Z</time>
      </trkpt>
      <trkpt lat="46.29965" lon="6.12483">
        <ele>481</ele>
        <time>2020-11-06T14:30:12.976Z</time>
      </trkpt>
      <trkpt lat="46.29967" lon="6.12483">
        <ele>480</ele>
        <time>2020-11-06T14:30:13.976Z</time>
      </trkpt>
      <trkpt lat="46.29969" lon="6.12484">
        <ele>480</ele>
        <time>2020-11-06T14:30:14.975Z</time>
      </trkpt>
      <trkpt lat="46.29972" lon="6.12484">
        <ele>480</ele>
        <time>2020-11-06T14:30:15.975Z</time>
      </trkpt>
      <trkpt lat="46.29975" lon="6.12485">
        <ele>480</ele>
        <time>2020-11-06T14:30:16.975Z</time>
      </trkpt>
      <trkpt lat="46.29977" lon="6.12486">
        <ele>480</ele>
        <time>2020-11-06T14:30:17.975Z</time>
      </trkpt>
      <trkpt lat="46.29979" lon="6.12486">
        <ele>480</ele>
        <time>2020-11-06T14:30:18.976Z</time>
      </trkpt>
      <trkpt lat="46.29982" lon="6.12487">
        <ele>480</ele>
        <time>2020-11-06T14:30:19.976Z</time>
      </trkpt>
      <trkpt lat="46.29985" lon="6.12486">
        <ele>480</ele>
        <time>2020-11-06T14:30:20.976Z</time>
      </trkpt>
      <trkpt lat="46.29988" lon="6.12486">
        <ele>480</ele>
        <time>2020-11-06T14:30:21.976Z</time>
      </trkpt>
      <trkpt lat="46.29991" lon="6.12485">
        <ele>479</ele>
        <time>2020-11-06T14:30:22.976Z</time>
      </trkpt>
      <trkpt lat="46.29994" lon="6.12486">
        <ele>479</ele>
        <time>2020-11-06T14:30:23.975Z</time>
      </trkpt>
      <trkpt lat="46.29997" lon="6.12487">
        <ele>479</ele>
        <time>2020-11-06T14:30:24.975Z</time>
      </trkpt>
      <trkpt lat="46.29999" lon="6.12489">
        <ele>479</ele>
        <time>2020-11-06T14:30:25.975Z</time>
      </trkpt>
      <trkpt lat="46.30001" lon="6.12489">
        <ele>479</ele>
        <time>2020-11-06T14:30:26.976Z</time>
      </trkpt>
      <trkpt lat="46.30005" lon="6.12491">
        <ele>479</ele>
        <time>2020-11-06T14:30:27.975Z</time>
      </trkpt>
      <trkpt lat="46.30008" lon="6.12492">
        <ele>479</ele>
        <time>2020-11-06T14:30:28.976Z</time>
      </trkpt>
      <trkpt lat="46.30011" lon="6.12493">
        <ele>479</ele>
        <time>2020-11-06T14:30:29.976Z</time>
      </trkpt>
      <trkpt lat="46.30013" lon="6.12494">
        <ele>479</ele>
        <time>2020-11-06T14:30:30.976Z</time>
      </trkpt>
      <trkpt lat="46.30016" lon="6.12493">
        <ele>479</ele>
        <time>2020-11-06T14:30:31.976Z</time>
      </trkpt>
      <trkpt lat="46.30018" lon="6.12493">
        <ele>479</ele>
        <time>2020-11-06T14:30:32.976Z</time>
      </trkpt>
      <trkpt lat="46.30021" lon="6.12493">
        <ele>479</ele>
        <time>2020-11-06T14:30:33.976Z</time>
      </trkpt>
      <trkpt lat="46.30024" lon="6.12493">
        <ele>479</ele>
        <time>2020-11-06T14:30:34.976Z</time>
      </trkpt>
      <trkpt lat="46.30026" lon="6.12493">
        <ele>479</ele>
        <time>2020-11-06T14:30:35.976Z</time>
      </trkpt>
      <trkpt lat="46.30029" lon="6.12493">
        <ele>479</ele>
        <time>2020-11-06T14:30:36.976Z</time>
      </trkpt>
      <trkpt lat="46.30032" lon="6.12493">
        <ele>479</ele>
        <time>2020-11-06T14:30:37.976Z</time>
      </trkpt>
      <trkpt lat="46.30035" lon="6.12494">
        <ele>479</ele>
        <time>2020-11-06T14:30:38.976Z</time>
      </trkpt>
      <trkpt lat="46.30038" lon="6.12494">
        <ele>479</ele>
        <time>2020-11-06T14:30:39.975Z</time>
      </trkpt>
      <trkpt lat="46.3004" lon="6.12494">
        <ele>479</ele>
        <time>2020-11-06T14:30:40.976Z</time>
      </trkpt>
      <trkpt lat="46.30043" lon="6.12494">
        <ele>478</ele>
        <time>2020-11-06T14:30:41.976Z</time>
      </trkpt>
      <trkpt lat="46.30045" lon="6.12495">
        <ele>478</ele>
        <time>2020-11-06T14:30:42.976Z</time>
      </trkpt>
      <trkpt lat="46.30048" lon="6.12495">
        <ele>478</ele>
        <time>2020-11-06T14:30:43.976Z</time>
      </trkpt>
      <trkpt lat="46.30049" lon="6.12496">
        <ele>477</ele>
        <time>2020-11-06T14:30:44.976Z</time>
      </trkpt>
      <trkpt lat="46.30051" lon="6.12498">
        <ele>477</ele>
        <time>2020-11-06T14:30:45.975Z</time>
      </trkpt>
      <trkpt lat="46.30052" lon="6.12499">
        <ele>477</ele>
        <time>2020-11-06T14:30:46.976Z</time>
      </trkpt>
      <trkpt lat="46.30053" lon="6.12501">
        <ele>476</ele>
        <time>2020-11-06T14:30:47.975Z</time>
      </trkpt>
      <trkpt lat="46.30052" lon="6.12503">
        <ele>476</ele>
        <time>2020-11-06T14:30:48.976Z</time>
      </trkpt>
      <trkpt lat="46.30051" lon="6.12505">
        <ele>475</ele>
        <time>2020-11-06T14:30:49.976Z</time>
      </trkpt>
      <trkpt lat="46.3005" lon="6.12508">
        <ele>475</ele>
        <time>2020-11-06T14:30:50.975Z</time>
      </trkpt>
      <trkpt lat="46.30048" lon="6.1251">
        <ele>474</ele>
        <time>2020-11-06T14:30:51.975Z</time>
      </trkpt>
      <trkpt lat="46.30046" lon="6.12513">
        <ele>474</ele>
        <time>2020-11-06T14:30:52.976Z</time>
      </trkpt>
      <trkpt lat="46.30044" lon="6.12516">
        <ele>473</ele>
        <time>2020-11-06T14:30:53.976Z</time>
      </trkpt>
      <trkpt lat="46.30042" lon="6.12518">
        <ele>473</ele>
        <time>2020-11-06T14:30:54.976Z</time>
      </trkpt>
      <trkpt lat="46.3004" lon="6.12521">
        <ele>472</ele>
        <time>2020-11-06T14:30:55.976Z</time>
      </trkpt>
      <trkpt lat="46.30038" lon="6.12524">
        <ele>472</ele>
        <time>2020-11-06T14:30:56.976Z</time>
      </trkpt>
      <trkpt lat="46.30035" lon="6.12526">
        <ele>472</ele>
        <time>2020-11-06T14:30:57.975Z</time>
      </trkpt>
      <trkpt lat="46.30033" lon="6.12529">
        <ele>472</ele>
        <time>2020-11-06T14:30:58.976Z</time>
      </trkpt>
      <trkpt lat="46.30031" lon="6.12531">
        <ele>472</ele>
        <time>2020-11-06T14:30:59.975Z</time>
      </trkpt>
      <trkpt lat="46.3003" lon="6.12534">
        <ele>471</ele>
        <time>2020-11-06T14:31:00.975Z</time>
      </trkpt>
      <trkpt lat="46.30028" lon="6.12537">
        <ele>471</ele>
        <time>2020-11-06T14:31:01.976Z</time>
      </trkpt>
      <trkpt lat="46.30026" lon="6.12539">
        <ele>471</ele>
        <time>2020-11-06T14:31:02.976Z</time>
      </trkpt>
      <trkpt lat="46.30024" lon="6.12541">
        <ele>470</ele>
        <time>2020-11-06T14:31:03.976Z</time>
      </trkpt>
      <trkpt lat="46.30022" lon="6.12544">
        <ele>470</ele>
        <time>2020-11-06T14:31:04.976Z</time>
      </trkpt>
      <trkpt lat="46.3002" lon="6.12547">
        <ele>470</ele>
        <time>2020-11-06T14:31:05.976Z</time>
      </trkpt>
      <trkpt lat="46.30017" lon="6.1255">
        <ele>470</ele>
        <time>2020-11-06T14:31:06.975Z</time>
      </trkpt>
      <trkpt lat="46.30014" lon="6.12553">
        <ele>470</ele>
        <time>2020-11-06T14:31:07.976Z</time>
      </trkpt>
      <trkpt lat="46.30012" lon="6.12556">
        <ele>469</ele>
        <time>2020-11-06T14:31:08.976Z</time>
      </trkpt>
      <trkpt lat="46.3001" lon="6.12559">
        <ele>469</ele>
        <time>2020-11-06T14:31:09.976Z</time>
      </trkpt>
      <trkpt lat="46.30007" lon="6.12562">
        <ele>470</ele>
        <time>2020-11-06T14:31:10.976Z</time>
      </trkpt>
      <trkpt lat="46.30005" lon="6.12565">
        <ele>470</ele>
        <time>2020-11-06T14:31:11.975Z</time>
      </trkpt>
      <trkpt lat="46.30003" lon="6.12568">
        <ele>470</ele>
        <time>2020-11-06T14:31:12.976Z</time>
      </trkpt>
      <trkpt lat="46.30001" lon="6.12571">
        <ele>471</ele>
        <time>2020-11-06T14:31:13.975Z</time>
      </trkpt>
      <trkpt lat="46.29999" lon="6.12574">
        <ele>471</ele>
        <time>2020-11-06T14:31:14.976Z</time>
      </trkpt>
      <trkpt lat="46.29998" lon="6.12577">
        <ele>471</ele>
        <time>2020-11-06T14:31:15.976Z</time>
      </trkpt>
      <trkpt lat="46.29996" lon="6.1258">
        <ele>472</ele>
        <time>2020-11-06T14:31:16.976Z</time>
      </trkpt>
      <trkpt lat="46.29994" lon="6.12584">
        <ele>472</ele>
        <time>2020-11-06T14:31:17.975Z</time>
      </trkpt>
      <trkpt lat="46.29992" lon="6.12587">
        <ele>472</ele>
        <time>2020-11-06T14:31:18.976Z</time>
      </trkpt>
      <trkpt lat="46.2999" lon="6.1259">
        <ele>472</ele>
        <time>2020-11-06T14:31:19.976Z</time>
      </trkpt>
      <trkpt lat="46.29987" lon="6.12593">
        <ele>473</ele>
        <time>2020-11-06T14:31:20.976Z</time>
      </trkpt>
      <trkpt lat="46.29985" lon="6.12596">
        <ele>473</ele>
        <time>2020-11-06T14:31:21.976Z</time>
      </trkpt>
      <trkpt lat="46.29983" lon="6.12599">
        <ele>474</ele>
        <time>2020-11-06T14:31:22.975Z</time>
      </trkpt>
      <trkpt lat="46.2998" lon="6.12601">
        <ele>474</ele>
        <time>2020-11-06T14:31:23.975Z</time>
      </trkpt>
      <trkpt lat="46.29979" lon="6.12603">
        <ele>475</ele>
        <time>2020-11-06T14:31:24.975Z</time>
      </trkpt>
      <trkpt lat="46.29976" lon="6.12607">
        <ele>475</ele>
        <time>2020-11-06T14:31:25.975Z</time>
      </trkpt>
      <trkpt lat="46.29974" lon="6.12609">
        <ele>476</ele>
        <time>2020-11-06T14:31:26.976Z</time>
      </trkpt>
      <trkpt lat="46.29971" lon="6.12611">
        <ele>476</ele>
        <time>2020-11-06T14:31:27.976Z</time>
      </trkpt>
      <trkpt lat="46.29969" lon="6.12613">
        <ele>477</ele>
        <time>2020-11-06T14:31:28.976Z</time>
      </trkpt>
      <trkpt lat="46.29967" lon="6.12616">
        <ele>477</ele>
        <time>2020-11-06T14:31:29.975Z</time>
      </trkpt>
      <trkpt lat="46.29965" lon="6.12618">
        <ele>478</ele>
        <time>2020-11-06T14:31:30.976Z</time>
      </trkpt>
      <trkpt lat="46.29964" lon="6.12621">
        <ele>478</ele>
        <time>2020-11-06T14:31:31.975Z</time>
      </trkpt>
      <trkpt lat="46.29962" lon="6.12624">
        <ele>478</ele>
        <time>2020-11-06T14:31:32.976Z</time>
      </trkpt>
      <trkpt lat="46.29961" lon="6.12628">
        <ele>478</ele>
        <time>2020-11-06T14:31:33.975Z</time>
      </trkpt>
      <trkpt lat="46.2996" lon="6.1263">
        <ele>478</ele>
        <time>2020-11-06T14:31:34.975Z</time>
      </trkpt>
      <trkpt lat="46.29957" lon="6.12633">
        <ele>477</ele>
        <time>2020-11-06T14:31:35.975Z</time>
      </trkpt>
      <trkpt lat="46.29955" lon="6.12636">
        <ele>477</ele>
        <time>2020-11-06T14:31:36.975Z</time>
      </trkpt>
      <trkpt lat="46.29953" lon="6.12639">
        <ele>477</ele>
        <time>2020-11-06T14:31:37.976Z</time>
      </trkpt>
      <trkpt lat="46.2995" lon="6.12641">
        <ele>477</ele>
        <time>2020-11-06T14:31:38.976Z</time>
      </trkpt>
      <trkpt lat="46.29949" lon="6.12644">
        <ele>477</ele>
        <time>2020-11-06T14:31:39.976Z</time>
      </trkpt>
      <trkpt lat="46.29946" lon="6.12647">
        <ele>477</ele>
        <time>2020-11-06T14:31:40.976Z</time>
      </trkpt>
      <trkpt lat="46.29944" lon="6.1265">
        <ele>477</ele>
        <time>2020-11-06T14:31:41.975Z</time>
      </trkpt>
      <trkpt lat="46.29942" lon="6.12653">
        <ele>476</ele>
        <time>2020-11-06T14:31:42.976Z</time>
      </trkpt>
      <trkpt lat="46.2994" lon="6.12655">
        <ele>476</ele>
        <time>2020-11-06T14:31:43.975Z</time>
      </trkpt>
      <trkpt lat="46.29938" lon="6.1266">
        <ele>475</ele>
        <time>2020-11-06T14:31:44.976Z</time>
      </trkpt>
      <trkpt lat="46.29937" lon="6.12665">
        <ele>475</ele>
        <time>2020-11-06T14:31:45.975Z</time>
      </trkpt>
      <trkpt lat="46.29936" lon="6.12669">
        <ele>474</ele>
        <time>2020-11-06T14:31:46.976Z</time>
      </trkpt>
      <trkpt lat="46.29934" lon="6.12672">
        <ele>473</ele>
        <time>2020-11-06T14:31:47.976Z</time>
      </trkpt>
      <trkpt lat="46.29932" lon="6.12675">
        <ele>473</ele>
        <time>2020-11-06T14:31:48.975Z</time>
      </trkpt>
      <trkpt lat="46.29931" lon="6.12679">
        <ele>472</ele>
        <time>2020-11-06T14:31:49.976Z</time>
      </trkpt>
      <trkpt lat="46.29929" lon="6.12682">
        <ele>471</ele>
        <time>2020-11-06T14:31:50.976Z</time>
      </trkpt>
      <trkpt lat="46.29927" lon="6.12685">
        <ele>471</ele>
        <time>2020-11-06T14:31:51.975Z</time>
      </trkpt>
      <trkpt lat="46.29924" lon="6.12688">
        <ele>470</ele>
        <time>2020-11-06T14:31:52.976Z</time>
      </trkpt>
      <trkpt lat="46.29921" lon="6.12691">
        <ele>470</ele>
        <time>2020-11-06T14:31:53.976Z</time>
      </trkpt>
      <trkpt lat="46.29919" lon="6.12695">
        <ele>471</ele>
        <time>2020-11-06T14:31:54.976Z</time>
      </trkpt>
      <trkpt lat="46.29917" lon="6.12698">
        <ele>471</ele>
        <time>2020-11-06T14:31:55.976Z</time>
      </trkpt>
      <trkpt lat="46.29914" lon="6.127">
        <ele>471</ele>
        <time>2020-11-06T14:31:56.976Z</time>
      </trkpt>
      <trkpt lat="46.29913" lon="6.12703">
        <ele>471</ele>
        <time>2020-11-06T14:31:57.975Z</time>
      </trkpt>
      <trkpt lat="46.29911" lon="6.12707">
        <ele>471</ele>
        <time>2020-11-06T14:31:58.976Z</time>
      </trkpt>
      <trkpt lat="46.2991" lon="6.1271">
        <ele>471</ele>
        <time>2020-11-06T14:31:59.976Z</time>
      </trkpt>
      <trkpt lat="46.29908" lon="6.12714">
        <ele>470</ele>
        <time>2020-11-06T14:32:00.976Z</time>
      </trkpt>
      <trkpt lat="46.29907" lon="6.12717">
        <ele>470</ele>
        <time>2020-11-06T14:32:01.976Z</time>
      </trkpt>
      <trkpt lat="46.29905" lon="6.12721">
        <ele>470</ele>
        <time>2020-11-06T14:32:02.976Z</time>
      </trkpt>
      <trkpt lat="46.29904" lon="6.12724">
        <ele>469</ele>
        <time>2020-11-06T14:32:03.975Z</time>
      </trkpt>
      <trkpt lat="46.29902" lon="6.12727">
        <ele>469</ele>
        <time>2020-11-06T14:32:04.975Z</time>
      </trkpt>
      <trkpt lat="46.299" lon="6.1273">
        <ele>469</ele>
        <time>2020-11-06T14:32:05.976Z</time>
      </trkpt>
      <trkpt lat="46.29898" lon="6.12734">
        <ele>470</ele>
        <time>2020-11-06T14:32:06.976Z</time>
      </trkpt>
      <trkpt lat="46.29896" lon="6.12738">
        <ele>470</ele>
        <time>2020-11-06T14:32:07.975Z</time>
      </trkpt>
      <trkpt lat="46.29895" lon="6.12741">
        <ele>470</ele>
        <time>2020-11-06T14:32:08.976Z</time>
      </trkpt>
      <trkpt lat="46.29894" lon="6.12743">
        <ele>470</ele>
        <time>2020-11-06T14:32:09.976Z</time>
      </trkpt>
      <trkpt lat="46.29893" lon="6.12746">
        <ele>470</ele>
        <time>2020-11-06T14:32:10.976Z</time>
      </trkpt>
      <trkpt lat="46.29893" lon="6.1275">
        <ele>470</ele>
        <time>2020-11-06T14:32:11.975Z</time>
      </trkpt>
      <trkpt lat="46.29891" lon="6.12754">
        <ele>469</ele>
        <time>2020-11-06T14:32:12.975Z</time>
      </trkpt>
      <trkpt lat="46.29889" lon="6.12758">
        <ele>469</ele>
        <time>2020-11-06T14:32:13.976Z</time>
      </trkpt>
      <trkpt lat="46.29887" lon="6.12762">
        <ele>469</ele>
        <time>2020-11-06T14:32:14.976Z</time>
      </trkpt>
      <trkpt lat="46.29886" lon="6.12766">
        <ele>469</ele>
        <time>2020-11-06T14:32:15.976Z</time>
      </trkpt>
      <trkpt lat="46.29884" lon="6.1277">
        <ele>469</ele>
        <time>2020-11-06T14:32:16.976Z</time>
      </trkpt>
      <trkpt lat="46.29882" lon="6.12774">
        <ele>469</ele>
        <time>2020-11-06T14:32:17.976Z</time>
      </trkpt>
      <trkpt lat="46.29881" lon="6.12777">
        <ele>469</ele>
        <time>2020-11-06T14:32:18.976Z</time>
      </trkpt>
      <trkpt lat="46.29879" lon="6.1278">
        <ele>469</ele>
        <time>2020-11-06T14:32:19.976Z</time>
      </trkpt>
      <trkpt lat="46.29876" lon="6.12783">
        <ele>469</ele>
        <time>2020-11-06T14:32:20.975Z</time>
      </trkpt>
      <trkpt lat="46.29873" lon="6.12786">
        <ele>468</ele>
        <time>2020-11-06T14:32:21.976Z</time>
      </trkpt>
      <trkpt lat="46.29871" lon="6.12789">
        <ele>468</ele>
        <time>2020-11-06T14:32:22.976Z</time>
      </trkpt>
      <trkpt lat="46.29869" lon="6.12792">
        <ele>468</ele>
        <time>2020-11-06T14:32:23.976Z</time>
      </trkpt>
      <trkpt lat="46.29868" lon="6.12795">
        <ele>467</ele>
        <time>2020-11-06T14:32:24.976Z</time>
      </trkpt>
      <trkpt lat="46.29867" lon="6.128">
        <ele>467</ele>
        <time>2020-11-06T14:32:25.976Z</time>
      </trkpt>
      <trkpt lat="46.29866" lon="6.12805">
        <ele>467</ele>
        <time>2020-11-06T14:32:26.975Z</time>
      </trkpt>
      <trkpt lat="46.29863" lon="6.12809">
        <ele>466</ele>
        <time>2020-11-06T14:32:27.975Z</time>
      </trkpt>
      <trkpt lat="46.29861" lon="6.12812">
        <ele>466</ele>
        <time>2020-11-06T14:32:28.975Z</time>
      </trkpt>
      <trkpt lat="46.29859" lon="6.12815">
        <ele>466</ele>
        <time>2020-11-06T14:32:29.976Z</time>
      </trkpt>
      <trkpt lat="46.29857" lon="6.12818">
        <ele>466</ele>
        <time>2020-11-06T14:32:30.975Z</time>
      </trkpt>
      <trkpt lat="46.29856" lon="6.12821">
        <ele>466</ele>
        <time>2020-11-06T14:32:31.976Z</time>
      </trkpt>
      <trkpt lat="46.29855" lon="6.12825">
        <ele>466</ele>
        <time>2020-11-06T14:32:32.975Z</time>
      </trkpt>
      <trkpt lat="46.29853" lon="6.12827">
        <ele>466</ele>
        <time>2020-11-06T14:32:33.975Z</time>
      </trkpt>
      <trkpt lat="46.29852" lon="6.1283">
        <ele>465</ele>
        <time>2020-11-06T14:32:34.976Z</time>
      </trkpt>
      <trkpt lat="46.2985" lon="6.12833">
        <ele>465</ele>
        <time>2020-11-06T14:32:35.976Z</time>
      </trkpt>
      <trkpt lat="46.29848" lon="6.12836">
        <ele>464</ele>
        <time>2020-11-06T14:32:36.976Z</time>
      </trkpt>
      <trkpt lat="46.29846" lon="6.1284">
        <ele>463</ele>
        <time>2020-11-06T14:32:37.976Z</time>
      </trkpt>
      <trkpt lat="46.29843" lon="6.12842">
        <ele>463</ele>
        <time>2020-11-06T14:32:38.975Z</time>
      </trkpt>
      <trkpt lat="46.29841" lon="6.12844">
        <ele>462</ele>
        <time>2020-11-06T14:32:39.976Z</time>
      </trkpt>
      <trkpt lat="46.29838" lon="6.12848">
        <ele>462</ele>
        <time>2020-11-06T14:32:40.976Z</time>
      </trkpt>
      <trkpt lat="46.29835" lon="6.12851">
        <ele>461</ele>
        <time>2020-11-06T14:32:41.976Z</time>
      </trkpt>
      <trkpt lat="46.29834" lon="6.12857">
        <ele>461</ele>
        <time>2020-11-06T14:32:42.976Z</time>
      </trkpt>
      <trkpt lat="46.29833" lon="6.12861">
        <ele>460</ele>
        <time>2020-11-06T14:32:43.976Z</time>
      </trkpt>
      <trkpt lat="46.29831" lon="6.12863">
        <ele>460</ele>
        <time>2020-11-06T14:32:44.975Z</time>
      </trkpt>
      <trkpt lat="46.2983" lon="6.12865">
        <ele>460</ele>
        <time>2020-11-06T14:32:45.975Z</time>
      </trkpt>
      <trkpt lat="46.29828" lon="6.12867">
        <ele>459</ele>
        <time>2020-11-06T14:32:46.976Z</time>
      </trkpt>
      <trkpt lat="46.29827" lon="6.12867">
        <ele>459</ele>
        <time>2020-11-06T14:32:47.975Z</time>
      </trkpt>
      <trkpt lat="46.29825" lon="6.12867">
        <ele>459</ele>
        <time>2020-11-06T14:32:48.976Z</time>
      </trkpt>
      <trkpt lat="46.29823" lon="6.12868">
        <ele>459</ele>
        <time>2020-11-06T14:32:49.976Z</time>
      </trkpt>
      <trkpt lat="46.29821" lon="6.12868">
        <ele>460</ele>
        <time>2020-11-06T14:32:50.976Z</time>
      </trkpt>
      <trkpt lat="46.2982" lon="6.12866">
        <ele>460</ele>
        <time>2020-11-06T14:32:51.976Z</time>
      </trkpt>
      <trkpt lat="46.29819" lon="6.12865">
        <ele>460</ele>
        <time>2020-11-06T14:32:52.975Z</time>
      </trkpt>
      <trkpt lat="46.29817" lon="6.12864">
        <ele>461</ele>
        <time>2020-11-06T14:32:53.976Z</time>
      </trkpt>
      <trkpt lat="46.29816" lon="6.12863">
        <ele>461</ele>
        <time>2020-11-06T14:32:54.976Z</time>
      </trkpt>
      <trkpt lat="46.29814" lon="6.12862">
        <ele>461</ele>
        <time>2020-11-06T14:32:55.975Z</time>
      </trkpt>
      <trkpt lat="46.29812" lon="6.1286">
        <ele>460</ele>
        <time>2020-11-06T14:32:56.976Z</time>
      </trkpt>
      <trkpt lat="46.2981" lon="6.12859">
        <ele>460</ele>
        <time>2020-11-06T14:32:57.976Z</time>
      </trkpt>
      <trkpt lat="46.29809" lon="6.12857">
        <ele>460</ele>
        <time>2020-11-06T14:32:58.976Z</time>
      </trkpt>
      <trkpt lat="46.29807" lon="6.12855">
        <ele>460</ele>
        <time>2020-11-06T14:32:59.976Z</time>
      </trkpt>
      <trkpt lat="46.29804" lon="6.12853">
        <ele>460</ele>
        <time>2020-11-06T14:33:00.976Z</time>
      </trkpt>
      <trkpt lat="46.29802" lon="6.12852">
        <ele>460</ele>
        <time>2020-11-06T14:33:01.976Z</time>
      </trkpt>
      <trkpt lat="46.29799" lon="6.1285">
        <ele>460</ele>
        <time>2020-11-06T14:33:02.976Z</time>
      </trkpt>
      <trkpt lat="46.29794" lon="6.12849">
        <ele>460</ele>
        <time>2020-11-06T14:33:03.975Z</time>
      </trkpt>
      <trkpt lat="46.2979" lon="6.12847">
        <ele>460</ele>
        <time>2020-11-06T14:33:04.976Z</time>
      </trkpt>
      <trkpt lat="46.29787" lon="6.12846">
        <ele>459</ele>
        <time>2020-11-06T14:33:05.975Z</time>
      </trkpt>
      <trkpt lat="46.29785" lon="6.12845">
        <ele>459</ele>
        <time>2020-11-06T14:33:06.976Z</time>
      </trkpt>
      <trkpt lat="46.29784" lon="6.12844">
        <ele>459</ele>
        <time>2020-11-06T14:33:07.975Z</time>
      </trkpt>
      <trkpt lat="46.29781" lon="6.12842">
        <ele>459</ele>
        <time>2020-11-06T14:33:08.975Z</time>
      </trkpt>
      <trkpt lat="46.29779" lon="6.12841">
        <ele>459</ele>
        <time>2020-11-06T14:33:09.975Z</time>
      </trkpt>
      <trkpt lat="46.29778" lon="6.1284">
        <ele>459</ele>
        <time>2020-11-06T14:33:10.975Z</time>
      </trkpt>
      <trkpt lat="46.29776" lon="6.12839">
        <ele>459</ele>
        <time>2020-11-06T14:33:11.975Z</time>
      </trkpt>
      <trkpt lat="46.29774" lon="6.12838">
        <ele>458</ele>
        <time>2020-11-06T14:33:12.976Z</time>
      </trkpt>
      <trkpt lat="46.29771" lon="6.12837">
        <ele>459</ele>
        <time>2020-11-06T14:33:13.976Z</time>
      </trkpt>
      <trkpt lat="46.29769" lon="6.12836">
        <ele>459</ele>
        <time>2020-11-06T14:33:14.975Z</time>
      </trkpt>
      <trkpt lat="46.29767" lon="6.12834">
        <ele>459</ele>
        <time>2020-11-06T14:33:15.975Z</time>
      </trkpt>
      <trkpt lat="46.29765" lon="6.12833">
        <ele>459</ele>
        <time>2020-11-06T14:33:16.976Z</time>
      </trkpt>
      <trkpt lat="46.29763" lon="6.12832">
        <ele>459</ele>
        <time>2020-11-06T14:33:17.975Z</time>
      </trkpt>
      <trkpt lat="46.29761" lon="6.12831">
        <ele>459</ele>
        <time>2020-11-06T14:33:18.976Z</time>
      </trkpt>
      <trkpt lat="46.29759" lon="6.1283">
        <ele>460</ele>
        <time>2020-11-06T14:33:19.976Z</time>
      </trkpt>
      <trkpt lat="46.29757" lon="6.12828">
        <ele>460</ele>
        <time>2020-11-06T14:33:20.976Z</time>
      </trkpt>
      <trkpt lat="46.29754" lon="6.12827">
        <ele>460</ele>
        <time>2020-11-06T14:33:21.975Z</time>
      </trkpt>
      <trkpt lat="46.29751" lon="6.12826">
        <ele>461</ele>
        <time>2020-11-06T14:33:22.975Z</time>
      </trkpt>
      <trkpt lat="46.29749" lon="6.12825">
        <ele>461</ele>
        <time>2020-11-06T14:33:23.976Z</time>
      </trkpt>
      <trkpt lat="46.29747" lon="6.12823">
        <ele>461</ele>
        <time>2020-11-06T14:33:24.975Z</time>
      </trkpt>
      <trkpt lat="46.29745" lon="6.12822">
        <ele>461</ele>
        <time>2020-11-06T14:33:25.976Z</time>
      </trkpt>
      <trkpt lat="46.29742" lon="6.1282">
        <ele>462</ele>
        <time>2020-11-06T14:33:26.975Z</time>
      </trkpt>
      <trkpt lat="46.2974" lon="6.12818">
        <ele>462</ele>
        <time>2020-11-06T14:33:27.976Z</time>
      </trkpt>
      <trkpt lat="46.29738" lon="6.12816">
        <ele>462</ele>
        <time>2020-11-06T14:33:28.976Z</time>
      </trkpt>
      <trkpt lat="46.29736" lon="6.12815">
        <ele>462</ele>
        <time>2020-11-06T14:33:29.975Z</time>
      </trkpt>
      <trkpt lat="46.29733" lon="6.12813">
        <ele>462</ele>
        <time>2020-11-06T14:33:30.975Z</time>
      </trkpt>
      <trkpt lat="46.2973" lon="6.12812">
        <ele>462</ele>
        <time>2020-11-06T14:33:31.975Z</time>
      </trkpt>
      <trkpt lat="46.29727" lon="6.12812">
        <ele>462</ele>
        <time>2020-11-06T14:33:32.975Z</time>
      </trkpt>
      <trkpt lat="46.29724" lon="6.12811">
        <ele>462</ele>
        <time>2020-11-06T14:33:33.975Z</time>
      </trkpt>
      <trkpt lat="46.29721" lon="6.12809">
        <ele>461</ele>
        <time>2020-11-06T14:33:34.976Z</time>
      </trkpt>
      <trkpt lat="46.29718" lon="6.12808">
        <ele>461</ele>
        <time>2020-11-06T14:33:35.975Z</time>
      </trkpt>
      <trkpt lat="46.29716" lon="6.12807">
        <ele>461</ele>
        <time>2020-11-06T14:33:36.975Z</time>
      </trkpt>
      <trkpt lat="46.29713" lon="6.12806">
        <ele>461</ele>
        <time>2020-11-06T14:33:37.975Z</time>
      </trkpt>
      <trkpt lat="46.29711" lon="6.12805">
        <ele>462</ele>
        <time>2020-11-06T14:33:38.976Z</time>
      </trkpt>
      <trkpt lat="46.2971" lon="6.12805">
        <ele>462</ele>
        <time>2020-11-06T14:33:39.976Z</time>
      </trkpt>
      <trkpt lat="46.29708" lon="6.12804">
        <ele>462</ele>
        <time>2020-11-06T14:33:40.976Z</time>
      </trkpt>
      <trkpt lat="46.29706" lon="6.12803">
        <ele>462</ele>
        <time>2020-11-06T14:33:41.975Z</time>
      </trkpt>
      <trkpt lat="46.29704" lon="6.12803">
        <ele>462</ele>
        <time>2020-11-06T14:33:42.975Z</time>
      </trkpt>
      <trkpt lat="46.29702" lon="6.12802">
        <ele>462</ele>
        <time>2020-11-06T14:33:43.976Z</time>
      </trkpt>
      <trkpt lat="46.297" lon="6.12802">
        <ele>462</ele>
        <time>2020-11-06T14:33:44.975Z</time>
      </trkpt>
      <trkpt lat="46.29698" lon="6.12801">
        <ele>462</ele>
        <time>2020-11-06T14:33:45.976Z</time>
      </trkpt>
      <trkpt lat="46.29696" lon="6.128">
        <ele>462</ele>
        <time>2020-11-06T14:33:46.976Z</time>
      </trkpt>
      <trkpt lat="46.29694" lon="6.128">
        <ele>462</ele>
        <time>2020-11-06T14:33:47.975Z</time>
      </trkpt>
      <trkpt lat="46.29691" lon="6.12799">
        <ele>462</ele>
        <time>2020-11-06T14:33:48.976Z</time>
      </trkpt>
      <trkpt lat="46.29689" lon="6.12798">
        <ele>462</ele>
        <time>2020-11-06T14:33:49.976Z</time>
      </trkpt>
      <trkpt lat="46.29686" lon="6.12797">
        <ele>462</ele>
        <time>2020-11-06T14:33:50.975Z</time>
      </trkpt>
      <trkpt lat="46.29684" lon="6.12796">
        <ele>462</ele>
        <time>2020-11-06T14:33:51.976Z</time>
      </trkpt>
      <trkpt lat="46.29681" lon="6.12795">
        <ele>463</ele>
        <time>2020-11-06T14:33:52.975Z</time>
      </trkpt>
      <trkpt lat="46.29679" lon="6.12794">
        <ele>463</ele>
        <time>2020-11-06T14:33:53.975Z</time>
      </trkpt>
      <trkpt lat="46.29677" lon="6.12793">
        <ele>463</ele>
        <time>2020-11-06T14:33:54.976Z</time>
      </trkpt>
      <trkpt lat="46.29674" lon="6.12791">
        <ele>463</ele>
        <time>2020-11-06T14:33:55.976Z</time>
      </trkpt>
      <trkpt lat="46.29672" lon="6.1279">
        <ele>463</ele>
        <time>2020-11-06T14:33:56.975Z</time>
      </trkpt>
      <trkpt lat="46.29668" lon="6.12788">
        <ele>464</ele>
        <time>2020-11-06T14:33:57.975Z</time>
      </trkpt>
      <trkpt lat="46.29666" lon="6.12788">
        <ele>464</ele>
        <time>2020-11-06T14:33:58.976Z</time>
      </trkpt>
      <trkpt lat="46.29664" lon="6.12787">
        <ele>464</ele>
        <time>2020-11-06T14:33:59.976Z</time>
      </trkpt>
      <trkpt lat="46.29662" lon="6.12787">
        <ele>464</ele>
        <time>2020-11-06T14:34:00.975Z</time>
      </trkpt>
      <trkpt lat="46.2966" lon="6.12786">
        <ele>464</ele>
        <time>2020-11-06T14:34:01.976Z</time>
      </trkpt>
      <trkpt lat="46.29658" lon="6.12785">
        <ele>464</ele>
        <time>2020-11-06T14:34:02.975Z</time>
      </trkpt>
      <trkpt lat="46.29656" lon="6.12784">
        <ele>464</ele>
        <time>2020-11-06T14:34:03.976Z</time>
      </trkpt>
      <trkpt lat="46.29655" lon="6.12783">
        <ele>464</ele>
        <time>2020-11-06T14:34:04.975Z</time>
      </trkpt>
      <trkpt lat="46.29654" lon="6.12782">
        <ele>464</ele>
        <time>2020-11-06T14:34:05.975Z</time>
      </trkpt>
      <trkpt lat="46.29653" lon="6.12782">
        <ele>464</ele>
        <time>2020-11-06T14:34:06.976Z</time>
      </trkpt>
      <trkpt lat="46.29652" lon="6.12781">
        <ele>464</ele>
        <time>2020-11-06T14:34:07.976Z</time>
      </trkpt>
      <trkpt lat="46.29651" lon="6.1278">
        <ele>465</ele>
        <time>2020-11-06T14:34:08.976Z</time>
      </trkpt>
      <trkpt lat="46.29648" lon="6.12779">
        <ele>465</ele>
        <time>2020-11-06T14:34:09.976Z</time>
      </trkpt>
      <trkpt lat="46.29645" lon="6.12777">
        <ele>464</ele>
        <time>2020-11-06T14:34:10.975Z</time>
      </trkpt>
      <trkpt lat="46.29642" lon="6.12775">
        <ele>464</ele>
        <time>2020-11-06T14:34:11.975Z</time>
      </trkpt>
      <trkpt lat="46.29639" lon="6.12774">
        <ele>464</ele>
        <time>2020-11-06T14:34:12.975Z</time>
      </trkpt>
      <trkpt lat="46.29637" lon="6.12774">
        <ele>464</ele>
        <time>2020-11-06T14:34:13.975Z</time>
      </trkpt>
      <trkpt lat="46.29636" lon="6.12773">
        <ele>464</ele>
        <time>2020-11-06T14:34:14.975Z</time>
      </trkpt>
      <trkpt lat="46.29635" lon="6.12773">
        <ele>463</ele>
        <time>2020-11-06T14:34:15.976Z</time>
      </trkpt>
      <trkpt lat="46.29634" lon="6.12772">
        <ele>463</ele>
        <time>2020-11-06T14:34:16.976Z</time>
      </trkpt>
      <trkpt lat="46.29633" lon="6.12771">
        <ele>463</ele>
        <time>2020-11-06T14:34:17.976Z</time>
      </trkpt>
      <trkpt lat="46.29631" lon="6.1277">
        <ele>463</ele>
        <time>2020-11-06T14:34:18.976Z</time>
      </trkpt>
      <trkpt lat="46.29629" lon="6.12769">
        <ele>463</ele>
        <time>2020-11-06T14:34:19.975Z</time>
      </trkpt>
      <trkpt lat="46.29627" lon="6.12769">
        <ele>463</ele>
        <time>2020-11-06T14:34:20.976Z</time>
      </trkpt>
      <trkpt lat="46.29626" lon="6.12768">
        <ele>463</ele>
        <time>2020-11-06T14:34:21.976Z</time>
      </trkpt>
      <trkpt lat="46.29625" lon="6.12768">
        <ele>462</ele>
        <time>2020-11-06T14:34:22.975Z</time>
      </trkpt>
      <trkpt lat="46.29624" lon="6.12767">
        <ele>463</ele>
        <time>2020-11-06T14:34:23.976Z</time>
      </trkpt>
      <trkpt lat="46.29623" lon="6.12766">
        <ele>463</ele>
        <time>2020-11-06T14:34:24.975Z</time>
      </trkpt>
      <trkpt lat="46.29622" lon="6.12766">
        <ele>463</ele>
        <time>2020-11-06T14:34:25.975Z</time>
      </trkpt>
      <trkpt lat="46.2962" lon="6.12765">
        <ele>463</ele>
        <time>2020-11-06T14:34:26.976Z</time>
      </trkpt>
      <trkpt lat="46.29617" lon="6.12764">
        <ele>463</ele>
        <time>2020-11-06T14:34:27.976Z</time>
      </trkpt>
      <trkpt lat="46.29616" lon="6.12764">
        <ele>464</ele>
        <time>2020-11-06T14:34:28.976Z</time>
      </trkpt>
      <trkpt lat="46.29614" lon="6.12763">
        <ele>464</ele>
        <time>2020-11-06T14:34:29.975Z</time>
      </trkpt>
      <trkpt lat="46.29613" lon="6.12763">
        <ele>464</ele>
        <time>2020-11-06T14:34:30.976Z</time>
      </trkpt>
      <trkpt lat="46.29611" lon="6.12763">
        <ele>463</ele>
        <time>2020-11-06T14:34:31.976Z</time>
      </trkpt>
      <trkpt lat="46.29608" lon="6.12762">
        <ele>463</ele>
        <time>2020-11-06T14:34:32.975Z</time>
      </trkpt>
      <trkpt lat="46.29606" lon="6.12761">
        <ele>462</ele>
        <time>2020-11-06T14:34:33.976Z</time>
      </trkpt>
      <trkpt lat="46.29605" lon="6.1276">
        <ele>462</ele>
        <time>2020-11-06T14:34:34.975Z</time>
      </trkpt>
      <trkpt lat="46.29602" lon="6.12759">
        <ele>462</ele>
        <time>2020-11-06T14:34:35.975Z</time>
      </trkpt>
      <trkpt lat="46.29598" lon="6.12758">
        <ele>462</ele>
        <time>2020-11-06T14:34:36.975Z</time>
      </trkpt>
      <trkpt lat="46.29594" lon="6.12758">
        <ele>462</ele>
        <time>2020-11-06T14:34:37.976Z</time>
      </trkpt>
      <trkpt lat="46.29591" lon="6.12758">
        <ele>463</ele>
        <time>2020-11-06T14:34:38.976Z</time>
      </trkpt>
      <trkpt lat="46.29589" lon="6.12758">
        <ele>462</ele>
        <time>2020-11-06T14:34:39.975Z</time>
      </trkpt>
      <trkpt lat="46.29587" lon="6.12758">
        <ele>462</ele>
        <time>2020-11-06T14:34:40.975Z</time>
      </trkpt>
      <trkpt lat="46.29584" lon="6.12758">
        <ele>462</ele>
        <time>2020-11-06T14:34:41.976Z</time>
      </trkpt>
      <trkpt lat="46.29582" lon="6.12757">
        <ele>462</ele>
        <time>2020-11-06T14:34:42.976Z</time>
      </trkpt>
      <trkpt lat="46.2958" lon="6.12756">
        <ele>461</ele>
        <time>2020-11-06T14:34:43.976Z</time>
      </trkpt>
      <trkpt lat="46.29578" lon="6.12755">
        <ele>461</ele>
        <time>2020-11-06T14:34:44.976Z</time>
      </trkpt>
      <trkpt lat="46.29577" lon="6.12755">
        <ele>460</ele>
        <time>2020-11-06T14:34:45.975Z</time>
      </trkpt>
      <trkpt lat="46.29575" lon="6.12754">
        <ele>460</ele>
        <time>2020-11-06T14:34:46.975Z</time>
      </trkpt>
      <trkpt lat="46.29572" lon="6.12753">
        <ele>460</ele>
        <time>2020-11-06T14:34:47.975Z</time>
      </trkpt>
      <trkpt lat="46.2957" lon="6.12752">
        <ele>459</ele>
        <time>2020-11-06T14:34:48.976Z</time>
      </trkpt>
      <trkpt lat="46.29567" lon="6.12751">
        <ele>459</ele>
        <time>2020-11-06T14:34:49.976Z</time>
      </trkpt>
      <trkpt lat="46.29565" lon="6.1275">
        <ele>459</ele>
        <time>2020-11-06T14:34:50.976Z</time>
      </trkpt>
      <trkpt lat="46.29563" lon="6.12749">
        <ele>459</ele>
        <time>2020-11-06T14:34:51.976Z</time>
      </trkpt>
      <trkpt lat="46.2956" lon="6.12748">
        <ele>459</ele>
        <time>2020-11-06T14:34:52.976Z</time>
      </trkpt>
      <trkpt lat="46.29558" lon="6.12746">
        <ele>459</ele>
        <time>2020-11-06T14:34:53.975Z</time>
      </trkpt>
      <trkpt lat="46.29555" lon="6.12745">
        <ele>459</ele>
        <time>2020-11-06T14:34:54.975Z</time>
      </trkpt>
      <trkpt lat="46.29552" lon="6.12743">
        <ele>460</ele>
        <time>2020-11-06T14:34:55.975Z</time>
      </trkpt>
      <trkpt lat="46.2955" lon="6.12742">
        <ele>461</ele>
        <time>2020-11-06T14:34:56.976Z</time>
      </trkpt>
      <trkpt lat="46.29547" lon="6.1274">
        <ele>462</ele>
        <time>2020-11-06T14:34:57.976Z</time>
      </trkpt>
      <trkpt lat="46.29545" lon="6.12739">
        <ele>462</ele>
        <time>2020-11-06T14:34:58.976Z</time>
      </trkpt>
      <trkpt lat="46.29544" lon="6.12738">
        <ele>463</ele>
        <time>2020-11-06T14:34:59.975Z</time>
      </trkpt>
      <trkpt lat="46.29542" lon="6.12737">
        <ele>463</ele>
        <time>2020-11-06T14:35:00.975Z</time>
      </trkpt>
      <trkpt lat="46.29541" lon="6.12737">
        <ele>462</ele>
        <time>2020-11-06T14:35:01.975Z</time>
      </trkpt>
      <trkpt lat="46.2954" lon="6.12737">
        <ele>462</ele>
        <time>2020-11-06T14:35:02.976Z</time>
      </trkpt>
      <trkpt lat="46.29538" lon="6.12736">
        <ele>463</ele>
        <time>2020-11-06T14:35:03.975Z</time>
      </trkpt>
      <trkpt lat="46.29536" lon="6.12735">
        <ele>463</ele>
        <time>2020-11-06T14:35:04.975Z</time>
      </trkpt>
      <trkpt lat="46.29534" lon="6.12735">
        <ele>463</ele>
        <time>2020-11-06T14:35:05.976Z</time>
      </trkpt>
      <trkpt lat="46.29533" lon="6.12734">
        <ele>463</ele>
        <time>2020-11-06T14:35:06.976Z</time>
      </trkpt>
      <trkpt lat="46.29531" lon="6.12733">
        <ele>463</ele>
        <time>2020-11-06T14:35:07.975Z</time>
      </trkpt>
      <trkpt lat="46.29528" lon="6.12732">
        <ele>463</ele>
        <time>2020-11-06T14:35:08.975Z</time>
      </trkpt>
      <trkpt lat="46.29525" lon="6.12731">
        <ele>463</ele>
        <time>2020-11-06T14:35:09.975Z</time>
      </trkpt>
      <trkpt lat="46.29522" lon="6.1273">
        <ele>463</ele>
        <time>2020-11-06T14:35:10.976Z</time>
      </trkpt>
      <trkpt lat="46.29519" lon="6.12729">
        <ele>462</ele>
        <time>2020-11-06T14:35:11.976Z</time>
      </trkpt>
      <trkpt lat="46.29516" lon="6.12728">
        <ele>462</ele>
        <time>2020-11-06T14:35:12.976Z</time>
      </trkpt>
      <trkpt lat="46.29514" lon="6.12726">
        <ele>461</ele>
        <time>2020-11-06T14:35:13.975Z</time>
      </trkpt>
      <trkpt lat="46.29512" lon="6.12725">
        <ele>461</ele>
        <time>2020-11-06T14:35:14.975Z</time>
      </trkpt>
      <trkpt lat="46.29509" lon="6.12724">
        <ele>461</ele>
        <time>2020-11-06T14:35:15.976Z</time>
      </trkpt>
      <trkpt lat="46.29508" lon="6.12724">
        <ele>460</ele>
        <time>2020-11-06T14:35:16.976Z</time>
      </trkpt>
      <trkpt lat="46.29506" lon="6.12723">
        <ele>460</ele>
        <time>2020-11-06T14:35:17.976Z</time>
      </trkpt>
      <trkpt lat="46.29504" lon="6.12723">
        <ele>459</ele>
        <time>2020-11-06T14:35:18.976Z</time>
      </trkpt>
      <trkpt lat="46.29502" lon="6.12721">
        <ele>459</ele>
        <time>2020-11-06T14:35:19.976Z</time>
      </trkpt>
      <trkpt lat="46.29499" lon="6.1272">
        <ele>460</ele>
        <time>2020-11-06T14:35:20.975Z</time>
      </trkpt>
      <trkpt lat="46.29497" lon="6.12719">
        <ele>460</ele>
        <time>2020-11-06T14:35:21.976Z</time>
      </trkpt>
      <trkpt lat="46.29495" lon="6.12719">
        <ele>460</ele>
        <time>2020-11-06T14:35:22.976Z</time>
      </trkpt>
      <trkpt lat="46.29493" lon="6.12718">
        <ele>459</ele>
        <time>2020-11-06T14:35:23.975Z</time>
      </trkpt>
      <trkpt lat="46.29492" lon="6.12718">
        <ele>459</ele>
        <time>2020-11-06T14:35:24.976Z</time>
      </trkpt>
      <trkpt lat="46.2949" lon="6.12717">
        <ele>459</ele>
        <time>2020-11-06T14:35:25.976Z</time>
      </trkpt>
      <trkpt lat="46.29488" lon="6.12717">
        <ele>459</ele>
        <time>2020-11-06T14:35:26.975Z</time>
      </trkpt>
      <trkpt lat="46.29486" lon="6.12716">
        <ele>459</ele>
        <time>2020-11-06T14:35:27.975Z</time>
      </trkpt>
      <trkpt lat="46.29484" lon="6.12715">
        <ele>459</ele>
        <time>2020-11-06T14:35:28.975Z</time>
      </trkpt>
      <trkpt lat="46.29482" lon="6.12715">
        <ele>459</ele>
        <time>2020-11-06T14:35:29.975Z</time>
      </trkpt>
      <trkpt lat="46.29481" lon="6.12714">
        <ele>459</ele>
        <time>2020-11-06T14:35:30.975Z</time>
      </trkpt>
      <trkpt lat="46.29479" lon="6.12713">
        <ele>459</ele>
        <time>2020-11-06T14:35:31.975Z</time>
      </trkpt>
      <trkpt lat="46.29476" lon="6.12712">
        <ele>459</ele>
        <time>2020-11-06T14:35:32.975Z</time>
      </trkpt>
      <trkpt lat="46.29473" lon="6.12711">
        <ele>458</ele>
        <time>2020-11-06T14:35:33.975Z</time>
      </trkpt>
      <trkpt lat="46.29471" lon="6.12711">
        <ele>458</ele>
        <time>2020-11-06T14:35:34.975Z</time>
      </trkpt>
      <trkpt lat="46.29469" lon="6.12711">
        <ele>458</ele>
        <time>2020-11-06T14:35:35.975Z</time>
      </trkpt>
      <trkpt lat="46.29467" lon="6.12711">
        <ele>458</ele>
        <time>2020-11-06T14:35:36.975Z</time>
      </trkpt>
      <trkpt lat="46.29466" lon="6.12712">
        <ele>459</ele>
        <time>2020-11-06T14:35:37.976Z</time>
      </trkpt>
      <trkpt lat="46.29464" lon="6.12712">
        <ele>459</ele>
        <time>2020-11-06T14:35:38.976Z</time>
      </trkpt>
      <trkpt lat="46.29463" lon="6.12711">
        <ele>460</ele>
        <time>2020-11-06T14:35:39.976Z</time>
      </trkpt>
      <trkpt lat="46.29461" lon="6.12711">
        <ele>460</ele>
        <time>2020-11-06T14:35:40.975Z</time>
      </trkpt>
      <trkpt lat="46.29458" lon="6.12711">
        <ele>460</ele>
        <time>2020-11-06T14:35:41.976Z</time>
      </trkpt>
      <trkpt lat="46.29455" lon="6.12711">
        <ele>460</ele>
        <time>2020-11-06T14:35:42.976Z</time>
      </trkpt>
      <trkpt lat="46.29453" lon="6.1271">
        <ele>460</ele>
        <time>2020-11-06T14:35:43.975Z</time>
      </trkpt>
      <trkpt lat="46.29452" lon="6.1271">
        <ele>461</ele>
        <time>2020-11-06T14:35:44.976Z</time>
      </trkpt>
      <trkpt lat="46.2945" lon="6.12709">
        <ele>461</ele>
        <time>2020-11-06T14:35:45.975Z</time>
      </trkpt>
      <trkpt lat="46.29448" lon="6.12709">
        <ele>461</ele>
        <time>2020-11-06T14:35:46.976Z</time>
      </trkpt>
      <trkpt lat="46.29446" lon="6.12708">
        <ele>461</ele>
        <time>2020-11-06T14:35:47.976Z</time>
      </trkpt>
      <trkpt lat="46.29445" lon="6.12707">
        <ele>461</ele>
        <time>2020-11-06T14:35:48.976Z</time>
      </trkpt>
      <trkpt lat="46.29443" lon="6.12707">
        <ele>460</ele>
        <time>2020-11-06T14:35:49.976Z</time>
      </trkpt>
      <trkpt lat="46.29441" lon="6.12706">
        <ele>459</ele>
        <time>2020-11-06T14:35:50.975Z</time>
      </trkpt>
      <trkpt lat="46.29439" lon="6.12706">
        <ele>458</ele>
        <time>2020-11-06T14:35:51.975Z</time>
      </trkpt>
      <trkpt lat="46.29437" lon="6.12705">
        <ele>458</ele>
        <time>2020-11-06T14:35:52.976Z</time>
      </trkpt>
      <trkpt lat="46.29435" lon="6.12704">
        <ele>458</ele>
        <time>2020-11-06T14:35:53.975Z</time>
      </trkpt>
      <trkpt lat="46.29433" lon="6.12704">
        <ele>458</ele>
        <time>2020-11-06T14:35:54.976Z</time>
      </trkpt>
      <trkpt lat="46.29431" lon="6.12703">
        <ele>458</ele>
        <time>2020-11-06T14:35:55.976Z</time>
      </trkpt>
      <trkpt lat="46.29429" lon="6.12701">
        <ele>458</ele>
        <time>2020-11-06T14:35:56.976Z</time>
      </trkpt>
      <trkpt lat="46.29427" lon="6.127">
        <ele>458</ele>
        <time>2020-11-06T14:35:57.976Z</time>
      </trkpt>
      <trkpt lat="46.29423" lon="6.12697">
        <ele>458</ele>
        <time>2020-11-06T14:35:58.975Z</time>
      </trkpt>
      <trkpt lat="46.29421" lon="6.12695">
        <ele>458</ele>
        <time>2020-11-06T14:35:59.976Z</time>
      </trkpt>
      <trkpt lat="46.29417" lon="6.12693">
        <ele>458</ele>
        <time>2020-11-06T14:36:00.975Z</time>
      </trkpt>
      <trkpt lat="46.29415" lon="6.12691">
        <ele>458</ele>
        <time>2020-11-06T14:36:01.975Z</time>
      </trkpt>
      <trkpt lat="46.29412" lon="6.1269">
        <ele>458</ele>
        <time>2020-11-06T14:36:02.976Z</time>
      </trkpt>
      <trkpt lat="46.29409" lon="6.1269">
        <ele>459</ele>
        <time>2020-11-06T14:36:03.976Z</time>
      </trkpt>
      <trkpt lat="46.29406" lon="6.1269">
        <ele>459</ele>
        <time>2020-11-06T14:36:04.976Z</time>
      </trkpt>
      <trkpt lat="46.29404" lon="6.12692">
        <ele>459</ele>
        <time>2020-11-06T14:36:05.975Z</time>
      </trkpt>
      <trkpt lat="46.29403" lon="6.12695">
        <ele>460</ele>
        <time>2020-11-06T14:36:06.976Z</time>
      </trkpt>
      <trkpt lat="46.29403" lon="6.12698">
        <ele>460</ele>
        <time>2020-11-06T14:36:07.976Z</time>
      </trkpt>
      <trkpt lat="46.29404" lon="6.12701">
        <ele>460</ele>
        <time>2020-11-06T14:36:08.975Z</time>
      </trkpt>
      <trkpt lat="46.29406" lon="6.12703">
        <ele>460</ele>
        <time>2020-11-06T14:36:09.976Z</time>
      </trkpt>
      <trkpt lat="46.29408" lon="6.12704">
        <ele>460</ele>
        <time>2020-11-06T14:36:10.976Z</time>
      </trkpt>
      <trkpt lat="46.29411" lon="6.12706">
        <ele>459</ele>
        <time>2020-11-06T14:36:11.976Z</time>
      </trkpt>
      <trkpt lat="46.29414" lon="6.12707">
        <ele>459</ele>
        <time>2020-11-06T14:36:12.976Z</time>
      </trkpt>
      <trkpt lat="46.29417" lon="6.12708">
        <ele>459</ele>
        <time>2020-11-06T14:36:13.976Z</time>
      </trkpt>
      <trkpt lat="46.29421" lon="6.1271">
        <ele>458</ele>
        <time>2020-11-06T14:36:14.975Z</time>
      </trkpt>
      <trkpt lat="46.29423" lon="6.12711">
        <ele>458</ele>
        <time>2020-11-06T14:36:15.976Z</time>
      </trkpt>
      <trkpt lat="46.29425" lon="6.12713">
        <ele>457</ele>
        <time>2020-11-06T14:36:16.976Z</time>
      </trkpt>
      <trkpt lat="46.29426" lon="6.12716">
        <ele>457</ele>
        <time>2020-11-06T14:36:17.975Z</time>
      </trkpt>
      <trkpt lat="46.29428" lon="6.12718">
        <ele>456</ele>
        <time>2020-11-06T14:36:18.975Z</time>
      </trkpt>
      <trkpt lat="46.29429" lon="6.1272">
        <ele>456</ele>
        <time>2020-11-06T14:36:19.976Z</time>
      </trkpt>
      <trkpt lat="46.29431" lon="6.12722">
        <ele>455</ele>
        <time>2020-11-06T14:36:20.976Z</time>
      </trkpt>
      <trkpt lat="46.29433" lon="6.12725">
        <ele>455</ele>
        <time>2020-11-06T14:36:21.976Z</time>
      </trkpt>
      <trkpt lat="46.29435" lon="6.1273">
        <ele>455</ele>
        <time>2020-11-06T14:36:22.976Z</time>
      </trkpt>
      <trkpt lat="46.29436" lon="6.12733">
        <ele>455</ele>
        <time>2020-11-06T14:36:23.975Z</time>
      </trkpt>
      <trkpt lat="46.29438" lon="6.12735">
        <ele>455</ele>
        <time>2020-11-06T14:36:24.976Z</time>
      </trkpt>
      <trkpt lat="46.2944" lon="6.12738">
        <ele>455</ele>
        <time>2020-11-06T14:36:25.975Z</time>
      </trkpt>
      <trkpt lat="46.29442" lon="6.1274">
        <ele>455</ele>
        <time>2020-11-06T14:36:26.976Z</time>
      </trkpt>
      <trkpt lat="46.29443" lon="6.12742">
        <ele>455</ele>
        <time>2020-11-06T14:36:27.976Z</time>
      </trkpt>
      <trkpt lat="46.29445" lon="6.12744">
        <ele>455</ele>
        <time>2020-11-06T14:36:28.976Z</time>
      </trkpt>
      <trkpt lat="46.29446" lon="6.12746">
        <ele>455</ele>
        <time>2020-11-06T14:36:29.976Z</time>
      </trkpt>
      <trkpt lat="46.29447" lon="6.12749">
        <ele>455</ele>
        <time>2020-11-06T14:36:30.976Z</time>
      </trkpt>
      <trkpt lat="46.29448" lon="6.12752">
        <ele>455</ele>
        <time>2020-11-06T14:36:31.976Z</time>
      </trkpt>
      <trkpt lat="46.29449" lon="6.12754">
        <ele>456</ele>
        <time>2020-11-06T14:36:32.975Z</time>
      </trkpt>
      <trkpt lat="46.2945" lon="6.12757">
        <ele>456</ele>
        <time>2020-11-06T14:36:33.976Z</time>
      </trkpt>
      <trkpt lat="46.29451" lon="6.1276">
        <ele>456</ele>
        <time>2020-11-06T14:36:34.975Z</time>
      </trkpt>
      <trkpt lat="46.29452" lon="6.12762">
        <ele>456</ele>
        <time>2020-11-06T14:36:35.975Z</time>
      </trkpt>
      <trkpt lat="46.29453" lon="6.12764">
        <ele>457</ele>
        <time>2020-11-06T14:36:36.975Z</time>
      </trkpt>
      <trkpt lat="46.29453" lon="6.12765">
        <ele>456</ele>
        <time>2020-11-06T14:36:37.976Z</time>
      </trkpt>
      <trkpt lat="46.29453" lon="6.12767">
        <ele>456</ele>
        <time>2020-11-06T14:36:38.975Z</time>
      </trkpt>
      <trkpt lat="46.29452" lon="6.12769">
        <ele>456</ele>
        <time>2020-11-06T14:36:39.975Z</time>
      </trkpt>
      <trkpt lat="46.29451" lon="6.12771">
        <ele>456</ele>
        <time>2020-11-06T14:36:40.976Z</time>
      </trkpt>
      <trkpt lat="46.2945" lon="6.12773">
        <ele>455</ele>
        <time>2020-11-06T14:36:41.975Z</time>
      </trkpt>
      <trkpt lat="46.29447" lon="6.12776">
        <ele>455</ele>
        <time>2020-11-06T14:36:42.975Z</time>
      </trkpt>
      <trkpt lat="46.29445" lon="6.12778">
        <ele>455</ele>
        <time>2020-11-06T14:36:43.975Z</time>
      </trkpt>
      <trkpt lat="46.29444" lon="6.12781">
        <ele>454</ele>
        <time>2020-11-06T14:36:44.976Z</time>
      </trkpt>
      <trkpt lat="46.29442" lon="6.12784">
        <ele>454</ele>
        <time>2020-11-06T14:36:45.975Z</time>
      </trkpt>
      <trkpt lat="46.2944" lon="6.12786">
        <ele>453</ele>
        <time>2020-11-06T14:36:46.975Z</time>
      </trkpt>
      <trkpt lat="46.29438" lon="6.12789">
        <ele>453</ele>
        <time>2020-11-06T14:36:47.976Z</time>
      </trkpt>
      <trkpt lat="46.29436" lon="6.12791">
        <ele>452</ele>
        <time>2020-11-06T14:36:48.976Z</time>
      </trkpt>
      <trkpt lat="46.29434" lon="6.12793">
        <ele>452</ele>
        <time>2020-11-06T14:36:49.976Z</time>
      </trkpt>
      <trkpt lat="46.29432" lon="6.12795">
        <ele>452</ele>
        <time>2020-11-06T14:36:50.976Z</time>
      </trkpt>
      <trkpt lat="46.29431" lon="6.12797">
        <ele>451</ele>
        <time>2020-11-06T14:36:51.975Z</time>
      </trkpt>
      <trkpt lat="46.29429" lon="6.12799">
        <ele>450</ele>
        <time>2020-11-06T14:36:52.976Z</time>
      </trkpt>
      <trkpt lat="46.29427" lon="6.12802">
        <ele>450</ele>
        <time>2020-11-06T14:36:53.976Z</time>
      </trkpt>
      <trkpt lat="46.29425" lon="6.12804">
        <ele>449</ele>
        <time>2020-11-06T14:36:54.976Z</time>
      </trkpt>
      <trkpt lat="46.29423" lon="6.12806">
        <ele>449</ele>
        <time>2020-11-06T14:36:55.976Z</time>
      </trkpt>
      <trkpt lat="46.29421" lon="6.12808">
        <ele>450</ele>
        <time>2020-11-06T14:36:56.976Z</time>
      </trkpt>
      <trkpt lat="46.29419" lon="6.1281">
        <ele>450</ele>
        <time>2020-11-06T14:36:57.975Z</time>
      </trkpt>
      <trkpt lat="46.29416" lon="6.12812">
        <ele>450</ele>
        <time>2020-11-06T14:36:58.976Z</time>
      </trkpt>
      <trkpt lat="46.29414" lon="6.12814">
        <ele>449</ele>
        <time>2020-11-06T14:36:59.975Z</time>
      </trkpt>
      <trkpt lat="46.29412" lon="6.12816">
        <ele>449</ele>
        <time>2020-11-06T14:37:00.976Z</time>
      </trkpt>
      <trkpt lat="46.2941" lon="6.12818">
        <ele>450</ele>
        <time>2020-11-06T14:37:01.976Z</time>
      </trkpt>
      <trkpt lat="46.29408" lon="6.12821">
        <ele>450</ele>
        <time>2020-11-06T14:37:02.975Z</time>
      </trkpt>
      <trkpt lat="46.29406" lon="6.12823">
        <ele>450</ele>
        <time>2020-11-06T14:37:03.976Z</time>
      </trkpt>
      <trkpt lat="46.29404" lon="6.12825">
        <ele>450</ele>
        <time>2020-11-06T14:37:04.976Z</time>
      </trkpt>
      <trkpt lat="46.29402" lon="6.12827">
        <ele>450</ele>
        <time>2020-11-06T14:37:05.975Z</time>
      </trkpt>
      <trkpt lat="46.29399" lon="6.12828">
        <ele>450</ele>
        <time>2020-11-06T14:37:06.975Z</time>
      </trkpt>
      <trkpt lat="46.29397" lon="6.1283">
        <ele>450</ele>
        <time>2020-11-06T14:37:07.976Z</time>
      </trkpt>
      <trkpt lat="46.29395" lon="6.12831">
        <ele>451</ele>
        <time>2020-11-06T14:37:08.975Z</time>
      </trkpt>
      <trkpt lat="46.29393" lon="6.12833">
        <ele>451</ele>
        <time>2020-11-06T14:37:09.976Z</time>
      </trkpt>
      <trkpt lat="46.29391" lon="6.12835">
        <ele>451</ele>
        <time>2020-11-06T14:37:10.975Z</time>
      </trkpt>
      <trkpt lat="46.29389" lon="6.12837">
        <ele>451</ele>
        <time>2020-11-06T14:37:11.976Z</time>
      </trkpt>
      <trkpt lat="46.29387" lon="6.12838">
        <ele>451</ele>
        <time>2020-11-06T14:37:12.976Z</time>
      </trkpt>
      <trkpt lat="46.29385" lon="6.1284">
        <ele>451</ele>
        <time>2020-11-06T14:37:13.975Z</time>
      </trkpt>
      <trkpt lat="46.29384" lon="6.12842">
        <ele>451</ele>
        <time>2020-11-06T14:37:14.975Z</time>
      </trkpt>
      <trkpt lat="46.29382" lon="6.12842">
        <ele>451</ele>
        <time>2020-11-06T14:37:15.976Z</time>
      </trkpt>
      <trkpt lat="46.29379" lon="6.12843">
        <ele>451</ele>
        <time>2020-11-06T14:37:16.975Z</time>
      </trkpt>
      <trkpt lat="46.29377" lon="6.12845">
        <ele>451</ele>
        <time>2020-11-06T14:37:17.975Z</time>
      </trkpt>
      <trkpt lat="46.29375" lon="6.12846">
        <ele>451</ele>
        <time>2020-11-06T14:37:18.976Z</time>
      </trkpt>
      <trkpt lat="46.29373" lon="6.12848">
        <ele>450</ele>
        <time>2020-11-06T14:37:19.976Z</time>
      </trkpt>
      <trkpt lat="46.2937" lon="6.1285">
        <ele>449</ele>
        <time>2020-11-06T14:37:20.975Z</time>
      </trkpt>
      <trkpt lat="46.29368" lon="6.12852">
        <ele>449</ele>
        <time>2020-11-06T14:37:21.976Z</time>
      </trkpt>
      <trkpt lat="46.29366" lon="6.12854">
        <ele>448</ele>
        <time>2020-11-06T14:37:22.975Z</time>
      </trkpt>
      <trkpt lat="46.29364" lon="6.12855">
        <ele>448</ele>
        <time>2020-11-06T14:37:23.975Z</time>
      </trkpt>
      <trkpt lat="46.29362" lon="6.12856">
        <ele>448</ele>
        <time>2020-11-06T14:37:24.975Z</time>
      </trkpt>
      <trkpt lat="46.29359" lon="6.12856">
        <ele>447</ele>
        <time>2020-11-06T14:37:25.975Z</time>
      </trkpt>
      <trkpt lat="46.29356" lon="6.12857">
        <ele>447</ele>
        <time>2020-11-06T14:37:26.975Z</time>
      </trkpt>
      <trkpt lat="46.29353" lon="6.12857">
        <ele>447</ele>
        <time>2020-11-06T14:37:27.975Z</time>
      </trkpt>
      <trkpt lat="46.2935" lon="6.12857">
        <ele>447</ele>
        <time>2020-11-06T14:37:28.976Z</time>
      </trkpt>
      <trkpt lat="46.29346" lon="6.12858">
        <ele>447</ele>
        <time>2020-11-06T14:37:29.975Z</time>
      </trkpt>
      <trkpt lat="46.29344" lon="6.12859">
        <ele>446</ele>
        <time>2020-11-06T14:37:30.975Z</time>
      </trkpt>
      <trkpt lat="46.29343" lon="6.1286">
        <ele>446</ele>
        <time>2020-11-06T14:37:31.975Z</time>
      </trkpt>
      <trkpt lat="46.29341" lon="6.12861">
        <ele>446</ele>
        <time>2020-11-06T14:37:32.975Z</time>
      </trkpt>
      <trkpt lat="46.29339" lon="6.12861">
        <ele>446</ele>
        <time>2020-11-06T14:37:33.975Z</time>
      </trkpt>
      <trkpt lat="46.29336" lon="6.12862">
        <ele>445</ele>
        <time>2020-11-06T14:37:34.975Z</time>
      </trkpt>
      <trkpt lat="46.29333" lon="6.12862">
        <ele>445</ele>
        <time>2020-11-06T14:37:35.975Z</time>
      </trkpt>
      <trkpt lat="46.29331" lon="6.12862">
        <ele>445</ele>
        <time>2020-11-06T14:37:36.975Z</time>
      </trkpt>
      <trkpt lat="46.29329" lon="6.12863">
        <ele>444</ele>
        <time>2020-11-06T14:37:37.975Z</time>
      </trkpt>
      <trkpt lat="46.29327" lon="6.12863">
        <ele>444</ele>
        <time>2020-11-06T14:37:38.975Z</time>
      </trkpt>
      <trkpt lat="46.29325" lon="6.12863">
        <ele>443</ele>
        <time>2020-11-06T14:37:39.975Z</time>
      </trkpt>
      <trkpt lat="46.29324" lon="6.12864">
        <ele>443</ele>
        <time>2020-11-06T14:37:40.975Z</time>
      </trkpt>
      <trkpt lat="46.29321" lon="6.12864">
        <ele>443</ele>
        <time>2020-11-06T14:37:41.975Z</time>
      </trkpt>
      <trkpt lat="46.29319" lon="6.12864">
        <ele>442</ele>
        <time>2020-11-06T14:37:42.975Z</time>
      </trkpt>
      <trkpt lat="46.29316" lon="6.12864">
        <ele>442</ele>
        <time>2020-11-06T14:37:43.975Z</time>
      </trkpt>
      <trkpt lat="46.29314" lon="6.12864">
        <ele>442</ele>
        <time>2020-11-06T14:37:44.975Z</time>
      </trkpt>
      <trkpt lat="46.29311" lon="6.12865">
        <ele>442</ele>
        <time>2020-11-06T14:37:45.975Z</time>
      </trkpt>
      <trkpt lat="46.29309" lon="6.12865">
        <ele>442</ele>
        <time>2020-11-06T14:37:46.976Z</time>
      </trkpt>
      <trkpt lat="46.29307" lon="6.12866">
        <ele>443</ele>
        <time>2020-11-06T14:37:47.975Z</time>
      </trkpt>
      <trkpt lat="46.29304" lon="6.12867">
        <ele>443</ele>
        <time>2020-11-06T14:37:48.975Z</time>
      </trkpt>
      <trkpt lat="46.29301" lon="6.12867">
        <ele>443</ele>
        <time>2020-11-06T14:37:49.975Z</time>
      </trkpt>
      <trkpt lat="46.29298" lon="6.12869">
        <ele>444</ele>
        <time>2020-11-06T14:37:50.976Z</time>
      </trkpt>
      <trkpt lat="46.29296" lon="6.12871">
        <ele>444</ele>
        <time>2020-11-06T14:37:51.976Z</time>
      </trkpt>
      <trkpt lat="46.29293" lon="6.12873">
        <ele>444</ele>
        <time>2020-11-06T14:37:52.975Z</time>
      </trkpt>
      <trkpt lat="46.29291" lon="6.12875">
        <ele>444</ele>
        <time>2020-11-06T14:37:53.976Z</time>
      </trkpt>
      <trkpt lat="46.29289" lon="6.12877">
        <ele>444</ele>
        <time>2020-11-06T14:37:54.975Z</time>
      </trkpt>
      <trkpt lat="46.29286" lon="6.1288">
        <ele>444</ele>
        <time>2020-11-06T14:37:55.976Z</time>
      </trkpt>
      <trkpt lat="46.29284" lon="6.12883">
        <ele>444</ele>
        <time>2020-11-06T14:37:56.976Z</time>
      </trkpt>
      <trkpt lat="46.29283" lon="6.12886">
        <ele>445</ele>
        <time>2020-11-06T14:37:57.976Z</time>
      </trkpt>
      <trkpt lat="46.2928" lon="6.1289">
        <ele>445</ele>
        <time>2020-11-06T14:37:58.976Z</time>
      </trkpt>
      <trkpt lat="46.29278" lon="6.12892">
        <ele>445</ele>
        <time>2020-11-06T14:37:59.976Z</time>
      </trkpt>
      <trkpt lat="46.29276" lon="6.12895">
        <ele>445</ele>
        <time>2020-11-06T14:38:00.976Z</time>
      </trkpt>
      <trkpt lat="46.29274" lon="6.12897">
        <ele>445</ele>
        <time>2020-11-06T14:38:01.975Z</time>
      </trkpt>
      <trkpt lat="46.29272" lon="6.12899">
        <ele>446</ele>
        <time>2020-11-06T14:38:02.976Z</time>
      </trkpt>
      <trkpt lat="46.29271" lon="6.12902">
        <ele>447</ele>
        <time>2020-11-06T14:38:03.976Z</time>
      </trkpt>
      <trkpt lat="46.2927" lon="6.12905">
        <ele>447</ele>
        <time>2020-11-06T14:38:04.975Z</time>
      </trkpt>
      <trkpt lat="46.29269" lon="6.12907">
        <ele>447</ele>
        <time>2020-11-06T14:38:05.976Z</time>
      </trkpt>
      <trkpt lat="46.29268" lon="6.1291">
        <ele>447</ele>
        <time>2020-11-06T14:38:06.975Z</time>
      </trkpt>
      <trkpt lat="46.29266" lon="6.12912">
        <ele>447</ele>
        <time>2020-11-06T14:38:07.976Z</time>
      </trkpt>
      <trkpt lat="46.29265" lon="6.12914">
        <ele>446</ele>
        <time>2020-11-06T14:38:08.976Z</time>
      </trkpt>
      <trkpt lat="46.29264" lon="6.12917">
        <ele>446</ele>
        <time>2020-11-06T14:38:09.976Z</time>
      </trkpt>
      <trkpt lat="46.29263" lon="6.12919">
        <ele>446</ele>
        <time>2020-11-06T14:38:10.976Z</time>
      </trkpt>
      <trkpt lat="46.29262" lon="6.12922">
        <ele>445</ele>
        <time>2020-11-06T14:38:11.975Z</time>
      </trkpt>
      <trkpt lat="46.2926" lon="6.12925">
        <ele>445</ele>
        <time>2020-11-06T14:38:12.976Z</time>
      </trkpt>
      <trkpt lat="46.29259" lon="6.12928">
        <ele>444</ele>
        <time>2020-11-06T14:38:13.976Z</time>
      </trkpt>
      <trkpt lat="46.29257" lon="6.1293">
        <ele>444</ele>
        <time>2020-11-06T14:38:14.976Z</time>
      </trkpt>
      <trkpt lat="46.29256" lon="6.12933">
        <ele>444</ele>
        <time>2020-11-06T14:38:15.976Z</time>
      </trkpt>
      <trkpt lat="46.29254" lon="6.12935">
        <ele>443</ele>
        <time>2020-11-06T14:38:16.976Z</time>
      </trkpt>
      <trkpt lat="46.29252" lon="6.12937">
        <ele>442</ele>
        <time>2020-11-06T14:38:17.976Z</time>
      </trkpt>
      <trkpt lat="46.29251" lon="6.1294">
        <ele>441</ele>
        <time>2020-11-06T14:38:18.976Z</time>
      </trkpt>
      <trkpt lat="46.29249" lon="6.12943">
        <ele>441</ele>
        <time>2020-11-06T14:38:19.975Z</time>
      </trkpt>
      <trkpt lat="46.29248" lon="6.12946">
        <ele>440</ele>
        <time>2020-11-06T14:38:20.976Z</time>
      </trkpt>
      <trkpt lat="46.29246" lon="6.12949">
        <ele>440</ele>
        <time>2020-11-06T14:38:21.976Z</time>
      </trkpt>
      <trkpt lat="46.29245" lon="6.12952">
        <ele>440</ele>
        <time>2020-11-06T14:38:22.975Z</time>
      </trkpt>
      <trkpt lat="46.29243" lon="6.12955">
        <ele>440</ele>
        <time>2020-11-06T14:38:23.976Z</time>
      </trkpt>
      <trkpt lat="46.29242" lon="6.12959">
        <ele>440</ele>
        <time>2020-11-06T14:38:24.975Z</time>
      </trkpt>
      <trkpt lat="46.29241" lon="6.12963">
        <ele>440</ele>
        <time>2020-11-06T14:38:25.976Z</time>
      </trkpt>
      <trkpt lat="46.2924" lon="6.12966">
        <ele>440</ele>
        <time>2020-11-06T14:38:26.976Z</time>
      </trkpt>
      <trkpt lat="46.29239" lon="6.12969">
        <ele>440</ele>
        <time>2020-11-06T14:38:27.976Z</time>
      </trkpt>
      <trkpt lat="46.29238" lon="6.12972">
        <ele>440</ele>
        <time>2020-11-06T14:38:28.976Z</time>
      </trkpt>
      <trkpt lat="46.29237" lon="6.12975">
        <ele>440</ele>
        <time>2020-11-06T14:38:29.975Z</time>
      </trkpt>
      <trkpt lat="46.29235" lon="6.12978">
        <ele>440</ele>
        <time>2020-11-06T14:38:30.975Z</time>
      </trkpt>
      <trkpt lat="46.29235" lon="6.12981">
        <ele>440</ele>
        <time>2020-11-06T14:38:31.975Z</time>
      </trkpt>
      <trkpt lat="46.29233" lon="6.12984">
        <ele>440</ele>
        <time>2020-11-06T14:38:32.976Z</time>
      </trkpt>
      <trkpt lat="46.29233" lon="6.12987">
        <ele>440</ele>
        <time>2020-11-06T14:38:33.976Z</time>
      </trkpt>
      <trkpt lat="46.29232" lon="6.1299">
        <ele>439</ele>
        <time>2020-11-06T14:38:34.976Z</time>
      </trkpt>
      <trkpt lat="46.29231" lon="6.12994">
        <ele>439</ele>
        <time>2020-11-06T14:38:35.976Z</time>
      </trkpt>
      <trkpt lat="46.2923" lon="6.12997">
        <ele>438</ele>
        <time>2020-11-06T14:38:36.976Z</time>
      </trkpt>
      <trkpt lat="46.29228" lon="6.12999">
        <ele>438</ele>
        <time>2020-11-06T14:38:37.976Z</time>
      </trkpt>
      <trkpt lat="46.29227" lon="6.13003">
        <ele>438</ele>
        <time>2020-11-06T14:38:38.975Z</time>
      </trkpt>
      <trkpt lat="46.29227" lon="6.13006">
        <ele>438</ele>
        <time>2020-11-06T14:38:39.976Z</time>
      </trkpt>
      <trkpt lat="46.29226" lon="6.13009">
        <ele>438</ele>
        <time>2020-11-06T14:38:40.975Z</time>
      </trkpt>
      <trkpt lat="46.29224" lon="6.13012">
        <ele>438</ele>
        <time>2020-11-06T14:38:41.976Z</time>
      </trkpt>
      <trkpt lat="46.29223" lon="6.13015">
        <ele>438</ele>
        <time>2020-11-06T14:38:42.976Z</time>
      </trkpt>
      <trkpt lat="46.29222" lon="6.13018">
        <ele>439</ele>
        <time>2020-11-06T14:38:43.976Z</time>
      </trkpt>
      <trkpt lat="46.29221" lon="6.13021">
        <ele>439</ele>
        <time>2020-11-06T14:38:44.975Z</time>
      </trkpt>
      <trkpt lat="46.29221" lon="6.13025">
        <ele>439</ele>
        <time>2020-11-06T14:38:45.975Z</time>
      </trkpt>
      <trkpt lat="46.29221" lon="6.13029">
        <ele>439</ele>
        <time>2020-11-06T14:38:46.976Z</time>
      </trkpt>
      <trkpt lat="46.29221" lon="6.13033">
        <ele>440</ele>
        <time>2020-11-06T14:38:47.975Z</time>
      </trkpt>
      <trkpt lat="46.29222" lon="6.13037">
        <ele>441</ele>
        <time>2020-11-06T14:38:48.975Z</time>
      </trkpt>
      <trkpt lat="46.29221" lon="6.13039">
        <ele>441</ele>
        <time>2020-11-06T14:38:49.976Z</time>
      </trkpt>
      <trkpt lat="46.2922" lon="6.13041">
        <ele>441</ele>
        <time>2020-11-06T14:38:50.976Z</time>
      </trkpt>
      <trkpt lat="46.29218" lon="6.13043">
        <ele>441</ele>
        <time>2020-11-06T14:38:51.975Z</time>
      </trkpt>
      <trkpt lat="46.29217" lon="6.13045">
        <ele>441</ele>
        <time>2020-11-06T14:38:52.975Z</time>
      </trkpt>
      <trkpt lat="46.29216" lon="6.13048">
        <ele>441</ele>
        <time>2020-11-06T14:38:53.976Z</time>
      </trkpt>
      <trkpt lat="46.29215" lon="6.13051">
        <ele>442</ele>
        <time>2020-11-06T14:38:54.976Z</time>
      </trkpt>
      <trkpt lat="46.29214" lon="6.13054">
        <ele>442</ele>
        <time>2020-11-06T14:38:55.976Z</time>
      </trkpt>
      <trkpt lat="46.29214" lon="6.13057">
        <ele>443</ele>
        <time>2020-11-06T14:38:56.975Z</time>
      </trkpt>
      <trkpt lat="46.29213" lon="6.1306">
        <ele>443</ele>
        <time>2020-11-06T14:38:57.976Z</time>
      </trkpt>
      <trkpt lat="46.29212" lon="6.13063">
        <ele>443</ele>
        <time>2020-11-06T14:38:58.976Z</time>
      </trkpt>
      <trkpt lat="46.29211" lon="6.13066">
        <ele>442</ele>
        <time>2020-11-06T14:38:59.976Z</time>
      </trkpt>
      <trkpt lat="46.29209" lon="6.13069">
        <ele>442</ele>
        <time>2020-11-06T14:39:00.976Z</time>
      </trkpt>
      <trkpt lat="46.29208" lon="6.13071">
        <ele>441</ele>
        <time>2020-11-06T14:39:01.976Z</time>
      </trkpt>
      <trkpt lat="46.29208" lon="6.13074">
        <ele>441</ele>
        <time>2020-11-06T14:39:02.976Z</time>
      </trkpt>
      <trkpt lat="46.29206" lon="6.13077">
        <ele>441</ele>
        <time>2020-11-06T14:39:03.976Z</time>
      </trkpt>
      <trkpt lat="46.29205" lon="6.1308">
        <ele>441</ele>
        <time>2020-11-06T14:39:04.975Z</time>
      </trkpt>
      <trkpt lat="46.29204" lon="6.13083">
        <ele>441</ele>
        <time>2020-11-06T14:39:05.976Z</time>
      </trkpt>
      <trkpt lat="46.29203" lon="6.13085">
        <ele>441</ele>
        <time>2020-11-06T14:39:06.976Z</time>
      </trkpt>
      <trkpt lat="46.29202" lon="6.13089">
        <ele>441</ele>
        <time>2020-11-06T14:39:07.976Z</time>
      </trkpt>
      <trkpt lat="46.29202" lon="6.13092">
        <ele>441</ele>
        <time>2020-11-06T14:39:08.976Z</time>
      </trkpt>
      <trkpt lat="46.29201" lon="6.13095">
        <ele>441</ele>
        <time>2020-11-06T14:39:09.975Z</time>
      </trkpt>
      <trkpt lat="46.292" lon="6.13098">
        <ele>441</ele>
        <time>2020-11-06T14:39:10.976Z</time>
      </trkpt>
      <trkpt lat="46.29199" lon="6.13101">
        <ele>441</ele>
        <time>2020-11-06T14:39:11.975Z</time>
      </trkpt>
      <trkpt lat="46.29197" lon="6.13104">
        <ele>440</ele>
        <time>2020-11-06T14:39:12.975Z</time>
      </trkpt>
      <trkpt lat="46.29196" lon="6.13106">
        <ele>440</ele>
        <time>2020-11-06T14:39:13.975Z</time>
      </trkpt>
      <trkpt lat="46.29195" lon="6.13108">
        <ele>440</ele>
        <time>2020-11-06T14:39:14.976Z</time>
      </trkpt>
      <trkpt lat="46.29193" lon="6.1311">
        <ele>441</ele>
        <time>2020-11-06T14:39:15.976Z</time>
      </trkpt>
      <trkpt lat="46.29192" lon="6.13112">
        <ele>441</ele>
        <time>2020-11-06T14:39:16.975Z</time>
      </trkpt>
      <trkpt lat="46.29191" lon="6.13115">
        <ele>441</ele>
        <time>2020-11-06T14:39:17.976Z</time>
      </trkpt>
      <trkpt lat="46.2919" lon="6.13118">
        <ele>441</ele>
        <time>2020-11-06T14:39:18.976Z</time>
      </trkpt>
      <trkpt lat="46.29189" lon="6.13121">
        <ele>441</ele>
        <time>2020-11-06T14:39:19.976Z</time>
      </trkpt>
      <trkpt lat="46.29189" lon="6.13124">
        <ele>442</ele>
        <time>2020-11-06T14:39:20.976Z</time>
      </trkpt>
      <trkpt lat="46.29189" lon="6.13127">
        <ele>442</ele>
        <time>2020-11-06T14:39:21.975Z</time>
      </trkpt>
      <trkpt lat="46.29188" lon="6.1313">
        <ele>442</ele>
        <time>2020-11-06T14:39:22.976Z</time>
      </trkpt>
      <trkpt lat="46.29187" lon="6.13133">
        <ele>442</ele>
        <time>2020-11-06T14:39:23.975Z</time>
      </trkpt>
      <trkpt lat="46.29186" lon="6.13136">
        <ele>442</ele>
        <time>2020-11-06T14:39:24.976Z</time>
      </trkpt>
      <trkpt lat="46.29185" lon="6.13139">
        <ele>442</ele>
        <time>2020-11-06T14:39:25.976Z</time>
      </trkpt>
      <trkpt lat="46.29184" lon="6.13142">
        <ele>442</ele>
        <time>2020-11-06T14:39:26.976Z</time>
      </trkpt>
      <trkpt lat="46.29184" lon="6.13146">
        <ele>442</ele>
        <time>2020-11-06T14:39:27.976Z</time>
      </trkpt>
      <trkpt lat="46.29184" lon="6.1315">
        <ele>442</ele>
        <time>2020-11-06T14:39:28.976Z</time>
      </trkpt>
      <trkpt lat="46.29183" lon="6.13154">
        <ele>442</ele>
        <time>2020-11-06T14:39:29.976Z</time>
      </trkpt>
      <trkpt lat="46.29183" lon="6.13157">
        <ele>443</ele>
        <time>2020-11-06T14:39:30.976Z</time>
      </trkpt>
      <trkpt lat="46.29182" lon="6.13159">
        <ele>443</ele>
        <time>2020-11-06T14:39:31.976Z</time>
      </trkpt>
      <trkpt lat="46.29182" lon="6.13162">
        <ele>442</ele>
        <time>2020-11-06T14:39:32.976Z</time>
      </trkpt>
      <trkpt lat="46.29182" lon="6.13166">
        <ele>443</ele>
        <time>2020-11-06T14:39:33.976Z</time>
      </trkpt>
      <trkpt lat="46.29181" lon="6.13168">
        <ele>443</ele>
        <time>2020-11-06T14:39:34.976Z</time>
      </trkpt>
      <trkpt lat="46.2918" lon="6.13171">
        <ele>443</ele>
        <time>2020-11-06T14:39:35.975Z</time>
      </trkpt>
      <trkpt lat="46.2918" lon="6.13174">
        <ele>443</ele>
        <time>2020-11-06T14:39:36.975Z</time>
      </trkpt>
      <trkpt lat="46.29179" lon="6.13177">
        <ele>444</ele>
        <time>2020-11-06T14:39:37.975Z</time>
      </trkpt>
      <trkpt lat="46.29178" lon="6.13179">
        <ele>444</ele>
        <time>2020-11-06T14:39:38.976Z</time>
      </trkpt>
      <trkpt lat="46.29177" lon="6.13181">
        <ele>444</ele>
        <time>2020-11-06T14:39:39.976Z</time>
      </trkpt>
      <trkpt lat="46.29176" lon="6.13184">
        <ele>443</ele>
        <time>2020-11-06T14:39:40.976Z</time>
      </trkpt>
      <trkpt lat="46.29175" lon="6.13186">
        <ele>443</ele>
        <time>2020-11-06T14:39:41.976Z</time>
      </trkpt>
      <trkpt lat="46.29175" lon="6.13189">
        <ele>442</ele>
        <time>2020-11-06T14:39:42.976Z</time>
      </trkpt>
      <trkpt lat="46.29174" lon="6.13192">
        <ele>442</ele>
        <time>2020-11-06T14:39:43.975Z</time>
      </trkpt>
      <trkpt lat="46.29174" lon="6.13195">
        <ele>441</ele>
        <time>2020-11-06T14:39:44.976Z</time>
      </trkpt>
      <trkpt lat="46.29173" lon="6.13198">
        <ele>441</ele>
        <time>2020-11-06T14:39:45.976Z</time>
      </trkpt>
      <trkpt lat="46.29174" lon="6.13205">
        <ele>441</ele>
        <time>2020-11-06T14:39:46.975Z</time>
      </trkpt>
      <trkpt lat="46.29175" lon="6.1321">
        <ele>440</ele>
        <time>2020-11-06T14:39:47.975Z</time>
      </trkpt>
      <trkpt lat="46.29174" lon="6.13214">
        <ele>439</ele>
        <time>2020-11-06T14:39:48.975Z</time>
      </trkpt>
      <trkpt lat="46.29173" lon="6.13218">
        <ele>439</ele>
        <time>2020-11-06T14:39:49.976Z</time>
      </trkpt>
      <trkpt lat="46.29172" lon="6.13221">
        <ele>439</ele>
        <time>2020-11-06T14:39:50.976Z</time>
      </trkpt>
      <trkpt lat="46.29171" lon="6.13225">
        <ele>438</ele>
        <time>2020-11-06T14:39:51.975Z</time>
      </trkpt>
      <trkpt lat="46.2917" lon="6.13229">
        <ele>438</ele>
        <time>2020-11-06T14:39:52.976Z</time>
      </trkpt>
      <trkpt lat="46.2917" lon="6.13233">
        <ele>438</ele>
        <time>2020-11-06T14:39:53.975Z</time>
      </trkpt>
      <trkpt lat="46.2917" lon="6.13237">
        <ele>438</ele>
        <time>2020-11-06T14:39:54.975Z</time>
      </trkpt>
      <trkpt lat="46.2917" lon="6.13239">
        <ele>438</ele>
        <time>2020-11-06T14:39:55.975Z</time>
      </trkpt>
      <trkpt lat="46.2917" lon="6.13243">
        <ele>438</ele>
        <time>2020-11-06T14:39:56.976Z</time>
      </trkpt>
      <trkpt lat="46.29171" lon="6.13246">
        <ele>439</ele>
        <time>2020-11-06T14:39:57.976Z</time>
      </trkpt>
      <trkpt lat="46.29172" lon="6.13251">
        <ele>439</ele>
        <time>2020-11-06T14:39:58.975Z</time>
      </trkpt>
      <trkpt lat="46.29174" lon="6.13256">
        <ele>439</ele>
        <time>2020-11-06T14:39:59.975Z</time>
      </trkpt>
      <trkpt lat="46.29176" lon="6.1326">
        <ele>440</ele>
        <time>2020-11-06T14:40:00.975Z</time>
      </trkpt>
      <trkpt lat="46.29178" lon="6.13265">
        <ele>440</ele>
        <time>2020-11-06T14:40:01.976Z</time>
      </trkpt>
      <trkpt lat="46.2918" lon="6.13269">
        <ele>440</ele>
        <time>2020-11-06T14:40:02.976Z</time>
      </trkpt>
      <trkpt lat="46.29181" lon="6.13273">
        <ele>441</ele>
        <time>2020-11-06T14:40:03.976Z</time>
      </trkpt>
      <trkpt lat="46.29183" lon="6.13275">
        <ele>441</ele>
        <time>2020-11-06T14:40:04.975Z</time>
      </trkpt>
      <trkpt lat="46.29185" lon="6.13278">
        <ele>441</ele>
        <time>2020-11-06T14:40:05.975Z</time>
      </trkpt>
      <trkpt lat="46.29186" lon="6.13281">
        <ele>441</ele>
        <time>2020-11-06T14:40:06.976Z</time>
      </trkpt>
      <trkpt lat="46.29189" lon="6.13284">
        <ele>441</ele>
        <time>2020-11-06T14:40:07.976Z</time>
      </trkpt>
      <trkpt lat="46.29191" lon="6.13287">
        <ele>441</ele>
        <time>2020-11-06T14:40:08.976Z</time>
      </trkpt>
      <trkpt lat="46.29192" lon="6.13291">
        <ele>441</ele>
        <time>2020-11-06T14:40:09.976Z</time>
      </trkpt>
      <trkpt lat="46.29195" lon="6.13293">
        <ele>441</ele>
        <time>2020-11-06T14:40:10.976Z</time>
      </trkpt>
      <trkpt lat="46.29198" lon="6.13296">
        <ele>441</ele>
        <time>2020-11-06T14:40:11.975Z</time>
      </trkpt>
      <trkpt lat="46.29199" lon="6.13298">
        <ele>441</ele>
        <time>2020-11-06T14:40:12.975Z</time>
      </trkpt>
      <trkpt lat="46.29201" lon="6.13301">
        <ele>441</ele>
        <time>2020-11-06T14:40:13.975Z</time>
      </trkpt>
      <trkpt lat="46.29202" lon="6.13301">
        <ele>441</ele>
        <time>2020-11-06T14:40:14.975Z</time>
      </trkpt>
      <trkpt lat="46.29203" lon="6.13301">
        <ele>441</ele>
        <time>2020-11-06T14:40:15.976Z</time>
      </trkpt>
      <trkpt lat="46.29203" lon="6.133">
        <ele>440</ele>
        <time>2020-11-06T14:40:16.976Z</time>
      </trkpt>
      <trkpt lat="46.29204" lon="6.13301">
        <ele>440</ele>
        <time>2020-11-06T14:40:17.976Z</time>
      </trkpt>
      <trkpt lat="46.29204" lon="6.13303">
        <ele>440</ele>
        <time>2020-11-06T14:40:18.975Z</time>
      </trkpt>
      <trkpt lat="46.29204" lon="6.13302">
        <ele>439</ele>
        <time>2020-11-06T14:40:19.975Z</time>
      </trkpt>
      <trkpt lat="46.29204" lon="6.13301">
        <ele>439</ele>
        <time>2020-11-06T14:40:20.975Z</time>
      </trkpt>
      <trkpt lat="46.29203" lon="6.133">
        <ele>438</ele>
        <time>2020-11-06T14:40:21.975Z</time>
      </trkpt>
      <trkpt lat="46.29203" lon="6.133">
        <ele>438</ele>
        <time>2020-11-06T14:40:22.975Z</time>
      </trkpt>
      <trkpt lat="46.29204" lon="6.133">
        <ele>437</ele>
        <time>2020-11-06T14:40:23.975Z</time>
      </trkpt>
      <trkpt lat="46.29205" lon="6.13301">
        <ele>437</ele>
        <time>2020-11-06T14:40:24.975Z</time>
      </trkpt>
      <trkpt lat="46.29206" lon="6.13301">
        <ele>437</ele>
        <time>2020-11-06T14:40:25.976Z</time>
      </trkpt>
      <trkpt lat="46.29207" lon="6.13302">
        <ele>438</ele>
        <time>2020-11-06T14:40:26.975Z</time>
      </trkpt>
      <trkpt lat="46.29207" lon="6.13304">
        <ele>439</ele>
        <time>2020-11-06T14:40:27.975Z</time>
      </trkpt>
      <trkpt lat="46.29207" lon="6.13304">
        <ele>440</ele>
        <time>2020-11-06T14:40:28.976Z</time>
      </trkpt>
      <trkpt lat="46.29208" lon="6.13304">
        <ele>440</ele>
        <time>2020-11-06T14:40:29.976Z</time>
      </trkpt>
      <trkpt lat="46.29208" lon="6.13305">
        <ele>441</ele>
        <time>2020-11-06T14:40:30.976Z</time>
      </trkpt>
      <trkpt lat="46.29208" lon="6.13305">
        <ele>441</ele>
        <time>2020-11-06T14:40:31.976Z</time>
      </trkpt>
      <trkpt lat="46.29208" lon="6.13305">
        <ele>441</ele>
        <time>2020-11-06T14:40:32.976Z</time>
      </trkpt>
      <trkpt lat="46.29208" lon="6.13305">
        <ele>442</ele>
        <time>2020-11-06T14:40:33.976Z</time>
      </trkpt>
      <trkpt lat="46.29208" lon="6.13305">
        <ele>442</ele>
        <time>2020-11-06T14:40:34.975Z</time>
      </trkpt>
      <trkpt lat="46.29208" lon="6.13306">
        <ele>442</ele>
        <time>2020-11-06T14:40:35.976Z</time>
      </trkpt>
      <trkpt lat="46.29209" lon="6.13306">
        <ele>441</ele>
        <time>2020-11-06T14:40:36.976Z</time>
      </trkpt>
      <trkpt lat="46.29209" lon="6.13306">
        <ele>441</ele>
        <time>2020-11-06T14:40:37.976Z</time>
      </trkpt>
      <trkpt lat="46.29209" lon="6.13305">
        <ele>440</ele>
        <time>2020-11-06T14:40:38.976Z</time>
      </trkpt>
      <trkpt lat="46.29208" lon="6.13303">
        <ele>439</ele>
        <time>2020-11-06T14:40:39.976Z</time>
      </trkpt>
      <trkpt lat="46.29207" lon="6.13303">
        <ele>439</ele>
        <time>2020-11-06T14:40:40.976Z</time>
      </trkpt>
      <trkpt lat="46.29206" lon="6.13302">
        <ele>439</ele>
        <time>2020-11-06T14:40:41.976Z</time>
      </trkpt>
      <trkpt lat="46.29205" lon="6.13302">
        <ele>439</ele>
        <time>2020-11-06T14:40:42.976Z</time>
      </trkpt>
      <trkpt lat="46.29205" lon="6.13302">
        <ele>438</ele>
        <time>2020-11-06T14:40:43.975Z</time>
      </trkpt>
      <trkpt lat="46.29204" lon="6.13302">
        <ele>438</ele>
        <time>2020-11-06T14:40:44.976Z</time>
      </trkpt>
      <trkpt lat="46.29203" lon="6.13302">
        <ele>437</ele>
        <time>2020-11-06T14:40:45.975Z</time>
      </trkpt>
      <trkpt lat="46.29202" lon="6.13302">
        <ele>437</ele>
        <time>2020-11-06T14:40:46.976Z</time>
      </trkpt>
      <trkpt lat="46.29202" lon="6.13302">
        <ele>436</ele>
        <time>2020-11-06T14:40:47.976Z</time>
      </trkpt>
      <trkpt lat="46.29202" lon="6.13303">
        <ele>436</ele>
        <time>2020-11-06T14:40:48.976Z</time>
      </trkpt>
      <trkpt lat="46.29203" lon="6.13304">
        <ele>436</ele>
        <time>2020-11-06T14:40:49.975Z</time>
      </trkpt>
      <trkpt lat="46.29203" lon="6.13305">
        <ele>435</ele>
        <time>2020-11-06T14:40:50.975Z</time>
      </trkpt>
      <trkpt lat="46.29203" lon="6.13306">
        <ele>435</ele>
        <time>2020-11-06T14:40:51.976Z</time>
      </trkpt>
      <trkpt lat="46.29203" lon="6.13307">
        <ele>435</ele>
        <time>2020-11-06T14:40:52.975Z</time>
      </trkpt>
      <trkpt lat="46.29202" lon="6.13308">
        <ele>435</ele>
        <time>2020-11-06T14:40:53.976Z</time>
      </trkpt>
      <trkpt lat="46.29202" lon="6.13308">
        <ele>435</ele>
        <time>2020-11-06T14:40:54.976Z</time>
      </trkpt>
      <trkpt lat="46.29202" lon="6.13308">
        <ele>435</ele>
        <time>2020-11-06T14:40:55.976Z</time>
      </trkpt>
      <trkpt lat="46.29202" lon="6.13309">
        <ele>436</ele>
        <time>2020-11-06T14:40:56.976Z</time>
      </trkpt>
      <trkpt lat="46.29202" lon="6.1331">
        <ele>436</ele>
        <time>2020-11-06T14:40:57.975Z</time>
      </trkpt>
      <trkpt lat="46.29202" lon="6.1331">
        <ele>437</ele>
        <time>2020-11-06T14:40:58.976Z</time>
      </trkpt>
      <trkpt lat="46.29202" lon="6.1331">
        <ele>437</ele>
        <time>2020-11-06T14:40:59.976Z</time>
      </trkpt>
      <trkpt lat="46.29201" lon="6.13309">
        <ele>438</ele>
        <time>2020-11-06T14:41:00.975Z</time>
      </trkpt>
      <trkpt lat="46.292" lon="6.13308">
        <ele>439</ele>
        <time>2020-11-06T14:41:01.975Z</time>
      </trkpt>
      <trkpt lat="46.292" lon="6.13308">
        <ele>440</ele>
        <time>2020-11-06T14:41:02.975Z</time>
      </trkpt>
      <trkpt lat="46.292" lon="6.13308">
        <ele>441</ele>
        <time>2020-11-06T14:41:03.975Z</time>
      </trkpt>
      <trkpt lat="46.292" lon="6.13308">
        <ele>441</ele>
        <time>2020-11-06T14:41:04.976Z</time>
      </trkpt>
      <trkpt lat="46.292" lon="6.13308">
        <ele>442</ele>
        <time>2020-11-06T14:41:05.975Z</time>
      </trkpt>
      <trkpt lat="46.292" lon="6.13308">
        <ele>442</ele>
        <time>2020-11-06T14:41:06.975Z</time>
      </trkpt>
      <trkpt lat="46.292" lon="6.13308">
        <ele>443</ele>
        <time>2020-11-06T14:41:07.976Z</time>
      </trkpt>
      <trkpt lat="46.292" lon="6.13308">
        <ele>443</ele>
        <time>2020-11-06T14:41:08.976Z</time>
      </trkpt>
      <trkpt lat="46.292" lon="6.13308">
        <ele>443</ele>
        <time>2020-11-06T14:41:09.976Z</time>
      </trkpt>
      <trkpt lat="46.292" lon="6.13308">
        <ele>444</ele>
        <time>2020-11-06T14:41:10.976Z</time>
      </trkpt>
      <trkpt lat="46.292" lon="6.13308">
        <ele>444</ele>
        <time>2020-11-06T14:41:11.975Z</time>
      </trkpt>
      <trkpt lat="46.292" lon="6.13308">
        <ele>444</ele>
        <time>2020-11-06T14:41:12.976Z</time>
      </trkpt>
      <trkpt lat="46.292" lon="6.13308">
        <ele>444</ele>
        <time>2020-11-06T14:41:13.976Z</time>
      </trkpt>
      <trkpt lat="46.292" lon="6.13308">
        <ele>444</ele>
        <time>2020-11-06T14:41:14.976Z</time>
      </trkpt>
      <trkpt lat="46.292" lon="6.13308">
        <ele>445</ele>
        <time>2020-11-06T14:41:15.975Z</time>
      </trkpt>
      <trkpt lat="46.292" lon="6.13308">
        <ele>445</ele>
        <time>2020-11-06T14:41:16.975Z</time>
      </trkpt>
      <trkpt lat="46.292" lon="6.13308">
        <ele>445</ele>
        <time>2020-11-06T14:41:17.976Z</time>
      </trkpt>
      <trkpt lat="46.292" lon="6.13308">
        <ele>445</ele>
        <time>2020-11-06T14:41:18.976Z</time>
      </trkpt>
      <trkpt lat="46.292" lon="6.13308">
        <ele>445</ele>
        <time>2020-11-06T14:41:19.976Z</time>
      </trkpt>
      <trkpt lat="46.292" lon="6.13308">
        <ele>445</ele>
        <time>2020-11-06T14:41:20.976Z</time>
      </trkpt>
      <trkpt lat="46.292" lon="6.13307">
        <ele>445</ele>
        <time>2020-11-06T14:41:21.976Z</time>
      </trkpt>
      <trkpt lat="46.292" lon="6.13307">
        <ele>445</ele>
        <time>2020-11-06T14:41:22.976Z</time>
      </trkpt>
      <trkpt lat="46.29199" lon="6.13307">
        <ele>445</ele>
        <time>2020-11-06T14:41:23.976Z</time>
      </trkpt>
      <trkpt lat="46.29199" lon="6.13307">
        <ele>445</ele>
        <time>2020-11-06T14:41:24.975Z</time>
      </trkpt>
      <trkpt lat="46.292" lon="6.13309">
        <ele>446</ele>
        <time>2020-11-06T14:41:25.976Z</time>
      </trkpt>
      <trkpt lat="46.29201" lon="6.13311">
        <ele>446</ele>
        <time>2020-11-06T14:41:26.976Z</time>
      </trkpt>
      <trkpt lat="46.29203" lon="6.13313">
        <ele>446</ele>
        <time>2020-11-06T14:41:27.976Z</time>
      </trkpt>
      <trkpt lat="46.29205" lon="6.13315">
        <ele>445</ele>
        <time>2020-11-06T14:41:28.975Z</time>
      </trkpt>
      <trkpt lat="46.29207" lon="6.13318">
        <ele>445</ele>
        <time>2020-11-06T14:41:29.976Z</time>
      </trkpt>
      <trkpt lat="46.29209" lon="6.1332">
        <ele>445</ele>
        <time>2020-11-06T14:41:30.976Z</time>
      </trkpt>
      <trkpt lat="46.29211" lon="6.13322">
        <ele>445</ele>
        <time>2020-11-06T14:41:31.976Z</time>
      </trkpt>
      <trkpt lat="46.29213" lon="6.13325">
        <ele>445</ele>
        <time>2020-11-06T14:41:32.976Z</time>
      </trkpt>
      <trkpt lat="46.29214" lon="6.13328">
        <ele>444</ele>
        <time>2020-11-06T14:41:33.975Z</time>
      </trkpt>
      <trkpt lat="46.29215" lon="6.1333">
        <ele>444</ele>
        <time>2020-11-06T14:41:34.976Z</time>
      </trkpt>
      <trkpt lat="46.29217" lon="6.13332">
        <ele>444</ele>
        <time>2020-11-06T14:41:35.976Z</time>
      </trkpt>
      <trkpt lat="46.29219" lon="6.13337">
        <ele>444</ele>
        <time>2020-11-06T14:41:36.976Z</time>
      </trkpt>
      <trkpt lat="46.29221" lon="6.13339">
        <ele>443</ele>
        <time>2020-11-06T14:41:37.976Z</time>
      </trkpt>
      <trkpt lat="46.29222" lon="6.13342">
        <ele>443</ele>
        <time>2020-11-06T14:41:38.976Z</time>
      </trkpt>
      <trkpt lat="46.29223" lon="6.13345">
        <ele>443</ele>
        <time>2020-11-06T14:41:39.976Z</time>
      </trkpt>
      <trkpt lat="46.29224" lon="6.13348">
        <ele>443</ele>
        <time>2020-11-06T14:41:40.975Z</time>
      </trkpt>
      <trkpt lat="46.29225" lon="6.13351">
        <ele>443</ele>
        <time>2020-11-06T14:41:41.976Z</time>
      </trkpt>
      <trkpt lat="46.29226" lon="6.13354">
        <ele>443</ele>
        <time>2020-11-06T14:41:42.976Z</time>
      </trkpt>
      <trkpt lat="46.29226" lon="6.13357">
        <ele>443</ele>
        <time>2020-11-06T14:41:43.975Z</time>
      </trkpt>
      <trkpt lat="46.29227" lon="6.13359">
        <ele>443</ele>
        <time>2020-11-06T14:41:44.976Z</time>
      </trkpt>
      <trkpt lat="46.29227" lon="6.13362">
        <ele>443</ele>
        <time>2020-11-06T14:41:45.976Z</time>
      </trkpt>
      <trkpt lat="46.29228" lon="6.13364">
        <ele>443</ele>
        <time>2020-11-06T14:41:46.976Z</time>
      </trkpt>
      <trkpt lat="46.29229" lon="6.13367">
        <ele>443</ele>
        <time>2020-11-06T14:41:47.975Z</time>
      </trkpt>
      <trkpt lat="46.29231" lon="6.1337">
        <ele>443</ele>
        <time>2020-11-06T14:41:48.976Z</time>
      </trkpt>
      <trkpt lat="46.29232" lon="6.13373">
        <ele>442</ele>
        <time>2020-11-06T14:41:49.976Z</time>
      </trkpt>
      <trkpt lat="46.29234" lon="6.13377">
        <ele>441</ele>
        <time>2020-11-06T14:41:50.976Z</time>
      </trkpt>
      <trkpt lat="46.29236" lon="6.1338">
        <ele>441</ele>
        <time>2020-11-06T14:41:51.975Z</time>
      </trkpt>
      <trkpt lat="46.29237" lon="6.13383">
        <ele>441</ele>
        <time>2020-11-06T14:41:52.976Z</time>
      </trkpt>
      <trkpt lat="46.2924" lon="6.13386">
        <ele>441</ele>
        <time>2020-11-06T14:41:53.976Z</time>
      </trkpt>
      <trkpt lat="46.29242" lon="6.13389">
        <ele>441</ele>
        <time>2020-11-06T14:41:54.976Z</time>
      </trkpt>
      <trkpt lat="46.29244" lon="6.1339">
        <ele>441</ele>
        <time>2020-11-06T14:41:55.976Z</time>
      </trkpt>
      <trkpt lat="46.29247" lon="6.1339">
        <ele>442</ele>
        <time>2020-11-06T14:41:56.976Z</time>
      </trkpt>
      <trkpt lat="46.29251" lon="6.1339">
        <ele>442</ele>
        <time>2020-11-06T14:41:57.976Z</time>
      </trkpt>
      <trkpt lat="46.29253" lon="6.1339">
        <ele>443</ele>
        <time>2020-11-06T14:41:58.975Z</time>
      </trkpt>
      <trkpt lat="46.29255" lon="6.1339">
        <ele>444</ele>
        <time>2020-11-06T14:41:59.975Z</time>
      </trkpt>
      <trkpt lat="46.29258" lon="6.1339">
        <ele>444</ele>
        <time>2020-11-06T14:42:00.976Z</time>
      </trkpt>
      <trkpt lat="46.2926" lon="6.13391">
        <ele>445</ele>
        <time>2020-11-06T14:42:01.975Z</time>
      </trkpt>
      <trkpt lat="46.29263" lon="6.13392">
        <ele>445</ele>
        <time>2020-11-06T14:42:02.976Z</time>
      </trkpt>
      <trkpt lat="46.29266" lon="6.13392">
        <ele>446</ele>
        <time>2020-11-06T14:42:03.975Z</time>
      </trkpt>
      <trkpt lat="46.29268" lon="6.13393">
        <ele>446</ele>
        <time>2020-11-06T14:42:04.976Z</time>
      </trkpt>
      <trkpt lat="46.29271" lon="6.13393">
        <ele>446</ele>
        <time>2020-11-06T14:42:05.976Z</time>
      </trkpt>
      <trkpt lat="46.29274" lon="6.13394">
        <ele>446</ele>
        <time>2020-11-06T14:42:06.976Z</time>
      </trkpt>
      <trkpt lat="46.29276" lon="6.13394">
        <ele>447</ele>
        <time>2020-11-06T14:42:07.976Z</time>
      </trkpt>
      <trkpt lat="46.29278" lon="6.13394">
        <ele>447</ele>
        <time>2020-11-06T14:42:08.976Z</time>
      </trkpt>
      <trkpt lat="46.2928" lon="6.13394">
        <ele>448</ele>
        <time>2020-11-06T14:42:09.976Z</time>
      </trkpt>
      <trkpt lat="46.29283" lon="6.13394">
        <ele>448</ele>
        <time>2020-11-06T14:42:10.976Z</time>
      </trkpt>
      <trkpt lat="46.29285" lon="6.13393">
        <ele>448</ele>
        <time>2020-11-06T14:42:11.976Z</time>
      </trkpt>
      <trkpt lat="46.29288" lon="6.13392">
        <ele>448</ele>
        <time>2020-11-06T14:42:12.975Z</time>
      </trkpt>
      <trkpt lat="46.2929" lon="6.1339">
        <ele>448</ele>
        <time>2020-11-06T14:42:13.976Z</time>
      </trkpt>
      <trkpt lat="46.29293" lon="6.1339">
        <ele>447</ele>
        <time>2020-11-06T14:42:14.975Z</time>
      </trkpt>
      <trkpt lat="46.29295" lon="6.1339">
        <ele>447</ele>
        <time>2020-11-06T14:42:15.976Z</time>
      </trkpt>
      <trkpt lat="46.29298" lon="6.1339">
        <ele>447</ele>
        <time>2020-11-06T14:42:16.976Z</time>
      </trkpt>
      <trkpt lat="46.29301" lon="6.13389">
        <ele>446</ele>
        <time>2020-11-06T14:42:17.976Z</time>
      </trkpt>
      <trkpt lat="46.29304" lon="6.13388">
        <ele>446</ele>
        <time>2020-11-06T14:42:18.976Z</time>
      </trkpt>
      <trkpt lat="46.29307" lon="6.13387">
        <ele>446</ele>
        <time>2020-11-06T14:42:19.976Z</time>
      </trkpt>
      <trkpt lat="46.29311" lon="6.13387">
        <ele>446</ele>
        <time>2020-11-06T14:42:20.976Z</time>
      </trkpt>
      <trkpt lat="46.29314" lon="6.13387">
        <ele>446</ele>
        <time>2020-11-06T14:42:21.975Z</time>
      </trkpt>
      <trkpt lat="46.29316" lon="6.13387">
        <ele>446</ele>
        <time>2020-11-06T14:42:22.976Z</time>
      </trkpt>
      <trkpt lat="46.29319" lon="6.13387">
        <ele>446</ele>
        <time>2020-11-06T14:42:23.976Z</time>
      </trkpt>
      <trkpt lat="46.29321" lon="6.13386">
        <ele>446</ele>
        <time>2020-11-06T14:42:24.975Z</time>
      </trkpt>
      <trkpt lat="46.29323" lon="6.13386">
        <ele>446</ele>
        <time>2020-11-06T14:42:25.976Z</time>
      </trkpt>
      <trkpt lat="46.29325" lon="6.13385">
        <ele>446</ele>
        <time>2020-11-06T14:42:26.976Z</time>
      </trkpt>
      <trkpt lat="46.29327" lon="6.13385">
        <ele>446</ele>
        <time>2020-11-06T14:42:27.976Z</time>
      </trkpt>
      <trkpt lat="46.2933" lon="6.13385">
        <ele>446</ele>
        <time>2020-11-06T14:42:28.976Z</time>
      </trkpt>
      <trkpt lat="46.29332" lon="6.13387">
        <ele>447</ele>
        <time>2020-11-06T14:42:29.976Z</time>
      </trkpt>
      <trkpt lat="46.29334" lon="6.13387">
        <ele>447</ele>
        <time>2020-11-06T14:42:30.976Z</time>
      </trkpt>
      <trkpt lat="46.29336" lon="6.13387">
        <ele>447</ele>
        <time>2020-11-06T14:42:31.975Z</time>
      </trkpt>
      <trkpt lat="46.29338" lon="6.13386">
        <ele>447</ele>
        <time>2020-11-06T14:42:32.976Z</time>
      </trkpt>
      <trkpt lat="46.2934" lon="6.13385">
        <ele>447</ele>
        <time>2020-11-06T14:42:33.976Z</time>
      </trkpt>
      <trkpt lat="46.29343" lon="6.13383">
        <ele>446</ele>
        <time>2020-11-06T14:42:34.976Z</time>
      </trkpt>
      <trkpt lat="46.29346" lon="6.13383">
        <ele>446</ele>
        <time>2020-11-06T14:42:35.975Z</time>
      </trkpt>
      <trkpt lat="46.29349" lon="6.13382">
        <ele>446</ele>
        <time>2020-11-06T14:42:36.975Z</time>
      </trkpt>
      <trkpt lat="46.29352" lon="6.13379">
        <ele>446</ele>
        <time>2020-11-06T14:42:37.976Z</time>
      </trkpt>
      <trkpt lat="46.29354" lon="6.13377">
        <ele>446</ele>
        <time>2020-11-06T14:42:38.975Z</time>
      </trkpt>
      <trkpt lat="46.29356" lon="6.13374">
        <ele>445</ele>
        <time>2020-11-06T14:42:39.976Z</time>
      </trkpt>
      <trkpt lat="46.29357" lon="6.1337">
        <ele>445</ele>
        <time>2020-11-06T14:42:40.976Z</time>
      </trkpt>
      <trkpt lat="46.29358" lon="6.13366">
        <ele>445</ele>
        <time>2020-11-06T14:42:41.976Z</time>
      </trkpt>
      <trkpt lat="46.29359" lon="6.13362">
        <ele>445</ele>
        <time>2020-11-06T14:42:42.975Z</time>
      </trkpt>
      <trkpt lat="46.29358" lon="6.13358">
        <ele>444</ele>
        <time>2020-11-06T14:42:43.976Z</time>
      </trkpt>
      <trkpt lat="46.29358" lon="6.13354">
        <ele>444</ele>
        <time>2020-11-06T14:42:44.976Z</time>
      </trkpt>
      <trkpt lat="46.29357" lon="6.1335">
        <ele>443</ele>
        <time>2020-11-06T14:42:45.975Z</time>
      </trkpt>
      <trkpt lat="46.29357" lon="6.13346">
        <ele>442</ele>
        <time>2020-11-06T14:42:46.975Z</time>
      </trkpt>
      <trkpt lat="46.29357" lon="6.13341">
        <ele>442</ele>
        <time>2020-11-06T14:42:47.975Z</time>
      </trkpt>
      <trkpt lat="46.29357" lon="6.13337">
        <ele>441</ele>
        <time>2020-11-06T14:42:48.976Z</time>
      </trkpt>
      <trkpt lat="46.29358" lon="6.13332">
        <ele>441</ele>
        <time>2020-11-06T14:42:49.975Z</time>
      </trkpt>
      <trkpt lat="46.29358" lon="6.13329">
        <ele>440</ele>
        <time>2020-11-06T14:42:50.976Z</time>
      </trkpt>
      <trkpt lat="46.29358" lon="6.13325">
        <ele>440</ele>
        <time>2020-11-06T14:42:51.975Z</time>
      </trkpt>
      <trkpt lat="46.29358" lon="6.1332">
        <ele>440</ele>
        <time>2020-11-06T14:42:52.976Z</time>
      </trkpt>
      <trkpt lat="46.29359" lon="6.13316">
        <ele>440</ele>
        <time>2020-11-06T14:42:53.976Z</time>
      </trkpt>
      <trkpt lat="46.29357" lon="6.13312">
        <ele>440</ele>
        <time>2020-11-06T14:42:54.976Z</time>
      </trkpt>
      <trkpt lat="46.29357" lon="6.13308">
        <ele>440</ele>
        <time>2020-11-06T14:42:55.976Z</time>
      </trkpt>
      <trkpt lat="46.29356" lon="6.13304">
        <ele>441</ele>
        <time>2020-11-06T14:42:56.975Z</time>
      </trkpt>
      <trkpt lat="46.29356" lon="6.13301">
        <ele>441</ele>
        <time>2020-11-06T14:42:57.976Z</time>
      </trkpt>
      <trkpt lat="46.29355" lon="6.13297">
        <ele>441</ele>
        <time>2020-11-06T14:42:58.975Z</time>
      </trkpt>
      <trkpt lat="46.29354" lon="6.13294">
        <ele>441</ele>
        <time>2020-11-06T14:42:59.975Z</time>
      </trkpt>
      <trkpt lat="46.29353" lon="6.1329">
        <ele>441</ele>
        <time>2020-11-06T14:43:00.976Z</time>
      </trkpt>
      <trkpt lat="46.29353" lon="6.13286">
        <ele>442</ele>
        <time>2020-11-06T14:43:01.975Z</time>
      </trkpt>
      <trkpt lat="46.29353" lon="6.13283">
        <ele>442</ele>
        <time>2020-11-06T14:43:02.975Z</time>
      </trkpt>
      <trkpt lat="46.29354" lon="6.1328">
        <ele>442</ele>
        <time>2020-11-06T14:43:03.975Z</time>
      </trkpt>
      <trkpt lat="46.29354" lon="6.13278">
        <ele>441</ele>
        <time>2020-11-06T14:43:04.975Z</time>
      </trkpt>
      <trkpt lat="46.29354" lon="6.13276">
        <ele>441</ele>
        <time>2020-11-06T14:43:05.975Z</time>
      </trkpt>
      <trkpt lat="46.29353" lon="6.13274">
        <ele>441</ele>
        <time>2020-11-06T14:43:06.975Z</time>
      </trkpt>
      <trkpt lat="46.29354" lon="6.13271">
        <ele>441</ele>
        <time>2020-11-06T14:43:07.976Z</time>
      </trkpt>
      <trkpt lat="46.29354" lon="6.13268">
        <ele>441</ele>
        <time>2020-11-06T14:43:08.976Z</time>
      </trkpt>
      <trkpt lat="46.29354" lon="6.13265">
        <ele>441</ele>
        <time>2020-11-06T14:43:09.975Z</time>
      </trkpt>
      <trkpt lat="46.29355" lon="6.13263">
        <ele>441</ele>
        <time>2020-11-06T14:43:10.976Z</time>
      </trkpt>
      <trkpt lat="46.29355" lon="6.13259">
        <ele>441</ele>
        <time>2020-11-06T14:43:11.976Z</time>
      </trkpt>
      <trkpt lat="46.29355" lon="6.13257">
        <ele>441</ele>
        <time>2020-11-06T14:43:12.976Z</time>
      </trkpt>
      <trkpt lat="46.29355" lon="6.13253">
        <ele>441</ele>
        <time>2020-11-06T14:43:13.976Z</time>
      </trkpt>
      <trkpt lat="46.29356" lon="6.1325">
        <ele>441</ele>
        <time>2020-11-06T14:43:14.975Z</time>
      </trkpt>
      <trkpt lat="46.29357" lon="6.13247">
        <ele>441</ele>
        <time>2020-11-06T14:43:15.976Z</time>
      </trkpt>
      <trkpt lat="46.29358" lon="6.13243">
        <ele>441</ele>
        <time>2020-11-06T14:43:16.976Z</time>
      </trkpt>
      <trkpt lat="46.29358" lon="6.1324">
        <ele>440</ele>
        <time>2020-11-06T14:43:17.976Z</time>
      </trkpt>
      <trkpt lat="46.29359" lon="6.13237">
        <ele>440</ele>
        <time>2020-11-06T14:43:18.975Z</time>
      </trkpt>
      <trkpt lat="46.2936" lon="6.13232">
        <ele>440</ele>
        <time>2020-11-06T14:43:19.975Z</time>
      </trkpt>
      <trkpt lat="46.29361" lon="6.13228">
        <ele>440</ele>
        <time>2020-11-06T14:43:20.975Z</time>
      </trkpt>
      <trkpt lat="46.29362" lon="6.13225">
        <ele>440</ele>
        <time>2020-11-06T14:43:21.976Z</time>
      </trkpt>
      <trkpt lat="46.29363" lon="6.13222">
        <ele>439</ele>
        <time>2020-11-06T14:43:22.976Z</time>
      </trkpt>
      <trkpt lat="46.29365" lon="6.13219">
        <ele>439</ele>
        <time>2020-11-06T14:43:23.976Z</time>
      </trkpt>
      <trkpt lat="46.29367" lon="6.13218">
        <ele>439</ele>
        <time>2020-11-06T14:43:24.975Z</time>
      </trkpt>
      <trkpt lat="46.29369" lon="6.13218">
        <ele>439</ele>
        <time>2020-11-06T14:43:25.975Z</time>
      </trkpt>
      <trkpt lat="46.2937" lon="6.13218">
        <ele>439</ele>
        <time>2020-11-06T14:43:26.976Z</time>
      </trkpt>
      <trkpt lat="46.29372" lon="6.13219">
        <ele>439</ele>
        <time>2020-11-06T14:43:27.975Z</time>
      </trkpt>
      <trkpt lat="46.29373" lon="6.13218">
        <ele>439</ele>
        <time>2020-11-06T14:43:28.976Z</time>
      </trkpt>
      <trkpt lat="46.29375" lon="6.13218">
        <ele>439</ele>
        <time>2020-11-06T14:43:29.976Z</time>
      </trkpt>
      <trkpt lat="46.29377" lon="6.13219">
        <ele>439</ele>
        <time>2020-11-06T14:43:30.976Z</time>
      </trkpt>
      <trkpt lat="46.29378" lon="6.1322">
        <ele>439</ele>
        <time>2020-11-06T14:43:31.976Z</time>
      </trkpt>
      <trkpt lat="46.29381" lon="6.13221">
        <ele>439</ele>
        <time>2020-11-06T14:43:32.976Z</time>
      </trkpt>
      <trkpt lat="46.29383" lon="6.13222">
        <ele>439</ele>
        <time>2020-11-06T14:43:33.976Z</time>
      </trkpt>
      <trkpt lat="46.29385" lon="6.13223">
        <ele>440</ele>
        <time>2020-11-06T14:43:34.976Z</time>
      </trkpt>
      <trkpt lat="46.29387" lon="6.13225">
        <ele>440</ele>
        <time>2020-11-06T14:43:35.976Z</time>
      </trkpt>
      <trkpt lat="46.29389" lon="6.13226">
        <ele>441</ele>
        <time>2020-11-06T14:43:36.975Z</time>
      </trkpt>
      <trkpt lat="46.29392" lon="6.13227">
        <ele>441</ele>
        <time>2020-11-06T14:43:37.975Z</time>
      </trkpt>
      <trkpt lat="46.29394" lon="6.13228">
        <ele>441</ele>
        <time>2020-11-06T14:43:38.976Z</time>
      </trkpt>
      <trkpt lat="46.29397" lon="6.1323">
        <ele>442</ele>
        <time>2020-11-06T14:43:39.976Z</time>
      </trkpt>
      <trkpt lat="46.29399" lon="6.13232">
        <ele>442</ele>
        <time>2020-11-06T14:43:40.976Z</time>
      </trkpt>
      <trkpt lat="46.294" lon="6.13235">
        <ele>443</ele>
        <time>2020-11-06T14:43:41.976Z</time>
      </trkpt>
      <trkpt lat="46.29402" lon="6.13238">
        <ele>443</ele>
        <time>2020-11-06T14:43:42.976Z</time>
      </trkpt>
      <trkpt lat="46.29404" lon="6.13239">
        <ele>444</ele>
        <time>2020-11-06T14:43:43.976Z</time>
      </trkpt>
      <trkpt lat="46.29407" lon="6.13241">
        <ele>444</ele>
        <time>2020-11-06T14:43:44.975Z</time>
      </trkpt>
      <trkpt lat="46.2941" lon="6.13243">
        <ele>444</ele>
        <time>2020-11-06T14:43:45.975Z</time>
      </trkpt>
      <trkpt lat="46.29413" lon="6.13245">
        <ele>444</ele>
        <time>2020-11-06T14:43:46.976Z</time>
      </trkpt>
      <trkpt lat="46.29416" lon="6.13246">
        <ele>444</ele>
        <time>2020-11-06T14:43:47.975Z</time>
      </trkpt>
      <trkpt lat="46.29419" lon="6.13248">
        <ele>444</ele>
        <time>2020-11-06T14:43:48.976Z</time>
      </trkpt>
      <trkpt lat="46.29422" lon="6.1325">
        <ele>444</ele>
        <time>2020-11-06T14:43:49.976Z</time>
      </trkpt>
      <trkpt lat="46.29424" lon="6.13251">
        <ele>445</ele>
        <time>2020-11-06T14:43:50.976Z</time>
      </trkpt>
      <trkpt lat="46.29427" lon="6.13252">
        <ele>445</ele>
        <time>2020-11-06T14:43:51.976Z</time>
      </trkpt>
      <trkpt lat="46.29429" lon="6.13253">
        <ele>445</ele>
        <time>2020-11-06T14:43:52.976Z</time>
      </trkpt>
      <trkpt lat="46.29432" lon="6.13255">
        <ele>445</ele>
        <time>2020-11-06T14:43:53.976Z</time>
      </trkpt>
      <trkpt lat="46.29434" lon="6.13257">
        <ele>445</ele>
        <time>2020-11-06T14:43:54.976Z</time>
      </trkpt>
      <trkpt lat="46.29437" lon="6.13258">
        <ele>445</ele>
        <time>2020-11-06T14:43:55.975Z</time>
      </trkpt>
      <trkpt lat="46.29439" lon="6.13259">
        <ele>445</ele>
        <time>2020-11-06T14:43:56.976Z</time>
      </trkpt>
      <trkpt lat="46.29441" lon="6.1326">
        <ele>445</ele>
        <time>2020-11-06T14:43:57.975Z</time>
      </trkpt>
      <trkpt lat="46.29444" lon="6.13262">
        <ele>444</ele>
        <time>2020-11-06T14:43:58.975Z</time>
      </trkpt>
      <trkpt lat="46.29446" lon="6.13264">
        <ele>444</ele>
        <time>2020-11-06T14:43:59.975Z</time>
      </trkpt>
      <trkpt lat="46.29447" lon="6.13266">
        <ele>444</ele>
        <time>2020-11-06T14:44:00.976Z</time>
      </trkpt>
      <trkpt lat="46.29449" lon="6.13267">
        <ele>444</ele>
        <time>2020-11-06T14:44:01.976Z</time>
      </trkpt>
      <trkpt lat="46.29451" lon="6.13269">
        <ele>444</ele>
        <time>2020-11-06T14:44:02.976Z</time>
      </trkpt>
      <trkpt lat="46.29453" lon="6.13271">
        <ele>444</ele>
        <time>2020-11-06T14:44:03.976Z</time>
      </trkpt>
      <trkpt lat="46.29456" lon="6.13272">
        <ele>444</ele>
        <time>2020-11-06T14:44:04.976Z</time>
      </trkpt>
      <trkpt lat="46.29458" lon="6.13274">
        <ele>444</ele>
        <time>2020-11-06T14:44:05.975Z</time>
      </trkpt>
      <trkpt lat="46.29461" lon="6.13276">
        <ele>444</ele>
        <time>2020-11-06T14:44:06.976Z</time>
      </trkpt>
      <trkpt lat="46.29463" lon="6.13277">
        <ele>444</ele>
        <time>2020-11-06T14:44:07.975Z</time>
      </trkpt>
      <trkpt lat="46.29466" lon="6.13278">
        <ele>444</ele>
        <time>2020-11-06T14:44:08.976Z</time>
      </trkpt>
      <trkpt lat="46.29469" lon="6.1328">
        <ele>444</ele>
        <time>2020-11-06T14:44:09.976Z</time>
      </trkpt>
      <trkpt lat="46.29471" lon="6.13281">
        <ele>445</ele>
        <time>2020-11-06T14:44:10.976Z</time>
      </trkpt>
      <trkpt lat="46.29473" lon="6.13282">
        <ele>445</ele>
        <time>2020-11-06T14:44:11.976Z</time>
      </trkpt>
      <trkpt lat="46.29476" lon="6.13283">
        <ele>445</ele>
        <time>2020-11-06T14:44:12.975Z</time>
      </trkpt>
      <trkpt lat="46.29479" lon="6.13284">
        <ele>446</ele>
        <time>2020-11-06T14:44:13.975Z</time>
      </trkpt>
      <trkpt lat="46.29481" lon="6.13285">
        <ele>446</ele>
        <time>2020-11-06T14:44:14.975Z</time>
      </trkpt>
      <trkpt lat="46.29484" lon="6.13286">
        <ele>446</ele>
        <time>2020-11-06T14:44:15.975Z</time>
      </trkpt>
      <trkpt lat="46.29486" lon="6.13286">
        <ele>446</ele>
        <time>2020-11-06T14:44:16.976Z</time>
      </trkpt>
      <trkpt lat="46.29489" lon="6.13286">
        <ele>446</ele>
        <time>2020-11-06T14:44:17.975Z</time>
      </trkpt>
      <trkpt lat="46.29492" lon="6.13286">
        <ele>446</ele>
        <time>2020-11-06T14:44:18.976Z</time>
      </trkpt>
      <trkpt lat="46.29495" lon="6.13286">
        <ele>445</ele>
        <time>2020-11-06T14:44:19.975Z</time>
      </trkpt>
      <trkpt lat="46.29498" lon="6.13287">
        <ele>446</ele>
        <time>2020-11-06T14:44:20.976Z</time>
      </trkpt>
      <trkpt lat="46.29502" lon="6.13288">
        <ele>446</ele>
        <time>2020-11-06T14:44:21.976Z</time>
      </trkpt>
      <trkpt lat="46.29505" lon="6.1329">
        <ele>446</ele>
        <time>2020-11-06T14:44:22.976Z</time>
      </trkpt>
      <trkpt lat="46.29507" lon="6.13291">
        <ele>446</ele>
        <time>2020-11-06T14:44:23.976Z</time>
      </trkpt>
      <trkpt lat="46.29509" lon="6.13292">
        <ele>447</ele>
        <time>2020-11-06T14:44:24.976Z</time>
      </trkpt>
      <trkpt lat="46.29512" lon="6.13293">
        <ele>447</ele>
        <time>2020-11-06T14:44:25.976Z</time>
      </trkpt>
      <trkpt lat="46.29514" lon="6.13294">
        <ele>447</ele>
        <time>2020-11-06T14:44:26.975Z</time>
      </trkpt>
      <trkpt lat="46.29516" lon="6.13294">
        <ele>447</ele>
        <time>2020-11-06T14:44:27.975Z</time>
      </trkpt>
      <trkpt lat="46.29519" lon="6.13295">
        <ele>447</ele>
        <time>2020-11-06T14:44:28.975Z</time>
      </trkpt>
      <trkpt lat="46.29521" lon="6.13296">
        <ele>447</ele>
        <time>2020-11-06T14:44:29.976Z</time>
      </trkpt>
      <trkpt lat="46.29523" lon="6.13297">
        <ele>447</ele>
        <time>2020-11-06T14:44:30.976Z</time>
      </trkpt>
      <trkpt lat="46.29525" lon="6.13298">
        <ele>447</ele>
        <time>2020-11-06T14:44:31.976Z</time>
      </trkpt>
      <trkpt lat="46.29527" lon="6.13297">
        <ele>447</ele>
        <time>2020-11-06T14:44:32.976Z</time>
      </trkpt>
      <trkpt lat="46.29528" lon="6.13294">
        <ele>446</ele>
        <time>2020-11-06T14:44:33.976Z</time>
      </trkpt>
      <trkpt lat="46.29529" lon="6.13292">
        <ele>447</ele>
        <time>2020-11-06T14:44:34.976Z</time>
      </trkpt>
      <trkpt lat="46.29532" lon="6.13288">
        <ele>446</ele>
        <time>2020-11-06T14:44:35.976Z</time>
      </trkpt>
      <trkpt lat="46.29533" lon="6.13285">
        <ele>446</ele>
        <time>2020-11-06T14:44:36.976Z</time>
      </trkpt>
      <trkpt lat="46.29533" lon="6.13283">
        <ele>446</ele>
        <time>2020-11-06T14:44:37.976Z</time>
      </trkpt>
      <trkpt lat="46.29535" lon="6.1328">
        <ele>446</ele>
        <time>2020-11-06T14:44:38.976Z</time>
      </trkpt>
      <trkpt lat="46.29536" lon="6.13278">
        <ele>446</ele>
        <time>2020-11-06T14:44:39.976Z</time>
      </trkpt>
      <trkpt lat="46.29537" lon="6.13276">
        <ele>445</ele>
        <time>2020-11-06T14:44:40.976Z</time>
      </trkpt>
      <trkpt lat="46.29537" lon="6.13275">
        <ele>445</ele>
        <time>2020-11-06T14:44:41.976Z</time>
      </trkpt>
      <trkpt lat="46.29537" lon="6.13275">
        <ele>445</ele>
        <time>2020-11-06T14:44:42.976Z</time>
      </trkpt>
      <trkpt lat="46.29538" lon="6.13273">
        <ele>445</ele>
        <time>2020-11-06T14:44:43.976Z</time>
      </trkpt>
      <trkpt lat="46.29539" lon="6.13272">
        <ele>445</ele>
        <time>2020-11-06T14:44:44.976Z</time>
      </trkpt>
      <trkpt lat="46.2954" lon="6.1327">
        <ele>444</ele>
        <time>2020-11-06T14:44:45.976Z</time>
      </trkpt>
      <trkpt lat="46.2954" lon="6.13268">
        <ele>444</ele>
        <time>2020-11-06T14:44:46.975Z</time>
      </trkpt>
      <trkpt lat="46.29542" lon="6.13265">
        <ele>443</ele>
        <time>2020-11-06T14:44:47.976Z</time>
      </trkpt>
      <trkpt lat="46.29543" lon="6.13261">
        <ele>443</ele>
        <time>2020-11-06T14:44:48.975Z</time>
      </trkpt>
      <trkpt lat="46.29544" lon="6.13258">
        <ele>443</ele>
        <time>2020-11-06T14:44:49.975Z</time>
      </trkpt>
      <trkpt lat="46.29544" lon="6.13255">
        <ele>442</ele>
        <time>2020-11-06T14:44:50.976Z</time>
      </trkpt>
      <trkpt lat="46.29544" lon="6.13253">
        <ele>442</ele>
        <time>2020-11-06T14:44:51.976Z</time>
      </trkpt>
      <trkpt lat="46.29544" lon="6.13251">
        <ele>442</ele>
        <time>2020-11-06T14:44:52.976Z</time>
      </trkpt>
      <trkpt lat="46.29544" lon="6.13249">
        <ele>442</ele>
        <time>2020-11-06T14:44:53.976Z</time>
      </trkpt>
      <trkpt lat="46.29545" lon="6.13247">
        <ele>442</ele>
        <time>2020-11-06T14:44:54.976Z</time>
      </trkpt>
      <trkpt lat="46.29546" lon="6.13245">
        <ele>442</ele>
        <time>2020-11-06T14:44:55.976Z</time>
      </trkpt>
      <trkpt lat="46.29547" lon="6.13243">
        <ele>442</ele>
        <time>2020-11-06T14:44:56.975Z</time>
      </trkpt>
      <trkpt lat="46.29548" lon="6.13241">
        <ele>442</ele>
        <time>2020-11-06T14:44:57.976Z</time>
      </trkpt>
      <trkpt lat="46.2955" lon="6.1324">
        <ele>442</ele>
        <time>2020-11-06T14:44:58.975Z</time>
      </trkpt>
      <trkpt lat="46.29552" lon="6.13239">
        <ele>442</ele>
        <time>2020-11-06T14:44:59.975Z</time>
      </trkpt>
      <trkpt lat="46.29554" lon="6.13238">
        <ele>442</ele>
        <time>2020-11-06T14:45:00.976Z</time>
      </trkpt>
      <trkpt lat="46.29556" lon="6.13237">
        <ele>442</ele>
        <time>2020-11-06T14:45:01.975Z</time>
      </trkpt>
      <trkpt lat="46.29558" lon="6.13236">
        <ele>442</ele>
        <time>2020-11-06T14:45:02.976Z</time>
      </trkpt>
      <trkpt lat="46.29561" lon="6.13237">
        <ele>443</ele>
        <time>2020-11-06T14:45:03.976Z</time>
      </trkpt>
      <trkpt lat="46.29564" lon="6.13237">
        <ele>443</ele>
        <time>2020-11-06T14:45:04.976Z</time>
      </trkpt>
      <trkpt lat="46.29566" lon="6.13237">
        <ele>443</ele>
        <time>2020-11-06T14:45:05.976Z</time>
      </trkpt>
      <trkpt lat="46.2957" lon="6.13237">
        <ele>444</ele>
        <time>2020-11-06T14:45:06.976Z</time>
      </trkpt>
      <trkpt lat="46.29572" lon="6.13236">
        <ele>444</ele>
        <time>2020-11-06T14:45:07.976Z</time>
      </trkpt>
      <trkpt lat="46.29573" lon="6.13236">
        <ele>444</ele>
        <time>2020-11-06T14:45:08.976Z</time>
      </trkpt>
      <trkpt lat="46.29574" lon="6.13235">
        <ele>444</ele>
        <time>2020-11-06T14:45:09.975Z</time>
      </trkpt>
      <trkpt lat="46.29576" lon="6.13234">
        <ele>444</ele>
        <time>2020-11-06T14:45:10.975Z</time>
      </trkpt>
      <trkpt lat="46.29579" lon="6.13233">
        <ele>444</ele>
        <time>2020-11-06T14:45:11.976Z</time>
      </trkpt>
      <trkpt lat="46.29581" lon="6.13231">
        <ele>445</ele>
        <time>2020-11-06T14:45:12.976Z</time>
      </trkpt>
      <trkpt lat="46.29582" lon="6.1323">
        <ele>445</ele>
        <time>2020-11-06T14:45:13.976Z</time>
      </trkpt>
      <trkpt lat="46.29584" lon="6.13227">
        <ele>445</ele>
        <time>2020-11-06T14:45:14.976Z</time>
      </trkpt>
      <trkpt lat="46.29585" lon="6.13224">
        <ele>445</ele>
        <time>2020-11-06T14:45:15.975Z</time>
      </trkpt>
      <trkpt lat="46.29587" lon="6.13222">
        <ele>446</ele>
        <time>2020-11-06T14:45:16.976Z</time>
      </trkpt>
      <trkpt lat="46.29588" lon="6.1322">
        <ele>446</ele>
        <time>2020-11-06T14:45:17.975Z</time>
      </trkpt>
      <trkpt lat="46.29589" lon="6.13218">
        <ele>447</ele>
        <time>2020-11-06T14:45:18.976Z</time>
      </trkpt>
      <trkpt lat="46.29591" lon="6.13216">
        <ele>447</ele>
        <time>2020-11-06T14:45:19.976Z</time>
      </trkpt>
      <trkpt lat="46.29592" lon="6.13213">
        <ele>447</ele>
        <time>2020-11-06T14:45:20.976Z</time>
      </trkpt>
      <trkpt lat="46.29593" lon="6.13211">
        <ele>447</ele>
        <time>2020-11-06T14:45:21.976Z</time>
      </trkpt>
      <trkpt lat="46.29595" lon="6.13209">
        <ele>448</ele>
        <time>2020-11-06T14:45:22.975Z</time>
      </trkpt>
      <trkpt lat="46.29597" lon="6.13206">
        <ele>448</ele>
        <time>2020-11-06T14:45:23.976Z</time>
      </trkpt>
      <trkpt lat="46.29599" lon="6.13201">
        <ele>448</ele>
        <time>2020-11-06T14:45:24.975Z</time>
      </trkpt>
      <trkpt lat="46.296" lon="6.13198">
        <ele>448</ele>
        <time>2020-11-06T14:45:25.975Z</time>
      </trkpt>
      <trkpt lat="46.29602" lon="6.13195">
        <ele>448</ele>
        <time>2020-11-06T14:45:26.976Z</time>
      </trkpt>
      <trkpt lat="46.29603" lon="6.13192">
        <ele>448</ele>
        <time>2020-11-06T14:45:27.976Z</time>
      </trkpt>
      <trkpt lat="46.29604" lon="6.13189">
        <ele>448</ele>
        <time>2020-11-06T14:45:28.976Z</time>
      </trkpt>
      <trkpt lat="46.29605" lon="6.13186">
        <ele>448</ele>
        <time>2020-11-06T14:45:29.976Z</time>
      </trkpt>
      <trkpt lat="46.29606" lon="6.13183">
        <ele>448</ele>
        <time>2020-11-06T14:45:30.976Z</time>
      </trkpt>
      <trkpt lat="46.29607" lon="6.1318">
        <ele>448</ele>
        <time>2020-11-06T14:45:31.976Z</time>
      </trkpt>
      <trkpt lat="46.29608" lon="6.13178">
        <ele>448</ele>
        <time>2020-11-06T14:45:32.976Z</time>
      </trkpt>
      <trkpt lat="46.29609" lon="6.13175">
        <ele>449</ele>
        <time>2020-11-06T14:45:33.976Z</time>
      </trkpt>
      <trkpt lat="46.29609" lon="6.13173">
        <ele>449</ele>
        <time>2020-11-06T14:45:34.976Z</time>
      </trkpt>
      <trkpt lat="46.29611" lon="6.13169">
        <ele>449</ele>
        <time>2020-11-06T14:45:35.975Z</time>
      </trkpt>
      <trkpt lat="46.29613" lon="6.13164">
        <ele>449</ele>
        <time>2020-11-06T14:45:36.976Z</time>
      </trkpt>
      <trkpt lat="46.29615" lon="6.1316">
        <ele>449</ele>
        <time>2020-11-06T14:45:37.976Z</time>
      </trkpt>
      <trkpt lat="46.29616" lon="6.13157">
        <ele>450</ele>
        <time>2020-11-06T14:45:38.975Z</time>
      </trkpt>
      <trkpt lat="46.29617" lon="6.13153">
        <ele>449</ele>
        <time>2020-11-06T14:45:39.976Z</time>
      </trkpt>
      <trkpt lat="46.29618" lon="6.1315">
        <ele>449</ele>
        <time>2020-11-06T14:45:40.976Z</time>
      </trkpt>
      <trkpt lat="46.29618" lon="6.13146">
        <ele>450</ele>
        <time>2020-11-06T14:45:41.976Z</time>
      </trkpt>
      <trkpt lat="46.29619" lon="6.13143">
        <ele>450</ele>
        <time>2020-11-06T14:45:42.975Z</time>
      </trkpt>
      <trkpt lat="46.2962" lon="6.1314">
        <ele>450</ele>
        <time>2020-11-06T14:45:43.976Z</time>
      </trkpt>
      <trkpt lat="46.29621" lon="6.13136">
        <ele>450</ele>
        <time>2020-11-06T14:45:44.976Z</time>
      </trkpt>
      <trkpt lat="46.29621" lon="6.13134">
        <ele>451</ele>
        <time>2020-11-06T14:45:45.975Z</time>
      </trkpt>
      <trkpt lat="46.29622" lon="6.13132">
        <ele>451</ele>
        <time>2020-11-06T14:45:46.975Z</time>
      </trkpt>
      <trkpt lat="46.29623" lon="6.1313">
        <ele>451</ele>
        <time>2020-11-06T14:45:47.976Z</time>
      </trkpt>
      <trkpt lat="46.29624" lon="6.13129">
        <ele>451</ele>
        <time>2020-11-06T14:45:48.975Z</time>
      </trkpt>
      <trkpt lat="46.29626" lon="6.13128">
        <ele>451</ele>
        <time>2020-11-06T14:45:49.975Z</time>
      </trkpt>
      <trkpt lat="46.29627" lon="6.13127">
        <ele>452</ele>
        <time>2020-11-06T14:45:50.975Z</time>
      </trkpt>
      <trkpt lat="46.29629" lon="6.13125">
        <ele>452</ele>
        <time>2020-11-06T14:45:51.976Z</time>
      </trkpt>
      <trkpt lat="46.2963" lon="6.13123">
        <ele>453</ele>
        <time>2020-11-06T14:45:52.976Z</time>
      </trkpt>
      <trkpt lat="46.29631" lon="6.1312">
        <ele>453</ele>
        <time>2020-11-06T14:45:53.975Z</time>
      </trkpt>
      <trkpt lat="46.29634" lon="6.13117">
        <ele>453</ele>
        <time>2020-11-06T14:45:54.975Z</time>
      </trkpt>
      <trkpt lat="46.29635" lon="6.13114">
        <ele>453</ele>
        <time>2020-11-06T14:45:55.976Z</time>
      </trkpt>
      <trkpt lat="46.29636" lon="6.13112">
        <ele>453</ele>
        <time>2020-11-06T14:45:56.976Z</time>
      </trkpt>
      <trkpt lat="46.29637" lon="6.13109">
        <ele>453</ele>
        <time>2020-11-06T14:45:57.976Z</time>
      </trkpt>
      <trkpt lat="46.29638" lon="6.13106">
        <ele>454</ele>
        <time>2020-11-06T14:45:58.976Z</time>
      </trkpt>
      <trkpt lat="46.2964" lon="6.13103">
        <ele>454</ele>
        <time>2020-11-06T14:45:59.975Z</time>
      </trkpt>
      <trkpt lat="46.29641" lon="6.13099">
        <ele>454</ele>
        <time>2020-11-06T14:46:00.975Z</time>
      </trkpt>
      <trkpt lat="46.29641" lon="6.13096">
        <ele>454</ele>
        <time>2020-11-06T14:46:01.975Z</time>
      </trkpt>
      <trkpt lat="46.29642" lon="6.13093">
        <ele>455</ele>
        <time>2020-11-06T14:46:02.975Z</time>
      </trkpt>
      <trkpt lat="46.29642" lon="6.1309">
        <ele>455</ele>
        <time>2020-11-06T14:46:03.975Z</time>
      </trkpt>
      <trkpt lat="46.29641" lon="6.13086">
        <ele>455</ele>
        <time>2020-11-06T14:46:04.976Z</time>
      </trkpt>
      <trkpt lat="46.2964" lon="6.13083">
        <ele>455</ele>
        <time>2020-11-06T14:46:05.975Z</time>
      </trkpt>
      <trkpt lat="46.29641" lon="6.13078">
        <ele>455</ele>
        <time>2020-11-06T14:46:06.975Z</time>
      </trkpt>
      <trkpt lat="46.29643" lon="6.13073">
        <ele>455</ele>
        <time>2020-11-06T14:46:07.975Z</time>
      </trkpt>
      <trkpt lat="46.29644" lon="6.13069">
        <ele>455</ele>
        <time>2020-11-06T14:46:08.976Z</time>
      </trkpt>
      <trkpt lat="46.29645" lon="6.13065">
        <ele>456</ele>
        <time>2020-11-06T14:46:09.975Z</time>
      </trkpt>
      <trkpt lat="46.29645" lon="6.13061">
        <ele>456</ele>
        <time>2020-11-06T14:46:10.976Z</time>
      </trkpt>
      <trkpt lat="46.29644" lon="6.13057">
        <ele>456</ele>
        <time>2020-11-06T14:46:11.976Z</time>
      </trkpt>
      <trkpt lat="46.29644" lon="6.13055">
        <ele>456</ele>
        <time>2020-11-06T14:46:12.975Z</time>
      </trkpt>
      <trkpt lat="46.29645" lon="6.13051">
        <ele>457</ele>
        <time>2020-11-06T14:46:13.976Z</time>
      </trkpt>
      <trkpt lat="46.29645" lon="6.13047">
        <ele>457</ele>
        <time>2020-11-06T14:46:14.976Z</time>
      </trkpt>
      <trkpt lat="46.29646" lon="6.13045">
        <ele>457</ele>
        <time>2020-11-06T14:46:15.975Z</time>
      </trkpt>
      <trkpt lat="46.29647" lon="6.13041">
        <ele>457</ele>
        <time>2020-11-06T14:46:16.975Z</time>
      </trkpt>
      <trkpt lat="46.29648" lon="6.13038">
        <ele>457</ele>
        <time>2020-11-06T14:46:17.975Z</time>
      </trkpt>
      <trkpt lat="46.29648" lon="6.13036">
        <ele>457</ele>
        <time>2020-11-06T14:46:18.976Z</time>
      </trkpt>
      <trkpt lat="46.2965" lon="6.13034">
        <ele>457</ele>
        <time>2020-11-06T14:46:19.976Z</time>
      </trkpt>
      <trkpt lat="46.29651" lon="6.13029">
        <ele>458</ele>
        <time>2020-11-06T14:46:20.976Z</time>
      </trkpt>
      <trkpt lat="46.29653" lon="6.13025">
        <ele>458</ele>
        <time>2020-11-06T14:46:21.975Z</time>
      </trkpt>
      <trkpt lat="46.29656" lon="6.1302">
        <ele>458</ele>
        <time>2020-11-06T14:46:22.976Z</time>
      </trkpt>
      <trkpt lat="46.29658" lon="6.13016">
        <ele>458</ele>
        <time>2020-11-06T14:46:23.976Z</time>
      </trkpt>
      <trkpt lat="46.2966" lon="6.13013">
        <ele>458</ele>
        <time>2020-11-06T14:46:24.976Z</time>
      </trkpt>
      <trkpt lat="46.29661" lon="6.1301">
        <ele>458</ele>
        <time>2020-11-06T14:46:25.976Z</time>
      </trkpt>
      <trkpt lat="46.29663" lon="6.13008">
        <ele>458</ele>
        <time>2020-11-06T14:46:26.975Z</time>
      </trkpt>
      <trkpt lat="46.29665" lon="6.13007">
        <ele>458</ele>
        <time>2020-11-06T14:46:27.976Z</time>
      </trkpt>
      <trkpt lat="46.29666" lon="6.13005">
        <ele>458</ele>
        <time>2020-11-06T14:46:28.976Z</time>
      </trkpt>
      <trkpt lat="46.29667" lon="6.13003">
        <ele>458</ele>
        <time>2020-11-06T14:46:29.976Z</time>
      </trkpt>
      <trkpt lat="46.29668" lon="6.13003">
        <ele>458</ele>
        <time>2020-11-06T14:46:30.975Z</time>
      </trkpt>
      <trkpt lat="46.2967" lon="6.13002">
        <ele>458</ele>
        <time>2020-11-06T14:46:31.976Z</time>
      </trkpt>
      <trkpt lat="46.29672" lon="6.13001">
        <ele>457</ele>
        <time>2020-11-06T14:46:32.976Z</time>
      </trkpt>
      <trkpt lat="46.29675" lon="6.13">
        <ele>457</ele>
        <time>2020-11-06T14:46:33.976Z</time>
      </trkpt>
      <trkpt lat="46.29677" lon="6.12999">
        <ele>457</ele>
        <time>2020-11-06T14:46:34.975Z</time>
      </trkpt>
      <trkpt lat="46.29679" lon="6.12999">
        <ele>458</ele>
        <time>2020-11-06T14:46:35.975Z</time>
      </trkpt>
      <trkpt lat="46.29681" lon="6.12996">
        <ele>458</ele>
        <time>2020-11-06T14:46:36.975Z</time>
      </trkpt>
      <trkpt lat="46.29683" lon="6.12994">
        <ele>458</ele>
        <time>2020-11-06T14:46:37.976Z</time>
      </trkpt>
      <trkpt lat="46.29685" lon="6.12991">
        <ele>458</ele>
        <time>2020-11-06T14:46:38.976Z</time>
      </trkpt>
      <trkpt lat="46.29687" lon="6.12988">
        <ele>458</ele>
        <time>2020-11-06T14:46:39.976Z</time>
      </trkpt>
      <trkpt lat="46.29689" lon="6.12984">
        <ele>458</ele>
        <time>2020-11-06T14:46:40.975Z</time>
      </trkpt>
      <trkpt lat="46.2969" lon="6.12982">
        <ele>458</ele>
        <time>2020-11-06T14:46:41.975Z</time>
      </trkpt>
      <trkpt lat="46.29691" lon="6.1298">
        <ele>458</ele>
        <time>2020-11-06T14:46:42.975Z</time>
      </trkpt>
      <trkpt lat="46.29692" lon="6.12979">
        <ele>458</ele>
        <time>2020-11-06T14:46:43.976Z</time>
      </trkpt>
      <trkpt lat="46.29694" lon="6.12978">
        <ele>458</ele>
        <time>2020-11-06T14:46:44.976Z</time>
      </trkpt>
      <trkpt lat="46.29696" lon="6.12978">
        <ele>458</ele>
        <time>2020-11-06T14:46:45.976Z</time>
      </trkpt>
      <trkpt lat="46.29698" lon="6.12978">
        <ele>457</ele>
        <time>2020-11-06T14:46:46.976Z</time>
      </trkpt>
      <trkpt lat="46.29701" lon="6.12978">
        <ele>457</ele>
        <time>2020-11-06T14:46:47.975Z</time>
      </trkpt>
      <trkpt lat="46.29705" lon="6.12979">
        <ele>457</ele>
        <time>2020-11-06T14:46:48.976Z</time>
      </trkpt>
      <trkpt lat="46.2971" lon="6.12979">
        <ele>456</ele>
        <time>2020-11-06T14:46:49.975Z</time>
      </trkpt>
      <trkpt lat="46.29713" lon="6.12979">
        <ele>456</ele>
        <time>2020-11-06T14:46:50.976Z</time>
      </trkpt>
      <trkpt lat="46.29716" lon="6.12981">
        <ele>456</ele>
        <time>2020-11-06T14:46:51.975Z</time>
      </trkpt>
      <trkpt lat="46.29719" lon="6.12982">
        <ele>456</ele>
        <time>2020-11-06T14:46:52.976Z</time>
      </trkpt>
      <trkpt lat="46.29723" lon="6.12983">
        <ele>456</ele>
        <time>2020-11-06T14:46:53.976Z</time>
      </trkpt>
      <trkpt lat="46.29726" lon="6.12984">
        <ele>456</ele>
        <time>2020-11-06T14:46:54.975Z</time>
      </trkpt>
      <trkpt lat="46.29729" lon="6.12985">
        <ele>456</ele>
        <time>2020-11-06T14:46:55.975Z</time>
      </trkpt>
      <trkpt lat="46.2973" lon="6.12987">
        <ele>456</ele>
        <time>2020-11-06T14:46:56.975Z</time>
      </trkpt>
      <trkpt lat="46.29732" lon="6.1299">
        <ele>456</ele>
        <time>2020-11-06T14:46:57.976Z</time>
      </trkpt>
      <trkpt lat="46.29733" lon="6.12992">
        <ele>456</ele>
        <time>2020-11-06T14:46:58.976Z</time>
      </trkpt>
      <trkpt lat="46.29734" lon="6.12995">
        <ele>457</ele>
        <time>2020-11-06T14:46:59.975Z</time>
      </trkpt>
      <trkpt lat="46.29736" lon="6.12998">
        <ele>457</ele>
        <time>2020-11-06T14:47:00.976Z</time>
      </trkpt>
      <trkpt lat="46.29737" lon="6.13001">
        <ele>457</ele>
        <time>2020-11-06T14:47:01.975Z</time>
      </trkpt>
      <trkpt lat="46.29738" lon="6.13003">
        <ele>457</ele>
        <time>2020-11-06T14:47:02.976Z</time>
      </trkpt>
      <trkpt lat="46.29741" lon="6.13006">
        <ele>457</ele>
        <time>2020-11-06T14:47:03.976Z</time>
      </trkpt>
      <trkpt lat="46.29744" lon="6.1301">
        <ele>457</ele>
        <time>2020-11-06T14:47:04.975Z</time>
      </trkpt>
      <trkpt lat="46.29747" lon="6.13014">
        <ele>457</ele>
        <time>2020-11-06T14:47:05.975Z</time>
      </trkpt>
      <trkpt lat="46.29749" lon="6.13018">
        <ele>457</ele>
        <time>2020-11-06T14:47:06.976Z</time>
      </trkpt>
      <trkpt lat="46.29752" lon="6.13021">
        <ele>456</ele>
        <time>2020-11-06T14:47:07.975Z</time>
      </trkpt>
      <trkpt lat="46.29753" lon="6.13024">
        <ele>456</ele>
        <time>2020-11-06T14:47:08.976Z</time>
      </trkpt>
      <trkpt lat="46.29756" lon="6.13026">
        <ele>456</ele>
        <time>2020-11-06T14:47:09.975Z</time>
      </trkpt>
      <trkpt lat="46.29759" lon="6.13028">
        <ele>456</ele>
        <time>2020-11-06T14:47:10.975Z</time>
      </trkpt>
      <trkpt lat="46.2976" lon="6.1303">
        <ele>456</ele>
        <time>2020-11-06T14:47:11.976Z</time>
      </trkpt>
      <trkpt lat="46.2976" lon="6.13033">
        <ele>455</ele>
        <time>2020-11-06T14:47:12.976Z</time>
      </trkpt>
      <trkpt lat="46.2976" lon="6.13034">
        <ele>455</ele>
        <time>2020-11-06T14:47:13.975Z</time>
      </trkpt>
      <trkpt lat="46.29758" lon="6.13036">
        <ele>455</ele>
        <time>2020-11-06T14:47:14.975Z</time>
      </trkpt>
      <trkpt lat="46.29756" lon="6.13039">
        <ele>455</ele>
        <time>2020-11-06T14:47:15.976Z</time>
      </trkpt>
      <trkpt lat="46.29754" lon="6.13042">
        <ele>455</ele>
        <time>2020-11-06T14:47:16.976Z</time>
      </trkpt>
      <trkpt lat="46.29751" lon="6.13045">
        <ele>454</ele>
        <time>2020-11-06T14:47:17.975Z</time>
      </trkpt>
      <trkpt lat="46.29749" lon="6.13048">
        <ele>454</ele>
        <time>2020-11-06T14:47:18.976Z</time>
      </trkpt>
      <trkpt lat="46.29746" lon="6.13051">
        <ele>454</ele>
        <time>2020-11-06T14:47:19.976Z</time>
      </trkpt>
      <trkpt lat="46.29744" lon="6.13055">
        <ele>453</ele>
        <time>2020-11-06T14:47:20.975Z</time>
      </trkpt>
      <trkpt lat="46.29742" lon="6.13058">
        <ele>453</ele>
        <time>2020-11-06T14:47:21.976Z</time>
      </trkpt>
      <trkpt lat="46.2974" lon="6.13061">
        <ele>452</ele>
        <time>2020-11-06T14:47:22.976Z</time>
      </trkpt>
      <trkpt lat="46.29737" lon="6.13064">
        <ele>452</ele>
        <time>2020-11-06T14:47:23.976Z</time>
      </trkpt>
      <trkpt lat="46.29735" lon="6.13067">
        <ele>452</ele>
        <time>2020-11-06T14:47:24.975Z</time>
      </trkpt>
      <trkpt lat="46.29733" lon="6.1307">
        <ele>452</ele>
        <time>2020-11-06T14:47:25.976Z</time>
      </trkpt>
      <trkpt lat="46.2973" lon="6.13072">
        <ele>452</ele>
        <time>2020-11-06T14:47:26.975Z</time>
      </trkpt>
      <trkpt lat="46.29728" lon="6.13075">
        <ele>452</ele>
        <time>2020-11-06T14:47:27.976Z</time>
      </trkpt>
      <trkpt lat="46.29726" lon="6.13079">
        <ele>451</ele>
        <time>2020-11-06T14:47:28.975Z</time>
      </trkpt>
      <trkpt lat="46.29724" lon="6.13082">
        <ele>451</ele>
        <time>2020-11-06T14:47:29.976Z</time>
      </trkpt>
      <trkpt lat="46.29721" lon="6.13085">
        <ele>451</ele>
        <time>2020-11-06T14:47:30.976Z</time>
      </trkpt>
      <trkpt lat="46.29718" lon="6.1309">
        <ele>450</ele>
        <time>2020-11-06T14:47:31.975Z</time>
      </trkpt>
      <trkpt lat="46.29715" lon="6.13093">
        <ele>450</ele>
        <time>2020-11-06T14:47:32.976Z</time>
      </trkpt>
      <trkpt lat="46.29712" lon="6.13097">
        <ele>450</ele>
        <time>2020-11-06T14:47:33.975Z</time>
      </trkpt>
      <trkpt lat="46.29708" lon="6.131">
        <ele>450</ele>
        <time>2020-11-06T14:47:34.976Z</time>
      </trkpt>
      <trkpt lat="46.29706" lon="6.13104">
        <ele>449</ele>
        <time>2020-11-06T14:47:35.976Z</time>
      </trkpt>
      <trkpt lat="46.29704" lon="6.13106">
        <ele>449</ele>
        <time>2020-11-06T14:47:36.976Z</time>
      </trkpt>
      <trkpt lat="46.29702" lon="6.13109">
        <ele>449</ele>
        <time>2020-11-06T14:47:37.975Z</time>
      </trkpt>
      <trkpt lat="46.297" lon="6.13112">
        <ele>448</ele>
        <time>2020-11-06T14:47:38.976Z</time>
      </trkpt>
      <trkpt lat="46.29699" lon="6.13115">
        <ele>448</ele>
        <time>2020-11-06T14:47:39.975Z</time>
      </trkpt>
      <trkpt lat="46.29697" lon="6.13118">
        <ele>447</ele>
        <time>2020-11-06T14:47:40.976Z</time>
      </trkpt>
      <trkpt lat="46.29696" lon="6.13122">
        <ele>446</ele>
        <time>2020-11-06T14:47:41.976Z</time>
      </trkpt>
      <trkpt lat="46.29695" lon="6.13126">
        <ele>445</ele>
        <time>2020-11-06T14:47:42.975Z</time>
      </trkpt>
      <trkpt lat="46.29692" lon="6.1313">
        <ele>445</ele>
        <time>2020-11-06T14:47:43.975Z</time>
      </trkpt>
      <trkpt lat="46.2969" lon="6.13134">
        <ele>444</ele>
        <time>2020-11-06T14:47:44.975Z</time>
      </trkpt>
      <trkpt lat="46.29688" lon="6.13138">
        <ele>444</ele>
        <time>2020-11-06T14:47:45.976Z</time>
      </trkpt>
      <trkpt lat="46.29687" lon="6.13141">
        <ele>444</ele>
        <time>2020-11-06T14:47:46.976Z</time>
      </trkpt>
      <trkpt lat="46.29685" lon="6.13145">
        <ele>445</ele>
        <time>2020-11-06T14:47:47.976Z</time>
      </trkpt>
      <trkpt lat="46.29684" lon="6.13149">
        <ele>445</ele>
        <time>2020-11-06T14:47:48.975Z</time>
      </trkpt>
      <trkpt lat="46.29683" lon="6.13153">
        <ele>445</ele>
        <time>2020-11-06T14:47:49.975Z</time>
      </trkpt>
      <trkpt lat="46.29681" lon="6.13157">
        <ele>445</ele>
        <time>2020-11-06T14:47:50.975Z</time>
      </trkpt>
      <trkpt lat="46.29679" lon="6.13161">
        <ele>445</ele>
        <time>2020-11-06T14:47:51.976Z</time>
      </trkpt>
      <trkpt lat="46.29677" lon="6.13163">
        <ele>445</ele>
        <time>2020-11-06T14:47:52.975Z</time>
      </trkpt>
      <trkpt lat="46.29675" lon="6.13166">
        <ele>445</ele>
        <time>2020-11-06T14:47:53.976Z</time>
      </trkpt>
      <trkpt lat="46.29673" lon="6.1317">
        <ele>445</ele>
        <time>2020-11-06T14:47:54.975Z</time>
      </trkpt>
      <trkpt lat="46.29671" lon="6.13173">
        <ele>445</ele>
        <time>2020-11-06T14:47:55.976Z</time>
      </trkpt>
      <trkpt lat="46.29669" lon="6.13176">
        <ele>445</ele>
        <time>2020-11-06T14:47:56.976Z</time>
      </trkpt>
      <trkpt lat="46.29667" lon="6.13179">
        <ele>446</ele>
        <time>2020-11-06T14:47:57.976Z</time>
      </trkpt>
      <trkpt lat="46.29665" lon="6.13183">
        <ele>446</ele>
        <time>2020-11-06T14:47:58.976Z</time>
      </trkpt>
      <trkpt lat="46.29663" lon="6.13186">
        <ele>446</ele>
        <time>2020-11-06T14:47:59.976Z</time>
      </trkpt>
      <trkpt lat="46.29662" lon="6.1319">
        <ele>446</ele>
        <time>2020-11-06T14:48:00.976Z</time>
      </trkpt>
      <trkpt lat="46.2966" lon="6.13193">
        <ele>446</ele>
        <time>2020-11-06T14:48:01.975Z</time>
      </trkpt>
      <trkpt lat="46.29658" lon="6.13196">
        <ele>446</ele>
        <time>2020-11-06T14:48:02.976Z</time>
      </trkpt>
      <trkpt lat="46.29656" lon="6.132">
        <ele>446</ele>
        <time>2020-11-06T14:48:03.976Z</time>
      </trkpt>
      <trkpt lat="46.29655" lon="6.13204">
        <ele>446</ele>
        <time>2020-11-06T14:48:04.975Z</time>
      </trkpt>
      <trkpt lat="46.29652" lon="6.13207">
        <ele>446</ele>
        <time>2020-11-06T14:48:05.976Z</time>
      </trkpt>
      <trkpt lat="46.2965" lon="6.13209">
        <ele>446</ele>
        <time>2020-11-06T14:48:06.976Z</time>
      </trkpt>
      <trkpt lat="46.29648" lon="6.13212">
        <ele>446</ele>
        <time>2020-11-06T14:48:07.976Z</time>
      </trkpt>
      <trkpt lat="46.29647" lon="6.13215">
        <ele>447</ele>
        <time>2020-11-06T14:48:08.976Z</time>
      </trkpt>
      <trkpt lat="46.29644" lon="6.13219">
        <ele>447</ele>
        <time>2020-11-06T14:48:09.975Z</time>
      </trkpt>
      <trkpt lat="46.29643" lon="6.13221">
        <ele>447</ele>
        <time>2020-11-06T14:48:10.976Z</time>
      </trkpt>
      <trkpt lat="46.2964" lon="6.13225">
        <ele>447</ele>
        <time>2020-11-06T14:48:11.975Z</time>
      </trkpt>
      <trkpt lat="46.29639" lon="6.13228">
        <ele>447</ele>
        <time>2020-11-06T14:48:12.976Z</time>
      </trkpt>
      <trkpt lat="46.29637" lon="6.13231">
        <ele>447</ele>
        <time>2020-11-06T14:48:13.976Z</time>
      </trkpt>
      <trkpt lat="46.29635" lon="6.13234">
        <ele>446</ele>
        <time>2020-11-06T14:48:14.975Z</time>
      </trkpt>
      <trkpt lat="46.29632" lon="6.13237">
        <ele>445</ele>
        <time>2020-11-06T14:48:15.976Z</time>
      </trkpt>
      <trkpt lat="46.2963" lon="6.13241">
        <ele>445</ele>
        <time>2020-11-06T14:48:16.976Z</time>
      </trkpt>
      <trkpt lat="46.29628" lon="6.13244">
        <ele>444</ele>
        <time>2020-11-06T14:48:17.976Z</time>
      </trkpt>
      <trkpt lat="46.29626" lon="6.13248">
        <ele>444</ele>
        <time>2020-11-06T14:48:18.976Z</time>
      </trkpt>
      <trkpt lat="46.29624" lon="6.13251">
        <ele>443</ele>
        <time>2020-11-06T14:48:19.976Z</time>
      </trkpt>
      <trkpt lat="46.29621" lon="6.13255">
        <ele>443</ele>
        <time>2020-11-06T14:48:20.976Z</time>
      </trkpt>
      <trkpt lat="46.29619" lon="6.13259">
        <ele>443</ele>
        <time>2020-11-06T14:48:21.975Z</time>
      </trkpt>
      <trkpt lat="46.29617" lon="6.13262">
        <ele>443</ele>
        <time>2020-11-06T14:48:22.976Z</time>
      </trkpt>
      <trkpt lat="46.29615" lon="6.13266">
        <ele>443</ele>
        <time>2020-11-06T14:48:23.976Z</time>
      </trkpt>
      <trkpt lat="46.29614" lon="6.1327">
        <ele>443</ele>
        <time>2020-11-06T14:48:24.976Z</time>
      </trkpt>
      <trkpt lat="46.29612" lon="6.13274">
        <ele>443</ele>
        <time>2020-11-06T14:48:25.975Z</time>
      </trkpt>
      <trkpt lat="46.2961" lon="6.13278">
        <ele>443</ele>
        <time>2020-11-06T14:48:26.975Z</time>
      </trkpt>
      <trkpt lat="46.29608" lon="6.13282">
        <ele>443</ele>
        <time>2020-11-06T14:48:27.975Z</time>
      </trkpt>
      <trkpt lat="46.29606" lon="6.13286">
        <ele>444</ele>
        <time>2020-11-06T14:48:28.976Z</time>
      </trkpt>
      <trkpt lat="46.29604" lon="6.13289">
        <ele>444</ele>
        <time>2020-11-06T14:48:29.976Z</time>
      </trkpt>
      <trkpt lat="46.29602" lon="6.13292">
        <ele>444</ele>
        <time>2020-11-06T14:48:30.975Z</time>
      </trkpt>
      <trkpt lat="46.296" lon="6.13295">
        <ele>444</ele>
        <time>2020-11-06T14:48:31.976Z</time>
      </trkpt>
      <trkpt lat="46.29598" lon="6.13297">
        <ele>444</ele>
        <time>2020-11-06T14:48:32.975Z</time>
      </trkpt>
      <trkpt lat="46.29595" lon="6.133">
        <ele>445</ele>
        <time>2020-11-06T14:48:33.976Z</time>
      </trkpt>
      <trkpt lat="46.29593" lon="6.13304">
        <ele>445</ele>
        <time>2020-11-06T14:48:34.976Z</time>
      </trkpt>
      <trkpt lat="46.29591" lon="6.13308">
        <ele>445</ele>
        <time>2020-11-06T14:48:35.975Z</time>
      </trkpt>
      <trkpt lat="46.29589" lon="6.13311">
        <ele>445</ele>
        <time>2020-11-06T14:48:36.976Z</time>
      </trkpt>
      <trkpt lat="46.29587" lon="6.13314">
        <ele>445</ele>
        <time>2020-11-06T14:48:37.975Z</time>
      </trkpt>
      <trkpt lat="46.29585" lon="6.13317">
        <ele>445</ele>
        <time>2020-11-06T14:48:38.975Z</time>
      </trkpt>
      <trkpt lat="46.29583" lon="6.1332">
        <ele>445</ele>
        <time>2020-11-06T14:48:39.975Z</time>
      </trkpt>
      <trkpt lat="46.29582" lon="6.13323">
        <ele>444</ele>
        <time>2020-11-06T14:48:40.976Z</time>
      </trkpt>
      <trkpt lat="46.2958" lon="6.13327">
        <ele>444</ele>
        <time>2020-11-06T14:48:41.976Z</time>
      </trkpt>
      <trkpt lat="46.29579" lon="6.13331">
        <ele>444</ele>
        <time>2020-11-06T14:48:42.975Z</time>
      </trkpt>
      <trkpt lat="46.29577" lon="6.13334">
        <ele>444</ele>
        <time>2020-11-06T14:48:43.975Z</time>
      </trkpt>
      <trkpt lat="46.29575" lon="6.13337">
        <ele>444</ele>
        <time>2020-11-06T14:48:44.976Z</time>
      </trkpt>
      <trkpt lat="46.29573" lon="6.13341">
        <ele>443</ele>
        <time>2020-11-06T14:48:45.976Z</time>
      </trkpt>
      <trkpt lat="46.29571" lon="6.13344">
        <ele>443</ele>
        <time>2020-11-06T14:48:46.975Z</time>
      </trkpt>
      <trkpt lat="46.29569" lon="6.13347">
        <ele>443</ele>
        <time>2020-11-06T14:48:47.976Z</time>
      </trkpt>
      <trkpt lat="46.29568" lon="6.1335">
        <ele>442</ele>
        <time>2020-11-06T14:48:48.976Z</time>
      </trkpt>
      <trkpt lat="46.29566" lon="6.13353">
        <ele>442</ele>
        <time>2020-11-06T14:48:49.975Z</time>
      </trkpt>
      <trkpt lat="46.29564" lon="6.13358">
        <ele>442</ele>
        <time>2020-11-06T14:48:50.975Z</time>
      </trkpt>
      <trkpt lat="46.29563" lon="6.13362">
        <ele>442</ele>
        <time>2020-11-06T14:48:51.976Z</time>
      </trkpt>
      <trkpt lat="46.29562" lon="6.13366">
        <ele>441</ele>
        <time>2020-11-06T14:48:52.975Z</time>
      </trkpt>
      <trkpt lat="46.29561" lon="6.1337">
        <ele>441</ele>
        <time>2020-11-06T14:48:53.976Z</time>
      </trkpt>
      <trkpt lat="46.29559" lon="6.13374">
        <ele>442</ele>
        <time>2020-11-06T14:48:54.976Z</time>
      </trkpt>
      <trkpt lat="46.29557" lon="6.13376">
        <ele>442</ele>
        <time>2020-11-06T14:48:55.975Z</time>
      </trkpt>
      <trkpt lat="46.29555" lon="6.13379">
        <ele>442</ele>
        <time>2020-11-06T14:48:56.976Z</time>
      </trkpt>
      <trkpt lat="46.29554" lon="6.1338">
        <ele>443</ele>
        <time>2020-11-06T14:48:57.975Z</time>
      </trkpt>
      <trkpt lat="46.29551" lon="6.13378">
        <ele>444</ele>
        <time>2020-11-06T14:48:58.976Z</time>
      </trkpt>
      <trkpt lat="46.29549" lon="6.13377">
        <ele>444</ele>
        <time>2020-11-06T14:48:59.976Z</time>
      </trkpt>
      <trkpt lat="46.29547" lon="6.13377">
        <ele>445</ele>
        <time>2020-11-06T14:49:00.975Z</time>
      </trkpt>
      <trkpt lat="46.29544" lon="6.13377">
        <ele>445</ele>
        <time>2020-11-06T14:49:01.976Z</time>
      </trkpt>
      <trkpt lat="46.29542" lon="6.13376">
        <ele>445</ele>
        <time>2020-11-06T14:49:02.976Z</time>
      </trkpt>
      <trkpt lat="46.29539" lon="6.13376">
        <ele>445</ele>
        <time>2020-11-06T14:49:03.976Z</time>
      </trkpt>
      <trkpt lat="46.29536" lon="6.13375">
        <ele>445</ele>
        <time>2020-11-06T14:49:04.975Z</time>
      </trkpt>
      <trkpt lat="46.29533" lon="6.13375">
        <ele>445</ele>
        <time>2020-11-06T14:49:05.976Z</time>
      </trkpt>
      <trkpt lat="46.2953" lon="6.13375">
        <ele>445</ele>
        <time>2020-11-06T14:49:06.976Z</time>
      </trkpt>
      <trkpt lat="46.29528" lon="6.13374">
        <ele>444</ele>
        <time>2020-11-06T14:49:07.976Z</time>
      </trkpt>
      <trkpt lat="46.29526" lon="6.13374">
        <ele>444</ele>
        <time>2020-11-06T14:49:08.976Z</time>
      </trkpt>
      <trkpt lat="46.29524" lon="6.13374">
        <ele>444</ele>
        <time>2020-11-06T14:49:09.976Z</time>
      </trkpt>
      <trkpt lat="46.29522" lon="6.13374">
        <ele>444</ele>
        <time>2020-11-06T14:49:10.976Z</time>
      </trkpt>
      <trkpt lat="46.2952" lon="6.13374">
        <ele>444</ele>
        <time>2020-11-06T14:49:11.975Z</time>
      </trkpt>
      <trkpt lat="46.29518" lon="6.13374">
        <ele>444</ele>
        <time>2020-11-06T14:49:12.976Z</time>
      </trkpt>
      <trkpt lat="46.29515" lon="6.13374">
        <ele>444</ele>
        <time>2020-11-06T14:49:13.975Z</time>
      </trkpt>
      <trkpt lat="46.29511" lon="6.13374">
        <ele>445</ele>
        <time>2020-11-06T14:49:14.975Z</time>
      </trkpt>
      <trkpt lat="46.29508" lon="6.13373">
        <ele>445</ele>
        <time>2020-11-06T14:49:15.975Z</time>
      </trkpt>
      <trkpt lat="46.29505" lon="6.13373">
        <ele>445</ele>
        <time>2020-11-06T14:49:16.975Z</time>
      </trkpt>
      <trkpt lat="46.29503" lon="6.13372">
        <ele>445</ele>
        <time>2020-11-06T14:49:17.975Z</time>
      </trkpt>
      <trkpt lat="46.29501" lon="6.13372">
        <ele>445</ele>
        <time>2020-11-06T14:49:18.975Z</time>
      </trkpt>
      <trkpt lat="46.29498" lon="6.13371">
        <ele>446</ele>
        <time>2020-11-06T14:49:19.976Z</time>
      </trkpt>
      <trkpt lat="46.29496" lon="6.13371">
        <ele>446</ele>
        <time>2020-11-06T14:49:20.975Z</time>
      </trkpt>
      <trkpt lat="46.29493" lon="6.13371">
        <ele>445</ele>
        <time>2020-11-06T14:49:21.976Z</time>
      </trkpt>
      <trkpt lat="46.2949" lon="6.13371">
        <ele>445</ele>
        <time>2020-11-06T14:49:22.976Z</time>
      </trkpt>
      <trkpt lat="46.29488" lon="6.1337">
        <ele>445</ele>
        <time>2020-11-06T14:49:23.976Z</time>
      </trkpt>
      <trkpt lat="46.29486" lon="6.1337">
        <ele>445</ele>
        <time>2020-11-06T14:49:24.976Z</time>
      </trkpt>
      <trkpt lat="46.29484" lon="6.1337">
        <ele>445</ele>
        <time>2020-11-06T14:49:25.976Z</time>
      </trkpt>
      <trkpt lat="46.29481" lon="6.13369">
        <ele>445</ele>
        <time>2020-11-06T14:49:26.976Z</time>
      </trkpt>
      <trkpt lat="46.29478" lon="6.13368">
        <ele>445</ele>
        <time>2020-11-06T14:49:27.976Z</time>
      </trkpt>
      <trkpt lat="46.29475" lon="6.13368">
        <ele>445</ele>
        <time>2020-11-06T14:49:28.976Z</time>
      </trkpt>
      <trkpt lat="46.29472" lon="6.13366">
        <ele>445</ele>
        <time>2020-11-06T14:49:29.976Z</time>
      </trkpt>
      <trkpt lat="46.29468" lon="6.13365">
        <ele>445</ele>
        <time>2020-11-06T14:49:30.976Z</time>
      </trkpt>
      <trkpt lat="46.29464" lon="6.13364">
        <ele>445</ele>
        <time>2020-11-06T14:49:31.976Z</time>
      </trkpt>
      <trkpt lat="46.29461" lon="6.13362">
        <ele>446</ele>
        <time>2020-11-06T14:49:32.976Z</time>
      </trkpt>
      <trkpt lat="46.29456" lon="6.13362">
        <ele>445</ele>
        <time>2020-11-06T14:49:33.976Z</time>
      </trkpt>
      <trkpt lat="46.29452" lon="6.13363">
        <ele>445</ele>
        <time>2020-11-06T14:49:34.975Z</time>
      </trkpt>
      <trkpt lat="46.2945" lon="6.13363">
        <ele>445</ele>
        <time>2020-11-06T14:49:35.976Z</time>
      </trkpt>
      <trkpt lat="46.29447" lon="6.13363">
        <ele>445</ele>
        <time>2020-11-06T14:49:36.976Z</time>
      </trkpt>
      <trkpt lat="46.29444" lon="6.13362">
        <ele>445</ele>
        <time>2020-11-06T14:49:37.975Z</time>
      </trkpt>
      <trkpt lat="46.29441" lon="6.13361">
        <ele>444</ele>
        <time>2020-11-06T14:49:38.976Z</time>
      </trkpt>
      <trkpt lat="46.29437" lon="6.13361">
        <ele>444</ele>
        <time>2020-11-06T14:49:39.975Z</time>
      </trkpt>
      <trkpt lat="46.29434" lon="6.13361">
        <ele>444</ele>
        <time>2020-11-06T14:49:40.976Z</time>
      </trkpt>
      <trkpt lat="46.2943" lon="6.13362">
        <ele>444</ele>
        <time>2020-11-06T14:49:41.976Z</time>
      </trkpt>
      <trkpt lat="46.29427" lon="6.13362">
        <ele>445</ele>
        <time>2020-11-06T14:49:42.976Z</time>
      </trkpt>
      <trkpt lat="46.29425" lon="6.13361">
        <ele>445</ele>
        <time>2020-11-06T14:49:43.975Z</time>
      </trkpt>
      <trkpt lat="46.29422" lon="6.1336">
        <ele>445</ele>
        <time>2020-11-06T14:49:44.976Z</time>
      </trkpt>
      <trkpt lat="46.29419" lon="6.13359">
        <ele>445</ele>
        <time>2020-11-06T14:49:45.976Z</time>
      </trkpt>
      <trkpt lat="46.29416" lon="6.13357">
        <ele>444</ele>
        <time>2020-11-06T14:49:46.976Z</time>
      </trkpt>
      <trkpt lat="46.29413" lon="6.13356">
        <ele>444</ele>
        <time>2020-11-06T14:49:47.976Z</time>
      </trkpt>
      <trkpt lat="46.29411" lon="6.13355">
        <ele>444</ele>
        <time>2020-11-06T14:49:48.976Z</time>
      </trkpt>
      <trkpt lat="46.29408" lon="6.13355">
        <ele>444</ele>
        <time>2020-11-06T14:49:49.976Z</time>
      </trkpt>
      <trkpt lat="46.29406" lon="6.13354">
        <ele>444</ele>
        <time>2020-11-06T14:49:50.976Z</time>
      </trkpt>
      <trkpt lat="46.29404" lon="6.13354">
        <ele>444</ele>
        <time>2020-11-06T14:49:51.976Z</time>
      </trkpt>
      <trkpt lat="46.29401" lon="6.13354">
        <ele>443</ele>
        <time>2020-11-06T14:49:52.976Z</time>
      </trkpt>
      <trkpt lat="46.29399" lon="6.13354">
        <ele>443</ele>
        <time>2020-11-06T14:49:53.976Z</time>
      </trkpt>
      <trkpt lat="46.29397" lon="6.13353">
        <ele>444</ele>
        <time>2020-11-06T14:49:54.975Z</time>
      </trkpt>
      <trkpt lat="46.29395" lon="6.13354">
        <ele>444</ele>
        <time>2020-11-06T14:49:55.976Z</time>
      </trkpt>
      <trkpt lat="46.29392" lon="6.13354">
        <ele>444</ele>
        <time>2020-11-06T14:49:56.976Z</time>
      </trkpt>
      <trkpt lat="46.29389" lon="6.13353">
        <ele>444</ele>
        <time>2020-11-06T14:49:57.976Z</time>
      </trkpt>
      <trkpt lat="46.29385" lon="6.13353">
        <ele>444</ele>
        <time>2020-11-06T14:49:58.976Z</time>
      </trkpt>
      <trkpt lat="46.2938" lon="6.13353">
        <ele>444</ele>
        <time>2020-11-06T14:49:59.976Z</time>
      </trkpt>
      <trkpt lat="46.29376" lon="6.13353">
        <ele>444</ele>
        <time>2020-11-06T14:50:00.976Z</time>
      </trkpt>
      <trkpt lat="46.29373" lon="6.13353">
        <ele>444</ele>
        <time>2020-11-06T14:50:01.976Z</time>
      </trkpt>
      <trkpt lat="46.2937" lon="6.13353">
        <ele>444</ele>
        <time>2020-11-06T14:50:02.976Z</time>
      </trkpt>
      <trkpt lat="46.29367" lon="6.13355">
        <ele>444</ele>
        <time>2020-11-06T14:50:03.976Z</time>
      </trkpt>
      <trkpt lat="46.29364" lon="6.13356">
        <ele>444</ele>
        <time>2020-11-06T14:50:04.976Z</time>
      </trkpt>
      <trkpt lat="46.29362" lon="6.13359">
        <ele>445</ele>
        <time>2020-11-06T14:50:05.975Z</time>
      </trkpt>
      <trkpt lat="46.29361" lon="6.13361">
        <ele>445</ele>
        <time>2020-11-06T14:50:06.976Z</time>
      </trkpt>
      <trkpt lat="46.2936" lon="6.13363">
        <ele>445</ele>
        <time>2020-11-06T14:50:07.976Z</time>
      </trkpt>
      <trkpt lat="46.2936" lon="6.13367">
        <ele>446</ele>
        <time>2020-11-06T14:50:08.976Z</time>
      </trkpt>
      <trkpt lat="46.2936" lon="6.1337">
        <ele>446</ele>
        <time>2020-11-06T14:50:09.976Z</time>
      </trkpt>
      <trkpt lat="46.2936" lon="6.13373">
        <ele>447</ele>
        <time>2020-11-06T14:50:10.976Z</time>
      </trkpt>
      <trkpt lat="46.2936" lon="6.13375">
        <ele>447</ele>
        <time>2020-11-06T14:50:11.975Z</time>
      </trkpt>
      <trkpt lat="46.2936" lon="6.13377">
        <ele>447</ele>
        <time>2020-11-06T14:50:12.976Z</time>
      </trkpt>
      <trkpt lat="46.2936" lon="6.13379">
        <ele>447</ele>
        <time>2020-11-06T14:50:13.976Z</time>
      </trkpt>
      <trkpt lat="46.29359" lon="6.13381">
        <ele>448</ele>
        <time>2020-11-06T14:50:14.976Z</time>
      </trkpt>
      <trkpt lat="46.29359" lon="6.13383">
        <ele>448</ele>
        <time>2020-11-06T14:50:15.976Z</time>
      </trkpt>
      <trkpt lat="46.29359" lon="6.13384">
        <ele>448</ele>
        <time>2020-11-06T14:50:16.976Z</time>
      </trkpt>
      <trkpt lat="46.29359" lon="6.13386">
        <ele>448</ele>
        <time>2020-11-06T14:50:17.976Z</time>
      </trkpt>
      <trkpt lat="46.29359" lon="6.13387">
        <ele>448</ele>
        <time>2020-11-06T14:50:18.975Z</time>
      </trkpt>
      <trkpt lat="46.29359" lon="6.13389">
        <ele>448</ele>
        <time>2020-11-06T14:50:19.976Z</time>
      </trkpt>
      <trkpt lat="46.2936" lon="6.13391">
        <ele>448</ele>
        <time>2020-11-06T14:50:20.976Z</time>
      </trkpt>
      <trkpt lat="46.2936" lon="6.13393">
        <ele>447</ele>
        <time>2020-11-06T14:50:21.975Z</time>
      </trkpt>
      <trkpt lat="46.29359" lon="6.13395">
        <ele>446</ele>
        <time>2020-11-06T14:50:22.976Z</time>
      </trkpt>
      <trkpt lat="46.29359" lon="6.13398">
        <ele>446</ele>
        <time>2020-11-06T14:50:23.976Z</time>
      </trkpt>
      <trkpt lat="46.29359" lon="6.13401">
        <ele>446</ele>
        <time>2020-11-06T14:50:24.975Z</time>
      </trkpt>
      <trkpt lat="46.29358" lon="6.13404">
        <ele>445</ele>
        <time>2020-11-06T14:50:25.976Z</time>
      </trkpt>
      <trkpt lat="46.29358" lon="6.13408">
        <ele>445</ele>
        <time>2020-11-06T14:50:26.975Z</time>
      </trkpt>
      <trkpt lat="46.29359" lon="6.13411">
        <ele>445</ele>
        <time>2020-11-06T14:50:27.976Z</time>
      </trkpt>
      <trkpt lat="46.29359" lon="6.13415">
        <ele>445</ele>
        <time>2020-11-06T14:50:28.976Z</time>
      </trkpt>
      <trkpt lat="46.29359" lon="6.13417">
        <ele>445</ele>
        <time>2020-11-06T14:50:29.975Z</time>
      </trkpt>
      <trkpt lat="46.29359" lon="6.1342">
        <ele>445</ele>
        <time>2020-11-06T14:50:30.976Z</time>
      </trkpt>
      <trkpt lat="46.2936" lon="6.13422">
        <ele>445</ele>
        <time>2020-11-06T14:50:31.976Z</time>
      </trkpt>
      <trkpt lat="46.2936" lon="6.13424">
        <ele>445</ele>
        <time>2020-11-06T14:50:32.976Z</time>
      </trkpt>
      <trkpt lat="46.29359" lon="6.13426">
        <ele>446</ele>
        <time>2020-11-06T14:50:33.976Z</time>
      </trkpt>
      <trkpt lat="46.29359" lon="6.13428">
        <ele>446</ele>
        <time>2020-11-06T14:50:34.976Z</time>
      </trkpt>
      <trkpt lat="46.2936" lon="6.13431">
        <ele>447</ele>
        <time>2020-11-06T14:50:35.976Z</time>
      </trkpt>
      <trkpt lat="46.2936" lon="6.13433">
        <ele>447</ele>
        <time>2020-11-06T14:50:36.975Z</time>
      </trkpt>
      <trkpt lat="46.29359" lon="6.13435">
        <ele>447</ele>
        <time>2020-11-06T14:50:37.976Z</time>
      </trkpt>
      <trkpt lat="46.29358" lon="6.13437">
        <ele>448</ele>
        <time>2020-11-06T14:50:38.975Z</time>
      </trkpt>
      <trkpt lat="46.29357" lon="6.13439">
        <ele>448</ele>
        <time>2020-11-06T14:50:39.975Z</time>
      </trkpt>
      <trkpt lat="46.29357" lon="6.13441">
        <ele>449</ele>
        <time>2020-11-06T14:50:40.976Z</time>
      </trkpt>
      <trkpt lat="46.29356" lon="6.13442">
        <ele>449</ele>
        <time>2020-11-06T14:50:41.976Z</time>
      </trkpt>
      <trkpt lat="46.29356" lon="6.13443">
        <ele>449</ele>
        <time>2020-11-06T14:50:42.975Z</time>
      </trkpt>
      <trkpt lat="46.29356" lon="6.13444">
        <ele>450</ele>
        <time>2020-11-06T14:50:43.976Z</time>
      </trkpt>
      <trkpt lat="46.29355" lon="6.13446">
        <ele>450</ele>
        <time>2020-11-06T14:50:44.976Z</time>
      </trkpt>
      <trkpt lat="46.29355" lon="6.13448">
        <ele>451</ele>
        <time>2020-11-06T14:50:45.976Z</time>
      </trkpt>
      <trkpt lat="46.29354" lon="6.13449">
        <ele>452</ele>
        <time>2020-11-06T14:50:46.976Z</time>
      </trkpt>
      <trkpt lat="46.29354" lon="6.13451">
        <ele>452</ele>
        <time>2020-11-06T14:50:47.976Z</time>
      </trkpt>
      <trkpt lat="46.29354" lon="6.13454">
        <ele>452</ele>
        <time>2020-11-06T14:50:48.976Z</time>
      </trkpt>
      <trkpt lat="46.29354" lon="6.13456">
        <ele>452</ele>
        <time>2020-11-06T14:50:49.976Z</time>
      </trkpt>
      <trkpt lat="46.29355" lon="6.13459">
        <ele>451</ele>
        <time>2020-11-06T14:50:50.975Z</time>
      </trkpt>
      <trkpt lat="46.29356" lon="6.13462">
        <ele>451</ele>
        <time>2020-11-06T14:50:51.976Z</time>
      </trkpt>
      <trkpt lat="46.29358" lon="6.13466">
        <ele>451</ele>
        <time>2020-11-06T14:50:52.976Z</time>
      </trkpt>
      <trkpt lat="46.29359" lon="6.1347">
        <ele>451</ele>
        <time>2020-11-06T14:50:53.976Z</time>
      </trkpt>
      <trkpt lat="46.29361" lon="6.13474">
        <ele>451</ele>
        <time>2020-11-06T14:50:54.975Z</time>
      </trkpt>
      <trkpt lat="46.29363" lon="6.13477">
        <ele>451</ele>
        <time>2020-11-06T14:50:55.975Z</time>
      </trkpt>
      <trkpt lat="46.29365" lon="6.13481">
        <ele>450</ele>
        <time>2020-11-06T14:50:56.976Z</time>
      </trkpt>
      <trkpt lat="46.29366" lon="6.13485">
        <ele>449</ele>
        <time>2020-11-06T14:50:57.976Z</time>
      </trkpt>
      <trkpt lat="46.29367" lon="6.13488">
        <ele>449</ele>
        <time>2020-11-06T14:50:58.975Z</time>
      </trkpt>
      <trkpt lat="46.29368" lon="6.13491">
        <ele>448</ele>
        <time>2020-11-06T14:50:59.975Z</time>
      </trkpt>
      <trkpt lat="46.29369" lon="6.13494">
        <ele>447</ele>
        <time>2020-11-06T14:51:00.976Z</time>
      </trkpt>
      <trkpt lat="46.29369" lon="6.13497">
        <ele>447</ele>
        <time>2020-11-06T14:51:01.976Z</time>
      </trkpt>
      <trkpt lat="46.2937" lon="6.13502">
        <ele>447</ele>
        <time>2020-11-06T14:51:02.976Z</time>
      </trkpt>
      <trkpt lat="46.29371" lon="6.13507">
        <ele>447</ele>
        <time>2020-11-06T14:51:03.976Z</time>
      </trkpt>
      <trkpt lat="46.29372" lon="6.13511">
        <ele>447</ele>
        <time>2020-11-06T14:51:04.976Z</time>
      </trkpt>
      <trkpt lat="46.29372" lon="6.13515">
        <ele>448</ele>
        <time>2020-11-06T14:51:05.976Z</time>
      </trkpt>
      <trkpt lat="46.29373" lon="6.13519">
        <ele>448</ele>
        <time>2020-11-06T14:51:06.976Z</time>
      </trkpt>
      <trkpt lat="46.29374" lon="6.13522">
        <ele>448</ele>
        <time>2020-11-06T14:51:07.976Z</time>
      </trkpt>
      <trkpt lat="46.29375" lon="6.13524">
        <ele>448</ele>
        <time>2020-11-06T14:51:08.975Z</time>
      </trkpt>
      <trkpt lat="46.29375" lon="6.13527">
        <ele>447</ele>
        <time>2020-11-06T14:51:09.975Z</time>
      </trkpt>
      <trkpt lat="46.29375" lon="6.1353">
        <ele>447</ele>
        <time>2020-11-06T14:51:10.975Z</time>
      </trkpt>
      <trkpt lat="46.29375" lon="6.13535">
        <ele>448</ele>
        <time>2020-11-06T14:51:11.976Z</time>
      </trkpt>
      <trkpt lat="46.29374" lon="6.13539">
        <ele>448</ele>
        <time>2020-11-06T14:51:12.975Z</time>
      </trkpt>
      <trkpt lat="46.29374" lon="6.13543">
        <ele>449</ele>
        <time>2020-11-06T14:51:13.976Z</time>
      </trkpt>
      <trkpt lat="46.29373" lon="6.13547">
        <ele>450</ele>
        <time>2020-11-06T14:51:14.976Z</time>
      </trkpt>
      <trkpt lat="46.29372" lon="6.1355">
        <ele>450</ele>
        <time>2020-11-06T14:51:15.976Z</time>
      </trkpt>
      <trkpt lat="46.29371" lon="6.13553">
        <ele>449</ele>
        <time>2020-11-06T14:51:16.975Z</time>
      </trkpt>
      <trkpt lat="46.2937" lon="6.13555">
        <ele>449</ele>
        <time>2020-11-06T14:51:17.976Z</time>
      </trkpt>
      <trkpt lat="46.29368" lon="6.13557">
        <ele>449</ele>
        <time>2020-11-06T14:51:18.976Z</time>
      </trkpt>
      <trkpt lat="46.29367" lon="6.13559">
        <ele>449</ele>
        <time>2020-11-06T14:51:19.976Z</time>
      </trkpt>
      <trkpt lat="46.29365" lon="6.13561">
        <ele>449</ele>
        <time>2020-11-06T14:51:20.976Z</time>
      </trkpt>
      <trkpt lat="46.29363" lon="6.13563">
        <ele>449</ele>
        <time>2020-11-06T14:51:21.976Z</time>
      </trkpt>
      <trkpt lat="46.29361" lon="6.13564">
        <ele>449</ele>
        <time>2020-11-06T14:51:22.976Z</time>
      </trkpt>
      <trkpt lat="46.29358" lon="6.13566">
        <ele>448</ele>
        <time>2020-11-06T14:51:23.975Z</time>
      </trkpt>
      <trkpt lat="46.29356" lon="6.13567">
        <ele>448</ele>
        <time>2020-11-06T14:51:24.976Z</time>
      </trkpt>
      <trkpt lat="46.29354" lon="6.1357">
        <ele>447</ele>
        <time>2020-11-06T14:51:25.975Z</time>
      </trkpt>
      <trkpt lat="46.29352" lon="6.13573">
        <ele>446</ele>
        <time>2020-11-06T14:51:26.975Z</time>
      </trkpt>
      <trkpt lat="46.29351" lon="6.13577">
        <ele>445</ele>
        <time>2020-11-06T14:51:27.975Z</time>
      </trkpt>
      <trkpt lat="46.29349" lon="6.13581">
        <ele>445</ele>
        <time>2020-11-06T14:51:28.976Z</time>
      </trkpt>
      <trkpt lat="46.29348" lon="6.13585">
        <ele>445</ele>
        <time>2020-11-06T14:51:29.975Z</time>
      </trkpt>
      <trkpt lat="46.29347" lon="6.13589">
        <ele>445</ele>
        <time>2020-11-06T14:51:30.976Z</time>
      </trkpt>
      <trkpt lat="46.29346" lon="6.13594">
        <ele>445</ele>
        <time>2020-11-06T14:51:31.976Z</time>
      </trkpt>
      <trkpt lat="46.29346" lon="6.13597">
        <ele>445</ele>
        <time>2020-11-06T14:51:32.975Z</time>
      </trkpt>
      <trkpt lat="46.29344" lon="6.13601">
        <ele>445</ele>
        <time>2020-11-06T14:51:33.976Z</time>
      </trkpt>
      <trkpt lat="46.29343" lon="6.13605">
        <ele>445</ele>
        <time>2020-11-06T14:51:34.976Z</time>
      </trkpt>
      <trkpt lat="46.29342" lon="6.13609">
        <ele>445</ele>
        <time>2020-11-06T14:51:35.975Z</time>
      </trkpt>
      <trkpt lat="46.29341" lon="6.13613">
        <ele>445</ele>
        <time>2020-11-06T14:51:36.976Z</time>
      </trkpt>
      <trkpt lat="46.29339" lon="6.13617">
        <ele>445</ele>
        <time>2020-11-06T14:51:37.976Z</time>
      </trkpt>
      <trkpt lat="46.29337" lon="6.1362">
        <ele>445</ele>
        <time>2020-11-06T14:51:38.976Z</time>
      </trkpt>
      <trkpt lat="46.29336" lon="6.13622">
        <ele>445</ele>
        <time>2020-11-06T14:51:39.976Z</time>
      </trkpt>
      <trkpt lat="46.29334" lon="6.13625">
        <ele>445</ele>
        <time>2020-11-06T14:51:40.975Z</time>
      </trkpt>
      <trkpt lat="46.29332" lon="6.13627">
        <ele>445</ele>
        <time>2020-11-06T14:51:41.976Z</time>
      </trkpt>
      <trkpt lat="46.29331" lon="6.1363">
        <ele>446</ele>
        <time>2020-11-06T14:51:42.976Z</time>
      </trkpt>
      <trkpt lat="46.2933" lon="6.13632">
        <ele>446</ele>
        <time>2020-11-06T14:51:43.976Z</time>
      </trkpt>
      <trkpt lat="46.29328" lon="6.13634">
        <ele>446</ele>
        <time>2020-11-06T14:51:44.975Z</time>
      </trkpt>
      <trkpt lat="46.29326" lon="6.13637">
        <ele>446</ele>
        <time>2020-11-06T14:51:45.975Z</time>
      </trkpt>
      <trkpt lat="46.29325" lon="6.13639">
        <ele>447</ele>
        <time>2020-11-06T14:51:46.976Z</time>
      </trkpt>
      <trkpt lat="46.29323" lon="6.13641">
        <ele>447</ele>
        <time>2020-11-06T14:51:47.976Z</time>
      </trkpt>
      <trkpt lat="46.29322" lon="6.13644">
        <ele>447</ele>
        <time>2020-11-06T14:51:48.976Z</time>
      </trkpt>
      <trkpt lat="46.29321" lon="6.13647">
        <ele>447</ele>
        <time>2020-11-06T14:51:49.976Z</time>
      </trkpt>
      <trkpt lat="46.29319" lon="6.13652">
        <ele>447</ele>
        <time>2020-11-06T14:51:50.976Z</time>
      </trkpt>
      <trkpt lat="46.29318" lon="6.13655">
        <ele>446</ele>
        <time>2020-11-06T14:51:51.975Z</time>
      </trkpt>
      <trkpt lat="46.29316" lon="6.13659">
        <ele>445</ele>
        <time>2020-11-06T14:51:52.976Z</time>
      </trkpt>
      <trkpt lat="46.29315" lon="6.13661">
        <ele>445</ele>
        <time>2020-11-06T14:51:53.976Z</time>
      </trkpt>
      <trkpt lat="46.29313" lon="6.13664">
        <ele>444</ele>
        <time>2020-11-06T14:51:54.975Z</time>
      </trkpt>
      <trkpt lat="46.29311" lon="6.13666">
        <ele>444</ele>
        <time>2020-11-06T14:51:55.976Z</time>
      </trkpt>
      <trkpt lat="46.2931" lon="6.13668">
        <ele>443</ele>
        <time>2020-11-06T14:51:56.976Z</time>
      </trkpt>
      <trkpt lat="46.29307" lon="6.13671">
        <ele>442</ele>
        <time>2020-11-06T14:51:57.976Z</time>
      </trkpt>
      <trkpt lat="46.29305" lon="6.13675">
        <ele>442</ele>
        <time>2020-11-06T14:51:58.976Z</time>
      </trkpt>
      <trkpt lat="46.29302" lon="6.13677">
        <ele>442</ele>
        <time>2020-11-06T14:51:59.976Z</time>
      </trkpt>
      <trkpt lat="46.293" lon="6.13679">
        <ele>441</ele>
        <time>2020-11-06T14:52:00.975Z</time>
      </trkpt>
      <trkpt lat="46.29298" lon="6.13681">
        <ele>441</ele>
        <time>2020-11-06T14:52:01.976Z</time>
      </trkpt>
      <trkpt lat="46.29295" lon="6.13684">
        <ele>441</ele>
        <time>2020-11-06T14:52:02.975Z</time>
      </trkpt>
      <trkpt lat="46.29292" lon="6.13686">
        <ele>441</ele>
        <time>2020-11-06T14:52:03.976Z</time>
      </trkpt>
      <trkpt lat="46.29289" lon="6.13688">
        <ele>441</ele>
        <time>2020-11-06T14:52:04.976Z</time>
      </trkpt>
      <trkpt lat="46.29285" lon="6.13691">
        <ele>440</ele>
        <time>2020-11-06T14:52:05.975Z</time>
      </trkpt>
      <trkpt lat="46.29283" lon="6.13693">
        <ele>440</ele>
        <time>2020-11-06T14:52:06.975Z</time>
      </trkpt>
      <trkpt lat="46.2928" lon="6.13695">
        <ele>440</ele>
        <time>2020-11-06T14:52:07.976Z</time>
      </trkpt>
      <trkpt lat="46.29278" lon="6.13697">
        <ele>440</ele>
        <time>2020-11-06T14:52:08.976Z</time>
      </trkpt>
      <trkpt lat="46.29276" lon="6.13698">
        <ele>440</ele>
        <time>2020-11-06T14:52:09.975Z</time>
      </trkpt>
      <trkpt lat="46.29273" lon="6.137">
        <ele>439</ele>
        <time>2020-11-06T14:52:10.976Z</time>
      </trkpt>
      <trkpt lat="46.29271" lon="6.13701">
        <ele>438</ele>
        <time>2020-11-06T14:52:11.976Z</time>
      </trkpt>
      <trkpt lat="46.29269" lon="6.13702">
        <ele>438</ele>
        <time>2020-11-06T14:52:12.975Z</time>
      </trkpt>
      <trkpt lat="46.29266" lon="6.13704">
        <ele>437</ele>
        <time>2020-11-06T14:52:13.976Z</time>
      </trkpt>
      <trkpt lat="46.29264" lon="6.13705">
        <ele>436</ele>
        <time>2020-11-06T14:52:14.976Z</time>
      </trkpt>
      <trkpt lat="46.29261" lon="6.13707">
        <ele>436</ele>
        <time>2020-11-06T14:52:15.975Z</time>
      </trkpt>
      <trkpt lat="46.29259" lon="6.13708">
        <ele>435</ele>
        <time>2020-11-06T14:52:16.976Z</time>
      </trkpt>
      <trkpt lat="46.29256" lon="6.1371">
        <ele>435</ele>
        <time>2020-11-06T14:52:17.976Z</time>
      </trkpt>
      <trkpt lat="46.29254" lon="6.13711">
        <ele>435</ele>
        <time>2020-11-06T14:52:18.976Z</time>
      </trkpt>
      <trkpt lat="46.29252" lon="6.13714">
        <ele>436</ele>
        <time>2020-11-06T14:52:19.975Z</time>
      </trkpt>
      <trkpt lat="46.29251" lon="6.13718">
        <ele>435</ele>
        <time>2020-11-06T14:52:20.976Z</time>
      </trkpt>
      <trkpt lat="46.29249" lon="6.13722">
        <ele>435</ele>
        <time>2020-11-06T14:52:21.975Z</time>
      </trkpt>
      <trkpt lat="46.29248" lon="6.13726">
        <ele>435</ele>
        <time>2020-11-06T14:52:22.975Z</time>
      </trkpt>
      <trkpt lat="46.29248" lon="6.1373">
        <ele>436</ele>
        <time>2020-11-06T14:52:23.976Z</time>
      </trkpt>
      <trkpt lat="46.29247" lon="6.13734">
        <ele>436</ele>
        <time>2020-11-06T14:52:24.976Z</time>
      </trkpt>
      <trkpt lat="46.29246" lon="6.13738">
        <ele>436</ele>
        <time>2020-11-06T14:52:25.976Z</time>
      </trkpt>
      <trkpt lat="46.29245" lon="6.13742">
        <ele>437</ele>
        <time>2020-11-06T14:52:26.975Z</time>
      </trkpt>
      <trkpt lat="46.29243" lon="6.13749">
        <ele>437</ele>
        <time>2020-11-06T14:52:27.976Z</time>
      </trkpt>
      <trkpt lat="46.29242" lon="6.13753">
        <ele>437</ele>
        <time>2020-11-06T14:52:28.976Z</time>
      </trkpt>
      <trkpt lat="46.29242" lon="6.13759">
        <ele>438</ele>
        <time>2020-11-06T14:52:29.976Z</time>
      </trkpt>
      <trkpt lat="46.29242" lon="6.13764">
        <ele>438</ele>
        <time>2020-11-06T14:52:30.976Z</time>
      </trkpt>
      <trkpt lat="46.29241" lon="6.13768">
        <ele>438</ele>
        <time>2020-11-06T14:52:31.976Z</time>
      </trkpt>
      <trkpt lat="46.29241" lon="6.13772">
        <ele>439</ele>
        <time>2020-11-06T14:52:32.975Z</time>
      </trkpt>
      <trkpt lat="46.29242" lon="6.13776">
        <ele>439</ele>
        <time>2020-11-06T14:52:33.975Z</time>
      </trkpt>
      <trkpt lat="46.29242" lon="6.13779">
        <ele>439</ele>
        <time>2020-11-06T14:52:34.975Z</time>
      </trkpt>
      <trkpt lat="46.29241" lon="6.13782">
        <ele>440</ele>
        <time>2020-11-06T14:52:35.975Z</time>
      </trkpt>
      <trkpt lat="46.2924" lon="6.13786">
        <ele>440</ele>
        <time>2020-11-06T14:52:36.976Z</time>
      </trkpt>
      <trkpt lat="46.29239" lon="6.13789">
        <ele>440</ele>
        <time>2020-11-06T14:52:37.975Z</time>
      </trkpt>
      <trkpt lat="46.29238" lon="6.13793">
        <ele>440</ele>
        <time>2020-11-06T14:52:38.976Z</time>
      </trkpt>
      <trkpt lat="46.29237" lon="6.13796">
        <ele>440</ele>
        <time>2020-11-06T14:52:39.975Z</time>
      </trkpt>
      <trkpt lat="46.29235" lon="6.13801">
        <ele>440</ele>
        <time>2020-11-06T14:52:40.975Z</time>
      </trkpt>
      <trkpt lat="46.29234" lon="6.13805">
        <ele>440</ele>
        <time>2020-11-06T14:52:41.975Z</time>
      </trkpt>
      <trkpt lat="46.29232" lon="6.13809">
        <ele>441</ele>
        <time>2020-11-06T14:52:42.976Z</time>
      </trkpt>
      <trkpt lat="46.29231" lon="6.13813">
        <ele>441</ele>
        <time>2020-11-06T14:52:43.976Z</time>
      </trkpt>
      <trkpt lat="46.2923" lon="6.13817">
        <ele>441</ele>
        <time>2020-11-06T14:52:44.975Z</time>
      </trkpt>
      <trkpt lat="46.29229" lon="6.13821">
        <ele>441</ele>
        <time>2020-11-06T14:52:45.976Z</time>
      </trkpt>
      <trkpt lat="46.29228" lon="6.13825">
        <ele>441</ele>
        <time>2020-11-06T14:52:46.976Z</time>
      </trkpt>
      <trkpt lat="46.29227" lon="6.13829">
        <ele>441</ele>
        <time>2020-11-06T14:52:47.976Z</time>
      </trkpt>
      <trkpt lat="46.29227" lon="6.13833">
        <ele>441</ele>
        <time>2020-11-06T14:52:48.976Z</time>
      </trkpt>
      <trkpt lat="46.29227" lon="6.13837">
        <ele>441</ele>
        <time>2020-11-06T14:52:49.975Z</time>
      </trkpt>
      <trkpt lat="46.29226" lon="6.13841">
        <ele>442</ele>
        <time>2020-11-06T14:52:50.975Z</time>
      </trkpt>
      <trkpt lat="46.29226" lon="6.13845">
        <ele>442</ele>
        <time>2020-11-06T14:52:51.976Z</time>
      </trkpt>
    </trkseg>
  </trk>
  <trk>
    <name><![CDATA[collez_bossy_essai_2]]></name>
    <extensions>
      <line xmlns="http://www.topografix.com/GPX/gpx_style/0/2">
        <color>ff6a00</color>
        <width>4</width>
      </line>
    </extensions>
    <trkseg>
      <trkpt lat="46.29219" lon="6.13862">
        <ele>442.7</ele>
        <extensions>
          <visugpx:TrkExtension xmlns:visugpx="https://www.visugpx.com/editgpx/">
            <visugpx:node>117</visugpx:node>
            </visugpx:TrkExtension>
        </extensions>
      </trkpt>
      <trkpt lat="46.29218" lon="6.13868">
        <ele>442.7</ele>
        <extensions>
          <visugpx:TrkExtension xmlns:visugpx="https://www.visugpx.com/editgpx/">
            <visugpx:node>90</visugpx:node>
            </visugpx:TrkExtension>
        </extensions>
      </trkpt>
      <trkpt lat="46.29219" lon="6.13862">
        <ele>442.7</ele>
      </trkpt>
      <trkpt lat="46.29225" lon="6.13847">
        <ele>443</ele>
      </trkpt>
      <trkpt lat="46.29239" lon="6.1381">
        <ele>443.4</ele>
      </trkpt>
      <trkpt lat="46.29245" lon="6.13797">
        <ele>443.4</ele>
      </trkpt>
      <trkpt lat="46.2925" lon="6.13786">
        <ele>443.4</ele>
      </trkpt>
      <trkpt lat="46.29246" lon="6.13779">
        <ele>443.4</ele>
      </trkpt>
      <trkpt lat="46.29244" lon="6.13771">
        <ele>443.5</ele>
      </trkpt>
      <trkpt lat="46.29245" lon="6.13762">
        <ele>443.6</ele>
      </trkpt>
      <trkpt lat="46.2925" lon="6.13741">
        <ele>443.6</ele>
      </trkpt>
      <trkpt lat="46.2925" lon="6.13722">
        <ele>443.1</ele>
      </trkpt>
      <trkpt lat="46.29249" lon="6.13717">
        <ele>443</ele>
      </trkpt>
      <trkpt lat="46.29249" lon="6.13713">
        <ele>442.9</ele>
      </trkpt>
      <trkpt lat="46.29244" lon="6.13701">
        <ele>442.8</ele>
      </trkpt>
      <trkpt lat="46.29243" lon="6.13694">
        <ele>442.8</ele>
      </trkpt>
      <trkpt lat="46.29245" lon="6.1368">
        <ele>442.8</ele>
      </trkpt>
      <trkpt lat="46.29254" lon="6.13662">
        <ele>443.5</ele>
      </trkpt>
      <trkpt lat="46.29262" lon="6.13657">
        <ele>444</ele>
      </trkpt>
      <trkpt lat="46.29269" lon="6.13655">
        <ele>444.3</ele>
      </trkpt>
      <trkpt lat="46.29285" lon="6.13657">
        <ele>444.8</ele>
      </trkpt>
      <trkpt lat="46.29292" lon="6.13651">
        <ele>445</ele>
      </trkpt>
      <trkpt lat="46.29295" lon="6.13641">
        <ele>445.2</ele>
      </trkpt>
      <trkpt lat="46.29295" lon="6.13626">
        <ele>445.3</ele>
      </trkpt>
      <trkpt lat="46.29291" lon="6.13587">
        <ele>445.5</ele>
      </trkpt>
      <trkpt lat="46.29299" lon="6.13565">
        <ele>447.1</ele>
      </trkpt>
      <trkpt lat="46.29303" lon="6.13559">
        <ele>447.2</ele>
        <extensions>
          <visugpx:TrkExtension xmlns:visugpx="https://www.visugpx.com/editgpx/">
            <visugpx:node>91</visugpx:node>
            </visugpx:TrkExtension>
        </extensions>
      </trkpt>
      <trkpt lat="46.29308" lon="6.13551">
        <ele>447.4</ele>
      </trkpt>
      <trkpt lat="46.29309" lon="6.1355">
        <ele>447.4</ele>
      </trkpt>
      <trkpt lat="46.29309" lon="6.13529">
        <ele>447.7</ele>
      </trkpt>
      <trkpt lat="46.29312" lon="6.1352">
        <ele>447.9</ele>
      </trkpt>
      <trkpt lat="46.29327" lon="6.13508">
        <ele>448.5</ele>
      </trkpt>
      <trkpt lat="46.29338" lon="6.13512">
        <ele>448.5</ele>
      </trkpt>
      <trkpt lat="46.29341" lon="6.13512">
        <ele>448.4</ele>
      </trkpt>
      <trkpt lat="46.29342" lon="6.13513">
        <ele>448.4</ele>
      </trkpt>
      <trkpt lat="46.29349" lon="6.13514">
        <ele>448.3</ele>
      </trkpt>
      <trkpt lat="46.2936" lon="6.13513">
        <ele>448.1</ele>
      </trkpt>
      <trkpt lat="46.29374" lon="6.1352">
        <ele>447.8</ele>
      </trkpt>
      <trkpt lat="46.29379" lon="6.13522">
        <ele>447.8</ele>
      </trkpt>
      <trkpt lat="46.29382" lon="6.13522">
        <ele>447.7</ele>
      </trkpt>
      <trkpt lat="46.29387" lon="6.13521">
        <ele>447.7</ele>
      </trkpt>
      <trkpt lat="46.29402" lon="6.13529">
        <ele>447.5</ele>
      </trkpt>
      <trkpt lat="46.29403" lon="6.13529">
        <ele>447.5</ele>
      </trkpt>
      <trkpt lat="46.29406" lon="6.13539">
        <ele>447.5</ele>
      </trkpt>
      <trkpt lat="46.29409" lon="6.1355">
        <ele>447.5</ele>
      </trkpt>
      <trkpt lat="46.29412" lon="6.13556">
        <ele>447.4</ele>
      </trkpt>
      <trkpt lat="46.29414" lon="6.13558">
        <ele>447.4</ele>
      </trkpt>
      <trkpt lat="46.29415" lon="6.13561">
        <ele>447.4</ele>
      </trkpt>
      <trkpt lat="46.2942" lon="6.13555">
        <ele>447.3</ele>
      </trkpt>
      <trkpt lat="46.29434" lon="6.13556">
        <ele>447.3</ele>
      </trkpt>
      <trkpt lat="46.29493" lon="6.13563">
        <ele>447.7</ele>
        <extensions>
          <visugpx:TrkExtension xmlns:visugpx="https://www.visugpx.com/editgpx/">
            <visugpx:node>92</visugpx:node>
            </visugpx:TrkExtension>
        </extensions>
      </trkpt>
      <trkpt lat="46.29505" lon="6.13564">
        <ele>448.1</ele>
      </trkpt>
      <trkpt lat="46.29526" lon="6.1357">
        <ele>448.1</ele>
      </trkpt>
      <trkpt lat="46.29544" lon="6.13579">
        <ele>448.2</ele>
      </trkpt>
      <trkpt lat="46.29551" lon="6.13584">
        <ele>447.9</ele>
      </trkpt>
      <trkpt lat="46.29561" lon="6.1361">
        <ele>447.8</ele>
      </trkpt>
      <trkpt lat="46.29561" lon="6.1361">
        <ele>447.8</ele>
      </trkpt>
      <trkpt lat="46.29575" lon="6.13606">
        <ele>447.9</ele>
      </trkpt>
      <trkpt lat="46.29583" lon="6.13608">
        <ele>447.9</ele>
      </trkpt>
      <trkpt lat="46.29601" lon="6.13596">
        <ele>449</ele>
      </trkpt>
      <trkpt lat="46.29603" lon="6.13592">
        <ele>449</ele>
      </trkpt>
      <trkpt lat="46.29617" lon="6.1354">
        <ele>449.4</ele>
      </trkpt>
      <trkpt lat="46.29624" lon="6.13485">
        <ele>448.2</ele>
      </trkpt>
      <trkpt lat="46.29631" lon="6.13459">
        <ele>447.8</ele>
      </trkpt>
      <trkpt lat="46.29634" lon="6.13453">
        <ele>447.7</ele>
      </trkpt>
      <trkpt lat="46.2965" lon="6.13455">
        <ele>447.9</ele>
        <extensions>
          <visugpx:TrkExtension xmlns:visugpx="https://www.visugpx.com/editgpx/">
            <visugpx:node>59</visugpx:node>
            </visugpx:TrkExtension>
        </extensions>
      </trkpt>
      <trkpt lat="46.29651" lon="6.13455">
        <ele>447.9</ele>
      </trkpt>
      <trkpt lat="46.29667" lon="6.13453">
        <ele>448.4</ele>
      </trkpt>
      <trkpt lat="46.29679" lon="6.13458">
        <ele>448.5</ele>
      </trkpt>
      <trkpt lat="46.2969" lon="6.13459">
        <ele>448.5</ele>
      </trkpt>
      <trkpt lat="46.29706" lon="6.13453">
        <ele>448.4</ele>
      </trkpt>
      <trkpt lat="46.29734" lon="6.13449">
        <ele>448.3</ele>
      </trkpt>
      <trkpt lat="46.29737" lon="6.13446">
        <ele>448.2</ele>
      </trkpt>
      <trkpt lat="46.2974" lon="6.13438">
        <ele>448</ele>
      </trkpt>
      <trkpt lat="46.29743" lon="6.13444">
        <ele>448.1</ele>
      </trkpt>
      <trkpt lat="46.29743" lon="6.13444">
        <ele>448.1</ele>
      </trkpt>
      <trkpt lat="46.29743" lon="6.13444">
        <ele>448.1</ele>
      </trkpt>
      <trkpt lat="46.29743" lon="6.13444">
        <ele>448.1</ele>
      </trkpt>
      <trkpt lat="46.29816" lon="6.13578">
        <ele>447.1</ele>
      </trkpt>
      <trkpt lat="46.29889" lon="6.13668">
        <ele>442.9</ele>
      </trkpt>
      <trkpt lat="46.29931" lon="6.13718">
        <ele>445.8</ele>
      </trkpt>
      <trkpt lat="46.29973" lon="6.13768">
        <ele>445.9</ele>
        <extensions>
          <visugpx:TrkExtension xmlns:visugpx="https://www.visugpx.com/editgpx/">
            <visugpx:node>57</visugpx:node>
            </visugpx:TrkExtension>
        </extensions>
      </trkpt>
      <trkpt lat="46.29973" lon="6.13768">
        <ele>445.9</ele>
      </trkpt>
      <trkpt lat="46.30023" lon="6.13838">
        <ele>447.3</ele>
      </trkpt>
      <trkpt lat="46.30032" lon="6.13849">
        <ele>447.7</ele>
      </trkpt>
      <trkpt lat="46.30033" lon="6.1385">
        <ele>447.8</ele>
        <extensions>
          <visugpx:TrkExtension xmlns:visugpx="https://www.visugpx.com/editgpx/">
            <visugpx:node>88</visugpx:node>
            </visugpx:TrkExtension>
        </extensions>
      </trkpt>
      <trkpt lat="46.30035" lon="6.13854">
        <ele>447.8</ele>
      </trkpt>
      <trkpt lat="46.30015" lon="6.13892">
        <ele>445.9</ele>
      </trkpt>
      <trkpt lat="46.29978" lon="6.13958">
        <ele>440</ele>
        <extensions>
          <visugpx:TrkExtension xmlns:visugpx="https://www.visugpx.com/editgpx/">
            <visugpx:node>89</visugpx:node>
            </visugpx:TrkExtension>
        </extensions>
      </trkpt>
      <trkpt lat="46.29975" lon="6.13964">
        <ele>439.9</ele>
      </trkpt>
      <trkpt lat="46.3009" lon="6.14072">
        <ele>444.1</ele>
      </trkpt>
      <trkpt lat="46.30106" lon="6.14084">
        <ele>444.9</ele>
      </trkpt>
      <trkpt lat="46.30117" lon="6.14089">
        <ele>445.9</ele>
      </trkpt>
      <trkpt lat="46.30126" lon="6.1409">
        <ele>446.6</ele>
      </trkpt>
      <trkpt lat="46.30129" lon="6.1409">
        <ele>446.8</ele>
      </trkpt>
      <trkpt lat="46.30143" lon="6.1409">
        <ele>447.9</ele>
      </trkpt>
      <trkpt lat="46.30206" lon="6.1408">
        <ele>452.1</ele>
      </trkpt>
      <trkpt lat="46.30289" lon="6.1406">
        <ele>453.2</ele>
      </trkpt>
      <trkpt lat="46.30306" lon="6.14059">
        <ele>453.3</ele>
      </trkpt>
      <trkpt lat="46.30335" lon="6.14066">
        <ele>453.5</ele>
      </trkpt>
      <trkpt lat="46.30401" lon="6.14098">
        <ele>453.9</ele>
      </trkpt>
      <trkpt lat="46.30424" lon="6.14105">
        <ele>453.2</ele>
      </trkpt>
      <trkpt lat="46.3044" lon="6.14102">
        <ele>453.1</ele>
      </trkpt>
      <trkpt lat="46.30459" lon="6.14083">
        <ele>450.5</ele>
      </trkpt>
      <trkpt lat="46.30469" lon="6.14069">
        <ele>450.3</ele>
      </trkpt>
      <trkpt lat="46.30479" lon="6.14074">
        <ele>450.2</ele>
      </trkpt>
      <trkpt lat="46.30483" lon="6.14075">
        <ele>450.2</ele>
        <extensions>
          <visugpx:TrkExtension xmlns:visugpx="https://www.visugpx.com/editgpx/">
            <visugpx:node>3</visugpx:node>
            </visugpx:TrkExtension>
        </extensions>
      </trkpt>
      <trkpt lat="46.30616" lon="6.14118">
        <ele>452.6</ele>
      </trkpt>
      <trkpt lat="46.30744" lon="6.1414">
        <ele>453.1</ele>
      </trkpt>
      <trkpt lat="46.30766" lon="6.1414">
        <ele>454.1</ele>
        <extensions>
          <visugpx:TrkExtension xmlns:visugpx="https://www.visugpx.com/editgpx/">
            <visugpx:node>61</visugpx:node>
            </visugpx:TrkExtension>
        </extensions>
      </trkpt>
      <trkpt lat="46.30842" lon="6.1414">
        <ele>456.9</ele>
      </trkpt>
      <trkpt lat="46.3088" lon="6.14143">
        <ele>457.5</ele>
      </trkpt>
      <trkpt lat="46.30916" lon="6.14156">
        <ele>458.5</ele>
        <extensions>
          <visugpx:TrkExtension xmlns:visugpx="https://www.visugpx.com/editgpx/">
            <visugpx:node>62</visugpx:node>
            </visugpx:TrkExtension>
        </extensions>
      </trkpt>
      <trkpt lat="46.30997" lon="6.14189">
        <ele>457.6</ele>
        <extensions>
          <visugpx:TrkExtension xmlns:visugpx="https://www.visugpx.com/editgpx/">
            <visugpx:node>63</visugpx:node>
            </visugpx:TrkExtension>
        </extensions>
      </trkpt>
      <trkpt lat="46.31" lon="6.14188">
        <ele>456.7</ele>
      </trkpt>
      <trkpt lat="46.31006" lon="6.14184">
        <ele>456.6</ele>
      </trkpt>
      <trkpt lat="46.31012" lon="6.14177">
        <ele>456.5</ele>
      </trkpt>
      <trkpt lat="46.31007" lon="6.14171">
        <ele>456.3</ele>
      </trkpt>
      <trkpt lat="46.31002" lon="6.14159">
        <ele>456.4</ele>
      </trkpt>
      <trkpt lat="46.31002" lon="6.14148">
        <ele>456.7</ele>
      </trkpt>
      <trkpt lat="46.31005" lon="6.14133">
        <ele>457.1</ele>
      </trkpt>
      <trkpt lat="46.31013" lon="6.14123">
        <ele>457.4</ele>
      </trkpt>
      <trkpt lat="46.31022" lon="6.14099">
        <ele>457.8</ele>
      </trkpt>
      <trkpt lat="46.31032" lon="6.14097">
        <ele>457.7</ele>
      </trkpt>
      <trkpt lat="46.31035" lon="6.14099">
        <ele>457.7</ele>
        <extensions>
          <visugpx:TrkExtension xmlns:visugpx="https://www.visugpx.com/editgpx/">
            <visugpx:node>64</visugpx:node>
            </visugpx:TrkExtension>
        </extensions>
      </trkpt>
      <trkpt lat="46.3104" lon="6.14103">
        <ele>457.6</ele>
      </trkpt>
      <trkpt lat="46.31044" lon="6.14115">
        <ele>457.4</ele>
      </trkpt>
      <trkpt lat="46.31052" lon="6.14122">
        <ele>457.3</ele>
      </trkpt>
      <trkpt lat="46.31062" lon="6.14124">
        <ele>457.2</ele>
      </trkpt>
      <trkpt lat="46.31087" lon="6.14111">
        <ele>458.1</ele>
      </trkpt>
      <trkpt lat="46.31103" lon="6.14084">
        <ele>458.3</ele>
      </trkpt>
      <trkpt lat="46.31112" lon="6.14078">
        <ele>459.4</ele>
      </trkpt>
      <trkpt lat="46.31128" lon="6.14062">
        <ele>459.8</ele>
      </trkpt>
      <trkpt lat="46.31134" lon="6.1406">
        <ele>459.8</ele>
      </trkpt>
      <trkpt lat="46.31143" lon="6.14041">
        <ele>459.9</ele>
      </trkpt>
      <trkpt lat="46.31149" lon="6.14007">
        <ele>459.7</ele>
      </trkpt>
      <trkpt lat="46.31159" lon="6.13953">
        <ele>461.1</ele>
      </trkpt>
      <trkpt lat="46.31162" lon="6.13957">
        <ele>461</ele>
        <extensions>
          <visugpx:TrkExtension xmlns:visugpx="https://www.visugpx.com/editgpx/">
            <visugpx:node>65</visugpx:node>
            </visugpx:TrkExtension>
        </extensions>
      </trkpt>
      <trkpt lat="46.3122" lon="6.14014">
        <ele>459</ele>
      </trkpt>
      <trkpt lat="46.31245" lon="6.1404">
        <ele>458.8</ele>
        <extensions>
          <visugpx:TrkExtension xmlns:visugpx="https://www.visugpx.com/editgpx/">
            <visugpx:node>66</visugpx:node>
            </visugpx:TrkExtension>
        </extensions>
      </trkpt>
      <trkpt lat="46.31247" lon="6.14042">
        <ele>458.8</ele>
      </trkpt>
      <trkpt lat="46.31255" lon="6.1405">
        <ele>457.5</ele>
      </trkpt>
      <trkpt lat="46.31271" lon="6.14019">
        <ele>457.6</ele>
      </trkpt>
      <trkpt lat="46.3129" lon="6.1398">
        <ele>457.9</ele>
      </trkpt>
      <trkpt lat="46.31317" lon="6.13926">
        <ele>457.6</ele>
      </trkpt>
      <trkpt lat="46.31343" lon="6.13873">
        <ele>456.5</ele>
      </trkpt>
      <trkpt lat="46.3141" lon="6.13735">
        <ele>457.8</ele>
        <extensions>
          <visugpx:TrkExtension xmlns:visugpx="https://www.visugpx.com/editgpx/">
            <visugpx:node>67</visugpx:node>
            </visugpx:TrkExtension>
        </extensions>
      </trkpt>
      <trkpt lat="46.31414" lon="6.13727">
        <ele>457.9</ele>
      </trkpt>
      <trkpt lat="46.31379" lon="6.13694">
        <ele>458.6</ele>
      </trkpt>
      <trkpt lat="46.31101" lon="6.13435">
        <ele>457.3</ele>
      </trkpt>
      <trkpt lat="46.31046" lon="6.13384">
        <ele>458.9</ele>
      </trkpt>
      <trkpt lat="46.3104" lon="6.13379">
        <ele>459.1</ele>
      </trkpt>
      <trkpt lat="46.31034" lon="6.13371">
        <ele>459.3</ele>
      </trkpt>
      <trkpt lat="46.31023" lon="6.13359">
        <ele>459.6</ele>
      </trkpt>
      <trkpt lat="46.31022" lon="6.13351">
        <ele>459.6</ele>
      </trkpt>
      <trkpt lat="46.31019" lon="6.13341">
        <ele>459.8</ele>
      </trkpt>
      <trkpt lat="46.30947" lon="6.13272">
        <ele>458.7</ele>
      </trkpt>
      <trkpt lat="46.30944" lon="6.13269">
        <ele>458.6</ele>
      </trkpt>
      <trkpt lat="46.30939" lon="6.13271">
        <ele>458.6</ele>
        <extensions>
          <visugpx:TrkExtension xmlns:visugpx="https://www.visugpx.com/editgpx/">
            <visugpx:node>69</visugpx:node>
            </visugpx:TrkExtension>
        </extensions>
      </trkpt>
      <trkpt lat="46.30894" lon="6.13215">
        <ele>455.8</ele>
        <extensions>
          <visugpx:TrkExtension xmlns:visugpx="https://www.visugpx.com/editgpx/">
            <visugpx:node>71</visugpx:node>
            </visugpx:TrkExtension>
        </extensions>
      </trkpt>
      <trkpt lat="46.30898" lon="6.13218">
        <ele>455.8</ele>
      </trkpt>
      <trkpt lat="46.30902" lon="6.13217">
        <ele>455.9</ele>
      </trkpt>
      <trkpt lat="46.30906" lon="6.13213">
        <ele>455.9</ele>
      </trkpt>
      <trkpt lat="46.31033" lon="6.12927">
        <ele>463.5</ele>
      </trkpt>
      <trkpt lat="46.31052" lon="6.12886">
        <ele>464.6</ele>
      </trkpt>
      <trkpt lat="46.31069" lon="6.12849">
        <ele>465.1</ele>
      </trkpt>
      <trkpt lat="46.31073" lon="6.12842">
        <ele>465.4</ele>
      </trkpt>
      <trkpt lat="46.31075" lon="6.12838">
        <ele>465.5</ele>
      </trkpt>
      <trkpt lat="46.3109" lon="6.12804">
        <ele>465.9</ele>
      </trkpt>
      <trkpt lat="46.31101" lon="6.12782">
        <ele>465.8</ele>
      </trkpt>
      <trkpt lat="46.31116" lon="6.1275">
        <ele>465.7</ele>
        <extensions>
          <visugpx:TrkExtension xmlns:visugpx="https://www.visugpx.com/editgpx/">
            <visugpx:node>72</visugpx:node>
            </visugpx:TrkExtension>
        </extensions>
      </trkpt>
      <trkpt lat="46.31135" lon="6.12711">
        <ele>465.3</ele>
      </trkpt>
      <trkpt lat="46.31188" lon="6.1259">
        <ele>464.9</ele>
      </trkpt>
      <trkpt lat="46.31244" lon="6.12467">
        <ele>464.7</ele>
        <extensions>
          <visugpx:TrkExtension xmlns:visugpx="https://www.visugpx.com/editgpx/">
            <visugpx:node>73</visugpx:node>
            </visugpx:TrkExtension>
        </extensions>
      </trkpt>
      <trkpt lat="46.31261" lon="6.12428">
        <ele>465.2</ele>
      </trkpt>
      <trkpt lat="46.31293" lon="6.12361">
        <ele>465.5</ele>
      </trkpt>
      <trkpt lat="46.31345" lon="6.12259">
        <ele>465</ele>
      </trkpt>
      <trkpt lat="46.31349" lon="6.12252">
        <ele>464.9</ele>
      </trkpt>
      <trkpt lat="46.31347" lon="6.12248">
        <ele>464.3</ele>
        <extensions>
          <visugpx:TrkExtension xmlns:visugpx="https://www.visugpx.com/editgpx/">
            <visugpx:node>74</visugpx:node>
            </visugpx:TrkExtension>
        </extensions>
      </trkpt>
      <trkpt lat="46.31332" lon="6.12226">
        <ele>465</ele>
      </trkpt>
      <trkpt lat="46.31283" lon="6.12153">
        <ele>464.1</ele>
      </trkpt>
      <trkpt lat="46.31269" lon="6.12137">
        <ele>463.9</ele>
      </trkpt>
      <trkpt lat="46.31247" lon="6.12121">
        <ele>463.1</ele>
      </trkpt>
      <trkpt lat="46.31199" lon="6.12097">
        <ele>462.4</ele>
      </trkpt>
      <trkpt lat="46.31166" lon="6.12078">
        <ele>460.9</ele>
      </trkpt>
      <trkpt lat="46.31163" lon="6.12075">
        <ele>460.9</ele>
      </trkpt>
      <trkpt lat="46.31157" lon="6.12068">
        <ele>460.8</ele>
      </trkpt>
      <trkpt lat="46.31146" lon="6.12052">
        <ele>460.7</ele>
      </trkpt>
      <trkpt lat="46.31148" lon="6.12049">
        <ele>460.7</ele>
        <extensions>
          <visugpx:TrkExtension xmlns:visugpx="https://www.visugpx.com/editgpx/">
            <visugpx:node>75</visugpx:node>
            </visugpx:TrkExtension>
        </extensions>
      </trkpt>
      <trkpt lat="46.31162" lon="6.12021">
        <ele>460</ele>
      </trkpt>
      <trkpt lat="46.31156" lon="6.12015">
        <ele>459.9</ele>
        <extensions>
          <visugpx:TrkExtension xmlns:visugpx="https://www.visugpx.com/editgpx/">
            <visugpx:node>76</visugpx:node>
            </visugpx:TrkExtension>
        </extensions>
      </trkpt>
      <trkpt lat="46.31152" lon="6.1201">
        <ele>459.9</ele>
      </trkpt>
      <trkpt lat="46.31124" lon="6.12024">
        <ele>460.6</ele>
      </trkpt>
      <trkpt lat="46.31088" lon="6.12022">
        <ele>460.9</ele>
      </trkpt>
      <trkpt lat="46.31069" lon="6.12005">
        <ele>460.5</ele>
      </trkpt>
      <trkpt lat="46.31061" lon="6.12001">
        <ele>460.3</ele>
      </trkpt>
      <trkpt lat="46.31052" lon="6.11984">
        <ele>459.5</ele>
      </trkpt>
      <trkpt lat="46.31047" lon="6.11981">
        <ele>459.4</ele>
        <extensions>
          <visugpx:TrkExtension xmlns:visugpx="https://www.visugpx.com/editgpx/">
            <visugpx:node>77</visugpx:node>
            </visugpx:TrkExtension>
        </extensions>
      </trkpt>
      <trkpt lat="46.31044" lon="6.1198">
        <ele>459.4</ele>
      </trkpt>
      <trkpt lat="46.31025" lon="6.11997">
        <ele>458.9</ele>
      </trkpt>
      <trkpt lat="46.30982" lon="6.12025">
        <ele>458</ele>
      </trkpt>
      <trkpt lat="46.30982" lon="6.12028">
        <ele>458</ele>
      </trkpt>
      <trkpt lat="46.30975" lon="6.12034">
        <ele>458</ele>
      </trkpt>
      <trkpt lat="46.30961" lon="6.12037">
        <ele>458</ele>
      </trkpt>
      <trkpt lat="46.30956" lon="6.12031">
        <ele>457.9</ele>
      </trkpt>
      <trkpt lat="46.30949" lon="6.12016">
        <ele>457.8</ele>
        <extensions>
          <visugpx:TrkExtension xmlns:visugpx="https://www.visugpx.com/editgpx/">
            <visugpx:node>78</visugpx:node>
            </visugpx:TrkExtension>
        </extensions>
      </trkpt>
      <trkpt lat="46.30946" lon="6.1201">
        <ele>457.7</ele>
      </trkpt>
      <trkpt lat="46.30941" lon="6.12006">
        <ele>457.6</ele>
      </trkpt>
      <trkpt lat="46.30935" lon="6.12005">
        <ele>457.5</ele>
      </trkpt>
      <trkpt lat="46.30891" lon="6.1201">
        <ele>456.6</ele>
      </trkpt>
      <trkpt lat="46.30865" lon="6.12009">
        <ele>456.1</ele>
      </trkpt>
      <trkpt lat="46.30838" lon="6.12001">
        <ele>455.3</ele>
      </trkpt>
      <trkpt lat="46.30832" lon="6.11996">
        <ele>454.9</ele>
      </trkpt>
      <trkpt lat="46.30826" lon="6.11986">
        <ele>454.7</ele>
      </trkpt>
      <trkpt lat="46.30811" lon="6.11965">
        <ele>454.5</ele>
      </trkpt>
      <trkpt lat="46.30803" lon="6.11961">
        <ele>454.5</ele>
      </trkpt>
      <trkpt lat="46.30798" lon="6.11955">
        <ele>454.5</ele>
      </trkpt>
      <trkpt lat="46.30794" lon="6.11943">
        <ele>454.5</ele>
      </trkpt>
      <trkpt lat="46.3079" lon="6.11943">
        <ele>454.5</ele>
      </trkpt>
      <trkpt lat="46.30787" lon="6.11945">
        <ele>454.5</ele>
        <extensions>
          <visugpx:TrkExtension xmlns:visugpx="https://www.visugpx.com/editgpx/">
            <visugpx:node>79</visugpx:node>
            </visugpx:TrkExtension>
        </extensions>
      </trkpt>
      <trkpt lat="46.30778" lon="6.1195">
        <ele>454.5</ele>
      </trkpt>
      <trkpt lat="46.30766" lon="6.1201">
        <ele>454.5</ele>
      </trkpt>
      <trkpt lat="46.30762" lon="6.12049">
        <ele>454.9</ele>
      </trkpt>
      <trkpt lat="46.30751" lon="6.12065">
        <ele>455</ele>
      </trkpt>
      <trkpt lat="46.30749" lon="6.12066">
        <ele>455.5</ele>
        <extensions>
          <visugpx:TrkExtension xmlns:visugpx="https://www.visugpx.com/editgpx/">
            <visugpx:node>80</visugpx:node>
            </visugpx:TrkExtension>
        </extensions>
      </trkpt>
      <trkpt lat="46.30743" lon="6.12071">
        <ele>455.5</ele>
      </trkpt>
      <trkpt lat="46.30732" lon="6.12074">
        <ele>455.8</ele>
      </trkpt>
      <trkpt lat="46.30725" lon="6.12074">
        <ele>456</ele>
      </trkpt>
      <trkpt lat="46.30711" lon="6.12079">
        <ele>456.6</ele>
      </trkpt>
      <trkpt lat="46.30706" lon="6.12082">
        <ele>456.9</ele>
      </trkpt>
      <trkpt lat="46.30699" lon="6.1209">
        <ele>459.3</ele>
      </trkpt>
      <trkpt lat="46.30698" lon="6.12106">
        <ele>459.4</ele>
      </trkpt>
      <trkpt lat="46.30693" lon="6.12108">
        <ele>459.5</ele>
      </trkpt>
      <trkpt lat="46.30691" lon="6.12109">
        <ele>459.6</ele>
      </trkpt>
      <trkpt lat="46.30671" lon="6.12095">
        <ele>460.3</ele>
      </trkpt>
      <trkpt lat="46.30657" lon="6.12095">
        <ele>462.9</ele>
      </trkpt>
      <trkpt lat="46.30654" lon="6.12094">
        <ele>463</ele>
        <extensions>
          <visugpx:TrkExtension xmlns:visugpx="https://www.visugpx.com/editgpx/">
            <visugpx:node>81</visugpx:node>
            </visugpx:TrkExtension>
        </extensions>
      </trkpt>
      <trkpt lat="46.30625" lon="6.12086">
        <ele>464.8</ele>
      </trkpt>
      <trkpt lat="46.30598" lon="6.12069">
        <ele>463</ele>
      </trkpt>
      <trkpt lat="46.30591" lon="6.12049">
        <ele>461.5</ele>
      </trkpt>
      <trkpt lat="46.30586" lon="6.1204">
        <ele>460.8</ele>
      </trkpt>
      <trkpt lat="46.30586" lon="6.12035">
        <ele>460.4</ele>
      </trkpt>
      <trkpt lat="46.30595" lon="6.12009">
        <ele>458.9</ele>
      </trkpt>
      <trkpt lat="46.30593" lon="6.11995">
        <ele>456.8</ele>
        <extensions>
          <visugpx:TrkExtension xmlns:visugpx="https://www.visugpx.com/editgpx/">
            <visugpx:node>82</visugpx:node>
            </visugpx:TrkExtension>
        </extensions>
      </trkpt>
      <trkpt lat="46.30593" lon="6.1199">
        <ele>456.6</ele>
      </trkpt>
      <trkpt lat="46.30588" lon="6.1198">
        <ele>456.1</ele>
      </trkpt>
      <trkpt lat="46.30582" lon="6.11973">
        <ele>457.4</ele>
      </trkpt>
      <trkpt lat="46.30557" lon="6.11955">
        <ele>457.2</ele>
      </trkpt>
      <trkpt lat="46.30542" lon="6.11958">
        <ele>457.5</ele>
      </trkpt>
      <trkpt lat="46.30535" lon="6.11964">
        <ele>457.7</ele>
      </trkpt>
      <trkpt lat="46.30534" lon="6.1198">
        <ele>458</ele>
      </trkpt>
      <trkpt lat="46.30538" lon="6.11994">
        <ele>458.1</ele>
      </trkpt>
      <trkpt lat="46.30532" lon="6.12017">
        <ele>461.8</ele>
      </trkpt>
      <trkpt lat="46.30528" lon="6.12025">
        <ele>462.1</ele>
      </trkpt>
      <trkpt lat="46.3052" lon="6.12034">
        <ele>462.4</ele>
      </trkpt>
      <trkpt lat="46.30502" lon="6.1204">
        <ele>462.7</ele>
      </trkpt>
      <trkpt lat="46.30494" lon="6.12038">
        <ele>463.1</ele>
      </trkpt>
      <trkpt lat="46.30486" lon="6.1204">
        <ele>463.3</ele>
      </trkpt>
      <trkpt lat="46.30473" lon="6.12037">
        <ele>463.2</ele>
      </trkpt>
      <trkpt lat="46.30462" lon="6.12026">
        <ele>462.9</ele>
      </trkpt>
      <trkpt lat="46.30448" lon="6.12001">
        <ele>462.4</ele>
      </trkpt>
      <trkpt lat="46.30447" lon="6.11996">
        <ele>459.5</ele>
      </trkpt>
      <trkpt lat="46.3044" lon="6.11981">
        <ele>459.4</ele>
      </trkpt>
      <trkpt lat="46.30432" lon="6.11978">
        <ele>459.4</ele>
        <extensions>
          <visugpx:TrkExtension xmlns:visugpx="https://www.visugpx.com/editgpx/">
            <visugpx:node>83</visugpx:node>
            </visugpx:TrkExtension>
        </extensions>
      </trkpt>
      <trkpt lat="46.30418" lon="6.11976">
        <ele>459.4</ele>
      </trkpt>
      <trkpt lat="46.30407" lon="6.11985">
        <ele>460.5</ele>
      </trkpt>
      <trkpt lat="46.30396" lon="6.12001">
        <ele>464.1</ele>
      </trkpt>
      <trkpt lat="46.30384" lon="6.12014">
        <ele>465.4</ele>
      </trkpt>
      <trkpt lat="46.30373" lon="6.12012">
        <ele>465.8</ele>
      </trkpt>
      <trkpt lat="46.30356" lon="6.11995">
        <ele>462.4</ele>
      </trkpt>
      <trkpt lat="46.30355" lon="6.1199">
        <ele>462.3</ele>
        <extensions>
          <visugpx:TrkExtension xmlns:visugpx="https://www.visugpx.com/editgpx/">
            <visugpx:node>84</visugpx:node>
            </visugpx:TrkExtension>
        </extensions>
      </trkpt>
      <trkpt lat="46.30345" lon="6.11957">
        <ele>460.4</ele>
      </trkpt>
      <trkpt lat="46.30336" lon="6.11931">
        <ele>458.5</ele>
      </trkpt>
      <trkpt lat="46.30315" lon="6.11936">
        <ele>461.4</ele>
        <extensions>
          <visugpx:TrkExtension xmlns:visugpx="https://www.visugpx.com/editgpx/">
            <visugpx:node>86</visugpx:node>
            </visugpx:TrkExtension>
        </extensions>
      </trkpt>
      <trkpt lat="46.30302" lon="6.11942">
        <ele>462.4</ele>
      </trkpt>
      <trkpt lat="46.30304" lon="6.11938">
        <ele>462.1</ele>
      </trkpt>
      <trkpt lat="46.30282" lon="6.11943">
        <ele>463.2</ele>
      </trkpt>
      <trkpt lat="46.3027" lon="6.11943">
        <ele>463.4</ele>
      </trkpt>
      <trkpt lat="46.30233" lon="6.11956">
        <ele>465.8</ele>
      </trkpt>
      <trkpt lat="46.30212" lon="6.11972">
        <ele>466.1</ele>
      </trkpt>
      <trkpt lat="46.30195" lon="6.11976">
        <ele>466</ele>
      </trkpt>
      <trkpt lat="46.30184" lon="6.11982">
        <ele>465.8</ele>
      </trkpt>
      <trkpt lat="46.30162" lon="6.12006">
        <ele>464.9</ele>
      </trkpt>
      <trkpt lat="46.30151" lon="6.1203">
        <ele>464.7</ele>
      </trkpt>
      <trkpt lat="46.30121" lon="6.12052">
        <ele>464.1</ele>
      </trkpt>
      <trkpt lat="46.3012" lon="6.12056">
        <ele>464.1</ele>
      </trkpt>
      <trkpt lat="46.30121" lon="6.12065">
        <ele>464</ele>
      </trkpt>
      <trkpt lat="46.30109" lon="6.12079">
        <ele>463.3</ele>
      </trkpt>
      <trkpt lat="46.3011" lon="6.12092">
        <ele>464.3</ele>
      </trkpt>
      <trkpt lat="46.30108" lon="6.12097">
        <ele>464.3</ele>
      </trkpt>
      <trkpt lat="46.30098" lon="6.12107">
        <ele>464.1</ele>
      </trkpt>
      <trkpt lat="46.30098" lon="6.12107">
        <ele>464.1</ele>
        <extensions>
          <visugpx:TrkExtension xmlns:visugpx="https://www.visugpx.com/editgpx/">
            <visugpx:node>32</visugpx:node>
            </visugpx:TrkExtension>
        </extensions>
      </trkpt>
      <trkpt lat="46.30104" lon="6.12136">
        <ele>465.2</ele>
      </trkpt>
      <trkpt lat="46.30083" lon="6.12143">
        <ele>462.2</ele>
      </trkpt>
      <trkpt lat="46.30078" lon="6.12146">
        <ele>462.3</ele>
      </trkpt>
      <trkpt lat="46.30065" lon="6.12148">
        <ele>462</ele>
      </trkpt>
      <trkpt lat="46.30009" lon="6.12177">
        <ele>462.5</ele>
      </trkpt>
      <trkpt lat="46.3" lon="6.12183">
        <ele>462.5</ele>
      </trkpt>
      <trkpt lat="46.29994" lon="6.12185">
        <ele>462.8</ele>
        <extensions>
          <visugpx:TrkExtension xmlns:visugpx="https://www.visugpx.com/editgpx/">
            <visugpx:node>33</visugpx:node>
            </visugpx:TrkExtension>
        </extensions>
      </trkpt>
      <trkpt lat="46.29959" lon="6.12192">
        <ele>464.1</ele>
      </trkpt>
      <trkpt lat="46.29903" lon="6.12191">
        <ele>465.8</ele>
      </trkpt>
      <trkpt lat="46.29896" lon="6.12181">
        <ele>465.5</ele>
      </trkpt>
      <trkpt lat="46.29887" lon="6.12173">
        <ele>466</ele>
      </trkpt>
      <trkpt lat="46.29876" lon="6.12159">
        <ele>464.1</ele>
      </trkpt>
      <trkpt lat="46.29872" lon="6.12149">
        <ele>464.2</ele>
      </trkpt>
      <trkpt lat="46.29846" lon="6.12102">
        <ele>463.2</ele>
      </trkpt>
      <trkpt lat="46.29844" lon="6.1209">
        <ele>462.7</ele>
      </trkpt>
      <trkpt lat="46.2983" lon="6.12058">
        <ele>461.5</ele>
      </trkpt>
      <trkpt lat="46.29825" lon="6.12045">
        <ele>461.4</ele>
      </trkpt>
      <trkpt lat="46.2982" lon="6.12045">
        <ele>461.3</ele>
        <extensions>
          <visugpx:TrkExtension xmlns:visugpx="https://www.visugpx.com/editgpx/">
            <visugpx:node>34</visugpx:node>
            </visugpx:TrkExtension>
        </extensions>
      </trkpt>
      <trkpt lat="46.298" lon="6.12047">
        <ele>461.3</ele>
      </trkpt>
      <trkpt lat="46.29775" lon="6.12041">
        <ele>461.2</ele>
      </trkpt>
      <trkpt lat="46.29763" lon="6.12043">
        <ele>461.2</ele>
      </trkpt>
      <trkpt lat="46.29748" lon="6.12063">
        <ele>460.9</ele>
      </trkpt>
      <trkpt lat="46.29734" lon="6.12087">
        <ele>463.1</ele>
      </trkpt>
      <trkpt lat="46.29724" lon="6.12101">
        <ele>464.3</ele>
        <extensions>
          <visugpx:TrkExtension xmlns:visugpx="https://www.visugpx.com/editgpx/">
            <visugpx:node>35</visugpx:node>
            </visugpx:TrkExtension>
        </extensions>
      </trkpt>
      <trkpt lat="46.29722" lon="6.12105">
        <ele>464.5</ele>
      </trkpt>
      <trkpt lat="46.29705" lon="6.12103">
        <ele>464.5</ele>
      </trkpt>
      <trkpt lat="46.29695" lon="6.12097">
        <ele>464.2</ele>
      </trkpt>
      <trkpt lat="46.29681" lon="6.12081">
        <ele>461.4</ele>
      </trkpt>
      <trkpt lat="46.29668" lon="6.12061">
        <ele>461.1</ele>
      </trkpt>
      <trkpt lat="46.29659" lon="6.12054">
        <ele>461.6</ele>
      </trkpt>
      <trkpt lat="46.29651" lon="6.12033">
        <ele>461.1</ele>
      </trkpt>
      <trkpt lat="46.29646" lon="6.12029">
        <ele>461.1</ele>
      </trkpt>
      <trkpt lat="46.29638" lon="6.12007">
        <ele>460.7</ele>
      </trkpt>
      <trkpt lat="46.29625" lon="6.11937">
        <ele>458</ele>
      </trkpt>
      <trkpt lat="46.29613" lon="6.11899">
        <ele>458.6</ele>
      </trkpt>
      <trkpt lat="46.29598" lon="6.11886">
        <ele>458.6</ele>
      </trkpt>
      <trkpt lat="46.29578" lon="6.11882">
        <ele>456.5</ele>
      </trkpt>
      <trkpt lat="46.29557" lon="6.11881">
        <ele>456.7</ele>
      </trkpt>
      <trkpt lat="46.29535" lon="6.11893">
        <ele>456</ele>
      </trkpt>
      <trkpt lat="46.29517" lon="6.11927">
        <ele>454.1</ele>
      </trkpt>
      <trkpt lat="46.29508" lon="6.1196">
        <ele>455.9</ele>
      </trkpt>
      <trkpt lat="46.29497" lon="6.11989">
        <ele>457.3</ele>
      </trkpt>
      <trkpt lat="46.29478" lon="6.11999">
        <ele>456.4</ele>
      </trkpt>
      <trkpt lat="46.29472" lon="6.11996">
        <ele>456</ele>
      </trkpt>
      <trkpt lat="46.29445" lon="6.11993">
        <ele>454.9</ele>
      </trkpt>
      <trkpt lat="46.29415" lon="6.1199">
        <ele>454</ele>
      </trkpt>
      <trkpt lat="46.29402" lon="6.11976">
        <ele>453.9</ele>
      </trkpt>
      <trkpt lat="46.29393" lon="6.11971">
        <ele>453.9</ele>
      </trkpt>
      <trkpt lat="46.2939" lon="6.11968">
        <ele>453.9</ele>
        <extensions>
          <visugpx:TrkExtension xmlns:visugpx="https://www.visugpx.com/editgpx/">
            <visugpx:node>36</visugpx:node>
            </visugpx:TrkExtension>
        </extensions>
      </trkpt>
      <trkpt lat="46.29368" lon="6.11951">
        <ele>454.1</ele>
      </trkpt>
      <trkpt lat="46.29338" lon="6.11951">
        <ele>454.2</ele>
      </trkpt>
      <trkpt lat="46.29325" lon="6.11965">
        <ele>453.3</ele>
      </trkpt>
      <trkpt lat="46.29318" lon="6.11978">
        <ele>453</ele>
      </trkpt>
      <trkpt lat="46.29312" lon="6.12023">
        <ele>451.5</ele>
        <extensions>
          <visugpx:TrkExtension xmlns:visugpx="https://www.visugpx.com/editgpx/">
            <visugpx:node>37</visugpx:node>
            </visugpx:TrkExtension>
        </extensions>
      </trkpt>
      <trkpt lat="46.29311" lon="6.12027">
        <ele>451.5</ele>
      </trkpt>
      <trkpt lat="46.29315" lon="6.12043">
        <ele>451.4</ele>
      </trkpt>
      <trkpt lat="46.29314" lon="6.1205">
        <ele>451.4</ele>
      </trkpt>
      <trkpt lat="46.29311" lon="6.12063">
        <ele>451.4</ele>
      </trkpt>
      <trkpt lat="46.29308" lon="6.1208">
        <ele>451.3</ele>
      </trkpt>
      <trkpt lat="46.29299" lon="6.12099">
        <ele>451.4</ele>
      </trkpt>
      <trkpt lat="46.29295" lon="6.12114">
        <ele>451.5</ele>
      </trkpt>
      <trkpt lat="46.29297" lon="6.12143">
        <ele>452</ele>
      </trkpt>
      <trkpt lat="46.29291" lon="6.12189">
        <ele>454.8</ele>
      </trkpt>
      <trkpt lat="46.29291" lon="6.1219">
        <ele>454.8</ele>
        <extensions>
          <visugpx:TrkExtension xmlns:visugpx="https://www.visugpx.com/editgpx/">
            <visugpx:node>38</visugpx:node>
            </visugpx:TrkExtension>
        </extensions>
      </trkpt>
      <trkpt lat="46.29281" lon="6.12209">
        <ele>455.1</ele>
      </trkpt>
      <trkpt lat="46.29272" lon="6.12216">
        <ele>455.1</ele>
      </trkpt>
      <trkpt lat="46.29256" lon="6.12223">
        <ele>455.1</ele>
      </trkpt>
      <trkpt lat="46.29232" lon="6.1222">
        <ele>454.6</ele>
      </trkpt>
      <trkpt lat="46.29209" lon="6.12202">
        <ele>454.5</ele>
      </trkpt>
      <trkpt lat="46.29189" lon="6.12178">
        <ele>454.6</ele>
      </trkpt>
      <trkpt lat="46.2918" lon="6.12161">
        <ele>452.7</ele>
      </trkpt>
      <trkpt lat="46.29129" lon="6.12103">
        <ele>452.5</ele>
      </trkpt>
      <trkpt lat="46.29078" lon="6.12054">
        <ele>450.8</ele>
        <extensions>
          <visugpx:TrkExtension xmlns:visugpx="https://www.visugpx.com/editgpx/">
            <visugpx:node>39</visugpx:node>
            </visugpx:TrkExtension>
        </extensions>
      </trkpt>
      <trkpt lat="46.29071" lon="6.12048">
        <ele>450.7</ele>
      </trkpt>
      <trkpt lat="46.29057" lon="6.12046">
        <ele>450.5</ele>
      </trkpt>
      <trkpt lat="46.29042" lon="6.12057">
        <ele>450.3</ele>
      </trkpt>
      <trkpt lat="46.29036" lon="6.12059">
        <ele>450.2</ele>
      </trkpt>
      <trkpt lat="46.29015" lon="6.12076">
        <ele>449.7</ele>
      </trkpt>
      <trkpt lat="46.29001" lon="6.12098">
        <ele>450.7</ele>
      </trkpt>
      <trkpt lat="46.28984" lon="6.12137">
        <ele>448.7</ele>
      </trkpt>
      <trkpt lat="46.28976" lon="6.12149">
        <ele>448.7</ele>
      </trkpt>
      <trkpt lat="46.28975" lon="6.12151">
        <ele>448.7</ele>
      </trkpt>
      <trkpt lat="46.28972" lon="6.12156">
        <ele>448.6</ele>
      </trkpt>
      <trkpt lat="46.28969" lon="6.12166">
        <ele>448.5</ele>
        <extensions>
          <visugpx:TrkExtension xmlns:visugpx="https://www.visugpx.com/editgpx/">
            <visugpx:node>40</visugpx:node>
            </visugpx:TrkExtension>
        </extensions>
      </trkpt>
      <trkpt lat="46.28965" lon="6.12178">
        <ele>449</ele>
      </trkpt>
      <trkpt lat="46.28959" lon="6.12205">
        <ele>448.8</ele>
      </trkpt>
      <trkpt lat="46.28941" lon="6.12272">
        <ele>447.1</ele>
      </trkpt>
      <trkpt lat="46.28923" lon="6.12357">
        <ele>444.2</ele>
      </trkpt>
      <trkpt lat="46.28914" lon="6.12423">
        <ele>442.6</ele>
      </trkpt>
      <trkpt lat="46.28913" lon="6.12453">
        <ele>443.2</ele>
      </trkpt>
      <trkpt lat="46.28915" lon="6.12504">
        <ele>438.4</ele>
      </trkpt>
      <trkpt lat="46.28914" lon="6.12524">
        <ele>439.3</ele>
        <extensions>
          <visugpx:TrkExtension xmlns:visugpx="https://www.visugpx.com/editgpx/">
            <visugpx:node>94</visugpx:node>
            </visugpx:TrkExtension>
        </extensions>
      </trkpt>
      <trkpt lat="46.28909" lon="6.12539">
        <ele>439.4</ele>
      </trkpt>
      <trkpt lat="46.28908" lon="6.12544">
        <ele>439.3</ele>
      </trkpt>
      <trkpt lat="46.28905" lon="6.12544">
        <ele>439.3</ele>
      </trkpt>
      <trkpt lat="46.28888" lon="6.12549">
        <ele>439.9</ele>
      </trkpt>
      <trkpt lat="46.28882" lon="6.1255">
        <ele>440.2</ele>
      </trkpt>
      <trkpt lat="46.28878" lon="6.1255">
        <ele>440.4</ele>
      </trkpt>
      <trkpt lat="46.28857" lon="6.12548">
        <ele>441.5</ele>
      </trkpt>
      <trkpt lat="46.2884" lon="6.12546">
        <ele>442.1</ele>
      </trkpt>
      <trkpt lat="46.28825" lon="6.12544">
        <ele>445.8</ele>
      </trkpt>
      <trkpt lat="46.28793" lon="6.12537">
        <ele>446.3</ele>
      </trkpt>
      <trkpt lat="46.28779" lon="6.1253">
        <ele>446.5</ele>
      </trkpt>
      <trkpt lat="46.2877" lon="6.12521">
        <ele>446.6</ele>
      </trkpt>
      <trkpt lat="46.28753" lon="6.12501">
        <ele>446.9</ele>
      </trkpt>
      <trkpt lat="46.28741" lon="6.12486">
        <ele>446.3</ele>
        <extensions>
          <visugpx:TrkExtension xmlns:visugpx="https://www.visugpx.com/editgpx/">
            <visugpx:node>95</visugpx:node>
            </visugpx:TrkExtension>
        </extensions>
      </trkpt>
      <trkpt lat="46.28753" lon="6.12501">
        <ele>446.9</ele>
      </trkpt>
      <trkpt lat="46.28751" lon="6.12504">
        <ele>446.9</ele>
      </trkpt>
      <trkpt lat="46.28738" lon="6.12518">
        <ele>445.2</ele>
      </trkpt>
      <trkpt lat="46.28718" lon="6.12544">
        <ele>444.2</ele>
      </trkpt>
      <trkpt lat="46.28683" lon="6.126">
        <ele>443.5</ele>
      </trkpt>
      <trkpt lat="46.28642" lon="6.1266">
        <ele>441.1</ele>
      </trkpt>
      <trkpt lat="46.28618" lon="6.12687">
        <ele>440.6</ele>
      </trkpt>
      <trkpt lat="46.28571" lon="6.1271">
        <ele>438.2</ele>
      </trkpt>
      <trkpt lat="46.28541" lon="6.12728">
        <ele>438</ele>
      </trkpt>
      <trkpt lat="46.28537" lon="6.1273">
        <ele>438</ele>
        <extensions>
          <visugpx:TrkExtension xmlns:visugpx="https://www.visugpx.com/editgpx/">
            <visugpx:node>96</visugpx:node>
            </visugpx:TrkExtension>
        </extensions>
      </trkpt>
      <trkpt lat="46.28498" lon="6.12754">
        <ele>437.2</ele>
      </trkpt>
      <trkpt lat="46.28468" lon="6.12778">
        <ele>434.1</ele>
      </trkpt>
      <trkpt lat="46.28462" lon="6.12778">
        <ele>433.9</ele>
      </trkpt>
      <trkpt lat="46.28458" lon="6.12775">
        <ele>433.9</ele>
      </trkpt>
      <trkpt lat="46.28432" lon="6.12737">
        <ele>434</ele>
      </trkpt>
      <trkpt lat="46.28427" lon="6.12735">
        <ele>433.9</ele>
      </trkpt>
      <trkpt lat="46.28423" lon="6.12737">
        <ele>433.7</ele>
      </trkpt>
      <trkpt lat="46.28419" lon="6.12741">
        <ele>433.5</ele>
      </trkpt>
      <trkpt lat="46.28401" lon="6.12773">
        <ele>436.2</ele>
      </trkpt>
      <trkpt lat="46.28394" lon="6.12768">
        <ele>436.6</ele>
      </trkpt>
      <trkpt lat="46.28338" lon="6.12692">
        <ele>440.5</ele>
      </trkpt>
      <trkpt lat="46.28338" lon="6.12684">
        <ele>440.6</ele>
      </trkpt>
      <trkpt lat="46.28356" lon="6.12634">
        <ele>438.1</ele>
      </trkpt>
      <trkpt lat="46.28356" lon="6.12624">
        <ele>437.8</ele>
      </trkpt>
      <trkpt lat="46.28354" lon="6.12618">
        <ele>437.8</ele>
      </trkpt>
      <trkpt lat="46.28351" lon="6.12613">
        <ele>437.8</ele>
      </trkpt>
      <trkpt lat="46.2827" lon="6.12532">
        <ele>439.4</ele>
      </trkpt>
      <trkpt lat="46.28254" lon="6.12521">
        <ele>439</ele>
      </trkpt>
      <trkpt lat="46.28249" lon="6.12512">
        <ele>440.2</ele>
      </trkpt>
      <trkpt lat="46.28246" lon="6.12508">
        <ele>439.8</ele>
      </trkpt>
      <trkpt lat="46.28244" lon="6.12507">
        <ele>439.8</ele>
        <extensions>
          <visugpx:TrkExtension xmlns:visugpx="https://www.visugpx.com/editgpx/">
            <visugpx:node>97</visugpx:node>
            </visugpx:TrkExtension>
        </extensions>
      </trkpt>
      <trkpt lat="46.28246" lon="6.12508">
        <ele>439.8</ele>
      </trkpt>
      <trkpt lat="46.28249" lon="6.12512">
        <ele>440.2</ele>
      </trkpt>
      <trkpt lat="46.28244" lon="6.12522">
        <ele>441.5</ele>
      </trkpt>
      <trkpt lat="46.28223" lon="6.12583">
        <ele>444.5</ele>
      </trkpt>
      <trkpt lat="46.28202" lon="6.12626">
        <ele>447.3</ele>
      </trkpt>
      <trkpt lat="46.28177" lon="6.12669">
        <ele>447.6</ele>
      </trkpt>
      <trkpt lat="46.28146" lon="6.12715">
        <ele>445</ele>
      </trkpt>
      <trkpt lat="46.28138" lon="6.12734">
        <ele>444.6</ele>
      </trkpt>
      <trkpt lat="46.2819" lon="6.12784">
        <ele>445.4</ele>
      </trkpt>
      <trkpt lat="46.28232" lon="6.12818">
        <ele>445.7</ele>
      </trkpt>
      <trkpt lat="46.28252" lon="6.12838">
        <ele>445.2</ele>
      </trkpt>
      <trkpt lat="46.28268" lon="6.1286">
        <ele>442.8</ele>
      </trkpt>
      <trkpt lat="46.2827" lon="6.12864">
        <ele>442.5</ele>
        <extensions>
          <visugpx:TrkExtension xmlns:visugpx="https://www.visugpx.com/editgpx/">
            <visugpx:node>98</visugpx:node>
            </visugpx:TrkExtension>
        </extensions>
      </trkpt>
      <trkpt lat="46.28291" lon="6.12897">
        <ele>440.5</ele>
      </trkpt>
      <trkpt lat="46.283" lon="6.12909">
        <ele>439.3</ele>
      </trkpt>
      <trkpt lat="46.28305" lon="6.12913">
        <ele>438.5</ele>
      </trkpt>
      <trkpt lat="46.28316" lon="6.12922">
        <ele>434.2</ele>
      </trkpt>
      <trkpt lat="46.28326" lon="6.12929">
        <ele>433.6</ele>
      </trkpt>
      <trkpt lat="46.28391" lon="6.12961">
        <ele>424.2</ele>
      </trkpt>
      <trkpt lat="46.28425" lon="6.12972">
        <ele>420.5</ele>
      </trkpt>
      <trkpt lat="46.28443" lon="6.12973">
        <ele>420.7</ele>
        <extensions>
          <visugpx:TrkExtension xmlns:visugpx="https://www.visugpx.com/editgpx/">
            <visugpx:node>99</visugpx:node>
            </visugpx:TrkExtension>
        </extensions>
      </trkpt>
      <trkpt lat="46.28447" lon="6.12974">
        <ele>420.7</ele>
      </trkpt>
      <trkpt lat="46.28453" lon="6.12979">
        <ele>420.6</ele>
      </trkpt>
      <trkpt lat="46.28457" lon="6.12987">
        <ele>420.5</ele>
      </trkpt>
      <trkpt lat="46.28456" lon="6.12998">
        <ele>420.4</ele>
      </trkpt>
      <trkpt lat="46.28444" lon="6.13037">
        <ele>420</ele>
      </trkpt>
      <trkpt lat="46.28438" lon="6.13055">
        <ele>420</ele>
      </trkpt>
      <trkpt lat="46.28432" lon="6.13079">
        <ele>419.7</ele>
      </trkpt>
      <trkpt lat="46.28438" lon="6.13084">
        <ele>421.4</ele>
      </trkpt>
      <trkpt lat="46.2845" lon="6.13091">
        <ele>422.3</ele>
      </trkpt>
      <trkpt lat="46.28458" lon="6.13099">
        <ele>422.8</ele>
      </trkpt>
      <trkpt lat="46.28475" lon="6.13112">
        <ele>423.6</ele>
      </trkpt>
      <trkpt lat="46.28482" lon="6.13098">
        <ele>423.3</ele>
      </trkpt>
      <trkpt lat="46.28485" lon="6.13091">
        <ele>423.2</ele>
      </trkpt>
      <trkpt lat="46.28489" lon="6.13082">
        <ele>422</ele>
      </trkpt>
      <trkpt lat="46.28496" lon="6.13072">
        <ele>421.9</ele>
      </trkpt>
      <trkpt lat="46.28535" lon="6.13046">
        <ele>421.6</ele>
      </trkpt>
      <trkpt lat="46.28544" lon="6.13042">
        <ele>421.5</ele>
      </trkpt>
      <trkpt lat="46.28548" lon="6.13042">
        <ele>421.5</ele>
      </trkpt>
      <trkpt lat="46.28551" lon="6.13042">
        <ele>421.5</ele>
      </trkpt>
      <trkpt lat="46.28579" lon="6.13052">
        <ele>421.6</ele>
      </trkpt>
      <trkpt lat="46.28595" lon="6.13061">
        <ele>422.5</ele>
      </trkpt>
      <trkpt lat="46.28604" lon="6.13066">
        <ele>422.6</ele>
      </trkpt>
      <trkpt lat="46.28613" lon="6.13065">
        <ele>422.8</ele>
      </trkpt>
      <trkpt lat="46.28634" lon="6.13057">
        <ele>423.2</ele>
      </trkpt>
      <trkpt lat="46.28649" lon="6.13048">
        <ele>423.4</ele>
      </trkpt>
      <trkpt lat="46.28655" lon="6.13042">
        <ele>423.5</ele>
        <extensions>
          <visugpx:TrkExtension xmlns:visugpx="https://www.visugpx.com/editgpx/">
            <visugpx:node>100</visugpx:node>
            </visugpx:TrkExtension>
        </extensions>
      </trkpt>
      <trkpt lat="46.28683" lon="6.13014">
        <ele>425.7</ele>
      </trkpt>
      <trkpt lat="46.28711" lon="6.12981">
        <ele>428.1</ele>
      </trkpt>
      <trkpt lat="46.28725" lon="6.12971">
        <ele>428.5</ele>
      </trkpt>
      <trkpt lat="46.2875" lon="6.12961">
        <ele>431.6</ele>
      </trkpt>
      <trkpt lat="46.28782" lon="6.12961">
        <ele>432.4</ele>
      </trkpt>
      <trkpt lat="46.28805" lon="6.12954">
        <ele>433.3</ele>
        <extensions>
          <visugpx:TrkExtension xmlns:visugpx="https://www.visugpx.com/editgpx/">
            <visugpx:node>101</visugpx:node>
            </visugpx:TrkExtension>
        </extensions>
      </trkpt>
      <trkpt lat="46.28812" lon="6.12952">
        <ele>433.5</ele>
      </trkpt>
      <trkpt lat="46.28829" lon="6.12941">
        <ele>434.5</ele>
      </trkpt>
      <trkpt lat="46.2886" lon="6.12913">
        <ele>438.4</ele>
      </trkpt>
      <trkpt lat="46.28885" lon="6.12884">
        <ele>439.1</ele>
      </trkpt>
      <trkpt lat="46.28899" lon="6.12862">
        <ele>439</ele>
      </trkpt>
      <trkpt lat="46.28912" lon="6.12824">
        <ele>438.7</ele>
      </trkpt>
      <trkpt lat="46.28923" lon="6.12803">
        <ele>439.6</ele>
      </trkpt>
      <trkpt lat="46.28943" lon="6.12772">
        <ele>439.8</ele>
      </trkpt>
      <trkpt lat="46.28956" lon="6.12742">
        <ele>439.6</ele>
      </trkpt>
      <trkpt lat="46.28973" lon="6.12707">
        <ele>439.8</ele>
      </trkpt>
      <trkpt lat="46.28981" lon="6.12703">
        <ele>439.9</ele>
      </trkpt>
      <trkpt lat="46.28981" lon="6.12698">
        <ele>439.9</ele>
        <extensions>
          <visugpx:TrkExtension xmlns:visugpx="https://www.visugpx.com/editgpx/">
            <visugpx:node>102</visugpx:node>
            </visugpx:TrkExtension>
        </extensions>
      </trkpt>
      <trkpt lat="46.28981" lon="6.12703">
        <ele>439.9</ele>
      </trkpt>
      <trkpt lat="46.28986" lon="6.12706">
        <ele>439.9</ele>
      </trkpt>
      <trkpt lat="46.28995" lon="6.12711">
        <ele>440</ele>
      </trkpt>
      <trkpt lat="46.29014" lon="6.12709">
        <ele>441.9</ele>
      </trkpt>
      <trkpt lat="46.29027" lon="6.12702">
        <ele>442</ele>
      </trkpt>
      <trkpt lat="46.29038" lon="6.12692">
        <ele>442.2</ele>
      </trkpt>
      <trkpt lat="46.29049" lon="6.12677">
        <ele>442.5</ele>
      </trkpt>
      <trkpt lat="46.29083" lon="6.12606">
        <ele>444.8</ele>
      </trkpt>
      <trkpt lat="46.29094" lon="6.12588">
        <ele>446.8</ele>
      </trkpt>
      <trkpt lat="46.29102" lon="6.12579">
        <ele>448.1</ele>
      </trkpt>
      <trkpt lat="46.29111" lon="6.12572">
        <ele>448.5</ele>
      </trkpt>
      <trkpt lat="46.29118" lon="6.12566">
        <ele>448.7</ele>
      </trkpt>
      <trkpt lat="46.29192" lon="6.12523">
        <ele>451.4</ele>
      </trkpt>
      <trkpt lat="46.29273" lon="6.12474">
        <ele>456.5</ele>
      </trkpt>
      <trkpt lat="46.29279" lon="6.12471">
        <ele>456.7</ele>
        <extensions>
          <visugpx:TrkExtension xmlns:visugpx="https://www.visugpx.com/editgpx/">
            <visugpx:node>103</visugpx:node>
            </visugpx:TrkExtension>
        </extensions>
      </trkpt>
      <trkpt lat="46.29535" lon="6.12322">
        <ele>462.1</ele>
      </trkpt>
      <trkpt lat="46.29548" lon="6.12315">
        <ele>462.3</ele>
      </trkpt>
      <trkpt lat="46.29568" lon="6.12308">
        <ele>462.3</ele>
      </trkpt>
      <trkpt lat="46.29594" lon="6.12306">
        <ele>462.8</ele>
      </trkpt>
      <trkpt lat="46.2961" lon="6.1231">
        <ele>462.9</ele>
      </trkpt>
      <trkpt lat="46.29681" lon="6.12359">
        <ele>463.8</ele>
      </trkpt>
      <trkpt lat="46.29717" lon="6.1238">
        <ele>464.7</ele>
      </trkpt>
      <trkpt lat="46.29815" lon="6.12429">
        <ele>468.5</ele>
      </trkpt>
      <trkpt lat="46.29841" lon="6.12439">
        <ele>469.2</ele>
      </trkpt>
      <trkpt lat="46.29848" lon="6.12441">
        <ele>469.1</ele>
        <extensions>
          <visugpx:TrkExtension xmlns:visugpx="https://www.visugpx.com/editgpx/">
            <visugpx:node>104</visugpx:node>
            </visugpx:TrkExtension>
        </extensions>
      </trkpt>
      <trkpt lat="46.29867" lon="6.12446">
        <ele>468.8</ele>
      </trkpt>
      <trkpt lat="46.30045" lon="6.12481">
        <ele>470.1</ele>
        <extensions>
          <visugpx:TrkExtension xmlns:visugpx="https://www.visugpx.com/editgpx/">
            <visugpx:node>105</visugpx:node>
            </visugpx:TrkExtension>
        </extensions>
      </trkpt>
      <trkpt lat="46.30047" lon="6.12481">
        <ele>470.1</ele>
      </trkpt>
      <trkpt lat="46.30059" lon="6.12484">
        <ele>470.3</ele>
      </trkpt>
      <trkpt lat="46.29946" lon="6.12688">
        <ele>467</ele>
      </trkpt>
      <trkpt lat="46.29839" lon="6.12885">
        <ele>458.2</ele>
      </trkpt>
      <trkpt lat="46.29852" lon="6.12893">
        <ele>458.1</ele>
        <extensions>
          <visugpx:TrkExtension xmlns:visugpx="https://www.visugpx.com/editgpx/">
            <visugpx:node>106</visugpx:node>
            </visugpx:TrkExtension>
        </extensions>
      </trkpt>
      <trkpt lat="46.29839" lon="6.12885">
        <ele>458.2</ele>
      </trkpt>
      <trkpt lat="46.29805" lon="6.12864">
        <ele>457.6</ele>
      </trkpt>
      <trkpt lat="46.29769" lon="6.12841">
        <ele>457.4</ele>
      </trkpt>
      <trkpt lat="46.29733" lon="6.12823">
        <ele>457.7</ele>
      </trkpt>
      <trkpt lat="46.29434" lon="6.12711">
        <ele>454.7</ele>
      </trkpt>
      <trkpt lat="46.29412" lon="6.127">
        <ele>453.2</ele>
        <extensions>
          <visugpx:TrkExtension xmlns:visugpx="https://www.visugpx.com/editgpx/">
            <visugpx:node>107</visugpx:node>
            </visugpx:TrkExtension>
        </extensions>
      </trkpt>
      <trkpt lat="46.29407" lon="6.12698">
        <ele>453.2</ele>
      </trkpt>
      <trkpt lat="46.29399" lon="6.12692">
        <ele>453.2</ele>
      </trkpt>
      <trkpt lat="46.294" lon="6.12699">
        <ele>453.1</ele>
      </trkpt>
      <trkpt lat="46.2941" lon="6.12712">
        <ele>453</ele>
      </trkpt>
      <trkpt lat="46.2943" lon="6.12723">
        <ele>454.4</ele>
      </trkpt>
      <trkpt lat="46.29432" lon="6.12726">
        <ele>454.4</ele>
      </trkpt>
      <trkpt lat="46.29434" lon="6.12725">
        <ele>454.4</ele>
      </trkpt>
      <trkpt lat="46.29439" lon="6.12726">
        <ele>454.5</ele>
      </trkpt>
      <trkpt lat="46.29443" lon="6.12734">
        <ele>454.4</ele>
      </trkpt>
      <trkpt lat="46.29442" lon="6.12738">
        <ele>454.4</ele>
      </trkpt>
      <trkpt lat="46.29448" lon="6.12749">
        <ele>454.4</ele>
      </trkpt>
      <trkpt lat="46.2945" lon="6.1276">
        <ele>453.7</ele>
      </trkpt>
      <trkpt lat="46.2945" lon="6.12778">
        <ele>453.7</ele>
      </trkpt>
      <trkpt lat="46.29448" lon="6.12788">
        <ele>453.6</ele>
      </trkpt>
      <trkpt lat="46.29443" lon="6.12802">
        <ele>453.5</ele>
      </trkpt>
      <trkpt lat="46.29429" lon="6.1282">
        <ele>452.9</ele>
      </trkpt>
      <trkpt lat="46.29401" lon="6.12846">
        <ele>450.8</ele>
      </trkpt>
      <trkpt lat="46.29367" lon="6.12865">
        <ele>449.9</ele>
      </trkpt>
      <trkpt lat="46.29349" lon="6.12868">
        <ele>449.7</ele>
      </trkpt>
      <trkpt lat="46.29305" lon="6.1287">
        <ele>447.4</ele>
      </trkpt>
      <trkpt lat="46.29298" lon="6.12876">
        <ele>447.1</ele>
      </trkpt>
      <trkpt lat="46.29284" lon="6.12907">
        <ele>446.3</ele>
      </trkpt>
      <trkpt lat="46.29255" lon="6.12963">
        <ele>443.7</ele>
      </trkpt>
      <trkpt lat="46.29229" lon="6.13041">
        <ele>441.9</ele>
      </trkpt>
      <trkpt lat="46.29226" lon="6.13054">
        <ele>441.8</ele>
      </trkpt>
      <trkpt lat="46.29222" lon="6.13053">
        <ele>441.9</ele>
      </trkpt>
      <trkpt lat="46.29221" lon="6.13063">
        <ele>441.8</ele>
      </trkpt>
      <trkpt lat="46.29199" lon="6.13129">
        <ele>442</ele>
      </trkpt>
      <trkpt lat="46.29188" lon="6.13191">
        <ele>440.9</ele>
      </trkpt>
      <trkpt lat="46.29177" lon="6.13247">
        <ele>438.4</ele>
      </trkpt>
      <trkpt lat="46.29179" lon="6.13259">
        <ele>438.9</ele>
      </trkpt>
      <trkpt lat="46.29192" lon="6.13286">
        <ele>440.5</ele>
      </trkpt>
      <trkpt lat="46.2921" lon="6.13309">
        <ele>441.3</ele>
      </trkpt>
      <trkpt lat="46.2922" lon="6.13326">
        <ele>441.9</ele>
      </trkpt>
      <trkpt lat="46.29221" lon="6.13329">
        <ele>442</ele>
        <extensions>
          <visugpx:TrkExtension xmlns:visugpx="https://www.visugpx.com/editgpx/">
            <visugpx:node>108</visugpx:node>
            </visugpx:TrkExtension>
        </extensions>
      </trkpt>
      <trkpt lat="46.29221" lon="6.13329">
        <ele>442</ele>
        <extensions>
          <visugpx:TrkExtension xmlns:visugpx="https://www.visugpx.com/editgpx/">
            <visugpx:node>109</visugpx:node>
            </visugpx:TrkExtension>
        </extensions>
      </trkpt>
      <trkpt lat="46.29226" lon="6.13341">
        <ele>443.8</ele>
      </trkpt>
      <trkpt lat="46.29235" lon="6.1337">
        <ele>444.2</ele>
      </trkpt>
      <trkpt lat="46.2924" lon="6.13394">
        <ele>444.8</ele>
      </trkpt>
      <trkpt lat="46.29305" lon="6.13372">
        <ele>445.2</ele>
      </trkpt>
      <trkpt lat="46.29353" lon="6.13356">
        <ele>444.7</ele>
      </trkpt>
      <trkpt lat="46.29363" lon="6.13354">
        <ele>444.7</ele>
      </trkpt>
      <trkpt lat="46.29356" lon="6.13308">
        <ele>442.9</ele>
      </trkpt>
      <trkpt lat="46.29355" lon="6.13303">
        <ele>442.8</ele>
      </trkpt>
      <trkpt lat="46.29347" lon="6.13283">
        <ele>442.5</ele>
      </trkpt>
      <trkpt lat="46.29348" lon="6.13279">
        <ele>442.5</ele>
      </trkpt>
      <trkpt lat="46.29349" lon="6.13275">
        <ele>442.4</ele>
      </trkpt>
      <trkpt lat="46.2935" lon="6.13269">
        <ele>442.3</ele>
      </trkpt>
      <trkpt lat="46.29356" lon="6.13261">
        <ele>442.3</ele>
      </trkpt>
      <trkpt lat="46.29361" lon="6.13249">
        <ele>441.9</ele>
      </trkpt>
      <trkpt lat="46.29365" lon="6.13222">
        <ele>441.9</ele>
      </trkpt>
      <trkpt lat="46.29371" lon="6.13203">
        <ele>442</ele>
      </trkpt>
      <trkpt lat="46.29378" lon="6.13199">
        <ele>442.1</ele>
      </trkpt>
      <trkpt lat="46.29384" lon="6.132">
        <ele>442.1</ele>
      </trkpt>
      <trkpt lat="46.29394" lon="6.13208">
        <ele>442</ele>
      </trkpt>
      <trkpt lat="46.2942" lon="6.13233">
        <ele>442</ele>
      </trkpt>
      <trkpt lat="46.29435" lon="6.13244">
        <ele>442.1</ele>
        <extensions>
          <visugpx:TrkExtension xmlns:visugpx="https://www.visugpx.com/editgpx/">
            <visugpx:node>110</visugpx:node>
            </visugpx:TrkExtension>
        </extensions>
      </trkpt>
      <trkpt lat="46.29467" lon="6.13266">
        <ele>442.5</ele>
      </trkpt>
      <trkpt lat="46.29497" lon="6.1328">
        <ele>442.7</ele>
      </trkpt>
      <trkpt lat="46.29531" lon="6.13288">
        <ele>443.7</ele>
      </trkpt>
      <trkpt lat="46.29536" lon="6.13283">
        <ele>443.7</ele>
      </trkpt>
      <trkpt lat="46.29545" lon="6.13265">
        <ele>443.9</ele>
      </trkpt>
      <trkpt lat="46.29554" lon="6.13257">
        <ele>444.1</ele>
      </trkpt>
      <trkpt lat="46.29557" lon="6.1324">
        <ele>445.1</ele>
      </trkpt>
      <trkpt lat="46.29568" lon="6.13224">
        <ele>445.3</ele>
      </trkpt>
      <trkpt lat="46.29586" lon="6.13224">
        <ele>446.7</ele>
      </trkpt>
      <trkpt lat="46.29602" lon="6.13213">
        <ele>447.1</ele>
      </trkpt>
      <trkpt lat="46.29606" lon="6.13215">
        <ele>447.2</ele>
      </trkpt>
      <trkpt lat="46.29608" lon="6.13213">
        <ele>447.2</ele>
      </trkpt>
      <trkpt lat="46.29616" lon="6.13185">
        <ele>447.7</ele>
      </trkpt>
      <trkpt lat="46.29624" lon="6.13157">
        <ele>450</ele>
      </trkpt>
      <trkpt lat="46.2963" lon="6.13139">
        <ele>450.4</ele>
      </trkpt>
      <trkpt lat="46.29635" lon="6.13121">
        <ele>451</ele>
      </trkpt>
      <trkpt lat="46.29648" lon="6.13104">
        <ele>452</ele>
      </trkpt>
      <trkpt lat="46.29655" lon="6.13088">
        <ele>453.3</ele>
      </trkpt>
      <trkpt lat="46.29656" lon="6.1308">
        <ele>454.8</ele>
      </trkpt>
      <trkpt lat="46.29654" lon="6.13064">
        <ele>454.7</ele>
      </trkpt>
      <trkpt lat="46.29653" lon="6.13041">
        <ele>455</ele>
      </trkpt>
      <trkpt lat="46.29669" lon="6.12997">
        <ele>457</ele>
      </trkpt>
      <trkpt lat="46.29669" lon="6.12997">
        <ele>457</ele>
        <extensions>
          <visugpx:TrkExtension xmlns:visugpx="https://www.visugpx.com/editgpx/">
            <visugpx:node>112</visugpx:node>
            </visugpx:TrkExtension>
        </extensions>
      </trkpt>
      <trkpt lat="46.29677" lon="6.12989">
        <ele>457.1</ele>
      </trkpt>
      <trkpt lat="46.29691" lon="6.12984">
        <ele>457.1</ele>
      </trkpt>
      <trkpt lat="46.29697" lon="6.1297">
        <ele>457.2</ele>
      </trkpt>
      <trkpt lat="46.29713" lon="6.12958">
        <ele>457.2</ele>
      </trkpt>
      <trkpt lat="46.29723" lon="6.12985">
        <ele>456.9</ele>
      </trkpt>
      <trkpt lat="46.29732" lon="6.13">
        <ele>456.6</ele>
      </trkpt>
      <trkpt lat="46.29755" lon="6.13032">
        <ele>455.3</ele>
      </trkpt>
      <trkpt lat="46.29757" lon="6.13033">
        <ele>455.3</ele>
      </trkpt>
      <trkpt lat="46.29782" lon="6.12987">
        <ele>456.1</ele>
        <extensions>
          <visugpx:TrkExtension xmlns:visugpx="https://www.visugpx.com/editgpx/">
            <visugpx:node>114</visugpx:node>
            </visugpx:TrkExtension>
        </extensions>
      </trkpt>
      <trkpt lat="46.29757" lon="6.13033">
        <ele>455.3</ele>
      </trkpt>
      <trkpt lat="46.29754" lon="6.13038">
        <ele>455.2</ele>
      </trkpt>
      <trkpt lat="46.29682" lon="6.13173">
        <ele>449.5</ele>
      </trkpt>
      <trkpt lat="46.29602" lon="6.13316">
        <ele>445.5</ele>
        <extensions>
          <visugpx:TrkExtension xmlns:visugpx="https://www.visugpx.com/editgpx/">
            <visugpx:node>115</visugpx:node>
            </visugpx:TrkExtension>
        </extensions>
      </trkpt>
      <trkpt lat="46.29579" lon="6.13357">
        <ele>444.2</ele>
      </trkpt>
      <trkpt lat="46.29577" lon="6.13353">
        <ele>444.2</ele>
      </trkpt>
      <trkpt lat="46.29573" lon="6.13342">
        <ele>444.1</ele>
      </trkpt>
      <trkpt lat="46.29565" lon="6.13338">
        <ele>444.1</ele>
      </trkpt>
      <trkpt lat="46.29554" lon="6.13326">
        <ele>443.8</ele>
      </trkpt>
      <trkpt lat="46.29541" lon="6.13325">
        <ele>443.7</ele>
      </trkpt>
      <trkpt lat="46.29535" lon="6.13322">
        <ele>443.6</ele>
      </trkpt>
      <trkpt lat="46.29528" lon="6.13323">
        <ele>443.5</ele>
      </trkpt>
      <trkpt lat="46.29524" lon="6.13321">
        <ele>443.5</ele>
      </trkpt>
      <trkpt lat="46.29516" lon="6.13323">
        <ele>443.4</ele>
      </trkpt>
      <trkpt lat="46.29496" lon="6.13312">
        <ele>442.8</ele>
      </trkpt>
      <trkpt lat="46.29475" lon="6.13313">
        <ele>442.7</ele>
      </trkpt>
      <trkpt lat="46.29469" lon="6.13302">
        <ele>442.6</ele>
      </trkpt>
      <trkpt lat="46.29463" lon="6.13297">
        <ele>442.6</ele>
      </trkpt>
      <trkpt lat="46.29442" lon="6.13306">
        <ele>442.5</ele>
      </trkpt>
      <trkpt lat="46.29437" lon="6.13322">
        <ele>442.7</ele>
      </trkpt>
      <trkpt lat="46.29436" lon="6.13325">
        <ele>442.7</ele>
        <extensions>
          <visugpx:TrkExtension xmlns:visugpx="https://www.visugpx.com/editgpx/">
            <visugpx:node>116</visugpx:node>
            </visugpx:TrkExtension>
        </extensions>
      </trkpt>
      <trkpt lat="46.2943" lon="6.13338">
        <ele>443.5</ele>
      </trkpt>
      <trkpt lat="46.2943" lon="6.13347">
        <ele>443.7</ele>
      </trkpt>
      <trkpt lat="46.29428" lon="6.1336">
        <ele>444</ele>
      </trkpt>
      <trkpt lat="46.29427" lon="6.13362">
        <ele>444</ele>
      </trkpt>
      <trkpt lat="46.29427" lon="6.13366">
        <ele>444.1</ele>
      </trkpt>
      <trkpt lat="46.29426" lon="6.1337">
        <ele>444.2</ele>
      </trkpt>
      <trkpt lat="46.29419" lon="6.13383">
        <ele>444.6</ele>
      </trkpt>
      <trkpt lat="46.29417" lon="6.13414">
        <ele>445.8</ele>
      </trkpt>
      <trkpt lat="46.29418" lon="6.13423">
        <ele>446.1</ele>
        <extensions>
          <visugpx:TrkExtension xmlns:visugpx="https://www.visugpx.com/editgpx/">
            <visugpx:node>118</visugpx:node>
            </visugpx:TrkExtension>
        </extensions>
      </trkpt>
      <trkpt lat="46.29422" lon="6.13456">
        <ele>446.5</ele>
      </trkpt>
      <trkpt lat="46.2942" lon="6.13466">
        <ele>446.6</ele>
      </trkpt>
      <trkpt lat="46.29421" lon="6.13473">
        <ele>446.7</ele>
      </trkpt>
      <trkpt lat="46.29419" lon="6.13503">
        <ele>447.1</ele>
      </trkpt>
      <trkpt lat="46.29413" lon="6.13521">
        <ele>447.4</ele>
      </trkpt>
      <trkpt lat="46.29404" lon="6.13529">
        <ele>447.5</ele>
      </trkpt>
      <trkpt lat="46.29403" lon="6.13529">
        <ele>447.5</ele>
      </trkpt>
      <trkpt lat="46.29402" lon="6.13529">
        <ele>447.5</ele>
      </trkpt>
      <trkpt lat="46.29387" lon="6.13521">
        <ele>447.7</ele>
      </trkpt>
      <trkpt lat="46.29382" lon="6.13522">
        <ele>447.7</ele>
      </trkpt>
      <trkpt lat="46.29379" lon="6.13522">
        <ele>447.8</ele>
      </trkpt>
      <trkpt lat="46.29381" lon="6.1354">
        <ele>447.7</ele>
      </trkpt>
      <trkpt lat="46.29381" lon="6.13554">
        <ele>447.7</ele>
      </trkpt>
      <trkpt lat="46.2938" lon="6.13561">
        <ele>447.7</ele>
      </trkpt>
      <trkpt lat="46.29377" lon="6.13564">
        <ele>447.7</ele>
      </trkpt>
      <trkpt lat="46.29371" lon="6.13568">
        <ele>447.7</ele>
      </trkpt>
      <trkpt lat="46.2936" lon="6.1357">
        <ele>447.8</ele>
      </trkpt>
      <trkpt lat="46.29357" lon="6.13573">
        <ele>447.8</ele>
      </trkpt>
      <trkpt lat="46.29353" lon="6.13582">
        <ele>447.8</ele>
      </trkpt>
      <trkpt lat="46.2935" lon="6.13595">
        <ele>447.4</ele>
        <extensions>
          <visugpx:TrkExtension xmlns:visugpx="https://www.visugpx.com/editgpx/">
            <visugpx:node>119</visugpx:node>
            </visugpx:TrkExtension>
        </extensions>
      </trkpt>
      <trkpt lat="46.29344" lon="6.13617">
        <ele>447.1</ele>
      </trkpt>
      <trkpt lat="46.29331" lon="6.13639">
        <ele>445.7</ele>
      </trkpt>
      <trkpt lat="46.29329" lon="6.13643">
        <ele>445.7</ele>
      </trkpt>
      <trkpt lat="46.29327" lon="6.13647">
        <ele>445.7</ele>
      </trkpt>
      <trkpt lat="46.29326" lon="6.13649">
        <ele>445.7</ele>
      </trkpt>
      <trkpt lat="46.29303" lon="6.1368">
        <ele>444.6</ele>
      </trkpt>
      <trkpt lat="46.29293" lon="6.13691">
        <ele>444.3</ele>
      </trkpt>
      <trkpt lat="46.29276" lon="6.13703">
        <ele>444.1</ele>
      </trkpt>
      <trkpt lat="46.29255" lon="6.13713">
        <ele>444</ele>
      </trkpt>
      <trkpt lat="46.29249" lon="6.13717">
        <ele>443</ele>
      </trkpt>
      <trkpt lat="46.2925" lon="6.13722">
        <ele>443.1</ele>
      </trkpt>
      <trkpt lat="46.2925" lon="6.13741">
        <ele>443.6</ele>
      </trkpt>
      <trkpt lat="46.29245" lon="6.13762">
        <ele>443.6</ele>
      </trkpt>
      <trkpt lat="46.29244" lon="6.13771">
        <ele>443.5</ele>
      </trkpt>
      <trkpt lat="46.29246" lon="6.13779">
        <ele>443.4</ele>
      </trkpt>
      <trkpt lat="46.2925" lon="6.13786">
        <ele>443.4</ele>
      </trkpt>
      <trkpt lat="46.29245" lon="6.13797">
        <ele>443.4</ele>
      </trkpt>
      <trkpt lat="46.29239" lon="6.1381">
        <ele>443.4</ele>
      </trkpt>
      <trkpt lat="46.29225" lon="6.13847">
        <ele>443</ele>
      </trkpt>
      <trkpt lat="46.29219" lon="6.13862">
        <ele>442.7</ele>
      </trkpt>
      <trkpt lat="46.29219" lon="6.13862">
        <ele>442.7</ele>
        <extensions>
          <visugpx:TrkExtension xmlns:visugpx="https://www.visugpx.com/editgpx/">
            <visugpx:node>120</visugpx:node>
            </visugpx:TrkExtension>
        </extensions>
      </trkpt>
    </trkseg>
  </trk>
</gpx>